<?xml version='1.0' encoding='UTF-8'?><gpx version="1.1" creator="JPX - https://github.com/jenetics/jpx" xmlns="http://www.topografix.com/GPX/1/1"><trk><trkseg><trkpt lat="32.9450518" lon="10.4675441"><ele>231.99999999999997</ele><time>2026-04-26T13:47:09.603Z</time></trkpt><trkpt lat="32.9450829" lon="10.4676321"><ele>232.0</ele><time>2026-04-26T13:47:12.609Z</time></trkpt><trkpt lat="32.9451528" lon="10.4676487"><ele>232.0</ele><time>2026-04-26T13:47:16.627Z</time></trkpt><trkpt lat="32.9452066" lon="10.4675789"><ele>232.0</ele><time>2026-04-26T13:47:18.615Z</time></trkpt><trkpt lat="32.9452571" lon="10.4674761"><ele>231.99999999999997</ele><time>2026-04-26T13:47:20.604Z</time></trkpt><trkpt lat="32.9453115" lon="10.467381"><ele>232.0</ele><time>2026-04-26T13:47:22.601Z</time></trkpt><trkpt lat="32.9453588" lon="10.467286"><ele>231.99999999999997</ele><time>2026-04-26T13:47:24.622Z</time></trkpt><trkpt lat="32.945411" lon="10.4671892"><ele>232.0</ele><time>2026-04-26T13:47:26.614Z</time></trkpt><trkpt lat="32.945461" lon="10.4671087"><ele>232.0</ele><time>2026-04-26T13:47:28.61Z</time></trkpt><trkpt lat="32.9455073" lon="10.4670409"><ele>232.0</ele><time>2026-04-26T13:47:30.657Z</time></trkpt><trkpt lat="32.9455578" lon="10.466965"><ele>231.99999999999997</ele><time>2026-04-26T13:47:32.636Z</time></trkpt><trkpt lat="32.9456023" lon="10.4668925"><ele>232.0</ele><time>2026-04-26T13:47:34.609Z</time></trkpt><trkpt lat="32.9456475" lon="10.4668256"><ele>231.66666666666666</ele><time>2026-04-26T13:47:36.618Z</time></trkpt><trkpt lat="32.9456858" lon="10.4667618"><ele>231.33333333333331</ele><time>2026-04-26T13:47:38.616Z</time></trkpt><trkpt lat="32.9457297" lon="10.4667034"><ele>231.0</ele><time>2026-04-26T13:47:40.636Z</time></trkpt><trkpt lat="32.9457914" lon="10.4666206"><ele>230.66666666666669</ele><time>2026-04-26T13:47:43.637Z</time></trkpt><trkpt lat="32.945831" lon="10.4665374"><ele>230.33333333333334</ele><time>2026-04-26T13:47:45.603Z</time></trkpt><trkpt lat="32.9458724" lon="10.4664594"><ele>230.0</ele><time>2026-04-26T13:47:47.588Z</time></trkpt><trkpt lat="32.945922" lon="10.4663677"><ele>229.0</ele><time>2026-04-26T13:47:49.618Z</time></trkpt><trkpt lat="32.9459699" lon="10.4662419"><ele>228.0</ele><time>2026-04-26T13:47:51.598Z</time></trkpt><trkpt lat="32.9460214" lon="10.4661165"><ele>227.0</ele><time>2026-04-26T13:47:53.614Z</time></trkpt><trkpt lat="32.9460771" lon="10.4659947"><ele>226.0</ele><time>2026-04-26T13:47:55.638Z</time></trkpt><trkpt lat="32.9461449" lon="10.465875"><ele>226.0</ele><time>2026-04-26T13:47:57.619Z</time></trkpt><trkpt lat="32.9462052" lon="10.465758"><ele>226.00000000000003</ele><time>2026-04-26T13:47:59.616Z</time></trkpt><trkpt lat="32.9462683" lon="10.465645"><ele>226.00000000000003</ele><time>2026-04-26T13:48:01.636Z</time></trkpt><trkpt lat="32.9463287" lon="10.4655324"><ele>226.0</ele><time>2026-04-26T13:48:03.626Z</time></trkpt><trkpt lat="32.9463812" lon="10.4654485"><ele>226.0</ele><time>2026-04-26T13:48:05.639Z</time></trkpt><trkpt lat="32.9464291" lon="10.4653601"><ele>226.0</ele><time>2026-04-26T13:48:07.63Z</time></trkpt><trkpt lat="32.9464695" lon="10.4652959"><ele>226.00000000000003</ele><time>2026-04-26T13:48:09.643Z</time></trkpt><trkpt lat="32.946537" lon="10.465184"><ele>226.00000000000003</ele><time>2026-04-26T13:48:12.621Z</time></trkpt><trkpt lat="32.9466024" lon="10.4650799"><ele>226.0</ele><time>2026-04-26T13:48:14.651Z</time></trkpt><trkpt lat="32.946649" lon="10.4649458"><ele>226.0</ele><time>2026-04-26T13:48:16.64Z</time></trkpt><trkpt lat="32.9466756" lon="10.4648197"><ele>225.99999999999997</ele><time>2026-04-26T13:48:18.628Z</time></trkpt><trkpt lat="32.9467095" lon="10.4647109"><ele>226.0</ele><time>2026-04-26T13:48:20.64Z</time></trkpt><trkpt lat="32.9467415" lon="10.4646207"><ele>226.0</ele><time>2026-04-26T13:48:22.637Z</time></trkpt><trkpt lat="32.9467312" lon="10.4645287"><ele>226.0</ele><time>2026-04-26T13:48:25.63Z</time></trkpt><trkpt lat="32.9466663" lon="10.4644682"><ele>225.99999999999997</ele><time>2026-04-26T13:48:27.582Z</time></trkpt><trkpt lat="32.946601" lon="10.4644516"><ele>226.0</ele><time>2026-04-26T13:48:28.624Z</time></trkpt><trkpt lat="32.9465072" lon="10.4644394"><ele>226.0</ele><time>2026-04-26T13:48:29.656Z</time></trkpt><trkpt lat="32.9463977" lon="10.4644272"><ele>226.00000000000003</ele><time>2026-04-26T13:48:30.626Z</time></trkpt><trkpt lat="32.9462858" lon="10.4643951"><ele>226.00000000000003</ele><time>2026-04-26T13:48:31.644Z</time></trkpt><trkpt lat="32.9461834" lon="10.4643635"><ele>226.0</ele><time>2026-04-26T13:48:32.617Z</time></trkpt><trkpt lat="32.9460939" lon="10.4643335"><ele>226.0</ele><time>2026-04-26T13:48:33.626Z</time></trkpt><trkpt lat="32.9460061" lon="10.4643159"><ele>225.99999999999997</ele><time>2026-04-26T13:48:34.647Z</time></trkpt><trkpt lat="32.9459327" lon="10.4642957"><ele>226.0</ele><time>2026-04-26T13:48:35.648Z</time></trkpt><trkpt lat="32.9458599" lon="10.4642737"><ele>226.0</ele><time>2026-04-26T13:48:36.619Z</time></trkpt><trkpt lat="32.9457789" lon="10.464248"><ele>226.0</ele><time>2026-04-26T13:48:37.611Z</time></trkpt><trkpt lat="32.9457013" lon="10.4642237"><ele>225.99999999999997</ele><time>2026-04-26T13:48:38.652Z</time></trkpt><trkpt lat="32.9456305" lon="10.464201"><ele>226.0</ele><time>2026-04-26T13:48:39.639Z</time></trkpt><trkpt lat="32.9455104" lon="10.4641514"><ele>226.16666666666666</ele><time>2026-04-26T13:48:41.641Z</time></trkpt><trkpt lat="32.9454406" lon="10.4641214"><ele>226.33333333333331</ele><time>2026-04-26T13:48:42.628Z</time></trkpt><trkpt lat="32.9453686" lon="10.464075"><ele>226.5</ele><time>2026-04-26T13:48:43.581Z</time></trkpt><trkpt lat="32.9452987" lon="10.4640253"><ele>226.66666666666669</ele><time>2026-04-26T13:48:44.613Z</time></trkpt><trkpt lat="32.9452251" lon="10.4639687"><ele>226.83333333333334</ele><time>2026-04-26T13:48:45.61Z</time></trkpt><trkpt lat="32.9451477" lon="10.4639072"><ele>227.0</ele><time>2026-04-26T13:48:46.653Z</time></trkpt><trkpt lat="32.9450669" lon="10.4638404"><ele>226.8</ele><time>2026-04-26T13:48:47.647Z</time></trkpt><trkpt lat="32.9449818" lon="10.4637667"><ele>226.6</ele><time>2026-04-26T13:48:48.655Z</time></trkpt><trkpt lat="32.9448972" lon="10.4636966"><ele>226.40000000000003</ele><time>2026-04-26T13:48:49.649Z</time></trkpt><trkpt lat="32.944809" lon="10.4636227"><ele>226.20000000000002</ele><time>2026-04-26T13:48:50.634Z</time></trkpt><trkpt lat="32.9447185" lon="10.4635438"><ele>226.0</ele><time>2026-04-26T13:48:51.659Z</time></trkpt><trkpt lat="32.9446252" lon="10.463458"><ele>226.0</ele><time>2026-04-26T13:48:52.654Z</time></trkpt><trkpt lat="32.9445307" lon="10.4633649"><ele>226.0</ele><time>2026-04-26T13:48:53.636Z</time></trkpt><trkpt lat="32.9444323" lon="10.46327"><ele>226.0</ele><time>2026-04-26T13:48:54.65Z</time></trkpt><trkpt lat="32.9443322" lon="10.4631726"><ele>226.0</ele><time>2026-04-26T13:48:55.632Z</time></trkpt><trkpt lat="32.9442261" lon="10.4630695"><ele>226.25</ele><time>2026-04-26T13:48:56.634Z</time></trkpt><trkpt lat="32.9441246" lon="10.4629662"><ele>226.5</ele><time>2026-04-26T13:48:57.646Z</time></trkpt><trkpt lat="32.9440243" lon="10.4628642"><ele>226.75</ele><time>2026-04-26T13:48:58.649Z</time></trkpt><trkpt lat="32.9439236" lon="10.4627707"><ele>227.0</ele><time>2026-04-26T13:48:59.663Z</time></trkpt><trkpt lat="32.9438314" lon="10.4626871"><ele>227.0</ele><time>2026-04-26T13:49:00.647Z</time></trkpt><trkpt lat="32.9437459" lon="10.462611"><ele>227.0</ele><time>2026-04-26T13:49:01.661Z</time></trkpt><trkpt lat="32.9436666" lon="10.4625352"><ele>227.0</ele><time>2026-04-26T13:49:02.602Z</time></trkpt><trkpt lat="32.9435918" lon="10.4624639"><ele>227.0</ele><time>2026-04-26T13:49:03.621Z</time></trkpt><trkpt lat="32.9435235" lon="10.4624022"><ele>227.0</ele><time>2026-04-26T13:49:04.616Z</time></trkpt><trkpt lat="32.9434664" lon="10.462349"><ele>227.39999999999998</ele><time>2026-04-26T13:49:05.646Z</time></trkpt><trkpt lat="32.9433684" lon="10.4622604"><ele>227.79999999999998</ele><time>2026-04-26T13:49:07.64Z</time></trkpt><trkpt lat="32.9433197" lon="10.4622099"><ele>228.2</ele><time>2026-04-26T13:49:08.639Z</time></trkpt><trkpt lat="32.9432538" lon="10.4621492"><ele>228.6</ele><time>2026-04-26T13:49:09.634Z</time></trkpt><trkpt lat="32.9431715" lon="10.462086"><ele>229.0</ele><time>2026-04-26T13:49:10.613Z</time></trkpt><trkpt lat="32.9430956" lon="10.4620188"><ele>229.2</ele><time>2026-04-26T13:49:11.597Z</time></trkpt><trkpt lat="32.9430181" lon="10.4619441"><ele>229.39999999999998</ele><time>2026-04-26T13:49:12.645Z</time></trkpt><trkpt lat="32.9429457" lon="10.461869"><ele>229.6</ele><time>2026-04-26T13:49:13.612Z</time></trkpt><trkpt lat="32.9428627" lon="10.4617957"><ele>229.8</ele><time>2026-04-26T13:49:14.614Z</time></trkpt><trkpt lat="32.9427833" lon="10.4617219"><ele>230.0</ele><time>2026-04-26T13:49:15.639Z</time></trkpt><trkpt lat="32.942704" lon="10.4616478"><ele>230.0</ele><time>2026-04-26T13:49:16.642Z</time></trkpt><trkpt lat="32.9426243" lon="10.461577"><ele>230.0</ele><time>2026-04-26T13:49:17.643Z</time></trkpt><trkpt lat="32.9425449" lon="10.4615037"><ele>230.0</ele><time>2026-04-26T13:49:18.624Z</time></trkpt><trkpt lat="32.9424634" lon="10.4614303"><ele>230.0</ele><time>2026-04-26T13:49:19.641Z</time></trkpt><trkpt lat="32.942379" lon="10.4613591"><ele>230.0</ele><time>2026-04-26T13:49:20.635Z</time></trkpt><trkpt lat="32.9422954" lon="10.4612864"><ele>230.0</ele><time>2026-04-26T13:49:21.621Z</time></trkpt><trkpt lat="32.9422114" lon="10.4612145"><ele>230.0</ele><time>2026-04-26T13:49:22.643Z</time></trkpt><trkpt lat="32.9421292" lon="10.4611408"><ele>230.0</ele><time>2026-04-26T13:49:23.636Z</time></trkpt><trkpt lat="32.9420474" lon="10.4610639"><ele>230.0</ele><time>2026-04-26T13:49:24.625Z</time></trkpt><trkpt lat="32.9419715" lon="10.4609923"><ele>230.0</ele><time>2026-04-26T13:49:25.647Z</time></trkpt><trkpt lat="32.9418939" lon="10.460921"><ele>230.0</ele><time>2026-04-26T13:49:26.653Z</time></trkpt><trkpt lat="32.9418202" lon="10.460853"><ele>230.0</ele><time>2026-04-26T13:49:27.649Z</time></trkpt><trkpt lat="32.941744" lon="10.4607875"><ele>230.0</ele><time>2026-04-26T13:49:28.65Z</time></trkpt><trkpt lat="32.9416728" lon="10.460722"><ele>230.0</ele><time>2026-04-26T13:49:29.592Z</time></trkpt><trkpt lat="32.9416041" lon="10.4606519"><ele>230.0</ele><time>2026-04-26T13:49:30.645Z</time></trkpt><trkpt lat="32.9415349" lon="10.4605889"><ele>229.8</ele><time>2026-04-26T13:49:31.639Z</time></trkpt><trkpt lat="32.9414621" lon="10.460529"><ele>229.6</ele><time>2026-04-26T13:49:32.642Z</time></trkpt><trkpt lat="32.9413891" lon="10.4604676"><ele>229.39999999999998</ele><time>2026-04-26T13:49:33.653Z</time></trkpt><trkpt lat="32.941312" lon="10.4604024"><ele>229.2</ele><time>2026-04-26T13:49:34.597Z</time></trkpt><trkpt lat="32.9412358" lon="10.4603391"><ele>229.0</ele><time>2026-04-26T13:49:35.64Z</time></trkpt><trkpt lat="32.9411668" lon="10.4602788"><ele>228.99999999999997</ele><time>2026-04-26T13:49:36.654Z</time></trkpt><trkpt lat="32.941104" lon="10.4602215"><ele>229.0</ele><time>2026-04-26T13:49:37.644Z</time></trkpt><trkpt lat="32.9410492" lon="10.460177"><ele>229.0</ele><time>2026-04-26T13:49:38.636Z</time></trkpt><trkpt lat="32.9409621" lon="10.4600953"><ele>229.0</ele><time>2026-04-26T13:49:40.657Z</time></trkpt><trkpt lat="32.9409126" lon="10.4600436"><ele>228.99999999999997</ele><time>2026-04-26T13:49:41.635Z</time></trkpt><trkpt lat="32.9408494" lon="10.4599803"><ele>229.0</ele><time>2026-04-26T13:49:42.646Z</time></trkpt><trkpt lat="32.9407827" lon="10.4599154"><ele>229.0</ele><time>2026-04-26T13:49:43.64Z</time></trkpt><trkpt lat="32.9407188" lon="10.4598575"><ele>228.99999999999997</ele><time>2026-04-26T13:49:44.637Z</time></trkpt><trkpt lat="32.9406482" lon="10.4597931"><ele>228.99999999999997</ele><time>2026-04-26T13:49:45.643Z</time></trkpt><trkpt lat="32.94057" lon="10.4597206"><ele>229.0</ele><time>2026-04-26T13:49:46.636Z</time></trkpt><trkpt lat="32.9404934" lon="10.4596521"><ele>229.0</ele><time>2026-04-26T13:49:47.651Z</time></trkpt><trkpt lat="32.940417" lon="10.4595834"><ele>228.79999999999998</ele><time>2026-04-26T13:49:48.649Z</time></trkpt><trkpt lat="32.9403414" lon="10.4595162"><ele>228.59999999999997</ele><time>2026-04-26T13:49:49.622Z</time></trkpt><trkpt lat="32.9402648" lon="10.4594485"><ele>228.4</ele><time>2026-04-26T13:49:50.643Z</time></trkpt><trkpt lat="32.9401889" lon="10.4593808"><ele>228.2</ele><time>2026-04-26T13:49:51.652Z</time></trkpt><trkpt lat="32.9401158" lon="10.4593093"><ele>228.0</ele><time>2026-04-26T13:49:52.639Z</time></trkpt><trkpt lat="32.9400429" lon="10.4592368"><ele>228.0</ele><time>2026-04-26T13:49:53.639Z</time></trkpt><trkpt lat="32.9399688" lon="10.4591668"><ele>228.0</ele><time>2026-04-26T13:49:54.64Z</time></trkpt><trkpt lat="32.9398924" lon="10.4590987"><ele>228.0</ele><time>2026-04-26T13:49:55.632Z</time></trkpt><trkpt lat="32.9398192" lon="10.4590294"><ele>228.0</ele><time>2026-04-26T13:49:56.6Z</time></trkpt><trkpt lat="32.9397445" lon="10.4589583"><ele>228.0</ele><time>2026-04-26T13:49:57.659Z</time></trkpt><trkpt lat="32.9396738" lon="10.4588863"><ele>228.0</ele><time>2026-04-26T13:49:58.634Z</time></trkpt><trkpt lat="32.9396017" lon="10.4588165"><ele>228.0</ele><time>2026-04-26T13:49:59.624Z</time></trkpt><trkpt lat="32.9395337" lon="10.4587515"><ele>228.0</ele><time>2026-04-26T13:50:00.637Z</time></trkpt><trkpt lat="32.9394656" lon="10.4586884"><ele>228.0</ele><time>2026-04-26T13:50:01.646Z</time></trkpt><trkpt lat="32.9393927" lon="10.458624"><ele>228.0</ele><time>2026-04-26T13:50:02.616Z</time></trkpt><trkpt lat="32.9393154" lon="10.4585574"><ele>228.0</ele><time>2026-04-26T13:50:03.624Z</time></trkpt><trkpt lat="32.9392346" lon="10.4584871"><ele>228.0</ele><time>2026-04-26T13:50:04.644Z</time></trkpt><trkpt lat="32.9391522" lon="10.4584147"><ele>228.0</ele><time>2026-04-26T13:50:05.661Z</time></trkpt><trkpt lat="32.9390683" lon="10.4583415"><ele>228.0</ele><time>2026-04-26T13:50:06.628Z</time></trkpt><trkpt lat="32.9389791" lon="10.4582675"><ele>228.0</ele><time>2026-04-26T13:50:07.644Z</time></trkpt><trkpt lat="32.938891" lon="10.458193"><ele>228.2</ele><time>2026-04-26T13:50:08.629Z</time></trkpt><trkpt lat="32.938804" lon="10.4581168"><ele>228.4</ele><time>2026-04-26T13:50:09.639Z</time></trkpt><trkpt lat="32.9387203" lon="10.4580397"><ele>228.59999999999997</ele><time>2026-04-26T13:50:10.64Z</time></trkpt><trkpt lat="32.9386405" lon="10.4579696"><ele>228.79999999999998</ele><time>2026-04-26T13:50:11.623Z</time></trkpt><trkpt lat="32.938556" lon="10.4578971"><ele>229.0</ele><time>2026-04-26T13:50:12.645Z</time></trkpt><trkpt lat="32.9384737" lon="10.4578298"><ele>229.0</ele><time>2026-04-26T13:50:13.64Z</time></trkpt><trkpt lat="32.9383897" lon="10.4577611"><ele>228.99999999999997</ele><time>2026-04-26T13:50:14.647Z</time></trkpt><trkpt lat="32.9383037" lon="10.4576926"><ele>228.99999999999997</ele><time>2026-04-26T13:50:15.643Z</time></trkpt><trkpt lat="32.9382189" lon="10.4576205"><ele>229.0</ele><time>2026-04-26T13:50:16.666Z</time></trkpt><trkpt lat="32.9381356" lon="10.4575508"><ele>229.0</ele><time>2026-04-26T13:50:17.638Z</time></trkpt><trkpt lat="32.938052" lon="10.4574799"><ele>229.0</ele><time>2026-04-26T13:50:18.626Z</time></trkpt><trkpt lat="32.937965" lon="10.4574051"><ele>228.99999999999997</ele><time>2026-04-26T13:50:19.667Z</time></trkpt><trkpt lat="32.9378782" lon="10.4573321"><ele>228.99999999999997</ele><time>2026-04-26T13:50:20.644Z</time></trkpt><trkpt lat="32.9377932" lon="10.4572559"><ele>229.0</ele><time>2026-04-26T13:50:21.648Z</time></trkpt><trkpt lat="32.9377096" lon="10.4571825"><ele>229.0</ele><time>2026-04-26T13:50:22.642Z</time></trkpt><trkpt lat="32.937628" lon="10.4571091"><ele>228.79999999999998</ele><time>2026-04-26T13:50:23.652Z</time></trkpt><trkpt lat="32.93755" lon="10.4570392"><ele>228.59999999999997</ele><time>2026-04-26T13:50:24.649Z</time></trkpt><trkpt lat="32.937475" lon="10.4569715"><ele>228.4</ele><time>2026-04-26T13:50:25.661Z</time></trkpt><trkpt lat="32.9374023" lon="10.4569076"><ele>228.2</ele><time>2026-04-26T13:50:26.638Z</time></trkpt><trkpt lat="32.9373301" lon="10.4568446"><ele>228.0</ele><time>2026-04-26T13:50:27.658Z</time></trkpt><trkpt lat="32.9372604" lon="10.4567816"><ele>228.0</ele><time>2026-04-26T13:50:28.642Z</time></trkpt><trkpt lat="32.9371863" lon="10.4567133"><ele>228.0</ele><time>2026-04-26T13:50:29.646Z</time></trkpt><trkpt lat="32.937111" lon="10.4566424"><ele>228.0</ele><time>2026-04-26T13:50:30.622Z</time></trkpt><trkpt lat="32.9370337" lon="10.4565702"><ele>228.0</ele><time>2026-04-26T13:50:31.64Z</time></trkpt><trkpt lat="32.9369567" lon="10.4565014"><ele>228.0</ele><time>2026-04-26T13:50:32.6Z</time></trkpt><trkpt lat="32.9368724" lon="10.4564328"><ele>228.0</ele><time>2026-04-26T13:50:33.649Z</time></trkpt><trkpt lat="32.9367875" lon="10.4563691"><ele>228.0</ele><time>2026-04-26T13:50:34.641Z</time></trkpt><trkpt lat="32.9367046" lon="10.4563162"><ele>228.0</ele><time>2026-04-26T13:50:35.604Z</time></trkpt><trkpt lat="32.9366183" lon="10.4562642"><ele>228.0</ele><time>2026-04-26T13:50:36.648Z</time></trkpt><trkpt lat="32.9365336" lon="10.4562092"><ele>228.0</ele><time>2026-04-26T13:50:37.657Z</time></trkpt><trkpt lat="32.9364505" lon="10.4561545"><ele>228.16666666666666</ele><time>2026-04-26T13:50:38.639Z</time></trkpt><trkpt lat="32.9363728" lon="10.456106"><ele>228.33333333333331</ele><time>2026-04-26T13:50:39.642Z</time></trkpt><trkpt lat="32.9363023" lon="10.4560635"><ele>228.5</ele><time>2026-04-26T13:50:40.627Z</time></trkpt><trkpt lat="32.9362341" lon="10.4560275"><ele>228.66666666666666</ele><time>2026-04-26T13:50:41.637Z</time></trkpt><trkpt lat="32.9361684" lon="10.4559932"><ele>228.83333333333331</ele><time>2026-04-26T13:50:42.615Z</time></trkpt><trkpt lat="32.936102" lon="10.4559555"><ele>229.0</ele><time>2026-04-26T13:50:43.658Z</time></trkpt><trkpt lat="32.9360417" lon="10.4559121"><ele>228.99999999999997</ele><time>2026-04-26T13:50:44.634Z</time></trkpt><trkpt lat="32.9359801" lon="10.4558665"><ele>229.0</ele><time>2026-04-26T13:50:45.611Z</time></trkpt><trkpt lat="32.9359143" lon="10.4558228"><ele>229.0</ele><time>2026-04-26T13:50:46.66Z</time></trkpt><trkpt lat="32.935848" lon="10.455775"><ele>229.0</ele><time>2026-04-26T13:50:47.639Z</time></trkpt><trkpt lat="32.9357823" lon="10.4557231"><ele>228.99999999999997</ele><time>2026-04-26T13:50:48.637Z</time></trkpt><trkpt lat="32.9357222" lon="10.4556721"><ele>229.0</ele><time>2026-04-26T13:50:49.627Z</time></trkpt><trkpt lat="32.9356598" lon="10.4556153"><ele>229.28571428571428</ele><time>2026-04-26T13:50:50.645Z</time></trkpt><trkpt lat="32.9355976" lon="10.4555636"><ele>229.57142857142858</ele><time>2026-04-26T13:50:51.646Z</time></trkpt><trkpt lat="32.9355397" lon="10.4555124"><ele>229.85714285714286</ele><time>2026-04-26T13:50:52.63Z</time></trkpt><trkpt lat="32.935477" lon="10.4554671"><ele>230.14285714285714</ele><time>2026-04-26T13:50:53.646Z</time></trkpt><trkpt lat="32.9354217" lon="10.4554154"><ele>230.42857142857144</ele><time>2026-04-26T13:50:54.629Z</time></trkpt><trkpt lat="32.9353654" lon="10.4553629"><ele>230.71428571428572</ele><time>2026-04-26T13:50:55.636Z</time></trkpt><trkpt lat="32.9353117" lon="10.455304"><ele>231.0</ele><time>2026-04-26T13:50:56.633Z</time></trkpt><trkpt lat="32.9352534" lon="10.4552523"><ele>231.16666666666666</ele><time>2026-04-26T13:50:57.64Z</time></trkpt><trkpt lat="32.9351937" lon="10.455199"><ele>231.33333333333331</ele><time>2026-04-26T13:50:58.64Z</time></trkpt><trkpt lat="32.9351292" lon="10.4551481"><ele>231.5</ele><time>2026-04-26T13:50:59.636Z</time></trkpt><trkpt lat="32.9350688" lon="10.4550892"><ele>231.66666666666666</ele><time>2026-04-26T13:51:00.63Z</time></trkpt><trkpt lat="32.9350007" lon="10.4550321"><ele>231.83333333333331</ele><time>2026-04-26T13:51:01.645Z</time></trkpt><trkpt lat="32.9349345" lon="10.4549805"><ele>232.0</ele><time>2026-04-26T13:51:02.659Z</time></trkpt><trkpt lat="32.9348701" lon="10.4549196"><ele>231.99999999999997</ele><time>2026-04-26T13:51:03.643Z</time></trkpt><trkpt lat="32.9348105" lon="10.454858"><ele>232.0</ele><time>2026-04-26T13:51:04.635Z</time></trkpt><trkpt lat="32.9347487" lon="10.4548011"><ele>232.0</ele><time>2026-04-26T13:51:05.66Z</time></trkpt><trkpt lat="32.934681" lon="10.4547379"><ele>232.0</ele><time>2026-04-26T13:51:06.627Z</time></trkpt><trkpt lat="32.9346144" lon="10.4546731"><ele>231.99999999999997</ele><time>2026-04-26T13:51:07.635Z</time></trkpt><trkpt lat="32.9345514" lon="10.4546109"><ele>232.0</ele><time>2026-04-26T13:51:08.635Z</time></trkpt><trkpt lat="32.9344862" lon="10.4545467"><ele>232.16666666666666</ele><time>2026-04-26T13:51:09.635Z</time></trkpt><trkpt lat="32.9344187" lon="10.4544787"><ele>232.33333333333331</ele><time>2026-04-26T13:51:10.625Z</time></trkpt><trkpt lat="32.9343537" lon="10.45442"><ele>232.5</ele><time>2026-04-26T13:51:11.644Z</time></trkpt><trkpt lat="32.9342883" lon="10.4543579"><ele>232.66666666666669</ele><time>2026-04-26T13:51:12.633Z</time></trkpt><trkpt lat="32.9342216" lon="10.4542937"><ele>232.83333333333334</ele><time>2026-04-26T13:51:13.645Z</time></trkpt><trkpt lat="32.9341536" lon="10.4542265"><ele>233.0</ele><time>2026-04-26T13:51:14.628Z</time></trkpt><trkpt lat="32.9340843" lon="10.4541617"><ele>233.33333333333334</ele><time>2026-04-26T13:51:15.637Z</time></trkpt><trkpt lat="32.9340176" lon="10.4540966"><ele>233.66666666666669</ele><time>2026-04-26T13:51:16.642Z</time></trkpt><trkpt lat="32.9339499" lon="10.4540386"><ele>234.0</ele><time>2026-04-26T13:51:17.637Z</time></trkpt><trkpt lat="32.9338888" lon="10.4539807"><ele>234.33333333333331</ele><time>2026-04-26T13:51:18.635Z</time></trkpt><trkpt lat="32.9338201" lon="10.4539191"><ele>234.66666666666666</ele><time>2026-04-26T13:51:19.638Z</time></trkpt><trkpt lat="32.9337509" lon="10.4538602"><ele>235.0</ele><time>2026-04-26T13:51:20.643Z</time></trkpt><trkpt lat="32.9336828" lon="10.4538029"><ele>234.99999999999997</ele><time>2026-04-26T13:51:21.618Z</time></trkpt><trkpt lat="32.9336155" lon="10.4537427"><ele>235.0</ele><time>2026-04-26T13:51:22.63Z</time></trkpt><trkpt lat="32.9335494" lon="10.4536841"><ele>235.0</ele><time>2026-04-26T13:51:23.637Z</time></trkpt><trkpt lat="32.9334855" lon="10.4536252"><ele>235.0</ele><time>2026-04-26T13:51:24.604Z</time></trkpt><trkpt lat="32.9334206" lon="10.4535627"><ele>234.99999999999997</ele><time>2026-04-26T13:51:25.654Z</time></trkpt><trkpt lat="32.933356" lon="10.4535001"><ele>235.0</ele><time>2026-04-26T13:51:26.627Z</time></trkpt><trkpt lat="32.9332924" lon="10.4534342"><ele>235.16666666666666</ele><time>2026-04-26T13:51:27.631Z</time></trkpt><trkpt lat="32.9332219" lon="10.4533709"><ele>235.33333333333331</ele><time>2026-04-26T13:51:28.64Z</time></trkpt><trkpt lat="32.9331527" lon="10.4533049"><ele>235.5</ele><time>2026-04-26T13:51:29.652Z</time></trkpt><trkpt lat="32.9330825" lon="10.4532476"><ele>235.66666666666669</ele><time>2026-04-26T13:51:30.635Z</time></trkpt><trkpt lat="32.933008" lon="10.4531911"><ele>235.83333333333334</ele><time>2026-04-26T13:51:31.637Z</time></trkpt><trkpt lat="32.932934" lon="10.4531291"><ele>236.0</ele><time>2026-04-26T13:51:32.646Z</time></trkpt><trkpt lat="32.9328601" lon="10.4530667"><ele>236.00000000000003</ele><time>2026-04-26T13:51:33.649Z</time></trkpt><trkpt lat="32.9327821" lon="10.453001"><ele>236.0</ele><time>2026-04-26T13:51:34.649Z</time></trkpt><trkpt lat="32.9327099" lon="10.4529383"><ele>236.0</ele><time>2026-04-26T13:51:35.647Z</time></trkpt><trkpt lat="32.9326413" lon="10.4528764"><ele>236.0</ele><time>2026-04-26T13:51:36.64Z</time></trkpt><trkpt lat="32.9325755" lon="10.452821"><ele>236.00000000000003</ele><time>2026-04-26T13:51:37.609Z</time></trkpt><trkpt lat="32.9325118" lon="10.4527686"><ele>236.0</ele><time>2026-04-26T13:51:38.637Z</time></trkpt><trkpt lat="32.9324551" lon="10.4527208"><ele>235.85714285714283</ele><time>2026-04-26T13:51:39.638Z</time></trkpt><trkpt lat="32.9324" lon="10.4526768"><ele>235.71428571428572</ele><time>2026-04-26T13:51:40.619Z</time></trkpt><trkpt lat="32.9323431" lon="10.4526379"><ele>235.57142857142856</ele><time>2026-04-26T13:51:41.646Z</time></trkpt><trkpt lat="32.932286" lon="10.4525958"><ele>235.42857142857142</ele><time>2026-04-26T13:51:42.637Z</time></trkpt><trkpt lat="32.9322233" lon="10.4525502"><ele>235.28571428571428</ele><time>2026-04-26T13:51:43.664Z</time></trkpt><trkpt lat="32.9321661" lon="10.4525019"><ele>235.14285714285714</ele><time>2026-04-26T13:51:44.622Z</time></trkpt><trkpt lat="32.9321084" lon="10.4524461"><ele>235.0</ele><time>2026-04-26T13:51:45.636Z</time></trkpt><trkpt lat="32.9320498" lon="10.4523917"><ele>234.99999999999997</ele><time>2026-04-26T13:51:46.636Z</time></trkpt><trkpt lat="32.9319851" lon="10.4523404"><ele>235.0</ele><time>2026-04-26T13:51:47.657Z</time></trkpt><trkpt lat="32.9319269" lon="10.4522949"><ele>235.0</ele><time>2026-04-26T13:51:48.644Z</time></trkpt><trkpt lat="32.93181" lon="10.4522086"><ele>235.0</ele><time>2026-04-26T13:51:50.612Z</time></trkpt><trkpt lat="32.9317459" lon="10.4521644"><ele>234.99999999999997</ele><time>2026-04-26T13:51:51.632Z</time></trkpt><trkpt lat="32.9316859" lon="10.4521135"><ele>235.0</ele><time>2026-04-26T13:51:52.652Z</time></trkpt><trkpt lat="32.9316295" lon="10.452064"><ele>235.33333333333331</ele><time>2026-04-26T13:51:53.654Z</time></trkpt><trkpt lat="32.9315357" lon="10.4519706"><ele>235.66666666666666</ele><time>2026-04-26T13:51:55.614Z</time></trkpt><trkpt lat="32.9314765" lon="10.4519212"><ele>236.0</ele><time>2026-04-26T13:51:56.638Z</time></trkpt><trkpt lat="32.9314152" lon="10.4518778"><ele>236.33333333333331</ele><time>2026-04-26T13:51:57.615Z</time></trkpt><trkpt lat="32.9313445" lon="10.4518139"><ele>236.66666666666666</ele><time>2026-04-26T13:51:58.636Z</time></trkpt><trkpt lat="32.9312821" lon="10.4517623"><ele>237.0</ele><time>2026-04-26T13:51:59.626Z</time></trkpt><trkpt lat="32.9312178" lon="10.4517115"><ele>236.99999999999997</ele><time>2026-04-26T13:52:00.625Z</time></trkpt><trkpt lat="32.9311611" lon="10.4516599"><ele>237.0</ele><time>2026-04-26T13:52:01.638Z</time></trkpt><trkpt lat="32.9311031" lon="10.4516114"><ele>236.99999999999997</ele><time>2026-04-26T13:52:02.631Z</time></trkpt><trkpt lat="32.9310508" lon="10.4515561"><ele>236.99999999999997</ele><time>2026-04-26T13:52:03.642Z</time></trkpt><trkpt lat="32.9309918" lon="10.4515146"><ele>237.0</ele><time>2026-04-26T13:52:04.641Z</time></trkpt><trkpt lat="32.9309327" lon="10.4514698"><ele>236.99999999999997</ele><time>2026-04-26T13:52:05.636Z</time></trkpt><trkpt lat="32.9308768" lon="10.4514239"><ele>236.99999999999997</ele><time>2026-04-26T13:52:06.637Z</time></trkpt><trkpt lat="32.9308205" lon="10.4513856"><ele>237.2</ele><time>2026-04-26T13:52:07.615Z</time></trkpt><trkpt lat="32.9307219" lon="10.4513009"><ele>237.39999999999998</ele><time>2026-04-26T13:52:09.616Z</time></trkpt><trkpt lat="32.9306289" lon="10.4512278"><ele>237.60000000000002</ele><time>2026-04-26T13:52:11.644Z</time></trkpt><trkpt lat="32.9305534" lon="10.4511684"><ele>237.8</ele><time>2026-04-26T13:52:13.644Z</time></trkpt><trkpt lat="32.930494" lon="10.4511127"><ele>238.0</ele><time>2026-04-26T13:52:15.638Z</time></trkpt><trkpt lat="32.9304284" lon="10.4510672"><ele>238.0</ele><time>2026-04-26T13:52:17.608Z</time></trkpt><trkpt lat="32.9303554" lon="10.4510119"><ele>238.0</ele><time>2026-04-26T13:52:19.636Z</time></trkpt><trkpt lat="32.9302757" lon="10.4509497"><ele>238.0</ele><time>2026-04-26T13:52:21.649Z</time></trkpt><trkpt lat="32.9301952" lon="10.4508814"><ele>238.0</ele><time>2026-04-26T13:52:23.614Z</time></trkpt><trkpt lat="32.9300989" lon="10.4508031"><ele>238.0</ele><time>2026-04-26T13:52:25.651Z</time></trkpt><trkpt lat="32.9299955" lon="10.4507247"><ele>237.99999999999997</ele><time>2026-04-26T13:52:27.631Z</time></trkpt><trkpt lat="32.9299428" lon="10.4506824"><ele>238.0</ele><time>2026-04-26T13:52:28.629Z</time></trkpt><trkpt lat="32.9298875" lon="10.4506314"><ele>238.0</ele><time>2026-04-26T13:52:29.634Z</time></trkpt><trkpt lat="32.9298268" lon="10.4505766"><ele>238.0</ele><time>2026-04-26T13:52:30.642Z</time></trkpt><trkpt lat="32.92976" lon="10.4505232"><ele>237.99999999999997</ele><time>2026-04-26T13:52:31.639Z</time></trkpt><trkpt lat="32.9296878" lon="10.4504699"><ele>238.0</ele><time>2026-04-26T13:52:32.636Z</time></trkpt><trkpt lat="32.9296214" lon="10.4504111"><ele>237.99999999999997</ele><time>2026-04-26T13:52:33.638Z</time></trkpt><trkpt lat="32.9295556" lon="10.4503597"><ele>238.0</ele><time>2026-04-26T13:52:34.648Z</time></trkpt><trkpt lat="32.9294918" lon="10.4503066"><ele>238.0</ele><time>2026-04-26T13:52:35.655Z</time></trkpt><trkpt lat="32.9294231" lon="10.4502531"><ele>238.0</ele><time>2026-04-26T13:52:36.637Z</time></trkpt><trkpt lat="32.929346" lon="10.4501914"><ele>237.99999999999997</ele><time>2026-04-26T13:52:37.625Z</time></trkpt><trkpt lat="32.9292686" lon="10.4501341"><ele>238.0</ele><time>2026-04-26T13:52:38.644Z</time></trkpt><trkpt lat="32.9291958" lon="10.4500753"><ele>237.99999999999997</ele><time>2026-04-26T13:52:39.655Z</time></trkpt><trkpt lat="32.9291232" lon="10.4500248"><ele>238.0</ele><time>2026-04-26T13:52:40.592Z</time></trkpt><trkpt lat="32.9290549" lon="10.4499737"><ele>238.0</ele><time>2026-04-26T13:52:41.616Z</time></trkpt><trkpt lat="32.9289961" lon="10.44992"><ele>238.0</ele><time>2026-04-26T13:52:42.651Z</time></trkpt><trkpt lat="32.9288959" lon="10.4498445"><ele>237.99999999999997</ele><time>2026-04-26T13:52:44.633Z</time></trkpt><trkpt lat="32.9288439" lon="10.4497805"><ele>238.0</ele><time>2026-04-26T13:52:46.644Z</time></trkpt><trkpt lat="32.9288205" lon="10.4497001"><ele>237.99999999999997</ele><time>2026-04-26T13:52:50.654Z</time></trkpt><trkpt lat="32.9287625" lon="10.4496243"><ele>238.0</ele><time>2026-04-26T13:52:54.636Z</time></trkpt><trkpt lat="32.9286974" lon="10.4495938"><ele>238.0</ele><time>2026-04-26T13:52:56.644Z</time></trkpt><trkpt lat="32.9286298" lon="10.4495627"><ele>238.0</ele><time>2026-04-26T13:52:59.662Z</time></trkpt><trkpt lat="32.9285447" lon="10.4495497"><ele>237.99999999999997</ele><time>2026-04-26T13:53:03.629Z</time></trkpt><trkpt lat="32.9285083" lon="10.4496321"><ele>238.0</ele><time>2026-04-26T13:53:06.64Z</time></trkpt><trkpt lat="32.9284944" lon="10.4497333"><ele>237.99999999999997</ele><time>2026-04-26T13:53:08.646Z</time></trkpt><trkpt lat="32.9284747" lon="10.449838"><ele>238.0</ele><time>2026-04-26T13:53:10.646Z</time></trkpt><trkpt lat="32.9284517" lon="10.4499351"><ele>238.0</ele><time>2026-04-26T13:53:12.649Z</time></trkpt><trkpt lat="32.9284299" lon="10.450026"><ele>238.0</ele><time>2026-04-26T13:53:14.629Z</time></trkpt><trkpt lat="32.9284006" lon="10.4501182"><ele>237.99999999999997</ele><time>2026-04-26T13:53:16.628Z</time></trkpt><trkpt lat="32.9283593" lon="10.4502186"><ele>238.0</ele><time>2026-04-26T13:53:18.655Z</time></trkpt><trkpt lat="32.9283346" lon="10.4503117"><ele>238.33333333333331</ele><time>2026-04-26T13:53:20.638Z</time></trkpt><trkpt lat="32.9283068" lon="10.4504158"><ele>238.66666666666666</ele><time>2026-04-26T13:53:22.622Z</time></trkpt><trkpt lat="32.9282727" lon="10.4505162"><ele>239.0</ele><time>2026-04-26T13:53:24.62Z</time></trkpt><trkpt lat="32.9282396" lon="10.4506112"><ele>239.33333333333331</ele><time>2026-04-26T13:53:26.641Z</time></trkpt><trkpt lat="32.9282202" lon="10.4507169"><ele>239.66666666666666</ele><time>2026-04-26T13:53:28.645Z</time></trkpt><trkpt lat="32.9281896" lon="10.4507926"><ele>240.0</ele><time>2026-04-26T13:53:30.643Z</time></trkpt><trkpt lat="32.9281094" lon="10.4508104"><ele>240.2</ele><time>2026-04-26T13:53:33.632Z</time></trkpt><trkpt lat="32.9280302" lon="10.4507774"><ele>240.4</ele><time>2026-04-26T13:53:35.636Z</time></trkpt><trkpt lat="32.9279349" lon="10.4507357"><ele>240.60000000000002</ele><time>2026-04-26T13:53:37.652Z</time></trkpt><trkpt lat="32.9278291" lon="10.4506955"><ele>240.8</ele><time>2026-04-26T13:53:39.642Z</time></trkpt><trkpt lat="32.9277039" lon="10.4506665"><ele>241.0</ele><time>2026-04-26T13:53:41.655Z</time></trkpt><trkpt lat="32.9276359" lon="10.4506488"><ele>241.66666666666666</ele><time>2026-04-26T13:53:42.643Z</time></trkpt><trkpt lat="32.9275602" lon="10.4506233"><ele>242.33333333333331</ele><time>2026-04-26T13:53:43.656Z</time></trkpt><trkpt lat="32.9274827" lon="10.4506099"><ele>243.0</ele><time>2026-04-26T13:53:44.647Z</time></trkpt><trkpt lat="32.9274181" lon="10.4505845"><ele>243.66666666666669</ele><time>2026-04-26T13:53:45.646Z</time></trkpt><trkpt lat="32.9272925" lon="10.4505324"><ele>244.33333333333334</ele><time>2026-04-26T13:53:47.642Z</time></trkpt><trkpt lat="32.9272308" lon="10.4505021"><ele>245.0</ele><time>2026-04-26T13:53:48.628Z</time></trkpt><trkpt lat="32.9271699" lon="10.450477"><ele>245.00000000000003</ele><time>2026-04-26T13:53:49.643Z</time></trkpt><trkpt lat="32.9270664" lon="10.4504385"><ele>245.0</ele><time>2026-04-26T13:53:51.615Z</time></trkpt><trkpt lat="32.9269996" lon="10.4504093"><ele>245.0</ele><time>2026-04-26T13:53:53.631Z</time></trkpt><trkpt lat="32.9269403" lon="10.450375"><ele>245.0</ele><time>2026-04-26T13:53:55.612Z</time></trkpt><trkpt lat="32.9268734" lon="10.4503391"><ele>245.00000000000003</ele><time>2026-04-26T13:53:57.636Z</time></trkpt><trkpt lat="32.9267709" lon="10.4503239"><ele>245.0</ele><time>2026-04-26T13:54:08.631Z</time></trkpt><trkpt lat="32.9267002" lon="10.4504397"><ele>245.75</ele><time>2026-04-26T13:54:10.65Z</time></trkpt><trkpt lat="32.9266578" lon="10.4505777"><ele>246.5</ele><time>2026-04-26T13:54:11.612Z</time></trkpt><trkpt lat="32.9265962" lon="10.4507689"><ele>247.25</ele><time>2026-04-26T13:54:12.639Z</time></trkpt><trkpt lat="32.9265304" lon="10.450931"><ele>248.0</ele><time>2026-04-26T13:54:13.647Z</time></trkpt><trkpt lat="32.926484" lon="10.4510513"><ele>248.0</ele><time>2026-04-26T13:54:14.651Z</time></trkpt><trkpt lat="32.9264385" lon="10.4511527"><ele>248.0</ele><time>2026-04-26T13:54:15.622Z</time></trkpt><trkpt lat="32.9263869" lon="10.4512465"><ele>248.0</ele><time>2026-04-26T13:54:16.651Z</time></trkpt><trkpt lat="32.9263349" lon="10.4513472"><ele>248.0</ele><time>2026-04-26T13:54:17.662Z</time></trkpt><trkpt lat="32.926288" lon="10.451442"><ele>248.0</ele><time>2026-04-26T13:54:18.642Z</time></trkpt><trkpt lat="32.9262415" lon="10.4515417"><ele>247.8</ele><time>2026-04-26T13:54:19.63Z</time></trkpt><trkpt lat="32.9262002" lon="10.4516471"><ele>247.60000000000002</ele><time>2026-04-26T13:54:20.643Z</time></trkpt><trkpt lat="32.9261527" lon="10.4517486"><ele>247.39999999999998</ele><time>2026-04-26T13:54:21.604Z</time></trkpt><trkpt lat="32.9260972" lon="10.4518632"><ele>247.2</ele><time>2026-04-26T13:54:22.651Z</time></trkpt><trkpt lat="32.9260471" lon="10.451979"><ele>247.0</ele><time>2026-04-26T13:54:23.65Z</time></trkpt><trkpt lat="32.9259999" lon="10.4521014"><ele>246.8</ele><time>2026-04-26T13:54:24.636Z</time></trkpt><trkpt lat="32.9259543" lon="10.452222"><ele>246.6</ele><time>2026-04-26T13:54:25.643Z</time></trkpt><trkpt lat="32.9259077" lon="10.4523378"><ele>246.40000000000003</ele><time>2026-04-26T13:54:26.638Z</time></trkpt><trkpt lat="32.9258661" lon="10.4524632"><ele>246.20000000000002</ele><time>2026-04-26T13:54:27.645Z</time></trkpt><trkpt lat="32.9258265" lon="10.4525864"><ele>246.0</ele><time>2026-04-26T13:54:28.644Z</time></trkpt><trkpt lat="32.9257908" lon="10.452707"><ele>246.0</ele><time>2026-04-26T13:54:29.634Z</time></trkpt><trkpt lat="32.9257557" lon="10.4528337"><ele>246.0</ele><time>2026-04-26T13:54:30.657Z</time></trkpt><trkpt lat="32.9257201" lon="10.4529727"><ele>246.0</ele><time>2026-04-26T13:54:31.592Z</time></trkpt><trkpt lat="32.9256853" lon="10.453112"><ele>246.0</ele><time>2026-04-26T13:54:32.654Z</time></trkpt><trkpt lat="32.925647" lon="10.4532465"><ele>246.0</ele><time>2026-04-26T13:54:33.625Z</time></trkpt><trkpt lat="32.9256113" lon="10.4533883"><ele>246.0</ele><time>2026-04-26T13:54:34.641Z</time></trkpt><trkpt lat="32.9255659" lon="10.4535243"><ele>246.0</ele><time>2026-04-26T13:54:35.634Z</time></trkpt><trkpt lat="32.9255304" lon="10.4536625"><ele>246.0</ele><time>2026-04-26T13:54:36.631Z</time></trkpt><trkpt lat="32.9254953" lon="10.4538021"><ele>246.25</ele><time>2026-04-26T13:54:37.643Z</time></trkpt><trkpt lat="32.9254587" lon="10.4539401"><ele>246.5</ele><time>2026-04-26T13:54:38.634Z</time></trkpt><trkpt lat="32.9254234" lon="10.4540755"><ele>246.75</ele><time>2026-04-26T13:54:39.651Z</time></trkpt><trkpt lat="32.925391" lon="10.4542097"><ele>247.0</ele><time>2026-04-26T13:54:40.65Z</time></trkpt><trkpt lat="32.925358" lon="10.454335"><ele>247.0</ele><time>2026-04-26T13:54:41.612Z</time></trkpt><trkpt lat="32.9253284" lon="10.4544628"><ele>247.0</ele><time>2026-04-26T13:54:42.625Z</time></trkpt><trkpt lat="32.9252917" lon="10.4545896"><ele>247.0</ele><time>2026-04-26T13:54:43.643Z</time></trkpt><trkpt lat="32.9252584" lon="10.4547142"><ele>247.0</ele><time>2026-04-26T13:54:44.643Z</time></trkpt><trkpt lat="32.9252195" lon="10.4548336"><ele>247.0</ele><time>2026-04-26T13:54:45.632Z</time></trkpt><trkpt lat="32.9251731" lon="10.4549585"><ele>247.25</ele><time>2026-04-26T13:54:46.646Z</time></trkpt><trkpt lat="32.9251203" lon="10.4550798"><ele>247.5</ele><time>2026-04-26T13:54:47.629Z</time></trkpt><trkpt lat="32.9250656" lon="10.455201"><ele>247.75</ele><time>2026-04-26T13:54:48.609Z</time></trkpt><trkpt lat="32.9250031" lon="10.4553138"><ele>248.0</ele><time>2026-04-26T13:54:49.627Z</time></trkpt><trkpt lat="32.9249392" lon="10.455433"><ele>247.33333333333334</ele><time>2026-04-26T13:54:50.631Z</time></trkpt><trkpt lat="32.9248631" lon="10.4555637"><ele>246.66666666666669</ele><time>2026-04-26T13:54:51.617Z</time></trkpt><trkpt lat="32.924761" lon="10.4557277"><ele>246.0</ele><time>2026-04-26T13:54:52.617Z</time></trkpt><trkpt lat="32.9246416" lon="10.4558915"><ele>246.0</ele><time>2026-04-26T13:54:53.627Z</time></trkpt><trkpt lat="32.9245196" lon="10.4560321"><ele>246.0</ele><time>2026-04-26T13:54:54.617Z</time></trkpt><trkpt lat="32.924429" lon="10.4561458"><ele>246.0</ele><time>2026-04-26T13:54:55.607Z</time></trkpt><trkpt lat="32.9243479" lon="10.4562603"><ele>246.0</ele><time>2026-04-26T13:54:56.613Z</time></trkpt><trkpt lat="32.9242693" lon="10.4563657"><ele>246.8</ele><time>2026-04-26T13:54:57.653Z</time></trkpt><trkpt lat="32.9242003" lon="10.4564701"><ele>247.60000000000002</ele><time>2026-04-26T13:54:58.628Z</time></trkpt><trkpt lat="32.9241319" lon="10.4565701"><ele>248.4</ele><time>2026-04-26T13:54:59.633Z</time></trkpt><trkpt lat="32.9240684" lon="10.4566648"><ele>249.2</ele><time>2026-04-26T13:55:00.627Z</time></trkpt><trkpt lat="32.923991" lon="10.4567854"><ele>250.0</ele><time>2026-04-26T13:55:01.626Z</time></trkpt><trkpt lat="32.9239183" lon="10.4569109"><ele>250.0</ele><time>2026-04-26T13:55:02.632Z</time></trkpt><trkpt lat="32.9238427" lon="10.4570353"><ele>250.0</ele><time>2026-04-26T13:55:03.637Z</time></trkpt><trkpt lat="32.9237682" lon="10.4571611"><ele>250.0</ele><time>2026-04-26T13:55:04.648Z</time></trkpt><trkpt lat="32.9236917" lon="10.4572837"><ele>250.0</ele><time>2026-04-26T13:55:05.637Z</time></trkpt><trkpt lat="32.9236289" lon="10.4573964"><ele>249.25</ele><time>2026-04-26T13:55:06.633Z</time></trkpt><trkpt lat="32.9235677" lon="10.4575157"><ele>248.5</ele><time>2026-04-26T13:55:07.638Z</time></trkpt><trkpt lat="32.9235047" lon="10.4576344"><ele>247.75</ele><time>2026-04-26T13:55:08.633Z</time></trkpt><trkpt lat="32.9234433" lon="10.4577614"><ele>247.0</ele><time>2026-04-26T13:55:09.613Z</time></trkpt><trkpt lat="32.9233785" lon="10.4578821"><ele>247.75</ele><time>2026-04-26T13:55:10.629Z</time></trkpt><trkpt lat="32.9233165" lon="10.4580013"><ele>248.5</ele><time>2026-04-26T13:55:11.622Z</time></trkpt><trkpt lat="32.9232575" lon="10.4581248"><ele>249.25</ele><time>2026-04-26T13:55:12.63Z</time></trkpt><trkpt lat="32.9232005" lon="10.4582489"><ele>250.0</ele><time>2026-04-26T13:55:13.653Z</time></trkpt><trkpt lat="32.9231454" lon="10.4583819"><ele>250.0</ele><time>2026-04-26T13:55:14.632Z</time></trkpt><trkpt lat="32.9230861" lon="10.4585117"><ele>250.0</ele><time>2026-04-26T13:55:15.596Z</time></trkpt><trkpt lat="32.9230261" lon="10.4586478"><ele>250.0</ele><time>2026-04-26T13:55:16.61Z</time></trkpt><trkpt lat="32.922967" lon="10.4587873"><ele>250.0</ele><time>2026-04-26T13:55:17.634Z</time></trkpt><trkpt lat="32.922906" lon="10.4589199"><ele>249.25</ele><time>2026-04-26T13:55:18.647Z</time></trkpt><trkpt lat="32.9228461" lon="10.4590581"><ele>248.5</ele><time>2026-04-26T13:55:19.628Z</time></trkpt><trkpt lat="32.9227891" lon="10.4591917"><ele>247.75</ele><time>2026-04-26T13:55:20.622Z</time></trkpt><trkpt lat="32.9227331" lon="10.4593342"><ele>247.0</ele><time>2026-04-26T13:55:21.633Z</time></trkpt><trkpt lat="32.9226717" lon="10.4594723"><ele>247.0</ele><time>2026-04-26T13:55:22.654Z</time></trkpt><trkpt lat="32.9226087" lon="10.4596096"><ele>247.0</ele><time>2026-04-26T13:55:23.635Z</time></trkpt><trkpt lat="32.9225437" lon="10.4597503"><ele>247.0</ele><time>2026-04-26T13:55:24.607Z</time></trkpt><trkpt lat="32.9224798" lon="10.459894"><ele>247.0</ele><time>2026-04-26T13:55:25.637Z</time></trkpt><trkpt lat="32.9224151" lon="10.4600366"><ele>247.25</ele><time>2026-04-26T13:55:26.612Z</time></trkpt><trkpt lat="32.9223464" lon="10.4601804"><ele>247.5</ele><time>2026-04-26T13:55:27.635Z</time></trkpt><trkpt lat="32.9222792" lon="10.4603234"><ele>247.75</ele><time>2026-04-26T13:55:28.634Z</time></trkpt><trkpt lat="32.9222159" lon="10.4604614"><ele>248.0</ele><time>2026-04-26T13:55:29.631Z</time></trkpt><trkpt lat="32.9221524" lon="10.4605979"><ele>248.0</ele><time>2026-04-26T13:55:30.64Z</time></trkpt><trkpt lat="32.9220941" lon="10.4607297"><ele>248.0</ele><time>2026-04-26T13:55:31.647Z</time></trkpt><trkpt lat="32.9220323" lon="10.4608631"><ele>248.0</ele><time>2026-04-26T13:55:32.639Z</time></trkpt><trkpt lat="32.9219719" lon="10.4609922"><ele>248.0</ele><time>2026-04-26T13:55:33.646Z</time></trkpt><trkpt lat="32.9219129" lon="10.4611168"><ele>248.0</ele><time>2026-04-26T13:55:34.636Z</time></trkpt><trkpt lat="32.921857" lon="10.4612443"><ele>248.0</ele><time>2026-04-26T13:55:35.638Z</time></trkpt><trkpt lat="32.9217942" lon="10.4613639"><ele>248.0</ele><time>2026-04-26T13:55:36.643Z</time></trkpt><trkpt lat="32.9217346" lon="10.4614802"><ele>248.0</ele><time>2026-04-26T13:55:37.628Z</time></trkpt><trkpt lat="32.9216778" lon="10.4615914"><ele>248.0</ele><time>2026-04-26T13:55:38.639Z</time></trkpt><trkpt lat="32.9216251" lon="10.4616982"><ele>248.0</ele><time>2026-04-26T13:55:39.626Z</time></trkpt><trkpt lat="32.9215685" lon="10.4618123"><ele>248.0</ele><time>2026-04-26T13:55:40.632Z</time></trkpt><trkpt lat="32.9215132" lon="10.4619284"><ele>248.0</ele><time>2026-04-26T13:55:41.646Z</time></trkpt><trkpt lat="32.921456" lon="10.4620475"><ele>248.0</ele><time>2026-04-26T13:55:42.596Z</time></trkpt><trkpt lat="32.9213936" lon="10.4621687"><ele>247.5</ele><time>2026-04-26T13:55:43.642Z</time></trkpt><trkpt lat="32.9213331" lon="10.462294"><ele>247.0</ele><time>2026-04-26T13:55:44.628Z</time></trkpt><trkpt lat="32.9212723" lon="10.4624206"><ele>246.5</ele><time>2026-04-26T13:55:45.645Z</time></trkpt><trkpt lat="32.9212092" lon="10.4625538"><ele>246.0</ele><time>2026-04-26T13:55:46.642Z</time></trkpt><trkpt lat="32.9211474" lon="10.4626889"><ele>246.0</ele><time>2026-04-26T13:55:47.646Z</time></trkpt><trkpt lat="32.9210835" lon="10.4628298"><ele>246.0</ele><time>2026-04-26T13:55:48.645Z</time></trkpt><trkpt lat="32.9210171" lon="10.4629667"><ele>246.0</ele><time>2026-04-26T13:55:49.619Z</time></trkpt><trkpt lat="32.920947" lon="10.463108"><ele>246.0</ele><time>2026-04-26T13:55:50.64Z</time></trkpt><trkpt lat="32.9208807" lon="10.463248"><ele>246.0</ele><time>2026-04-26T13:55:51.634Z</time></trkpt><trkpt lat="32.9208191" lon="10.4633958"><ele>246.0</ele><time>2026-04-26T13:55:52.642Z</time></trkpt><trkpt lat="32.9207589" lon="10.4635343"><ele>246.0</ele><time>2026-04-26T13:55:53.635Z</time></trkpt><trkpt lat="32.9206979" lon="10.4636746"><ele>246.0</ele><time>2026-04-26T13:55:54.607Z</time></trkpt><trkpt lat="32.9206349" lon="10.4638098"><ele>246.0</ele><time>2026-04-26T13:55:55.652Z</time></trkpt><trkpt lat="32.9205683" lon="10.4639506"><ele>246.0</ele><time>2026-04-26T13:55:56.646Z</time></trkpt><trkpt lat="32.9205076" lon="10.4640852"><ele>246.0</ele><time>2026-04-26T13:55:57.669Z</time></trkpt><trkpt lat="32.9204554" lon="10.4642141"><ele>246.0</ele><time>2026-04-26T13:55:58.602Z</time></trkpt><trkpt lat="32.9204047" lon="10.4643361"><ele>246.0</ele><time>2026-04-26T13:55:59.625Z</time></trkpt><trkpt lat="32.9203476" lon="10.4644593"><ele>246.0</ele><time>2026-04-26T13:56:00.64Z</time></trkpt><trkpt lat="32.9202919" lon="10.4645843"><ele>246.0</ele><time>2026-04-26T13:56:01.616Z</time></trkpt><trkpt lat="32.9202318" lon="10.4647028"><ele>246.0</ele><time>2026-04-26T13:56:02.625Z</time></trkpt><trkpt lat="32.9201744" lon="10.4648168"><ele>245.75</ele><time>2026-04-26T13:56:03.634Z</time></trkpt><trkpt lat="32.9201085" lon="10.4649331"><ele>245.5</ele><time>2026-04-26T13:56:04.635Z</time></trkpt><trkpt lat="32.9200485" lon="10.4650492"><ele>245.25</ele><time>2026-04-26T13:56:05.642Z</time></trkpt><trkpt lat="32.9199933" lon="10.4651716"><ele>245.0</ele><time>2026-04-26T13:56:06.637Z</time></trkpt><trkpt lat="32.9199346" lon="10.4652945"><ele>245.25</ele><time>2026-04-26T13:56:07.656Z</time></trkpt><trkpt lat="32.9198699" lon="10.4654151"><ele>245.5</ele><time>2026-04-26T13:56:08.637Z</time></trkpt><trkpt lat="32.9198137" lon="10.4655306"><ele>245.75</ele><time>2026-04-26T13:56:09.637Z</time></trkpt><trkpt lat="32.9197582" lon="10.4656521"><ele>246.0</ele><time>2026-04-26T13:56:10.645Z</time></trkpt><trkpt lat="32.9197007" lon="10.4657713"><ele>246.0</ele><time>2026-04-26T13:56:11.64Z</time></trkpt><trkpt lat="32.9196373" lon="10.4658895"><ele>246.0</ele><time>2026-04-26T13:56:12.646Z</time></trkpt><trkpt lat="32.9195585" lon="10.4660018"><ele>246.0</ele><time>2026-04-26T13:56:13.634Z</time></trkpt><trkpt lat="32.9194723" lon="10.4661092"><ele>246.0</ele><time>2026-04-26T13:56:14.585Z</time></trkpt><trkpt lat="32.9193817" lon="10.4662235"><ele>246.0</ele><time>2026-04-26T13:56:15.587Z</time></trkpt><trkpt lat="32.9192832" lon="10.4663432"><ele>246.0</ele><time>2026-04-26T13:56:16.615Z</time></trkpt><trkpt lat="32.9191914" lon="10.4664769"><ele>246.0</ele><time>2026-04-26T13:56:17.632Z</time></trkpt><trkpt lat="32.9191101" lon="10.4666117"><ele>246.0</ele><time>2026-04-26T13:56:18.636Z</time></trkpt><trkpt lat="32.9190465" lon="10.4667469"><ele>246.0</ele><time>2026-04-26T13:56:19.646Z</time></trkpt><trkpt lat="32.9189957" lon="10.4668973"><ele>246.0</ele><time>2026-04-26T13:56:20.633Z</time></trkpt><trkpt lat="32.918947" lon="10.4670499"><ele>246.0</ele><time>2026-04-26T13:56:21.645Z</time></trkpt><trkpt lat="32.9188996" lon="10.4672003"><ele>246.0</ele><time>2026-04-26T13:56:22.605Z</time></trkpt><trkpt lat="32.9188492" lon="10.4673594"><ele>246.5</ele><time>2026-04-26T13:56:23.627Z</time></trkpt><trkpt lat="32.9188112" lon="10.4675187"><ele>247.0</ele><time>2026-04-26T13:56:24.637Z</time></trkpt><trkpt lat="32.9187817" lon="10.4676858"><ele>247.5</ele><time>2026-04-26T13:56:25.597Z</time></trkpt><trkpt lat="32.918759" lon="10.4678577"><ele>248.0</ele><time>2026-04-26T13:56:26.637Z</time></trkpt><trkpt lat="32.9187453" lon="10.4680435"><ele>249.33333333333334</ele><time>2026-04-26T13:56:27.629Z</time></trkpt><trkpt lat="32.9187338" lon="10.4682311"><ele>250.66666666666669</ele><time>2026-04-26T13:56:28.634Z</time></trkpt><trkpt lat="32.9187232" lon="10.4684137"><ele>252.0</ele><time>2026-04-26T13:56:29.644Z</time></trkpt><trkpt lat="32.9187139" lon="10.4685991"><ele>253.0</ele><time>2026-04-26T13:56:30.65Z</time></trkpt><trkpt lat="32.9187136" lon="10.4687822"><ele>254.0</ele><time>2026-04-26T13:56:31.637Z</time></trkpt><trkpt lat="32.9187294" lon="10.4689549"><ele>255.0</ele><time>2026-04-26T13:56:32.642Z</time></trkpt><trkpt lat="32.9187493" lon="10.4691228"><ele>256.0</ele><time>2026-04-26T13:56:33.623Z</time></trkpt><trkpt lat="32.9187786" lon="10.4692841"><ele>256.0</ele><time>2026-04-26T13:56:34.636Z</time></trkpt><trkpt lat="32.9188024" lon="10.4694281"><ele>256.0</ele><time>2026-04-26T13:56:35.625Z</time></trkpt><trkpt lat="32.9188304" lon="10.4695512"><ele>256.0</ele><time>2026-04-26T13:56:36.651Z</time></trkpt><trkpt lat="32.9188535" lon="10.469648"><ele>256.0</ele><time>2026-04-26T13:56:37.647Z</time></trkpt><trkpt lat="32.9188718" lon="10.4697354"><ele>256.0</ele><time>2026-04-26T13:56:38.653Z</time></trkpt><trkpt lat="32.918888" lon="10.4698238"><ele>256.0</ele><time>2026-04-26T13:56:39.643Z</time></trkpt><trkpt lat="32.9189066" lon="10.4699123"><ele>256.0</ele><time>2026-04-26T13:56:40.635Z</time></trkpt><trkpt lat="32.9189289" lon="10.4700223"><ele>256.0</ele><time>2026-04-26T13:56:41.601Z</time></trkpt><trkpt lat="32.9189545" lon="10.470142"><ele>256.0</ele><time>2026-04-26T13:56:42.596Z</time></trkpt><trkpt lat="32.9189772" lon="10.4702704"><ele>256.0</ele><time>2026-04-26T13:56:43.638Z</time></trkpt><trkpt lat="32.9189883" lon="10.4704053"><ele>256.75</ele><time>2026-04-26T13:56:44.645Z</time></trkpt><trkpt lat="32.9190034" lon="10.4705392"><ele>257.5</ele><time>2026-04-26T13:56:45.637Z</time></trkpt><trkpt lat="32.919008" lon="10.4706823"><ele>258.25</ele><time>2026-04-26T13:56:46.641Z</time></trkpt><trkpt lat="32.9190022" lon="10.4708183"><ele>259.0</ele><time>2026-04-26T13:56:47.649Z</time></trkpt><trkpt lat="32.9189809" lon="10.4709564"><ele>259.0</ele><time>2026-04-26T13:56:48.661Z</time></trkpt><trkpt lat="32.9189565" lon="10.4711045"><ele>259.0</ele><time>2026-04-26T13:56:49.668Z</time></trkpt><trkpt lat="32.9189249" lon="10.4712572"><ele>259.0</ele><time>2026-04-26T13:56:50.641Z</time></trkpt><trkpt lat="32.9188841" lon="10.4714124"><ele>259.0</ele><time>2026-04-26T13:56:51.599Z</time></trkpt><trkpt lat="32.9188468" lon="10.4715589"><ele>259.25</ele><time>2026-04-26T13:56:52.625Z</time></trkpt><trkpt lat="32.9188048" lon="10.471713"><ele>259.5</ele><time>2026-04-26T13:56:53.641Z</time></trkpt><trkpt lat="32.9187627" lon="10.4718701"><ele>259.75</ele><time>2026-04-26T13:56:54.634Z</time></trkpt><trkpt lat="32.918725" lon="10.4720266"><ele>260.0</ele><time>2026-04-26T13:56:55.624Z</time></trkpt><trkpt lat="32.9186869" lon="10.4721835"><ele>260.75</ele><time>2026-04-26T13:56:56.638Z</time></trkpt><trkpt lat="32.9186456" lon="10.4723405"><ele>261.5</ele><time>2026-04-26T13:56:57.599Z</time></trkpt><trkpt lat="32.9186014" lon="10.4724928"><ele>262.25</ele><time>2026-04-26T13:56:58.651Z</time></trkpt><trkpt lat="32.9185543" lon="10.4726456"><ele>263.0</ele><time>2026-04-26T13:56:59.628Z</time></trkpt><trkpt lat="32.9185084" lon="10.4727986"><ele>263.75</ele><time>2026-04-26T13:57:00.637Z</time></trkpt><trkpt lat="32.9184707" lon="10.4729403"><ele>264.5</ele><time>2026-04-26T13:57:01.625Z</time></trkpt><trkpt lat="32.9184329" lon="10.4730906"><ele>265.25</ele><time>2026-04-26T13:57:02.615Z</time></trkpt><trkpt lat="32.918396" lon="10.4732384"><ele>266.0</ele><time>2026-04-26T13:57:03.631Z</time></trkpt><trkpt lat="32.9183605" lon="10.4733874"><ele>264.75</ele><time>2026-04-26T13:57:04.601Z</time></trkpt><trkpt lat="32.9183282" lon="10.4735367"><ele>263.5</ele><time>2026-04-26T13:57:05.599Z</time></trkpt><trkpt lat="32.9182982" lon="10.4736881"><ele>262.25</ele><time>2026-04-26T13:57:06.593Z</time></trkpt><trkpt lat="32.9182703" lon="10.4738441"><ele>261.0</ele><time>2026-04-26T13:57:07.591Z</time></trkpt><trkpt lat="32.9182508" lon="10.4739969"><ele>261.0</ele><time>2026-04-26T13:57:08.594Z</time></trkpt><trkpt lat="32.9182361" lon="10.4741536"><ele>261.0</ele><time>2026-04-26T13:57:09.631Z</time></trkpt><trkpt lat="32.9182277" lon="10.4743191"><ele>261.0</ele><time>2026-04-26T13:57:10.611Z</time></trkpt><trkpt lat="32.9182216" lon="10.4744817"><ele>261.0</ele><time>2026-04-26T13:57:11.63Z</time></trkpt><trkpt lat="32.9182246" lon="10.4746455"><ele>261.25</ele><time>2026-04-26T13:57:12.645Z</time></trkpt><trkpt lat="32.918229" lon="10.4748065"><ele>261.5</ele><time>2026-04-26T13:57:13.642Z</time></trkpt><trkpt lat="32.9182309" lon="10.47497"><ele>261.75</ele><time>2026-04-26T13:57:14.646Z</time></trkpt><trkpt lat="32.9182337" lon="10.4751339"><ele>262.0</ele><time>2026-04-26T13:57:15.648Z</time></trkpt><trkpt lat="32.9182411" lon="10.4752976"><ele>262.25</ele><time>2026-04-26T13:57:16.645Z</time></trkpt><trkpt lat="32.9182485" lon="10.4754651"><ele>262.5</ele><time>2026-04-26T13:57:17.613Z</time></trkpt><trkpt lat="32.9182562" lon="10.4756341"><ele>262.75</ele><time>2026-04-26T13:57:18.589Z</time></trkpt><trkpt lat="32.9182716" lon="10.475797"><ele>263.0</ele><time>2026-04-26T13:57:19.635Z</time></trkpt><trkpt lat="32.9182898" lon="10.475954"><ele>263.0</ele><time>2026-04-26T13:57:20.663Z</time></trkpt><trkpt lat="32.9183025" lon="10.4761093"><ele>263.0</ele><time>2026-04-26T13:57:21.644Z</time></trkpt><trkpt lat="32.9183197" lon="10.476266"><ele>263.0</ele><time>2026-04-26T13:57:22.645Z</time></trkpt><trkpt lat="32.9183335" lon="10.4764241"><ele>263.0</ele><time>2026-04-26T13:57:23.641Z</time></trkpt><trkpt lat="32.9183451" lon="10.4765891"><ele>263.25</ele><time>2026-04-26T13:57:24.641Z</time></trkpt><trkpt lat="32.9183627" lon="10.4767531"><ele>263.5</ele><time>2026-04-26T13:57:25.633Z</time></trkpt><trkpt lat="32.9183831" lon="10.476918"><ele>263.75</ele><time>2026-04-26T13:57:26.61Z</time></trkpt><trkpt lat="32.9184036" lon="10.4770872"><ele>264.0</ele><time>2026-04-26T13:57:27.616Z</time></trkpt><trkpt lat="32.9184267" lon="10.4772547"><ele>265.3333333333333</ele><time>2026-04-26T13:57:28.66Z</time></trkpt><trkpt lat="32.9184483" lon="10.4774314"><ele>266.66666666666663</ele><time>2026-04-26T13:57:29.637Z</time></trkpt><trkpt lat="32.9184647" lon="10.4776115"><ele>268.0</ele><time>2026-04-26T13:57:30.645Z</time></trkpt><trkpt lat="32.9184827" lon="10.4777971"><ele>269.25</ele><time>2026-04-26T13:57:31.637Z</time></trkpt><trkpt lat="32.9185018" lon="10.4779735"><ele>270.5</ele><time>2026-04-26T13:57:32.628Z</time></trkpt><trkpt lat="32.918522" lon="10.4781497"><ele>271.75</ele><time>2026-04-26T13:57:33.642Z</time></trkpt><trkpt lat="32.9185467" lon="10.4783181"><ele>273.0</ele><time>2026-04-26T13:57:34.634Z</time></trkpt><trkpt lat="32.9185671" lon="10.4784792"><ele>273.0</ele><time>2026-04-26T13:57:35.645Z</time></trkpt><trkpt lat="32.9185929" lon="10.478638"><ele>273.0</ele><time>2026-04-26T13:57:36.645Z</time></trkpt><trkpt lat="32.9186257" lon="10.4787975"><ele>273.0</ele><time>2026-04-26T13:57:37.638Z</time></trkpt><trkpt lat="32.9186637" lon="10.4789604"><ele>273.0</ele><time>2026-04-26T13:57:38.638Z</time></trkpt><trkpt lat="32.9187075" lon="10.479118"><ele>273.0</ele><time>2026-04-26T13:57:39.654Z</time></trkpt><trkpt lat="32.9187575" lon="10.4792759"><ele>273.0</ele><time>2026-04-26T13:57:40.653Z</time></trkpt><trkpt lat="32.9188081" lon="10.4794381"><ele>273.0</ele><time>2026-04-26T13:57:41.649Z</time></trkpt><trkpt lat="32.9188599" lon="10.4795962"><ele>273.0</ele><time>2026-04-26T13:57:42.638Z</time></trkpt><trkpt lat="32.918919" lon="10.4797566"><ele>273.0</ele><time>2026-04-26T13:57:43.66Z</time></trkpt><trkpt lat="32.9189809" lon="10.479918"><ele>273.0</ele><time>2026-04-26T13:57:44.648Z</time></trkpt><trkpt lat="32.919047" lon="10.4800758"><ele>273.0</ele><time>2026-04-26T13:57:45.6Z</time></trkpt><trkpt lat="32.9191147" lon="10.4802349"><ele>273.0</ele><time>2026-04-26T13:57:46.648Z</time></trkpt><trkpt lat="32.9191877" lon="10.4803904"><ele>273.3333333333333</ele><time>2026-04-26T13:57:47.655Z</time></trkpt><trkpt lat="32.9192672" lon="10.4805477"><ele>273.66666666666663</ele><time>2026-04-26T13:57:48.64Z</time></trkpt><trkpt lat="32.9193427" lon="10.4807062"><ele>274.0</ele><time>2026-04-26T13:57:49.622Z</time></trkpt><trkpt lat="32.9194252" lon="10.4808637"><ele>274.0</ele><time>2026-04-26T13:57:50.642Z</time></trkpt><trkpt lat="32.9195101" lon="10.4810118"><ele>274.0</ele><time>2026-04-26T13:57:51.646Z</time></trkpt><trkpt lat="32.9195964" lon="10.4811553"><ele>274.0</ele><time>2026-04-26T13:57:52.631Z</time></trkpt><trkpt lat="32.9196845" lon="10.481305"><ele>272.3333333333333</ele><time>2026-04-26T13:57:53.618Z</time></trkpt><trkpt lat="32.9197688" lon="10.4814584"><ele>270.6666666666667</ele><time>2026-04-26T13:57:54.655Z</time></trkpt><trkpt lat="32.9198412" lon="10.4816186"><ele>269.0</ele><time>2026-04-26T13:57:55.633Z</time></trkpt><trkpt lat="32.9199088" lon="10.4817992"><ele>269.0</ele><time>2026-04-26T13:57:56.645Z</time></trkpt><trkpt lat="32.9199727" lon="10.4820067"><ele>269.0</ele><time>2026-04-26T13:57:57.62Z</time></trkpt><trkpt lat="32.9200411" lon="10.4822219"><ele>269.0</ele><time>2026-04-26T13:57:58.617Z</time></trkpt><trkpt lat="32.9201173" lon="10.4824412"><ele>266.33333333333337</ele><time>2026-04-26T13:57:59.631Z</time></trkpt><trkpt lat="32.9201869" lon="10.4826679"><ele>263.6666666666667</ele><time>2026-04-26T13:58:00.636Z</time></trkpt><trkpt lat="32.9202548" lon="10.4828858"><ele>261.0</ele><time>2026-04-26T13:58:01.631Z</time></trkpt><trkpt lat="32.9203206" lon="10.4831124"><ele>261.0</ele><time>2026-04-26T13:58:02.642Z</time></trkpt><trkpt lat="32.9203882" lon="10.4833267"><ele>261.0</ele><time>2026-04-26T13:58:03.637Z</time></trkpt><trkpt lat="32.9204549" lon="10.4835348"><ele>261.0</ele><time>2026-04-26T13:58:04.637Z</time></trkpt><trkpt lat="32.9205202" lon="10.4837423"><ele>262.0</ele><time>2026-04-26T13:58:05.641Z</time></trkpt><trkpt lat="32.9205869" lon="10.4839527"><ele>263.0</ele><time>2026-04-26T13:58:06.648Z</time></trkpt><trkpt lat="32.9206576" lon="10.484163"><ele>264.0</ele><time>2026-04-26T13:58:07.635Z</time></trkpt><trkpt lat="32.9207251" lon="10.484366"><ele>264.0</ele><time>2026-04-26T13:58:08.634Z</time></trkpt><trkpt lat="32.9207954" lon="10.4845721"><ele>264.0</ele><time>2026-04-26T13:58:09.633Z</time></trkpt><trkpt lat="32.9208629" lon="10.4847759"><ele>264.0</ele><time>2026-04-26T13:58:10.64Z</time></trkpt><trkpt lat="32.9209256" lon="10.484985"><ele>261.6666666666667</ele><time>2026-04-26T13:58:11.597Z</time></trkpt><trkpt lat="32.9209832" lon="10.4851885"><ele>259.33333333333337</ele><time>2026-04-26T13:58:12.656Z</time></trkpt><trkpt lat="32.9210473" lon="10.4853943"><ele>257.0</ele><time>2026-04-26T13:58:13.627Z</time></trkpt><trkpt lat="32.9211003" lon="10.4855864"><ele>256.6666666666667</ele><time>2026-04-26T13:58:14.641Z</time></trkpt><trkpt lat="32.9211584" lon="10.4857718"><ele>256.3333333333333</ele><time>2026-04-26T13:58:15.644Z</time></trkpt><trkpt lat="32.9212087" lon="10.4859472"><ele>256.0</ele><time>2026-04-26T13:58:16.635Z</time></trkpt><trkpt lat="32.9212431" lon="10.4861319"><ele>257.0</ele><time>2026-04-26T13:58:17.646Z</time></trkpt><trkpt lat="32.921257" lon="10.4863126"><ele>258.0</ele><time>2026-04-26T13:58:18.638Z</time></trkpt><trkpt lat="32.9212495" lon="10.4865036"><ele>259.0</ele><time>2026-04-26T13:58:19.64Z</time></trkpt><trkpt lat="32.9212211" lon="10.4866907"><ele>259.0</ele><time>2026-04-26T13:58:20.655Z</time></trkpt><trkpt lat="32.9211694" lon="10.486874"><ele>259.0</ele><time>2026-04-26T13:58:21.639Z</time></trkpt><trkpt lat="32.9211113" lon="10.4870534"><ele>259.0</ele><time>2026-04-26T13:58:22.649Z</time></trkpt><trkpt lat="32.9210418" lon="10.4872383"><ele>259.0</ele><time>2026-04-26T13:58:23.666Z</time></trkpt><trkpt lat="32.9209762" lon="10.4874199"><ele>259.0</ele><time>2026-04-26T13:58:24.66Z</time></trkpt><trkpt lat="32.9209095" lon="10.4875932"><ele>259.0</ele><time>2026-04-26T13:58:25.668Z</time></trkpt><trkpt lat="32.9208431" lon="10.4877713"><ele>258.3333333333333</ele><time>2026-04-26T13:58:26.636Z</time></trkpt><trkpt lat="32.9207688" lon="10.4879498"><ele>257.6666666666667</ele><time>2026-04-26T13:58:27.655Z</time></trkpt><trkpt lat="32.9206958" lon="10.488132"><ele>257.0</ele><time>2026-04-26T13:58:28.652Z</time></trkpt><trkpt lat="32.920622" lon="10.4883144"><ele>257.0</ele><time>2026-04-26T13:58:29.642Z</time></trkpt><trkpt lat="32.9205503" lon="10.4885028"><ele>257.0</ele><time>2026-04-26T13:58:30.641Z</time></trkpt><trkpt lat="32.9204766" lon="10.4886906"><ele>257.0</ele><time>2026-04-26T13:58:31.633Z</time></trkpt><trkpt lat="32.9204047" lon="10.4888758"><ele>257.0</ele><time>2026-04-26T13:58:32.647Z</time></trkpt><trkpt lat="32.9203309" lon="10.4890604"><ele>257.0</ele><time>2026-04-26T13:58:33.632Z</time></trkpt><trkpt lat="32.9202546" lon="10.4892396"><ele>257.0</ele><time>2026-04-26T13:58:34.641Z</time></trkpt><trkpt lat="32.920176" lon="10.4894155"><ele>257.0</ele><time>2026-04-26T13:58:35.631Z</time></trkpt><trkpt lat="32.9200934" lon="10.489585"><ele>257.0</ele><time>2026-04-26T13:58:36.637Z</time></trkpt><trkpt lat="32.9200125" lon="10.4897571"><ele>257.0</ele><time>2026-04-26T13:58:37.65Z</time></trkpt><trkpt lat="32.9199281" lon="10.4899326"><ele>258.33333333333337</ele><time>2026-04-26T13:58:38.64Z</time></trkpt><trkpt lat="32.9198431" lon="10.4901066"><ele>259.6666666666667</ele><time>2026-04-26T13:58:39.651Z</time></trkpt><trkpt lat="32.9197582" lon="10.4902847"><ele>261.0</ele><time>2026-04-26T13:58:40.644Z</time></trkpt><trkpt lat="32.9196704" lon="10.4904702"><ele>261.0</ele><time>2026-04-26T13:58:41.631Z</time></trkpt><trkpt lat="32.9195765" lon="10.4906627"><ele>261.0</ele><time>2026-04-26T13:58:42.621Z</time></trkpt><trkpt lat="32.9194899" lon="10.4908619"><ele>261.0</ele><time>2026-04-26T13:58:43.642Z</time></trkpt><trkpt lat="32.9194038" lon="10.4910632"><ele>261.6666666666667</ele><time>2026-04-26T13:58:44.628Z</time></trkpt><trkpt lat="32.9193213" lon="10.4912667"><ele>262.33333333333337</ele><time>2026-04-26T13:58:45.585Z</time></trkpt><trkpt lat="32.9192365" lon="10.4914625"><ele>263.0</ele><time>2026-04-26T13:58:46.613Z</time></trkpt><trkpt lat="32.9191526" lon="10.4916529"><ele>264.0</ele><time>2026-04-26T13:58:47.629Z</time></trkpt><trkpt lat="32.9190671" lon="10.4918397"><ele>265.0</ele><time>2026-04-26T13:58:48.597Z</time></trkpt><trkpt lat="32.9189809" lon="10.4920228"><ele>266.0</ele><time>2026-04-26T13:58:49.592Z</time></trkpt><trkpt lat="32.9188982" lon="10.4922073"><ele>266.0</ele><time>2026-04-26T13:58:50.598Z</time></trkpt><trkpt lat="32.9188198" lon="10.4923837"><ele>266.0</ele><time>2026-04-26T13:58:51.58Z</time></trkpt><trkpt lat="32.9187415" lon="10.4925653"><ele>266.0</ele><time>2026-04-26T13:58:52.646Z</time></trkpt><trkpt lat="32.9186679" lon="10.4927329"><ele>266.0</ele><time>2026-04-26T13:58:53.595Z</time></trkpt><trkpt lat="32.9185925" lon="10.492907"><ele>266.0</ele><time>2026-04-26T13:58:54.623Z</time></trkpt><trkpt lat="32.9185273" lon="10.4930827"><ele>266.0</ele><time>2026-04-26T13:58:55.592Z</time></trkpt><trkpt lat="32.9184745" lon="10.4932689"><ele>266.0</ele><time>2026-04-26T13:58:56.586Z</time></trkpt><trkpt lat="32.9184355" lon="10.4934651"><ele>266.0</ele><time>2026-04-26T13:58:57.591Z</time></trkpt><trkpt lat="32.9184101" lon="10.493662"><ele>266.0</ele><time>2026-04-26T13:58:58.585Z</time></trkpt><trkpt lat="32.9184047" lon="10.4938574"><ele>266.0</ele><time>2026-04-26T13:58:59.59Z</time></trkpt><trkpt lat="32.9184158" lon="10.494049"><ele>266.0</ele><time>2026-04-26T13:59:00.6Z</time></trkpt><trkpt lat="32.9184458" lon="10.4942205"><ele>266.0</ele><time>2026-04-26T13:59:01.599Z</time></trkpt><trkpt lat="32.9185015" lon="10.4943851"><ele>266.0</ele><time>2026-04-26T13:59:02.596Z</time></trkpt><trkpt lat="32.9185838" lon="10.4945438"><ele>266.0</ele><time>2026-04-26T13:59:03.593Z</time></trkpt><trkpt lat="32.9186873" lon="10.4947021"><ele>266.0</ele><time>2026-04-26T13:59:04.597Z</time></trkpt><trkpt lat="32.9188048" lon="10.4948549"><ele>266.0</ele><time>2026-04-26T13:59:05.594Z</time></trkpt><trkpt lat="32.9189252" lon="10.4950106"><ele>266.0</ele><time>2026-04-26T13:59:06.595Z</time></trkpt><trkpt lat="32.919038" lon="10.4951717"><ele>266.0</ele><time>2026-04-26T13:59:07.598Z</time></trkpt><trkpt lat="32.9191385" lon="10.4953421"><ele>266.6666666666667</ele><time>2026-04-26T13:59:08.597Z</time></trkpt><trkpt lat="32.9192234" lon="10.4955276"><ele>267.3333333333333</ele><time>2026-04-26T13:59:09.605Z</time></trkpt><trkpt lat="32.9192824" lon="10.4957185"><ele>268.0</ele><time>2026-04-26T13:59:10.582Z</time></trkpt><trkpt lat="32.9192973" lon="10.4959251"><ele>269.0</ele><time>2026-04-26T13:59:11.598Z</time></trkpt><trkpt lat="32.919291" lon="10.4961256"><ele>270.0</ele><time>2026-04-26T13:59:12.595Z</time></trkpt><trkpt lat="32.9192608" lon="10.4963146"><ele>271.0</ele><time>2026-04-26T13:59:13.595Z</time></trkpt><trkpt lat="32.9192195" lon="10.4964977"><ele>271.0</ele><time>2026-04-26T13:59:14.604Z</time></trkpt><trkpt lat="32.9191875" lon="10.4966804"><ele>271.0</ele><time>2026-04-26T13:59:15.593Z</time></trkpt><trkpt lat="32.9191782" lon="10.4968696"><ele>271.0</ele><time>2026-04-26T13:59:16.59Z</time></trkpt><trkpt lat="32.9191974" lon="10.4970702"><ele>273.0</ele><time>2026-04-26T13:59:17.59Z</time></trkpt><trkpt lat="32.9192478" lon="10.497267"><ele>275.0</ele><time>2026-04-26T13:59:18.588Z</time></trkpt><trkpt lat="32.9193103" lon="10.4974705"><ele>277.0</ele><time>2026-04-26T13:59:19.598Z</time></trkpt><trkpt lat="32.9193681" lon="10.4976674"><ele>277.0</ele><time>2026-04-26T13:59:20.587Z</time></trkpt><trkpt lat="32.9194269" lon="10.497864"><ele>277.0</ele><time>2026-04-26T13:59:21.599Z</time></trkpt><trkpt lat="32.9194788" lon="10.4980666"><ele>277.0</ele><time>2026-04-26T13:59:22.585Z</time></trkpt><trkpt lat="32.9195231" lon="10.4982746"><ele>276.66666666666663</ele><time>2026-04-26T13:59:23.599Z</time></trkpt><trkpt lat="32.919556" lon="10.4984815"><ele>276.3333333333333</ele><time>2026-04-26T13:59:24.591Z</time></trkpt><trkpt lat="32.9195723" lon="10.4986871"><ele>276.0</ele><time>2026-04-26T13:59:25.585Z</time></trkpt><trkpt lat="32.919578" lon="10.4988823"><ele>277.25</ele><time>2026-04-26T13:59:26.589Z</time></trkpt><trkpt lat="32.9195629" lon="10.4990656"><ele>278.5</ele><time>2026-04-26T13:59:27.603Z</time></trkpt><trkpt lat="32.9195267" lon="10.4992301"><ele>279.75</ele><time>2026-04-26T13:59:28.584Z</time></trkpt><trkpt lat="32.919467" lon="10.4993628"><ele>281.0</ele><time>2026-04-26T13:59:29.602Z</time></trkpt><trkpt lat="32.9193734" lon="10.4994704"><ele>281.0</ele><time>2026-04-26T13:59:30.596Z</time></trkpt><trkpt lat="32.9192468" lon="10.4995784"><ele>281.0</ele><time>2026-04-26T13:59:31.595Z</time></trkpt><trkpt lat="32.9191159" lon="10.4996872"><ele>281.0</ele><time>2026-04-26T13:59:32.589Z</time></trkpt><trkpt lat="32.919015" lon="10.4998216"><ele>279.0</ele><time>2026-04-26T13:59:33.591Z</time></trkpt><trkpt lat="32.918945" lon="10.5000014"><ele>277.0</ele><time>2026-04-26T13:59:34.593Z</time></trkpt><trkpt lat="32.9188796" lon="10.5002145"><ele>275.0</ele><time>2026-04-26T13:59:35.587Z</time></trkpt><trkpt lat="32.9188132" lon="10.5004546"><ele>275.0</ele><time>2026-04-26T13:59:36.586Z</time></trkpt><trkpt lat="32.9187514" lon="10.5007059"><ele>275.0</ele><time>2026-04-26T13:59:37.585Z</time></trkpt><trkpt lat="32.9186993" lon="10.5009494"><ele>275.0</ele><time>2026-04-26T13:59:38.589Z</time></trkpt><trkpt lat="32.9186569" lon="10.5011712"><ele>275.0</ele><time>2026-04-26T13:59:39.586Z</time></trkpt><trkpt lat="32.9186211" lon="10.5013866"><ele>275.0</ele><time>2026-04-26T13:59:40.602Z</time></trkpt><trkpt lat="32.9186055" lon="10.501596"><ele>275.0</ele><time>2026-04-26T13:59:41.586Z</time></trkpt><trkpt lat="32.9186102" lon="10.501809"><ele>275.0</ele><time>2026-04-26T13:59:42.589Z</time></trkpt><trkpt lat="32.9186324" lon="10.50202"><ele>275.0</ele><time>2026-04-26T13:59:43.594Z</time></trkpt><trkpt lat="32.918661" lon="10.5022306"><ele>275.0</ele><time>2026-04-26T13:59:44.591Z</time></trkpt><trkpt lat="32.9186907" lon="10.502435"><ele>276.0</ele><time>2026-04-26T13:59:45.599Z</time></trkpt><trkpt lat="32.9187147" lon="10.5026287"><ele>277.0</ele><time>2026-04-26T13:59:46.595Z</time></trkpt><trkpt lat="32.9187286" lon="10.502817"><ele>278.0</ele><time>2026-04-26T13:59:47.593Z</time></trkpt><trkpt lat="32.9187348" lon="10.5030066"><ele>278.6666666666667</ele><time>2026-04-26T13:59:48.594Z</time></trkpt><trkpt lat="32.9187305" lon="10.5031948"><ele>279.3333333333333</ele><time>2026-04-26T13:59:49.581Z</time></trkpt><trkpt lat="32.9187138" lon="10.5033835"><ele>280.0</ele><time>2026-04-26T13:59:50.586Z</time></trkpt><trkpt lat="32.9186849" lon="10.5035771"><ele>280.0</ele><time>2026-04-26T13:59:51.586Z</time></trkpt><trkpt lat="32.9186452" lon="10.5037627"><ele>280.0</ele><time>2026-04-26T13:59:52.588Z</time></trkpt><trkpt lat="32.9185948" lon="10.503946"><ele>280.0</ele><time>2026-04-26T13:59:53.583Z</time></trkpt><trkpt lat="32.9185469" lon="10.5041294"><ele>280.0</ele><time>2026-04-26T13:59:54.588Z</time></trkpt><trkpt lat="32.9185032" lon="10.5043153"><ele>280.0</ele><time>2026-04-26T13:59:55.593Z</time></trkpt><trkpt lat="32.9184642" lon="10.5045001"><ele>280.0</ele><time>2026-04-26T13:59:56.588Z</time></trkpt><trkpt lat="32.918426" lon="10.5046794"><ele>282.0</ele><time>2026-04-26T13:59:57.594Z</time></trkpt><trkpt lat="32.9183848" lon="10.5048558"><ele>284.0</ele><time>2026-04-26T13:59:58.59Z</time></trkpt><trkpt lat="32.9183425" lon="10.5050336"><ele>286.0</ele><time>2026-04-26T13:59:59.596Z</time></trkpt><trkpt lat="32.9182927" lon="10.5052156"><ele>286.0</ele><time>2026-04-26T14:00:00.601Z</time></trkpt><trkpt lat="32.9182309" lon="10.5053981"><ele>286.0</ele><time>2026-04-26T14:00:01.583Z</time></trkpt><trkpt lat="32.9181639" lon="10.5055896"><ele>286.0</ele><time>2026-04-26T14:00:02.595Z</time></trkpt><trkpt lat="32.9181079" lon="10.5057889"><ele>285.3333333333333</ele><time>2026-04-26T14:00:03.599Z</time></trkpt><trkpt lat="32.918068" lon="10.5059942"><ele>284.6666666666667</ele><time>2026-04-26T14:00:04.597Z</time></trkpt><trkpt lat="32.9180351" lon="10.5062036"><ele>284.0</ele><time>2026-04-26T14:00:05.595Z</time></trkpt><trkpt lat="32.9180213" lon="10.5064125"><ele>284.0</ele><time>2026-04-26T14:00:06.586Z</time></trkpt><trkpt lat="32.9180217" lon="10.5066202"><ele>284.0</ele><time>2026-04-26T14:00:07.597Z</time></trkpt><trkpt lat="32.9180251" lon="10.5068238"><ele>284.0</ele><time>2026-04-26T14:00:08.593Z</time></trkpt><trkpt lat="32.9180226" lon="10.5070251"><ele>284.33333333333337</ele><time>2026-04-26T14:00:09.603Z</time></trkpt><trkpt lat="32.9180212" lon="10.5072226"><ele>284.6666666666667</ele><time>2026-04-26T14:00:10.595Z</time></trkpt><trkpt lat="32.9180133" lon="10.5074214"><ele>285.0</ele><time>2026-04-26T14:00:11.589Z</time></trkpt><trkpt lat="32.9179861" lon="10.5076218"><ele>285.0</ele><time>2026-04-26T14:00:12.589Z</time></trkpt><trkpt lat="32.9179441" lon="10.5078212"><ele>285.0</ele><time>2026-04-26T14:00:13.591Z</time></trkpt><trkpt lat="32.9178859" lon="10.5080203"><ele>285.0</ele><time>2026-04-26T14:00:14.594Z</time></trkpt><trkpt lat="32.9178129" lon="10.5082153"><ele>285.0</ele><time>2026-04-26T14:00:15.587Z</time></trkpt><trkpt lat="32.9177286" lon="10.5084098"><ele>285.0</ele><time>2026-04-26T14:00:16.592Z</time></trkpt><trkpt lat="32.9176501" lon="10.5086077"><ele>285.0</ele><time>2026-04-26T14:00:17.594Z</time></trkpt><trkpt lat="32.9175827" lon="10.5088096"><ele>286.6666666666667</ele><time>2026-04-26T14:00:18.591Z</time></trkpt><trkpt lat="32.9175231" lon="10.5090087"><ele>288.33333333333337</ele><time>2026-04-26T14:00:19.59Z</time></trkpt><trkpt lat="32.9174672" lon="10.5092052"><ele>290.0</ele><time>2026-04-26T14:00:20.589Z</time></trkpt><trkpt lat="32.9174078" lon="10.5093982"><ele>290.0</ele><time>2026-04-26T14:00:21.593Z</time></trkpt><trkpt lat="32.917345" lon="10.5095917"><ele>290.0</ele><time>2026-04-26T14:00:22.593Z</time></trkpt><trkpt lat="32.9172839" lon="10.5097864"><ele>290.0</ele><time>2026-04-26T14:00:23.59Z</time></trkpt><trkpt lat="32.9172294" lon="10.5099833"><ele>290.0</ele><time>2026-04-26T14:00:24.592Z</time></trkpt><trkpt lat="32.9171789" lon="10.5101797"><ele>290.0</ele><time>2026-04-26T14:00:25.585Z</time></trkpt><trkpt lat="32.9171202" lon="10.5103729"><ele>290.0</ele><time>2026-04-26T14:00:26.597Z</time></trkpt><trkpt lat="32.9170613" lon="10.5105667"><ele>290.6666666666667</ele><time>2026-04-26T14:00:27.589Z</time></trkpt><trkpt lat="32.917007" lon="10.5107617"><ele>291.3333333333333</ele><time>2026-04-26T14:00:28.591Z</time></trkpt><trkpt lat="32.916963" lon="10.5109602"><ele>292.0</ele><time>2026-04-26T14:00:29.587Z</time></trkpt><trkpt lat="32.9169305" lon="10.5111599"><ele>292.3333333333333</ele><time>2026-04-26T14:00:30.599Z</time></trkpt><trkpt lat="32.9169144" lon="10.5113709"><ele>292.6666666666667</ele><time>2026-04-26T14:00:31.591Z</time></trkpt><trkpt lat="32.9169038" lon="10.511582"><ele>293.0</ele><time>2026-04-26T14:00:32.593Z</time></trkpt><trkpt lat="32.9168914" lon="10.5117923"><ele>293.0</ele><time>2026-04-26T14:00:33.595Z</time></trkpt><trkpt lat="32.9168756" lon="10.5120029"><ele>293.0</ele><time>2026-04-26T14:00:34.591Z</time></trkpt><trkpt lat="32.9168475" lon="10.5122087"><ele>293.0</ele><time>2026-04-26T14:00:35.593Z</time></trkpt><trkpt lat="32.9168081" lon="10.5124128"><ele>293.33333333333337</ele><time>2026-04-26T14:00:36.578Z</time></trkpt><trkpt lat="32.9167598" lon="10.5126155"><ele>293.6666666666667</ele><time>2026-04-26T14:00:37.582Z</time></trkpt><trkpt lat="32.9167107" lon="10.5128215"><ele>294.0</ele><time>2026-04-26T14:00:38.586Z</time></trkpt><trkpt lat="32.9166558" lon="10.5130266"><ele>294.0</ele><time>2026-04-26T14:00:39.59Z</time></trkpt><trkpt lat="32.9165998" lon="10.5132311"><ele>294.0</ele><time>2026-04-26T14:00:40.588Z</time></trkpt><trkpt lat="32.9165431" lon="10.5134373"><ele>294.0</ele><time>2026-04-26T14:00:41.585Z</time></trkpt><trkpt lat="32.9164794" lon="10.5136465"><ele>294.6666666666667</ele><time>2026-04-26T14:00:42.587Z</time></trkpt><trkpt lat="32.9164093" lon="10.5138509"><ele>295.33333333333337</ele><time>2026-04-26T14:00:43.587Z</time></trkpt><trkpt lat="32.9163316" lon="10.5140507"><ele>296.0</ele><time>2026-04-26T14:00:44.586Z</time></trkpt><trkpt lat="32.9162495" lon="10.5142508"><ele>296.0</ele><time>2026-04-26T14:00:45.592Z</time></trkpt><trkpt lat="32.9161675" lon="10.5144536"><ele>296.0</ele><time>2026-04-26T14:00:46.585Z</time></trkpt><trkpt lat="32.9160863" lon="10.5146597"><ele>296.0</ele><time>2026-04-26T14:00:47.587Z</time></trkpt><trkpt lat="32.916001" lon="10.5148677"><ele>296.6666666666667</ele><time>2026-04-26T14:00:48.59Z</time></trkpt><trkpt lat="32.9159179" lon="10.5150721"><ele>297.3333333333333</ele><time>2026-04-26T14:00:49.587Z</time></trkpt><trkpt lat="32.9158315" lon="10.5152796"><ele>298.0</ele><time>2026-04-26T14:00:50.625Z</time></trkpt><trkpt lat="32.9157461" lon="10.5154817"><ele>300.0</ele><time>2026-04-26T14:00:51.589Z</time></trkpt><trkpt lat="32.915657" lon="10.5156838"><ele>302.0</ele><time>2026-04-26T14:00:52.579Z</time></trkpt><trkpt lat="32.9155579" lon="10.5158774"><ele>304.0</ele><time>2026-04-26T14:00:53.577Z</time></trkpt><trkpt lat="32.9154535" lon="10.5160676"><ele>304.66666666666663</ele><time>2026-04-26T14:00:54.593Z</time></trkpt><trkpt lat="32.9153418" lon="10.5162521"><ele>305.3333333333333</ele><time>2026-04-26T14:00:55.588Z</time></trkpt><trkpt lat="32.9152262" lon="10.5164379"><ele>306.0</ele><time>2026-04-26T14:00:56.59Z</time></trkpt><trkpt lat="32.915105" lon="10.5166206"><ele>307.0</ele><time>2026-04-26T14:00:57.588Z</time></trkpt><trkpt lat="32.9149818" lon="10.5167958"><ele>308.0</ele><time>2026-04-26T14:00:58.6Z</time></trkpt><trkpt lat="32.9148603" lon="10.51696"><ele>309.0</ele><time>2026-04-26T14:00:59.579Z</time></trkpt><trkpt lat="32.9147495" lon="10.5171223"><ele>309.0</ele><time>2026-04-26T14:01:00.593Z</time></trkpt><trkpt lat="32.9146611" lon="10.5172926"><ele>309.0</ele><time>2026-04-26T14:01:01.588Z</time></trkpt><trkpt lat="32.9146038" lon="10.517487"><ele>309.0</ele><time>2026-04-26T14:01:02.585Z</time></trkpt><trkpt lat="32.9145698" lon="10.5176993"><ele>309.3333333333333</ele><time>2026-04-26T14:01:03.599Z</time></trkpt><trkpt lat="32.9145649" lon="10.5179173"><ele>309.66666666666663</ele><time>2026-04-26T14:01:04.585Z</time></trkpt><trkpt lat="32.9145705" lon="10.518141"><ele>310.0</ele><time>2026-04-26T14:01:05.597Z</time></trkpt><trkpt lat="32.9145806" lon="10.5183542"><ele>310.0</ele><time>2026-04-26T14:01:06.59Z</time></trkpt><trkpt lat="32.914591" lon="10.5185541"><ele>310.0</ele><time>2026-04-26T14:01:07.584Z</time></trkpt><trkpt lat="32.9145945" lon="10.5187378"><ele>310.0</ele><time>2026-04-26T14:01:08.587Z</time></trkpt><trkpt lat="32.9145957" lon="10.5188988"><ele>310.2</ele><time>2026-04-26T14:01:09.59Z</time></trkpt><trkpt lat="32.9145776" lon="10.5190435"><ele>310.4</ele><time>2026-04-26T14:01:10.597Z</time></trkpt><trkpt lat="32.9145277" lon="10.5191606"><ele>310.6</ele><time>2026-04-26T14:01:11.587Z</time></trkpt><trkpt lat="32.9144602" lon="10.5192619"><ele>310.8</ele><time>2026-04-26T14:01:12.594Z</time></trkpt><trkpt lat="32.9143758" lon="10.5193204"><ele>311.0</ele><time>2026-04-26T14:01:13.592Z</time></trkpt><trkpt lat="32.9142702" lon="10.5193507"><ele>313.0</ele><time>2026-04-26T14:01:14.593Z</time></trkpt><trkpt lat="32.914153" lon="10.5193389"><ele>315.0</ele><time>2026-04-26T14:01:15.591Z</time></trkpt><trkpt lat="32.9140186" lon="10.5193068"><ele>317.0</ele><time>2026-04-26T14:01:16.595Z</time></trkpt><trkpt lat="32.9138811" lon="10.5192654"><ele>319.0</ele><time>2026-04-26T14:01:17.591Z</time></trkpt><trkpt lat="32.913728" lon="10.5192215"><ele>319.0</ele><time>2026-04-26T14:01:18.586Z</time></trkpt><trkpt lat="32.9135517" lon="10.519202"><ele>319.0</ele><time>2026-04-26T14:01:19.588Z</time></trkpt><trkpt lat="32.9133599" lon="10.5192026"><ele>319.0</ele><time>2026-04-26T14:01:20.589Z</time></trkpt><trkpt lat="32.9131679" lon="10.5192201"><ele>318.0</ele><time>2026-04-26T14:01:21.596Z</time></trkpt><trkpt lat="32.9129858" lon="10.5192417"><ele>317.0</ele><time>2026-04-26T14:01:22.585Z</time></trkpt><trkpt lat="32.9128168" lon="10.5192537"><ele>316.0</ele><time>2026-04-26T14:01:23.589Z</time></trkpt><trkpt lat="32.9126584" lon="10.5192655"><ele>317.25</ele><time>2026-04-26T14:01:24.593Z</time></trkpt><trkpt lat="32.9125168" lon="10.5192842"><ele>318.5</ele><time>2026-04-26T14:01:25.585Z</time></trkpt><trkpt lat="32.9123832" lon="10.5193164"><ele>319.75</ele><time>2026-04-26T14:01:26.585Z</time></trkpt><trkpt lat="32.9122604" lon="10.5193782"><ele>321.0</ele><time>2026-04-26T14:01:27.614Z</time></trkpt><trkpt lat="32.9121641" lon="10.5194594"><ele>316.75</ele><time>2026-04-26T14:01:28.589Z</time></trkpt><trkpt lat="32.9120872" lon="10.5195743"><ele>312.5</ele><time>2026-04-26T14:01:29.587Z</time></trkpt><trkpt lat="32.9120329" lon="10.5197162"><ele>308.25</ele><time>2026-04-26T14:01:30.595Z</time></trkpt><trkpt lat="32.9119886" lon="10.5198579"><ele>304.0</ele><time>2026-04-26T14:01:31.587Z</time></trkpt><trkpt lat="32.9119341" lon="10.5199896"><ele>304.0</ele><time>2026-04-26T14:01:32.593Z</time></trkpt><trkpt lat="32.9118605" lon="10.5201059"><ele>304.0</ele><time>2026-04-26T14:01:33.593Z</time></trkpt><trkpt lat="32.9117714" lon="10.5202022"><ele>304.0</ele><time>2026-04-26T14:01:34.591Z</time></trkpt><trkpt lat="32.9116671" lon="10.5202745"><ele>304.0</ele><time>2026-04-26T14:01:35.585Z</time></trkpt><trkpt lat="32.9115362" lon="10.5203339"><ele>306.0</ele><time>2026-04-26T14:01:36.576Z</time></trkpt><trkpt lat="32.9113866" lon="10.5203815"><ele>308.0</ele><time>2026-04-26T14:01:37.59Z</time></trkpt><trkpt lat="32.9112139" lon="10.5204091"><ele>310.0</ele><time>2026-04-26T14:01:38.593Z</time></trkpt><trkpt lat="32.9110412" lon="10.5204231"><ele>307.66666666666663</ele><time>2026-04-26T14:01:39.586Z</time></trkpt><trkpt lat="32.9108619" lon="10.5204264"><ele>305.3333333333333</ele><time>2026-04-26T14:01:40.592Z</time></trkpt><trkpt lat="32.9106839" lon="10.520421"><ele>303.0</ele><time>2026-04-26T14:01:41.595Z</time></trkpt><trkpt lat="32.9105069" lon="10.5204245"><ele>303.0</ele><time>2026-04-26T14:01:42.592Z</time></trkpt><trkpt lat="32.9103348" lon="10.5204315"><ele>303.0</ele><time>2026-04-26T14:01:43.592Z</time></trkpt><trkpt lat="32.9101593" lon="10.5204463"><ele>303.0</ele><time>2026-04-26T14:01:44.581Z</time></trkpt><trkpt lat="32.9099872" lon="10.5204773"><ele>303.3333333333333</ele><time>2026-04-26T14:01:45.59Z</time></trkpt><trkpt lat="32.9098198" lon="10.5205211"><ele>303.66666666666663</ele><time>2026-04-26T14:01:46.591Z</time></trkpt><trkpt lat="32.9096509" lon="10.5205684"><ele>304.0</ele><time>2026-04-26T14:01:47.591Z</time></trkpt><trkpt lat="32.909483" lon="10.5206159"><ele>304.0</ele><time>2026-04-26T14:01:48.588Z</time></trkpt><trkpt lat="32.9093164" lon="10.5206686"><ele>304.0</ele><time>2026-04-26T14:01:49.579Z</time></trkpt><trkpt lat="32.9091473" lon="10.520724"><ele>304.0</ele><time>2026-04-26T14:01:50.59Z</time></trkpt><trkpt lat="32.9089785" lon="10.520779"><ele>304.3333333333333</ele><time>2026-04-26T14:01:51.592Z</time></trkpt><trkpt lat="32.9088136" lon="10.5208482"><ele>304.6666666666667</ele><time>2026-04-26T14:01:52.592Z</time></trkpt><trkpt lat="32.908651" lon="10.5209238"><ele>305.0</ele><time>2026-04-26T14:01:53.594Z</time></trkpt><trkpt lat="32.9084861" lon="10.5210021"><ele>305.6666666666667</ele><time>2026-04-26T14:01:54.582Z</time></trkpt><trkpt lat="32.9083208" lon="10.5210837"><ele>306.3333333333333</ele><time>2026-04-26T14:01:55.592Z</time></trkpt><trkpt lat="32.9081609" lon="10.5211754"><ele>307.0</ele><time>2026-04-26T14:01:56.593Z</time></trkpt><trkpt lat="32.9080035" lon="10.521272"><ele>307.0</ele><time>2026-04-26T14:01:57.589Z</time></trkpt><trkpt lat="32.9078489" lon="10.5213689"><ele>307.0</ele><time>2026-04-26T14:01:58.593Z</time></trkpt><trkpt lat="32.9076974" lon="10.5214619"><ele>307.0</ele><time>2026-04-26T14:01:59.586Z</time></trkpt><trkpt lat="32.9075438" lon="10.5215523"><ele>307.3333333333333</ele><time>2026-04-26T14:02:00.592Z</time></trkpt><trkpt lat="32.90739" lon="10.5216445"><ele>307.6666666666667</ele><time>2026-04-26T14:02:01.592Z</time></trkpt><trkpt lat="32.9072364" lon="10.5217337"><ele>308.0</ele><time>2026-04-26T14:02:02.596Z</time></trkpt><trkpt lat="32.9070788" lon="10.5218042"><ele>308.0</ele><time>2026-04-26T14:02:03.582Z</time></trkpt><trkpt lat="32.9069171" lon="10.5218521"><ele>308.0</ele><time>2026-04-26T14:02:04.582Z</time></trkpt><trkpt lat="32.9067433" lon="10.521885"><ele>308.0</ele><time>2026-04-26T14:02:05.584Z</time></trkpt><trkpt lat="32.9065717" lon="10.5219121"><ele>310.6666666666667</ele><time>2026-04-26T14:02:06.585Z</time></trkpt><trkpt lat="32.9064015" lon="10.5219399"><ele>313.3333333333333</ele><time>2026-04-26T14:02:07.578Z</time></trkpt><trkpt lat="32.9062301" lon="10.5219712"><ele>316.0</ele><time>2026-04-26T14:02:08.582Z</time></trkpt><trkpt lat="32.9060586" lon="10.5220003"><ele>315.3333333333333</ele><time>2026-04-26T14:02:09.582Z</time></trkpt><trkpt lat="32.9058903" lon="10.5220423"><ele>314.6666666666667</ele><time>2026-04-26T14:02:10.589Z</time></trkpt><trkpt lat="32.9057319" lon="10.5220892"><ele>314.0</ele><time>2026-04-26T14:02:11.583Z</time></trkpt><trkpt lat="32.9055871" lon="10.5221488"><ele>310.6666666666667</ele><time>2026-04-26T14:02:12.586Z</time></trkpt><trkpt lat="32.9054457" lon="10.5222291"><ele>307.3333333333333</ele><time>2026-04-26T14:02:13.588Z</time></trkpt><trkpt lat="32.9053133" lon="10.5223246"><ele>304.0</ele><time>2026-04-26T14:02:14.578Z</time></trkpt><trkpt lat="32.9051923" lon="10.5224517"><ele>304.0</ele><time>2026-04-26T14:02:15.583Z</time></trkpt><trkpt lat="32.9050822" lon="10.5225875"><ele>304.0</ele><time>2026-04-26T14:02:16.588Z</time></trkpt><trkpt lat="32.9049787" lon="10.522723"><ele>304.0</ele><time>2026-04-26T14:02:17.594Z</time></trkpt><trkpt lat="32.9048799" lon="10.5228479"><ele>302.75</ele><time>2026-04-26T14:02:18.59Z</time></trkpt><trkpt lat="32.9047834" lon="10.5229563"><ele>301.5</ele><time>2026-04-26T14:02:19.585Z</time></trkpt><trkpt lat="32.9046855" lon="10.5230369"><ele>300.25</ele><time>2026-04-26T14:02:20.593Z</time></trkpt><trkpt lat="32.904592" lon="10.5230889"><ele>299.0</ele><time>2026-04-26T14:02:21.581Z</time></trkpt><trkpt lat="32.9044796" lon="10.5231172"><ele>299.0</ele><time>2026-04-26T14:02:22.585Z</time></trkpt><trkpt lat="32.904356" lon="10.5231332"><ele>299.0</ele><time>2026-04-26T14:02:23.592Z</time></trkpt><trkpt lat="32.9042233" lon="10.5231361"><ele>299.0</ele><time>2026-04-26T14:02:24.585Z</time></trkpt><trkpt lat="32.9040871" lon="10.5231318"><ele>299.0</ele><time>2026-04-26T14:02:25.588Z</time></trkpt><trkpt lat="32.9039513" lon="10.5231254"><ele>299.75</ele><time>2026-04-26T14:02:26.589Z</time></trkpt><trkpt lat="32.9038119" lon="10.52312"><ele>300.5</ele><time>2026-04-26T14:02:27.591Z</time></trkpt><trkpt lat="32.9036732" lon="10.5231184"><ele>301.25</ele><time>2026-04-26T14:02:28.599Z</time></trkpt><trkpt lat="32.9035349" lon="10.5231285"><ele>302.0</ele><time>2026-04-26T14:02:29.599Z</time></trkpt><trkpt lat="32.9034049" lon="10.5231555"><ele>302.0</ele><time>2026-04-26T14:02:30.59Z</time></trkpt><trkpt lat="32.9032837" lon="10.523206"><ele>302.0</ele><time>2026-04-26T14:02:31.578Z</time></trkpt><trkpt lat="32.9031804" lon="10.5232765"><ele>302.0</ele><time>2026-04-26T14:02:32.592Z</time></trkpt><trkpt lat="32.9030966" lon="10.5233597"><ele>302.0</ele><time>2026-04-26T14:02:33.596Z</time></trkpt><trkpt lat="32.9030313" lon="10.5234527"><ele>302.0</ele><time>2026-04-26T14:02:34.583Z</time></trkpt><trkpt lat="32.9029987" lon="10.5235494"><ele>302.0</ele><time>2026-04-26T14:02:35.595Z</time></trkpt><trkpt lat="32.9029962" lon="10.5236461"><ele>302.0</ele><time>2026-04-26T14:02:36.59Z</time></trkpt><trkpt lat="32.9030167" lon="10.52376"><ele>302.0</ele><time>2026-04-26T14:02:37.593Z</time></trkpt><trkpt lat="32.9030502" lon="10.5238723"><ele>302.0</ele><time>2026-04-26T14:02:38.591Z</time></trkpt><trkpt lat="32.9030732" lon="10.5239797"><ele>301.0</ele><time>2026-04-26T14:02:39.587Z</time></trkpt><trkpt lat="32.9030761" lon="10.5240887"><ele>300.0</ele><time>2026-04-26T14:02:40.584Z</time></trkpt><trkpt lat="32.9030529" lon="10.5242062"><ele>299.0</ele><time>2026-04-26T14:02:41.589Z</time></trkpt><trkpt lat="32.903013" lon="10.5243397"><ele>298.0</ele><time>2026-04-26T14:02:42.626Z</time></trkpt><trkpt lat="32.902967" lon="10.5244817"><ele>297.0</ele><time>2026-04-26T14:02:43.593Z</time></trkpt><trkpt lat="32.9029195" lon="10.5246138"><ele>296.2</ele><time>2026-04-26T14:02:44.589Z</time></trkpt><trkpt lat="32.9028657" lon="10.5247383"><ele>295.4</ele><time>2026-04-26T14:02:45.583Z</time></trkpt><trkpt lat="32.9028101" lon="10.5248524"><ele>294.6</ele><time>2026-04-26T14:02:46.589Z</time></trkpt><trkpt lat="32.9027494" lon="10.5249477"><ele>293.8</ele><time>2026-04-26T14:02:47.59Z</time></trkpt><trkpt lat="32.9026707" lon="10.5250264"><ele>293.0</ele><time>2026-04-26T14:02:48.591Z</time></trkpt><trkpt lat="32.9025712" lon="10.5250988"><ele>293.0</ele><time>2026-04-26T14:02:49.586Z</time></trkpt><trkpt lat="32.9024578" lon="10.5251706"><ele>293.0</ele><time>2026-04-26T14:02:50.593Z</time></trkpt><trkpt lat="32.9023433" lon="10.5252372"><ele>293.0</ele><time>2026-04-26T14:02:51.598Z</time></trkpt><trkpt lat="32.9022319" lon="10.5253031"><ele>293.0</ele><time>2026-04-26T14:02:52.586Z</time></trkpt><trkpt lat="32.9021266" lon="10.5253689"><ele>290.25</ele><time>2026-04-26T14:02:53.594Z</time></trkpt><trkpt lat="32.9020271" lon="10.5254405"><ele>287.5</ele><time>2026-04-26T14:02:54.587Z</time></trkpt><trkpt lat="32.9019258" lon="10.5255133"><ele>284.75</ele><time>2026-04-26T14:02:55.605Z</time></trkpt><trkpt lat="32.9018212" lon="10.5255847"><ele>282.0</ele><time>2026-04-26T14:02:56.586Z</time></trkpt><trkpt lat="32.901703" lon="10.5256429"><ele>282.0</ele><time>2026-04-26T14:02:57.59Z</time></trkpt><trkpt lat="32.9015705" lon="10.5256888"><ele>282.0</ele><time>2026-04-26T14:02:58.579Z</time></trkpt><trkpt lat="32.9014243" lon="10.5257267"><ele>282.0</ele><time>2026-04-26T14:02:59.59Z</time></trkpt><trkpt lat="32.9012718" lon="10.5257662"><ele>282.0</ele><time>2026-04-26T14:03:00.587Z</time></trkpt><trkpt lat="32.9011162" lon="10.5258058"><ele>282.0</ele><time>2026-04-26T14:03:01.587Z</time></trkpt><trkpt lat="32.9009529" lon="10.5258469"><ele>282.0</ele><time>2026-04-26T14:03:02.595Z</time></trkpt><trkpt lat="32.9007873" lon="10.5258764"><ele>282.0</ele><time>2026-04-26T14:03:03.589Z</time></trkpt><trkpt lat="32.9006194" lon="10.5259054"><ele>282.6666666666667</ele><time>2026-04-26T14:03:04.591Z</time></trkpt><trkpt lat="32.9004558" lon="10.5259235"><ele>283.33333333333337</ele><time>2026-04-26T14:03:05.591Z</time></trkpt><trkpt lat="32.9002874" lon="10.5259386"><ele>284.0</ele><time>2026-04-26T14:03:06.594Z</time></trkpt><trkpt lat="32.9001196" lon="10.5259416"><ele>283.6666666666667</ele><time>2026-04-26T14:03:07.582Z</time></trkpt><trkpt lat="32.8999519" lon="10.5259356"><ele>283.3333333333333</ele><time>2026-04-26T14:03:08.588Z</time></trkpt><trkpt lat="32.8997884" lon="10.525926"><ele>283.0</ele><time>2026-04-26T14:03:09.594Z</time></trkpt><trkpt lat="32.8996256" lon="10.5259149"><ele>283.0</ele><time>2026-04-26T14:03:10.596Z</time></trkpt><trkpt lat="32.8994613" lon="10.5259079"><ele>283.0</ele><time>2026-04-26T14:03:11.594Z</time></trkpt><trkpt lat="32.8992968" lon="10.5258995"><ele>283.0</ele><time>2026-04-26T14:03:12.602Z</time></trkpt><trkpt lat="32.899134" lon="10.5258881"><ele>284.0</ele><time>2026-04-26T14:03:13.595Z</time></trkpt><trkpt lat="32.8989714" lon="10.5258811"><ele>285.0</ele><time>2026-04-26T14:03:14.598Z</time></trkpt><trkpt lat="32.8988109" lon="10.5258811"><ele>286.0</ele><time>2026-04-26T14:03:15.583Z</time></trkpt><trkpt lat="32.8986516" lon="10.5258922"><ele>286.0</ele><time>2026-04-26T14:03:16.594Z</time></trkpt><trkpt lat="32.8984982" lon="10.525909"><ele>286.0</ele><time>2026-04-26T14:03:17.583Z</time></trkpt><trkpt lat="32.8983417" lon="10.5259432"><ele>286.0</ele><time>2026-04-26T14:03:18.591Z</time></trkpt><trkpt lat="32.8981931" lon="10.5259857"><ele>286.3333333333333</ele><time>2026-04-26T14:03:19.585Z</time></trkpt><trkpt lat="32.8980428" lon="10.5260372"><ele>286.6666666666667</ele><time>2026-04-26T14:03:20.592Z</time></trkpt><trkpt lat="32.8978948" lon="10.5261013"><ele>287.0</ele><time>2026-04-26T14:03:21.621Z</time></trkpt><trkpt lat="32.8977542" lon="10.5261728"><ele>285.33333333333337</ele><time>2026-04-26T14:03:22.597Z</time></trkpt><trkpt lat="32.89761" lon="10.5262569"><ele>283.6666666666667</ele><time>2026-04-26T14:03:23.587Z</time></trkpt><trkpt lat="32.8974648" lon="10.5263541"><ele>282.0</ele><time>2026-04-26T14:03:24.597Z</time></trkpt><trkpt lat="32.8973256" lon="10.5264575"><ele>282.0</ele><time>2026-04-26T14:03:25.591Z</time></trkpt><trkpt lat="32.8971877" lon="10.5265598"><ele>282.0</ele><time>2026-04-26T14:03:26.594Z</time></trkpt><trkpt lat="32.8970479" lon="10.5266622"><ele>282.0</ele><time>2026-04-26T14:03:27.593Z</time></trkpt><trkpt lat="32.8969049" lon="10.5267665"><ele>282.0</ele><time>2026-04-26T14:03:28.586Z</time></trkpt><trkpt lat="32.8967603" lon="10.5268683"><ele>282.0</ele><time>2026-04-26T14:03:29.593Z</time></trkpt><trkpt lat="32.8966165" lon="10.5269721"><ele>282.0</ele><time>2026-04-26T14:03:30.593Z</time></trkpt><trkpt lat="32.8964731" lon="10.52708"><ele>281.0</ele><time>2026-04-26T14:03:31.583Z</time></trkpt><trkpt lat="32.8963256" lon="10.5271895"><ele>280.0</ele><time>2026-04-26T14:03:32.629Z</time></trkpt><trkpt lat="32.8961806" lon="10.5272995"><ele>279.0</ele><time>2026-04-26T14:03:33.595Z</time></trkpt><trkpt lat="32.8960329" lon="10.5274081"><ele>278.3333333333333</ele><time>2026-04-26T14:03:34.592Z</time></trkpt><trkpt lat="32.8958956" lon="10.527515"><ele>277.66666666666663</ele><time>2026-04-26T14:03:35.58Z</time></trkpt><trkpt lat="32.895772" lon="10.5276323"><ele>277.0</ele><time>2026-04-26T14:03:36.579Z</time></trkpt><trkpt lat="32.8956549" lon="10.5277561"><ele>277.0</ele><time>2026-04-26T14:03:37.58Z</time></trkpt><trkpt lat="32.8955423" lon="10.5278915"><ele>277.0</ele><time>2026-04-26T14:03:38.588Z</time></trkpt><trkpt lat="32.8954426" lon="10.5280502"><ele>277.0</ele><time>2026-04-26T14:03:39.581Z</time></trkpt><trkpt lat="32.8953515" lon="10.5282153"><ele>277.0</ele><time>2026-04-26T14:03:40.584Z</time></trkpt><trkpt lat="32.8952627" lon="10.528379"><ele>277.0</ele><time>2026-04-26T14:03:41.582Z</time></trkpt><trkpt lat="32.8951634" lon="10.5285347"><ele>277.0</ele><time>2026-04-26T14:03:42.593Z</time></trkpt><trkpt lat="32.8950487" lon="10.5286774"><ele>276.3333333333333</ele><time>2026-04-26T14:03:43.602Z</time></trkpt><trkpt lat="32.8949183" lon="10.5288152"><ele>275.6666666666667</ele><time>2026-04-26T14:03:44.592Z</time></trkpt><trkpt lat="32.8947712" lon="10.5289333"><ele>275.0</ele><time>2026-04-26T14:03:45.593Z</time></trkpt><trkpt lat="32.8946109" lon="10.5290202"><ele>275.0</ele><time>2026-04-26T14:03:46.587Z</time></trkpt><trkpt lat="32.8944438" lon="10.5290964"><ele>275.0</ele><time>2026-04-26T14:03:47.592Z</time></trkpt><trkpt lat="32.8942745" lon="10.5291602"><ele>275.0</ele><time>2026-04-26T14:03:48.593Z</time></trkpt><trkpt lat="32.8941096" lon="10.5292297"><ele>274.33333333333337</ele><time>2026-04-26T14:03:49.581Z</time></trkpt><trkpt lat="32.8939428" lon="10.5293064"><ele>273.6666666666667</ele><time>2026-04-26T14:03:50.598Z</time></trkpt><trkpt lat="32.8937822" lon="10.5293889"><ele>273.0</ele><time>2026-04-26T14:03:51.584Z</time></trkpt><trkpt lat="32.8936203" lon="10.5294783"><ele>273.0</ele><time>2026-04-26T14:03:52.585Z</time></trkpt><trkpt lat="32.8934575" lon="10.5295693"><ele>273.0</ele><time>2026-04-26T14:03:53.586Z</time></trkpt><trkpt lat="32.8932883" lon="10.5296603"><ele>273.0</ele><time>2026-04-26T14:03:54.591Z</time></trkpt><trkpt lat="32.8931163" lon="10.5297477"><ele>273.0</ele><time>2026-04-26T14:03:55.609Z</time></trkpt><trkpt lat="32.8929568" lon="10.529827"><ele>273.0</ele><time>2026-04-26T14:03:56.584Z</time></trkpt><trkpt lat="32.8928136" lon="10.5298948"><ele>273.0</ele><time>2026-04-26T14:03:57.591Z</time></trkpt><trkpt lat="32.8926869" lon="10.529953"><ele>273.75</ele><time>2026-04-26T14:03:58.579Z</time></trkpt><trkpt lat="32.8925681" lon="10.5300111"><ele>274.5</ele><time>2026-04-26T14:03:59.594Z</time></trkpt><trkpt lat="32.892442" lon="10.5300622"><ele>275.25</ele><time>2026-04-26T14:04:00.589Z</time></trkpt><trkpt lat="32.8923033" lon="10.5301074"><ele>276.0</ele><time>2026-04-26T14:04:01.591Z</time></trkpt><trkpt lat="32.892161" lon="10.5301592"><ele>276.0</ele><time>2026-04-26T14:04:02.595Z</time></trkpt><trkpt lat="32.8920163" lon="10.5302109"><ele>276.0</ele><time>2026-04-26T14:04:03.587Z</time></trkpt><trkpt lat="32.8918683" lon="10.5302629"><ele>276.0</ele><time>2026-04-26T14:04:04.59Z</time></trkpt><trkpt lat="32.891718" lon="10.5303235"><ele>275.0</ele><time>2026-04-26T14:04:05.58Z</time></trkpt><trkpt lat="32.8915783" lon="10.5303982"><ele>274.0</ele><time>2026-04-26T14:04:06.582Z</time></trkpt><trkpt lat="32.89144" lon="10.530481"><ele>273.0</ele><time>2026-04-26T14:04:07.601Z</time></trkpt><trkpt lat="32.8913093" lon="10.5305721"><ele>273.0</ele><time>2026-04-26T14:04:08.587Z</time></trkpt><trkpt lat="32.8911804" lon="10.5306815"><ele>273.0</ele><time>2026-04-26T14:04:09.592Z</time></trkpt><trkpt lat="32.8910588" lon="10.5308135"><ele>273.0</ele><time>2026-04-26T14:04:10.581Z</time></trkpt><trkpt lat="32.8909507" lon="10.5309739"><ele>273.0</ele><time>2026-04-26T14:04:11.586Z</time></trkpt><trkpt lat="32.8908557" lon="10.5311547"><ele>273.0</ele><time>2026-04-26T14:04:12.592Z</time></trkpt><trkpt lat="32.8907683" lon="10.5313406"><ele>273.0</ele><time>2026-04-26T14:04:13.584Z</time></trkpt><trkpt lat="32.8906807" lon="10.531519"><ele>271.6666666666667</ele><time>2026-04-26T14:04:14.581Z</time></trkpt><trkpt lat="32.890594" lon="10.5316974"><ele>270.33333333333337</ele><time>2026-04-26T14:04:15.589Z</time></trkpt><trkpt lat="32.8905025" lon="10.5318589"><ele>269.0</ele><time>2026-04-26T14:04:16.595Z</time></trkpt><trkpt lat="32.890382" lon="10.5319922"><ele>268.6666666666667</ele><time>2026-04-26T14:04:17.595Z</time></trkpt><trkpt lat="32.8902368" lon="10.5320922"><ele>268.3333333333333</ele><time>2026-04-26T14:04:18.6Z</time></trkpt><trkpt lat="32.89008" lon="10.5321575"><ele>268.0</ele><time>2026-04-26T14:04:19.587Z</time></trkpt><trkpt lat="32.8899195" lon="10.532205"><ele>267.66666666666663</ele><time>2026-04-26T14:04:20.588Z</time></trkpt><trkpt lat="32.8897449" lon="10.5322468"><ele>267.3333333333333</ele><time>2026-04-26T14:04:21.594Z</time></trkpt><trkpt lat="32.8895562" lon="10.5322744"><ele>267.0</ele><time>2026-04-26T14:04:22.595Z</time></trkpt><trkpt lat="32.8893619" lon="10.5323063"><ele>268.0</ele><time>2026-04-26T14:04:23.592Z</time></trkpt><trkpt lat="32.8891673" lon="10.532355"><ele>269.0</ele><time>2026-04-26T14:04:24.589Z</time></trkpt><trkpt lat="32.8889781" lon="10.5324078"><ele>270.0</ele><time>2026-04-26T14:04:25.586Z</time></trkpt><trkpt lat="32.8887958" lon="10.5324806"><ele>270.0</ele><time>2026-04-26T14:04:26.587Z</time></trkpt><trkpt lat="32.8886103" lon="10.5325671"><ele>270.0</ele><time>2026-04-26T14:04:27.593Z</time></trkpt><trkpt lat="32.88843" lon="10.5326506"><ele>270.0</ele><time>2026-04-26T14:04:28.582Z</time></trkpt><trkpt lat="32.8882508" lon="10.5327383"><ele>269.6666666666667</ele><time>2026-04-26T14:04:29.593Z</time></trkpt><trkpt lat="32.8880795" lon="10.5328339"><ele>269.33333333333337</ele><time>2026-04-26T14:04:30.584Z</time></trkpt><trkpt lat="32.8879045" lon="10.5329395"><ele>269.0</ele><time>2026-04-26T14:04:31.582Z</time></trkpt><trkpt lat="32.8877469" lon="10.5330658"><ele>269.0</ele><time>2026-04-26T14:04:32.589Z</time></trkpt><trkpt lat="32.8875955" lon="10.533209"><ele>269.0</ele><time>2026-04-26T14:04:33.589Z</time></trkpt><trkpt lat="32.8874567" lon="10.533358"><ele>269.0</ele><time>2026-04-26T14:04:34.592Z</time></trkpt><trkpt lat="32.8873312" lon="10.5335089"><ele>269.33333333333337</ele><time>2026-04-26T14:04:35.576Z</time></trkpt><trkpt lat="32.8872237" lon="10.5336734"><ele>269.6666666666667</ele><time>2026-04-26T14:04:36.582Z</time></trkpt><trkpt lat="32.8871357" lon="10.53385"><ele>270.0</ele><time>2026-04-26T14:04:37.585Z</time></trkpt><trkpt lat="32.8870619" lon="10.5340444"><ele>269.0</ele><time>2026-04-26T14:04:38.589Z</time></trkpt><trkpt lat="32.8869878" lon="10.5342411"><ele>268.0</ele><time>2026-04-26T14:04:39.591Z</time></trkpt><trkpt lat="32.8869013" lon="10.5344328"><ele>267.0</ele><time>2026-04-26T14:04:40.581Z</time></trkpt><trkpt lat="32.8868054" lon="10.534616"><ele>265.6666666666667</ele><time>2026-04-26T14:04:41.592Z</time></trkpt><trkpt lat="32.8867056" lon="10.5347907"><ele>264.33333333333337</ele><time>2026-04-26T14:04:42.594Z</time></trkpt><trkpt lat="32.8866071" lon="10.5349555"><ele>263.0</ele><time>2026-04-26T14:04:43.588Z</time></trkpt><trkpt lat="32.8865212" lon="10.5350959"><ele>263.0</ele><time>2026-04-26T14:04:44.595Z</time></trkpt><trkpt lat="32.8864381" lon="10.5352164"><ele>263.0</ele><time>2026-04-26T14:04:45.595Z</time></trkpt><trkpt lat="32.8863518" lon="10.5353227"><ele>263.0</ele><time>2026-04-26T14:04:46.588Z</time></trkpt><trkpt lat="32.886263" lon="10.5353895"><ele>263.0</ele><time>2026-04-26T14:04:47.593Z</time></trkpt><trkpt lat="32.8861735" lon="10.5354181"><ele>263.0</ele><time>2026-04-26T14:04:48.598Z</time></trkpt><trkpt lat="32.8860727" lon="10.5354048"><ele>263.0</ele><time>2026-04-26T14:04:49.59Z</time></trkpt><trkpt lat="32.8859643" lon="10.5353767"><ele>263.0</ele><time>2026-04-26T14:04:50.585Z</time></trkpt><trkpt lat="32.8858351" lon="10.5353253"><ele>263.0</ele><time>2026-04-26T14:04:51.591Z</time></trkpt><trkpt lat="32.8856779" lon="10.5352728"><ele>264.0</ele><time>2026-04-26T14:04:52.593Z</time></trkpt><trkpt lat="32.8854965" lon="10.5352347"><ele>265.0</ele><time>2026-04-26T14:04:53.581Z</time></trkpt><trkpt lat="32.8853113" lon="10.5352142"><ele>266.0</ele><time>2026-04-26T14:04:54.592Z</time></trkpt><trkpt lat="32.8851254" lon="10.5352085"><ele>266.0</ele><time>2026-04-26T14:04:55.595Z</time></trkpt><trkpt lat="32.8849366" lon="10.5352119"><ele>266.0</ele><time>2026-04-26T14:04:56.59Z</time></trkpt><trkpt lat="32.8847439" lon="10.535213"><ele>266.0</ele><time>2026-04-26T14:04:57.588Z</time></trkpt><trkpt lat="32.8845532" lon="10.5352336"><ele>266.0</ele><time>2026-04-26T14:04:58.593Z</time></trkpt><trkpt lat="32.8843573" lon="10.5352777"><ele>266.0</ele><time>2026-04-26T14:04:59.59Z</time></trkpt><trkpt lat="32.8841437" lon="10.5353435"><ele>266.0</ele><time>2026-04-26T14:05:00.595Z</time></trkpt><trkpt lat="32.8839298" lon="10.5354165"><ele>266.0</ele><time>2026-04-26T14:05:01.588Z</time></trkpt><trkpt lat="32.8837166" lon="10.5354815"><ele>266.0</ele><time>2026-04-26T14:05:02.598Z</time></trkpt><trkpt lat="32.8835038" lon="10.5355377"><ele>266.0</ele><time>2026-04-26T14:05:03.59Z</time></trkpt><trkpt lat="32.8832977" lon="10.5355927"><ele>266.0</ele><time>2026-04-26T14:05:04.591Z</time></trkpt><trkpt lat="32.8830945" lon="10.5356519"><ele>266.0</ele><time>2026-04-26T14:05:05.586Z</time></trkpt><trkpt lat="32.8828902" lon="10.5357139"><ele>266.0</ele><time>2026-04-26T14:05:06.594Z</time></trkpt><trkpt lat="32.8826941" lon="10.5357712"><ele>266.0</ele><time>2026-04-26T14:05:07.59Z</time></trkpt><trkpt lat="32.882507" lon="10.5358125"><ele>266.0</ele><time>2026-04-26T14:05:08.583Z</time></trkpt><trkpt lat="32.8823434" lon="10.5358313"><ele>266.0</ele><time>2026-04-26T14:05:09.588Z</time></trkpt><trkpt lat="32.8821924" lon="10.535817"><ele>266.0</ele><time>2026-04-26T14:05:10.589Z</time></trkpt><trkpt lat="32.8820368" lon="10.5357926"><ele>266.0</ele><time>2026-04-26T14:05:11.592Z</time></trkpt><trkpt lat="32.8818731" lon="10.5357581"><ele>266.0</ele><time>2026-04-26T14:05:12.584Z</time></trkpt><trkpt lat="32.8817136" lon="10.5357272"><ele>266.5</ele><time>2026-04-26T14:05:13.592Z</time></trkpt><trkpt lat="32.8815647" lon="10.5357062"><ele>267.0</ele><time>2026-04-26T14:05:14.585Z</time></trkpt><trkpt lat="32.8814175" lon="10.5356999"><ele>267.5</ele><time>2026-04-26T14:05:15.586Z</time></trkpt><trkpt lat="32.88127" lon="10.5356988"><ele>268.0</ele><time>2026-04-26T14:05:16.594Z</time></trkpt><trkpt lat="32.88112" lon="10.5357018"><ele>268.0</ele><time>2026-04-26T14:05:17.589Z</time></trkpt><trkpt lat="32.8809646" lon="10.5357084"><ele>268.0</ele><time>2026-04-26T14:05:18.591Z</time></trkpt><trkpt lat="32.8808024" lon="10.5357101"><ele>268.0</ele><time>2026-04-26T14:05:19.596Z</time></trkpt><trkpt lat="32.8806392" lon="10.5356831"><ele>268.3333333333333</ele><time>2026-04-26T14:05:20.587Z</time></trkpt><trkpt lat="32.8804847" lon="10.5356143"><ele>268.6666666666667</ele><time>2026-04-26T14:05:21.593Z</time></trkpt><trkpt lat="32.8803409" lon="10.5355296"><ele>269.0</ele><time>2026-04-26T14:05:22.589Z</time></trkpt><trkpt lat="32.8801916" lon="10.5354488"><ele>269.6666666666667</ele><time>2026-04-26T14:05:23.592Z</time></trkpt><trkpt lat="32.880037" lon="10.5353771"><ele>270.3333333333333</ele><time>2026-04-26T14:05:24.594Z</time></trkpt><trkpt lat="32.8798717" lon="10.5353305"><ele>271.0</ele><time>2026-04-26T14:05:25.58Z</time></trkpt><trkpt lat="32.8796941" lon="10.5352988"><ele>271.0</ele><time>2026-04-26T14:05:26.588Z</time></trkpt><trkpt lat="32.8795024" lon="10.5352756"><ele>271.0</ele><time>2026-04-26T14:05:27.587Z</time></trkpt><trkpt lat="32.8793008" lon="10.5352634"><ele>271.0</ele><time>2026-04-26T14:05:28.579Z</time></trkpt><trkpt lat="32.8790872" lon="10.5352632"><ele>271.3333333333333</ele><time>2026-04-26T14:05:29.589Z</time></trkpt><trkpt lat="32.8788729" lon="10.5352749"><ele>271.6666666666667</ele><time>2026-04-26T14:05:30.588Z</time></trkpt><trkpt lat="32.8786602" lon="10.5352822"><ele>272.0</ele><time>2026-04-26T14:05:31.586Z</time></trkpt><trkpt lat="32.878455" lon="10.5352905"><ele>272.6666666666667</ele><time>2026-04-26T14:05:32.587Z</time></trkpt><trkpt lat="32.878255" lon="10.5353024"><ele>273.3333333333333</ele><time>2026-04-26T14:05:33.586Z</time></trkpt><trkpt lat="32.8780539" lon="10.5353086"><ele>274.0</ele><time>2026-04-26T14:05:34.591Z</time></trkpt><trkpt lat="32.877858" lon="10.5353192"><ele>274.0</ele><time>2026-04-26T14:05:35.587Z</time></trkpt><trkpt lat="32.8776611" lon="10.5353324"><ele>274.0</ele><time>2026-04-26T14:05:36.587Z</time></trkpt><trkpt lat="32.877468" lon="10.5353523"><ele>274.0</ele><time>2026-04-26T14:05:37.59Z</time></trkpt><trkpt lat="32.8772792" lon="10.5353682"><ele>273.3333333333333</ele><time>2026-04-26T14:05:38.598Z</time></trkpt><trkpt lat="32.8770943" lon="10.5353873"><ele>272.6666666666667</ele><time>2026-04-26T14:05:39.582Z</time></trkpt><trkpt lat="32.8769108" lon="10.5354154"><ele>272.0</ele><time>2026-04-26T14:05:40.588Z</time></trkpt><trkpt lat="32.8767293" lon="10.5354443"><ele>271.6666666666667</ele><time>2026-04-26T14:05:41.593Z</time></trkpt><trkpt lat="32.8765498" lon="10.5354799"><ele>271.3333333333333</ele><time>2026-04-26T14:05:42.578Z</time></trkpt><trkpt lat="32.8763758" lon="10.535518"><ele>271.0</ele><time>2026-04-26T14:05:43.586Z</time></trkpt><trkpt lat="32.8762108" lon="10.5355568"><ele>271.0</ele><time>2026-04-26T14:05:44.584Z</time></trkpt><trkpt lat="32.8760539" lon="10.5355917"><ele>271.0</ele><time>2026-04-26T14:05:45.586Z</time></trkpt><trkpt lat="32.8759023" lon="10.5356202"><ele>271.0</ele><time>2026-04-26T14:05:46.589Z</time></trkpt><trkpt lat="32.8757547" lon="10.5356427"><ele>271.0</ele><time>2026-04-26T14:05:47.586Z</time></trkpt><trkpt lat="32.8756067" lon="10.5356432"><ele>271.0</ele><time>2026-04-26T14:05:48.596Z</time></trkpt><trkpt lat="32.8754575" lon="10.5356303"><ele>271.0</ele><time>2026-04-26T14:05:49.585Z</time></trkpt><trkpt lat="32.8753017" lon="10.535606"><ele>271.0</ele><time>2026-04-26T14:05:50.585Z</time></trkpt><trkpt lat="32.8751441" lon="10.535571"><ele>271.0</ele><time>2026-04-26T14:05:51.59Z</time></trkpt><trkpt lat="32.8749866" lon="10.5355375"><ele>271.0</ele><time>2026-04-26T14:05:52.588Z</time></trkpt><trkpt lat="32.8748302" lon="10.5354947"><ele>271.66666666666663</ele><time>2026-04-26T14:05:53.59Z</time></trkpt><trkpt lat="32.8746782" lon="10.5354477"><ele>272.3333333333333</ele><time>2026-04-26T14:05:54.595Z</time></trkpt><trkpt lat="32.8745314" lon="10.5354017"><ele>273.0</ele><time>2026-04-26T14:05:55.579Z</time></trkpt><trkpt lat="32.8743825" lon="10.5353514"><ele>272.6666666666667</ele><time>2026-04-26T14:05:56.583Z</time></trkpt><trkpt lat="32.8742335" lon="10.5353028"><ele>272.33333333333337</ele><time>2026-04-26T14:05:57.585Z</time></trkpt><trkpt lat="32.8740859" lon="10.5352506"><ele>272.0</ele><time>2026-04-26T14:05:58.589Z</time></trkpt><trkpt lat="32.8739356" lon="10.5351953"><ele>272.0</ele><time>2026-04-26T14:05:59.579Z</time></trkpt><trkpt lat="32.8737919" lon="10.5351346"><ele>272.0</ele><time>2026-04-26T14:06:00.59Z</time></trkpt><trkpt lat="32.8736439" lon="10.53507"><ele>272.0</ele><time>2026-04-26T14:06:01.583Z</time></trkpt><trkpt lat="32.873491" lon="10.5349988"><ele>271.6666666666667</ele><time>2026-04-26T14:06:02.592Z</time></trkpt><trkpt lat="32.8733341" lon="10.5349294"><ele>271.3333333333333</ele><time>2026-04-26T14:06:03.594Z</time></trkpt><trkpt lat="32.8731734" lon="10.5348528"><ele>271.0</ele><time>2026-04-26T14:06:04.594Z</time></trkpt><trkpt lat="32.8730064" lon="10.5347754"><ele>271.0</ele><time>2026-04-26T14:06:05.58Z</time></trkpt><trkpt lat="32.8728291" lon="10.5347036"><ele>271.0</ele><time>2026-04-26T14:06:06.591Z</time></trkpt><trkpt lat="32.8726509" lon="10.5346436"><ele>271.0</ele><time>2026-04-26T14:06:07.581Z</time></trkpt><trkpt lat="32.8724703" lon="10.5345921"><ele>271.66666666666663</ele><time>2026-04-26T14:06:08.591Z</time></trkpt><trkpt lat="32.8722896" lon="10.5345472"><ele>272.3333333333333</ele><time>2026-04-26T14:06:09.583Z</time></trkpt><trkpt lat="32.872104" lon="10.5345059"><ele>273.0</ele><time>2026-04-26T14:06:10.582Z</time></trkpt><trkpt lat="32.8719175" lon="10.5344645"><ele>273.6666666666667</ele><time>2026-04-26T14:06:11.588Z</time></trkpt><trkpt lat="32.8717343" lon="10.5344223"><ele>274.33333333333337</ele><time>2026-04-26T14:06:12.595Z</time></trkpt><trkpt lat="32.8715527" lon="10.5343776"><ele>275.0</ele><time>2026-04-26T14:06:13.585Z</time></trkpt><trkpt lat="32.8713596" lon="10.5343353"><ele>275.0</ele><time>2026-04-26T14:06:14.595Z</time></trkpt><trkpt lat="32.8711714" lon="10.5342894"><ele>275.0</ele><time>2026-04-26T14:06:15.593Z</time></trkpt><trkpt lat="32.8709851" lon="10.5342506"><ele>275.0</ele><time>2026-04-26T14:06:16.591Z</time></trkpt><trkpt lat="32.8707982" lon="10.5342138"><ele>275.33333333333337</ele><time>2026-04-26T14:06:17.573Z</time></trkpt><trkpt lat="32.8706104" lon="10.5341793"><ele>275.6666666666667</ele><time>2026-04-26T14:06:18.594Z</time></trkpt><trkpt lat="32.8704182" lon="10.5341454"><ele>276.0</ele><time>2026-04-26T14:06:19.586Z</time></trkpt><trkpt lat="32.8702254" lon="10.5341006"><ele>276.0</ele><time>2026-04-26T14:06:20.591Z</time></trkpt><trkpt lat="32.8700366" lon="10.5340529"><ele>276.0</ele><time>2026-04-26T14:06:21.597Z</time></trkpt><trkpt lat="32.8698488" lon="10.5340017"><ele>276.0</ele><time>2026-04-26T14:06:22.586Z</time></trkpt><trkpt lat="32.8696685" lon="10.5339571"><ele>276.0</ele><time>2026-04-26T14:06:23.584Z</time></trkpt><trkpt lat="32.8694821" lon="10.5339132"><ele>276.0</ele><time>2026-04-26T14:06:24.593Z</time></trkpt><trkpt lat="32.8692957" lon="10.5338732"><ele>276.0</ele><time>2026-04-26T14:06:25.583Z</time></trkpt><trkpt lat="32.8691098" lon="10.5338332"><ele>276.3333333333333</ele><time>2026-04-26T14:06:26.587Z</time></trkpt><trkpt lat="32.8689248" lon="10.5337927"><ele>276.66666666666663</ele><time>2026-04-26T14:06:27.582Z</time></trkpt><trkpt lat="32.8687405" lon="10.5337484"><ele>277.0</ele><time>2026-04-26T14:06:28.588Z</time></trkpt><trkpt lat="32.8685535" lon="10.5337085"><ele>277.66666666666663</ele><time>2026-04-26T14:06:29.584Z</time></trkpt><trkpt lat="32.8683653" lon="10.5336728"><ele>278.3333333333333</ele><time>2026-04-26T14:06:30.582Z</time></trkpt><trkpt lat="32.8681767" lon="10.5336365"><ele>279.0</ele><time>2026-04-26T14:06:31.589Z</time></trkpt><trkpt lat="32.8679912" lon="10.5335948"><ele>279.0</ele><time>2026-04-26T14:06:32.592Z</time></trkpt><trkpt lat="32.867805" lon="10.5335453"><ele>279.0</ele><time>2026-04-26T14:06:33.584Z</time></trkpt><trkpt lat="32.8676253" lon="10.5335003"><ele>279.0</ele><time>2026-04-26T14:06:34.588Z</time></trkpt><trkpt lat="32.8674551" lon="10.5334543"><ele>279.3333333333333</ele><time>2026-04-26T14:06:35.596Z</time></trkpt><trkpt lat="32.8672858" lon="10.5334111"><ele>279.66666666666663</ele><time>2026-04-26T14:06:36.592Z</time></trkpt><trkpt lat="32.8671227" lon="10.5333681"><ele>280.0</ele><time>2026-04-26T14:06:37.587Z</time></trkpt><trkpt lat="32.8669554" lon="10.5333168"><ele>280.0</ele><time>2026-04-26T14:06:38.586Z</time></trkpt><trkpt lat="32.8667984" lon="10.5332556"><ele>280.0</ele><time>2026-04-26T14:06:39.588Z</time></trkpt><trkpt lat="32.8666463" lon="10.5331883"><ele>280.0</ele><time>2026-04-26T14:06:40.591Z</time></trkpt><trkpt lat="32.8664906" lon="10.5331214"><ele>279.66666666666663</ele><time>2026-04-26T14:06:41.584Z</time></trkpt><trkpt lat="32.866338" lon="10.5330564"><ele>279.3333333333333</ele><time>2026-04-26T14:06:42.584Z</time></trkpt><trkpt lat="32.8661842" lon="10.5329852"><ele>279.0</ele><time>2026-04-26T14:06:43.587Z</time></trkpt><trkpt lat="32.8660354" lon="10.5329168"><ele>279.75</ele><time>2026-04-26T14:06:44.592Z</time></trkpt><trkpt lat="32.8658961" lon="10.532857"><ele>280.5</ele><time>2026-04-26T14:06:45.585Z</time></trkpt><trkpt lat="32.8657611" lon="10.5328034"><ele>281.25</ele><time>2026-04-26T14:06:46.592Z</time></trkpt><trkpt lat="32.8656363" lon="10.5327567"><ele>282.0</ele><time>2026-04-26T14:06:47.593Z</time></trkpt><trkpt lat="32.8655158" lon="10.5327345"><ele>282.0</ele><time>2026-04-26T14:06:48.578Z</time></trkpt><trkpt lat="32.8653925" lon="10.5327211"><ele>282.0</ele><time>2026-04-26T14:06:49.586Z</time></trkpt><trkpt lat="32.8652598" lon="10.5327129"><ele>282.0</ele><time>2026-04-26T14:06:50.593Z</time></trkpt><trkpt lat="32.8651167" lon="10.5327088"><ele>282.0</ele><time>2026-04-26T14:06:51.604Z</time></trkpt><trkpt lat="32.8649685" lon="10.5327225"><ele>281.3333333333333</ele><time>2026-04-26T14:06:52.587Z</time></trkpt><trkpt lat="32.8648016" lon="10.5327538"><ele>280.66666666666663</ele><time>2026-04-26T14:06:53.594Z</time></trkpt><trkpt lat="32.8646297" lon="10.5327887"><ele>280.0</ele><time>2026-04-26T14:06:54.581Z</time></trkpt><trkpt lat="32.8644489" lon="10.5328356"><ele>281.0</ele><time>2026-04-26T14:06:55.589Z</time></trkpt><trkpt lat="32.8642652" lon="10.5328884"><ele>282.0</ele><time>2026-04-26T14:06:56.586Z</time></trkpt><trkpt lat="32.8640783" lon="10.5329464"><ele>283.0</ele><time>2026-04-26T14:06:57.583Z</time></trkpt><trkpt lat="32.8639012" lon="10.5330013"><ele>283.0</ele><time>2026-04-26T14:06:58.592Z</time></trkpt><trkpt lat="32.863734" lon="10.5330541"><ele>283.0</ele><time>2026-04-26T14:06:59.591Z</time></trkpt><trkpt lat="32.8635647" lon="10.5331091"><ele>283.0</ele><time>2026-04-26T14:07:00.58Z</time></trkpt><trkpt lat="32.8634016" lon="10.5331705"><ele>284.0</ele><time>2026-04-26T14:07:01.601Z</time></trkpt><trkpt lat="32.863236" lon="10.5332358"><ele>285.0</ele><time>2026-04-26T14:07:02.584Z</time></trkpt><trkpt lat="32.8630654" lon="10.5333011"><ele>286.0</ele><time>2026-04-26T14:07:03.593Z</time></trkpt><trkpt lat="32.8628924" lon="10.5333545"><ele>286.0</ele><time>2026-04-26T14:07:04.591Z</time></trkpt><trkpt lat="32.8627175" lon="10.5334045"><ele>286.0</ele><time>2026-04-26T14:07:05.59Z</time></trkpt><trkpt lat="32.8625424" lon="10.5334569"><ele>286.0</ele><time>2026-04-26T14:07:06.585Z</time></trkpt><trkpt lat="32.8623698" lon="10.5335085"><ele>286.3333333333333</ele><time>2026-04-26T14:07:07.588Z</time></trkpt><trkpt lat="32.8621953" lon="10.5335395"><ele>286.6666666666667</ele><time>2026-04-26T14:07:08.585Z</time></trkpt><trkpt lat="32.8620172" lon="10.5335654"><ele>287.0</ele><time>2026-04-26T14:07:09.59Z</time></trkpt><trkpt lat="32.8618332" lon="10.5335823"><ele>287.0</ele><time>2026-04-26T14:07:10.591Z</time></trkpt><trkpt lat="32.8616526" lon="10.5335887"><ele>287.0</ele><time>2026-04-26T14:07:11.58Z</time></trkpt><trkpt lat="32.8614827" lon="10.5335818"><ele>287.0</ele><time>2026-04-26T14:07:12.596Z</time></trkpt><trkpt lat="32.8613086" lon="10.5335743"><ele>287.0</ele><time>2026-04-26T14:07:13.588Z</time></trkpt><trkpt lat="32.861133" lon="10.5335594"><ele>287.0</ele><time>2026-04-26T14:07:14.588Z</time></trkpt><trkpt lat="32.8609591" lon="10.5335435"><ele>287.0</ele><time>2026-04-26T14:07:15.582Z</time></trkpt><trkpt lat="32.860786" lon="10.5335325"><ele>287.33333333333337</ele><time>2026-04-26T14:07:16.592Z</time></trkpt><trkpt lat="32.8606146" lon="10.5335195"><ele>287.6666666666667</ele><time>2026-04-26T14:07:17.586Z</time></trkpt><trkpt lat="32.8604427" lon="10.533508"><ele>288.0</ele><time>2026-04-26T14:07:18.589Z</time></trkpt><trkpt lat="32.86027" lon="10.5334934"><ele>288.0</ele><time>2026-04-26T14:07:19.582Z</time></trkpt><trkpt lat="32.8600984" lon="10.5334795"><ele>288.0</ele><time>2026-04-26T14:07:20.582Z</time></trkpt><trkpt lat="32.8599236" lon="10.5334653"><ele>288.0</ele><time>2026-04-26T14:07:21.605Z</time></trkpt><trkpt lat="32.8597506" lon="10.5334531"><ele>288.0</ele><time>2026-04-26T14:07:22.588Z</time></trkpt><trkpt lat="32.859575" lon="10.533437"><ele>288.0</ele><time>2026-04-26T14:07:23.59Z</time></trkpt><trkpt lat="32.859396" lon="10.5334236"><ele>288.0</ele><time>2026-04-26T14:07:24.591Z</time></trkpt><trkpt lat="32.859215" lon="10.5334106"><ele>288.6666666666667</ele><time>2026-04-26T14:07:25.591Z</time></trkpt><trkpt lat="32.8590344" lon="10.5334005"><ele>289.33333333333337</ele><time>2026-04-26T14:07:26.586Z</time></trkpt><trkpt lat="32.8588564" lon="10.5333856"><ele>290.0</ele><time>2026-04-26T14:07:27.576Z</time></trkpt><trkpt lat="32.8586824" lon="10.5333716"><ele>290.0</ele><time>2026-04-26T14:07:28.577Z</time></trkpt><trkpt lat="32.8585067" lon="10.5333568"><ele>290.0</ele><time>2026-04-26T14:07:29.586Z</time></trkpt><trkpt lat="32.8583307" lon="10.5333435"><ele>290.0</ele><time>2026-04-26T14:07:30.588Z</time></trkpt><trkpt lat="32.8581497" lon="10.5333262"><ele>289.33333333333337</ele><time>2026-04-26T14:07:31.584Z</time></trkpt><trkpt lat="32.8579723" lon="10.5333097"><ele>288.6666666666667</ele><time>2026-04-26T14:07:32.596Z</time></trkpt><trkpt lat="32.8577909" lon="10.5332927"><ele>288.0</ele><time>2026-04-26T14:07:33.581Z</time></trkpt><trkpt lat="32.8576163" lon="10.5332811"><ele>287.3333333333333</ele><time>2026-04-26T14:07:34.598Z</time></trkpt><trkpt lat="32.8574306" lon="10.5332702"><ele>286.66666666666663</ele><time>2026-04-26T14:07:35.59Z</time></trkpt><trkpt lat="32.85725" lon="10.533256"><ele>286.0</ele><time>2026-04-26T14:07:36.584Z</time></trkpt><trkpt lat="32.8570676" lon="10.533243"><ele>286.0</ele><time>2026-04-26T14:07:37.602Z</time></trkpt><trkpt lat="32.8568838" lon="10.5332305"><ele>286.0</ele><time>2026-04-26T14:07:38.601Z</time></trkpt><trkpt lat="32.8567024" lon="10.533212"><ele>286.0</ele><time>2026-04-26T14:07:39.592Z</time></trkpt><trkpt lat="32.8565208" lon="10.5331983"><ele>287.0</ele><time>2026-04-26T14:07:40.601Z</time></trkpt><trkpt lat="32.8563344" lon="10.5331848"><ele>288.0</ele><time>2026-04-26T14:07:41.582Z</time></trkpt><trkpt lat="32.8561555" lon="10.5331831"><ele>289.0</ele><time>2026-04-26T14:07:42.588Z</time></trkpt><trkpt lat="32.8559736" lon="10.5331858"><ele>290.0</ele><time>2026-04-26T14:07:43.591Z</time></trkpt><trkpt lat="32.8557957" lon="10.533192"><ele>291.0</ele><time>2026-04-26T14:07:44.584Z</time></trkpt><trkpt lat="32.8556151" lon="10.5331952"><ele>292.0</ele><time>2026-04-26T14:07:45.577Z</time></trkpt><trkpt lat="32.8554353" lon="10.5332041"><ele>292.0</ele><time>2026-04-26T14:07:46.587Z</time></trkpt><trkpt lat="32.8552616" lon="10.5332145"><ele>292.0</ele><time>2026-04-26T14:07:47.586Z</time></trkpt><trkpt lat="32.8550891" lon="10.5332118"><ele>292.0</ele><time>2026-04-26T14:07:48.58Z</time></trkpt><trkpt lat="32.8549154" lon="10.5331906"><ele>293.0</ele><time>2026-04-26T14:07:49.587Z</time></trkpt><trkpt lat="32.8547419" lon="10.5331599"><ele>294.0</ele><time>2026-04-26T14:07:50.575Z</time></trkpt><trkpt lat="32.8545705" lon="10.5331148"><ele>295.0</ele><time>2026-04-26T14:07:51.587Z</time></trkpt><trkpt lat="32.8544001" lon="10.5330658"><ele>294.3333333333333</ele><time>2026-04-26T14:07:52.593Z</time></trkpt><trkpt lat="32.8542286" lon="10.5330243"><ele>293.6666666666667</ele><time>2026-04-26T14:07:53.59Z</time></trkpt><trkpt lat="32.8540495" lon="10.5329993"><ele>293.0</ele><time>2026-04-26T14:07:54.59Z</time></trkpt><trkpt lat="32.8538715" lon="10.5329867"><ele>293.0</ele><time>2026-04-26T14:07:55.588Z</time></trkpt><trkpt lat="32.8536902" lon="10.5329837"><ele>293.0</ele><time>2026-04-26T14:07:56.586Z</time></trkpt><trkpt lat="32.8535115" lon="10.5329998"><ele>293.0</ele><time>2026-04-26T14:07:57.586Z</time></trkpt><trkpt lat="32.8533258" lon="10.5330258"><ele>294.6666666666667</ele><time>2026-04-26T14:07:58.595Z</time></trkpt><trkpt lat="32.8531416" lon="10.5330637"><ele>296.3333333333333</ele><time>2026-04-26T14:07:59.59Z</time></trkpt><trkpt lat="32.8529593" lon="10.5331175"><ele>298.0</ele><time>2026-04-26T14:08:00.59Z</time></trkpt><trkpt lat="32.8527742" lon="10.5331828"><ele>299.0</ele><time>2026-04-26T14:08:01.587Z</time></trkpt><trkpt lat="32.8525913" lon="10.5332624"><ele>300.0</ele><time>2026-04-26T14:08:02.58Z</time></trkpt><trkpt lat="32.8524125" lon="10.5333606"><ele>301.0</ele><time>2026-04-26T14:08:03.588Z</time></trkpt><trkpt lat="32.8522293" lon="10.5334768"><ele>301.0</ele><time>2026-04-26T14:08:04.588Z</time></trkpt><trkpt lat="32.8520534" lon="10.5335995"><ele>301.0</ele><time>2026-04-26T14:08:05.587Z</time></trkpt><trkpt lat="32.8518836" lon="10.5337258"><ele>301.0</ele><time>2026-04-26T14:08:06.583Z</time></trkpt><trkpt lat="32.8517052" lon="10.5338515"><ele>301.66666666666663</ele><time>2026-04-26T14:08:07.592Z</time></trkpt><trkpt lat="32.8515275" lon="10.5339807"><ele>302.3333333333333</ele><time>2026-04-26T14:08:08.589Z</time></trkpt><trkpt lat="32.8513547" lon="10.5341163"><ele>303.0</ele><time>2026-04-26T14:08:09.583Z</time></trkpt><trkpt lat="32.8511822" lon="10.5342523"><ele>303.0</ele><time>2026-04-26T14:08:10.591Z</time></trkpt><trkpt lat="32.8510131" lon="10.5343902"><ele>303.0</ele><time>2026-04-26T14:08:11.584Z</time></trkpt><trkpt lat="32.8508482" lon="10.5345331"><ele>303.0</ele><time>2026-04-26T14:08:12.577Z</time></trkpt><trkpt lat="32.8506834" lon="10.5346698"><ele>304.0</ele><time>2026-04-26T14:08:13.584Z</time></trkpt><trkpt lat="32.8505156" lon="10.5348025"><ele>305.0</ele><time>2026-04-26T14:08:14.593Z</time></trkpt><trkpt lat="32.8503492" lon="10.5349339"><ele>306.0</ele><time>2026-04-26T14:08:15.591Z</time></trkpt><trkpt lat="32.8501897" lon="10.5350573"><ele>306.3333333333333</ele><time>2026-04-26T14:08:16.581Z</time></trkpt><trkpt lat="32.8500316" lon="10.535179"><ele>306.66666666666663</ele><time>2026-04-26T14:08:17.576Z</time></trkpt><trkpt lat="32.8498759" lon="10.5353008"><ele>307.0</ele><time>2026-04-26T14:08:18.584Z</time></trkpt><trkpt lat="32.849717" lon="10.5354194"><ele>307.66666666666663</ele><time>2026-04-26T14:08:19.578Z</time></trkpt><trkpt lat="32.849561" lon="10.5355327"><ele>308.3333333333333</ele><time>2026-04-26T14:08:20.588Z</time></trkpt><trkpt lat="32.8494047" lon="10.535644"><ele>309.0</ele><time>2026-04-26T14:08:21.579Z</time></trkpt><trkpt lat="32.8492418" lon="10.5357562"><ele>309.0</ele><time>2026-04-26T14:08:22.582Z</time></trkpt><trkpt lat="32.8490823" lon="10.5358675"><ele>309.0</ele><time>2026-04-26T14:08:23.589Z</time></trkpt><trkpt lat="32.8489224" lon="10.5359739"><ele>309.0</ele><time>2026-04-26T14:08:24.599Z</time></trkpt><trkpt lat="32.8487631" lon="10.5360786"><ele>309.0</ele><time>2026-04-26T14:08:25.583Z</time></trkpt><trkpt lat="32.8486037" lon="10.5361745"><ele>309.0</ele><time>2026-04-26T14:08:26.581Z</time></trkpt><trkpt lat="32.8484476" lon="10.5362773"><ele>309.0</ele><time>2026-04-26T14:08:27.587Z</time></trkpt><trkpt lat="32.8482926" lon="10.53639"><ele>310.0</ele><time>2026-04-26T14:08:28.594Z</time></trkpt><trkpt lat="32.8481326" lon="10.5365035"><ele>311.0</ele><time>2026-04-26T14:08:29.589Z</time></trkpt><trkpt lat="32.8479788" lon="10.5366146"><ele>312.0</ele><time>2026-04-26T14:08:30.589Z</time></trkpt><trkpt lat="32.8478238" lon="10.5367254"><ele>312.0</ele><time>2026-04-26T14:08:31.582Z</time></trkpt><trkpt lat="32.8476675" lon="10.5368392"><ele>312.0</ele><time>2026-04-26T14:08:32.589Z</time></trkpt><trkpt lat="32.8475062" lon="10.5369519"><ele>312.0</ele><time>2026-04-26T14:08:33.58Z</time></trkpt><trkpt lat="32.8473462" lon="10.5370617"><ele>313.3333333333333</ele><time>2026-04-26T14:08:34.585Z</time></trkpt><trkpt lat="32.8471973" lon="10.5371632"><ele>314.66666666666663</ele><time>2026-04-26T14:08:35.576Z</time></trkpt><trkpt lat="32.8470592" lon="10.5372651"><ele>316.0</ele><time>2026-04-26T14:08:36.576Z</time></trkpt><trkpt lat="32.8469193" lon="10.5373564"><ele>315.66666666666663</ele><time>2026-04-26T14:08:37.608Z</time></trkpt><trkpt lat="32.8467636" lon="10.5374144"><ele>315.3333333333333</ele><time>2026-04-26T14:08:38.584Z</time></trkpt><trkpt lat="32.8465945" lon="10.5374345"><ele>315.0</ele><time>2026-04-26T14:08:39.594Z</time></trkpt><trkpt lat="32.8464181" lon="10.5374148"><ele>315.0</ele><time>2026-04-26T14:08:40.587Z</time></trkpt><trkpt lat="32.8462316" lon="10.5373921"><ele>315.0</ele><time>2026-04-26T14:08:41.585Z</time></trkpt><trkpt lat="32.8460454" lon="10.5373605"><ele>315.0</ele><time>2026-04-26T14:08:42.591Z</time></trkpt><trkpt lat="32.8458508" lon="10.5373252"><ele>315.3333333333333</ele><time>2026-04-26T14:08:43.576Z</time></trkpt><trkpt lat="32.8456526" lon="10.5372925"><ele>315.66666666666663</ele><time>2026-04-26T14:08:44.581Z</time></trkpt><trkpt lat="32.8454559" lon="10.5372615"><ele>316.0</ele><time>2026-04-26T14:08:45.583Z</time></trkpt><trkpt lat="32.8452618" lon="10.5372281"><ele>317.3333333333333</ele><time>2026-04-26T14:08:46.583Z</time></trkpt><trkpt lat="32.8450622" lon="10.5371948"><ele>318.6666666666667</ele><time>2026-04-26T14:08:47.575Z</time></trkpt><trkpt lat="32.8448707" lon="10.5371587"><ele>320.0</ele><time>2026-04-26T14:08:48.582Z</time></trkpt><trkpt lat="32.8446865" lon="10.537118"><ele>320.0</ele><time>2026-04-26T14:08:49.571Z</time></trkpt><trkpt lat="32.8445049" lon="10.5370804"><ele>320.0</ele><time>2026-04-26T14:08:50.579Z</time></trkpt><trkpt lat="32.8443305" lon="10.5370542"><ele>320.0</ele><time>2026-04-26T14:08:51.585Z</time></trkpt><trkpt lat="32.8441649" lon="10.5370358"><ele>320.6666666666667</ele><time>2026-04-26T14:08:52.59Z</time></trkpt><trkpt lat="32.843999" lon="10.5370263"><ele>321.3333333333333</ele><time>2026-04-26T14:08:53.591Z</time></trkpt><trkpt lat="32.8438386" lon="10.5370402"><ele>322.0</ele><time>2026-04-26T14:08:54.585Z</time></trkpt><trkpt lat="32.8436831" lon="10.5370751"><ele>323.66666666666663</ele><time>2026-04-26T14:08:55.582Z</time></trkpt><trkpt lat="32.8435365" lon="10.537145"><ele>325.3333333333333</ele><time>2026-04-26T14:08:56.594Z</time></trkpt><trkpt lat="32.8434027" lon="10.5372455"><ele>327.0</ele><time>2026-04-26T14:08:57.583Z</time></trkpt><trkpt lat="32.8432683" lon="10.5373585"><ele>327.6666666666667</ele><time>2026-04-26T14:08:58.585Z</time></trkpt><trkpt lat="32.8431409" lon="10.5374898"><ele>328.33333333333337</ele><time>2026-04-26T14:08:59.588Z</time></trkpt><trkpt lat="32.8430251" lon="10.5376453"><ele>329.0</ele><time>2026-04-26T14:09:00.581Z</time></trkpt><trkpt lat="32.8429179" lon="10.5378077"><ele>329.33333333333337</ele><time>2026-04-26T14:09:01.583Z</time></trkpt><trkpt lat="32.8428105" lon="10.5379784"><ele>329.6666666666667</ele><time>2026-04-26T14:09:02.593Z</time></trkpt><trkpt lat="32.8427019" lon="10.5381488"><ele>330.0</ele><time>2026-04-26T14:09:03.585Z</time></trkpt><trkpt lat="32.8425866" lon="10.5383185"><ele>331.6666666666667</ele><time>2026-04-26T14:09:04.58Z</time></trkpt><trkpt lat="32.8424692" lon="10.5384918"><ele>333.33333333333337</ele><time>2026-04-26T14:09:05.584Z</time></trkpt><trkpt lat="32.8423572" lon="10.5386742"><ele>335.0</ele><time>2026-04-26T14:09:06.575Z</time></trkpt><trkpt lat="32.842243" lon="10.5388589"><ele>335.33333333333337</ele><time>2026-04-26T14:09:07.588Z</time></trkpt><trkpt lat="32.8421312" lon="10.5390502"><ele>335.6666666666667</ele><time>2026-04-26T14:09:08.585Z</time></trkpt><trkpt lat="32.842015" lon="10.5392385"><ele>336.0</ele><time>2026-04-26T14:09:09.589Z</time></trkpt><trkpt lat="32.8419002" lon="10.5394229"><ele>338.6666666666667</ele><time>2026-04-26T14:09:10.583Z</time></trkpt><trkpt lat="32.8417883" lon="10.5396024"><ele>341.33333333333337</ele><time>2026-04-26T14:09:11.576Z</time></trkpt><trkpt lat="32.8416725" lon="10.5397786"><ele>344.0</ele><time>2026-04-26T14:09:12.587Z</time></trkpt><trkpt lat="32.841556" lon="10.5399482"><ele>344.0</ele><time>2026-04-26T14:09:13.582Z</time></trkpt><trkpt lat="32.8414267" lon="10.5401027"><ele>344.0</ele><time>2026-04-26T14:09:14.591Z</time></trkpt><trkpt lat="32.8412914" lon="10.5402507"><ele>344.0</ele><time>2026-04-26T14:09:15.582Z</time></trkpt><trkpt lat="32.8411332" lon="10.5403835"><ele>343.0</ele><time>2026-04-26T14:09:16.578Z</time></trkpt><trkpt lat="32.8409726" lon="10.5405067"><ele>342.0</ele><time>2026-04-26T14:09:17.589Z</time></trkpt><trkpt lat="32.8408201" lon="10.5406311"><ele>341.0</ele><time>2026-04-26T14:09:18.586Z</time></trkpt><trkpt lat="32.8406653" lon="10.5407638"><ele>341.0</ele><time>2026-04-26T14:09:19.592Z</time></trkpt><trkpt lat="32.8405102" lon="10.5408901"><ele>341.0</ele><time>2026-04-26T14:09:20.578Z</time></trkpt><trkpt lat="32.8403588" lon="10.5410213"><ele>341.0</ele><time>2026-04-26T14:09:21.589Z</time></trkpt><trkpt lat="32.8402025" lon="10.5411549"><ele>338.6666666666667</ele><time>2026-04-26T14:09:22.59Z</time></trkpt><trkpt lat="32.8400466" lon="10.5412885"><ele>336.3333333333333</ele><time>2026-04-26T14:09:23.584Z</time></trkpt><trkpt lat="32.8398811" lon="10.5414149"><ele>334.0</ele><time>2026-04-26T14:09:24.593Z</time></trkpt><trkpt lat="32.8397121" lon="10.5415403"><ele>334.0</ele><time>2026-04-26T14:09:25.582Z</time></trkpt><trkpt lat="32.8395423" lon="10.5416574"><ele>334.0</ele><time>2026-04-26T14:09:26.593Z</time></trkpt><trkpt lat="32.8393631" lon="10.5417558"><ele>334.0</ele><time>2026-04-26T14:09:27.587Z</time></trkpt><trkpt lat="32.839174" lon="10.541842"><ele>333.0</ele><time>2026-04-26T14:09:28.589Z</time></trkpt><trkpt lat="32.8389834" lon="10.541931"><ele>332.0</ele><time>2026-04-26T14:09:29.593Z</time></trkpt><trkpt lat="32.8388004" lon="10.5420126"><ele>331.0</ele><time>2026-04-26T14:09:30.591Z</time></trkpt><trkpt lat="32.8386262" lon="10.5420911"><ele>330.3333333333333</ele><time>2026-04-26T14:09:31.591Z</time></trkpt><trkpt lat="32.8384608" lon="10.5421611"><ele>329.6666666666667</ele><time>2026-04-26T14:09:32.586Z</time></trkpt><trkpt lat="32.8383006" lon="10.5422261"><ele>329.0</ele><time>2026-04-26T14:09:33.585Z</time></trkpt><trkpt lat="32.838141" lon="10.5422868"><ele>329.0</ele><time>2026-04-26T14:09:34.584Z</time></trkpt><trkpt lat="32.8379705" lon="10.5423374"><ele>329.0</ele><time>2026-04-26T14:09:35.592Z</time></trkpt><trkpt lat="32.8377915" lon="10.5423873"><ele>329.0</ele><time>2026-04-26T14:09:36.594Z</time></trkpt><trkpt lat="32.8376118" lon="10.5424279"><ele>328.33333333333337</ele><time>2026-04-26T14:09:37.585Z</time></trkpt><trkpt lat="32.8374381" lon="10.5424589"><ele>327.6666666666667</ele><time>2026-04-26T14:09:38.586Z</time></trkpt><trkpt lat="32.8372694" lon="10.542496"><ele>327.0</ele><time>2026-04-26T14:09:39.598Z</time></trkpt><trkpt lat="32.8371009" lon="10.5425272"><ele>327.0</ele><time>2026-04-26T14:09:40.585Z</time></trkpt><trkpt lat="32.8369483" lon="10.5425597"><ele>327.0</ele><time>2026-04-26T14:09:41.586Z</time></trkpt><trkpt lat="32.8367975" lon="10.5425955"><ele>327.0</ele><time>2026-04-26T14:09:42.598Z</time></trkpt><trkpt lat="32.83665" lon="10.5426448"><ele>327.3333333333333</ele><time>2026-04-26T14:09:43.592Z</time></trkpt><trkpt lat="32.8365085" lon="10.5427368"><ele>327.66666666666663</ele><time>2026-04-26T14:09:44.592Z</time></trkpt><trkpt lat="32.8363696" lon="10.5428608"><ele>328.0</ele><time>2026-04-26T14:09:45.59Z</time></trkpt><trkpt lat="32.8362392" lon="10.5430127"><ele>329.3333333333333</ele><time>2026-04-26T14:09:46.586Z</time></trkpt><trkpt lat="32.8361094" lon="10.5431812"><ele>330.6666666666667</ele><time>2026-04-26T14:09:47.595Z</time></trkpt><trkpt lat="32.8359831" lon="10.5433521"><ele>332.0</ele><time>2026-04-26T14:09:48.591Z</time></trkpt><trkpt lat="32.8358375" lon="10.5434967"><ele>332.0</ele><time>2026-04-26T14:09:49.589Z</time></trkpt><trkpt lat="32.8356694" lon="10.5436328"><ele>332.0</ele><time>2026-04-26T14:09:50.591Z</time></trkpt><trkpt lat="32.8355034" lon="10.5437531"><ele>332.0</ele><time>2026-04-26T14:09:51.585Z</time></trkpt><trkpt lat="32.8353303" lon="10.543858"><ele>332.6666666666667</ele><time>2026-04-26T14:09:52.586Z</time></trkpt><trkpt lat="32.83515" lon="10.543949"><ele>333.3333333333333</ele><time>2026-04-26T14:09:53.592Z</time></trkpt><trkpt lat="32.8349644" lon="10.5440312"><ele>334.0</ele><time>2026-04-26T14:09:54.589Z</time></trkpt><trkpt lat="32.8347865" lon="10.5441049"><ele>334.0</ele><time>2026-04-26T14:09:55.582Z</time></trkpt><trkpt lat="32.8346067" lon="10.5441817"><ele>334.0</ele><time>2026-04-26T14:09:56.589Z</time></trkpt><trkpt lat="32.8344319" lon="10.5442607"><ele>334.0</ele><time>2026-04-26T14:09:57.592Z</time></trkpt><trkpt lat="32.8342602" lon="10.544343"><ele>335.0</ele><time>2026-04-26T14:09:58.58Z</time></trkpt><trkpt lat="32.8341" lon="10.5444384"><ele>336.0</ele><time>2026-04-26T14:09:59.58Z</time></trkpt><trkpt lat="32.8339377" lon="10.5445447"><ele>337.0</ele><time>2026-04-26T14:10:00.58Z</time></trkpt><trkpt lat="32.8337862" lon="10.5446744"><ele>337.3333333333333</ele><time>2026-04-26T14:10:01.587Z</time></trkpt><trkpt lat="32.833646" lon="10.5448055"><ele>337.6666666666667</ele><time>2026-04-26T14:10:02.594Z</time></trkpt><trkpt lat="32.8335087" lon="10.544942"><ele>338.0</ele><time>2026-04-26T14:10:03.596Z</time></trkpt><trkpt lat="32.8333752" lon="10.5450807"><ele>338.6666666666667</ele><time>2026-04-26T14:10:04.583Z</time></trkpt><trkpt lat="32.8332383" lon="10.545222"><ele>339.3333333333333</ele><time>2026-04-26T14:10:05.589Z</time></trkpt><trkpt lat="32.8331026" lon="10.5453664"><ele>340.0</ele><time>2026-04-26T14:10:06.597Z</time></trkpt><trkpt lat="32.832971" lon="10.5455305"><ele>340.3333333333333</ele><time>2026-04-26T14:10:07.587Z</time></trkpt><trkpt lat="32.8328536" lon="10.545699"><ele>340.6666666666667</ele><time>2026-04-26T14:10:08.585Z</time></trkpt><trkpt lat="32.8327512" lon="10.5458822"><ele>341.0</ele><time>2026-04-26T14:10:09.587Z</time></trkpt><trkpt lat="32.8326603" lon="10.546072"><ele>342.6666666666667</ele><time>2026-04-26T14:10:10.59Z</time></trkpt><trkpt lat="32.8325748" lon="10.5462686"><ele>344.3333333333333</ele><time>2026-04-26T14:10:11.598Z</time></trkpt><trkpt lat="32.8324971" lon="10.5464692"><ele>346.0</ele><time>2026-04-26T14:10:12.587Z</time></trkpt><trkpt lat="32.8324244" lon="10.5466686"><ele>346.0</ele><time>2026-04-26T14:10:13.588Z</time></trkpt><trkpt lat="32.8323492" lon="10.5468666"><ele>346.0</ele><time>2026-04-26T14:10:14.589Z</time></trkpt><trkpt lat="32.8322743" lon="10.5470659"><ele>346.0</ele><time>2026-04-26T14:10:15.588Z</time></trkpt><trkpt lat="32.8321989" lon="10.5472688"><ele>347.0</ele><time>2026-04-26T14:10:16.595Z</time></trkpt><trkpt lat="32.8321222" lon="10.54747"><ele>348.0</ele><time>2026-04-26T14:10:17.596Z</time></trkpt><trkpt lat="32.8320443" lon="10.5476702"><ele>349.0</ele><time>2026-04-26T14:10:18.596Z</time></trkpt><trkpt lat="32.8319703" lon="10.5478585"><ele>348.66666666666663</ele><time>2026-04-26T14:10:19.586Z</time></trkpt><trkpt lat="32.8318902" lon="10.5480429"><ele>348.3333333333333</ele><time>2026-04-26T14:10:20.591Z</time></trkpt><trkpt lat="32.8317972" lon="10.5482247"><ele>348.0</ele><time>2026-04-26T14:10:21.592Z</time></trkpt><trkpt lat="32.8316923" lon="10.5484005"><ele>349.3333333333333</ele><time>2026-04-26T14:10:22.584Z</time></trkpt><trkpt lat="32.8315797" lon="10.548564"><ele>350.66666666666663</ele><time>2026-04-26T14:10:23.599Z</time></trkpt><trkpt lat="32.831467" lon="10.5487262"><ele>352.0</ele><time>2026-04-26T14:10:24.582Z</time></trkpt><trkpt lat="32.8313437" lon="10.5488921"><ele>352.0</ele><time>2026-04-26T14:10:25.593Z</time></trkpt><trkpt lat="32.8312287" lon="10.5490639"><ele>352.0</ele><time>2026-04-26T14:10:26.59Z</time></trkpt><trkpt lat="32.8311162" lon="10.5492397"><ele>352.0</ele><time>2026-04-26T14:10:27.578Z</time></trkpt><trkpt lat="32.8310006" lon="10.5494166"><ele>353.66666666666663</ele><time>2026-04-26T14:10:28.585Z</time></trkpt><trkpt lat="32.8308926" lon="10.5496042"><ele>355.3333333333333</ele><time>2026-04-26T14:10:29.581Z</time></trkpt><trkpt lat="32.8307929" lon="10.5497934"><ele>357.0</ele><time>2026-04-26T14:10:30.591Z</time></trkpt><trkpt lat="32.8306947" lon="10.5499901"><ele>357.0</ele><time>2026-04-26T14:10:31.585Z</time></trkpt><trkpt lat="32.8305931" lon="10.550185"><ele>357.0</ele><time>2026-04-26T14:10:32.585Z</time></trkpt><trkpt lat="32.8304961" lon="10.5503775"><ele>357.0</ele><time>2026-04-26T14:10:33.589Z</time></trkpt><trkpt lat="32.8303959" lon="10.5505748"><ele>358.0</ele><time>2026-04-26T14:10:34.593Z</time></trkpt><trkpt lat="32.8303016" lon="10.5507676"><ele>359.0</ele><time>2026-04-26T14:10:35.585Z</time></trkpt><trkpt lat="32.8302056" lon="10.5509661"><ele>360.0</ele><time>2026-04-26T14:10:36.591Z</time></trkpt><trkpt lat="32.8301229" lon="10.5511646"><ele>362.0</ele><time>2026-04-26T14:10:37.59Z</time></trkpt><trkpt lat="32.8300434" lon="10.5513657"><ele>364.0</ele><time>2026-04-26T14:10:38.586Z</time></trkpt><trkpt lat="32.8299679" lon="10.5515659"><ele>366.0</ele><time>2026-04-26T14:10:39.593Z</time></trkpt><trkpt lat="32.8298951" lon="10.5517657"><ele>366.0</ele><time>2026-04-26T14:10:40.581Z</time></trkpt><trkpt lat="32.8298314" lon="10.5519749"><ele>366.0</ele><time>2026-04-26T14:10:41.582Z</time></trkpt><trkpt lat="32.8297661" lon="10.5521855"><ele>366.0</ele><time>2026-04-26T14:10:42.584Z</time></trkpt><trkpt lat="32.8297036" lon="10.5523944"><ele>367.0</ele><time>2026-04-26T14:10:43.601Z</time></trkpt><trkpt lat="32.8296467" lon="10.5525961"><ele>368.0</ele><time>2026-04-26T14:10:44.581Z</time></trkpt><trkpt lat="32.8295817" lon="10.5527945"><ele>369.0</ele><time>2026-04-26T14:10:45.59Z</time></trkpt><trkpt lat="32.8295027" lon="10.5529846"><ele>369.3333333333333</ele><time>2026-04-26T14:10:46.592Z</time></trkpt><trkpt lat="32.8294141" lon="10.5531686"><ele>369.66666666666663</ele><time>2026-04-26T14:10:47.583Z</time></trkpt><trkpt lat="32.8293151" lon="10.5533411"><ele>370.0</ele><time>2026-04-26T14:10:48.591Z</time></trkpt><trkpt lat="32.8292008" lon="10.5534977"><ele>371.3333333333333</ele><time>2026-04-26T14:10:49.584Z</time></trkpt><trkpt lat="32.8290733" lon="10.553645"><ele>372.6666666666667</ele><time>2026-04-26T14:10:50.589Z</time></trkpt><trkpt lat="32.8289205" lon="10.5537773"><ele>374.0</ele><time>2026-04-26T14:10:51.579Z</time></trkpt><trkpt lat="32.8287667" lon="10.5539021"><ele>374.0</ele><time>2026-04-26T14:10:52.585Z</time></trkpt><trkpt lat="32.8286092" lon="10.5540271"><ele>374.0</ele><time>2026-04-26T14:10:53.59Z</time></trkpt><trkpt lat="32.8284459" lon="10.5541533"><ele>374.0</ele><time>2026-04-26T14:10:54.59Z</time></trkpt><trkpt lat="32.8282912" lon="10.5542808"><ele>373.33333333333337</ele><time>2026-04-26T14:10:55.585Z</time></trkpt><trkpt lat="32.8281328" lon="10.5544216"><ele>372.6666666666667</ele><time>2026-04-26T14:10:56.588Z</time></trkpt><trkpt lat="32.82798" lon="10.5545739"><ele>372.0</ele><time>2026-04-26T14:10:57.581Z</time></trkpt><trkpt lat="32.827838" lon="10.554742"><ele>371.6666666666667</ele><time>2026-04-26T14:10:58.586Z</time></trkpt><trkpt lat="32.8277102" lon="10.5549166"><ele>371.33333333333337</ele><time>2026-04-26T14:10:59.593Z</time></trkpt><trkpt lat="32.8275871" lon="10.5551022"><ele>371.0</ele><time>2026-04-26T14:11:00.589Z</time></trkpt><trkpt lat="32.8274751" lon="10.5552994"><ele>370.6666666666667</ele><time>2026-04-26T14:11:01.584Z</time></trkpt><trkpt lat="32.8273826" lon="10.5555135"><ele>370.3333333333333</ele><time>2026-04-26T14:11:02.586Z</time></trkpt><trkpt lat="32.8272932" lon="10.5557251"><ele>370.0</ele><time>2026-04-26T14:11:03.583Z</time></trkpt><trkpt lat="32.8272235" lon="10.5559446"><ele>370.0</ele><time>2026-04-26T14:11:04.595Z</time></trkpt><trkpt lat="32.8271655" lon="10.5561726"><ele>370.0</ele><time>2026-04-26T14:11:05.587Z</time></trkpt><trkpt lat="32.8271142" lon="10.556401"><ele>370.0</ele><time>2026-04-26T14:11:06.59Z</time></trkpt><trkpt lat="32.827067" lon="10.5566315"><ele>369.66666666666663</ele><time>2026-04-26T14:11:07.582Z</time></trkpt><trkpt lat="32.8270182" lon="10.5568578"><ele>369.3333333333333</ele><time>2026-04-26T14:11:08.587Z</time></trkpt><trkpt lat="32.8269693" lon="10.5570792"><ele>369.0</ele><time>2026-04-26T14:11:09.578Z</time></trkpt><trkpt lat="32.8269199" lon="10.5573021"><ele>370.0</ele><time>2026-04-26T14:11:10.577Z</time></trkpt><trkpt lat="32.8268659" lon="10.5575124"><ele>371.0</ele><time>2026-04-26T14:11:11.577Z</time></trkpt><trkpt lat="32.8268023" lon="10.5577239"><ele>372.0</ele><time>2026-04-26T14:11:12.586Z</time></trkpt><trkpt lat="32.8267191" lon="10.5579262"><ele>372.6666666666667</ele><time>2026-04-26T14:11:13.584Z</time></trkpt><trkpt lat="32.8266137" lon="10.5581158"><ele>373.33333333333337</ele><time>2026-04-26T14:11:14.582Z</time></trkpt><trkpt lat="32.8265029" lon="10.5582951"><ele>374.0</ele><time>2026-04-26T14:11:15.583Z</time></trkpt><trkpt lat="32.826399" lon="10.5584736"><ele>374.0</ele><time>2026-04-26T14:11:16.584Z</time></trkpt><trkpt lat="32.8262915" lon="10.5586507"><ele>374.0</ele><time>2026-04-26T14:11:17.593Z</time></trkpt><trkpt lat="32.8261836" lon="10.5588308"><ele>374.0</ele><time>2026-04-26T14:11:18.584Z</time></trkpt><trkpt lat="32.8260802" lon="10.5590018"><ele>372.6666666666667</ele><time>2026-04-26T14:11:19.587Z</time></trkpt><trkpt lat="32.8259781" lon="10.5591698"><ele>371.3333333333333</ele><time>2026-04-26T14:11:20.585Z</time></trkpt><trkpt lat="32.8258881" lon="10.5593306"><ele>370.0</ele><time>2026-04-26T14:11:21.582Z</time></trkpt><trkpt lat="32.8258108" lon="10.5594924"><ele>369.3333333333333</ele><time>2026-04-26T14:11:22.587Z</time></trkpt><trkpt lat="32.8257436" lon="10.5596546"><ele>368.6666666666667</ele><time>2026-04-26T14:11:23.589Z</time></trkpt><trkpt lat="32.8256792" lon="10.5598174"><ele>368.0</ele><time>2026-04-26T14:11:24.59Z</time></trkpt><trkpt lat="32.8256181" lon="10.5599787"><ele>368.0</ele><time>2026-04-26T14:11:25.641Z</time></trkpt><trkpt lat="32.8255553" lon="10.5601414"><ele>368.0</ele><time>2026-04-26T14:11:26.586Z</time></trkpt><trkpt lat="32.8254957" lon="10.5602992"><ele>368.0</ele><time>2026-04-26T14:11:27.59Z</time></trkpt><trkpt lat="32.8254216" lon="10.5604471"><ele>368.0</ele><time>2026-04-26T14:11:28.578Z</time></trkpt><trkpt lat="32.8253225" lon="10.560587"><ele>367.6666666666667</ele><time>2026-04-26T14:11:29.587Z</time></trkpt><trkpt lat="32.8252074" lon="10.5607228"><ele>367.3333333333333</ele><time>2026-04-26T14:11:30.587Z</time></trkpt><trkpt lat="32.8250785" lon="10.5608567"><ele>367.0</ele><time>2026-04-26T14:11:31.585Z</time></trkpt><trkpt lat="32.8249409" lon="10.5609887"><ele>365.3333333333333</ele><time>2026-04-26T14:11:32.58Z</time></trkpt><trkpt lat="32.824803" lon="10.5611185"><ele>363.6666666666667</ele><time>2026-04-26T14:11:33.578Z</time></trkpt><trkpt lat="32.8246578" lon="10.5612509"><ele>362.0</ele><time>2026-04-26T14:11:34.591Z</time></trkpt><trkpt lat="32.8245074" lon="10.5613961"><ele>362.0</ele><time>2026-04-26T14:11:35.589Z</time></trkpt><trkpt lat="32.8243531" lon="10.561542"><ele>362.0</ele><time>2026-04-26T14:11:36.593Z</time></trkpt><trkpt lat="32.8241942" lon="10.5616856"><ele>362.0</ele><time>2026-04-26T14:11:37.59Z</time></trkpt><trkpt lat="32.8240305" lon="10.5618233"><ele>361.0</ele><time>2026-04-26T14:11:38.584Z</time></trkpt><trkpt lat="32.8238581" lon="10.5619637"><ele>360.0</ele><time>2026-04-26T14:11:39.584Z</time></trkpt><trkpt lat="32.8236822" lon="10.5621007"><ele>359.0</ele><time>2026-04-26T14:11:40.588Z</time></trkpt><trkpt lat="32.8235039" lon="10.5622458"><ele>359.0</ele><time>2026-04-26T14:11:41.589Z</time></trkpt><trkpt lat="32.8233267" lon="10.5623907"><ele>359.0</ele><time>2026-04-26T14:11:42.58Z</time></trkpt><trkpt lat="32.8231556" lon="10.5625307"><ele>359.0</ele><time>2026-04-26T14:11:43.588Z</time></trkpt><trkpt lat="32.8229804" lon="10.5626744"><ele>359.0</ele><time>2026-04-26T14:11:44.583Z</time></trkpt><trkpt lat="32.8228117" lon="10.5628128"><ele>359.0</ele><time>2026-04-26T14:11:45.583Z</time></trkpt><trkpt lat="32.8226446" lon="10.5629518"><ele>359.0</ele><time>2026-04-26T14:11:46.582Z</time></trkpt><trkpt lat="32.8224781" lon="10.5630881"><ele>360.6666666666667</ele><time>2026-04-26T14:11:47.587Z</time></trkpt><trkpt lat="32.8223152" lon="10.5632202"><ele>362.3333333333333</ele><time>2026-04-26T14:11:48.592Z</time></trkpt><trkpt lat="32.822155" lon="10.5633528"><ele>364.0</ele><time>2026-04-26T14:11:49.59Z</time></trkpt><trkpt lat="32.8219994" lon="10.5634841"><ele>364.0</ele><time>2026-04-26T14:11:50.587Z</time></trkpt><trkpt lat="32.8218511" lon="10.5636158"><ele>364.0</ele><time>2026-04-26T14:11:51.582Z</time></trkpt><trkpt lat="32.8217166" lon="10.5637376"><ele>364.0</ele><time>2026-04-26T14:11:52.589Z</time></trkpt><trkpt lat="32.8216015" lon="10.5638506"><ele>365.75</ele><time>2026-04-26T14:11:53.584Z</time></trkpt><trkpt lat="32.8214994" lon="10.5639489"><ele>367.5</ele><time>2026-04-26T14:11:54.59Z</time></trkpt><trkpt lat="32.8214063" lon="10.5640293"><ele>369.25</ele><time>2026-04-26T14:11:55.584Z</time></trkpt><trkpt lat="32.8213075" lon="10.5641091"><ele>371.0</ele><time>2026-04-26T14:11:56.586Z</time></trkpt><trkpt lat="32.8212058" lon="10.564181"><ele>371.0</ele><time>2026-04-26T14:11:57.588Z</time></trkpt><trkpt lat="32.8210999" lon="10.5642469"><ele>371.0</ele><time>2026-04-26T14:11:58.587Z</time></trkpt><trkpt lat="32.820994" lon="10.5643058"><ele>371.0</ele><time>2026-04-26T14:11:59.58Z</time></trkpt><trkpt lat="32.8208817" lon="10.5643567"><ele>371.0</ele><time>2026-04-26T14:12:00.591Z</time></trkpt><trkpt lat="32.8207728" lon="10.5644052"><ele>372.20000000000005</ele><time>2026-04-26T14:12:01.581Z</time></trkpt><trkpt lat="32.8206718" lon="10.5644545"><ele>373.40000000000003</ele><time>2026-04-26T14:12:02.583Z</time></trkpt><trkpt lat="32.8205724" lon="10.5644966"><ele>374.6</ele><time>2026-04-26T14:12:03.583Z</time></trkpt><trkpt lat="32.820471" lon="10.5645379"><ele>375.8</ele><time>2026-04-26T14:12:04.584Z</time></trkpt><trkpt lat="32.8203689" lon="10.5645772"><ele>377.0</ele><time>2026-04-26T14:12:05.595Z</time></trkpt><trkpt lat="32.8202672" lon="10.564619"><ele>377.6</ele><time>2026-04-26T14:12:06.58Z</time></trkpt><trkpt lat="32.8201657" lon="10.5646637"><ele>378.20000000000005</ele><time>2026-04-26T14:12:07.584Z</time></trkpt><trkpt lat="32.8200619" lon="10.564711"><ele>378.8</ele><time>2026-04-26T14:12:08.597Z</time></trkpt><trkpt lat="32.819961" lon="10.5647606"><ele>379.4</ele><time>2026-04-26T14:12:09.589Z</time></trkpt><trkpt lat="32.8198602" lon="10.5648107"><ele>380.0</ele><time>2026-04-26T14:12:10.589Z</time></trkpt><trkpt lat="32.8197606" lon="10.5648625"><ele>381.2</ele><time>2026-04-26T14:12:11.592Z</time></trkpt><trkpt lat="32.8196592" lon="10.5649164"><ele>382.4</ele><time>2026-04-26T14:12:12.596Z</time></trkpt><trkpt lat="32.8195561" lon="10.5649652"><ele>383.6</ele><time>2026-04-26T14:12:13.588Z</time></trkpt><trkpt lat="32.8194554" lon="10.56502"><ele>384.8</ele><time>2026-04-26T14:12:14.591Z</time></trkpt><trkpt lat="32.8193567" lon="10.5650748"><ele>386.0</ele><time>2026-04-26T14:12:15.585Z</time></trkpt><trkpt lat="32.8192566" lon="10.5651313"><ele>386.8</ele><time>2026-04-26T14:12:16.585Z</time></trkpt><trkpt lat="32.8191568" lon="10.5651871"><ele>387.6</ele><time>2026-04-26T14:12:17.579Z</time></trkpt><trkpt lat="32.8190599" lon="10.5652427"><ele>388.4</ele><time>2026-04-26T14:12:18.594Z</time></trkpt><trkpt lat="32.8189658" lon="10.5652986"><ele>389.2</ele><time>2026-04-26T14:12:19.59Z</time></trkpt><trkpt lat="32.8188705" lon="10.56535"><ele>390.0</ele><time>2026-04-26T14:12:20.583Z</time></trkpt><trkpt lat="32.8187747" lon="10.5653999"><ele>390.0</ele><time>2026-04-26T14:12:21.594Z</time></trkpt><trkpt lat="32.8186847" lon="10.5654543"><ele>390.0</ele><time>2026-04-26T14:12:22.587Z</time></trkpt><trkpt lat="32.8185942" lon="10.5655138"><ele>390.0</ele><time>2026-04-26T14:12:23.588Z</time></trkpt><trkpt lat="32.8185001" lon="10.5655682"><ele>390.0</ele><time>2026-04-26T14:12:24.598Z</time></trkpt><trkpt lat="32.8184079" lon="10.5656172"><ele>390.0</ele><time>2026-04-26T14:12:25.595Z</time></trkpt><trkpt lat="32.8183216" lon="10.5656597"><ele>391.0</ele><time>2026-04-26T14:12:26.583Z</time></trkpt><trkpt lat="32.8182364" lon="10.5657035"><ele>392.0</ele><time>2026-04-26T14:12:27.582Z</time></trkpt><trkpt lat="32.8181555" lon="10.5657382"><ele>393.0</ele><time>2026-04-26T14:12:28.589Z</time></trkpt><trkpt lat="32.8180724" lon="10.565758"><ele>394.0</ele><time>2026-04-26T14:12:29.579Z</time></trkpt><trkpt lat="32.8179842" lon="10.5657693"><ele>395.0</ele><time>2026-04-26T14:12:30.588Z</time></trkpt><trkpt lat="32.8179023" lon="10.5657704"><ele>396.0</ele><time>2026-04-26T14:12:31.596Z</time></trkpt><trkpt lat="32.8178356" lon="10.565773"><ele>396.0</ele><time>2026-04-26T14:12:32.578Z</time></trkpt><trkpt lat="32.8177669" lon="10.565772"><ele>396.0</ele><time>2026-04-26T14:12:33.579Z</time></trkpt><trkpt lat="32.8176974" lon="10.5657741"><ele>396.0</ele><time>2026-04-26T14:12:34.596Z</time></trkpt><trkpt lat="32.8176278" lon="10.5657842"><ele>396.0</ele><time>2026-04-26T14:12:35.593Z</time></trkpt><trkpt lat="32.8175208" lon="10.5658406"><ele>396.0</ele><time>2026-04-26T14:12:37.586Z</time></trkpt><trkpt lat="32.8174478" lon="10.5659203"><ele>396.0</ele><time>2026-04-26T14:12:39.591Z</time></trkpt><trkpt lat="32.8173919" lon="10.5660177"><ele>397.3333333333333</ele><time>2026-04-26T14:12:41.579Z</time></trkpt><trkpt lat="32.8173425" lon="10.5661091"><ele>398.66666666666663</ele><time>2026-04-26T14:12:43.591Z</time></trkpt><trkpt lat="32.8173138" lon="10.566176"><ele>400.0</ele><time>2026-04-26T14:12:45.58Z</time></trkpt><trkpt lat="32.8172765" lon="10.5662672"><ele>401.3333333333333</ele><time>2026-04-26T14:12:48.6Z</time></trkpt><trkpt lat="32.817224" lon="10.5663497"><ele>402.66666666666663</ele><time>2026-04-26T14:12:51.602Z</time></trkpt><trkpt lat="32.817147" lon="10.5664189"><ele>404.0</ele><time>2026-04-26T14:12:54.59Z</time></trkpt><trkpt lat="32.8170539" lon="10.5664626"><ele>404.0</ele><time>2026-04-26T14:12:56.597Z</time></trkpt><trkpt lat="32.8169855" lon="10.566479"><ele>404.0</ele><time>2026-04-26T14:13:00.591Z</time></trkpt><trkpt lat="32.816921" lon="10.5664775"><ele>404.0</ele><time>2026-04-26T14:13:03.587Z</time></trkpt><trkpt lat="32.8168483" lon="10.5664564"><ele>404.0</ele><time>2026-04-26T14:13:06.593Z</time></trkpt><trkpt lat="32.8167874" lon="10.5664134"><ele>404.0</ele><time>2026-04-26T14:13:09.587Z</time></trkpt><trkpt lat="32.8167195" lon="10.5663666"><ele>404.0</ele><time>2026-04-26T14:13:12.621Z</time></trkpt><trkpt lat="32.8166546" lon="10.5663284"><ele>404.0</ele><time>2026-04-26T14:13:15.592Z</time></trkpt><trkpt lat="32.816592" lon="10.5662975"><ele>404.42857142857144</ele><time>2026-04-26T14:13:19.589Z</time></trkpt><trkpt lat="32.8165297" lon="10.5663449"><ele>404.85714285714283</ele><time>2026-04-26T14:13:23.584Z</time></trkpt><trkpt lat="32.816474" lon="10.5663905"><ele>405.28571428571433</ele><time>2026-04-26T14:13:25.591Z</time></trkpt><trkpt lat="32.8164196" lon="10.5664384"><ele>405.7142857142857</ele><time>2026-04-26T14:13:27.582Z</time></trkpt><trkpt lat="32.8163639" lon="10.5664902"><ele>406.14285714285717</ele><time>2026-04-26T14:13:30.592Z</time></trkpt><trkpt lat="32.8163266" lon="10.5665515"><ele>406.5714285714286</ele><time>2026-04-26T14:13:33.592Z</time></trkpt><trkpt lat="32.8162614" lon="10.5665958"><ele>407.0</ele><time>2026-04-26T14:13:36.596Z</time></trkpt><trkpt lat="32.8161971" lon="10.5665989"><ele>406.99999999999994</ele><time>2026-04-26T14:13:38.588Z</time></trkpt><trkpt lat="32.816118" lon="10.56657"><ele>407.0</ele><time>2026-04-26T14:13:40.59Z</time></trkpt><trkpt lat="32.8160302" lon="10.5665367"><ele>407.0</ele><time>2026-04-26T14:13:42.588Z</time></trkpt><trkpt lat="32.8159579" lon="10.5665205"><ele>407.0</ele><time>2026-04-26T14:13:44.603Z</time></trkpt><trkpt lat="32.8158925" lon="10.5665153"><ele>406.99999999999994</ele><time>2026-04-26T14:13:48.586Z</time></trkpt><trkpt lat="32.8158287" lon="10.5665217"><ele>407.0</ele><time>2026-04-26T14:13:59.627Z</time></trkpt><trkpt lat="32.8157246" lon="10.56652"><ele>405.3333333333333</ele><time>2026-04-26T14:14:01.626Z</time></trkpt><trkpt lat="32.8156121" lon="10.5665132"><ele>403.66666666666663</ele><time>2026-04-26T14:14:03.629Z</time></trkpt><trkpt lat="32.8154961" lon="10.5665228"><ele>402.0</ele><time>2026-04-26T14:14:05.597Z</time></trkpt><trkpt lat="32.8154309" lon="10.5665383"><ele>400.33333333333337</ele><time>2026-04-26T14:14:06.583Z</time></trkpt><trkpt lat="32.8153646" lon="10.5665561"><ele>398.6666666666667</ele><time>2026-04-26T14:14:07.617Z</time></trkpt><trkpt lat="32.8152998" lon="10.5665722"><ele>397.0</ele><time>2026-04-26T14:14:08.609Z</time></trkpt><trkpt lat="32.8152275" lon="10.5665947"><ele>396.00000000000006</ele><time>2026-04-26T14:14:09.632Z</time></trkpt><trkpt lat="32.815151" lon="10.5666219"><ele>395.0</ele><time>2026-04-26T14:14:10.63Z</time></trkpt><trkpt lat="32.8150785" lon="10.5666509"><ele>394.0</ele><time>2026-04-26T14:14:11.61Z</time></trkpt><trkpt lat="32.8150103" lon="10.5666781"><ele>393.0</ele><time>2026-04-26T14:14:12.633Z</time></trkpt><trkpt lat="32.81494" lon="10.5667071"><ele>392.00000000000006</ele><time>2026-04-26T14:14:13.631Z</time></trkpt><trkpt lat="32.8148796" lon="10.5667297"><ele>391.0</ele><time>2026-04-26T14:14:14.645Z</time></trkpt><trkpt lat="32.8147635" lon="10.5667694"><ele>391.0</ele><time>2026-04-26T14:14:16.635Z</time></trkpt><trkpt lat="32.8146597" lon="10.5668004"><ele>391.0</ele><time>2026-04-26T14:14:18.619Z</time></trkpt><trkpt lat="32.8145473" lon="10.5668159"><ele>391.0</ele><time>2026-04-26T14:14:20.645Z</time></trkpt><trkpt lat="32.8144188" lon="10.5668084"><ele>391.0</ele><time>2026-04-26T14:14:22.639Z</time></trkpt><trkpt lat="32.8143552" lon="10.566796"><ele>391.0</ele><time>2026-04-26T14:14:23.648Z</time></trkpt><trkpt lat="32.8142867" lon="10.5667869"><ele>390.2857142857143</ele><time>2026-04-26T14:14:24.63Z</time></trkpt><trkpt lat="32.8142177" lon="10.5667798"><ele>389.57142857142856</ele><time>2026-04-26T14:14:25.619Z</time></trkpt><trkpt lat="32.8141535" lon="10.5667703"><ele>388.8571428571429</ele><time>2026-04-26T14:14:26.637Z</time></trkpt><trkpt lat="32.8140901" lon="10.5667575"><ele>388.1428571428571</ele><time>2026-04-26T14:14:27.631Z</time></trkpt><trkpt lat="32.8140276" lon="10.5667438"><ele>387.42857142857144</ele><time>2026-04-26T14:14:28.631Z</time></trkpt><trkpt lat="32.8139644" lon="10.5667251"><ele>386.7142857142857</ele><time>2026-04-26T14:14:29.654Z</time></trkpt><trkpt lat="32.8138982" lon="10.5667059"><ele>386.0</ele><time>2026-04-26T14:14:30.633Z</time></trkpt><trkpt lat="32.8138198" lon="10.566685"><ele>385.99999999999994</ele><time>2026-04-26T14:14:31.644Z</time></trkpt><trkpt lat="32.8137319" lon="10.5666679"><ele>386.0</ele><time>2026-04-26T14:14:32.659Z</time></trkpt><trkpt lat="32.8136522" lon="10.5666451"><ele>386.0</ele><time>2026-04-26T14:14:33.665Z</time></trkpt><trkpt lat="32.8135689" lon="10.5666119"><ele>386.0</ele><time>2026-04-26T14:14:34.66Z</time></trkpt><trkpt lat="32.8134914" lon="10.5665812"><ele>385.99999999999994</ele><time>2026-04-26T14:14:35.66Z</time></trkpt><trkpt lat="32.8134128" lon="10.5665554"><ele>386.0</ele><time>2026-04-26T14:14:36.609Z</time></trkpt><trkpt lat="32.8133422" lon="10.5665348"><ele>385.66666666666663</ele><time>2026-04-26T14:14:37.637Z</time></trkpt><trkpt lat="32.8132753" lon="10.5665117"><ele>385.3333333333333</ele><time>2026-04-26T14:14:38.606Z</time></trkpt><trkpt lat="32.8131562" lon="10.5664745"><ele>385.0</ele><time>2026-04-26T14:14:40.64Z</time></trkpt><trkpt lat="32.8130945" lon="10.5664484"><ele>384.66666666666663</ele><time>2026-04-26T14:14:41.633Z</time></trkpt><trkpt lat="32.8129865" lon="10.5664125"><ele>384.3333333333333</ele><time>2026-04-26T14:14:43.642Z</time></trkpt><trkpt lat="32.8129125" lon="10.5663988"><ele>384.0</ele><time>2026-04-26T14:14:44.645Z</time></trkpt><trkpt lat="32.8128262" lon="10.566386"><ele>384.0</ele><time>2026-04-26T14:14:45.637Z</time></trkpt><trkpt lat="32.8127328" lon="10.5663644"><ele>384.0</ele><time>2026-04-26T14:14:46.639Z</time></trkpt><trkpt lat="32.812635" lon="10.5663375"><ele>384.0</ele><time>2026-04-26T14:14:47.639Z</time></trkpt><trkpt lat="32.8125401" lon="10.566312"><ele>384.0</ele><time>2026-04-26T14:14:48.642Z</time></trkpt><trkpt lat="32.8124481" lon="10.5662834"><ele>384.0</ele><time>2026-04-26T14:14:49.621Z</time></trkpt><trkpt lat="32.8123532" lon="10.5662545"><ele>382.4</ele><time>2026-04-26T14:14:50.622Z</time></trkpt><trkpt lat="32.812255" lon="10.5662272"><ele>380.79999999999995</ele><time>2026-04-26T14:14:51.618Z</time></trkpt><trkpt lat="32.8121542" lon="10.566198"><ele>379.20000000000005</ele><time>2026-04-26T14:14:52.62Z</time></trkpt><trkpt lat="32.8120475" lon="10.5661671"><ele>377.6</ele><time>2026-04-26T14:14:53.633Z</time></trkpt><trkpt lat="32.8119368" lon="10.5661372"><ele>376.0</ele><time>2026-04-26T14:14:54.627Z</time></trkpt><trkpt lat="32.8118308" lon="10.5661105"><ele>374.8</ele><time>2026-04-26T14:14:55.629Z</time></trkpt><trkpt lat="32.8117238" lon="10.5660903"><ele>373.6</ele><time>2026-04-26T14:14:56.641Z</time></trkpt><trkpt lat="32.8116162" lon="10.5660686"><ele>372.4</ele><time>2026-04-26T14:14:57.631Z</time></trkpt><trkpt lat="32.8115146" lon="10.5660609"><ele>371.2</ele><time>2026-04-26T14:14:58.623Z</time></trkpt><trkpt lat="32.8114142" lon="10.5660492"><ele>370.0</ele><time>2026-04-26T14:14:59.638Z</time></trkpt><trkpt lat="32.8113017" lon="10.5660444"><ele>370.0</ele><time>2026-04-26T14:15:00.621Z</time></trkpt><trkpt lat="32.811197" lon="10.5660496"><ele>370.0</ele><time>2026-04-26T14:15:01.632Z</time></trkpt><trkpt lat="32.8110967" lon="10.5660649"><ele>370.0</ele><time>2026-04-26T14:15:02.642Z</time></trkpt><trkpt lat="32.8109971" lon="10.566095"><ele>370.0</ele><time>2026-04-26T14:15:03.637Z</time></trkpt><trkpt lat="32.810886" lon="10.5661406"><ele>370.0</ele><time>2026-04-26T14:15:04.639Z</time></trkpt><trkpt lat="32.810771" lon="10.5662031"><ele>370.66666666666663</ele><time>2026-04-26T14:15:05.624Z</time></trkpt><trkpt lat="32.8106501" lon="10.5662862"><ele>371.3333333333333</ele><time>2026-04-26T14:15:06.616Z</time></trkpt><trkpt lat="32.8105291" lon="10.5664016"><ele>372.0</ele><time>2026-04-26T14:15:07.644Z</time></trkpt><trkpt lat="32.8104079" lon="10.5665358"><ele>372.0</ele><time>2026-04-26T14:15:08.619Z</time></trkpt><trkpt lat="32.8102962" lon="10.5666648"><ele>372.0</ele><time>2026-04-26T14:15:09.635Z</time></trkpt><trkpt lat="32.8102022" lon="10.5667698"><ele>372.0</ele><time>2026-04-26T14:15:10.635Z</time></trkpt><trkpt lat="32.8101105" lon="10.5668569"><ele>372.0</ele><time>2026-04-26T14:15:11.634Z</time></trkpt><trkpt lat="32.8100169" lon="10.5669324"><ele>373.0</ele><time>2026-04-26T14:15:12.619Z</time></trkpt><trkpt lat="32.8099165" lon="10.5670094"><ele>374.0</ele><time>2026-04-26T14:15:13.617Z</time></trkpt><trkpt lat="32.809806" lon="10.5670727"><ele>375.0</ele><time>2026-04-26T14:15:14.635Z</time></trkpt><trkpt lat="32.8096933" lon="10.5671205"><ele>376.0</ele><time>2026-04-26T14:15:15.627Z</time></trkpt><trkpt lat="32.8095549" lon="10.5671735"><ele>376.66666666666663</ele><time>2026-04-26T14:15:16.63Z</time></trkpt><trkpt lat="32.8093889" lon="10.5672336"><ele>377.3333333333333</ele><time>2026-04-26T14:15:17.626Z</time></trkpt><trkpt lat="32.8092013" lon="10.5673087"><ele>378.0</ele><time>2026-04-26T14:15:18.597Z</time></trkpt><trkpt lat="32.8089888" lon="10.5673969"><ele>379.0</ele><time>2026-04-26T14:15:19.638Z</time></trkpt><trkpt lat="32.8087704" lon="10.5674874"><ele>380.0</ele><time>2026-04-26T14:15:20.638Z</time></trkpt><trkpt lat="32.8085784" lon="10.5675794"><ele>381.0</ele><time>2026-04-26T14:15:21.639Z</time></trkpt><trkpt lat="32.8084314" lon="10.5676536"><ele>382.0</ele><time>2026-04-26T14:15:22.657Z</time></trkpt><trkpt lat="32.808299" lon="10.5677283"><ele>383.0</ele><time>2026-04-26T14:15:23.648Z</time></trkpt><trkpt lat="32.8081582" lon="10.5678179"><ele>384.0</ele><time>2026-04-26T14:15:24.648Z</time></trkpt><trkpt lat="32.8080155" lon="10.5679028"><ele>384.5</ele><time>2026-04-26T14:15:25.619Z</time></trkpt><trkpt lat="32.807887" lon="10.5679739"><ele>385.0</ele><time>2026-04-26T14:15:26.638Z</time></trkpt><trkpt lat="32.8077536" lon="10.5680282"><ele>385.5</ele><time>2026-04-26T14:15:27.642Z</time></trkpt><trkpt lat="32.8076146" lon="10.5680818"><ele>386.0</ele><time>2026-04-26T14:15:28.64Z</time></trkpt><trkpt lat="32.8074782" lon="10.5681307"><ele>386.75</ele><time>2026-04-26T14:15:29.649Z</time></trkpt><trkpt lat="32.8073419" lon="10.568177"><ele>387.5</ele><time>2026-04-26T14:15:30.637Z</time></trkpt><trkpt lat="32.8072114" lon="10.5682201"><ele>388.25</ele><time>2026-04-26T14:15:31.642Z</time></trkpt><trkpt lat="32.8070827" lon="10.5682671"><ele>389.0</ele><time>2026-04-26T14:15:32.666Z</time></trkpt><trkpt lat="32.8069527" lon="10.5683123"><ele>389.25</ele><time>2026-04-26T14:15:33.647Z</time></trkpt><trkpt lat="32.8068218" lon="10.5683649"><ele>389.5</ele><time>2026-04-26T14:15:34.643Z</time></trkpt><trkpt lat="32.80669" lon="10.568424"><ele>389.75</ele><time>2026-04-26T14:15:35.626Z</time></trkpt><trkpt lat="32.8065554" lon="10.5684877"><ele>390.0</ele><time>2026-04-26T14:15:36.652Z</time></trkpt><trkpt lat="32.806422" lon="10.5685625"><ele>390.0</ele><time>2026-04-26T14:15:37.613Z</time></trkpt><trkpt lat="32.806285" lon="10.5686604"><ele>390.0</ele><time>2026-04-26T14:15:38.634Z</time></trkpt><trkpt lat="32.8061309" lon="10.5687848"><ele>390.0</ele><time>2026-04-26T14:15:39.645Z</time></trkpt><trkpt lat="32.8059779" lon="10.5689033"><ele>390.33333333333337</ele><time>2026-04-26T14:15:40.646Z</time></trkpt><trkpt lat="32.8058401" lon="10.5689991"><ele>390.6666666666667</ele><time>2026-04-26T14:15:41.642Z</time></trkpt><trkpt lat="32.8057053" lon="10.5690816"><ele>391.0</ele><time>2026-04-26T14:15:42.646Z</time></trkpt><trkpt lat="32.8055699" lon="10.5691555"><ele>391.0</ele><time>2026-04-26T14:15:43.657Z</time></trkpt><trkpt lat="32.8054291" lon="10.5692189"><ele>391.0</ele><time>2026-04-26T14:15:44.59Z</time></trkpt><trkpt lat="32.8052832" lon="10.5692697"><ele>391.0</ele><time>2026-04-26T14:15:45.612Z</time></trkpt><trkpt lat="32.8051292" lon="10.5693144"><ele>391.0</ele><time>2026-04-26T14:15:46.637Z</time></trkpt><trkpt lat="32.8049755" lon="10.5693581"><ele>391.0</ele><time>2026-04-26T14:15:47.629Z</time></trkpt><trkpt lat="32.8048173" lon="10.5694032"><ele>391.0</ele><time>2026-04-26T14:15:48.645Z</time></trkpt><trkpt lat="32.804661" lon="10.5694547"><ele>391.0</ele><time>2026-04-26T14:15:49.631Z</time></trkpt><trkpt lat="32.804508" lon="10.5695135"><ele>391.0</ele><time>2026-04-26T14:15:50.612Z</time></trkpt><trkpt lat="32.8043587" lon="10.5695736"><ele>391.0</ele><time>2026-04-26T14:15:51.65Z</time></trkpt><trkpt lat="32.8042079" lon="10.5696379"><ele>393.33333333333337</ele><time>2026-04-26T14:15:52.641Z</time></trkpt><trkpt lat="32.8040612" lon="10.5697018"><ele>395.66666666666663</ele><time>2026-04-26T14:15:53.638Z</time></trkpt><trkpt lat="32.8039253" lon="10.5697637"><ele>398.0</ele><time>2026-04-26T14:15:54.622Z</time></trkpt><trkpt lat="32.8037875" lon="10.569836"><ele>398.0</ele><time>2026-04-26T14:15:55.612Z</time></trkpt><trkpt lat="32.8036359" lon="10.569921"><ele>398.0</ele><time>2026-04-26T14:15:56.647Z</time></trkpt><trkpt lat="32.8034885" lon="10.5700169"><ele>398.0</ele><time>2026-04-26T14:15:57.639Z</time></trkpt><trkpt lat="32.803362" lon="10.5701106"><ele>398.25</ele><time>2026-04-26T14:15:58.637Z</time></trkpt><trkpt lat="32.8032444" lon="10.5702012"><ele>398.5</ele><time>2026-04-26T14:15:59.624Z</time></trkpt><trkpt lat="32.80314" lon="10.57029"><ele>398.75</ele><time>2026-04-26T14:16:00.637Z</time></trkpt><trkpt lat="32.8030321" lon="10.5703812"><ele>399.0</ele><time>2026-04-26T14:16:01.648Z</time></trkpt><trkpt lat="32.8029299" lon="10.5704788"><ele>399.5</ele><time>2026-04-26T14:16:02.637Z</time></trkpt><trkpt lat="32.8028319" lon="10.570582"><ele>400.0</ele><time>2026-04-26T14:16:03.644Z</time></trkpt><trkpt lat="32.8027258" lon="10.5706952"><ele>400.5</ele><time>2026-04-26T14:16:04.637Z</time></trkpt><trkpt lat="32.8026162" lon="10.5708321"><ele>401.0</ele><time>2026-04-26T14:16:05.649Z</time></trkpt><trkpt lat="32.8025067" lon="10.5709798"><ele>401.25</ele><time>2026-04-26T14:16:06.633Z</time></trkpt><trkpt lat="32.8024046" lon="10.57112"><ele>401.5</ele><time>2026-04-26T14:16:07.644Z</time></trkpt><trkpt lat="32.8023043" lon="10.5712404"><ele>401.75</ele><time>2026-04-26T14:16:08.641Z</time></trkpt><trkpt lat="32.8022065" lon="10.5713648"><ele>402.0</ele><time>2026-04-26T14:16:09.645Z</time></trkpt><trkpt lat="32.8021127" lon="10.5714892"><ele>402.25</ele><time>2026-04-26T14:16:10.637Z</time></trkpt><trkpt lat="32.8020269" lon="10.5716131"><ele>402.5</ele><time>2026-04-26T14:16:11.655Z</time></trkpt><trkpt lat="32.8019449" lon="10.5717309"><ele>402.75</ele><time>2026-04-26T14:16:12.651Z</time></trkpt><trkpt lat="32.8018573" lon="10.5718482"><ele>403.0</ele><time>2026-04-26T14:16:13.648Z</time></trkpt><trkpt lat="32.8017625" lon="10.5719602"><ele>404.6666666666667</ele><time>2026-04-26T14:16:14.651Z</time></trkpt><trkpt lat="32.8016636" lon="10.5720681"><ele>406.33333333333337</ele><time>2026-04-26T14:16:15.643Z</time></trkpt><trkpt lat="32.8015388" lon="10.5721868"><ele>408.0</ele><time>2026-04-26T14:16:16.62Z</time></trkpt><trkpt lat="32.8013977" lon="10.5723064"><ele>408.0</ele><time>2026-04-26T14:16:17.645Z</time></trkpt><trkpt lat="32.8012619" lon="10.57241"><ele>408.0</ele><time>2026-04-26T14:16:18.648Z</time></trkpt><trkpt lat="32.8011293" lon="10.5724948"><ele>408.0</ele><time>2026-04-26T14:16:19.635Z</time></trkpt><trkpt lat="32.8009938" lon="10.572575"><ele>408.66666666666663</ele><time>2026-04-26T14:16:20.607Z</time></trkpt><trkpt lat="32.800851" lon="10.5726391"><ele>409.3333333333333</ele><time>2026-04-26T14:16:21.627Z</time></trkpt><trkpt lat="32.800709" lon="10.5726964"><ele>410.0</ele><time>2026-04-26T14:16:22.65Z</time></trkpt><trkpt lat="32.8005635" lon="10.5727404"><ele>410.0</ele><time>2026-04-26T14:16:23.646Z</time></trkpt><trkpt lat="32.8004118" lon="10.572779"><ele>410.0</ele><time>2026-04-26T14:16:24.631Z</time></trkpt><trkpt lat="32.8002727" lon="10.5728072"><ele>410.0</ele><time>2026-04-26T14:16:25.647Z</time></trkpt><trkpt lat="32.8001472" lon="10.5728375"><ele>410.0</ele><time>2026-04-26T14:16:26.636Z</time></trkpt><trkpt lat="32.8000292" lon="10.5728617"><ele>408.6</ele><time>2026-04-26T14:16:27.645Z</time></trkpt><trkpt lat="32.799919" lon="10.5728803"><ele>407.2</ele><time>2026-04-26T14:16:28.648Z</time></trkpt><trkpt lat="32.7998174" lon="10.5728935"><ele>405.79999999999995</ele><time>2026-04-26T14:16:29.61Z</time></trkpt><trkpt lat="32.7997239" lon="10.5729042"><ele>404.4</ele><time>2026-04-26T14:16:30.609Z</time></trkpt><trkpt lat="32.7996384" lon="10.5729146"><ele>403.0</ele><time>2026-04-26T14:16:31.634Z</time></trkpt><trkpt lat="32.7995542" lon="10.5729205"><ele>403.0</ele><time>2026-04-26T14:16:32.644Z</time></trkpt><trkpt lat="32.7994659" lon="10.5729149"><ele>403.0</ele><time>2026-04-26T14:16:33.633Z</time></trkpt><trkpt lat="32.7993687" lon="10.5729049"><ele>403.0</ele><time>2026-04-26T14:16:34.634Z</time></trkpt><trkpt lat="32.7992667" lon="10.572884"><ele>403.0</ele><time>2026-04-26T14:16:35.646Z</time></trkpt><trkpt lat="32.7991686" lon="10.5728554"><ele>403.0</ele><time>2026-04-26T14:16:36.597Z</time></trkpt><trkpt lat="32.7990716" lon="10.5728198"><ele>403.83333333333337</ele><time>2026-04-26T14:16:37.655Z</time></trkpt><trkpt lat="32.7989782" lon="10.5727811"><ele>404.6666666666667</ele><time>2026-04-26T14:16:38.647Z</time></trkpt><trkpt lat="32.79889" lon="10.5727465"><ele>405.5</ele><time>2026-04-26T14:16:39.644Z</time></trkpt><trkpt lat="32.7988124" lon="10.5727075"><ele>406.33333333333337</ele><time>2026-04-26T14:16:40.612Z</time></trkpt><trkpt lat="32.7987385" lon="10.5726719"><ele>407.1666666666667</ele><time>2026-04-26T14:16:41.628Z</time></trkpt><trkpt lat="32.7986711" lon="10.5726391"><ele>408.0</ele><time>2026-04-26T14:16:42.624Z</time></trkpt><trkpt lat="32.7985829" lon="10.5726052"><ele>408.0</ele><time>2026-04-26T14:16:44.638Z</time></trkpt><trkpt lat="32.7985055" lon="10.5725825"><ele>408.0</ele><time>2026-04-26T14:18:30.609Z</time></trkpt><trkpt lat="32.798436" lon="10.5725622"><ele>408.0</ele><time>2026-04-26T14:18:32.631Z</time></trkpt><trkpt lat="32.798321" lon="10.5725554"><ele>408.0</ele><time>2026-04-26T14:18:34.634Z</time></trkpt><trkpt lat="32.7982286" lon="10.572555"><ele>408.0</ele><time>2026-04-26T14:18:35.599Z</time></trkpt><trkpt lat="32.7981121" lon="10.5725535"><ele>406.79999999999995</ele><time>2026-04-26T14:18:36.587Z</time></trkpt><trkpt lat="32.7980056" lon="10.5725377"><ele>405.6</ele><time>2026-04-26T14:18:37.626Z</time></trkpt><trkpt lat="32.7978958" lon="10.5725128"><ele>404.4</ele><time>2026-04-26T14:18:38.64Z</time></trkpt><trkpt lat="32.7977968" lon="10.5724775"><ele>403.20000000000005</ele><time>2026-04-26T14:18:39.625Z</time></trkpt><trkpt lat="32.7977016" lon="10.5724435"><ele>402.0</ele><time>2026-04-26T14:18:40.634Z</time></trkpt><trkpt lat="32.7976016" lon="10.5723992"><ele>401.5</ele><time>2026-04-26T14:18:41.633Z</time></trkpt><trkpt lat="32.797496" lon="10.5723517"><ele>401.0</ele><time>2026-04-26T14:18:42.654Z</time></trkpt><trkpt lat="32.7973899" lon="10.5723116"><ele>400.5</ele><time>2026-04-26T14:18:43.646Z</time></trkpt><trkpt lat="32.797278" lon="10.572265"><ele>400.0</ele><time>2026-04-26T14:18:44.63Z</time></trkpt><trkpt lat="32.7971631" lon="10.5722195"><ele>400.0</ele><time>2026-04-26T14:18:45.635Z</time></trkpt><trkpt lat="32.7970388" lon="10.5721707"><ele>400.0</ele><time>2026-04-26T14:18:46.635Z</time></trkpt><trkpt lat="32.7969166" lon="10.5721245"><ele>400.0</ele><time>2026-04-26T14:18:47.632Z</time></trkpt><trkpt lat="32.7967973" lon="10.5720867"><ele>400.0</ele><time>2026-04-26T14:18:48.641Z</time></trkpt><trkpt lat="32.7966895" lon="10.5720456"><ele>399.2</ele><time>2026-04-26T14:18:49.627Z</time></trkpt><trkpt lat="32.7965835" lon="10.572006"><ele>398.4</ele><time>2026-04-26T14:18:50.605Z</time></trkpt><trkpt lat="32.7964783" lon="10.5719677"><ele>397.6</ele><time>2026-04-26T14:18:51.625Z</time></trkpt><trkpt lat="32.7963822" lon="10.5719309"><ele>396.8</ele><time>2026-04-26T14:18:52.632Z</time></trkpt><trkpt lat="32.7962897" lon="10.5718941"><ele>396.0</ele><time>2026-04-26T14:18:53.641Z</time></trkpt><trkpt lat="32.7962045" lon="10.5718475"><ele>396.0</ele><time>2026-04-26T14:18:54.636Z</time></trkpt><trkpt lat="32.7961204" lon="10.5718081"><ele>396.0</ele><time>2026-04-26T14:18:55.593Z</time></trkpt><trkpt lat="32.7960326" lon="10.5717616"><ele>396.0</ele><time>2026-04-26T14:18:56.646Z</time></trkpt><trkpt lat="32.795953" lon="10.5717031"><ele>396.0</ele><time>2026-04-26T14:18:57.645Z</time></trkpt><trkpt lat="32.7958693" lon="10.5716424"><ele>396.0</ele><time>2026-04-26T14:18:58.632Z</time></trkpt><trkpt lat="32.7957961" lon="10.571572"><ele>396.0</ele><time>2026-04-26T14:18:59.593Z</time></trkpt><trkpt lat="32.7957277" lon="10.571497"><ele>396.0</ele><time>2026-04-26T14:19:00.585Z</time></trkpt><trkpt lat="32.795659" lon="10.5714176"><ele>396.0</ele><time>2026-04-26T14:19:01.616Z</time></trkpt><trkpt lat="32.7956021" lon="10.5713313"><ele>396.0</ele><time>2026-04-26T14:19:02.646Z</time></trkpt><trkpt lat="32.795549" lon="10.5712382"><ele>396.0</ele><time>2026-04-26T14:19:03.627Z</time></trkpt><trkpt lat="32.7955016" lon="10.5711386"><ele>396.0</ele><time>2026-04-26T14:19:04.631Z</time></trkpt><trkpt lat="32.7954566" lon="10.5710223"><ele>396.0</ele><time>2026-04-26T14:19:05.649Z</time></trkpt><trkpt lat="32.7954098" lon="10.5708703"><ele>396.0</ele><time>2026-04-26T14:19:06.641Z</time></trkpt><trkpt lat="32.795354" lon="10.5706721"><ele>396.0</ele><time>2026-04-26T14:19:07.622Z</time></trkpt><trkpt lat="32.7952785" lon="10.5704736"><ele>396.0</ele><time>2026-04-26T14:19:08.631Z</time></trkpt><trkpt lat="32.7952244" lon="10.57029"><ele>396.0</ele><time>2026-04-26T14:19:09.615Z</time></trkpt><trkpt lat="32.7951531" lon="10.5701266"><ele>396.0</ele><time>2026-04-26T14:19:10.622Z</time></trkpt><trkpt lat="32.7950727" lon="10.5699778"><ele>395.0</ele><time>2026-04-26T14:19:11.59Z</time></trkpt><trkpt lat="32.7949922" lon="10.5698461"><ele>394.0</ele><time>2026-04-26T14:19:12.648Z</time></trkpt><trkpt lat="32.7949054" lon="10.5697208"><ele>393.0</ele><time>2026-04-26T14:19:13.643Z</time></trkpt><trkpt lat="32.7947892" lon="10.5696051"><ele>392.0</ele><time>2026-04-26T14:19:14.594Z</time></trkpt><trkpt lat="32.7946515" lon="10.5695014"><ele>392.0</ele><time>2026-04-26T14:19:15.664Z</time></trkpt><trkpt lat="32.7945013" lon="10.5694013"><ele>392.0</ele><time>2026-04-26T14:19:16.64Z</time></trkpt><trkpt lat="32.794344" lon="10.5693228"><ele>392.0</ele><time>2026-04-26T14:19:17.637Z</time></trkpt><trkpt lat="32.7941764" lon="10.5692558"><ele>390.0</ele><time>2026-04-26T14:19:18.636Z</time></trkpt><trkpt lat="32.794001" lon="10.5691996"><ele>388.0</ele><time>2026-04-26T14:19:19.643Z</time></trkpt><trkpt lat="32.7938168" lon="10.569151"><ele>386.0</ele><time>2026-04-26T14:19:20.645Z</time></trkpt><trkpt lat="32.7935916" lon="10.5691186"><ele>385.3333333333333</ele><time>2026-04-26T14:19:21.613Z</time></trkpt><trkpt lat="32.7933708" lon="10.5690914"><ele>384.66666666666663</ele><time>2026-04-26T14:19:22.647Z</time></trkpt><trkpt lat="32.79318" lon="10.5690634"><ele>384.0</ele><time>2026-04-26T14:19:23.657Z</time></trkpt><trkpt lat="32.7930075" lon="10.5690299"><ele>384.0</ele><time>2026-04-26T14:19:24.618Z</time></trkpt><trkpt lat="32.7928548" lon="10.5690063"><ele>384.0</ele><time>2026-04-26T14:19:25.618Z</time></trkpt><trkpt lat="32.7927272" lon="10.5689787"><ele>384.0</ele><time>2026-04-26T14:19:26.682Z</time></trkpt><trkpt lat="32.7926165" lon="10.5689556"><ele>384.0</ele><time>2026-04-26T14:19:27.647Z</time></trkpt><trkpt lat="32.7925198" lon="10.5689374"><ele>384.0</ele><time>2026-04-26T14:19:28.65Z</time></trkpt><trkpt lat="32.7924349" lon="10.568915"><ele>384.0</ele><time>2026-04-26T14:19:29.642Z</time></trkpt><trkpt lat="32.7923596" lon="10.568878"><ele>384.0</ele><time>2026-04-26T14:19:30.618Z</time></trkpt><trkpt lat="32.7922943" lon="10.568815"><ele>384.0</ele><time>2026-04-26T14:19:31.648Z</time></trkpt><trkpt lat="32.7922405" lon="10.5687164"><ele>384.0</ele><time>2026-04-26T14:19:32.685Z</time></trkpt><trkpt lat="32.7921858" lon="10.5685716"><ele>384.25</ele><time>2026-04-26T14:19:33.635Z</time></trkpt><trkpt lat="32.7921255" lon="10.5684073"><ele>384.5</ele><time>2026-04-26T14:19:34.623Z</time></trkpt><trkpt lat="32.7920597" lon="10.5682534"><ele>384.75</ele><time>2026-04-26T14:19:35.645Z</time></trkpt><trkpt lat="32.7919905" lon="10.5681251"><ele>385.0</ele><time>2026-04-26T14:19:36.652Z</time></trkpt><trkpt lat="32.7919317" lon="10.5680045"><ele>385.0</ele><time>2026-04-26T14:19:37.591Z</time></trkpt><trkpt lat="32.7918797" lon="10.5678933"><ele>385.0</ele><time>2026-04-26T14:19:38.643Z</time></trkpt><trkpt lat="32.7918215" lon="10.5677863"><ele>385.0</ele><time>2026-04-26T14:19:39.628Z</time></trkpt><trkpt lat="32.791771" lon="10.5676808"><ele>385.0</ele><time>2026-04-26T14:19:40.647Z</time></trkpt><trkpt lat="32.7917276" lon="10.5675731"><ele>385.0</ele><time>2026-04-26T14:19:41.655Z</time></trkpt><trkpt lat="32.7916864" lon="10.5674591"><ele>384.2</ele><time>2026-04-26T14:19:42.64Z</time></trkpt><trkpt lat="32.7916417" lon="10.5673432"><ele>383.4</ele><time>2026-04-26T14:19:43.641Z</time></trkpt><trkpt lat="32.791597" lon="10.5672356"><ele>382.6</ele><time>2026-04-26T14:19:44.652Z</time></trkpt><trkpt lat="32.7915494" lon="10.5671275"><ele>381.8</ele><time>2026-04-26T14:19:45.65Z</time></trkpt><trkpt lat="32.7914964" lon="10.56703"><ele>381.0</ele><time>2026-04-26T14:19:46.644Z</time></trkpt><trkpt lat="32.7914278" lon="10.5669425"><ele>380.5</ele><time>2026-04-26T14:19:47.62Z</time></trkpt><trkpt lat="32.791342" lon="10.5668632"><ele>380.0</ele><time>2026-04-26T14:19:48.652Z</time></trkpt><trkpt lat="32.791244" lon="10.5667867"><ele>379.5</ele><time>2026-04-26T14:19:49.633Z</time></trkpt><trkpt lat="32.7911181" lon="10.5666926"><ele>379.0</ele><time>2026-04-26T14:19:50.617Z</time></trkpt><trkpt lat="32.790962" lon="10.566585"><ele>379.0</ele><time>2026-04-26T14:19:51.625Z</time></trkpt><trkpt lat="32.7907879" lon="10.5664698"><ele>379.0</ele><time>2026-04-26T14:19:52.654Z</time></trkpt><trkpt lat="32.7905999" lon="10.5663349"><ele>379.0</ele><time>2026-04-26T14:19:53.721Z</time></trkpt><trkpt lat="32.7904344" lon="10.5662164"><ele>378.66666666666663</ele><time>2026-04-26T14:19:54.741Z</time></trkpt><trkpt lat="32.7902923" lon="10.5661147"><ele>378.3333333333333</ele><time>2026-04-26T14:19:55.713Z</time></trkpt><trkpt lat="32.7901669" lon="10.5660185"><ele>378.0</ele><time>2026-04-26T14:19:56.634Z</time></trkpt><trkpt lat="32.7900556" lon="10.5659238"><ele>378.0</ele><time>2026-04-26T14:19:57.646Z</time></trkpt><trkpt lat="32.78994" lon="10.5658371"><ele>378.0</ele><time>2026-04-26T14:19:58.655Z</time></trkpt><trkpt lat="32.789829" lon="10.5657544"><ele>378.0</ele><time>2026-04-26T14:19:59.657Z</time></trkpt><trkpt lat="32.7897164" lon="10.5656716"><ele>378.0</ele><time>2026-04-26T14:20:00.624Z</time></trkpt><trkpt lat="32.789613" lon="10.5655882"><ele>378.0</ele><time>2026-04-26T14:20:01.619Z</time></trkpt><trkpt lat="32.7895164" lon="10.5655044"><ele>378.0</ele><time>2026-04-26T14:20:02.63Z</time></trkpt><trkpt lat="32.7894237" lon="10.5654134"><ele>378.0</ele><time>2026-04-26T14:20:03.623Z</time></trkpt><trkpt lat="32.7893301" lon="10.5653085"><ele>378.0</ele><time>2026-04-26T14:20:04.637Z</time></trkpt><trkpt lat="32.7892481" lon="10.5652009"><ele>377.0</ele><time>2026-04-26T14:20:05.698Z</time></trkpt><trkpt lat="32.7891696" lon="10.5650834"><ele>376.0</ele><time>2026-04-26T14:20:06.711Z</time></trkpt><trkpt lat="32.7890813" lon="10.5649638"><ele>375.0</ele><time>2026-04-26T14:20:07.701Z</time></trkpt><trkpt lat="32.7889842" lon="10.5648377"><ele>374.0</ele><time>2026-04-26T14:20:08.67Z</time></trkpt><trkpt lat="32.7888931" lon="10.5647159"><ele>374.0</ele><time>2026-04-26T14:20:09.707Z</time></trkpt><trkpt lat="32.7888032" lon="10.5645887"><ele>374.0</ele><time>2026-04-26T14:20:10.713Z</time></trkpt><trkpt lat="32.7887116" lon="10.5644596"><ele>374.0</ele><time>2026-04-26T14:20:11.68Z</time></trkpt><trkpt lat="32.7886049" lon="10.5643076"><ele>374.0</ele><time>2026-04-26T14:20:12.664Z</time></trkpt><trkpt lat="32.7884689" lon="10.5641291"><ele>372.6666666666667</ele><time>2026-04-26T14:20:13.654Z</time></trkpt><trkpt lat="32.7883422" lon="10.5639565"><ele>371.3333333333333</ele><time>2026-04-26T14:20:14.638Z</time></trkpt><trkpt lat="32.7882301" lon="10.5637919"><ele>370.0</ele><time>2026-04-26T14:20:15.669Z</time></trkpt><trkpt lat="32.7881372" lon="10.5636581"><ele>369.75</ele><time>2026-04-26T14:20:16.653Z</time></trkpt><trkpt lat="32.7880415" lon="10.5635238"><ele>369.5</ele><time>2026-04-26T14:20:17.647Z</time></trkpt><trkpt lat="32.7879569" lon="10.5634036"><ele>369.25</ele><time>2026-04-26T14:20:18.658Z</time></trkpt><trkpt lat="32.7878784" lon="10.5632818"><ele>369.0</ele><time>2026-04-26T14:20:19.646Z</time></trkpt><trkpt lat="32.7878069" lon="10.5631752"><ele>369.0</ele><time>2026-04-26T14:20:20.626Z</time></trkpt><trkpt lat="32.7877456" lon="10.5630753"><ele>369.0</ele><time>2026-04-26T14:20:21.655Z</time></trkpt><trkpt lat="32.787683" lon="10.5629922"><ele>369.0</ele><time>2026-04-26T14:20:22.637Z</time></trkpt><trkpt lat="32.7876248" lon="10.5629147"><ele>369.0</ele><time>2026-04-26T14:20:23.63Z</time></trkpt><trkpt lat="32.7875584" lon="10.5628478"><ele>369.0</ele><time>2026-04-26T14:20:24.634Z</time></trkpt><trkpt lat="32.7874913" lon="10.562787"><ele>368.0</ele><time>2026-04-26T14:20:25.632Z</time></trkpt><trkpt lat="32.7874281" lon="10.5627434"><ele>367.0</ele><time>2026-04-26T14:20:26.635Z</time></trkpt><trkpt lat="32.7873605" lon="10.5627072"><ele>366.0</ele><time>2026-04-26T14:20:27.642Z</time></trkpt><trkpt lat="32.7872922" lon="10.5626799"><ele>365.0</ele><time>2026-04-26T14:20:28.629Z</time></trkpt><trkpt lat="32.7872249" lon="10.5626555"><ele>364.0</ele><time>2026-04-26T14:20:29.681Z</time></trkpt><trkpt lat="32.7871546" lon="10.5626297"><ele>363.0</ele><time>2026-04-26T14:20:30.625Z</time></trkpt><trkpt lat="32.787077" lon="10.5625954"><ele>362.0</ele><time>2026-04-26T14:20:31.629Z</time></trkpt><trkpt lat="32.7869966" lon="10.5625601"><ele>362.0</ele><time>2026-04-26T14:20:32.609Z</time></trkpt><trkpt lat="32.7869184" lon="10.5625311"><ele>362.0</ele><time>2026-04-26T14:20:33.631Z</time></trkpt><trkpt lat="32.7868374" lon="10.5625018"><ele>362.0</ele><time>2026-04-26T14:20:34.639Z</time></trkpt><trkpt lat="32.7867631" lon="10.5624746"><ele>362.0</ele><time>2026-04-26T14:20:35.641Z</time></trkpt><trkpt lat="32.7866892" lon="10.5624467"><ele>362.0</ele><time>2026-04-26T14:20:36.643Z</time></trkpt><trkpt lat="32.7866094" lon="10.5624108"><ele>362.0</ele><time>2026-04-26T14:20:37.641Z</time></trkpt><trkpt lat="32.7865297" lon="10.5623687"><ele>362.1666666666667</ele><time>2026-04-26T14:20:38.637Z</time></trkpt><trkpt lat="32.7864431" lon="10.5623215"><ele>362.33333333333337</ele><time>2026-04-26T14:20:39.628Z</time></trkpt><trkpt lat="32.7863515" lon="10.5622819"><ele>362.5</ele><time>2026-04-26T14:20:40.635Z</time></trkpt><trkpt lat="32.7862743" lon="10.5622499"><ele>362.6666666666667</ele><time>2026-04-26T14:20:41.635Z</time></trkpt><trkpt lat="32.7861964" lon="10.5622172"><ele>362.8333333333333</ele><time>2026-04-26T14:20:42.62Z</time></trkpt><trkpt lat="32.7861233" lon="10.5621846"><ele>363.0</ele><time>2026-04-26T14:20:43.621Z</time></trkpt><trkpt lat="32.7860536" lon="10.5621573"><ele>363.1428571428571</ele><time>2026-04-26T14:20:44.625Z</time></trkpt><trkpt lat="32.7859855" lon="10.5621377"><ele>363.2857142857143</ele><time>2026-04-26T14:20:45.633Z</time></trkpt><trkpt lat="32.7859192" lon="10.5621317"><ele>363.42857142857144</ele><time>2026-04-26T14:20:46.628Z</time></trkpt><trkpt lat="32.7858535" lon="10.5621384"><ele>363.57142857142856</ele><time>2026-04-26T14:20:47.647Z</time></trkpt><trkpt lat="32.7857887" lon="10.5621662"><ele>363.7142857142857</ele><time>2026-04-26T14:20:48.628Z</time></trkpt><trkpt lat="32.7857275" lon="10.5622152"><ele>363.85714285714283</ele><time>2026-04-26T14:20:49.613Z</time></trkpt><trkpt lat="32.785654" lon="10.5622599"><ele>364.0</ele><time>2026-04-26T14:20:50.641Z</time></trkpt><trkpt lat="32.785575" lon="10.5623114"><ele>364.0</ele><time>2026-04-26T14:20:51.617Z</time></trkpt><trkpt lat="32.7854903" lon="10.5623658"><ele>364.0</ele><time>2026-04-26T14:20:52.634Z</time></trkpt><trkpt lat="32.7854053" lon="10.5624224"><ele>364.0</ele><time>2026-04-26T14:20:53.626Z</time></trkpt><trkpt lat="32.7853224" lon="10.5624624"><ele>364.0</ele><time>2026-04-26T14:20:54.63Z</time></trkpt><trkpt lat="32.7852326" lon="10.5624846"><ele>364.0</ele><time>2026-04-26T14:20:55.604Z</time></trkpt><trkpt lat="32.7851355" lon="10.5624884"><ele>363.79999999999995</ele><time>2026-04-26T14:20:56.663Z</time></trkpt><trkpt lat="32.7850338" lon="10.5624786"><ele>363.59999999999997</ele><time>2026-04-26T14:20:57.637Z</time></trkpt><trkpt lat="32.7849285" lon="10.5624611"><ele>363.4</ele><time>2026-04-26T14:20:58.606Z</time></trkpt><trkpt lat="32.7848204" lon="10.5624302"><ele>363.2</ele><time>2026-04-26T14:20:59.632Z</time></trkpt><trkpt lat="32.7847072" lon="10.5623797"><ele>363.0</ele><time>2026-04-26T14:21:00.622Z</time></trkpt><trkpt lat="32.784577" lon="10.5623362"><ele>363.0</ele><time>2026-04-26T14:21:01.662Z</time></trkpt><trkpt lat="32.7844398" lon="10.5622829"><ele>363.0</ele><time>2026-04-26T14:21:02.629Z</time></trkpt><trkpt lat="32.7843066" lon="10.5622259"><ele>363.0</ele><time>2026-04-26T14:21:03.642Z</time></trkpt><trkpt lat="32.7841679" lon="10.5621542"><ele>363.0</ele><time>2026-04-26T14:21:04.633Z</time></trkpt><trkpt lat="32.7840379" lon="10.5620687"><ele>362.3333333333333</ele><time>2026-04-26T14:21:05.634Z</time></trkpt><trkpt lat="32.7839116" lon="10.5619711"><ele>361.66666666666663</ele><time>2026-04-26T14:21:06.654Z</time></trkpt><trkpt lat="32.7837816" lon="10.5618514"><ele>361.0</ele><time>2026-04-26T14:21:07.616Z</time></trkpt><trkpt lat="32.7836589" lon="10.5617335"><ele>361.0</ele><time>2026-04-26T14:21:08.621Z</time></trkpt><trkpt lat="32.7835471" lon="10.5616334"><ele>361.0</ele><time>2026-04-26T14:21:09.634Z</time></trkpt><trkpt lat="32.7834364" lon="10.5615427"><ele>361.0</ele><time>2026-04-26T14:21:10.633Z</time></trkpt><trkpt lat="32.7833225" lon="10.5614762"><ele>361.0</ele><time>2026-04-26T14:21:11.602Z</time></trkpt><trkpt lat="32.7832065" lon="10.561436"><ele>361.0</ele><time>2026-04-26T14:21:12.634Z</time></trkpt><trkpt lat="32.7830841" lon="10.5614167"><ele>361.0</ele><time>2026-04-26T14:21:13.621Z</time></trkpt><trkpt lat="32.782943" lon="10.5614139"><ele>361.0</ele><time>2026-04-26T14:21:14.62Z</time></trkpt><trkpt lat="32.7827843" lon="10.5614336"><ele>361.0</ele><time>2026-04-26T14:21:15.632Z</time></trkpt><trkpt lat="32.7826215" lon="10.5614518"><ele>361.0</ele><time>2026-04-26T14:21:16.623Z</time></trkpt><trkpt lat="32.7824695" lon="10.5614745"><ele>361.0</ele><time>2026-04-26T14:21:17.634Z</time></trkpt><trkpt lat="32.7823216" lon="10.5614869"><ele>361.0</ele><time>2026-04-26T14:21:18.628Z</time></trkpt><trkpt lat="32.7821707" lon="10.5615008"><ele>361.0</ele><time>2026-04-26T14:21:19.63Z</time></trkpt><trkpt lat="32.7820303" lon="10.5615172"><ele>361.0</ele><time>2026-04-26T14:21:20.641Z</time></trkpt><trkpt lat="32.7818893" lon="10.5615313"><ele>361.0</ele><time>2026-04-26T14:21:21.645Z</time></trkpt><trkpt lat="32.7817538" lon="10.5615506"><ele>361.0</ele><time>2026-04-26T14:21:22.635Z</time></trkpt><trkpt lat="32.7816166" lon="10.5615631"><ele>360.75</ele><time>2026-04-26T14:21:23.651Z</time></trkpt><trkpt lat="32.7814747" lon="10.5615858"><ele>360.5</ele><time>2026-04-26T14:21:24.643Z</time></trkpt><trkpt lat="32.7813432" lon="10.5616012"><ele>360.25</ele><time>2026-04-26T14:21:25.633Z</time></trkpt><trkpt lat="32.7812117" lon="10.5616137"><ele>360.0</ele><time>2026-04-26T14:21:26.633Z</time></trkpt><trkpt lat="32.7810781" lon="10.5616344"><ele>360.25</ele><time>2026-04-26T14:21:27.636Z</time></trkpt><trkpt lat="32.7809378" lon="10.5616546"><ele>360.5</ele><time>2026-04-26T14:21:28.637Z</time></trkpt><trkpt lat="32.7808003" lon="10.5616729"><ele>360.75</ele><time>2026-04-26T14:21:29.642Z</time></trkpt><trkpt lat="32.7806743" lon="10.5616869"><ele>361.0</ele><time>2026-04-26T14:21:30.632Z</time></trkpt><trkpt lat="32.7805605" lon="10.5617063"><ele>361.0</ele><time>2026-04-26T14:21:31.643Z</time></trkpt><trkpt lat="32.7804596" lon="10.561725"><ele>361.0</ele><time>2026-04-26T14:21:32.628Z</time></trkpt><trkpt lat="32.7803661" lon="10.5617373"><ele>361.0</ele><time>2026-04-26T14:21:33.611Z</time></trkpt><trkpt lat="32.7802845" lon="10.5617444"><ele>361.0</ele><time>2026-04-26T14:21:34.646Z</time></trkpt><trkpt lat="32.7802101" lon="10.5617378"><ele>361.0</ele><time>2026-04-26T14:21:35.653Z</time></trkpt><trkpt lat="32.7801412" lon="10.5617084"><ele>361.0</ele><time>2026-04-26T14:21:36.631Z</time></trkpt><trkpt lat="32.7800753" lon="10.5616561"><ele>360.4</ele><time>2026-04-26T14:21:37.632Z</time></trkpt><trkpt lat="32.7800053" lon="10.561595"><ele>359.8</ele><time>2026-04-26T14:21:38.58Z</time></trkpt><trkpt lat="32.7799476" lon="10.5615044"><ele>359.2</ele><time>2026-04-26T14:21:39.598Z</time></trkpt><trkpt lat="32.7798862" lon="10.5614002"><ele>358.59999999999997</ele><time>2026-04-26T14:21:40.626Z</time></trkpt><trkpt lat="32.7798206" lon="10.5612797"><ele>358.0</ele><time>2026-04-26T14:21:41.619Z</time></trkpt><trkpt lat="32.7797489" lon="10.5611608"><ele>357.75</ele><time>2026-04-26T14:21:42.602Z</time></trkpt><trkpt lat="32.7796768" lon="10.5610427"><ele>357.5</ele><time>2026-04-26T14:21:43.633Z</time></trkpt><trkpt lat="32.7796065" lon="10.5609218"><ele>357.25</ele><time>2026-04-26T14:21:44.631Z</time></trkpt><trkpt lat="32.7795397" lon="10.5608104"><ele>357.0</ele><time>2026-04-26T14:21:45.652Z</time></trkpt><trkpt lat="32.7794703" lon="10.5607008"><ele>357.0</ele><time>2026-04-26T14:21:46.629Z</time></trkpt><trkpt lat="32.7794072" lon="10.5605818"><ele>357.0</ele><time>2026-04-26T14:21:47.636Z</time></trkpt><trkpt lat="32.7793503" lon="10.5604592"><ele>357.0</ele><time>2026-04-26T14:21:48.685Z</time></trkpt><trkpt lat="32.7792898" lon="10.560338"><ele>357.0</ele><time>2026-04-26T14:21:49.621Z</time></trkpt><trkpt lat="32.7792275" lon="10.5602176"><ele>356.0</ele><time>2026-04-26T14:21:50.651Z</time></trkpt><trkpt lat="32.7791644" lon="10.5600992"><ele>355.0</ele><time>2026-04-26T14:21:51.627Z</time></trkpt><trkpt lat="32.7790933" lon="10.5599832"><ele>354.0</ele><time>2026-04-26T14:21:52.629Z</time></trkpt><trkpt lat="32.7790105" lon="10.5598839"><ele>353.0</ele><time>2026-04-26T14:21:53.646Z</time></trkpt><trkpt lat="32.7789199" lon="10.5597913"><ele>353.0</ele><time>2026-04-26T14:21:54.619Z</time></trkpt><trkpt lat="32.7788087" lon="10.5597034"><ele>353.0</ele><time>2026-04-26T14:21:55.609Z</time></trkpt><trkpt lat="32.7786793" lon="10.5596173"><ele>353.0</ele><time>2026-04-26T14:21:56.641Z</time></trkpt><trkpt lat="32.7785352" lon="10.5595142"><ele>352.0</ele><time>2026-04-26T14:21:57.597Z</time></trkpt><trkpt lat="32.7783895" lon="10.5594049"><ele>351.0</ele><time>2026-04-26T14:21:58.648Z</time></trkpt><trkpt lat="32.7782523" lon="10.5593046"><ele>350.0</ele><time>2026-04-26T14:21:59.606Z</time></trkpt><trkpt lat="32.7781172" lon="10.559205"><ele>350.0</ele><time>2026-04-26T14:22:00.607Z</time></trkpt><trkpt lat="32.7779861" lon="10.5591152"><ele>350.0</ele><time>2026-04-26T14:22:01.674Z</time></trkpt><trkpt lat="32.7778521" lon="10.5590288"><ele>350.0</ele><time>2026-04-26T14:22:02.66Z</time></trkpt><trkpt lat="32.7777298" lon="10.5589486"><ele>350.0</ele><time>2026-04-26T14:22:03.597Z</time></trkpt><trkpt lat="32.7776036" lon="10.5588668"><ele>348.75</ele><time>2026-04-26T14:22:04.649Z</time></trkpt><trkpt lat="32.7774887" lon="10.558791"><ele>347.5</ele><time>2026-04-26T14:22:05.642Z</time></trkpt><trkpt lat="32.7773697" lon="10.5587115"><ele>346.25</ele><time>2026-04-26T14:22:06.654Z</time></trkpt><trkpt lat="32.7772591" lon="10.5586376"><ele>345.0</ele><time>2026-04-26T14:22:07.655Z</time></trkpt><trkpt lat="32.7771539" lon="10.5585688"><ele>344.25</ele><time>2026-04-26T14:22:08.639Z</time></trkpt><trkpt lat="32.7770408" lon="10.558489"><ele>343.5</ele><time>2026-04-26T14:22:09.648Z</time></trkpt><trkpt lat="32.7769207" lon="10.5584052"><ele>342.75</ele><time>2026-04-26T14:22:10.629Z</time></trkpt><trkpt lat="32.776803" lon="10.5583264"><ele>342.0</ele><time>2026-04-26T14:22:11.611Z</time></trkpt><trkpt lat="32.7766903" lon="10.5582503"><ele>341.25</ele><time>2026-04-26T14:22:12.638Z</time></trkpt><trkpt lat="32.776574" lon="10.5581787"><ele>340.5</ele><time>2026-04-26T14:22:13.652Z</time></trkpt><trkpt lat="32.7764517" lon="10.5581011"><ele>339.75</ele><time>2026-04-26T14:22:14.622Z</time></trkpt><trkpt lat="32.7763213" lon="10.5580195"><ele>339.0</ele><time>2026-04-26T14:22:15.638Z</time></trkpt><trkpt lat="32.7761845" lon="10.5579337"><ele>337.6666666666667</ele><time>2026-04-26T14:22:16.638Z</time></trkpt><trkpt lat="32.7760419" lon="10.5578483"><ele>336.33333333333337</ele><time>2026-04-26T14:22:17.667Z</time></trkpt><trkpt lat="32.7759029" lon="10.557763"><ele>335.0</ele><time>2026-04-26T14:22:18.64Z</time></trkpt><trkpt lat="32.7757622" lon="10.5576752"><ele>335.0</ele><time>2026-04-26T14:22:19.642Z</time></trkpt><trkpt lat="32.7756265" lon="10.5575872"><ele>335.0</ele><time>2026-04-26T14:22:20.632Z</time></trkpt><trkpt lat="32.7754839" lon="10.5575064"><ele>335.0</ele><time>2026-04-26T14:22:21.598Z</time></trkpt><trkpt lat="32.7753459" lon="10.5574199"><ele>335.0</ele><time>2026-04-26T14:22:22.639Z</time></trkpt><trkpt lat="32.7752142" lon="10.5573405"><ele>335.0</ele><time>2026-04-26T14:22:23.646Z</time></trkpt><trkpt lat="32.7750831" lon="10.5572603"><ele>335.0</ele><time>2026-04-26T14:22:24.648Z</time></trkpt><trkpt lat="32.7749541" lon="10.5571791"><ele>335.0</ele><time>2026-04-26T14:22:25.638Z</time></trkpt><trkpt lat="32.7748295" lon="10.5570969"><ele>334.5</ele><time>2026-04-26T14:22:26.623Z</time></trkpt><trkpt lat="32.7747066" lon="10.5570143"><ele>334.0</ele><time>2026-04-26T14:22:27.631Z</time></trkpt><trkpt lat="32.7745891" lon="10.5569267"><ele>333.5</ele><time>2026-04-26T14:22:28.63Z</time></trkpt><trkpt lat="32.7744864" lon="10.5568247"><ele>333.0</ele><time>2026-04-26T14:22:29.639Z</time></trkpt><trkpt lat="32.7743911" lon="10.5567216"><ele>333.25</ele><time>2026-04-26T14:22:30.643Z</time></trkpt><trkpt lat="32.7743023" lon="10.5566082"><ele>333.5</ele><time>2026-04-26T14:22:31.598Z</time></trkpt><trkpt lat="32.7742143" lon="10.5565077"><ele>333.75</ele><time>2026-04-26T14:22:32.652Z</time></trkpt><trkpt lat="32.7741145" lon="10.5564341"><ele>334.0</ele><time>2026-04-26T14:22:33.603Z</time></trkpt><trkpt lat="32.7740068" lon="10.5563854"><ele>334.0</ele><time>2026-04-26T14:22:34.648Z</time></trkpt><trkpt lat="32.7738942" lon="10.5563341"><ele>334.0</ele><time>2026-04-26T14:22:35.647Z</time></trkpt><trkpt lat="32.7737943" lon="10.5562815"><ele>334.0</ele><time>2026-04-26T14:22:36.617Z</time></trkpt><trkpt lat="32.7737112" lon="10.5562138"><ele>334.0</ele><time>2026-04-26T14:22:37.634Z</time></trkpt><trkpt lat="32.7736404" lon="10.5561298"><ele>334.0</ele><time>2026-04-26T14:22:38.61Z</time></trkpt><trkpt lat="32.7735847" lon="10.5560357"><ele>333.79999999999995</ele><time>2026-04-26T14:22:39.635Z</time></trkpt><trkpt lat="32.7735341" lon="10.5559364"><ele>333.59999999999997</ele><time>2026-04-26T14:22:40.649Z</time></trkpt><trkpt lat="32.7734856" lon="10.5558472"><ele>333.4</ele><time>2026-04-26T14:22:41.589Z</time></trkpt><trkpt lat="32.7734438" lon="10.5557567"><ele>333.2</ele><time>2026-04-26T14:22:42.577Z</time></trkpt><trkpt lat="32.7734095" lon="10.5556618"><ele>333.0</ele><time>2026-04-26T14:22:43.624Z</time></trkpt><trkpt lat="32.7733729" lon="10.5555642"><ele>332.79999999999995</ele><time>2026-04-26T14:22:44.58Z</time></trkpt><trkpt lat="32.773338" lon="10.5554734"><ele>332.6</ele><time>2026-04-26T14:22:45.649Z</time></trkpt><trkpt lat="32.7733012" lon="10.5553784"><ele>332.4</ele><time>2026-04-26T14:22:46.626Z</time></trkpt><trkpt lat="32.7732531" lon="10.5552831"><ele>332.20000000000005</ele><time>2026-04-26T14:22:47.611Z</time></trkpt><trkpt lat="32.7731992" lon="10.5551784"><ele>332.0</ele><time>2026-04-26T14:22:48.63Z</time></trkpt><trkpt lat="32.7731432" lon="10.5550718"><ele>332.0</ele><time>2026-04-26T14:22:49.641Z</time></trkpt><trkpt lat="32.7730807" lon="10.5549652"><ele>332.0</ele><time>2026-04-26T14:22:50.644Z</time></trkpt><trkpt lat="32.7730166" lon="10.5548549"><ele>332.0</ele><time>2026-04-26T14:22:51.624Z</time></trkpt><trkpt lat="32.7729539" lon="10.5547412"><ele>332.0</ele><time>2026-04-26T14:22:52.61Z</time></trkpt><trkpt lat="32.7728812" lon="10.5546148"><ele>332.25</ele><time>2026-04-26T14:22:53.639Z</time></trkpt><trkpt lat="32.7728005" lon="10.5544688"><ele>332.5</ele><time>2026-04-26T14:22:54.64Z</time></trkpt><trkpt lat="32.7727319" lon="10.5543205"><ele>332.75</ele><time>2026-04-26T14:22:55.633Z</time></trkpt><trkpt lat="32.7726599" lon="10.5541726"><ele>333.0</ele><time>2026-04-26T14:22:56.63Z</time></trkpt><trkpt lat="32.7726075" lon="10.5540197"><ele>333.6666666666667</ele><time>2026-04-26T14:22:57.638Z</time></trkpt><trkpt lat="32.7725602" lon="10.5538601"><ele>334.33333333333337</ele><time>2026-04-26T14:22:58.614Z</time></trkpt><trkpt lat="32.772521" lon="10.5536685"><ele>335.0</ele><time>2026-04-26T14:22:59.644Z</time></trkpt><trkpt lat="32.7724874" lon="10.5534278"><ele>336.0</ele><time>2026-04-26T14:23:00.608Z</time></trkpt><trkpt lat="32.7724359" lon="10.5531433"><ele>337.0</ele><time>2026-04-26T14:23:01.632Z</time></trkpt><trkpt lat="32.7723909" lon="10.5528416"><ele>337.5</ele><time>2026-04-26T14:23:02.634Z</time></trkpt><trkpt lat="32.7723321" lon="10.5525417"><ele>338.0</ele><time>2026-04-26T14:23:03.649Z</time></trkpt><trkpt lat="32.7722841" lon="10.5522707"><ele>338.6666666666667</ele><time>2026-04-26T14:23:04.638Z</time></trkpt><trkpt lat="32.7722387" lon="10.552037"><ele>339.3333333333333</ele><time>2026-04-26T14:23:05.635Z</time></trkpt><trkpt lat="32.772203" lon="10.5518199"><ele>340.0</ele><time>2026-04-26T14:23:06.68Z</time></trkpt><trkpt lat="32.7721717" lon="10.5516264"><ele>340.0</ele><time>2026-04-26T14:23:07.646Z</time></trkpt><trkpt lat="32.7721466" lon="10.5514472"><ele>340.0</ele><time>2026-04-26T14:23:08.639Z</time></trkpt><trkpt lat="32.7721254" lon="10.5512815"><ele>340.0</ele><time>2026-04-26T14:23:09.652Z</time></trkpt><trkpt lat="32.7721011" lon="10.5511286"><ele>340.0</ele><time>2026-04-26T14:23:10.646Z</time></trkpt><trkpt lat="32.7720628" lon="10.5509969"><ele>341.0</ele><time>2026-04-26T14:23:11.638Z</time></trkpt><trkpt lat="32.7720073" lon="10.5508793"><ele>342.0</ele><time>2026-04-26T14:23:12.669Z</time></trkpt><trkpt lat="32.7719388" lon="10.5507609"><ele>343.0</ele><time>2026-04-26T14:23:13.646Z</time></trkpt><trkpt lat="32.7718315" lon="10.5506611"><ele>344.0</ele><time>2026-04-26T14:23:14.639Z</time></trkpt><trkpt lat="32.7716835" lon="10.5505474"><ele>344.0</ele><time>2026-04-26T14:23:15.63Z</time></trkpt><trkpt lat="32.7714939" lon="10.5504143"><ele>344.0</ele><time>2026-04-26T14:23:16.612Z</time></trkpt><trkpt lat="32.7712854" lon="10.5502677"><ele>344.0</ele><time>2026-04-26T14:23:17.63Z</time></trkpt><trkpt lat="32.7710801" lon="10.5501213"><ele>344.0</ele><time>2026-04-26T14:23:18.631Z</time></trkpt><trkpt lat="32.7708883" lon="10.5499929"><ele>344.6666666666667</ele><time>2026-04-26T14:23:19.628Z</time></trkpt><trkpt lat="32.7707272" lon="10.5498837"><ele>345.3333333333333</ele><time>2026-04-26T14:23:20.644Z</time></trkpt><trkpt lat="32.7705828" lon="10.5497791"><ele>346.0</ele><time>2026-04-26T14:23:21.683Z</time></trkpt><trkpt lat="32.7704597" lon="10.5496839"><ele>346.0</ele><time>2026-04-26T14:23:22.632Z</time></trkpt><trkpt lat="32.7703459" lon="10.5496059"><ele>346.0</ele><time>2026-04-26T14:23:23.642Z</time></trkpt><trkpt lat="32.7702369" lon="10.5495208"><ele>346.0</ele><time>2026-04-26T14:23:24.638Z</time></trkpt><trkpt lat="32.7701358" lon="10.5494269"><ele>346.0</ele><time>2026-04-26T14:23:25.607Z</time></trkpt><trkpt lat="32.7700409" lon="10.5493205"><ele>347.0</ele><time>2026-04-26T14:23:26.623Z</time></trkpt><trkpt lat="32.7699697" lon="10.5491851"><ele>348.0</ele><time>2026-04-26T14:23:27.612Z</time></trkpt><trkpt lat="32.7699079" lon="10.5490214"><ele>349.0</ele><time>2026-04-26T14:23:28.613Z</time></trkpt><trkpt lat="32.7698402" lon="10.5488431"><ele>349.5</ele><time>2026-04-26T14:23:29.64Z</time></trkpt><trkpt lat="32.7697792" lon="10.5486756"><ele>350.0</ele><time>2026-04-26T14:23:30.641Z</time></trkpt><trkpt lat="32.7697249" lon="10.5485281"><ele>350.5</ele><time>2026-04-26T14:23:31.626Z</time></trkpt><trkpt lat="32.7696792" lon="10.5484018"><ele>351.0</ele><time>2026-04-26T14:23:32.635Z</time></trkpt><trkpt lat="32.769635" lon="10.5482708"><ele>351.0</ele><time>2026-04-26T14:23:33.626Z</time></trkpt><trkpt lat="32.7695941" lon="10.54814"><ele>351.0</ele><time>2026-04-26T14:23:34.632Z</time></trkpt><trkpt lat="32.7695526" lon="10.5480027"><ele>351.0</ele><time>2026-04-26T14:23:35.634Z</time></trkpt><trkpt lat="32.7695148" lon="10.5478575"><ele>351.0</ele><time>2026-04-26T14:23:36.648Z</time></trkpt><trkpt lat="32.7694905" lon="10.5477058"><ele>352.0</ele><time>2026-04-26T14:23:37.641Z</time></trkpt><trkpt lat="32.7694827" lon="10.5475495"><ele>353.0</ele><time>2026-04-26T14:23:38.626Z</time></trkpt><trkpt lat="32.7695001" lon="10.5473819"><ele>354.0</ele><time>2026-04-26T14:23:39.615Z</time></trkpt><trkpt lat="32.7695299" lon="10.5471608"><ele>356.3333333333333</ele><time>2026-04-26T14:23:40.634Z</time></trkpt><trkpt lat="32.7695589" lon="10.5469199"><ele>358.66666666666663</ele><time>2026-04-26T14:23:41.632Z</time></trkpt><trkpt lat="32.7695819" lon="10.5467089"><ele>361.0</ele><time>2026-04-26T14:23:42.646Z</time></trkpt><trkpt lat="32.7696072" lon="10.5465129"><ele>361.0</ele><time>2026-04-26T14:23:43.622Z</time></trkpt><trkpt lat="32.7696293" lon="10.5463251"><ele>361.0</ele><time>2026-04-26T14:23:44.637Z</time></trkpt><trkpt lat="32.7696577" lon="10.5461585"><ele>361.0</ele><time>2026-04-26T14:23:45.635Z</time></trkpt><trkpt lat="32.7696753" lon="10.546019"><ele>361.0</ele><time>2026-04-26T14:23:46.625Z</time></trkpt><trkpt lat="32.7696922" lon="10.5459007"><ele>363.0</ele><time>2026-04-26T14:23:47.635Z</time></trkpt><trkpt lat="32.7697037" lon="10.5457875"><ele>365.0</ele><time>2026-04-26T14:23:48.623Z</time></trkpt><trkpt lat="32.7697207" lon="10.5456846"><ele>367.0</ele><time>2026-04-26T14:23:49.623Z</time></trkpt><trkpt lat="32.7697445" lon="10.5455781"><ele>369.0</ele><time>2026-04-26T14:23:50.628Z</time></trkpt><trkpt lat="32.7697768" lon="10.5454777"><ele>371.0</ele><time>2026-04-26T14:23:51.637Z</time></trkpt><trkpt lat="32.7698106" lon="10.5453881"><ele>370.6</ele><time>2026-04-26T14:23:52.637Z</time></trkpt><trkpt lat="32.769845" lon="10.5452934"><ele>370.20000000000005</ele><time>2026-04-26T14:23:53.634Z</time></trkpt><trkpt lat="32.7698855" lon="10.5452001"><ele>369.79999999999995</ele><time>2026-04-26T14:23:54.64Z</time></trkpt><trkpt lat="32.7699368" lon="10.5450955"><ele>369.4</ele><time>2026-04-26T14:23:55.613Z</time></trkpt><trkpt lat="32.7699838" lon="10.5450053"><ele>369.0</ele><time>2026-04-26T14:23:56.632Z</time></trkpt><trkpt lat="32.7700319" lon="10.5449102"><ele>369.0</ele><time>2026-04-26T14:23:57.623Z</time></trkpt><trkpt lat="32.7700774" lon="10.5448207"><ele>369.0</ele><time>2026-04-26T14:23:58.647Z</time></trkpt><trkpt lat="32.7701189" lon="10.5447334"><ele>369.0</ele><time>2026-04-26T14:23:59.627Z</time></trkpt><trkpt lat="32.7701575" lon="10.5446448"><ele>369.0</ele><time>2026-04-26T14:24:00.601Z</time></trkpt><trkpt lat="32.770194" lon="10.5445694"><ele>369.0</ele><time>2026-04-26T14:24:01.641Z</time></trkpt><trkpt lat="32.7702284" lon="10.5444988"><ele>369.0</ele><time>2026-04-26T14:24:02.632Z</time></trkpt><trkpt lat="32.7702613" lon="10.5444349"><ele>368.25</ele><time>2026-04-26T14:24:03.634Z</time></trkpt><trkpt lat="32.7703256" lon="10.5443246"><ele>367.5</ele><time>2026-04-26T14:24:05.634Z</time></trkpt><trkpt lat="32.770398" lon="10.5442096"><ele>366.75</ele><time>2026-04-26T14:24:07.62Z</time></trkpt><trkpt lat="32.7704657" lon="10.5441005"><ele>366.0</ele><time>2026-04-26T14:24:09.638Z</time></trkpt><trkpt lat="32.7705328" lon="10.5440003"><ele>366.0</ele><time>2026-04-26T14:24:11.643Z</time></trkpt><trkpt lat="32.7705984" lon="10.5439003"><ele>366.0</ele><time>2026-04-26T14:24:13.635Z</time></trkpt><trkpt lat="32.770667" lon="10.543807"><ele>366.0</ele><time>2026-04-26T14:24:15.634Z</time></trkpt><trkpt lat="32.7707262" lon="10.54371"><ele>366.0</ele><time>2026-04-26T14:24:17.64Z</time></trkpt><trkpt lat="32.770777" lon="10.5436261"><ele>366.0</ele><time>2026-04-26T14:24:19.637Z</time></trkpt><trkpt lat="32.7708143" lon="10.5435518"><ele>366.20000000000005</ele><time>2026-04-26T14:24:21.625Z</time></trkpt><trkpt lat="32.7708594" lon="10.5434653"><ele>366.40000000000003</ele><time>2026-04-26T14:24:23.635Z</time></trkpt><trkpt lat="32.7709157" lon="10.5433737"><ele>366.6</ele><time>2026-04-26T14:24:25.659Z</time></trkpt><trkpt lat="32.7709648" lon="10.5432914"><ele>366.8</ele><time>2026-04-26T14:24:27.635Z</time></trkpt><trkpt lat="32.7710406" lon="10.5431663"><ele>367.0</ele><time>2026-04-26T14:24:29.645Z</time></trkpt><trkpt lat="32.771085" lon="10.5430808"><ele>367.8</ele><time>2026-04-26T14:24:30.641Z</time></trkpt><trkpt lat="32.7711317" lon="10.5430006"><ele>368.6</ele><time>2026-04-26T14:24:31.635Z</time></trkpt><trkpt lat="32.7711755" lon="10.5429059"><ele>369.40000000000003</ele><time>2026-04-26T14:24:32.693Z</time></trkpt><trkpt lat="32.771227" lon="10.5428044"><ele>370.20000000000005</ele><time>2026-04-26T14:24:33.626Z</time></trkpt><trkpt lat="32.7712816" lon="10.5427023"><ele>371.0</ele><time>2026-04-26T14:24:34.621Z</time></trkpt><trkpt lat="32.7713352" lon="10.5426045"><ele>371.0</ele><time>2026-04-26T14:24:35.624Z</time></trkpt><trkpt lat="32.7714006" lon="10.5425008"><ele>371.0</ele><time>2026-04-26T14:24:36.627Z</time></trkpt><trkpt lat="32.7714628" lon="10.5423963"><ele>371.0</ele><time>2026-04-26T14:24:37.629Z</time></trkpt><trkpt lat="32.7715267" lon="10.5422909"><ele>371.0</ele><time>2026-04-26T14:24:38.62Z</time></trkpt><trkpt lat="32.7715937" lon="10.5421842"><ele>371.0</ele><time>2026-04-26T14:24:39.633Z</time></trkpt><trkpt lat="32.7716669" lon="10.5420806"><ele>371.0</ele><time>2026-04-26T14:24:40.642Z</time></trkpt><trkpt lat="32.7717348" lon="10.5419771"><ele>371.0</ele><time>2026-04-26T14:24:41.644Z</time></trkpt><trkpt lat="32.7718019" lon="10.5418729"><ele>371.0</ele><time>2026-04-26T14:24:42.615Z</time></trkpt><trkpt lat="32.7718558" lon="10.541769"><ele>371.0</ele><time>2026-04-26T14:24:43.626Z</time></trkpt><trkpt lat="32.7718965" lon="10.5416548"><ele>371.0</ele><time>2026-04-26T14:24:44.659Z</time></trkpt><trkpt lat="32.7719181" lon="10.5415114"><ele>372.5</ele><time>2026-04-26T14:24:45.641Z</time></trkpt><trkpt lat="32.7719236" lon="10.541367"><ele>374.0</ele><time>2026-04-26T14:24:46.633Z</time></trkpt><trkpt lat="32.7719248" lon="10.5412242"><ele>375.5</ele><time>2026-04-26T14:24:47.64Z</time></trkpt><trkpt lat="32.7719269" lon="10.541081"><ele>377.0</ele><time>2026-04-26T14:24:48.63Z</time></trkpt><trkpt lat="32.7719371" lon="10.5409342"><ele>378.0</ele><time>2026-04-26T14:24:49.639Z</time></trkpt><trkpt lat="32.7719677" lon="10.5408044"><ele>379.0</ele><time>2026-04-26T14:24:50.637Z</time></trkpt><trkpt lat="32.7720111" lon="10.5406805"><ele>380.0</ele><time>2026-04-26T14:24:51.626Z</time></trkpt><trkpt lat="32.7720607" lon="10.5405651"><ele>381.0</ele><time>2026-04-26T14:24:52.572Z</time></trkpt><trkpt lat="32.7721106" lon="10.54045"><ele>382.0</ele><time>2026-04-26T14:24:53.628Z</time></trkpt><trkpt lat="32.7721553" lon="10.540344"><ele>382.0</ele><time>2026-04-26T14:24:54.627Z</time></trkpt><trkpt lat="32.7721818" lon="10.5402649"><ele>382.0</ele><time>2026-04-26T14:24:55.624Z</time></trkpt><trkpt lat="32.7722159" lon="10.5401544"><ele>382.0</ele><time>2026-04-26T14:24:57.629Z</time></trkpt><trkpt lat="32.7722392" lon="10.5400691"><ele>382.0</ele><time>2026-04-26T14:25:01.635Z</time></trkpt><trkpt lat="32.7722489" lon="10.5399558"><ele>382.0</ele><time>2026-04-26T14:25:11.635Z</time></trkpt><trkpt lat="32.7722284" lon="10.5398495"><ele>382.0</ele><time>2026-04-26T14:25:13.636Z</time></trkpt><trkpt lat="32.7721832" lon="10.5397252"><ele>382.0</ele><time>2026-04-26T14:25:15.62Z</time></trkpt><trkpt lat="32.7721261" lon="10.5396072"><ele>382.0</ele><time>2026-04-26T14:25:17.595Z</time></trkpt><trkpt lat="32.7720792" lon="10.5395458"><ele>382.0</ele><time>2026-04-26T14:25:18.616Z</time></trkpt><trkpt lat="32.7720178" lon="10.5394818"><ele>382.0</ele><time>2026-04-26T14:25:19.625Z</time></trkpt><trkpt lat="32.7719402" lon="10.539418"><ele>382.0</ele><time>2026-04-26T14:25:20.634Z</time></trkpt><trkpt lat="32.7718501" lon="10.539368"><ele>379.20000000000005</ele><time>2026-04-26T14:25:21.631Z</time></trkpt><trkpt lat="32.7717692" lon="10.5393186"><ele>376.4</ele><time>2026-04-26T14:25:22.627Z</time></trkpt><trkpt lat="32.7716888" lon="10.5392647"><ele>373.6</ele><time>2026-04-26T14:25:23.637Z</time></trkpt><trkpt lat="32.7716217" lon="10.5391836"><ele>370.79999999999995</ele><time>2026-04-26T14:25:24.643Z</time></trkpt><trkpt lat="32.7715524" lon="10.5391015"><ele>368.0</ele><time>2026-04-26T14:25:25.607Z</time></trkpt><trkpt lat="32.7714793" lon="10.5390082"><ele>368.0</ele><time>2026-04-26T14:25:26.632Z</time></trkpt><trkpt lat="32.7713999" lon="10.5389106"><ele>368.0</ele><time>2026-04-26T14:25:27.628Z</time></trkpt><trkpt lat="32.7713209" lon="10.5388161"><ele>368.0</ele><time>2026-04-26T14:25:28.637Z</time></trkpt><trkpt lat="32.7712447" lon="10.538715"><ele>368.0</ele><time>2026-04-26T14:25:29.609Z</time></trkpt><trkpt lat="32.7711626" lon="10.5386185"><ele>367.0</ele><time>2026-04-26T14:25:30.638Z</time></trkpt><trkpt lat="32.7710822" lon="10.5385181"><ele>366.0</ele><time>2026-04-26T14:25:31.58Z</time></trkpt><trkpt lat="32.7709938" lon="10.5384136"><ele>365.0</ele><time>2026-04-26T14:25:32.64Z</time></trkpt><trkpt lat="32.7709107" lon="10.5383136"><ele>364.0</ele><time>2026-04-26T14:25:33.574Z</time></trkpt><trkpt lat="32.7708304" lon="10.5382128"><ele>362.79999999999995</ele><time>2026-04-26T14:25:34.637Z</time></trkpt><trkpt lat="32.7707552" lon="10.538119"><ele>361.59999999999997</ele><time>2026-04-26T14:25:35.577Z</time></trkpt><trkpt lat="32.7706791" lon="10.5380226"><ele>360.4</ele><time>2026-04-26T14:25:36.585Z</time></trkpt><trkpt lat="32.7706037" lon="10.5379322"><ele>359.2</ele><time>2026-04-26T14:25:37.583Z</time></trkpt><trkpt lat="32.7705324" lon="10.5378436"><ele>358.0</ele><time>2026-04-26T14:25:38.582Z</time></trkpt><trkpt lat="32.7704575" lon="10.5377572"><ele>357.2</ele><time>2026-04-26T14:25:39.603Z</time></trkpt><trkpt lat="32.7703866" lon="10.5376727"><ele>356.4</ele><time>2026-04-26T14:25:40.627Z</time></trkpt><trkpt lat="32.7703226" lon="10.5376009"><ele>355.59999999999997</ele><time>2026-04-26T14:25:41.602Z</time></trkpt><trkpt lat="32.7702697" lon="10.5375327"><ele>354.79999999999995</ele><time>2026-04-26T14:25:42.597Z</time></trkpt><trkpt lat="32.7702369" lon="10.5374635"><ele>354.0</ele><time>2026-04-26T14:25:43.595Z</time></trkpt><trkpt lat="32.7702224" lon="10.5373175"><ele>354.0</ele><time>2026-04-26T14:25:45.678Z</time></trkpt><trkpt lat="32.7703009" lon="10.5372224"><ele>354.0</ele><time>2026-04-26T14:25:47.698Z</time></trkpt><trkpt lat="32.7703725" lon="10.5371879"><ele>354.0</ele><time>2026-04-26T14:25:48.687Z</time></trkpt><trkpt lat="32.7704721" lon="10.5371509"><ele>354.0</ele><time>2026-04-26T14:25:49.689Z</time></trkpt><trkpt lat="32.7705871" lon="10.537103"><ele>354.0</ele><time>2026-04-26T14:25:50.67Z</time></trkpt><trkpt lat="32.7707111" lon="10.5370495"><ele>353.5</ele><time>2026-04-26T14:25:51.652Z</time></trkpt><trkpt lat="32.7708171" lon="10.5369972"><ele>353.0</ele><time>2026-04-26T14:25:52.68Z</time></trkpt><trkpt lat="32.7709146" lon="10.5369434"><ele>352.5</ele><time>2026-04-26T14:25:53.7Z</time></trkpt><trkpt lat="32.7710258" lon="10.5368712"><ele>352.0</ele><time>2026-04-26T14:25:54.709Z</time></trkpt><trkpt lat="32.7711412" lon="10.5367868"><ele>353.5</ele><time>2026-04-26T14:25:55.673Z</time></trkpt><trkpt lat="32.7712549" lon="10.5366942"><ele>355.0</ele><time>2026-04-26T14:25:56.706Z</time></trkpt><trkpt lat="32.7713688" lon="10.5366062"><ele>356.5</ele><time>2026-04-26T14:25:57.646Z</time></trkpt><trkpt lat="32.7714761" lon="10.5365205"><ele>358.0</ele><time>2026-04-26T14:25:58.693Z</time></trkpt><trkpt lat="32.7715902" lon="10.5364325"><ele>358.0</ele><time>2026-04-26T14:25:59.698Z</time></trkpt><trkpt lat="32.7717055" lon="10.5363491"><ele>358.0</ele><time>2026-04-26T14:26:00.685Z</time></trkpt><trkpt lat="32.7718221" lon="10.5362652"><ele>358.0</ele><time>2026-04-26T14:26:01.698Z</time></trkpt><trkpt lat="32.7719441" lon="10.5361823"><ele>358.0</ele><time>2026-04-26T14:26:02.717Z</time></trkpt><trkpt lat="32.7720638" lon="10.5361046"><ele>358.0</ele><time>2026-04-26T14:26:03.704Z</time></trkpt><trkpt lat="32.7721863" lon="10.5360286"><ele>358.0</ele><time>2026-04-26T14:26:04.68Z</time></trkpt><trkpt lat="32.7723058" lon="10.5359496"><ele>358.0</ele><time>2026-04-26T14:26:05.691Z</time></trkpt><trkpt lat="32.7724304" lon="10.5358736"><ele>358.0</ele><time>2026-04-26T14:26:06.648Z</time></trkpt><trkpt lat="32.7725571" lon="10.5357926"><ele>358.0</ele><time>2026-04-26T14:26:07.644Z</time></trkpt><trkpt lat="32.7726723" lon="10.5357125"><ele>358.0</ele><time>2026-04-26T14:26:08.705Z</time></trkpt><trkpt lat="32.7727785" lon="10.535648"><ele>358.0</ele><time>2026-04-26T14:26:09.613Z</time></trkpt><trkpt lat="32.7728744" lon="10.5355857"><ele>358.0</ele><time>2026-04-26T14:26:10.619Z</time></trkpt><trkpt lat="32.7729697" lon="10.5355242"><ele>358.25</ele><time>2026-04-26T14:26:11.591Z</time></trkpt><trkpt lat="32.7730665" lon="10.5354551"><ele>358.5</ele><time>2026-04-26T14:26:12.639Z</time></trkpt><trkpt lat="32.7731655" lon="10.5353768"><ele>358.75</ele><time>2026-04-26T14:26:13.644Z</time></trkpt><trkpt lat="32.7732645" lon="10.5352968"><ele>359.0</ele><time>2026-04-26T14:26:14.604Z</time></trkpt><trkpt lat="32.7733641" lon="10.5352218"><ele>359.0</ele><time>2026-04-26T14:26:15.612Z</time></trkpt><trkpt lat="32.7734673" lon="10.53514"><ele>359.0</ele><time>2026-04-26T14:26:16.657Z</time></trkpt><trkpt lat="32.7735757" lon="10.5350584"><ele>359.0</ele><time>2026-04-26T14:26:17.642Z</time></trkpt><trkpt lat="32.7736926" lon="10.5349829"><ele>359.0</ele><time>2026-04-26T14:26:18.583Z</time></trkpt><trkpt lat="32.7738168" lon="10.534921"><ele>360.5</ele><time>2026-04-26T14:26:19.584Z</time></trkpt><trkpt lat="32.773949" lon="10.5348645"><ele>362.0</ele><time>2026-04-26T14:26:20.576Z</time></trkpt><trkpt lat="32.7740901" lon="10.5348124"><ele>363.5</ele><time>2026-04-26T14:26:21.579Z</time></trkpt><trkpt lat="32.7742417" lon="10.5347647"><ele>365.0</ele><time>2026-04-26T14:26:22.604Z</time></trkpt><trkpt lat="32.7743994" lon="10.534717"><ele>366.33333333333337</ele><time>2026-04-26T14:26:23.577Z</time></trkpt><trkpt lat="32.7745542" lon="10.5346691"><ele>367.6666666666667</ele><time>2026-04-26T14:26:24.576Z</time></trkpt><trkpt lat="32.7747084" lon="10.5346228"><ele>369.0</ele><time>2026-04-26T14:26:25.618Z</time></trkpt><trkpt lat="32.774855" lon="10.5345714"><ele>368.75</ele><time>2026-04-26T14:26:26.621Z</time></trkpt><trkpt lat="32.7749954" lon="10.5345118"><ele>368.5</ele><time>2026-04-26T14:26:27.575Z</time></trkpt><trkpt lat="32.7751311" lon="10.5344437"><ele>368.25</ele><time>2026-04-26T14:26:28.649Z</time></trkpt><trkpt lat="32.7752614" lon="10.5343616"><ele>368.0</ele><time>2026-04-26T14:26:29.578Z</time></trkpt><trkpt lat="32.7753896" lon="10.5342762"><ele>368.0</ele><time>2026-04-26T14:26:30.67Z</time></trkpt><trkpt lat="32.7755081" lon="10.5341919"><ele>368.0</ele><time>2026-04-26T14:26:31.575Z</time></trkpt><trkpt lat="32.7756237" lon="10.5341159"><ele>368.0</ele><time>2026-04-26T14:26:32.608Z</time></trkpt><trkpt lat="32.7757451" lon="10.5340412"><ele>368.0</ele><time>2026-04-26T14:26:33.609Z</time></trkpt><trkpt lat="32.7758642" lon="10.5339697"><ele>368.0</ele><time>2026-04-26T14:26:34.577Z</time></trkpt><trkpt lat="32.7759912" lon="10.5339208"><ele>368.0</ele><time>2026-04-26T14:26:35.58Z</time></trkpt><trkpt lat="32.7761292" lon="10.53389"><ele>368.0</ele><time>2026-04-26T14:26:36.633Z</time></trkpt><trkpt lat="32.7762636" lon="10.5338697"><ele>368.0</ele><time>2026-04-26T14:26:37.587Z</time></trkpt><trkpt lat="32.7764049" lon="10.5338472"><ele>368.0</ele><time>2026-04-26T14:26:38.59Z</time></trkpt><trkpt lat="32.7765482" lon="10.5338143"><ele>368.0</ele><time>2026-04-26T14:26:39.6Z</time></trkpt><trkpt lat="32.776699" lon="10.5337557"><ele>368.0</ele><time>2026-04-26T14:26:40.63Z</time></trkpt><trkpt lat="32.7768552" lon="10.5336822"><ele>368.0</ele><time>2026-04-26T14:26:41.591Z</time></trkpt><trkpt lat="32.7770099" lon="10.5336084"><ele>368.0</ele><time>2026-04-26T14:26:42.64Z</time></trkpt><trkpt lat="32.7771632" lon="10.5335291"><ele>368.0</ele><time>2026-04-26T14:26:43.629Z</time></trkpt><trkpt lat="32.7773168" lon="10.5334516"><ele>368.0</ele><time>2026-04-26T14:26:44.603Z</time></trkpt><trkpt lat="32.7774727" lon="10.5333754"><ele>368.0</ele><time>2026-04-26T14:26:45.58Z</time></trkpt><trkpt lat="32.7776281" lon="10.5333049"><ele>368.0</ele><time>2026-04-26T14:26:46.592Z</time></trkpt><trkpt lat="32.7777854" lon="10.5332306"><ele>369.6666666666667</ele><time>2026-04-26T14:26:47.622Z</time></trkpt><trkpt lat="32.7779383" lon="10.5331606"><ele>371.3333333333333</ele><time>2026-04-26T14:26:48.608Z</time></trkpt><trkpt lat="32.7780884" lon="10.5331013"><ele>373.0</ele><time>2026-04-26T14:26:49.605Z</time></trkpt><trkpt lat="32.7782429" lon="10.533058"><ele>373.0</ele><time>2026-04-26T14:26:50.641Z</time></trkpt><trkpt lat="32.7783922" lon="10.5330296"><ele>373.0</ele><time>2026-04-26T14:26:51.605Z</time></trkpt><trkpt lat="32.7785477" lon="10.533008"><ele>373.0</ele><time>2026-04-26T14:26:52.634Z</time></trkpt><trkpt lat="32.7786928" lon="10.533004"><ele>374.0</ele><time>2026-04-26T14:26:53.646Z</time></trkpt><trkpt lat="32.7788316" lon="10.5330142"><ele>375.0</ele><time>2026-04-26T14:26:54.684Z</time></trkpt><trkpt lat="32.7789595" lon="10.5330193"><ele>376.0</ele><time>2026-04-26T14:26:55.604Z</time></trkpt><trkpt lat="32.7790879" lon="10.5330088"><ele>377.0</ele><time>2026-04-26T14:26:56.631Z</time></trkpt><trkpt lat="32.7792102" lon="10.5329856"><ele>377.0</ele><time>2026-04-26T14:26:57.617Z</time></trkpt><trkpt lat="32.77934" lon="10.5329444"><ele>377.0</ele><time>2026-04-26T14:26:58.625Z</time></trkpt><trkpt lat="32.7794795" lon="10.5328956"><ele>377.0</ele><time>2026-04-26T14:26:59.648Z</time></trkpt><trkpt lat="32.7796331" lon="10.5328457"><ele>377.0</ele><time>2026-04-26T14:27:00.644Z</time></trkpt><trkpt lat="32.7797905" lon="10.5328121"><ele>377.0</ele><time>2026-04-26T14:27:01.603Z</time></trkpt><trkpt lat="32.779957" lon="10.5327998"><ele>377.0</ele><time>2026-04-26T14:27:02.635Z</time></trkpt><trkpt lat="32.7801188" lon="10.5328019"><ele>377.0</ele><time>2026-04-26T14:27:03.614Z</time></trkpt><trkpt lat="32.7802832" lon="10.5328139"><ele>377.0</ele><time>2026-04-26T14:27:04.642Z</time></trkpt><trkpt lat="32.7804409" lon="10.5328245"><ele>377.0</ele><time>2026-04-26T14:27:05.635Z</time></trkpt><trkpt lat="32.7805926" lon="10.5328316"><ele>377.0</ele><time>2026-04-26T14:27:06.613Z</time></trkpt><trkpt lat="32.7807403" lon="10.5328371"><ele>377.0</ele><time>2026-04-26T14:27:07.622Z</time></trkpt><trkpt lat="32.7808816" lon="10.5328323"><ele>377.0</ele><time>2026-04-26T14:27:08.621Z</time></trkpt><trkpt lat="32.7810211" lon="10.5328104"><ele>377.0</ele><time>2026-04-26T14:27:09.649Z</time></trkpt><trkpt lat="32.7811599" lon="10.5327812"><ele>377.0</ele><time>2026-04-26T14:27:10.65Z</time></trkpt><trkpt lat="32.7812978" lon="10.53275"><ele>378.0</ele><time>2026-04-26T14:27:11.643Z</time></trkpt><trkpt lat="32.7814379" lon="10.5327256"><ele>379.0</ele><time>2026-04-26T14:27:12.641Z</time></trkpt><trkpt lat="32.78158" lon="10.53271"><ele>380.0</ele><time>2026-04-26T14:27:13.619Z</time></trkpt><trkpt lat="32.7817269" lon="10.532705"><ele>381.0</ele><time>2026-04-26T14:27:14.693Z</time></trkpt><trkpt lat="32.782019" lon="10.5327187"><ele>381.75</ele><time>2026-04-26T14:27:16.588Z</time></trkpt><trkpt lat="32.7821641" lon="10.5327241"><ele>382.5</ele><time>2026-04-26T14:27:17.61Z</time></trkpt><trkpt lat="32.7823105" lon="10.5327243"><ele>383.25</ele><time>2026-04-26T14:27:18.614Z</time></trkpt><trkpt lat="32.7824557" lon="10.5327208"><ele>384.0</ele><time>2026-04-26T14:27:19.61Z</time></trkpt><trkpt lat="32.7826006" lon="10.5327132"><ele>385.75</ele><time>2026-04-26T14:27:20.627Z</time></trkpt><trkpt lat="32.7827419" lon="10.5326975"><ele>387.5</ele><time>2026-04-26T14:27:21.629Z</time></trkpt><trkpt lat="32.7828797" lon="10.5326746"><ele>389.25</ele><time>2026-04-26T14:27:22.61Z</time></trkpt><trkpt lat="32.7830169" lon="10.5326415"><ele>391.0</ele><time>2026-04-26T14:27:23.624Z</time></trkpt><trkpt lat="32.7831517" lon="10.5326038"><ele>391.0</ele><time>2026-04-26T14:27:24.635Z</time></trkpt><trkpt lat="32.7832861" lon="10.5325721"><ele>391.0</ele><time>2026-04-26T14:27:25.627Z</time></trkpt><trkpt lat="32.7834168" lon="10.5325414"><ele>391.0</ele><time>2026-04-26T14:27:26.596Z</time></trkpt><trkpt lat="32.7835498" lon="10.5325124"><ele>391.0</ele><time>2026-04-26T14:27:27.621Z</time></trkpt><trkpt lat="32.7836775" lon="10.5324905"><ele>394.5</ele><time>2026-04-26T14:27:28.611Z</time></trkpt><trkpt lat="32.7838057" lon="10.5324683"><ele>398.0</ele><time>2026-04-26T14:27:29.619Z</time></trkpt><trkpt lat="32.7839317" lon="10.5324458"><ele>401.5</ele><time>2026-04-26T14:27:30.61Z</time></trkpt><trkpt lat="32.7840562" lon="10.5324452"><ele>405.0</ele><time>2026-04-26T14:27:31.585Z</time></trkpt><trkpt lat="32.7841864" lon="10.5324703"><ele>405.0</ele><time>2026-04-26T14:27:32.643Z</time></trkpt><trkpt lat="32.7843144" lon="10.5325077"><ele>405.0</ele><time>2026-04-26T14:27:33.654Z</time></trkpt><trkpt lat="32.784433" lon="10.5325653"><ele>405.0</ele><time>2026-04-26T14:27:34.645Z</time></trkpt><trkpt lat="32.7845441" lon="10.5326387"><ele>405.0</ele><time>2026-04-26T14:27:35.608Z</time></trkpt><trkpt lat="32.7846435" lon="10.5327368"><ele>404.8</ele><time>2026-04-26T14:27:36.64Z</time></trkpt><trkpt lat="32.7847288" lon="10.5328337"><ele>404.6</ele><time>2026-04-26T14:27:37.632Z</time></trkpt><trkpt lat="32.7848082" lon="10.5329033"><ele>404.4</ele><time>2026-04-26T14:27:38.63Z</time></trkpt><trkpt lat="32.7848891" lon="10.5329334"><ele>404.2</ele><time>2026-04-26T14:27:39.632Z</time></trkpt><trkpt lat="32.7849644" lon="10.5329256"><ele>404.0</ele><time>2026-04-26T14:27:40.629Z</time></trkpt><trkpt lat="32.7850284" lon="10.5328829"><ele>406.66666666666663</ele><time>2026-04-26T14:27:41.614Z</time></trkpt><trkpt lat="32.7850675" lon="10.5328033"><ele>409.3333333333333</ele><time>2026-04-26T14:27:42.618Z</time></trkpt><trkpt lat="32.7850774" lon="10.5326995"><ele>412.0</ele><time>2026-04-26T14:27:43.586Z</time></trkpt><trkpt lat="32.785056" lon="10.5326018"><ele>414.66666666666663</ele><time>2026-04-26T14:27:44.618Z</time></trkpt><trkpt lat="32.7850067" lon="10.5325117"><ele>417.3333333333333</ele><time>2026-04-26T14:27:45.605Z</time></trkpt><trkpt lat="32.7849365" lon="10.5324206"><ele>420.0</ele><time>2026-04-26T14:27:46.626Z</time></trkpt><trkpt lat="32.7848639" lon="10.53231"><ele>420.0</ele><time>2026-04-26T14:27:47.646Z</time></trkpt><trkpt lat="32.7848094" lon="10.532178"><ele>420.0</ele><time>2026-04-26T14:27:48.654Z</time></trkpt><trkpt lat="32.7847653" lon="10.5320346"><ele>420.0</ele><time>2026-04-26T14:27:49.633Z</time></trkpt><trkpt lat="32.7847374" lon="10.5318762"><ele>420.0</ele><time>2026-04-26T14:27:50.613Z</time></trkpt><trkpt lat="32.7847219" lon="10.5317139"><ele>423.0</ele><time>2026-04-26T14:27:51.625Z</time></trkpt><trkpt lat="32.7847101" lon="10.5315475"><ele>426.0</ele><time>2026-04-26T14:27:52.631Z</time></trkpt><trkpt lat="32.7847006" lon="10.5313793"><ele>429.0</ele><time>2026-04-26T14:27:53.628Z</time></trkpt><trkpt lat="32.7847012" lon="10.5312042"><ele>432.0</ele><time>2026-04-26T14:27:54.699Z</time></trkpt><trkpt lat="32.7847107" lon="10.5310328"><ele>433.66666666666663</ele><time>2026-04-26T14:27:55.66Z</time></trkpt><trkpt lat="32.7847325" lon="10.5308545"><ele>435.3333333333333</ele><time>2026-04-26T14:27:56.622Z</time></trkpt><trkpt lat="32.7847701" lon="10.5306785"><ele>437.0</ele><time>2026-04-26T14:27:57.619Z</time></trkpt><trkpt lat="32.7848291" lon="10.5305072"><ele>437.66666666666663</ele><time>2026-04-26T14:27:58.627Z</time></trkpt><trkpt lat="32.7848898" lon="10.5303337"><ele>438.33333333333337</ele><time>2026-04-26T14:27:59.63Z</time></trkpt><trkpt lat="32.7849527" lon="10.5301687"><ele>439.0</ele><time>2026-04-26T14:28:00.584Z</time></trkpt><trkpt lat="32.7850249" lon="10.5300027"><ele>439.0</ele><time>2026-04-26T14:28:01.614Z</time></trkpt><trkpt lat="32.7850885" lon="10.5298342"><ele>439.0</ele><time>2026-04-26T14:28:02.634Z</time></trkpt><trkpt lat="32.7851387" lon="10.5296689"><ele>439.0</ele><time>2026-04-26T14:28:03.607Z</time></trkpt><trkpt lat="32.7851914" lon="10.5295202"><ele>439.0</ele><time>2026-04-26T14:28:04.625Z</time></trkpt><trkpt lat="32.7852562" lon="10.5293869"><ele>445.25</ele><time>2026-04-26T14:28:05.627Z</time></trkpt><trkpt lat="32.7853127" lon="10.5292465"><ele>451.5</ele><time>2026-04-26T14:28:06.632Z</time></trkpt><trkpt lat="32.7853415" lon="10.5290976"><ele>457.75</ele><time>2026-04-26T14:28:07.634Z</time></trkpt><trkpt lat="32.7853281" lon="10.5289331"><ele>464.0</ele><time>2026-04-26T14:28:08.627Z</time></trkpt><trkpt lat="32.7852939" lon="10.5287785"><ele>464.0</ele><time>2026-04-26T14:28:09.623Z</time></trkpt><trkpt lat="32.7852788" lon="10.5286393"><ele>464.0</ele><time>2026-04-26T14:28:10.615Z</time></trkpt><trkpt lat="32.7852808" lon="10.5285099"><ele>464.0</ele><time>2026-04-26T14:28:11.612Z</time></trkpt><trkpt lat="32.7853015" lon="10.5283865"><ele>464.0</ele><time>2026-04-26T14:28:12.609Z</time></trkpt><trkpt lat="32.7853496" lon="10.5282775"><ele>464.0</ele><time>2026-04-26T14:28:13.653Z</time></trkpt><trkpt lat="32.7854067" lon="10.5282021"><ele>464.0</ele><time>2026-04-26T14:28:14.617Z</time></trkpt><trkpt lat="32.7854785" lon="10.5281479"><ele>464.0</ele><time>2026-04-26T14:28:15.631Z</time></trkpt><trkpt lat="32.7855587" lon="10.5280884"><ele>464.0</ele><time>2026-04-26T14:28:16.619Z</time></trkpt><trkpt lat="32.7856453" lon="10.5280153"><ele>464.0</ele><time>2026-04-26T14:28:17.64Z</time></trkpt><trkpt lat="32.7857151" lon="10.5279318"><ele>464.0</ele><time>2026-04-26T14:28:18.625Z</time></trkpt><trkpt lat="32.7857643" lon="10.5278254"><ele>463.25</ele><time>2026-04-26T14:28:19.625Z</time></trkpt><trkpt lat="32.7858038" lon="10.5277008"><ele>462.5</ele><time>2026-04-26T14:28:20.627Z</time></trkpt><trkpt lat="32.7858257" lon="10.5275624"><ele>461.75</ele><time>2026-04-26T14:28:21.645Z</time></trkpt><trkpt lat="32.7858442" lon="10.527426"><ele>461.0</ele><time>2026-04-26T14:28:22.63Z</time></trkpt><trkpt lat="32.7858624" lon="10.5272889"><ele>461.0</ele><time>2026-04-26T14:28:23.587Z</time></trkpt><trkpt lat="32.7858823" lon="10.5271462"><ele>461.0</ele><time>2026-04-26T14:28:24.646Z</time></trkpt><trkpt lat="32.7859007" lon="10.5270142"><ele>461.0</ele><time>2026-04-26T14:28:25.6Z</time></trkpt><trkpt lat="32.7859176" lon="10.5268732"><ele>461.0</ele><time>2026-04-26T14:28:26.629Z</time></trkpt><trkpt lat="32.7859129" lon="10.526729"><ele>463.0</ele><time>2026-04-26T14:28:27.629Z</time></trkpt><trkpt lat="32.785883" lon="10.5265928"><ele>465.0</ele><time>2026-04-26T14:28:28.623Z</time></trkpt><trkpt lat="32.7858341" lon="10.5264565"><ele>467.0</ele><time>2026-04-26T14:28:29.638Z</time></trkpt><trkpt lat="32.7857646" lon="10.526314"><ele>469.0</ele><time>2026-04-26T14:28:30.617Z</time></trkpt><trkpt lat="32.7856974" lon="10.5261732"><ele>470.6</ele><time>2026-04-26T14:28:31.627Z</time></trkpt><trkpt lat="32.7856444" lon="10.5260422"><ele>472.2</ele><time>2026-04-26T14:28:32.624Z</time></trkpt><trkpt lat="32.7856045" lon="10.5259202"><ele>473.80000000000007</ele><time>2026-04-26T14:28:33.64Z</time></trkpt><trkpt lat="32.7855889" lon="10.5258035"><ele>475.40000000000003</ele><time>2026-04-26T14:28:34.594Z</time></trkpt><trkpt lat="32.7855909" lon="10.5256702"><ele>477.0</ele><time>2026-04-26T14:28:35.604Z</time></trkpt><trkpt lat="32.7856086" lon="10.5255307"><ele>476.25</ele><time>2026-04-26T14:28:36.601Z</time></trkpt><trkpt lat="32.7856447" lon="10.5253859"><ele>475.5</ele><time>2026-04-26T14:28:37.635Z</time></trkpt><trkpt lat="32.785685" lon="10.525242"><ele>474.75</ele><time>2026-04-26T14:28:38.638Z</time></trkpt><trkpt lat="32.7857236" lon="10.5251048"><ele>474.0</ele><time>2026-04-26T14:28:39.634Z</time></trkpt><trkpt lat="32.7857577" lon="10.5249569"><ele>474.0</ele><time>2026-04-26T14:28:40.634Z</time></trkpt><trkpt lat="32.7857901" lon="10.5248071"><ele>474.0</ele><time>2026-04-26T14:28:41.628Z</time></trkpt><trkpt lat="32.7858121" lon="10.5246608"><ele>474.0</ele><time>2026-04-26T14:28:42.626Z</time></trkpt><trkpt lat="32.7858286" lon="10.5245115"><ele>474.0</ele><time>2026-04-26T14:28:43.639Z</time></trkpt><trkpt lat="32.7858406" lon="10.5243603"><ele>473.25</ele><time>2026-04-26T14:28:44.605Z</time></trkpt><trkpt lat="32.7858466" lon="10.5241999"><ele>472.5</ele><time>2026-04-26T14:28:45.648Z</time></trkpt><trkpt lat="32.7858452" lon="10.5240399"><ele>471.75</ele><time>2026-04-26T14:28:46.604Z</time></trkpt><trkpt lat="32.7858447" lon="10.5238842"><ele>471.0</ele><time>2026-04-26T14:28:47.63Z</time></trkpt><trkpt lat="32.7858468" lon="10.5237329"><ele>470.5</ele><time>2026-04-26T14:28:48.644Z</time></trkpt><trkpt lat="32.7858505" lon="10.5235767"><ele>470.0</ele><time>2026-04-26T14:28:49.606Z</time></trkpt><trkpt lat="32.7858631" lon="10.5234081"><ele>469.5</ele><time>2026-04-26T14:28:50.621Z</time></trkpt><trkpt lat="32.7858824" lon="10.5232389"><ele>469.0</ele><time>2026-04-26T14:28:51.625Z</time></trkpt><trkpt lat="32.7859093" lon="10.5230664"><ele>468.0</ele><time>2026-04-26T14:28:52.628Z</time></trkpt><trkpt lat="32.7859355" lon="10.5228944"><ele>467.0</ele><time>2026-04-26T14:28:53.631Z</time></trkpt><trkpt lat="32.7859574" lon="10.5227324"><ele>466.0</ele><time>2026-04-26T14:28:54.643Z</time></trkpt><trkpt lat="32.7859808" lon="10.522583"><ele>465.0</ele><time>2026-04-26T14:28:55.607Z</time></trkpt><trkpt lat="32.7860033" lon="10.5224334"><ele>465.25</ele><time>2026-04-26T14:28:56.627Z</time></trkpt><trkpt lat="32.7860245" lon="10.5222897"><ele>465.5</ele><time>2026-04-26T14:28:57.621Z</time></trkpt><trkpt lat="32.7860487" lon="10.5221522"><ele>465.75</ele><time>2026-04-26T14:28:58.626Z</time></trkpt><trkpt lat="32.7860764" lon="10.5220171"><ele>466.0</ele><time>2026-04-26T14:28:59.606Z</time></trkpt><trkpt lat="32.7861022" lon="10.5218751"><ele>464.75</ele><time>2026-04-26T14:29:00.612Z</time></trkpt><trkpt lat="32.7861215" lon="10.5217351"><ele>463.5</ele><time>2026-04-26T14:29:01.632Z</time></trkpt><trkpt lat="32.7861369" lon="10.5215978"><ele>462.25</ele><time>2026-04-26T14:29:02.629Z</time></trkpt><trkpt lat="32.7861498" lon="10.5214622"><ele>461.0</ele><time>2026-04-26T14:29:03.618Z</time></trkpt><trkpt lat="32.7861622" lon="10.5213291"><ele>461.0</ele><time>2026-04-26T14:29:04.601Z</time></trkpt><trkpt lat="32.7861752" lon="10.5211932"><ele>461.0</ele><time>2026-04-26T14:29:05.631Z</time></trkpt><trkpt lat="32.7861889" lon="10.5210545"><ele>461.0</ele><time>2026-04-26T14:29:06.619Z</time></trkpt><trkpt lat="32.7862091" lon="10.5209205"><ele>461.0</ele><time>2026-04-26T14:29:07.583Z</time></trkpt><trkpt lat="32.78624" lon="10.5207867"><ele>460.99999999999994</ele><time>2026-04-26T14:29:08.621Z</time></trkpt><trkpt lat="32.7862785" lon="10.5206657"><ele>461.0</ele><time>2026-04-26T14:29:09.65Z</time></trkpt><trkpt lat="32.7863169" lon="10.520568"><ele>461.0</ele><time>2026-04-26T14:29:10.641Z</time></trkpt><trkpt lat="32.7863686" lon="10.5204823"><ele>461.0</ele><time>2026-04-26T14:29:12.636Z</time></trkpt><trkpt lat="32.7864387" lon="10.520418"><ele>460.99999999999994</ele><time>2026-04-26T14:29:16.636Z</time></trkpt><trkpt lat="32.7864918" lon="10.5203695"><ele>461.0</ele><time>2026-04-26T14:29:18.636Z</time></trkpt><trkpt lat="32.7865441" lon="10.5202942"><ele>460.99999999999994</ele><time>2026-04-26T14:29:20.633Z</time></trkpt><trkpt lat="32.7866374" lon="10.5201915"><ele>461.0</ele><time>2026-04-26T14:29:22.601Z</time></trkpt><trkpt lat="32.7866952" lon="10.5201376"><ele>461.0</ele><time>2026-04-26T14:29:23.637Z</time></trkpt><trkpt lat="32.7867542" lon="10.520084"><ele>461.0</ele><time>2026-04-26T14:29:24.637Z</time></trkpt><trkpt lat="32.7868138" lon="10.5200275"><ele>460.99999999999994</ele><time>2026-04-26T14:29:25.602Z</time></trkpt><trkpt lat="32.7868763" lon="10.5199683"><ele>461.0</ele><time>2026-04-26T14:29:26.631Z</time></trkpt><trkpt lat="32.786938" lon="10.5199098"><ele>462.0</ele><time>2026-04-26T14:29:27.636Z</time></trkpt><trkpt lat="32.7870008" lon="10.5198529"><ele>463.0</ele><time>2026-04-26T14:29:28.637Z</time></trkpt><trkpt lat="32.78707" lon="10.51979"><ele>464.0</ele><time>2026-04-26T14:29:29.651Z</time></trkpt><trkpt lat="32.7871418" lon="10.519727"><ele>465.0</ele><time>2026-04-26T14:29:30.637Z</time></trkpt><trkpt lat="32.7872197" lon="10.5196607"><ele>466.0</ele><time>2026-04-26T14:29:31.629Z</time></trkpt><trkpt lat="32.7873056" lon="10.5195873"><ele>466.5</ele><time>2026-04-26T14:29:32.642Z</time></trkpt><trkpt lat="32.7873973" lon="10.5195116"><ele>467.0</ele><time>2026-04-26T14:29:33.635Z</time></trkpt><trkpt lat="32.7874937" lon="10.5194386"><ele>467.5</ele><time>2026-04-26T14:29:34.607Z</time></trkpt><trkpt lat="32.7875894" lon="10.5193707"><ele>468.0</ele><time>2026-04-26T14:29:35.62Z</time></trkpt><trkpt lat="32.7876846" lon="10.5192991"><ele>469.59999999999997</ele><time>2026-04-26T14:29:36.64Z</time></trkpt><trkpt lat="32.7877785" lon="10.5192225"><ele>471.19999999999993</ele><time>2026-04-26T14:29:37.639Z</time></trkpt><trkpt lat="32.7878656" lon="10.5191388"><ele>472.8</ele><time>2026-04-26T14:29:38.647Z</time></trkpt><trkpt lat="32.7879445" lon="10.5190541"><ele>474.4</ele><time>2026-04-26T14:29:39.622Z</time></trkpt><trkpt lat="32.7880175" lon="10.5189636"><ele>476.0</ele><time>2026-04-26T14:29:40.636Z</time></trkpt><trkpt lat="32.7880717" lon="10.5188668"><ele>476.0</ele><time>2026-04-26T14:29:41.631Z</time></trkpt><trkpt lat="32.7881158" lon="10.5187596"><ele>476.0</ele><time>2026-04-26T14:29:42.63Z</time></trkpt><trkpt lat="32.7881359" lon="10.5186476"><ele>476.0</ele><time>2026-04-26T14:29:43.635Z</time></trkpt><trkpt lat="32.7881157" lon="10.518535"><ele>476.0</ele><time>2026-04-26T14:29:44.604Z</time></trkpt><trkpt lat="32.7880678" lon="10.5184172"><ele>476.0</ele><time>2026-04-26T14:29:45.614Z</time></trkpt><trkpt lat="32.7880181" lon="10.5182951"><ele>478.20000000000005</ele><time>2026-04-26T14:29:46.647Z</time></trkpt><trkpt lat="32.7879751" lon="10.5181791"><ele>480.40000000000003</ele><time>2026-04-26T14:29:47.63Z</time></trkpt><trkpt lat="32.7879498" lon="10.5180576"><ele>482.6</ele><time>2026-04-26T14:29:48.631Z</time></trkpt><trkpt lat="32.7879389" lon="10.5179402"><ele>484.8</ele><time>2026-04-26T14:29:49.624Z</time></trkpt><trkpt lat="32.7879399" lon="10.517812"><ele>487.0</ele><time>2026-04-26T14:29:50.608Z</time></trkpt><trkpt lat="32.7879526" lon="10.5176856"><ele>489.20000000000005</ele><time>2026-04-26T14:29:51.636Z</time></trkpt><trkpt lat="32.7879731" lon="10.5175662"><ele>491.40000000000003</ele><time>2026-04-26T14:29:52.584Z</time></trkpt><trkpt lat="32.7879907" lon="10.5174455"><ele>493.59999999999997</ele><time>2026-04-26T14:29:53.629Z</time></trkpt><trkpt lat="32.7880039" lon="10.5173336"><ele>495.79999999999995</ele><time>2026-04-26T14:29:54.637Z</time></trkpt><trkpt lat="32.7880167" lon="10.517223"><ele>498.0</ele><time>2026-04-26T14:29:55.586Z</time></trkpt><trkpt lat="32.7880311" lon="10.5171121"><ele>497.79999999999995</ele><time>2026-04-26T14:29:56.596Z</time></trkpt><trkpt lat="32.7880633" lon="10.5170166"><ele>497.59999999999997</ele><time>2026-04-26T14:29:57.62Z</time></trkpt><trkpt lat="32.7881226" lon="10.5169256"><ele>497.40000000000003</ele><time>2026-04-26T14:29:58.64Z</time></trkpt><trkpt lat="32.7882013" lon="10.5168443"><ele>497.20000000000005</ele><time>2026-04-26T14:29:59.633Z</time></trkpt><trkpt lat="32.7882954" lon="10.5167649"><ele>497.0</ele><time>2026-04-26T14:30:00.634Z</time></trkpt><trkpt lat="32.7883832" lon="10.516684"><ele>497.0</ele><time>2026-04-26T14:30:01.626Z</time></trkpt><trkpt lat="32.7884625" lon="10.5165905"><ele>497.00000000000006</ele><time>2026-04-26T14:30:02.619Z</time></trkpt><trkpt lat="32.7885285" lon="10.5165022"><ele>497.00000000000006</ele><time>2026-04-26T14:30:03.645Z</time></trkpt><trkpt lat="32.7885671" lon="10.5164018"><ele>497.0</ele><time>2026-04-26T14:30:04.639Z</time></trkpt><trkpt lat="32.7885831" lon="10.5162984"><ele>497.0</ele><time>2026-04-26T14:30:05.634Z</time></trkpt><trkpt lat="32.7885707" lon="10.5161886"><ele>497.3333333333333</ele><time>2026-04-26T14:30:06.64Z</time></trkpt><trkpt lat="32.7885438" lon="10.5160895"><ele>497.66666666666663</ele><time>2026-04-26T14:30:07.617Z</time></trkpt><trkpt lat="32.7885161" lon="10.5159957"><ele>498.0</ele><time>2026-04-26T14:30:08.614Z</time></trkpt><trkpt lat="32.7884938" lon="10.5159032"><ele>498.33333333333337</ele><time>2026-04-26T14:30:09.639Z</time></trkpt><trkpt lat="32.7884908" lon="10.51581"><ele>498.6666666666667</ele><time>2026-04-26T14:30:10.645Z</time></trkpt><trkpt lat="32.7884943" lon="10.5157192"><ele>499.0</ele><time>2026-04-26T14:30:11.634Z</time></trkpt><trkpt lat="32.7885088" lon="10.5156046"><ele>499.0</ele><time>2026-04-26T14:30:13.647Z</time></trkpt><trkpt lat="32.7884989" lon="10.5155253"><ele>499.0</ele><time>2026-04-26T14:35:19.586Z</time></trkpt></trkseg><trkseg><trkpt lat="32.7885937" lon="10.5154099"><ele>502.00000000000006</ele><time>2026-04-26T14:46:33.577Z</time></trkpt><trkpt lat="32.7885765" lon="10.5155104"><ele>502.0</ele><time>2026-04-26T14:46:35.596Z</time></trkpt><trkpt lat="32.7885556" lon="10.5155878"><ele>502.0</ele><time>2026-04-26T14:46:40.584Z</time></trkpt><trkpt lat="32.7886021" lon="10.515506"><ele>502.0</ele><time>2026-04-26T14:50:16.604Z</time></trkpt><trkpt lat="32.7886798" lon="10.5154748"><ele>502.00000000000006</ele><time>2026-04-26T14:50:19.605Z</time></trkpt><trkpt lat="32.7887429" lon="10.5154134"><ele>502.0</ele><time>2026-04-26T14:50:22.61Z</time></trkpt><trkpt lat="32.78874" lon="10.5153097"><ele>501.6</ele><time>2026-04-26T14:50:24.608Z</time></trkpt><trkpt lat="32.7887064" lon="10.5151508"><ele>501.20000000000005</ele><time>2026-04-26T14:50:26.603Z</time></trkpt><trkpt lat="32.7886921" lon="10.5150652"><ele>500.8</ele><time>2026-04-26T14:50:27.611Z</time></trkpt><trkpt lat="32.7886817" lon="10.5149669"><ele>500.4</ele><time>2026-04-26T14:50:28.59Z</time></trkpt><trkpt lat="32.7886789" lon="10.5148725"><ele>500.0</ele><time>2026-04-26T14:50:29.613Z</time></trkpt><trkpt lat="32.7886822" lon="10.5147669"><ele>499.99999999999994</ele><time>2026-04-26T14:50:30.596Z</time></trkpt><trkpt lat="32.7886825" lon="10.5146634"><ele>500.0</ele><time>2026-04-26T14:50:31.6Z</time></trkpt><trkpt lat="32.7886848" lon="10.5145633"><ele>500.0</ele><time>2026-04-26T14:50:32.604Z</time></trkpt><trkpt lat="32.788688" lon="10.5144638"><ele>500.0</ele><time>2026-04-26T14:50:33.581Z</time></trkpt><trkpt lat="32.7886866" lon="10.5143737"><ele>499.99999999999994</ele><time>2026-04-26T14:50:34.635Z</time></trkpt><trkpt lat="32.7886853" lon="10.5142819"><ele>500.0</ele><time>2026-04-26T14:50:35.591Z</time></trkpt><trkpt lat="32.7886813" lon="10.5141941"><ele>497.99999999999994</ele><time>2026-04-26T14:50:36.614Z</time></trkpt><trkpt lat="32.7886729" lon="10.5141043"><ele>496.0</ele><time>2026-04-26T14:50:37.598Z</time></trkpt><trkpt lat="32.7886607" lon="10.5140137"><ele>494.0</ele><time>2026-04-26T14:50:38.587Z</time></trkpt><trkpt lat="32.7886461" lon="10.5139283"><ele>492.0</ele><time>2026-04-26T14:50:39.628Z</time></trkpt><trkpt lat="32.7886284" lon="10.5138389"><ele>489.99999999999994</ele><time>2026-04-26T14:50:40.645Z</time></trkpt><trkpt lat="32.788609" lon="10.5137472"><ele>488.0</ele><time>2026-04-26T14:50:41.634Z</time></trkpt><trkpt lat="32.7885914" lon="10.5136503"><ele>487.8333333333333</ele><time>2026-04-26T14:50:42.628Z</time></trkpt><trkpt lat="32.7885704" lon="10.5135552"><ele>487.66666666666663</ele><time>2026-04-26T14:50:43.629Z</time></trkpt><trkpt lat="32.7885383" lon="10.5134662"><ele>487.5</ele><time>2026-04-26T14:50:44.61Z</time></trkpt><trkpt lat="32.7885011" lon="10.5133762"><ele>487.33333333333337</ele><time>2026-04-26T14:50:45.639Z</time></trkpt><trkpt lat="32.7884596" lon="10.5132989"><ele>487.1666666666667</ele><time>2026-04-26T14:50:46.605Z</time></trkpt><trkpt lat="32.7884143" lon="10.5132233"><ele>487.0</ele><time>2026-04-26T14:50:47.642Z</time></trkpt><trkpt lat="32.7883639" lon="10.5131571"><ele>487.00000000000006</ele><time>2026-04-26T14:50:48.621Z</time></trkpt><trkpt lat="32.7883137" lon="10.513097"><ele>487.0</ele><time>2026-04-26T14:50:49.636Z</time></trkpt><trkpt lat="32.7882642" lon="10.5130314"><ele>487.0</ele><time>2026-04-26T14:50:50.642Z</time></trkpt><trkpt lat="32.7882111" lon="10.5129658"><ele>487.0</ele><time>2026-04-26T14:50:51.637Z</time></trkpt><trkpt lat="32.7881583" lon="10.5128909"><ele>487.00000000000006</ele><time>2026-04-26T14:50:52.607Z</time></trkpt><trkpt lat="32.7881041" lon="10.5128063"><ele>487.0</ele><time>2026-04-26T14:50:53.601Z</time></trkpt><trkpt lat="32.7880499" lon="10.5127165"><ele>483.8</ele><time>2026-04-26T14:50:54.642Z</time></trkpt><trkpt lat="32.7879987" lon="10.5126237"><ele>480.6</ele><time>2026-04-26T14:50:55.62Z</time></trkpt><trkpt lat="32.7879474" lon="10.5125239"><ele>477.40000000000003</ele><time>2026-04-26T14:50:56.614Z</time></trkpt><trkpt lat="32.7878912" lon="10.512422"><ele>474.20000000000005</ele><time>2026-04-26T14:50:57.617Z</time></trkpt><trkpt lat="32.7878331" lon="10.5123195"><ele>471.0</ele><time>2026-04-26T14:50:58.597Z</time></trkpt><trkpt lat="32.7877123" lon="10.5121119"><ele>471.0</ele><time>2026-04-26T14:51:00.637Z</time></trkpt><trkpt lat="32.7876521" lon="10.5119957"><ele>471.0</ele><time>2026-04-26T14:51:01.618Z</time></trkpt><trkpt lat="32.7875903" lon="10.5118719"><ele>471.0</ele><time>2026-04-26T14:51:02.575Z</time></trkpt><trkpt lat="32.7875307" lon="10.5117386"><ele>471.0</ele><time>2026-04-26T14:51:03.612Z</time></trkpt><trkpt lat="32.7874749" lon="10.5116057"><ele>471.0</ele><time>2026-04-26T14:51:04.635Z</time></trkpt><trkpt lat="32.7874142" lon="10.5114698"><ele>471.0</ele><time>2026-04-26T14:51:05.637Z</time></trkpt><trkpt lat="32.7873534" lon="10.5113328"><ele>471.0</ele><time>2026-04-26T14:51:06.632Z</time></trkpt><trkpt lat="32.7872921" lon="10.5111954"><ele>471.0</ele><time>2026-04-26T14:51:07.619Z</time></trkpt><trkpt lat="32.7872284" lon="10.5110615"><ele>468.0</ele><time>2026-04-26T14:51:08.64Z</time></trkpt><trkpt lat="32.7871627" lon="10.5109268"><ele>465.0</ele><time>2026-04-26T14:51:09.589Z</time></trkpt><trkpt lat="32.7870948" lon="10.5107971"><ele>462.0</ele><time>2026-04-26T14:51:10.611Z</time></trkpt><trkpt lat="32.7870257" lon="10.5106648"><ele>459.0</ele><time>2026-04-26T14:51:11.634Z</time></trkpt><trkpt lat="32.786956" lon="10.5105409"><ele>459.0</ele><time>2026-04-26T14:51:12.632Z</time></trkpt><trkpt lat="32.7868776" lon="10.5104206"><ele>459.0</ele><time>2026-04-26T14:51:13.637Z</time></trkpt><trkpt lat="32.7867886" lon="10.5103171"><ele>459.0</ele><time>2026-04-26T14:51:14.639Z</time></trkpt><trkpt lat="32.7866952" lon="10.5102157"><ele>459.0</ele><time>2026-04-26T14:51:15.624Z</time></trkpt><trkpt lat="32.7865983" lon="10.5101182"><ele>458.75</ele><time>2026-04-26T14:51:16.639Z</time></trkpt><trkpt lat="32.7864962" lon="10.5100205"><ele>458.5</ele><time>2026-04-26T14:51:17.645Z</time></trkpt><trkpt lat="32.7863968" lon="10.5099242"><ele>458.25</ele><time>2026-04-26T14:51:18.663Z</time></trkpt><trkpt lat="32.7863027" lon="10.5098225"><ele>458.0</ele><time>2026-04-26T14:51:19.613Z</time></trkpt><trkpt lat="32.7862066" lon="10.5097112"><ele>458.0</ele><time>2026-04-26T14:51:20.619Z</time></trkpt><trkpt lat="32.7861102" lon="10.5096002"><ele>458.0</ele><time>2026-04-26T14:51:21.657Z</time></trkpt><trkpt lat="32.7860097" lon="10.509483"><ele>458.0</ele><time>2026-04-26T14:51:22.643Z</time></trkpt><trkpt lat="32.7859099" lon="10.509368"><ele>458.0</ele><time>2026-04-26T14:51:23.651Z</time></trkpt><trkpt lat="32.7858164" lon="10.5092566"><ele>456.5</ele><time>2026-04-26T14:51:24.66Z</time></trkpt><trkpt lat="32.7857293" lon="10.5091316"><ele>455.0</ele><time>2026-04-26T14:51:25.65Z</time></trkpt><trkpt lat="32.7856497" lon="10.5090051"><ele>453.5</ele><time>2026-04-26T14:51:26.628Z</time></trkpt><trkpt lat="32.7855743" lon="10.5088794"><ele>452.0</ele><time>2026-04-26T14:51:27.654Z</time></trkpt><trkpt lat="32.7854996" lon="10.5087514"><ele>451.75</ele><time>2026-04-26T14:51:28.64Z</time></trkpt><trkpt lat="32.7854359" lon="10.5086291"><ele>451.5</ele><time>2026-04-26T14:51:29.62Z</time></trkpt><trkpt lat="32.7853719" lon="10.5085043"><ele>451.25</ele><time>2026-04-26T14:51:30.615Z</time></trkpt><trkpt lat="32.7853128" lon="10.5083802"><ele>451.0</ele><time>2026-04-26T14:51:31.633Z</time></trkpt><trkpt lat="32.7852545" lon="10.5082585"><ele>451.0</ele><time>2026-04-26T14:51:32.597Z</time></trkpt><trkpt lat="32.7851988" lon="10.5081343"><ele>451.0</ele><time>2026-04-26T14:51:33.623Z</time></trkpt><trkpt lat="32.7851393" lon="10.5080145"><ele>451.0</ele><time>2026-04-26T14:51:34.632Z</time></trkpt><trkpt lat="32.7850776" lon="10.5078911"><ele>451.0</ele><time>2026-04-26T14:51:35.636Z</time></trkpt><trkpt lat="32.7850197" lon="10.5077689"><ele>450.25</ele><time>2026-04-26T14:51:36.628Z</time></trkpt><trkpt lat="32.7849611" lon="10.5076449"><ele>449.5</ele><time>2026-04-26T14:51:37.651Z</time></trkpt><trkpt lat="32.7849011" lon="10.5075264"><ele>448.75</ele><time>2026-04-26T14:51:38.63Z</time></trkpt><trkpt lat="32.7848452" lon="10.5074112"><ele>448.0</ele><time>2026-04-26T14:51:39.614Z</time></trkpt><trkpt lat="32.7847848" lon="10.5072938"><ele>448.0</ele><time>2026-04-26T14:51:40.635Z</time></trkpt><trkpt lat="32.7847241" lon="10.507175"><ele>448.0</ele><time>2026-04-26T14:51:41.646Z</time></trkpt><trkpt lat="32.7846639" lon="10.5070583"><ele>448.0</ele><time>2026-04-26T14:51:42.614Z</time></trkpt><trkpt lat="32.7846037" lon="10.5069418"><ele>448.0</ele><time>2026-04-26T14:51:43.64Z</time></trkpt><trkpt lat="32.7845484" lon="10.5068221"><ele>447.0</ele><time>2026-04-26T14:51:44.633Z</time></trkpt><trkpt lat="32.7844926" lon="10.5067051"><ele>446.0</ele><time>2026-04-26T14:51:45.65Z</time></trkpt><trkpt lat="32.7844429" lon="10.5065764"><ele>445.0</ele><time>2026-04-26T14:51:46.634Z</time></trkpt><trkpt lat="32.7843915" lon="10.5064473"><ele>444.0</ele><time>2026-04-26T14:51:47.616Z</time></trkpt><trkpt lat="32.7843428" lon="10.5063182"><ele>443.25</ele><time>2026-04-26T14:51:48.631Z</time></trkpt><trkpt lat="32.7842939" lon="10.5061908"><ele>442.5</ele><time>2026-04-26T14:51:49.629Z</time></trkpt><trkpt lat="32.784251" lon="10.5060642"><ele>441.75</ele><time>2026-04-26T14:51:50.65Z</time></trkpt><trkpt lat="32.7842073" lon="10.5059388"><ele>441.0</ele><time>2026-04-26T14:51:51.623Z</time></trkpt><trkpt lat="32.7841612" lon="10.5058084"><ele>441.0</ele><time>2026-04-26T14:51:52.63Z</time></trkpt><trkpt lat="32.7841154" lon="10.5056805"><ele>441.0</ele><time>2026-04-26T14:51:53.634Z</time></trkpt><trkpt lat="32.7840744" lon="10.5055587"><ele>441.0</ele><time>2026-04-26T14:51:54.645Z</time></trkpt><trkpt lat="32.7840344" lon="10.5054398"><ele>441.0</ele><time>2026-04-26T14:51:55.609Z</time></trkpt><trkpt lat="32.7839924" lon="10.5053236"><ele>441.0</ele><time>2026-04-26T14:51:56.637Z</time></trkpt><trkpt lat="32.7839485" lon="10.5052085"><ele>440.8</ele><time>2026-04-26T14:51:57.633Z</time></trkpt><trkpt lat="32.7839077" lon="10.5050974"><ele>440.6</ele><time>2026-04-26T14:51:58.632Z</time></trkpt><trkpt lat="32.783865" lon="10.5049847"><ele>440.4</ele><time>2026-04-26T14:51:59.637Z</time></trkpt><trkpt lat="32.7838243" lon="10.5048694"><ele>440.2</ele><time>2026-04-26T14:52:00.6Z</time></trkpt><trkpt lat="32.7837873" lon="10.5047564"><ele>440.0</ele><time>2026-04-26T14:52:01.625Z</time></trkpt><trkpt lat="32.7837449" lon="10.5046265"><ele>439.75</ele><time>2026-04-26T14:52:02.619Z</time></trkpt><trkpt lat="32.7836912" lon="10.5044742"><ele>439.5</ele><time>2026-04-26T14:52:03.585Z</time></trkpt><trkpt lat="32.783632" lon="10.5043122"><ele>439.25</ele><time>2026-04-26T14:52:04.634Z</time></trkpt><trkpt lat="32.783562" lon="10.5041487"><ele>439.0</ele><time>2026-04-26T14:52:05.644Z</time></trkpt><trkpt lat="32.7834917" lon="10.5039839"><ele>439.0</ele><time>2026-04-26T14:52:06.645Z</time></trkpt><trkpt lat="32.7834144" lon="10.5038115"><ele>439.0</ele><time>2026-04-26T14:52:07.724Z</time></trkpt><trkpt lat="32.7833348" lon="10.5036418"><ele>439.0</ele><time>2026-04-26T14:52:08.699Z</time></trkpt><trkpt lat="32.783252" lon="10.5034733"><ele>438.6666666666667</ele><time>2026-04-26T14:52:09.696Z</time></trkpt><trkpt lat="32.7831684" lon="10.5033082"><ele>438.33333333333337</ele><time>2026-04-26T14:52:10.624Z</time></trkpt><trkpt lat="32.7830831" lon="10.5031377"><ele>438.0</ele><time>2026-04-26T14:52:11.645Z</time></trkpt><trkpt lat="32.7829921" lon="10.5029643"><ele>436.0</ele><time>2026-04-26T14:52:12.645Z</time></trkpt><trkpt lat="32.7828938" lon="10.5027973"><ele>434.0</ele><time>2026-04-26T14:52:13.651Z</time></trkpt><trkpt lat="32.7827995" lon="10.5026325"><ele>432.0</ele><time>2026-04-26T14:52:14.7Z</time></trkpt><trkpt lat="32.7827095" lon="10.5024681"><ele>431.33333333333337</ele><time>2026-04-26T14:52:15.688Z</time></trkpt><trkpt lat="32.7826221" lon="10.5023033"><ele>430.6666666666667</ele><time>2026-04-26T14:52:16.72Z</time></trkpt><trkpt lat="32.7825344" lon="10.5021377"><ele>430.0</ele><time>2026-04-26T14:52:17.702Z</time></trkpt><trkpt lat="32.7824444" lon="10.5019661"><ele>428.33333333333337</ele><time>2026-04-26T14:52:18.709Z</time></trkpt><trkpt lat="32.7823624" lon="10.5017952"><ele>426.66666666666663</ele><time>2026-04-26T14:52:19.701Z</time></trkpt><trkpt lat="32.7822915" lon="10.5016165"><ele>425.0</ele><time>2026-04-26T14:52:20.669Z</time></trkpt><trkpt lat="32.7822424" lon="10.5014331"><ele>425.0</ele><time>2026-04-26T14:52:21.717Z</time></trkpt><trkpt lat="32.7822115" lon="10.5012417"><ele>425.0</ele><time>2026-04-26T14:52:22.735Z</time></trkpt><trkpt lat="32.7822043" lon="10.5010339"><ele>425.0</ele><time>2026-04-26T14:52:23.728Z</time></trkpt><trkpt lat="32.7822206" lon="10.5008265"><ele>425.0</ele><time>2026-04-26T14:52:24.678Z</time></trkpt><trkpt lat="32.7822589" lon="10.5006154"><ele>425.0</ele><time>2026-04-26T14:52:25.697Z</time></trkpt><trkpt lat="32.7823149" lon="10.500412"><ele>425.0</ele><time>2026-04-26T14:52:26.691Z</time></trkpt><trkpt lat="32.78239" lon="10.5002117"><ele>426.0</ele><time>2026-04-26T14:52:27.697Z</time></trkpt><trkpt lat="32.782478" lon="10.5000239"><ele>427.0</ele><time>2026-04-26T14:52:28.716Z</time></trkpt><trkpt lat="32.7825667" lon="10.4998418"><ele>428.0</ele><time>2026-04-26T14:52:29.73Z</time></trkpt><trkpt lat="32.7826435" lon="10.4996626"><ele>430.3333333333333</ele><time>2026-04-26T14:52:30.672Z</time></trkpt><trkpt lat="32.7827145" lon="10.4994857"><ele>432.66666666666663</ele><time>2026-04-26T14:52:31.664Z</time></trkpt><trkpt lat="32.7827775" lon="10.4993061"><ele>435.0</ele><time>2026-04-26T14:52:32.699Z</time></trkpt><trkpt lat="32.7828348" lon="10.49913"><ele>435.0</ele><time>2026-04-26T14:52:33.654Z</time></trkpt><trkpt lat="32.7828857" lon="10.498949"><ele>435.0</ele><time>2026-04-26T14:52:34.682Z</time></trkpt><trkpt lat="32.7829209" lon="10.4987708"><ele>435.0</ele><time>2026-04-26T14:52:35.694Z</time></trkpt><trkpt lat="32.7829317" lon="10.4985861"><ele>436.66666666666663</ele><time>2026-04-26T14:52:36.718Z</time></trkpt><trkpt lat="32.7829155" lon="10.4983979"><ele>438.3333333333333</ele><time>2026-04-26T14:52:37.706Z</time></trkpt><trkpt lat="32.7828825" lon="10.4982124"><ele>440.0</ele><time>2026-04-26T14:52:38.723Z</time></trkpt><trkpt lat="32.7828323" lon="10.4980222"><ele>439.0</ele><time>2026-04-26T14:52:39.714Z</time></trkpt><trkpt lat="32.7827686" lon="10.4978414"><ele>438.0</ele><time>2026-04-26T14:52:40.704Z</time></trkpt><trkpt lat="32.7826895" lon="10.4976478"><ele>437.0</ele><time>2026-04-26T14:52:41.71Z</time></trkpt><trkpt lat="32.782607" lon="10.4974508"><ele>437.0</ele><time>2026-04-26T14:52:42.706Z</time></trkpt><trkpt lat="32.7825326" lon="10.4972677"><ele>437.0</ele><time>2026-04-26T14:52:43.694Z</time></trkpt><trkpt lat="32.7824627" lon="10.4970722"><ele>437.0</ele><time>2026-04-26T14:52:44.68Z</time></trkpt><trkpt lat="32.7824006" lon="10.4968747"><ele>437.66666666666663</ele><time>2026-04-26T14:52:45.671Z</time></trkpt><trkpt lat="32.7823456" lon="10.4966672"><ele>438.33333333333337</ele><time>2026-04-26T14:52:46.706Z</time></trkpt><trkpt lat="32.7822959" lon="10.4964543"><ele>439.0</ele><time>2026-04-26T14:52:47.675Z</time></trkpt><trkpt lat="32.7822519" lon="10.4962356"><ele>440.6666666666667</ele><time>2026-04-26T14:52:48.691Z</time></trkpt><trkpt lat="32.7822294" lon="10.4960103"><ele>442.33333333333337</ele><time>2026-04-26T14:52:49.652Z</time></trkpt><trkpt lat="32.7822234" lon="10.4957888"><ele>444.0</ele><time>2026-04-26T14:52:50.705Z</time></trkpt><trkpt lat="32.7822136" lon="10.4955632"><ele>444.0</ele><time>2026-04-26T14:52:51.705Z</time></trkpt><trkpt lat="32.7822139" lon="10.4953345"><ele>444.0</ele><time>2026-04-26T14:52:52.703Z</time></trkpt><trkpt lat="32.782226" lon="10.495119"><ele>444.0</ele><time>2026-04-26T14:52:53.711Z</time></trkpt><trkpt lat="32.7822564" lon="10.4949141"><ele>444.0</ele><time>2026-04-26T14:52:54.72Z</time></trkpt><trkpt lat="32.782307" lon="10.4947116"><ele>444.0</ele><time>2026-04-26T14:52:55.707Z</time></trkpt><trkpt lat="32.7823714" lon="10.4944989"><ele>444.0</ele><time>2026-04-26T14:52:56.709Z</time></trkpt><trkpt lat="32.7824465" lon="10.4942891"><ele>443.0</ele><time>2026-04-26T14:52:57.706Z</time></trkpt><trkpt lat="32.7825295" lon="10.4940833"><ele>442.0</ele><time>2026-04-26T14:52:58.72Z</time></trkpt><trkpt lat="32.7826131" lon="10.4938814"><ele>441.0</ele><time>2026-04-26T14:52:59.716Z</time></trkpt><trkpt lat="32.7826971" lon="10.493668"><ele>441.0</ele><time>2026-04-26T14:53:00.706Z</time></trkpt><trkpt lat="32.78278" lon="10.493451"><ele>441.0</ele><time>2026-04-26T14:53:01.662Z</time></trkpt><trkpt lat="32.7828603" lon="10.4932293"><ele>441.0</ele><time>2026-04-26T14:53:02.664Z</time></trkpt><trkpt lat="32.7829376" lon="10.4930128"><ele>439.0</ele><time>2026-04-26T14:53:03.662Z</time></trkpt><trkpt lat="32.783015" lon="10.4927936"><ele>437.0</ele><time>2026-04-26T14:53:04.644Z</time></trkpt><trkpt lat="32.7830905" lon="10.4925753"><ele>435.0</ele><time>2026-04-26T14:53:05.691Z</time></trkpt><trkpt lat="32.7831702" lon="10.4923577"><ele>435.0</ele><time>2026-04-26T14:53:06.689Z</time></trkpt><trkpt lat="32.7832542" lon="10.4921428"><ele>435.0</ele><time>2026-04-26T14:53:07.658Z</time></trkpt><trkpt lat="32.7833483" lon="10.491938"><ele>435.0</ele><time>2026-04-26T14:53:08.714Z</time></trkpt><trkpt lat="32.7834474" lon="10.4917517"><ele>432.0</ele><time>2026-04-26T14:53:09.667Z</time></trkpt><trkpt lat="32.783549" lon="10.4915862"><ele>429.0</ele><time>2026-04-26T14:53:10.648Z</time></trkpt><trkpt lat="32.7836404" lon="10.4914341"><ele>426.0</ele><time>2026-04-26T14:53:11.676Z</time></trkpt><trkpt lat="32.783716" lon="10.4912964"><ele>424.75</ele><time>2026-04-26T14:53:12.695Z</time></trkpt><trkpt lat="32.7837658" lon="10.4911641"><ele>423.5</ele><time>2026-04-26T14:53:13.708Z</time></trkpt><trkpt lat="32.7837933" lon="10.4910359"><ele>422.25</ele><time>2026-04-26T14:53:14.712Z</time></trkpt><trkpt lat="32.7837883" lon="10.4909017"><ele>421.0</ele><time>2026-04-26T14:53:15.712Z</time></trkpt><trkpt lat="32.7837566" lon="10.4907679"><ele>421.0</ele><time>2026-04-26T14:53:16.662Z</time></trkpt><trkpt lat="32.7837063" lon="10.4906189"><ele>421.0</ele><time>2026-04-26T14:53:17.712Z</time></trkpt><trkpt lat="32.7836373" lon="10.4904685"><ele>421.0</ele><time>2026-04-26T14:53:18.675Z</time></trkpt><trkpt lat="32.7835427" lon="10.4903151"><ele>421.0</ele><time>2026-04-26T14:53:19.657Z</time></trkpt><trkpt lat="32.7834423" lon="10.4901715"><ele>420.5</ele><time>2026-04-26T14:53:20.68Z</time></trkpt><trkpt lat="32.7833359" lon="10.4900339"><ele>420.0</ele><time>2026-04-26T14:53:21.65Z</time></trkpt><trkpt lat="32.7832202" lon="10.489927"><ele>419.5</ele><time>2026-04-26T14:53:22.639Z</time></trkpt><trkpt lat="32.7830932" lon="10.4898463"><ele>419.0</ele><time>2026-04-26T14:53:23.648Z</time></trkpt><trkpt lat="32.782967" lon="10.4897919"><ele>419.0</ele><time>2026-04-26T14:53:24.637Z</time></trkpt><trkpt lat="32.7828501" lon="10.4897347"><ele>419.0</ele><time>2026-04-26T14:53:25.648Z</time></trkpt><trkpt lat="32.7827365" lon="10.4896822"><ele>419.0</ele><time>2026-04-26T14:53:26.633Z</time></trkpt><trkpt lat="32.7826267" lon="10.4896143"><ele>419.0</ele><time>2026-04-26T14:53:27.64Z</time></trkpt><trkpt lat="32.7825314" lon="10.4895327"><ele>416.75</ele><time>2026-04-26T14:53:28.649Z</time></trkpt><trkpt lat="32.782446" lon="10.4894409"><ele>414.5</ele><time>2026-04-26T14:53:29.632Z</time></trkpt><trkpt lat="32.7823737" lon="10.4893316"><ele>412.25</ele><time>2026-04-26T14:53:30.652Z</time></trkpt><trkpt lat="32.7823253" lon="10.4892067"><ele>410.0</ele><time>2026-04-26T14:53:31.674Z</time></trkpt><trkpt lat="32.7822939" lon="10.4890725"><ele>410.0</ele><time>2026-04-26T14:53:32.635Z</time></trkpt><trkpt lat="32.7822813" lon="10.4889391"><ele>410.0</ele><time>2026-04-26T14:53:33.642Z</time></trkpt><trkpt lat="32.7822848" lon="10.4888117"><ele>410.0</ele><time>2026-04-26T14:53:34.647Z</time></trkpt><trkpt lat="32.7822975" lon="10.4886906"><ele>410.0</ele><time>2026-04-26T14:53:35.645Z</time></trkpt><trkpt lat="32.7823139" lon="10.4885849"><ele>410.0</ele><time>2026-04-26T14:53:36.648Z</time></trkpt><trkpt lat="32.782335" lon="10.4884961"><ele>409.4</ele><time>2026-04-26T14:53:37.639Z</time></trkpt><trkpt lat="32.7823594" lon="10.4884144"><ele>408.8</ele><time>2026-04-26T14:53:38.647Z</time></trkpt><trkpt lat="32.7824121" lon="10.4882889"><ele>408.20000000000005</ele><time>2026-04-26T14:53:40.638Z</time></trkpt><trkpt lat="32.7824745" lon="10.4881795"><ele>407.6</ele><time>2026-04-26T14:53:42.648Z</time></trkpt><trkpt lat="32.7825313" lon="10.4880837"><ele>407.0</ele><time>2026-04-26T14:53:44.642Z</time></trkpt><trkpt lat="32.7826016" lon="10.4879901"><ele>406.8</ele><time>2026-04-26T14:53:46.646Z</time></trkpt><trkpt lat="32.7826871" lon="10.4878741"><ele>406.6</ele><time>2026-04-26T14:53:48.633Z</time></trkpt><trkpt lat="32.7827384" lon="10.4878052"><ele>406.40000000000003</ele><time>2026-04-26T14:53:49.649Z</time></trkpt><trkpt lat="32.7827942" lon="10.4877299"><ele>406.20000000000005</ele><time>2026-04-26T14:53:50.65Z</time></trkpt><trkpt lat="32.782851" lon="10.4876521"><ele>406.0</ele><time>2026-04-26T14:53:51.638Z</time></trkpt><trkpt lat="32.7829101" lon="10.4875688"><ele>406.0</ele><time>2026-04-26T14:53:52.64Z</time></trkpt><trkpt lat="32.7829676" lon="10.4874754"><ele>406.0</ele><time>2026-04-26T14:53:53.649Z</time></trkpt><trkpt lat="32.7830259" lon="10.4873785"><ele>406.0</ele><time>2026-04-26T14:53:54.643Z</time></trkpt><trkpt lat="32.7830902" lon="10.4872798"><ele>406.0</ele><time>2026-04-26T14:53:55.643Z</time></trkpt><trkpt lat="32.7831555" lon="10.4871747"><ele>406.0</ele><time>2026-04-26T14:53:56.651Z</time></trkpt><trkpt lat="32.7832195" lon="10.4870597"><ele>404.5</ele><time>2026-04-26T14:53:57.645Z</time></trkpt><trkpt lat="32.7832854" lon="10.4869381"><ele>403.0</ele><time>2026-04-26T14:53:58.65Z</time></trkpt><trkpt lat="32.7833465" lon="10.4868136"><ele>401.5</ele><time>2026-04-26T14:53:59.656Z</time></trkpt><trkpt lat="32.7834043" lon="10.48668"><ele>400.0</ele><time>2026-04-26T14:54:00.651Z</time></trkpt><trkpt lat="32.7834619" lon="10.4865397"><ele>402.5</ele><time>2026-04-26T14:54:01.64Z</time></trkpt><trkpt lat="32.7835182" lon="10.4863908"><ele>405.0</ele><time>2026-04-26T14:54:02.653Z</time></trkpt><trkpt lat="32.7835744" lon="10.4862408"><ele>407.5</ele><time>2026-04-26T14:54:03.634Z</time></trkpt><trkpt lat="32.7836272" lon="10.4860879"><ele>410.0</ele><time>2026-04-26T14:54:04.655Z</time></trkpt><trkpt lat="32.7836772" lon="10.485931"><ele>410.0</ele><time>2026-04-26T14:54:05.649Z</time></trkpt><trkpt lat="32.7837251" lon="10.4857741"><ele>410.0</ele><time>2026-04-26T14:54:06.652Z</time></trkpt><trkpt lat="32.7837708" lon="10.4856146"><ele>410.0</ele><time>2026-04-26T14:54:07.646Z</time></trkpt><trkpt lat="32.7838113" lon="10.4854519"><ele>410.0</ele><time>2026-04-26T14:54:08.655Z</time></trkpt><trkpt lat="32.7838484" lon="10.4852882"><ele>408.66666666666663</ele><time>2026-04-26T14:54:09.649Z</time></trkpt><trkpt lat="32.7838813" lon="10.4851174"><ele>407.33333333333337</ele><time>2026-04-26T14:54:10.682Z</time></trkpt><trkpt lat="32.7839129" lon="10.4849386"><ele>406.0</ele><time>2026-04-26T14:54:11.658Z</time></trkpt><trkpt lat="32.7839398" lon="10.4847587"><ele>405.0</ele><time>2026-04-26T14:54:12.643Z</time></trkpt><trkpt lat="32.7839626" lon="10.484574"><ele>404.0</ele><time>2026-04-26T14:54:13.655Z</time></trkpt><trkpt lat="32.7839788" lon="10.4843867"><ele>403.0</ele><time>2026-04-26T14:54:14.649Z</time></trkpt><trkpt lat="32.7839922" lon="10.4841919"><ele>403.0</ele><time>2026-04-26T14:54:15.64Z</time></trkpt><trkpt lat="32.7839979" lon="10.4839974"><ele>403.0</ele><time>2026-04-26T14:54:16.642Z</time></trkpt><trkpt lat="32.7840036" lon="10.483805"><ele>403.0</ele><time>2026-04-26T14:54:17.651Z</time></trkpt><trkpt lat="32.784005" lon="10.4836169"><ele>402.0</ele><time>2026-04-26T14:54:18.651Z</time></trkpt><trkpt lat="32.7840067" lon="10.4834269"><ele>401.0</ele><time>2026-04-26T14:54:19.649Z</time></trkpt><trkpt lat="32.7840049" lon="10.4832332"><ele>400.0</ele><time>2026-04-26T14:54:20.647Z</time></trkpt><trkpt lat="32.7840076" lon="10.4830327"><ele>398.0</ele><time>2026-04-26T14:54:21.65Z</time></trkpt><trkpt lat="32.7840105" lon="10.4828311"><ele>396.0</ele><time>2026-04-26T14:54:22.651Z</time></trkpt><trkpt lat="32.7840254" lon="10.4826295"><ele>394.0</ele><time>2026-04-26T14:54:23.645Z</time></trkpt><trkpt lat="32.7840527" lon="10.4824379"><ele>394.0</ele><time>2026-04-26T14:54:24.638Z</time></trkpt><trkpt lat="32.7841039" lon="10.4822527"><ele>394.0</ele><time>2026-04-26T14:54:25.641Z</time></trkpt><trkpt lat="32.784173" lon="10.4820716"><ele>394.0</ele><time>2026-04-26T14:54:26.643Z</time></trkpt><trkpt lat="32.7842559" lon="10.4819052"><ele>394.0</ele><time>2026-04-26T14:54:27.642Z</time></trkpt><trkpt lat="32.7843562" lon="10.4817459"><ele>394.0</ele><time>2026-04-26T14:54:28.649Z</time></trkpt><trkpt lat="32.7844732" lon="10.4815991"><ele>394.0</ele><time>2026-04-26T14:54:29.682Z</time></trkpt><trkpt lat="32.7846003" lon="10.4814641"><ele>394.0</ele><time>2026-04-26T14:54:30.648Z</time></trkpt><trkpt lat="32.7847334" lon="10.4813317"><ele>394.0</ele><time>2026-04-26T14:54:31.655Z</time></trkpt><trkpt lat="32.7848718" lon="10.4812046"><ele>394.0</ele><time>2026-04-26T14:54:32.645Z</time></trkpt><trkpt lat="32.7850125" lon="10.4810834"><ele>395.0</ele><time>2026-04-26T14:54:33.654Z</time></trkpt><trkpt lat="32.7851509" lon="10.4809626"><ele>396.0</ele><time>2026-04-26T14:54:34.643Z</time></trkpt><trkpt lat="32.7852913" lon="10.4808432"><ele>397.0</ele><time>2026-04-26T14:54:35.652Z</time></trkpt><trkpt lat="32.7854334" lon="10.480736"><ele>395.0</ele><time>2026-04-26T14:54:36.652Z</time></trkpt><trkpt lat="32.7855822" lon="10.4806433"><ele>393.0</ele><time>2026-04-26T14:54:37.655Z</time></trkpt><trkpt lat="32.7857381" lon="10.4805663"><ele>391.0</ele><time>2026-04-26T14:54:38.654Z</time></trkpt><trkpt lat="32.7858941" lon="10.4805028"><ele>391.6666666666667</ele><time>2026-04-26T14:54:39.655Z</time></trkpt><trkpt lat="32.7860503" lon="10.4804496"><ele>392.33333333333337</ele><time>2026-04-26T14:54:40.651Z</time></trkpt><trkpt lat="32.7862079" lon="10.4803944"><ele>393.0</ele><time>2026-04-26T14:54:41.65Z</time></trkpt><trkpt lat="32.7863601" lon="10.4803396"><ele>393.0</ele><time>2026-04-26T14:54:42.656Z</time></trkpt><trkpt lat="32.7865136" lon="10.4802778"><ele>393.0</ele><time>2026-04-26T14:54:43.643Z</time></trkpt><trkpt lat="32.7866639" lon="10.480206"><ele>393.0</ele><time>2026-04-26T14:54:44.649Z</time></trkpt><trkpt lat="32.786809" lon="10.4801195"><ele>394.0</ele><time>2026-04-26T14:54:45.654Z</time></trkpt><trkpt lat="32.786945" lon="10.4800097"><ele>395.0</ele><time>2026-04-26T14:54:46.638Z</time></trkpt><trkpt lat="32.7870728" lon="10.4798844"><ele>396.0</ele><time>2026-04-26T14:54:47.653Z</time></trkpt><trkpt lat="32.7871865" lon="10.4797455"><ele>395.33333333333337</ele><time>2026-04-26T14:54:48.651Z</time></trkpt><trkpt lat="32.7872854" lon="10.4795925"><ele>394.6666666666667</ele><time>2026-04-26T14:54:49.645Z</time></trkpt><trkpt lat="32.7873612" lon="10.4794304"><ele>394.0</ele><time>2026-04-26T14:54:50.649Z</time></trkpt><trkpt lat="32.7874127" lon="10.4792511"><ele>394.0</ele><time>2026-04-26T14:54:51.653Z</time></trkpt><trkpt lat="32.7874333" lon="10.4790579"><ele>394.0</ele><time>2026-04-26T14:54:52.656Z</time></trkpt><trkpt lat="32.7874298" lon="10.4788562"><ele>394.0</ele><time>2026-04-26T14:54:53.657Z</time></trkpt><trkpt lat="32.7874103" lon="10.4786482"><ele>393.6666666666667</ele><time>2026-04-26T14:54:54.648Z</time></trkpt><trkpt lat="32.7873835" lon="10.4784401"><ele>393.33333333333337</ele><time>2026-04-26T14:54:55.651Z</time></trkpt><trkpt lat="32.7873546" lon="10.4782327"><ele>393.0</ele><time>2026-04-26T14:54:56.647Z</time></trkpt><trkpt lat="32.7873253" lon="10.4780245"><ele>393.66666666666663</ele><time>2026-04-26T14:54:57.655Z</time></trkpt><trkpt lat="32.7872971" lon="10.4778183"><ele>394.3333333333333</ele><time>2026-04-26T14:54:58.653Z</time></trkpt><trkpt lat="32.7872708" lon="10.4776125"><ele>395.0</ele><time>2026-04-26T14:54:59.662Z</time></trkpt><trkpt lat="32.7872496" lon="10.4774091"><ele>395.0</ele><time>2026-04-26T14:55:00.651Z</time></trkpt><trkpt lat="32.7872366" lon="10.4772069"><ele>395.0</ele><time>2026-04-26T14:55:01.642Z</time></trkpt><trkpt lat="32.7872382" lon="10.4770059"><ele>395.0</ele><time>2026-04-26T14:55:02.641Z</time></trkpt><trkpt lat="32.7872583" lon="10.476808"><ele>395.0</ele><time>2026-04-26T14:55:03.631Z</time></trkpt><trkpt lat="32.787299" lon="10.4766167"><ele>395.0</ele><time>2026-04-26T14:55:04.655Z</time></trkpt><trkpt lat="32.7873642" lon="10.4764312"><ele>395.0</ele><time>2026-04-26T14:55:05.648Z</time></trkpt><trkpt lat="32.7874529" lon="10.4762561"><ele>393.66666666666663</ele><time>2026-04-26T14:55:06.654Z</time></trkpt><trkpt lat="32.7875516" lon="10.4760929"><ele>392.33333333333337</ele><time>2026-04-26T14:55:07.647Z</time></trkpt><trkpt lat="32.787655" lon="10.4759345"><ele>391.0</ele><time>2026-04-26T14:55:08.649Z</time></trkpt><trkpt lat="32.7877591" lon="10.4757755"><ele>391.33333333333337</ele><time>2026-04-26T14:55:09.633Z</time></trkpt><trkpt lat="32.7878622" lon="10.4756131"><ele>391.66666666666663</ele><time>2026-04-26T14:55:10.649Z</time></trkpt><trkpt lat="32.7879638" lon="10.4754492"><ele>392.0</ele><time>2026-04-26T14:55:11.653Z</time></trkpt><trkpt lat="32.7880622" lon="10.4752849"><ele>392.0</ele><time>2026-04-26T14:55:12.644Z</time></trkpt><trkpt lat="32.7881585" lon="10.4751237"><ele>392.0</ele><time>2026-04-26T14:55:13.642Z</time></trkpt><trkpt lat="32.7882527" lon="10.474961"><ele>392.0</ele><time>2026-04-26T14:55:14.647Z</time></trkpt><trkpt lat="32.7883471" lon="10.4747992"><ele>392.0</ele><time>2026-04-26T14:55:15.654Z</time></trkpt><trkpt lat="32.7884397" lon="10.4746467"><ele>392.0</ele><time>2026-04-26T14:55:16.648Z</time></trkpt><trkpt lat="32.7885202" lon="10.4745159"><ele>392.0</ele><time>2026-04-26T14:55:17.654Z</time></trkpt><trkpt lat="32.788593" lon="10.4743924"><ele>392.0</ele><time>2026-04-26T14:55:18.638Z</time></trkpt><trkpt lat="32.7886697" lon="10.4742716"><ele>392.0</ele><time>2026-04-26T14:55:19.645Z</time></trkpt><trkpt lat="32.7887463" lon="10.474146"><ele>392.0</ele><time>2026-04-26T14:55:20.646Z</time></trkpt><trkpt lat="32.7888236" lon="10.4740196"><ele>392.0</ele><time>2026-04-26T14:55:21.65Z</time></trkpt><trkpt lat="32.7889052" lon="10.473887"><ele>392.0</ele><time>2026-04-26T14:55:22.651Z</time></trkpt><trkpt lat="32.7889895" lon="10.4737527"><ele>389.66666666666663</ele><time>2026-04-26T14:55:23.652Z</time></trkpt><trkpt lat="32.7890795" lon="10.4736156"><ele>387.33333333333337</ele><time>2026-04-26T14:55:24.644Z</time></trkpt><trkpt lat="32.7891755" lon="10.4734768"><ele>385.0</ele><time>2026-04-26T14:55:25.636Z</time></trkpt><trkpt lat="32.7892769" lon="10.4733375"><ele>385.0</ele><time>2026-04-26T14:55:26.648Z</time></trkpt><trkpt lat="32.7893823" lon="10.4732004"><ele>385.0</ele><time>2026-04-26T14:55:27.645Z</time></trkpt><trkpt lat="32.7894974" lon="10.4730621"><ele>385.0</ele><time>2026-04-26T14:55:28.656Z</time></trkpt><trkpt lat="32.7896187" lon="10.4729289"><ele>383.0</ele><time>2026-04-26T14:55:29.643Z</time></trkpt><trkpt lat="32.789746" lon="10.4728"><ele>381.0</ele><time>2026-04-26T14:55:30.655Z</time></trkpt><trkpt lat="32.7898832" lon="10.4726804"><ele>379.0</ele><time>2026-04-26T14:55:31.642Z</time></trkpt><trkpt lat="32.7900312" lon="10.4725694"><ele>379.3333333333333</ele><time>2026-04-26T14:55:32.653Z</time></trkpt><trkpt lat="32.7901849" lon="10.472469"><ele>379.6666666666667</ele><time>2026-04-26T14:55:33.642Z</time></trkpt><trkpt lat="32.7903406" lon="10.4723728"><ele>380.0</ele><time>2026-04-26T14:55:34.641Z</time></trkpt><trkpt lat="32.790493" lon="10.4722813"><ele>380.0</ele><time>2026-04-26T14:55:35.642Z</time></trkpt><trkpt lat="32.7906442" lon="10.4721967"><ele>380.0</ele><time>2026-04-26T14:55:36.648Z</time></trkpt><trkpt lat="32.7907922" lon="10.4721152"><ele>380.0</ele><time>2026-04-26T14:55:37.654Z</time></trkpt><trkpt lat="32.7909325" lon="10.4720371"><ele>379.8</ele><time>2026-04-26T14:55:38.647Z</time></trkpt><trkpt lat="32.791062" lon="10.4719665"><ele>379.6</ele><time>2026-04-26T14:55:39.642Z</time></trkpt><trkpt lat="32.791171" lon="10.4718991"><ele>379.4</ele><time>2026-04-26T14:55:40.641Z</time></trkpt><trkpt lat="32.7912542" lon="10.4718441"><ele>379.2</ele><time>2026-04-26T14:55:41.64Z</time></trkpt><trkpt lat="32.791328" lon="10.4717923"><ele>379.0</ele><time>2026-04-26T14:55:42.654Z</time></trkpt><trkpt lat="32.7914007" lon="10.4717375"><ele>379.0</ele><time>2026-04-26T14:55:43.649Z</time></trkpt><trkpt lat="32.7914886" lon="10.471672"><ele>379.0</ele><time>2026-04-26T14:55:44.643Z</time></trkpt><trkpt lat="32.7915835" lon="10.4715995"><ele>379.0</ele><time>2026-04-26T14:55:45.649Z</time></trkpt><trkpt lat="32.7916879" lon="10.4715188"><ele>379.0</ele><time>2026-04-26T14:55:46.641Z</time></trkpt><trkpt lat="32.7918003" lon="10.4714383"><ele>379.0</ele><time>2026-04-26T14:55:47.656Z</time></trkpt><trkpt lat="32.791922" lon="10.4713514"><ele>379.0</ele><time>2026-04-26T14:55:48.651Z</time></trkpt><trkpt lat="32.7920487" lon="10.4712577"><ele>379.0</ele><time>2026-04-26T14:55:49.638Z</time></trkpt><trkpt lat="32.7921798" lon="10.4711608"><ele>379.0</ele><time>2026-04-26T14:55:50.65Z</time></trkpt><trkpt lat="32.7923153" lon="10.4710614"><ele>379.0</ele><time>2026-04-26T14:55:51.647Z</time></trkpt><trkpt lat="32.7924531" lon="10.4709567"><ele>379.0</ele><time>2026-04-26T14:55:52.652Z</time></trkpt><trkpt lat="32.7925906" lon="10.4708532"><ele>379.0</ele><time>2026-04-26T14:55:53.653Z</time></trkpt><trkpt lat="32.792732" lon="10.4707445"><ele>379.0</ele><time>2026-04-26T14:55:54.636Z</time></trkpt><trkpt lat="32.7928719" lon="10.4706416"><ele>379.0</ele><time>2026-04-26T14:55:55.669Z</time></trkpt><trkpt lat="32.7930164" lon="10.4705369"><ele>379.0</ele><time>2026-04-26T14:55:56.65Z</time></trkpt><trkpt lat="32.793158" lon="10.4704362"><ele>379.0</ele><time>2026-04-26T14:55:57.646Z</time></trkpt><trkpt lat="32.7933024" lon="10.4703355"><ele>379.0</ele><time>2026-04-26T14:55:58.639Z</time></trkpt><trkpt lat="32.7934422" lon="10.4702325"><ele>379.0</ele><time>2026-04-26T14:55:59.639Z</time></trkpt><trkpt lat="32.7935823" lon="10.4701331"><ele>380.3333333333333</ele><time>2026-04-26T14:56:00.644Z</time></trkpt><trkpt lat="32.7937183" lon="10.4700395"><ele>381.6666666666667</ele><time>2026-04-26T14:56:01.641Z</time></trkpt><trkpt lat="32.7938502" lon="10.4699398"><ele>383.0</ele><time>2026-04-26T14:56:02.641Z</time></trkpt><trkpt lat="32.7939719" lon="10.4698457"><ele>383.0</ele><time>2026-04-26T14:56:03.643Z</time></trkpt><trkpt lat="32.7940921" lon="10.4697591"><ele>383.0</ele><time>2026-04-26T14:56:04.67Z</time></trkpt><trkpt lat="32.7942137" lon="10.4696807"><ele>383.0</ele><time>2026-04-26T14:56:05.658Z</time></trkpt><trkpt lat="32.794341" lon="10.4696101"><ele>383.0</ele><time>2026-04-26T14:56:06.641Z</time></trkpt><trkpt lat="32.7944702" lon="10.4695497"><ele>381.0</ele><time>2026-04-26T14:56:07.643Z</time></trkpt><trkpt lat="32.7945988" lon="10.4695064"><ele>379.0</ele><time>2026-04-26T14:56:08.65Z</time></trkpt><trkpt lat="32.7947241" lon="10.4694789"><ele>377.0</ele><time>2026-04-26T14:56:09.636Z</time></trkpt><trkpt lat="32.7948456" lon="10.4694607"><ele>375.0</ele><time>2026-04-26T14:56:10.638Z</time></trkpt><trkpt lat="32.7949623" lon="10.4694482"><ele>375.0</ele><time>2026-04-26T14:56:11.649Z</time></trkpt><trkpt lat="32.7950748" lon="10.4694392"><ele>375.0</ele><time>2026-04-26T14:56:12.647Z</time></trkpt><trkpt lat="32.7951855" lon="10.4694343"><ele>375.0</ele><time>2026-04-26T14:56:13.638Z</time></trkpt><trkpt lat="32.7952992" lon="10.4694302"><ele>375.0</ele><time>2026-04-26T14:56:14.646Z</time></trkpt><trkpt lat="32.7954143" lon="10.4694301"><ele>374.0</ele><time>2026-04-26T14:56:15.648Z</time></trkpt><trkpt lat="32.7955302" lon="10.46943"><ele>373.0</ele><time>2026-04-26T14:56:16.635Z</time></trkpt><trkpt lat="32.7956484" lon="10.4694301"><ele>372.0</ele><time>2026-04-26T14:56:17.653Z</time></trkpt><trkpt lat="32.7957697" lon="10.4694283"><ele>371.0</ele><time>2026-04-26T14:56:18.628Z</time></trkpt><trkpt lat="32.7958926" lon="10.4694206"><ele>370.75</ele><time>2026-04-26T14:56:19.646Z</time></trkpt><trkpt lat="32.796018" lon="10.469411"><ele>370.5</ele><time>2026-04-26T14:56:20.638Z</time></trkpt><trkpt lat="32.7961469" lon="10.4694067"><ele>370.25</ele><time>2026-04-26T14:56:21.645Z</time></trkpt><trkpt lat="32.7962767" lon="10.4694102"><ele>370.0</ele><time>2026-04-26T14:56:22.647Z</time></trkpt><trkpt lat="32.7964053" lon="10.4694261"><ele>370.0</ele><time>2026-04-26T14:56:23.653Z</time></trkpt><trkpt lat="32.7965388" lon="10.4694407"><ele>370.0</ele><time>2026-04-26T14:56:24.651Z</time></trkpt><trkpt lat="32.7966775" lon="10.4694477"><ele>370.0</ele><time>2026-04-26T14:56:25.637Z</time></trkpt><trkpt lat="32.7968206" lon="10.469448"><ele>370.0</ele><time>2026-04-26T14:56:26.647Z</time></trkpt><trkpt lat="32.796964" lon="10.4694482"><ele>370.25</ele><time>2026-04-26T14:56:27.641Z</time></trkpt><trkpt lat="32.7971116" lon="10.4694515"><ele>370.5</ele><time>2026-04-26T14:56:28.643Z</time></trkpt><trkpt lat="32.7972578" lon="10.4694499"><ele>370.75</ele><time>2026-04-26T14:56:29.642Z</time></trkpt><trkpt lat="32.7974004" lon="10.469448"><ele>371.0</ele><time>2026-04-26T14:56:30.645Z</time></trkpt><trkpt lat="32.7975413" lon="10.4694431"><ele>371.0</ele><time>2026-04-26T14:56:31.649Z</time></trkpt><trkpt lat="32.7976823" lon="10.4694338"><ele>371.0</ele><time>2026-04-26T14:56:32.643Z</time></trkpt><trkpt lat="32.7978249" lon="10.4694118"><ele>371.0</ele><time>2026-04-26T14:56:33.649Z</time></trkpt><trkpt lat="32.7979673" lon="10.4693739"><ele>371.0</ele><time>2026-04-26T14:56:34.647Z</time></trkpt><trkpt lat="32.7981118" lon="10.4693316"><ele>371.0</ele><time>2026-04-26T14:56:35.647Z</time></trkpt><trkpt lat="32.7982641" lon="10.469293"><ele>371.0</ele><time>2026-04-26T14:56:36.639Z</time></trkpt><trkpt lat="32.7984228" lon="10.4692584"><ele>371.0</ele><time>2026-04-26T14:56:37.65Z</time></trkpt><trkpt lat="32.7985877" lon="10.4692171"><ele>370.6666666666667</ele><time>2026-04-26T14:56:38.65Z</time></trkpt><trkpt lat="32.7987523" lon="10.4691743"><ele>370.3333333333333</ele><time>2026-04-26T14:56:39.655Z</time></trkpt><trkpt lat="32.7989159" lon="10.4691335"><ele>370.0</ele><time>2026-04-26T14:56:40.64Z</time></trkpt><trkpt lat="32.7990777" lon="10.4690955"><ele>370.0</ele><time>2026-04-26T14:56:41.653Z</time></trkpt><trkpt lat="32.7992385" lon="10.4690576"><ele>370.0</ele><time>2026-04-26T14:56:42.65Z</time></trkpt><trkpt lat="32.7994022" lon="10.4690198"><ele>370.0</ele><time>2026-04-26T14:56:43.641Z</time></trkpt><trkpt lat="32.7995665" lon="10.4689808"><ele>369.0</ele><time>2026-04-26T14:56:44.649Z</time></trkpt><trkpt lat="32.7997342" lon="10.468941"><ele>368.0</ele><time>2026-04-26T14:56:45.644Z</time></trkpt><trkpt lat="32.7999008" lon="10.4689008"><ele>367.0</ele><time>2026-04-26T14:56:46.649Z</time></trkpt><trkpt lat="32.8000664" lon="10.4688634"><ele>367.3333333333333</ele><time>2026-04-26T14:56:47.648Z</time></trkpt><trkpt lat="32.8002333" lon="10.468825"><ele>367.6666666666667</ele><time>2026-04-26T14:56:48.652Z</time></trkpt><trkpt lat="32.8004" lon="10.4687884"><ele>368.0</ele><time>2026-04-26T14:56:49.655Z</time></trkpt><trkpt lat="32.8005667" lon="10.4687501"><ele>368.0</ele><time>2026-04-26T14:56:50.646Z</time></trkpt><trkpt lat="32.8007352" lon="10.4687107"><ele>368.0</ele><time>2026-04-26T14:56:51.651Z</time></trkpt><trkpt lat="32.8009034" lon="10.4686686"><ele>368.0</ele><time>2026-04-26T14:56:52.647Z</time></trkpt><trkpt lat="32.8010721" lon="10.4686248"><ele>366.6666666666667</ele><time>2026-04-26T14:56:53.647Z</time></trkpt><trkpt lat="32.8012413" lon="10.4685829"><ele>365.3333333333333</ele><time>2026-04-26T14:56:54.649Z</time></trkpt><trkpt lat="32.8014107" lon="10.4685402"><ele>364.0</ele><time>2026-04-26T14:56:55.648Z</time></trkpt><trkpt lat="32.8015798" lon="10.4684992"><ele>364.0</ele><time>2026-04-26T14:56:56.64Z</time></trkpt><trkpt lat="32.801752" lon="10.4684562"><ele>364.0</ele><time>2026-04-26T14:56:57.647Z</time></trkpt><trkpt lat="32.8019242" lon="10.4684144"><ele>364.0</ele><time>2026-04-26T14:56:58.647Z</time></trkpt><trkpt lat="32.8020925" lon="10.4683753"><ele>363.66666666666663</ele><time>2026-04-26T14:56:59.644Z</time></trkpt><trkpt lat="32.8022621" lon="10.4683384"><ele>363.3333333333333</ele><time>2026-04-26T14:57:00.653Z</time></trkpt><trkpt lat="32.8024276" lon="10.4683003"><ele>363.0</ele><time>2026-04-26T14:57:01.645Z</time></trkpt><trkpt lat="32.8025937" lon="10.4682642"><ele>362.3333333333333</ele><time>2026-04-26T14:57:02.641Z</time></trkpt><trkpt lat="32.8027597" lon="10.4682268"><ele>361.66666666666663</ele><time>2026-04-26T14:57:03.649Z</time></trkpt><trkpt lat="32.8029218" lon="10.4681877"><ele>361.0</ele><time>2026-04-26T14:57:04.651Z</time></trkpt><trkpt lat="32.803085" lon="10.4681532"><ele>361.0</ele><time>2026-04-26T14:57:05.64Z</time></trkpt><trkpt lat="32.8032522" lon="10.4681274"><ele>361.0</ele><time>2026-04-26T14:57:06.641Z</time></trkpt><trkpt lat="32.80342" lon="10.4681111"><ele>361.0</ele><time>2026-04-26T14:57:07.65Z</time></trkpt><trkpt lat="32.8035919" lon="10.4681081"><ele>361.3333333333333</ele><time>2026-04-26T14:57:08.653Z</time></trkpt><trkpt lat="32.8037615" lon="10.4681213"><ele>361.6666666666667</ele><time>2026-04-26T14:57:09.641Z</time></trkpt><trkpt lat="32.8039316" lon="10.4681367"><ele>362.0</ele><time>2026-04-26T14:57:10.651Z</time></trkpt><trkpt lat="32.804101" lon="10.4681519"><ele>362.0</ele><time>2026-04-26T14:57:11.636Z</time></trkpt><trkpt lat="32.804272" lon="10.468163"><ele>362.0</ele><time>2026-04-26T14:57:12.641Z</time></trkpt><trkpt lat="32.8044434" lon="10.4681676"><ele>362.0</ele><time>2026-04-26T14:57:13.65Z</time></trkpt><trkpt lat="32.8046132" lon="10.4681599"><ele>362.0</ele><time>2026-04-26T14:57:14.657Z</time></trkpt><trkpt lat="32.8047801" lon="10.4681426"><ele>362.0</ele><time>2026-04-26T14:57:15.638Z</time></trkpt><trkpt lat="32.8049477" lon="10.4681169"><ele>362.0</ele><time>2026-04-26T14:57:16.65Z</time></trkpt><trkpt lat="32.8051151" lon="10.468086"><ele>361.33333333333337</ele><time>2026-04-26T14:57:17.649Z</time></trkpt><trkpt lat="32.8052838" lon="10.4680533"><ele>360.6666666666667</ele><time>2026-04-26T14:57:18.64Z</time></trkpt><trkpt lat="32.8054512" lon="10.4680181"><ele>360.0</ele><time>2026-04-26T14:57:19.65Z</time></trkpt><trkpt lat="32.8056235" lon="10.4679803"><ele>359.3333333333333</ele><time>2026-04-26T14:57:20.644Z</time></trkpt><trkpt lat="32.8057976" lon="10.467941"><ele>358.66666666666663</ele><time>2026-04-26T14:57:21.654Z</time></trkpt><trkpt lat="32.8059741" lon="10.4679034"><ele>358.0</ele><time>2026-04-26T14:57:22.637Z</time></trkpt><trkpt lat="32.8061494" lon="10.4678633"><ele>358.0</ele><time>2026-04-26T14:57:23.659Z</time></trkpt><trkpt lat="32.8063248" lon="10.4678234"><ele>358.0</ele><time>2026-04-26T14:57:24.65Z</time></trkpt><trkpt lat="32.8064911" lon="10.4677966"><ele>358.0</ele><time>2026-04-26T14:57:25.593Z</time></trkpt><trkpt lat="32.8066626" lon="10.4677574"><ele>358.3333333333333</ele><time>2026-04-26T14:57:26.592Z</time></trkpt><trkpt lat="32.8068377" lon="10.4677188"><ele>358.6666666666667</ele><time>2026-04-26T14:57:27.595Z</time></trkpt><trkpt lat="32.8070113" lon="10.467685"><ele>359.0</ele><time>2026-04-26T14:57:28.592Z</time></trkpt><trkpt lat="32.807188" lon="10.4676505"><ele>359.0</ele><time>2026-04-26T14:57:29.579Z</time></trkpt><trkpt lat="32.807362" lon="10.4676195"><ele>359.0</ele><time>2026-04-26T14:57:30.582Z</time></trkpt><trkpt lat="32.8075363" lon="10.4675851"><ele>359.0</ele><time>2026-04-26T14:57:31.587Z</time></trkpt><trkpt lat="32.8077116" lon="10.467552"><ele>358.33333333333337</ele><time>2026-04-26T14:57:32.59Z</time></trkpt><trkpt lat="32.8078886" lon="10.4675157"><ele>357.6666666666667</ele><time>2026-04-26T14:57:33.587Z</time></trkpt><trkpt lat="32.8080621" lon="10.4674794"><ele>357.0</ele><time>2026-04-26T14:57:34.589Z</time></trkpt><trkpt lat="32.8082351" lon="10.4674452"><ele>357.0</ele><time>2026-04-26T14:57:35.581Z</time></trkpt><trkpt lat="32.8084084" lon="10.4674073"><ele>357.0</ele><time>2026-04-26T14:57:36.581Z</time></trkpt><trkpt lat="32.8085811" lon="10.4673749"><ele>357.0</ele><time>2026-04-26T14:57:37.587Z</time></trkpt><trkpt lat="32.8087572" lon="10.4673391"><ele>356.3333333333333</ele><time>2026-04-26T14:57:38.581Z</time></trkpt><trkpt lat="32.8089275" lon="10.4673044"><ele>355.66666666666663</ele><time>2026-04-26T14:57:39.593Z</time></trkpt><trkpt lat="32.8091017" lon="10.4672704"><ele>355.0</ele><time>2026-04-26T14:57:40.581Z</time></trkpt><trkpt lat="32.8092785" lon="10.4672387"><ele>354.3333333333333</ele><time>2026-04-26T14:57:41.585Z</time></trkpt><trkpt lat="32.8094606" lon="10.467204"><ele>353.6666666666667</ele><time>2026-04-26T14:57:42.591Z</time></trkpt><trkpt lat="32.8096437" lon="10.4671696"><ele>353.0</ele><time>2026-04-26T14:57:43.592Z</time></trkpt><trkpt lat="32.8098284" lon="10.4671299"><ele>353.0</ele><time>2026-04-26T14:57:44.584Z</time></trkpt><trkpt lat="32.8100144" lon="10.4670888"><ele>353.0</ele><time>2026-04-26T14:57:45.588Z</time></trkpt><trkpt lat="32.8102032" lon="10.4670497"><ele>353.0</ele><time>2026-04-26T14:57:46.59Z</time></trkpt><trkpt lat="32.8103993" lon="10.467009"><ele>353.0</ele><time>2026-04-26T14:57:47.589Z</time></trkpt><trkpt lat="32.8105856" lon="10.4669624"><ele>353.0</ele><time>2026-04-26T14:57:48.585Z</time></trkpt><trkpt lat="32.8107735" lon="10.4669232"><ele>353.0</ele><time>2026-04-26T14:57:49.583Z</time></trkpt><trkpt lat="32.8109612" lon="10.466885"><ele>352.33333333333337</ele><time>2026-04-26T14:57:50.594Z</time></trkpt><trkpt lat="32.8111454" lon="10.4668445"><ele>351.6666666666667</ele><time>2026-04-26T14:57:51.589Z</time></trkpt><trkpt lat="32.8113265" lon="10.4668076"><ele>351.0</ele><time>2026-04-26T14:57:52.585Z</time></trkpt><trkpt lat="32.8114997" lon="10.4667683"><ele>351.0</ele><time>2026-04-26T14:57:53.585Z</time></trkpt><trkpt lat="32.8116565" lon="10.4667333"><ele>351.0</ele><time>2026-04-26T14:57:54.583Z</time></trkpt><trkpt lat="32.8118002" lon="10.4667035"><ele>351.0</ele><time>2026-04-26T14:57:55.588Z</time></trkpt><trkpt lat="32.8119582" lon="10.4666589"><ele>350.5</ele><time>2026-04-26T14:57:56.585Z</time></trkpt><trkpt lat="32.8121575" lon="10.4666048"><ele>350.0</ele><time>2026-04-26T14:57:57.585Z</time></trkpt><trkpt lat="32.81241" lon="10.4665677"><ele>349.5</ele><time>2026-04-26T14:57:58.577Z</time></trkpt><trkpt lat="32.8126891" lon="10.4665355"><ele>349.0</ele><time>2026-04-26T14:57:59.581Z</time></trkpt><trkpt lat="32.8129877" lon="10.4664717"><ele>349.0</ele><time>2026-04-26T14:58:00.585Z</time></trkpt><trkpt lat="32.8132859" lon="10.4664004"><ele>349.0</ele><time>2026-04-26T14:58:01.587Z</time></trkpt><trkpt lat="32.813562" lon="10.4663442"><ele>349.0</ele><time>2026-04-26T14:58:02.577Z</time></trkpt><trkpt lat="32.8138103" lon="10.4662945"><ele>349.0</ele><time>2026-04-26T14:58:03.59Z</time></trkpt><trkpt lat="32.8140451" lon="10.4662532"><ele>349.0</ele><time>2026-04-26T14:58:04.584Z</time></trkpt><trkpt lat="32.8142713" lon="10.4662174"><ele>349.0</ele><time>2026-04-26T14:58:05.598Z</time></trkpt><trkpt lat="32.8144806" lon="10.4661865"><ele>349.0</ele><time>2026-04-26T14:58:06.586Z</time></trkpt><trkpt lat="32.8146791" lon="10.4661536"><ele>349.66666666666663</ele><time>2026-04-26T14:58:07.587Z</time></trkpt><trkpt lat="32.8148783" lon="10.4661253"><ele>350.3333333333333</ele><time>2026-04-26T14:58:08.587Z</time></trkpt><trkpt lat="32.8150842" lon="10.4661112"><ele>351.0</ele><time>2026-04-26T14:58:09.587Z</time></trkpt><trkpt lat="32.8152954" lon="10.4661072"><ele>351.0</ele><time>2026-04-26T14:58:10.582Z</time></trkpt><trkpt lat="32.8155091" lon="10.4661171"><ele>351.0</ele><time>2026-04-26T14:58:11.572Z</time></trkpt><trkpt lat="32.8157182" lon="10.4661421"><ele>351.0</ele><time>2026-04-26T14:58:12.594Z</time></trkpt><trkpt lat="32.8159262" lon="10.4661861"><ele>351.0</ele><time>2026-04-26T14:58:13.593Z</time></trkpt><trkpt lat="32.8161296" lon="10.4662467"><ele>351.0</ele><time>2026-04-26T14:58:14.584Z</time></trkpt><trkpt lat="32.8163263" lon="10.4663243"><ele>351.0</ele><time>2026-04-26T14:58:15.582Z</time></trkpt><trkpt lat="32.8165151" lon="10.4664201"><ele>351.0</ele><time>2026-04-26T14:58:16.594Z</time></trkpt><trkpt lat="32.8166953" lon="10.4665307"><ele>351.0</ele><time>2026-04-26T14:58:17.585Z</time></trkpt><trkpt lat="32.8168702" lon="10.4666562"><ele>351.0</ele><time>2026-04-26T14:58:18.579Z</time></trkpt><trkpt lat="32.8170442" lon="10.466789"><ele>350.6666666666667</ele><time>2026-04-26T14:58:19.577Z</time></trkpt><trkpt lat="32.8172193" lon="10.4669148"><ele>350.33333333333337</ele><time>2026-04-26T14:58:20.572Z</time></trkpt><trkpt lat="32.8173973" lon="10.4670436"><ele>350.0</ele><time>2026-04-26T14:58:21.576Z</time></trkpt><trkpt lat="32.8175724" lon="10.467174"><ele>350.0</ele><time>2026-04-26T14:58:22.57Z</time></trkpt><trkpt lat="32.8177495" lon="10.467301"><ele>350.0</ele><time>2026-04-26T14:58:23.57Z</time></trkpt><trkpt lat="32.817931" lon="10.4674318"><ele>350.0</ele><time>2026-04-26T14:58:24.659Z</time></trkpt><trkpt lat="32.8180953" lon="10.4675557"><ele>350.0</ele><time>2026-04-26T14:58:25.646Z</time></trkpt><trkpt lat="32.8182356" lon="10.467671"><ele>350.0</ele><time>2026-04-26T14:58:26.577Z</time></trkpt><trkpt lat="32.818362" lon="10.4677818"><ele>350.0</ele><time>2026-04-26T14:58:27.592Z</time></trkpt><trkpt lat="32.8184851" lon="10.4678966"><ele>350.0</ele><time>2026-04-26T14:58:28.603Z</time></trkpt><trkpt lat="32.818612" lon="10.4680203"><ele>350.0</ele><time>2026-04-26T14:58:29.608Z</time></trkpt><trkpt lat="32.8187474" lon="10.4681546"><ele>350.0</ele><time>2026-04-26T14:58:30.612Z</time></trkpt><trkpt lat="32.8188848" lon="10.4682947"><ele>350.0</ele><time>2026-04-26T14:58:31.603Z</time></trkpt><trkpt lat="32.8190259" lon="10.4684387"><ele>350.0</ele><time>2026-04-26T14:58:32.646Z</time></trkpt><trkpt lat="32.8191658" lon="10.4685831"><ele>350.0</ele><time>2026-04-26T14:58:33.654Z</time></trkpt><trkpt lat="32.819302" lon="10.4687249"><ele>349.33333333333337</ele><time>2026-04-26T14:58:34.576Z</time></trkpt><trkpt lat="32.8194424" lon="10.4688732"><ele>348.6666666666667</ele><time>2026-04-26T14:58:35.575Z</time></trkpt><trkpt lat="32.819585" lon="10.469026"><ele>348.0</ele><time>2026-04-26T14:58:36.583Z</time></trkpt><trkpt lat="32.8197287" lon="10.4691734"><ele>348.0</ele><time>2026-04-26T14:58:37.583Z</time></trkpt><trkpt lat="32.8198746" lon="10.4693217"><ele>348.0</ele><time>2026-04-26T14:58:38.602Z</time></trkpt><trkpt lat="32.8200165" lon="10.4694629"><ele>348.0</ele><time>2026-04-26T14:58:39.572Z</time></trkpt><trkpt lat="32.8201601" lon="10.4696065"><ele>347.3333333333333</ele><time>2026-04-26T14:58:40.587Z</time></trkpt><trkpt lat="32.8203009" lon="10.4697507"><ele>346.66666666666663</ele><time>2026-04-26T14:58:41.592Z</time></trkpt><trkpt lat="32.8204431" lon="10.4698968"><ele>346.0</ele><time>2026-04-26T14:58:42.594Z</time></trkpt><trkpt lat="32.8205868" lon="10.4700412"><ele>346.0</ele><time>2026-04-26T14:58:43.586Z</time></trkpt><trkpt lat="32.8207342" lon="10.4701864"><ele>346.0</ele><time>2026-04-26T14:58:44.585Z</time></trkpt><trkpt lat="32.8208805" lon="10.4703326"><ele>346.0</ele><time>2026-04-26T14:58:45.578Z</time></trkpt><trkpt lat="32.8210278" lon="10.4704821"><ele>345.3333333333333</ele><time>2026-04-26T14:58:46.587Z</time></trkpt><trkpt lat="32.8211711" lon="10.47063"><ele>344.6666666666667</ele><time>2026-04-26T14:58:47.573Z</time></trkpt><trkpt lat="32.8213173" lon="10.4707801"><ele>344.0</ele><time>2026-04-26T14:58:48.593Z</time></trkpt><trkpt lat="32.8214612" lon="10.4709259"><ele>344.0</ele><time>2026-04-26T14:58:49.586Z</time></trkpt><trkpt lat="32.8216049" lon="10.4710749"><ele>344.0</ele><time>2026-04-26T14:58:50.589Z</time></trkpt><trkpt lat="32.8217483" lon="10.4712183"><ele>344.0</ele><time>2026-04-26T14:58:51.581Z</time></trkpt><trkpt lat="32.8218927" lon="10.4713591"><ele>343.33333333333337</ele><time>2026-04-26T14:58:52.573Z</time></trkpt><trkpt lat="32.8220412" lon="10.4715005"><ele>342.6666666666667</ele><time>2026-04-26T14:58:53.59Z</time></trkpt><trkpt lat="32.8221904" lon="10.4716356"><ele>342.0</ele><time>2026-04-26T14:58:54.59Z</time></trkpt><trkpt lat="32.8223473" lon="10.4717645"><ele>342.0</ele><time>2026-04-26T14:58:55.576Z</time></trkpt><trkpt lat="32.8225176" lon="10.4718744"><ele>342.0</ele><time>2026-04-26T14:58:56.626Z</time></trkpt><trkpt lat="32.8226871" lon="10.4719573"><ele>342.0</ele><time>2026-04-26T14:58:57.572Z</time></trkpt><trkpt lat="32.8228688" lon="10.4720223"><ele>341.0</ele><time>2026-04-26T14:58:58.587Z</time></trkpt><trkpt lat="32.8230522" lon="10.4720739"><ele>340.0</ele><time>2026-04-26T14:58:59.592Z</time></trkpt><trkpt lat="32.8232347" lon="10.4721228"><ele>339.0</ele><time>2026-04-26T14:59:00.582Z</time></trkpt><trkpt lat="32.8234224" lon="10.4721732"><ele>338.6666666666667</ele><time>2026-04-26T14:59:01.577Z</time></trkpt><trkpt lat="32.8236103" lon="10.4722204"><ele>338.33333333333337</ele><time>2026-04-26T14:59:02.584Z</time></trkpt><trkpt lat="32.8237963" lon="10.4722711"><ele>338.0</ele><time>2026-04-26T14:59:03.588Z</time></trkpt><trkpt lat="32.8239807" lon="10.4723213"><ele>338.0</ele><time>2026-04-26T14:59:04.579Z</time></trkpt><trkpt lat="32.8241689" lon="10.4723681"><ele>338.0</ele><time>2026-04-26T14:59:05.584Z</time></trkpt><trkpt lat="32.8243558" lon="10.4724139"><ele>338.0</ele><time>2026-04-26T14:59:06.589Z</time></trkpt><trkpt lat="32.8245397" lon="10.4724581"><ele>337.0</ele><time>2026-04-26T14:59:07.589Z</time></trkpt><trkpt lat="32.8247243" lon="10.4724971"><ele>336.0</ele><time>2026-04-26T14:59:08.583Z</time></trkpt><trkpt lat="32.8249076" lon="10.4725369"><ele>335.0</ele><time>2026-04-26T14:59:09.578Z</time></trkpt><trkpt lat="32.8250935" lon="10.4725854"><ele>335.0</ele><time>2026-04-26T14:59:10.579Z</time></trkpt><trkpt lat="32.8252808" lon="10.4726429"><ele>335.0</ele><time>2026-04-26T14:59:11.583Z</time></trkpt><trkpt lat="32.8254668" lon="10.4727045"><ele>335.0</ele><time>2026-04-26T14:59:12.589Z</time></trkpt><trkpt lat="32.8256478" lon="10.4727781"><ele>335.0</ele><time>2026-04-26T14:59:13.578Z</time></trkpt><trkpt lat="32.8258307" lon="10.472868"><ele>335.0</ele><time>2026-04-26T14:59:14.628Z</time></trkpt><trkpt lat="32.8260015" lon="10.4729672"><ele>335.0</ele><time>2026-04-26T14:59:15.587Z</time></trkpt><trkpt lat="32.8261674" lon="10.4730781"><ele>334.33333333333337</ele><time>2026-04-26T14:59:16.581Z</time></trkpt><trkpt lat="32.826327" lon="10.473199"><ele>333.6666666666667</ele><time>2026-04-26T14:59:17.58Z</time></trkpt><trkpt lat="32.8264781" lon="10.4733387"><ele>333.0</ele><time>2026-04-26T14:59:18.584Z</time></trkpt><trkpt lat="32.8266213" lon="10.4734863"><ele>333.0</ele><time>2026-04-26T14:59:19.59Z</time></trkpt><trkpt lat="32.8267614" lon="10.4736335"><ele>333.0</ele><time>2026-04-26T14:59:20.586Z</time></trkpt><trkpt lat="32.8269035" lon="10.4737797"><ele>333.0</ele><time>2026-04-26T14:59:21.585Z</time></trkpt><trkpt lat="32.8270461" lon="10.473926"><ele>332.6666666666667</ele><time>2026-04-26T14:59:22.596Z</time></trkpt><trkpt lat="32.8271871" lon="10.4740732"><ele>332.33333333333337</ele><time>2026-04-26T14:59:23.583Z</time></trkpt><trkpt lat="32.8273308" lon="10.4742272"><ele>332.0</ele><time>2026-04-26T14:59:24.585Z</time></trkpt><trkpt lat="32.827468" lon="10.4743836"><ele>332.0</ele><time>2026-04-26T14:59:25.584Z</time></trkpt><trkpt lat="32.8276048" lon="10.4745406"><ele>332.0</ele><time>2026-04-26T14:59:26.587Z</time></trkpt><trkpt lat="32.8277376" lon="10.4746992"><ele>332.0</ele><time>2026-04-26T14:59:27.583Z</time></trkpt><trkpt lat="32.8278754" lon="10.4748564"><ele>333.0</ele><time>2026-04-26T14:59:28.583Z</time></trkpt><trkpt lat="32.8280164" lon="10.4750122"><ele>334.0</ele><time>2026-04-26T14:59:29.591Z</time></trkpt><trkpt lat="32.8281593" lon="10.475164"><ele>335.0</ele><time>2026-04-26T14:59:30.585Z</time></trkpt><trkpt lat="32.828306" lon="10.4753078"><ele>334.0</ele><time>2026-04-26T14:59:31.588Z</time></trkpt><trkpt lat="32.8284557" lon="10.4754437"><ele>333.0</ele><time>2026-04-26T14:59:32.576Z</time></trkpt><trkpt lat="32.8286087" lon="10.4755752"><ele>332.0</ele><time>2026-04-26T14:59:33.576Z</time></trkpt><trkpt lat="32.8287693" lon="10.4756977"><ele>331.33333333333337</ele><time>2026-04-26T14:59:34.573Z</time></trkpt><trkpt lat="32.8289369" lon="10.4758063"><ele>330.6666666666667</ele><time>2026-04-26T14:59:35.576Z</time></trkpt><trkpt lat="32.8291115" lon="10.4758996"><ele>330.0</ele><time>2026-04-26T14:59:36.575Z</time></trkpt><trkpt lat="32.8292898" lon="10.475973"><ele>330.0</ele><time>2026-04-26T14:59:37.586Z</time></trkpt><trkpt lat="32.8294681" lon="10.4760329"><ele>330.0</ele><time>2026-04-26T14:59:38.586Z</time></trkpt><trkpt lat="32.8296501" lon="10.4760765"><ele>330.0</ele><time>2026-04-26T14:59:39.577Z</time></trkpt><trkpt lat="32.8298381" lon="10.4761072"><ele>330.0</ele><time>2026-04-26T14:59:40.584Z</time></trkpt><trkpt lat="32.8300257" lon="10.4761295"><ele>330.0</ele><time>2026-04-26T14:59:41.584Z</time></trkpt><trkpt lat="32.8302171" lon="10.476151"><ele>330.0</ele><time>2026-04-26T14:59:42.592Z</time></trkpt><trkpt lat="32.8304082" lon="10.4761739"><ele>330.0</ele><time>2026-04-26T14:59:43.581Z</time></trkpt><trkpt lat="32.8306004" lon="10.4761986"><ele>330.0</ele><time>2026-04-26T14:59:44.586Z</time></trkpt><trkpt lat="32.8307952" lon="10.4762211"><ele>330.0</ele><time>2026-04-26T14:59:45.602Z</time></trkpt><trkpt lat="32.8309833" lon="10.4762374"><ele>330.0</ele><time>2026-04-26T14:59:46.584Z</time></trkpt><trkpt lat="32.8311739" lon="10.4762568"><ele>330.0</ele><time>2026-04-26T14:59:47.589Z</time></trkpt><trkpt lat="32.831364" lon="10.4762708"><ele>330.0</ele><time>2026-04-26T14:59:48.586Z</time></trkpt><trkpt lat="32.8315543" lon="10.4762589"><ele>329.3333333333333</ele><time>2026-04-26T14:59:49.574Z</time></trkpt><trkpt lat="32.8317452" lon="10.4762127"><ele>328.66666666666663</ele><time>2026-04-26T14:59:50.587Z</time></trkpt><trkpt lat="32.8319265" lon="10.4761496"><ele>328.0</ele><time>2026-04-26T14:59:51.58Z</time></trkpt><trkpt lat="32.8321129" lon="10.4760921"><ele>328.0</ele><time>2026-04-26T14:59:52.602Z</time></trkpt><trkpt lat="32.8322951" lon="10.4760388"><ele>328.0</ele><time>2026-04-26T14:59:53.579Z</time></trkpt><trkpt lat="32.8324846" lon="10.4759937"><ele>328.0</ele><time>2026-04-26T14:59:54.58Z</time></trkpt><trkpt lat="32.8326721" lon="10.4759524"><ele>328.0</ele><time>2026-04-26T14:59:55.586Z</time></trkpt><trkpt lat="32.8328597" lon="10.4759274"><ele>328.0</ele><time>2026-04-26T14:59:56.572Z</time></trkpt><trkpt lat="32.8330503" lon="10.4759189"><ele>328.0</ele><time>2026-04-26T14:59:57.597Z</time></trkpt><trkpt lat="32.8332396" lon="10.4759196"><ele>328.0</ele><time>2026-04-26T14:59:58.579Z</time></trkpt><trkpt lat="32.8334307" lon="10.475923"><ele>328.0</ele><time>2026-04-26T14:59:59.579Z</time></trkpt><trkpt lat="32.8336238" lon="10.4759284"><ele>328.0</ele><time>2026-04-26T15:00:00.58Z</time></trkpt><trkpt lat="32.8338169" lon="10.4759329"><ele>327.3333333333333</ele><time>2026-04-26T15:00:01.586Z</time></trkpt><trkpt lat="32.8340085" lon="10.475937"><ele>326.6666666666667</ele><time>2026-04-26T15:00:02.576Z</time></trkpt><trkpt lat="32.8341992" lon="10.4759344"><ele>326.0</ele><time>2026-04-26T15:00:03.576Z</time></trkpt><trkpt lat="32.8343897" lon="10.4759367"><ele>326.0</ele><time>2026-04-26T15:00:04.572Z</time></trkpt><trkpt lat="32.8345794" lon="10.4759383"><ele>326.0</ele><time>2026-04-26T15:00:05.587Z</time></trkpt><trkpt lat="32.8347624" lon="10.4759378"><ele>326.0</ele><time>2026-04-26T15:00:06.581Z</time></trkpt><trkpt lat="32.8349354" lon="10.4759405"><ele>326.0</ele><time>2026-04-26T15:00:07.581Z</time></trkpt><trkpt lat="32.8350972" lon="10.475947"><ele>326.0</ele><time>2026-04-26T15:00:08.587Z</time></trkpt><trkpt lat="32.8352518" lon="10.4759486"><ele>326.0</ele><time>2026-04-26T15:00:09.585Z</time></trkpt><trkpt lat="32.8354054" lon="10.475948"><ele>326.0</ele><time>2026-04-26T15:00:10.59Z</time></trkpt><trkpt lat="32.8355597" lon="10.475948"><ele>326.0</ele><time>2026-04-26T15:00:11.583Z</time></trkpt><trkpt lat="32.835717" lon="10.4759492"><ele>326.0</ele><time>2026-04-26T15:00:12.589Z</time></trkpt><trkpt lat="32.8358762" lon="10.4759511"><ele>326.0</ele><time>2026-04-26T15:00:13.58Z</time></trkpt><trkpt lat="32.8360362" lon="10.475957"><ele>326.0</ele><time>2026-04-26T15:00:14.594Z</time></trkpt><trkpt lat="32.8361957" lon="10.475963"><ele>326.0</ele><time>2026-04-26T15:00:15.586Z</time></trkpt><trkpt lat="32.8363511" lon="10.4759628"><ele>326.0</ele><time>2026-04-26T15:00:16.584Z</time></trkpt><trkpt lat="32.8365044" lon="10.4759606"><ele>326.0</ele><time>2026-04-26T15:00:17.583Z</time></trkpt><trkpt lat="32.8366601" lon="10.475956"><ele>326.0</ele><time>2026-04-26T15:00:18.583Z</time></trkpt><trkpt lat="32.8368182" lon="10.475944"><ele>325.33333333333337</ele><time>2026-04-26T15:00:19.582Z</time></trkpt><trkpt lat="32.8369755" lon="10.47592"><ele>324.6666666666667</ele><time>2026-04-26T15:00:20.585Z</time></trkpt><trkpt lat="32.8371258" lon="10.4758759"><ele>324.0</ele><time>2026-04-26T15:00:21.591Z</time></trkpt><trkpt lat="32.8372649" lon="10.4758154"><ele>324.0</ele><time>2026-04-26T15:00:22.589Z</time></trkpt><trkpt lat="32.8373975" lon="10.4757406"><ele>324.0</ele><time>2026-04-26T15:00:23.575Z</time></trkpt><trkpt lat="32.8375322" lon="10.4756666"><ele>324.0</ele><time>2026-04-26T15:00:24.573Z</time></trkpt><trkpt lat="32.8376719" lon="10.4755974"><ele>324.0</ele><time>2026-04-26T15:00:25.594Z</time></trkpt><trkpt lat="32.8378078" lon="10.4755309"><ele>324.3333333333333</ele><time>2026-04-26T15:00:26.575Z</time></trkpt><trkpt lat="32.8379471" lon="10.4754638"><ele>324.66666666666663</ele><time>2026-04-26T15:00:27.581Z</time></trkpt><trkpt lat="32.8380967" lon="10.4754096"><ele>325.0</ele><time>2026-04-26T15:00:28.597Z</time></trkpt><trkpt lat="32.8382474" lon="10.4753827"><ele>324.0</ele><time>2026-04-26T15:00:29.569Z</time></trkpt><trkpt lat="32.8383952" lon="10.4753663"><ele>323.0</ele><time>2026-04-26T15:00:30.588Z</time></trkpt><trkpt lat="32.838548" lon="10.4753661"><ele>322.0</ele><time>2026-04-26T15:00:31.591Z</time></trkpt><trkpt lat="32.8387016" lon="10.4753766"><ele>321.66666666666663</ele><time>2026-04-26T15:00:32.58Z</time></trkpt><trkpt lat="32.8388515" lon="10.4753977"><ele>321.3333333333333</ele><time>2026-04-26T15:00:33.581Z</time></trkpt><trkpt lat="32.8390069" lon="10.4754228"><ele>321.0</ele><time>2026-04-26T15:00:34.579Z</time></trkpt><trkpt lat="32.839165" lon="10.4754538"><ele>321.3333333333333</ele><time>2026-04-26T15:00:35.582Z</time></trkpt><trkpt lat="32.8393233" lon="10.4754895"><ele>321.66666666666663</ele><time>2026-04-26T15:00:36.59Z</time></trkpt><trkpt lat="32.8394847" lon="10.4755235"><ele>322.0</ele><time>2026-04-26T15:00:37.584Z</time></trkpt><trkpt lat="32.8396431" lon="10.4755579"><ele>322.0</ele><time>2026-04-26T15:00:38.585Z</time></trkpt><trkpt lat="32.8398018" lon="10.475591"><ele>322.0</ele><time>2026-04-26T15:00:39.572Z</time></trkpt><trkpt lat="32.8399678" lon="10.4756296"><ele>322.0</ele><time>2026-04-26T15:00:40.58Z</time></trkpt><trkpt lat="32.8401398" lon="10.4756715"><ele>321.66666666666663</ele><time>2026-04-26T15:00:41.58Z</time></trkpt><trkpt lat="32.8403167" lon="10.475719"><ele>321.3333333333333</ele><time>2026-04-26T15:00:42.58Z</time></trkpt><trkpt lat="32.8404912" lon="10.4757807"><ele>321.0</ele><time>2026-04-26T15:00:43.579Z</time></trkpt><trkpt lat="32.8406617" lon="10.4758499"><ele>321.0</ele><time>2026-04-26T15:00:44.588Z</time></trkpt><trkpt lat="32.8408298" lon="10.47592"><ele>321.0</ele><time>2026-04-26T15:00:45.583Z</time></trkpt><trkpt lat="32.8410055" lon="10.4759908"><ele>321.0</ele><time>2026-04-26T15:00:46.589Z</time></trkpt><trkpt lat="32.8411812" lon="10.4760643"><ele>320.3333333333333</ele><time>2026-04-26T15:00:47.58Z</time></trkpt><trkpt lat="32.8413572" lon="10.4761404"><ele>319.66666666666663</ele><time>2026-04-26T15:00:48.574Z</time></trkpt><trkpt lat="32.8415369" lon="10.4762149"><ele>319.0</ele><time>2026-04-26T15:00:49.57Z</time></trkpt><trkpt lat="32.8417147" lon="10.4762827"><ele>318.0</ele><time>2026-04-26T15:00:50.578Z</time></trkpt><trkpt lat="32.8418728" lon="10.4763465"><ele>317.0</ele><time>2026-04-26T15:00:51.575Z</time></trkpt><trkpt lat="32.8420127" lon="10.4763908"><ele>316.0</ele><time>2026-04-26T15:00:52.585Z</time></trkpt><trkpt lat="32.8421502" lon="10.4764346"><ele>316.0</ele><time>2026-04-26T15:00:53.578Z</time></trkpt><trkpt lat="32.8422955" lon="10.4764791"><ele>316.0</ele><time>2026-04-26T15:00:54.574Z</time></trkpt><trkpt lat="32.8424375" lon="10.4765238"><ele>316.0</ele><time>2026-04-26T15:00:55.571Z</time></trkpt><trkpt lat="32.8425843" lon="10.4765684"><ele>316.0</ele><time>2026-04-26T15:00:56.583Z</time></trkpt><trkpt lat="32.8427307" lon="10.4766177"><ele>316.0</ele><time>2026-04-26T15:00:57.58Z</time></trkpt><trkpt lat="32.8428806" lon="10.4766652"><ele>316.0</ele><time>2026-04-26T15:00:58.59Z</time></trkpt><trkpt lat="32.8430197" lon="10.4767039"><ele>316.0</ele><time>2026-04-26T15:00:59.588Z</time></trkpt><trkpt lat="32.8431647" lon="10.4767397"><ele>316.0</ele><time>2026-04-26T15:01:00.583Z</time></trkpt><trkpt lat="32.8433108" lon="10.4767664"><ele>316.0</ele><time>2026-04-26T15:01:01.58Z</time></trkpt><trkpt lat="32.8434664" lon="10.4767855"><ele>316.0</ele><time>2026-04-26T15:01:02.58Z</time></trkpt><trkpt lat="32.8436281" lon="10.4767882"><ele>316.0</ele><time>2026-04-26T15:01:03.576Z</time></trkpt><trkpt lat="32.8437913" lon="10.4767734"><ele>316.0</ele><time>2026-04-26T15:01:04.577Z</time></trkpt><trkpt lat="32.8439549" lon="10.4767635"><ele>316.0</ele><time>2026-04-26T15:01:05.612Z</time></trkpt><trkpt lat="32.8441204" lon="10.4767512"><ele>316.0</ele><time>2026-04-26T15:01:06.585Z</time></trkpt><trkpt lat="32.8442884" lon="10.4767284"><ele>315.66666666666663</ele><time>2026-04-26T15:01:07.578Z</time></trkpt><trkpt lat="32.8444556" lon="10.4767019"><ele>315.3333333333333</ele><time>2026-04-26T15:01:08.585Z</time></trkpt><trkpt lat="32.8446291" lon="10.4766792"><ele>315.0</ele><time>2026-04-26T15:01:09.587Z</time></trkpt><trkpt lat="32.8448101" lon="10.476657"><ele>315.0</ele><time>2026-04-26T15:01:10.571Z</time></trkpt><trkpt lat="32.8449898" lon="10.4766353"><ele>315.0</ele><time>2026-04-26T15:01:11.585Z</time></trkpt><trkpt lat="32.8451681" lon="10.4766112"><ele>315.0</ele><time>2026-04-26T15:01:12.585Z</time></trkpt><trkpt lat="32.845341" lon="10.4765903"><ele>315.0</ele><time>2026-04-26T15:01:13.572Z</time></trkpt><trkpt lat="32.8455092" lon="10.4765718"><ele>315.0</ele><time>2026-04-26T15:01:14.585Z</time></trkpt><trkpt lat="32.8456789" lon="10.4765488"><ele>315.0</ele><time>2026-04-26T15:01:15.589Z</time></trkpt><trkpt lat="32.8458444" lon="10.4765307"><ele>315.0</ele><time>2026-04-26T15:01:16.587Z</time></trkpt><trkpt lat="32.8460045" lon="10.4765098"><ele>315.0</ele><time>2026-04-26T15:01:17.575Z</time></trkpt><trkpt lat="32.8461719" lon="10.4764917"><ele>315.0</ele><time>2026-04-26T15:01:18.583Z</time></trkpt><trkpt lat="32.8463398" lon="10.4764724"><ele>315.0</ele><time>2026-04-26T15:01:19.579Z</time></trkpt><trkpt lat="32.8465086" lon="10.4764508"><ele>315.0</ele><time>2026-04-26T15:01:20.573Z</time></trkpt><trkpt lat="32.8466742" lon="10.4764265"><ele>315.0</ele><time>2026-04-26T15:01:21.582Z</time></trkpt><trkpt lat="32.8468242" lon="10.4764088"><ele>315.25</ele><time>2026-04-26T15:01:22.59Z</time></trkpt><trkpt lat="32.8469682" lon="10.4763933"><ele>315.5</ele><time>2026-04-26T15:01:23.589Z</time></trkpt><trkpt lat="32.8471084" lon="10.4763755"><ele>315.75</ele><time>2026-04-26T15:01:24.582Z</time></trkpt><trkpt lat="32.847257" lon="10.4763573"><ele>316.0</ele><time>2026-04-26T15:01:25.581Z</time></trkpt><trkpt lat="32.8474002" lon="10.476343"><ele>316.0</ele><time>2026-04-26T15:01:26.578Z</time></trkpt><trkpt lat="32.8475494" lon="10.476329"><ele>316.0</ele><time>2026-04-26T15:01:27.612Z</time></trkpt><trkpt lat="32.8476996" lon="10.4763126"><ele>316.0</ele><time>2026-04-26T15:01:28.583Z</time></trkpt><trkpt lat="32.8478539" lon="10.4763018"><ele>316.0</ele><time>2026-04-26T15:01:29.588Z</time></trkpt><trkpt lat="32.8480102" lon="10.4762907"><ele>316.0</ele><time>2026-04-26T15:01:30.588Z</time></trkpt><trkpt lat="32.8481614" lon="10.476281"><ele>316.0</ele><time>2026-04-26T15:01:31.588Z</time></trkpt><trkpt lat="32.8483148" lon="10.4762726"><ele>315.3333333333333</ele><time>2026-04-26T15:01:32.583Z</time></trkpt><trkpt lat="32.8484706" lon="10.4762635"><ele>314.6666666666667</ele><time>2026-04-26T15:01:33.576Z</time></trkpt><trkpt lat="32.8486196" lon="10.4762466"><ele>314.0</ele><time>2026-04-26T15:01:34.583Z</time></trkpt><trkpt lat="32.8487705" lon="10.4762321"><ele>314.0</ele><time>2026-04-26T15:01:35.585Z</time></trkpt><trkpt lat="32.8489164" lon="10.4762197"><ele>314.0</ele><time>2026-04-26T15:01:36.593Z</time></trkpt><trkpt lat="32.8490649" lon="10.4762057"><ele>314.0</ele><time>2026-04-26T15:01:37.585Z</time></trkpt><trkpt lat="32.8492107" lon="10.4761933"><ele>314.0</ele><time>2026-04-26T15:01:38.582Z</time></trkpt><trkpt lat="32.8493486" lon="10.4761804"><ele>314.0</ele><time>2026-04-26T15:01:39.581Z</time></trkpt><trkpt lat="32.8494769" lon="10.4761656"><ele>314.0</ele><time>2026-04-26T15:01:40.583Z</time></trkpt><trkpt lat="32.8496131" lon="10.4761589"><ele>314.0</ele><time>2026-04-26T15:01:41.579Z</time></trkpt><trkpt lat="32.8497473" lon="10.4761491"><ele>314.0</ele><time>2026-04-26T15:01:42.582Z</time></trkpt><trkpt lat="32.849883" lon="10.4761369"><ele>314.0</ele><time>2026-04-26T15:01:43.58Z</time></trkpt><trkpt lat="32.850021" lon="10.4761183"><ele>314.0</ele><time>2026-04-26T15:01:44.578Z</time></trkpt><trkpt lat="32.8501597" lon="10.4760932"><ele>314.0</ele><time>2026-04-26T15:01:45.573Z</time></trkpt><trkpt lat="32.8503066" lon="10.4760704"><ele>314.0</ele><time>2026-04-26T15:01:46.569Z</time></trkpt><trkpt lat="32.8504557" lon="10.4760535"><ele>313.6666666666667</ele><time>2026-04-26T15:01:47.571Z</time></trkpt><trkpt lat="32.8506087" lon="10.4760301"><ele>313.3333333333333</ele><time>2026-04-26T15:01:48.613Z</time></trkpt><trkpt lat="32.8507572" lon="10.4760039"><ele>313.0</ele><time>2026-04-26T15:01:49.585Z</time></trkpt><trkpt lat="32.8509031" lon="10.4759773"><ele>312.0</ele><time>2026-04-26T15:01:50.585Z</time></trkpt><trkpt lat="32.851054" lon="10.4759514"><ele>311.0</ele><time>2026-04-26T15:01:51.58Z</time></trkpt><trkpt lat="32.8512045" lon="10.4759203"><ele>310.0</ele><time>2026-04-26T15:01:52.583Z</time></trkpt><trkpt lat="32.851348" lon="10.4758804"><ele>310.0</ele><time>2026-04-26T15:01:53.588Z</time></trkpt><trkpt lat="32.8514821" lon="10.4758319"><ele>310.0</ele><time>2026-04-26T15:01:54.593Z</time></trkpt><trkpt lat="32.8516122" lon="10.475792"><ele>310.0</ele><time>2026-04-26T15:01:55.573Z</time></trkpt><trkpt lat="32.8517382" lon="10.4757592"><ele>310.0</ele><time>2026-04-26T15:01:56.579Z</time></trkpt><trkpt lat="32.851864" lon="10.475729"><ele>310.0</ele><time>2026-04-26T15:01:57.586Z</time></trkpt><trkpt lat="32.8519818" lon="10.4756963"><ele>310.0</ele><time>2026-04-26T15:01:58.589Z</time></trkpt><trkpt lat="32.8520969" lon="10.4756614"><ele>310.0</ele><time>2026-04-26T15:01:59.576Z</time></trkpt><trkpt lat="32.8522134" lon="10.4756233"><ele>310.0</ele><time>2026-04-26T15:02:00.578Z</time></trkpt><trkpt lat="32.8523365" lon="10.4755904"><ele>310.0</ele><time>2026-04-26T15:02:01.584Z</time></trkpt><trkpt lat="32.852457" lon="10.4755521"><ele>310.0</ele><time>2026-04-26T15:02:02.591Z</time></trkpt><trkpt lat="32.8525704" lon="10.4755131"><ele>310.0</ele><time>2026-04-26T15:02:03.584Z</time></trkpt><trkpt lat="32.8526549" lon="10.4754775"><ele>310.0</ele><time>2026-04-26T15:02:04.581Z</time></trkpt><trkpt lat="32.852723" lon="10.4754526"><ele>310.0</ele><time>2026-04-26T15:02:05.587Z</time></trkpt><trkpt lat="32.8527906" lon="10.4754405"><ele>310.0</ele><time>2026-04-26T15:02:06.588Z</time></trkpt><trkpt lat="32.8528642" lon="10.4754318"><ele>310.0</ele><time>2026-04-26T15:02:07.581Z</time></trkpt><trkpt lat="32.8529491" lon="10.4754335"><ele>310.0</ele><time>2026-04-26T15:02:08.578Z</time></trkpt><trkpt lat="32.853045" lon="10.4754326"><ele>310.0</ele><time>2026-04-26T15:02:09.582Z</time></trkpt><trkpt lat="32.8531382" lon="10.4754246"><ele>310.0</ele><time>2026-04-26T15:02:10.577Z</time></trkpt><trkpt lat="32.8532335" lon="10.4754075"><ele>310.0</ele><time>2026-04-26T15:02:11.582Z</time></trkpt><trkpt lat="32.8533312" lon="10.4753974"><ele>310.0</ele><time>2026-04-26T15:02:12.571Z</time></trkpt><trkpt lat="32.853434" lon="10.4753988"><ele>310.0</ele><time>2026-04-26T15:02:13.582Z</time></trkpt><trkpt lat="32.8535331" lon="10.475398"><ele>310.0</ele><time>2026-04-26T15:02:14.584Z</time></trkpt><trkpt lat="32.8536333" lon="10.4754002"><ele>310.0</ele><time>2026-04-26T15:02:15.571Z</time></trkpt><trkpt lat="32.8537428" lon="10.4754063"><ele>310.0</ele><time>2026-04-26T15:02:16.585Z</time></trkpt><trkpt lat="32.8538537" lon="10.4754073"><ele>310.0</ele><time>2026-04-26T15:02:17.582Z</time></trkpt><trkpt lat="32.8539693" lon="10.4754117"><ele>310.0</ele><time>2026-04-26T15:02:18.59Z</time></trkpt><trkpt lat="32.8540896" lon="10.4754139"><ele>310.0</ele><time>2026-04-26T15:02:19.574Z</time></trkpt><trkpt lat="32.8542148" lon="10.4754131"><ele>310.0</ele><time>2026-04-26T15:02:20.585Z</time></trkpt><trkpt lat="32.8543373" lon="10.475409"><ele>310.25</ele><time>2026-04-26T15:02:21.589Z</time></trkpt><trkpt lat="32.8544645" lon="10.4754163"><ele>310.5</ele><time>2026-04-26T15:02:22.58Z</time></trkpt><trkpt lat="32.8545925" lon="10.4754215"><ele>310.75</ele><time>2026-04-26T15:02:23.576Z</time></trkpt><trkpt lat="32.8547188" lon="10.4754267"><ele>311.0</ele><time>2026-04-26T15:02:24.58Z</time></trkpt><trkpt lat="32.8548492" lon="10.4754302"><ele>311.0</ele><time>2026-04-26T15:02:25.589Z</time></trkpt><trkpt lat="32.854983" lon="10.4754311"><ele>311.0</ele><time>2026-04-26T15:02:26.581Z</time></trkpt><trkpt lat="32.8551167" lon="10.4754342"><ele>311.0</ele><time>2026-04-26T15:02:27.583Z</time></trkpt><trkpt lat="32.8552462" lon="10.4754349"><ele>311.0</ele><time>2026-04-26T15:02:28.586Z</time></trkpt><trkpt lat="32.855373" lon="10.4754333"><ele>310.0</ele><time>2026-04-26T15:02:29.582Z</time></trkpt><trkpt lat="32.8555077" lon="10.4754356"><ele>309.0</ele><time>2026-04-26T15:02:30.577Z</time></trkpt><trkpt lat="32.8556459" lon="10.4754363"><ele>308.0</ele><time>2026-04-26T15:02:31.584Z</time></trkpt><trkpt lat="32.8557819" lon="10.4754353"><ele>307.0</ele><time>2026-04-26T15:02:32.585Z</time></trkpt><trkpt lat="32.8559213" lon="10.475435"><ele>307.0</ele><time>2026-04-26T15:02:33.579Z</time></trkpt><trkpt lat="32.8560573" lon="10.4754349"><ele>307.0</ele><time>2026-04-26T15:02:34.579Z</time></trkpt><trkpt lat="32.856195" lon="10.4754332"><ele>307.0</ele><time>2026-04-26T15:02:35.589Z</time></trkpt><trkpt lat="32.8563363" lon="10.4754324"><ele>307.0</ele><time>2026-04-26T15:02:36.584Z</time></trkpt><trkpt lat="32.8564784" lon="10.475432"><ele>307.0</ele><time>2026-04-26T15:02:37.586Z</time></trkpt><trkpt lat="32.8566154" lon="10.4754329"><ele>307.0</ele><time>2026-04-26T15:02:38.593Z</time></trkpt><trkpt lat="32.8567463" lon="10.4754221"><ele>307.0</ele><time>2026-04-26T15:02:39.578Z</time></trkpt><trkpt lat="32.8568766" lon="10.4754069"><ele>307.0</ele><time>2026-04-26T15:02:40.576Z</time></trkpt><trkpt lat="32.8570109" lon="10.4753904"><ele>307.25</ele><time>2026-04-26T15:02:41.575Z</time></trkpt><trkpt lat="32.8571483" lon="10.4753822"><ele>307.5</ele><time>2026-04-26T15:02:42.577Z</time></trkpt><trkpt lat="32.8572835" lon="10.4753768"><ele>307.75</ele><time>2026-04-26T15:02:43.595Z</time></trkpt><trkpt lat="32.8574165" lon="10.4753712"><ele>308.0</ele><time>2026-04-26T15:02:44.57Z</time></trkpt><trkpt lat="32.857547" lon="10.4753738"><ele>308.75</ele><time>2026-04-26T15:02:45.585Z</time></trkpt><trkpt lat="32.8576755" lon="10.4753766"><ele>309.5</ele><time>2026-04-26T15:02:46.577Z</time></trkpt><trkpt lat="32.8578095" lon="10.4753773"><ele>310.25</ele><time>2026-04-26T15:02:47.578Z</time></trkpt><trkpt lat="32.8579371" lon="10.4753758"><ele>311.0</ele><time>2026-04-26T15:02:48.583Z</time></trkpt><trkpt lat="32.8580639" lon="10.4753733"><ele>311.0</ele><time>2026-04-26T15:02:49.59Z</time></trkpt><trkpt lat="32.8581872" lon="10.4753753"><ele>311.0</ele><time>2026-04-26T15:02:50.583Z</time></trkpt><trkpt lat="32.8582986" lon="10.4753721"><ele>311.0</ele><time>2026-04-26T15:02:51.587Z</time></trkpt><trkpt lat="32.8583991" lon="10.4753667"><ele>311.0</ele><time>2026-04-26T15:02:52.575Z</time></trkpt><trkpt lat="32.8584802" lon="10.4753661"><ele>311.0</ele><time>2026-04-26T15:02:53.574Z</time></trkpt><trkpt lat="32.8585838" lon="10.4753395"><ele>310.6666666666667</ele><time>2026-04-26T15:02:55.586Z</time></trkpt><trkpt lat="32.8586952" lon="10.4753277"><ele>310.33333333333337</ele><time>2026-04-26T15:02:57.589Z</time></trkpt><trkpt lat="32.8587692" lon="10.4753127"><ele>310.0</ele><time>2026-04-26T15:02:58.581Z</time></trkpt><trkpt lat="32.8588446" lon="10.4752867"><ele>309.6666666666667</ele><time>2026-04-26T15:02:59.589Z</time></trkpt><trkpt lat="32.8589245" lon="10.4752491"><ele>309.3333333333333</ele><time>2026-04-26T15:03:00.589Z</time></trkpt><trkpt lat="32.8590112" lon="10.4752152"><ele>309.0</ele><time>2026-04-26T15:03:01.572Z</time></trkpt><trkpt lat="32.8591027" lon="10.4751798"><ele>309.0</ele><time>2026-04-26T15:03:02.579Z</time></trkpt><trkpt lat="32.8591955" lon="10.47514"><ele>309.0</ele><time>2026-04-26T15:03:03.577Z</time></trkpt><trkpt lat="32.8592911" lon="10.475102"><ele>309.0</ele><time>2026-04-26T15:03:04.58Z</time></trkpt><trkpt lat="32.8593894" lon="10.475062"><ele>309.0</ele><time>2026-04-26T15:03:05.577Z</time></trkpt><trkpt lat="32.8594901" lon="10.4750188"><ele>309.0</ele><time>2026-04-26T15:03:06.592Z</time></trkpt><trkpt lat="32.8595966" lon="10.4749704"><ele>309.0</ele><time>2026-04-26T15:03:07.575Z</time></trkpt><trkpt lat="32.8597046" lon="10.4749262"><ele>309.0</ele><time>2026-04-26T15:03:08.577Z</time></trkpt><trkpt lat="32.8598265" lon="10.474894"><ele>309.0</ele><time>2026-04-26T15:03:09.588Z</time></trkpt><trkpt lat="32.8599582" lon="10.4748658"><ele>309.0</ele><time>2026-04-26T15:03:10.577Z</time></trkpt><trkpt lat="32.8601023" lon="10.4748477"><ele>307.75</ele><time>2026-04-26T15:03:11.591Z</time></trkpt><trkpt lat="32.860243" lon="10.4748258"><ele>306.5</ele><time>2026-04-26T15:03:12.575Z</time></trkpt><trkpt lat="32.8603865" lon="10.4748157"><ele>305.25</ele><time>2026-04-26T15:03:13.585Z</time></trkpt><trkpt lat="32.8605269" lon="10.4748058"><ele>304.0</ele><time>2026-04-26T15:03:14.603Z</time></trkpt><trkpt lat="32.8606702" lon="10.4747951"><ele>304.0</ele><time>2026-04-26T15:03:15.579Z</time></trkpt><trkpt lat="32.8608125" lon="10.4747769"><ele>304.0</ele><time>2026-04-26T15:03:16.571Z</time></trkpt><trkpt lat="32.8609541" lon="10.4747656"><ele>304.0</ele><time>2026-04-26T15:03:17.569Z</time></trkpt><trkpt lat="32.8610994" lon="10.4747483"><ele>304.0</ele><time>2026-04-26T15:03:18.568Z</time></trkpt><trkpt lat="32.8612436" lon="10.4747284"><ele>304.3333333333333</ele><time>2026-04-26T15:03:19.582Z</time></trkpt><trkpt lat="32.8613965" lon="10.4747199"><ele>304.6666666666667</ele><time>2026-04-26T15:03:20.581Z</time></trkpt><trkpt lat="32.8615492" lon="10.4747077"><ele>305.0</ele><time>2026-04-26T15:03:21.575Z</time></trkpt><trkpt lat="32.8617097" lon="10.4747021"><ele>304.0</ele><time>2026-04-26T15:03:22.579Z</time></trkpt><trkpt lat="32.8618657" lon="10.4746962"><ele>303.0</ele><time>2026-04-26T15:03:23.585Z</time></trkpt><trkpt lat="32.8620247" lon="10.4746863"><ele>302.0</ele><time>2026-04-26T15:03:24.571Z</time></trkpt><trkpt lat="32.8621779" lon="10.474674"><ele>302.0</ele><time>2026-04-26T15:03:25.566Z</time></trkpt><trkpt lat="32.8623376" lon="10.4746621"><ele>302.0</ele><time>2026-04-26T15:03:26.574Z</time></trkpt><trkpt lat="32.8624946" lon="10.4746528"><ele>302.0</ele><time>2026-04-26T15:03:27.58Z</time></trkpt><trkpt lat="32.8626539" lon="10.4746521"><ele>301.33333333333337</ele><time>2026-04-26T15:03:28.576Z</time></trkpt><trkpt lat="32.8628162" lon="10.4746491"><ele>300.6666666666667</ele><time>2026-04-26T15:03:29.577Z</time></trkpt><trkpt lat="32.8629728" lon="10.4746424"><ele>300.0</ele><time>2026-04-26T15:03:30.573Z</time></trkpt><trkpt lat="32.8631242" lon="10.4746336"><ele>300.0</ele><time>2026-04-26T15:03:31.578Z</time></trkpt><trkpt lat="32.8632722" lon="10.4746183"><ele>300.0</ele><time>2026-04-26T15:03:32.579Z</time></trkpt><trkpt lat="32.8634252" lon="10.4746107"><ele>300.0</ele><time>2026-04-26T15:03:33.579Z</time></trkpt><trkpt lat="32.8635707" lon="10.4745959"><ele>300.0</ele><time>2026-04-26T15:03:34.58Z</time></trkpt><trkpt lat="32.8637045" lon="10.4745827"><ele>300.1666666666667</ele><time>2026-04-26T15:03:35.58Z</time></trkpt><trkpt lat="32.8638259" lon="10.4745765"><ele>300.3333333333333</ele><time>2026-04-26T15:03:36.609Z</time></trkpt><trkpt lat="32.8639242" lon="10.4745646"><ele>300.5</ele><time>2026-04-26T15:03:37.587Z</time></trkpt><trkpt lat="32.8640053" lon="10.4745596"><ele>300.66666666666663</ele><time>2026-04-26T15:03:38.573Z</time></trkpt><trkpt lat="32.8640779" lon="10.4745542"><ele>300.8333333333333</ele><time>2026-04-26T15:03:39.569Z</time></trkpt><trkpt lat="32.864149" lon="10.4745463"><ele>301.0</ele><time>2026-04-26T15:03:40.586Z</time></trkpt><trkpt lat="32.8642301" lon="10.4745357"><ele>301.2</ele><time>2026-04-26T15:03:41.595Z</time></trkpt><trkpt lat="32.86433" lon="10.4745209"><ele>301.40000000000003</ele><time>2026-04-26T15:03:42.582Z</time></trkpt><trkpt lat="32.8644268" lon="10.4745023"><ele>301.6</ele><time>2026-04-26T15:03:43.593Z</time></trkpt><trkpt lat="32.8645327" lon="10.4744792"><ele>301.8</ele><time>2026-04-26T15:03:44.573Z</time></trkpt><trkpt lat="32.8646368" lon="10.474452"><ele>302.0</ele><time>2026-04-26T15:03:45.578Z</time></trkpt><trkpt lat="32.8647498" lon="10.4744282"><ele>302.0</ele><time>2026-04-26T15:03:46.575Z</time></trkpt><trkpt lat="32.8648631" lon="10.4743965"><ele>302.0</ele><time>2026-04-26T15:03:47.58Z</time></trkpt><trkpt lat="32.8649782" lon="10.4743641"><ele>302.0</ele><time>2026-04-26T15:03:48.583Z</time></trkpt><trkpt lat="32.8650983" lon="10.4743341"><ele>302.0</ele><time>2026-04-26T15:03:49.578Z</time></trkpt><trkpt lat="32.8652153" lon="10.4742978"><ele>301.75</ele><time>2026-04-26T15:03:50.603Z</time></trkpt><trkpt lat="32.8653305" lon="10.4742585"><ele>301.5</ele><time>2026-04-26T15:03:51.582Z</time></trkpt><trkpt lat="32.8654541" lon="10.4742216"><ele>301.25</ele><time>2026-04-26T15:03:52.583Z</time></trkpt><trkpt lat="32.8655755" lon="10.4741739"><ele>301.0</ele><time>2026-04-26T15:03:53.582Z</time></trkpt><trkpt lat="32.8656992" lon="10.474129"><ele>301.0</ele><time>2026-04-26T15:03:54.576Z</time></trkpt><trkpt lat="32.8658236" lon="10.4740838"><ele>301.0</ele><time>2026-04-26T15:03:55.568Z</time></trkpt><trkpt lat="32.8659511" lon="10.474041"><ele>301.0</ele><time>2026-04-26T15:03:56.571Z</time></trkpt><trkpt lat="32.8660759" lon="10.4739864"><ele>301.0</ele><time>2026-04-26T15:03:57.623Z</time></trkpt><trkpt lat="32.866194" lon="10.4739395"><ele>300.75</ele><time>2026-04-26T15:03:58.618Z</time></trkpt><trkpt lat="32.8663098" lon="10.4738828"><ele>300.5</ele><time>2026-04-26T15:03:59.613Z</time></trkpt><trkpt lat="32.8664211" lon="10.4738195"><ele>300.25</ele><time>2026-04-26T15:04:00.596Z</time></trkpt><trkpt lat="32.8665254" lon="10.4737563"><ele>300.0</ele><time>2026-04-26T15:04:01.622Z</time></trkpt><trkpt lat="32.8666294" lon="10.4736981"><ele>300.0</ele><time>2026-04-26T15:04:02.596Z</time></trkpt><trkpt lat="32.8667386" lon="10.473641"><ele>300.0</ele><time>2026-04-26T15:04:03.628Z</time></trkpt><trkpt lat="32.8668396" lon="10.4735898"><ele>300.0</ele><time>2026-04-26T15:04:04.6Z</time></trkpt><trkpt lat="32.8669129" lon="10.473552"><ele>300.0</ele><time>2026-04-26T15:04:05.626Z</time></trkpt><trkpt lat="32.8669762" lon="10.473514"><ele>300.0</ele><time>2026-04-26T15:04:06.626Z</time></trkpt><trkpt lat="32.8670421" lon="10.4734756"><ele>299.25</ele><time>2026-04-26T15:04:07.61Z</time></trkpt><trkpt lat="32.8671352" lon="10.4734381"><ele>298.5</ele><time>2026-04-26T15:04:08.625Z</time></trkpt><trkpt lat="32.8672488" lon="10.4733949"><ele>297.75</ele><time>2026-04-26T15:04:09.646Z</time></trkpt><trkpt lat="32.8673842" lon="10.4733598"><ele>297.0</ele><time>2026-04-26T15:04:10.604Z</time></trkpt><trkpt lat="32.8675339" lon="10.4733211"><ele>296.6666666666667</ele><time>2026-04-26T15:04:11.601Z</time></trkpt><trkpt lat="32.867679" lon="10.4732846"><ele>296.33333333333337</ele><time>2026-04-26T15:04:12.637Z</time></trkpt><trkpt lat="32.8678351" lon="10.4732404"><ele>296.0</ele><time>2026-04-26T15:04:13.601Z</time></trkpt><trkpt lat="32.8679916" lon="10.4731889"><ele>296.0</ele><time>2026-04-26T15:04:14.616Z</time></trkpt><trkpt lat="32.8681527" lon="10.4731413"><ele>296.0</ele><time>2026-04-26T15:04:15.626Z</time></trkpt><trkpt lat="32.8683158" lon="10.4730925"><ele>296.0</ele><time>2026-04-26T15:04:16.593Z</time></trkpt><trkpt lat="32.8684833" lon="10.4730438"><ele>296.33333333333337</ele><time>2026-04-26T15:04:17.629Z</time></trkpt><trkpt lat="32.8686487" lon="10.4729831"><ele>296.6666666666667</ele><time>2026-04-26T15:04:18.627Z</time></trkpt><trkpt lat="32.8688184" lon="10.4729259"><ele>297.0</ele><time>2026-04-26T15:04:19.635Z</time></trkpt><trkpt lat="32.8689862" lon="10.4728563"><ele>297.0</ele><time>2026-04-26T15:04:20.623Z</time></trkpt><trkpt lat="32.8691516" lon="10.4727787"><ele>297.0</ele><time>2026-04-26T15:04:21.617Z</time></trkpt><trkpt lat="32.8693127" lon="10.4726802"><ele>297.0</ele><time>2026-04-26T15:04:22.611Z</time></trkpt><trkpt lat="32.8694663" lon="10.4725678"><ele>296.6666666666667</ele><time>2026-04-26T15:04:23.638Z</time></trkpt><trkpt lat="32.8696095" lon="10.4724359"><ele>296.33333333333337</ele><time>2026-04-26T15:04:24.615Z</time></trkpt><trkpt lat="32.8697548" lon="10.4723"><ele>296.0</ele><time>2026-04-26T15:04:25.61Z</time></trkpt><trkpt lat="32.8698953" lon="10.4721618"><ele>295.6666666666667</ele><time>2026-04-26T15:04:26.62Z</time></trkpt><trkpt lat="32.8700254" lon="10.4720167"><ele>295.3333333333333</ele><time>2026-04-26T15:04:27.642Z</time></trkpt><trkpt lat="32.8701579" lon="10.4718581"><ele>295.0</ele><time>2026-04-26T15:04:28.62Z</time></trkpt><trkpt lat="32.8702795" lon="10.471696"><ele>295.0</ele><time>2026-04-26T15:04:29.585Z</time></trkpt><trkpt lat="32.8703993" lon="10.4715262"><ele>295.0</ele><time>2026-04-26T15:04:30.598Z</time></trkpt><trkpt lat="32.8705142" lon="10.4713567"><ele>295.0</ele><time>2026-04-26T15:04:31.636Z</time></trkpt><trkpt lat="32.870634" lon="10.4711793"><ele>295.0</ele><time>2026-04-26T15:04:32.629Z</time></trkpt><trkpt lat="32.8707537" lon="10.4710135"><ele>295.0</ele><time>2026-04-26T15:04:33.627Z</time></trkpt><trkpt lat="32.8708721" lon="10.4708485"><ele>295.0</ele><time>2026-04-26T15:04:34.618Z</time></trkpt><trkpt lat="32.8709964" lon="10.4706801"><ele>295.0</ele><time>2026-04-26T15:04:35.621Z</time></trkpt><trkpt lat="32.871129" lon="10.4705045"><ele>295.0</ele><time>2026-04-26T15:04:36.632Z</time></trkpt><trkpt lat="32.8712688" lon="10.4703291"><ele>295.0</ele><time>2026-04-26T15:04:37.623Z</time></trkpt><trkpt lat="32.8714148" lon="10.4701603"><ele>295.0</ele><time>2026-04-26T15:04:38.597Z</time></trkpt><trkpt lat="32.8715572" lon="10.4699894"><ele>295.0</ele><time>2026-04-26T15:04:39.645Z</time></trkpt><trkpt lat="32.8717039" lon="10.469823"><ele>295.0</ele><time>2026-04-26T15:04:40.612Z</time></trkpt><trkpt lat="32.8718581" lon="10.4696546"><ele>295.0</ele><time>2026-04-26T15:04:41.641Z</time></trkpt><trkpt lat="32.872011" lon="10.4694923"><ele>295.0</ele><time>2026-04-26T15:04:42.634Z</time></trkpt><trkpt lat="32.8721706" lon="10.4693333"><ele>295.0</ele><time>2026-04-26T15:04:43.599Z</time></trkpt><trkpt lat="32.8723355" lon="10.4691901"><ele>295.0</ele><time>2026-04-26T15:04:44.641Z</time></trkpt><trkpt lat="32.8725055" lon="10.4690583"><ele>295.0</ele><time>2026-04-26T15:04:45.63Z</time></trkpt><trkpt lat="32.8726865" lon="10.4689406"><ele>295.0</ele><time>2026-04-26T15:04:46.623Z</time></trkpt><trkpt lat="32.8728552" lon="10.4688087"><ele>294.3333333333333</ele><time>2026-04-26T15:04:47.636Z</time></trkpt><trkpt lat="32.8730256" lon="10.4686796"><ele>293.6666666666667</ele><time>2026-04-26T15:04:48.593Z</time></trkpt><trkpt lat="32.8731994" lon="10.4685629"><ele>293.0</ele><time>2026-04-26T15:04:49.632Z</time></trkpt><trkpt lat="32.8733683" lon="10.4684319"><ele>291.6666666666667</ele><time>2026-04-26T15:04:50.623Z</time></trkpt><trkpt lat="32.8735364" lon="10.4682921"><ele>290.3333333333333</ele><time>2026-04-26T15:04:51.625Z</time></trkpt><trkpt lat="32.8737075" lon="10.4681634"><ele>289.0</ele><time>2026-04-26T15:04:52.627Z</time></trkpt><trkpt lat="32.8738734" lon="10.4680235"><ele>289.3333333333333</ele><time>2026-04-26T15:04:53.626Z</time></trkpt><trkpt lat="32.8740341" lon="10.4678647"><ele>289.6666666666667</ele><time>2026-04-26T15:04:54.621Z</time></trkpt><trkpt lat="32.874183" lon="10.4677056"><ele>290.0</ele><time>2026-04-26T15:04:55.614Z</time></trkpt><trkpt lat="32.8743307" lon="10.4675384"><ele>290.0</ele><time>2026-04-26T15:04:56.598Z</time></trkpt><trkpt lat="32.8744627" lon="10.4673597"><ele>290.0</ele><time>2026-04-26T15:04:57.625Z</time></trkpt><trkpt lat="32.8745986" lon="10.4671767"><ele>290.0</ele><time>2026-04-26T15:04:58.59Z</time></trkpt><trkpt lat="32.8747301" lon="10.4669926"><ele>289.6666666666667</ele><time>2026-04-26T15:04:59.606Z</time></trkpt><trkpt lat="32.8748663" lon="10.4668065"><ele>289.3333333333333</ele><time>2026-04-26T15:05:00.609Z</time></trkpt><trkpt lat="32.8750022" lon="10.4666205"><ele>289.0</ele><time>2026-04-26T15:05:01.614Z</time></trkpt><trkpt lat="32.8751359" lon="10.4664342"><ele>288.0</ele><time>2026-04-26T15:05:02.621Z</time></trkpt><trkpt lat="32.8752688" lon="10.4662445"><ele>287.0</ele><time>2026-04-26T15:05:03.574Z</time></trkpt><trkpt lat="32.8754003" lon="10.4660555"><ele>286.0</ele><time>2026-04-26T15:05:04.591Z</time></trkpt><trkpt lat="32.8755321" lon="10.4658743"><ele>286.0</ele><time>2026-04-26T15:05:05.592Z</time></trkpt><trkpt lat="32.8756564" lon="10.4657049"><ele>286.0</ele><time>2026-04-26T15:05:06.577Z</time></trkpt><trkpt lat="32.8757612" lon="10.4655627"><ele>286.0</ele><time>2026-04-26T15:05:07.586Z</time></trkpt><trkpt lat="32.8758493" lon="10.4654335"><ele>286.5</ele><time>2026-04-26T15:05:08.581Z</time></trkpt><trkpt lat="32.8759297" lon="10.4653011"><ele>287.0</ele><time>2026-04-26T15:05:09.581Z</time></trkpt><trkpt lat="32.8759941" lon="10.4651552"><ele>287.5</ele><time>2026-04-26T15:05:10.585Z</time></trkpt><trkpt lat="32.8760454" lon="10.4649988"><ele>288.0</ele><time>2026-04-26T15:05:11.577Z</time></trkpt><trkpt lat="32.8760881" lon="10.4648414"><ele>288.0</ele><time>2026-04-26T15:05:12.583Z</time></trkpt><trkpt lat="32.8761261" lon="10.4646694"><ele>288.0</ele><time>2026-04-26T15:05:13.576Z</time></trkpt><trkpt lat="32.8761689" lon="10.4644921"><ele>288.0</ele><time>2026-04-26T15:05:14.58Z</time></trkpt><trkpt lat="32.8762128" lon="10.4643111"><ele>288.0</ele><time>2026-04-26T15:05:15.58Z</time></trkpt><trkpt lat="32.8762495" lon="10.4641207"><ele>288.0</ele><time>2026-04-26T15:05:16.577Z</time></trkpt><trkpt lat="32.8762916" lon="10.4639283"><ele>288.0</ele><time>2026-04-26T15:05:17.579Z</time></trkpt><trkpt lat="32.8763316" lon="10.463731"><ele>288.0</ele><time>2026-04-26T15:05:18.579Z</time></trkpt><trkpt lat="32.8763679" lon="10.4635325"><ele>288.0</ele><time>2026-04-26T15:05:19.573Z</time></trkpt><trkpt lat="32.8763988" lon="10.4633254"><ele>288.0</ele><time>2026-04-26T15:05:20.571Z</time></trkpt><trkpt lat="32.8764318" lon="10.4631229"><ele>287.6666666666667</ele><time>2026-04-26T15:05:21.583Z</time></trkpt><trkpt lat="32.8764616" lon="10.4629246"><ele>287.33333333333337</ele><time>2026-04-26T15:05:22.573Z</time></trkpt><trkpt lat="32.8764969" lon="10.4627178"><ele>287.0</ele><time>2026-04-26T15:05:23.577Z</time></trkpt><trkpt lat="32.8765317" lon="10.4625127"><ele>287.0</ele><time>2026-04-26T15:05:24.58Z</time></trkpt><trkpt lat="32.8765661" lon="10.462304"><ele>287.0</ele><time>2026-04-26T15:05:25.58Z</time></trkpt><trkpt lat="32.8765995" lon="10.4620831"><ele>287.0</ele><time>2026-04-26T15:05:26.582Z</time></trkpt><trkpt lat="32.8766393" lon="10.461862"><ele>286.0</ele><time>2026-04-26T15:05:27.584Z</time></trkpt><trkpt lat="32.8766772" lon="10.4616337"><ele>285.0</ele><time>2026-04-26T15:05:28.575Z</time></trkpt><trkpt lat="32.8767177" lon="10.4614037"><ele>284.0</ele><time>2026-04-26T15:05:29.582Z</time></trkpt><trkpt lat="32.8767641" lon="10.4611709"><ele>285.0</ele><time>2026-04-26T15:05:30.582Z</time></trkpt><trkpt lat="32.8768119" lon="10.4609375"><ele>286.0</ele><time>2026-04-26T15:05:31.577Z</time></trkpt><trkpt lat="32.8768675" lon="10.46071"><ele>287.0</ele><time>2026-04-26T15:05:32.587Z</time></trkpt><trkpt lat="32.8769281" lon="10.4604879"><ele>286.0</ele><time>2026-04-26T15:05:33.578Z</time></trkpt><trkpt lat="32.8769922" lon="10.4602677"><ele>285.0</ele><time>2026-04-26T15:05:34.585Z</time></trkpt><trkpt lat="32.8770557" lon="10.4600432"><ele>284.0</ele><time>2026-04-26T15:05:35.598Z</time></trkpt><trkpt lat="32.8771157" lon="10.4598211"><ele>283.6666666666667</ele><time>2026-04-26T15:05:36.592Z</time></trkpt><trkpt lat="32.877177" lon="10.4595962"><ele>283.3333333333333</ele><time>2026-04-26T15:05:37.581Z</time></trkpt><trkpt lat="32.8772374" lon="10.4593689"><ele>283.0</ele><time>2026-04-26T15:05:38.583Z</time></trkpt><trkpt lat="32.8772987" lon="10.4591415"><ele>283.0</ele><time>2026-04-26T15:05:39.576Z</time></trkpt><trkpt lat="32.8773595" lon="10.4589152"><ele>283.0</ele><time>2026-04-26T15:05:40.588Z</time></trkpt><trkpt lat="32.8774208" lon="10.4586908"><ele>283.0</ele><time>2026-04-26T15:05:41.589Z</time></trkpt><trkpt lat="32.8774835" lon="10.458466"><ele>283.0</ele><time>2026-04-26T15:05:42.587Z</time></trkpt><trkpt lat="32.8775453" lon="10.4582408"><ele>283.0</ele><time>2026-04-26T15:05:43.58Z</time></trkpt><trkpt lat="32.8776098" lon="10.4580148"><ele>283.0</ele><time>2026-04-26T15:05:44.583Z</time></trkpt><trkpt lat="32.877673" lon="10.457792"><ele>284.0</ele><time>2026-04-26T15:05:45.581Z</time></trkpt><trkpt lat="32.8777379" lon="10.4575644"><ele>285.0</ele><time>2026-04-26T15:05:46.587Z</time></trkpt><trkpt lat="32.8777986" lon="10.4573438"><ele>286.0</ele><time>2026-04-26T15:05:47.575Z</time></trkpt><trkpt lat="32.8778591" lon="10.4571221"><ele>285.0</ele><time>2026-04-26T15:05:48.589Z</time></trkpt><trkpt lat="32.8779205" lon="10.4568897"><ele>284.0</ele><time>2026-04-26T15:05:49.589Z</time></trkpt><trkpt lat="32.8779807" lon="10.4566618"><ele>283.0</ele><time>2026-04-26T15:05:50.59Z</time></trkpt><trkpt lat="32.8780498" lon="10.4564357"><ele>283.0</ele><time>2026-04-26T15:05:51.584Z</time></trkpt><trkpt lat="32.8781304" lon="10.4562231"><ele>283.0</ele><time>2026-04-26T15:05:52.582Z</time></trkpt><trkpt lat="32.8782199" lon="10.4560168"><ele>283.0</ele><time>2026-04-26T15:05:53.586Z</time></trkpt><trkpt lat="32.8783227" lon="10.4558193"><ele>283.0</ele><time>2026-04-26T15:05:54.586Z</time></trkpt><trkpt lat="32.878445" lon="10.4556345"><ele>283.0</ele><time>2026-04-26T15:05:55.579Z</time></trkpt><trkpt lat="32.8785728" lon="10.4554555"><ele>283.0</ele><time>2026-04-26T15:05:56.568Z</time></trkpt><trkpt lat="32.8787045" lon="10.4552736"><ele>283.0</ele><time>2026-04-26T15:05:57.588Z</time></trkpt><trkpt lat="32.8788391" lon="10.4550915"><ele>283.0</ele><time>2026-04-26T15:05:58.581Z</time></trkpt><trkpt lat="32.8789741" lon="10.4549055"><ele>283.0</ele><time>2026-04-26T15:05:59.595Z</time></trkpt><trkpt lat="32.8791065" lon="10.4547254"><ele>282.66666666666663</ele><time>2026-04-26T15:06:00.584Z</time></trkpt><trkpt lat="32.8792394" lon="10.4545484"><ele>282.3333333333333</ele><time>2026-04-26T15:06:01.574Z</time></trkpt><trkpt lat="32.8793723" lon="10.4543718"><ele>282.0</ele><time>2026-04-26T15:06:02.581Z</time></trkpt><trkpt lat="32.8795055" lon="10.4541908"><ele>282.0</ele><time>2026-04-26T15:06:03.571Z</time></trkpt><trkpt lat="32.8796364" lon="10.4540068"><ele>282.0</ele><time>2026-04-26T15:06:04.575Z</time></trkpt><trkpt lat="32.8797676" lon="10.4538286"><ele>282.0</ele><time>2026-04-26T15:06:05.627Z</time></trkpt><trkpt lat="32.8798973" lon="10.4536529"><ele>281.3333333333333</ele><time>2026-04-26T15:06:06.611Z</time></trkpt><trkpt lat="32.8800224" lon="10.4534827"><ele>280.66666666666663</ele><time>2026-04-26T15:06:07.578Z</time></trkpt><trkpt lat="32.8801486" lon="10.453307"><ele>280.0</ele><time>2026-04-26T15:06:08.586Z</time></trkpt><trkpt lat="32.8802776" lon="10.4531337"><ele>280.0</ele><time>2026-04-26T15:06:09.583Z</time></trkpt><trkpt lat="32.8804065" lon="10.4529571"><ele>280.0</ele><time>2026-04-26T15:06:10.575Z</time></trkpt><trkpt lat="32.8805423" lon="10.4527761"><ele>280.0</ele><time>2026-04-26T15:06:11.571Z</time></trkpt><trkpt lat="32.88068" lon="10.4525906"><ele>280.0</ele><time>2026-04-26T15:06:12.579Z</time></trkpt><trkpt lat="32.8808155" lon="10.4524149"><ele>280.0</ele><time>2026-04-26T15:06:13.575Z</time></trkpt><trkpt lat="32.8809507" lon="10.4522391"><ele>280.0</ele><time>2026-04-26T15:06:14.58Z</time></trkpt><trkpt lat="32.8810872" lon="10.4520696"><ele>279.66666666666663</ele><time>2026-04-26T15:06:15.593Z</time></trkpt><trkpt lat="32.8812236" lon="10.451907"><ele>279.3333333333333</ele><time>2026-04-26T15:06:16.583Z</time></trkpt><trkpt lat="32.8813654" lon="10.4517376"><ele>279.0</ele><time>2026-04-26T15:06:17.584Z</time></trkpt><trkpt lat="32.881509" lon="10.4515707"><ele>279.0</ele><time>2026-04-26T15:06:18.575Z</time></trkpt><trkpt lat="32.8816542" lon="10.451406"><ele>279.0</ele><time>2026-04-26T15:06:19.581Z</time></trkpt><trkpt lat="32.881807" lon="10.4512422"><ele>279.0</ele><time>2026-04-26T15:06:20.596Z</time></trkpt><trkpt lat="32.8819515" lon="10.4510799"><ele>279.0</ele><time>2026-04-26T15:06:21.584Z</time></trkpt><trkpt lat="32.8821012" lon="10.4509128"><ele>279.0</ele><time>2026-04-26T15:06:22.583Z</time></trkpt><trkpt lat="32.8822477" lon="10.4507492"><ele>279.0</ele><time>2026-04-26T15:06:23.575Z</time></trkpt><trkpt lat="32.8823929" lon="10.4505876"><ele>279.0</ele><time>2026-04-26T15:06:24.58Z</time></trkpt><trkpt lat="32.8825342" lon="10.4504237"><ele>279.0</ele><time>2026-04-26T15:06:25.585Z</time></trkpt><trkpt lat="32.8826746" lon="10.4502591"><ele>279.0</ele><time>2026-04-26T15:06:26.578Z</time></trkpt><trkpt lat="32.882825" lon="10.450095"><ele>278.0</ele><time>2026-04-26T15:06:27.579Z</time></trkpt><trkpt lat="32.882968" lon="10.4499199"><ele>277.0</ele><time>2026-04-26T15:06:28.582Z</time></trkpt><trkpt lat="32.8830984" lon="10.4497452"><ele>276.0</ele><time>2026-04-26T15:06:29.571Z</time></trkpt><trkpt lat="32.8832227" lon="10.4495606"><ele>276.0</ele><time>2026-04-26T15:06:30.581Z</time></trkpt><trkpt lat="32.8833408" lon="10.4493693"><ele>276.0</ele><time>2026-04-26T15:06:31.575Z</time></trkpt><trkpt lat="32.8834506" lon="10.4491773"><ele>276.0</ele><time>2026-04-26T15:06:32.574Z</time></trkpt><trkpt lat="32.8835604" lon="10.448976"><ele>275.6666666666667</ele><time>2026-04-26T15:06:33.578Z</time></trkpt><trkpt lat="32.8836668" lon="10.4487756"><ele>275.33333333333337</ele><time>2026-04-26T15:06:34.585Z</time></trkpt><trkpt lat="32.8837776" lon="10.4485864"><ele>275.0</ele><time>2026-04-26T15:06:35.576Z</time></trkpt><trkpt lat="32.8838918" lon="10.44839"><ele>275.0</ele><time>2026-04-26T15:06:36.576Z</time></trkpt><trkpt lat="32.8840111" lon="10.448198"><ele>275.0</ele><time>2026-04-26T15:06:37.581Z</time></trkpt><trkpt lat="32.8841344" lon="10.4480124"><ele>275.0</ele><time>2026-04-26T15:06:38.584Z</time></trkpt><trkpt lat="32.8842582" lon="10.4478309"><ele>276.0</ele><time>2026-04-26T15:06:39.571Z</time></trkpt><trkpt lat="32.8843839" lon="10.4476445"><ele>277.0</ele><time>2026-04-26T15:06:40.582Z</time></trkpt><trkpt lat="32.8845161" lon="10.4474657"><ele>278.0</ele><time>2026-04-26T15:06:41.585Z</time></trkpt><trkpt lat="32.8846481" lon="10.4472893"><ele>277.0</ele><time>2026-04-26T15:06:42.583Z</time></trkpt><trkpt lat="32.8847782" lon="10.4471142"><ele>276.0</ele><time>2026-04-26T15:06:43.572Z</time></trkpt><trkpt lat="32.88491" lon="10.4469381"><ele>275.0</ele><time>2026-04-26T15:06:44.582Z</time></trkpt><trkpt lat="32.8850386" lon="10.4467584"><ele>275.33333333333337</ele><time>2026-04-26T15:06:45.577Z</time></trkpt><trkpt lat="32.885162" lon="10.4465699"><ele>275.6666666666667</ele><time>2026-04-26T15:06:46.57Z</time></trkpt><trkpt lat="32.8852937" lon="10.4463828"><ele>276.0</ele><time>2026-04-26T15:06:47.58Z</time></trkpt><trkpt lat="32.885422" lon="10.4462034"><ele>276.0</ele><time>2026-04-26T15:06:48.568Z</time></trkpt><trkpt lat="32.8855511" lon="10.4460231"><ele>276.0</ele><time>2026-04-26T15:06:49.574Z</time></trkpt><trkpt lat="32.8856848" lon="10.4458441"><ele>276.0</ele><time>2026-04-26T15:06:50.592Z</time></trkpt><trkpt lat="32.8858164" lon="10.4456647"><ele>276.3333333333333</ele><time>2026-04-26T15:06:51.573Z</time></trkpt><trkpt lat="32.8859473" lon="10.4454812"><ele>276.66666666666663</ele><time>2026-04-26T15:06:52.585Z</time></trkpt><trkpt lat="32.886074" lon="10.4453011"><ele>277.0</ele><time>2026-04-26T15:06:53.582Z</time></trkpt><trkpt lat="32.8862027" lon="10.4451238"><ele>277.0</ele><time>2026-04-26T15:06:54.587Z</time></trkpt><trkpt lat="32.8863313" lon="10.4449421"><ele>277.0</ele><time>2026-04-26T15:06:55.581Z</time></trkpt><trkpt lat="32.8864599" lon="10.4447576"><ele>277.0</ele><time>2026-04-26T15:06:56.581Z</time></trkpt><trkpt lat="32.8865831" lon="10.4445738"><ele>276.0</ele><time>2026-04-26T15:06:57.582Z</time></trkpt><trkpt lat="32.8867085" lon="10.4443942"><ele>275.0</ele><time>2026-04-26T15:06:58.579Z</time></trkpt><trkpt lat="32.8868423" lon="10.4442158"><ele>274.0</ele><time>2026-04-26T15:06:59.574Z</time></trkpt><trkpt lat="32.8869784" lon="10.4440419"><ele>274.0</ele><time>2026-04-26T15:07:00.575Z</time></trkpt><trkpt lat="32.8871231" lon="10.4438788"><ele>274.0</ele><time>2026-04-26T15:07:01.585Z</time></trkpt><trkpt lat="32.887277" lon="10.4437287"><ele>274.0</ele><time>2026-04-26T15:07:02.575Z</time></trkpt><trkpt lat="32.8874391" lon="10.4435919"><ele>274.0</ele><time>2026-04-26T15:07:03.592Z</time></trkpt><trkpt lat="32.8876026" lon="10.4434613"><ele>274.0</ele><time>2026-04-26T15:07:04.576Z</time></trkpt><trkpt lat="32.887771" lon="10.4433301"><ele>274.0</ele><time>2026-04-26T15:07:05.581Z</time></trkpt><trkpt lat="32.887942" lon="10.4432083"><ele>274.0</ele><time>2026-04-26T15:07:06.586Z</time></trkpt><trkpt lat="32.88812" lon="10.4431029"><ele>274.0</ele><time>2026-04-26T15:07:07.57Z</time></trkpt><trkpt lat="32.8883096" lon="10.443018"><ele>274.0</ele><time>2026-04-26T15:07:08.579Z</time></trkpt><trkpt lat="32.8885026" lon="10.4429519"><ele>273.3333333333333</ele><time>2026-04-26T15:07:09.579Z</time></trkpt><trkpt lat="32.8887023" lon="10.4429057"><ele>272.6666666666667</ele><time>2026-04-26T15:07:10.58Z</time></trkpt><trkpt lat="32.8888988" lon="10.4428692"><ele>272.0</ele><time>2026-04-26T15:07:11.588Z</time></trkpt><trkpt lat="32.8890974" lon="10.442834"><ele>271.6666666666667</ele><time>2026-04-26T15:07:12.571Z</time></trkpt><trkpt lat="32.889296" lon="10.4427958"><ele>271.3333333333333</ele><time>2026-04-26T15:07:13.575Z</time></trkpt><trkpt lat="32.8894895" lon="10.442764"><ele>271.0</ele><time>2026-04-26T15:07:14.58Z</time></trkpt><trkpt lat="32.8896707" lon="10.4427423"><ele>271.0</ele><time>2026-04-26T15:07:15.58Z</time></trkpt><trkpt lat="32.8898406" lon="10.4427251"><ele>271.0</ele><time>2026-04-26T15:07:16.573Z</time></trkpt><trkpt lat="32.8900021" lon="10.4427121"><ele>271.0</ele><time>2026-04-26T15:07:17.585Z</time></trkpt><trkpt lat="32.8901544" lon="10.4426982"><ele>271.0</ele><time>2026-04-26T15:07:18.581Z</time></trkpt><trkpt lat="32.8903012" lon="10.4426873"><ele>271.0</ele><time>2026-04-26T15:07:19.579Z</time></trkpt><trkpt lat="32.8904422" lon="10.4426816"><ele>271.0</ele><time>2026-04-26T15:07:20.593Z</time></trkpt><trkpt lat="32.8905743" lon="10.4426749"><ele>271.0</ele><time>2026-04-26T15:07:21.578Z</time></trkpt><trkpt lat="32.8907028" lon="10.4426737"><ele>271.0</ele><time>2026-04-26T15:07:22.588Z</time></trkpt><trkpt lat="32.8908231" lon="10.442669"><ele>271.0</ele><time>2026-04-26T15:07:23.573Z</time></trkpt><trkpt lat="32.8909176" lon="10.4426647"><ele>271.0</ele><time>2026-04-26T15:07:24.573Z</time></trkpt><trkpt lat="32.8909924" lon="10.4426676"><ele>271.0</ele><time>2026-04-26T15:07:25.578Z</time></trkpt><trkpt lat="32.8910631" lon="10.4426673"><ele>271.0</ele><time>2026-04-26T15:07:26.582Z</time></trkpt><trkpt lat="32.891139" lon="10.4426584"><ele>271.0</ele><time>2026-04-26T15:07:27.572Z</time></trkpt><trkpt lat="32.8912226" lon="10.4426487"><ele>271.0</ele><time>2026-04-26T15:07:28.582Z</time></trkpt><trkpt lat="32.8913124" lon="10.4426485"><ele>271.0</ele><time>2026-04-26T15:07:29.581Z</time></trkpt><trkpt lat="32.8914036" lon="10.4426482"><ele>271.0</ele><time>2026-04-26T15:07:30.571Z</time></trkpt><trkpt lat="32.891497" lon="10.4426428"><ele>271.0</ele><time>2026-04-26T15:07:31.582Z</time></trkpt><trkpt lat="32.8915902" lon="10.4426372"><ele>271.0</ele><time>2026-04-26T15:07:32.584Z</time></trkpt><trkpt lat="32.8916888" lon="10.4426325"><ele>271.2</ele><time>2026-04-26T15:07:33.613Z</time></trkpt><trkpt lat="32.8917891" lon="10.4426271"><ele>271.40000000000003</ele><time>2026-04-26T15:07:34.584Z</time></trkpt><trkpt lat="32.8918993" lon="10.4426252"><ele>271.6</ele><time>2026-04-26T15:07:35.587Z</time></trkpt><trkpt lat="32.8920133" lon="10.4426181"><ele>271.8</ele><time>2026-04-26T15:07:36.588Z</time></trkpt><trkpt lat="32.892127" lon="10.442611"><ele>272.0</ele><time>2026-04-26T15:07:37.588Z</time></trkpt><trkpt lat="32.8922451" lon="10.4426017"><ele>272.0</ele><time>2026-04-26T15:07:38.586Z</time></trkpt><trkpt lat="32.8923625" lon="10.4426015"><ele>272.0</ele><time>2026-04-26T15:07:39.579Z</time></trkpt><trkpt lat="32.8924839" lon="10.4426012"><ele>272.0</ele><time>2026-04-26T15:07:40.581Z</time></trkpt><trkpt lat="32.8926022" lon="10.4425984"><ele>272.0</ele><time>2026-04-26T15:07:41.579Z</time></trkpt><trkpt lat="32.8927179" lon="10.4425892"><ele>271.5</ele><time>2026-04-26T15:07:42.58Z</time></trkpt><trkpt lat="32.8928344" lon="10.4425783"><ele>271.0</ele><time>2026-04-26T15:07:43.584Z</time></trkpt><trkpt lat="32.8929607" lon="10.4425692"><ele>270.5</ele><time>2026-04-26T15:07:44.592Z</time></trkpt><trkpt lat="32.8930925" lon="10.4425676"><ele>270.0</ele><time>2026-04-26T15:07:45.578Z</time></trkpt><trkpt lat="32.8932287" lon="10.4425648"><ele>270.0</ele><time>2026-04-26T15:07:46.573Z</time></trkpt><trkpt lat="32.8933641" lon="10.4425541"><ele>270.0</ele><time>2026-04-26T15:07:47.573Z</time></trkpt><trkpt lat="32.8935018" lon="10.4425473"><ele>270.0</ele><time>2026-04-26T15:07:48.59Z</time></trkpt><trkpt lat="32.8936431" lon="10.4425462"><ele>270.0</ele><time>2026-04-26T15:07:49.583Z</time></trkpt><trkpt lat="32.8937875" lon="10.4425455"><ele>270.0</ele><time>2026-04-26T15:07:50.583Z</time></trkpt><trkpt lat="32.8939339" lon="10.4425401"><ele>270.0</ele><time>2026-04-26T15:07:51.583Z</time></trkpt><trkpt lat="32.8940809" lon="10.4425317"><ele>270.0</ele><time>2026-04-26T15:07:52.589Z</time></trkpt><trkpt lat="32.8942364" lon="10.4425235"><ele>270.0</ele><time>2026-04-26T15:07:53.584Z</time></trkpt><trkpt lat="32.8943948" lon="10.4425204"><ele>270.0</ele><time>2026-04-26T15:07:54.582Z</time></trkpt><trkpt lat="32.894552" lon="10.4425165"><ele>270.0</ele><time>2026-04-26T15:07:55.58Z</time></trkpt><trkpt lat="32.8947073" lon="10.4425144"><ele>270.0</ele><time>2026-04-26T15:07:56.583Z</time></trkpt><trkpt lat="32.8948636" lon="10.4425109"><ele>270.0</ele><time>2026-04-26T15:07:57.584Z</time></trkpt><trkpt lat="32.8950266" lon="10.442506"><ele>270.0</ele><time>2026-04-26T15:07:58.578Z</time></trkpt><trkpt lat="32.8951916" lon="10.4424933"><ele>270.0</ele><time>2026-04-26T15:07:59.584Z</time></trkpt><trkpt lat="32.8953563" lon="10.4424798"><ele>269.3333333333333</ele><time>2026-04-26T15:08:00.578Z</time></trkpt><trkpt lat="32.8955244" lon="10.4424699"><ele>268.66666666666663</ele><time>2026-04-26T15:08:01.576Z</time></trkpt><trkpt lat="32.8956912" lon="10.4424616"><ele>268.0</ele><time>2026-04-26T15:08:02.576Z</time></trkpt><trkpt lat="32.8958579" lon="10.442458"><ele>267.3333333333333</ele><time>2026-04-26T15:08:03.584Z</time></trkpt><trkpt lat="32.8960252" lon="10.442448"><ele>266.6666666666667</ele><time>2026-04-26T15:08:04.581Z</time></trkpt><trkpt lat="32.8962008" lon="10.4424447"><ele>266.0</ele><time>2026-04-26T15:08:05.585Z</time></trkpt><trkpt lat="32.8963727" lon="10.4424402"><ele>266.0</ele><time>2026-04-26T15:08:06.573Z</time></trkpt><trkpt lat="32.8965462" lon="10.4424379"><ele>266.0</ele><time>2026-04-26T15:08:07.583Z</time></trkpt><trkpt lat="32.8967211" lon="10.4424303"><ele>266.0</ele><time>2026-04-26T15:08:08.585Z</time></trkpt><trkpt lat="32.8968959" lon="10.4424224"><ele>265.6666666666667</ele><time>2026-04-26T15:08:09.583Z</time></trkpt><trkpt lat="32.8970703" lon="10.442415"><ele>265.3333333333333</ele><time>2026-04-26T15:08:10.584Z</time></trkpt><trkpt lat="32.8972458" lon="10.4424088"><ele>265.0</ele><time>2026-04-26T15:08:11.582Z</time></trkpt><trkpt lat="32.8974231" lon="10.4423958"><ele>265.0</ele><time>2026-04-26T15:08:12.58Z</time></trkpt><trkpt lat="32.8975988" lon="10.4423818"><ele>265.0</ele><time>2026-04-26T15:08:13.579Z</time></trkpt><trkpt lat="32.8977674" lon="10.4423695"><ele>265.0</ele><time>2026-04-26T15:08:14.584Z</time></trkpt><trkpt lat="32.8979391" lon="10.4423612"><ele>265.0</ele><time>2026-04-26T15:08:15.577Z</time></trkpt><trkpt lat="32.8981108" lon="10.4423562"><ele>265.0</ele><time>2026-04-26T15:08:16.585Z</time></trkpt><trkpt lat="32.898284" lon="10.4423564"><ele>265.0</ele><time>2026-04-26T15:08:17.584Z</time></trkpt><trkpt lat="32.8984578" lon="10.4423536"><ele>264.66666666666663</ele><time>2026-04-26T15:08:18.585Z</time></trkpt><trkpt lat="32.8986288" lon="10.4423493"><ele>264.3333333333333</ele><time>2026-04-26T15:08:19.581Z</time></trkpt><trkpt lat="32.8988007" lon="10.4423433"><ele>264.0</ele><time>2026-04-26T15:08:20.588Z</time></trkpt><trkpt lat="32.8989741" lon="10.4423343"><ele>264.0</ele><time>2026-04-26T15:08:21.58Z</time></trkpt><trkpt lat="32.8991433" lon="10.4423214"><ele>264.0</ele><time>2026-04-26T15:08:22.589Z</time></trkpt><trkpt lat="32.8993125" lon="10.4423116"><ele>264.0</ele><time>2026-04-26T15:08:23.587Z</time></trkpt><trkpt lat="32.8994823" lon="10.4423063"><ele>264.3333333333333</ele><time>2026-04-26T15:08:24.58Z</time></trkpt><trkpt lat="32.8996515" lon="10.442298"><ele>264.66666666666663</ele><time>2026-04-26T15:08:25.581Z</time></trkpt><trkpt lat="32.8998187" lon="10.4422911"><ele>265.0</ele><time>2026-04-26T15:08:26.591Z</time></trkpt><trkpt lat="32.8999802" lon="10.4422878"><ele>264.66666666666663</ele><time>2026-04-26T15:08:27.584Z</time></trkpt><trkpt lat="32.9001382" lon="10.4422804"><ele>264.3333333333333</ele><time>2026-04-26T15:08:28.59Z</time></trkpt><trkpt lat="32.9002949" lon="10.442273"><ele>264.0</ele><time>2026-04-26T15:08:29.58Z</time></trkpt><trkpt lat="32.9004535" lon="10.4422675"><ele>264.0</ele><time>2026-04-26T15:08:30.571Z</time></trkpt><trkpt lat="32.9006121" lon="10.442264"><ele>264.0</ele><time>2026-04-26T15:08:31.578Z</time></trkpt><trkpt lat="32.9007681" lon="10.4422597"><ele>264.0</ele><time>2026-04-26T15:08:32.586Z</time></trkpt><trkpt lat="32.9009253" lon="10.4422562"><ele>264.0</ele><time>2026-04-26T15:08:33.582Z</time></trkpt><trkpt lat="32.9010789" lon="10.4422426"><ele>264.0</ele><time>2026-04-26T15:08:34.592Z</time></trkpt><trkpt lat="32.9012328" lon="10.4422151"><ele>264.0</ele><time>2026-04-26T15:08:35.58Z</time></trkpt><trkpt lat="32.901385" lon="10.4421775"><ele>264.0</ele><time>2026-04-26T15:08:36.577Z</time></trkpt><trkpt lat="32.9015373" lon="10.4421353"><ele>264.0</ele><time>2026-04-26T15:08:37.583Z</time></trkpt><trkpt lat="32.9016893" lon="10.4420856"><ele>264.0</ele><time>2026-04-26T15:08:38.586Z</time></trkpt><trkpt lat="32.9018398" lon="10.442039"><ele>262.6666666666667</ele><time>2026-04-26T15:08:39.583Z</time></trkpt><trkpt lat="32.9019924" lon="10.4420011"><ele>261.33333333333337</ele><time>2026-04-26T15:08:40.575Z</time></trkpt><trkpt lat="32.9021462" lon="10.4419853"><ele>260.0</ele><time>2026-04-26T15:08:41.574Z</time></trkpt><trkpt lat="32.9023091" lon="10.4420003"><ele>260.0</ele><time>2026-04-26T15:08:42.577Z</time></trkpt><trkpt lat="32.9024743" lon="10.4420396"><ele>260.0</ele><time>2026-04-26T15:08:43.577Z</time></trkpt><trkpt lat="32.9026382" lon="10.4420972"><ele>260.0</ele><time>2026-04-26T15:08:44.587Z</time></trkpt><trkpt lat="32.9027933" lon="10.442159"><ele>259.75</ele><time>2026-04-26T15:08:45.589Z</time></trkpt><trkpt lat="32.9029363" lon="10.4422167"><ele>259.5</ele><time>2026-04-26T15:08:46.576Z</time></trkpt><trkpt lat="32.9030783" lon="10.4422715"><ele>259.25</ele><time>2026-04-26T15:08:47.576Z</time></trkpt><trkpt lat="32.9032097" lon="10.4423227"><ele>259.0</ele><time>2026-04-26T15:08:48.576Z</time></trkpt><trkpt lat="32.903322" lon="10.4423696"><ele>259.0</ele><time>2026-04-26T15:08:49.569Z</time></trkpt><trkpt lat="32.9034226" lon="10.4424027"><ele>259.0</ele><time>2026-04-26T15:08:50.579Z</time></trkpt><trkpt lat="32.9035197" lon="10.4424402"><ele>259.0</ele><time>2026-04-26T15:08:51.585Z</time></trkpt><trkpt lat="32.9036181" lon="10.4424817"><ele>259.0</ele><time>2026-04-26T15:08:52.576Z</time></trkpt><trkpt lat="32.9037303" lon="10.4425267"><ele>259.0</ele><time>2026-04-26T15:08:53.575Z</time></trkpt><trkpt lat="32.9038519" lon="10.4425642"><ele>259.0</ele><time>2026-04-26T15:08:54.584Z</time></trkpt><trkpt lat="32.9039819" lon="10.4426114"><ele>259.0</ele><time>2026-04-26T15:08:55.585Z</time></trkpt><trkpt lat="32.904119" lon="10.4426622"><ele>259.0</ele><time>2026-04-26T15:08:56.586Z</time></trkpt><trkpt lat="32.9042567" lon="10.4427171"><ele>259.0</ele><time>2026-04-26T15:08:57.58Z</time></trkpt><trkpt lat="32.9043974" lon="10.4427672"><ele>261.3333333333333</ele><time>2026-04-26T15:08:58.576Z</time></trkpt><trkpt lat="32.9045387" lon="10.4428167"><ele>263.6666666666667</ele><time>2026-04-26T15:08:59.582Z</time></trkpt><trkpt lat="32.9046847" lon="10.4428754"><ele>266.0</ele><time>2026-04-26T15:09:00.588Z</time></trkpt><trkpt lat="32.9048257" lon="10.4429384"><ele>263.33333333333337</ele><time>2026-04-26T15:09:01.579Z</time></trkpt><trkpt lat="32.9049689" lon="10.443001"><ele>260.6666666666667</ele><time>2026-04-26T15:09:02.582Z</time></trkpt><trkpt lat="32.9051193" lon="10.4430686"><ele>258.0</ele><time>2026-04-26T15:09:03.576Z</time></trkpt><trkpt lat="32.9052646" lon="10.443138"><ele>257.6666666666667</ele><time>2026-04-26T15:09:04.577Z</time></trkpt><trkpt lat="32.9054051" lon="10.4432193"><ele>257.33333333333337</ele><time>2026-04-26T15:09:05.584Z</time></trkpt><trkpt lat="32.9055461" lon="10.4433096"><ele>257.0</ele><time>2026-04-26T15:09:06.574Z</time></trkpt><trkpt lat="32.9056852" lon="10.4434059"><ele>257.0</ele><time>2026-04-26T15:09:07.576Z</time></trkpt><trkpt lat="32.9058168" lon="10.4434975"><ele>257.0</ele><time>2026-04-26T15:09:08.585Z</time></trkpt><trkpt lat="32.9059507" lon="10.4435893"><ele>257.0</ele><time>2026-04-26T15:09:09.585Z</time></trkpt><trkpt lat="32.9060898" lon="10.4436781"><ele>256.33333333333337</ele><time>2026-04-26T15:09:10.586Z</time></trkpt><trkpt lat="32.9062204" lon="10.4437687"><ele>255.66666666666669</ele><time>2026-04-26T15:09:11.58Z</time></trkpt><trkpt lat="32.9063581" lon="10.4438645"><ele>255.0</ele><time>2026-04-26T15:09:12.58Z</time></trkpt><trkpt lat="32.9064955" lon="10.4439583"><ele>255.0</ele><time>2026-04-26T15:09:13.584Z</time></trkpt><trkpt lat="32.9066316" lon="10.4440477"><ele>255.0</ele><time>2026-04-26T15:09:14.582Z</time></trkpt><trkpt lat="32.9067765" lon="10.4441326"><ele>255.0</ele><time>2026-04-26T15:09:15.567Z</time></trkpt><trkpt lat="32.9069238" lon="10.4442086"><ele>256.0</ele><time>2026-04-26T15:09:16.58Z</time></trkpt><trkpt lat="32.9070748" lon="10.4442668"><ele>257.0</ele><time>2026-04-26T15:09:17.571Z</time></trkpt><trkpt lat="32.9072348" lon="10.4443051"><ele>258.0</ele><time>2026-04-26T15:09:18.58Z</time></trkpt><trkpt lat="32.9074039" lon="10.4443283"><ele>258.0</ele><time>2026-04-26T15:09:19.572Z</time></trkpt><trkpt lat="32.907569" lon="10.4443462"><ele>258.0</ele><time>2026-04-26T15:09:20.587Z</time></trkpt><trkpt lat="32.9077324" lon="10.4443501"><ele>258.0</ele><time>2026-04-26T15:09:21.588Z</time></trkpt><trkpt lat="32.9079023" lon="10.4443534"><ele>257.6666666666667</ele><time>2026-04-26T15:09:22.575Z</time></trkpt><trkpt lat="32.9080698" lon="10.4443293"><ele>257.33333333333337</ele><time>2026-04-26T15:09:23.58Z</time></trkpt><trkpt lat="32.9082334" lon="10.4442897"><ele>257.0</ele><time>2026-04-26T15:09:24.599Z</time></trkpt><trkpt lat="32.9083964" lon="10.444237"><ele>256.6666666666667</ele><time>2026-04-26T15:09:25.58Z</time></trkpt><trkpt lat="32.908553" lon="10.4441741"><ele>256.3333333333333</ele><time>2026-04-26T15:09:26.576Z</time></trkpt><trkpt lat="32.9087034" lon="10.4441027"><ele>256.0</ele><time>2026-04-26T15:09:27.581Z</time></trkpt><trkpt lat="32.9088489" lon="10.4440309"><ele>256.0</ele><time>2026-04-26T15:09:28.573Z</time></trkpt><trkpt lat="32.908993" lon="10.443957"><ele>256.0</ele><time>2026-04-26T15:09:29.577Z</time></trkpt><trkpt lat="32.909131" lon="10.4438765"><ele>256.0</ele><time>2026-04-26T15:09:30.58Z</time></trkpt><trkpt lat="32.9092641" lon="10.4437882"><ele>256.75</ele><time>2026-04-26T15:09:31.58Z</time></trkpt><trkpt lat="32.9093939" lon="10.4437022"><ele>257.5</ele><time>2026-04-26T15:09:32.583Z</time></trkpt><trkpt lat="32.9095229" lon="10.4436118"><ele>258.25</ele><time>2026-04-26T15:09:33.578Z</time></trkpt><trkpt lat="32.9096468" lon="10.4435214"><ele>259.0</ele><time>2026-04-26T15:09:34.584Z</time></trkpt><trkpt lat="32.9097646" lon="10.4434346"><ele>259.0</ele><time>2026-04-26T15:09:35.585Z</time></trkpt><trkpt lat="32.9098814" lon="10.4433464"><ele>259.0</ele><time>2026-04-26T15:09:36.586Z</time></trkpt><trkpt lat="32.9099929" lon="10.4432496"><ele>259.0</ele><time>2026-04-26T15:09:37.576Z</time></trkpt><trkpt lat="32.910097" lon="10.4431494"><ele>259.0</ele><time>2026-04-26T15:09:38.58Z</time></trkpt><trkpt lat="32.9101856" lon="10.4430358"><ele>259.0</ele><time>2026-04-26T15:09:39.589Z</time></trkpt><trkpt lat="32.910268" lon="10.4429132"><ele>259.0</ele><time>2026-04-26T15:09:40.576Z</time></trkpt><trkpt lat="32.9103415" lon="10.4427912"><ele>259.0</ele><time>2026-04-26T15:09:41.571Z</time></trkpt><trkpt lat="32.9104129" lon="10.4426674"><ele>259.0</ele><time>2026-04-26T15:09:42.583Z</time></trkpt><trkpt lat="32.9104962" lon="10.4425451"><ele>259.0</ele><time>2026-04-26T15:09:43.583Z</time></trkpt><trkpt lat="32.9105888" lon="10.4424406"><ele>259.0</ele><time>2026-04-26T15:09:44.588Z</time></trkpt><trkpt lat="32.9107065" lon="10.4423793"><ele>259.0</ele><time>2026-04-26T15:09:45.585Z</time></trkpt><trkpt lat="32.9108221" lon="10.4423502"><ele>259.0</ele><time>2026-04-26T15:09:46.578Z</time></trkpt><trkpt lat="32.9109325" lon="10.4423186"><ele>259.59999999999997</ele><time>2026-04-26T15:09:47.576Z</time></trkpt><trkpt lat="32.9110298" lon="10.4422991"><ele>260.2</ele><time>2026-04-26T15:09:48.582Z</time></trkpt><trkpt lat="32.9110978" lon="10.4422732"><ele>260.79999999999995</ele><time>2026-04-26T15:09:49.583Z</time></trkpt><trkpt lat="32.9111884" lon="10.4422454"><ele>261.4</ele><time>2026-04-26T15:09:51.581Z</time></trkpt><trkpt lat="32.9112866" lon="10.4422274"><ele>262.0</ele><time>2026-04-26T15:09:54.592Z</time></trkpt><trkpt lat="32.9113872" lon="10.4422019"><ele>262.0</ele><time>2026-04-26T15:09:56.577Z</time></trkpt><trkpt lat="32.9115064" lon="10.4421546"><ele>262.0</ele><time>2026-04-26T15:09:58.582Z</time></trkpt><trkpt lat="32.911574" lon="10.442136"><ele>262.0</ele><time>2026-04-26T15:09:59.576Z</time></trkpt><trkpt lat="32.9116486" lon="10.4421199"><ele>262.0</ele><time>2026-04-26T15:10:00.584Z</time></trkpt><trkpt lat="32.9117289" lon="10.4420943"><ele>262.0</ele><time>2026-04-26T15:10:01.584Z</time></trkpt><trkpt lat="32.9118111" lon="10.4420653"><ele>262.0</ele><time>2026-04-26T15:10:02.582Z</time></trkpt><trkpt lat="32.9118955" lon="10.4420352"><ele>262.0</ele><time>2026-04-26T15:10:03.581Z</time></trkpt><trkpt lat="32.9119868" lon="10.4420091"><ele>262.0</ele><time>2026-04-26T15:10:04.581Z</time></trkpt><trkpt lat="32.912083" lon="10.4419689"><ele>262.0</ele><time>2026-04-26T15:10:05.587Z</time></trkpt><trkpt lat="32.9121864" lon="10.4419262"><ele>262.0</ele><time>2026-04-26T15:10:06.584Z</time></trkpt><trkpt lat="32.9123009" lon="10.4418878"><ele>262.0</ele><time>2026-04-26T15:10:07.586Z</time></trkpt><trkpt lat="32.9124079" lon="10.4418504"><ele>262.0</ele><time>2026-04-26T15:10:08.578Z</time></trkpt><trkpt lat="32.9125204" lon="10.441806"><ele>262.0</ele><time>2026-04-26T15:10:09.582Z</time></trkpt><trkpt lat="32.912641" lon="10.4417559"><ele>262.0</ele><time>2026-04-26T15:10:10.59Z</time></trkpt><trkpt lat="32.9127692" lon="10.4417047"><ele>262.0</ele><time>2026-04-26T15:10:11.587Z</time></trkpt><trkpt lat="32.9128959" lon="10.4416511"><ele>261.25</ele><time>2026-04-26T15:10:12.57Z</time></trkpt><trkpt lat="32.9130202" lon="10.4415999"><ele>260.5</ele><time>2026-04-26T15:10:13.6Z</time></trkpt><trkpt lat="32.9131469" lon="10.4415571"><ele>259.75</ele><time>2026-04-26T15:10:14.575Z</time></trkpt><trkpt lat="32.9132724" lon="10.4415043"><ele>259.0</ele><time>2026-04-26T15:10:15.585Z</time></trkpt><trkpt lat="32.9133991" lon="10.4414519"><ele>258.5</ele><time>2026-04-26T15:10:16.577Z</time></trkpt><trkpt lat="32.9135229" lon="10.4413995"><ele>258.0</ele><time>2026-04-26T15:10:17.584Z</time></trkpt><trkpt lat="32.913639" lon="10.4413465"><ele>257.5</ele><time>2026-04-26T15:10:18.584Z</time></trkpt><trkpt lat="32.9137603" lon="10.4412917"><ele>257.0</ele><time>2026-04-26T15:10:19.579Z</time></trkpt><trkpt lat="32.9138783" lon="10.4412432"><ele>257.0</ele><time>2026-04-26T15:10:20.586Z</time></trkpt><trkpt lat="32.9139947" lon="10.4411967"><ele>257.0</ele><time>2026-04-26T15:10:21.593Z</time></trkpt><trkpt lat="32.9141072" lon="10.4411448"><ele>257.0</ele><time>2026-04-26T15:10:22.581Z</time></trkpt><trkpt lat="32.914222" lon="10.4410976"><ele>257.0</ele><time>2026-04-26T15:10:23.584Z</time></trkpt><trkpt lat="32.9143297" lon="10.4410561"><ele>256.5</ele><time>2026-04-26T15:10:24.574Z</time></trkpt><trkpt lat="32.9144419" lon="10.4410137"><ele>256.0</ele><time>2026-04-26T15:10:25.572Z</time></trkpt><trkpt lat="32.914551" lon="10.4409696"><ele>255.5</ele><time>2026-04-26T15:10:26.571Z</time></trkpt><trkpt lat="32.9146678" lon="10.4409127"><ele>255.0</ele><time>2026-04-26T15:10:27.59Z</time></trkpt><trkpt lat="32.9147821" lon="10.4408641"><ele>255.0</ele><time>2026-04-26T15:10:28.587Z</time></trkpt><trkpt lat="32.9149026" lon="10.4408279"><ele>255.0</ele><time>2026-04-26T15:10:29.583Z</time></trkpt><trkpt lat="32.9150177" lon="10.4407927"><ele>255.0</ele><time>2026-04-26T15:10:30.584Z</time></trkpt><trkpt lat="32.9151316" lon="10.4407546"><ele>255.0</ele><time>2026-04-26T15:10:31.577Z</time></trkpt><trkpt lat="32.9152434" lon="10.4407164"><ele>254.75</ele><time>2026-04-26T15:10:32.584Z</time></trkpt><trkpt lat="32.915353" lon="10.4406757"><ele>254.5</ele><time>2026-04-26T15:10:33.573Z</time></trkpt><trkpt lat="32.9154681" lon="10.4406372"><ele>254.25</ele><time>2026-04-26T15:10:34.575Z</time></trkpt><trkpt lat="32.915577" lon="10.4405962"><ele>254.0</ele><time>2026-04-26T15:10:35.574Z</time></trkpt><trkpt lat="32.9156767" lon="10.440558"><ele>254.0</ele><time>2026-04-26T15:10:36.572Z</time></trkpt><trkpt lat="32.9157835" lon="10.4405327"><ele>253.99999999999997</ele><time>2026-04-26T15:10:37.57Z</time></trkpt><trkpt lat="32.9158897" lon="10.4405169"><ele>253.99999999999997</ele><time>2026-04-26T15:10:38.569Z</time></trkpt><trkpt lat="32.9160011" lon="10.4405132"><ele>254.0</ele><time>2026-04-26T15:10:39.583Z</time></trkpt><trkpt lat="32.9161057" lon="10.4405173"><ele>254.0</ele><time>2026-04-26T15:10:40.58Z</time></trkpt><trkpt lat="32.9162087" lon="10.4405278"><ele>253.6</ele><time>2026-04-26T15:10:41.583Z</time></trkpt><trkpt lat="32.9163155" lon="10.4405492"><ele>253.2</ele><time>2026-04-26T15:10:42.571Z</time></trkpt><trkpt lat="32.9164208" lon="10.4405649"><ele>252.79999999999998</ele><time>2026-04-26T15:10:43.584Z</time></trkpt><trkpt lat="32.9165287" lon="10.4405832"><ele>252.39999999999998</ele><time>2026-04-26T15:10:44.583Z</time></trkpt><trkpt lat="32.9166338" lon="10.4406008"><ele>252.0</ele><time>2026-04-26T15:10:45.575Z</time></trkpt><trkpt lat="32.9167381" lon="10.4406192"><ele>251.6</ele><time>2026-04-26T15:10:46.575Z</time></trkpt><trkpt lat="32.9168392" lon="10.4406344"><ele>251.2</ele><time>2026-04-26T15:10:47.578Z</time></trkpt><trkpt lat="32.9169392" lon="10.4406485"><ele>250.8</ele><time>2026-04-26T15:10:48.57Z</time></trkpt><trkpt lat="32.9170375" lon="10.4406651"><ele>250.4</ele><time>2026-04-26T15:10:49.58Z</time></trkpt><trkpt lat="32.9171356" lon="10.4406779"><ele>250.0</ele><time>2026-04-26T15:10:50.576Z</time></trkpt><trkpt lat="32.9172391" lon="10.4406856"><ele>250.0</ele><time>2026-04-26T15:10:51.587Z</time></trkpt><trkpt lat="32.9173438" lon="10.4406934"><ele>250.0</ele><time>2026-04-26T15:10:52.576Z</time></trkpt><trkpt lat="32.9174523" lon="10.440691"><ele>250.0</ele><time>2026-04-26T15:10:53.579Z</time></trkpt><trkpt lat="32.9175636" lon="10.4406709"><ele>250.0</ele><time>2026-04-26T15:10:54.575Z</time></trkpt><trkpt lat="32.9176638" lon="10.4406308"><ele>250.0</ele><time>2026-04-26T15:10:55.576Z</time></trkpt><trkpt lat="32.9177787" lon="10.4405832"><ele>249.5</ele><time>2026-04-26T15:10:56.574Z</time></trkpt><trkpt lat="32.9178917" lon="10.4405372"><ele>249.0</ele><time>2026-04-26T15:10:57.58Z</time></trkpt><trkpt lat="32.9180073" lon="10.4404882"><ele>248.5</ele><time>2026-04-26T15:10:58.582Z</time></trkpt><trkpt lat="32.9181235" lon="10.4404404"><ele>248.0</ele><time>2026-04-26T15:10:59.581Z</time></trkpt><trkpt lat="32.9182345" lon="10.4403844"><ele>248.0</ele><time>2026-04-26T15:11:00.579Z</time></trkpt><trkpt lat="32.9183469" lon="10.4403324"><ele>248.0</ele><time>2026-04-26T15:11:01.577Z</time></trkpt><trkpt lat="32.9184588" lon="10.4402813"><ele>248.0</ele><time>2026-04-26T15:11:02.579Z</time></trkpt><trkpt lat="32.9185668" lon="10.4402242"><ele>248.0</ele><time>2026-04-26T15:11:03.588Z</time></trkpt><trkpt lat="32.9186767" lon="10.4401691"><ele>247.25</ele><time>2026-04-26T15:11:04.578Z</time></trkpt><trkpt lat="32.918796" lon="10.4401084"><ele>246.5</ele><time>2026-04-26T15:11:05.573Z</time></trkpt><trkpt lat="32.9189142" lon="10.4400567"><ele>245.75</ele><time>2026-04-26T15:11:06.574Z</time></trkpt><trkpt lat="32.9190309" lon="10.4399991"><ele>245.0</ele><time>2026-04-26T15:11:07.58Z</time></trkpt><trkpt lat="32.9191465" lon="10.4399393"><ele>247.25</ele><time>2026-04-26T15:11:08.597Z</time></trkpt><trkpt lat="32.919264" lon="10.4398849"><ele>249.5</ele><time>2026-04-26T15:11:09.582Z</time></trkpt><trkpt lat="32.9193836" lon="10.4398295"><ele>251.75</ele><time>2026-04-26T15:11:10.577Z</time></trkpt><trkpt lat="32.9195023" lon="10.4397745"><ele>254.0</ele><time>2026-04-26T15:11:11.58Z</time></trkpt><trkpt lat="32.9196194" lon="10.4397189"><ele>254.0</ele><time>2026-04-26T15:11:12.572Z</time></trkpt><trkpt lat="32.9197351" lon="10.439665"><ele>254.0</ele><time>2026-04-26T15:11:13.589Z</time></trkpt><trkpt lat="32.9198488" lon="10.4396094"><ele>254.0</ele><time>2026-04-26T15:11:14.582Z</time></trkpt><trkpt lat="32.9199638" lon="10.4395508"><ele>254.0</ele><time>2026-04-26T15:11:15.579Z</time></trkpt><trkpt lat="32.9200739" lon="10.4394936"><ele>251.75</ele><time>2026-04-26T15:11:16.583Z</time></trkpt><trkpt lat="32.9201837" lon="10.4394372"><ele>249.5</ele><time>2026-04-26T15:11:17.579Z</time></trkpt><trkpt lat="32.9202897" lon="10.4393808"><ele>247.25</ele><time>2026-04-26T15:11:18.566Z</time></trkpt><trkpt lat="32.9203994" lon="10.4393219"><ele>245.0</ele><time>2026-04-26T15:11:19.57Z</time></trkpt><trkpt lat="32.9205107" lon="10.4392647"><ele>245.0</ele><time>2026-04-26T15:11:20.572Z</time></trkpt><trkpt lat="32.9206204" lon="10.4392065"><ele>245.0</ele><time>2026-04-26T15:11:21.585Z</time></trkpt><trkpt lat="32.9207243" lon="10.439158"><ele>245.0</ele><time>2026-04-26T15:11:22.577Z</time></trkpt><trkpt lat="32.9208254" lon="10.4391085"><ele>245.0</ele><time>2026-04-26T15:11:23.57Z</time></trkpt><trkpt lat="32.9209222" lon="10.4390662"><ele>245.0</ele><time>2026-04-26T15:11:24.583Z</time></trkpt><trkpt lat="32.9210146" lon="10.4390221"><ele>245.0</ele><time>2026-04-26T15:11:25.571Z</time></trkpt><trkpt lat="32.9211054" lon="10.4389716"><ele>245.0</ele><time>2026-04-26T15:11:26.58Z</time></trkpt><trkpt lat="32.9212077" lon="10.4389236"><ele>245.0</ele><time>2026-04-26T15:11:27.581Z</time></trkpt><trkpt lat="32.921307" lon="10.4388781"><ele>245.0</ele><time>2026-04-26T15:11:28.572Z</time></trkpt><trkpt lat="32.9214112" lon="10.438831"><ele>245.0</ele><time>2026-04-26T15:11:29.574Z</time></trkpt><trkpt lat="32.9215126" lon="10.4387775"><ele>244.75</ele><time>2026-04-26T15:11:30.612Z</time></trkpt><trkpt lat="32.9216195" lon="10.4387306"><ele>244.5</ele><time>2026-04-26T15:11:31.57Z</time></trkpt><trkpt lat="32.9217235" lon="10.438677"><ele>244.25</ele><time>2026-04-26T15:11:32.576Z</time></trkpt><trkpt lat="32.9218307" lon="10.4386238"><ele>244.0</ele><time>2026-04-26T15:11:33.589Z</time></trkpt><trkpt lat="32.9219359" lon="10.4385824"><ele>243.79999999999998</ele><time>2026-04-26T15:11:34.583Z</time></trkpt><trkpt lat="32.9220353" lon="10.4385433"><ele>243.59999999999997</ele><time>2026-04-26T15:11:35.569Z</time></trkpt><trkpt lat="32.9221354" lon="10.438491"><ele>243.4</ele><time>2026-04-26T15:11:36.583Z</time></trkpt><trkpt lat="32.9222362" lon="10.4384401"><ele>243.2</ele><time>2026-04-26T15:11:37.582Z</time></trkpt><trkpt lat="32.9223278" lon="10.4383992"><ele>243.0</ele><time>2026-04-26T15:11:38.571Z</time></trkpt><trkpt lat="32.922405" lon="10.4383496"><ele>243.0</ele><time>2026-04-26T15:11:39.573Z</time></trkpt><trkpt lat="32.9224801" lon="10.4383065"><ele>243.0</ele><time>2026-04-26T15:11:40.575Z</time></trkpt><trkpt lat="32.9225566" lon="10.4382689"><ele>243.0</ele><time>2026-04-26T15:11:41.57Z</time></trkpt><trkpt lat="32.9226421" lon="10.4382467"><ele>243.0</ele><time>2026-04-26T15:11:42.581Z</time></trkpt><trkpt lat="32.9227338" lon="10.4382417"><ele>243.0</ele><time>2026-04-26T15:11:43.582Z</time></trkpt><trkpt lat="32.9228212" lon="10.4382535"><ele>243.0</ele><time>2026-04-26T15:11:44.583Z</time></trkpt><trkpt lat="32.922904" lon="10.4382764"><ele>242.60000000000002</ele><time>2026-04-26T15:11:45.582Z</time></trkpt><trkpt lat="32.9229909" lon="10.4383248"><ele>242.20000000000002</ele><time>2026-04-26T15:11:46.579Z</time></trkpt><trkpt lat="32.9230794" lon="10.4383781"><ele>241.8</ele><time>2026-04-26T15:11:47.573Z</time></trkpt><trkpt lat="32.9231601" lon="10.4384345"><ele>241.4</ele><time>2026-04-26T15:11:48.581Z</time></trkpt><trkpt lat="32.9232472" lon="10.4384894"><ele>241.0</ele><time>2026-04-26T15:11:49.572Z</time></trkpt><trkpt lat="32.923333" lon="10.438542"><ele>241.20000000000002</ele><time>2026-04-26T15:11:50.565Z</time></trkpt><trkpt lat="32.9234175" lon="10.4385971"><ele>241.40000000000003</ele><time>2026-04-26T15:11:51.578Z</time></trkpt><trkpt lat="32.9235008" lon="10.4386559"><ele>241.6</ele><time>2026-04-26T15:11:52.578Z</time></trkpt><trkpt lat="32.9235837" lon="10.4387168"><ele>241.8</ele><time>2026-04-26T15:11:53.576Z</time></trkpt><trkpt lat="32.9236684" lon="10.4387792"><ele>242.0</ele><time>2026-04-26T15:11:54.585Z</time></trkpt><trkpt lat="32.9237534" lon="10.4388412"><ele>242.0</ele><time>2026-04-26T15:11:55.572Z</time></trkpt><trkpt lat="32.9238402" lon="10.4389005"><ele>242.0</ele><time>2026-04-26T15:11:56.57Z</time></trkpt><trkpt lat="32.9239284" lon="10.4389558"><ele>242.0</ele><time>2026-04-26T15:11:57.571Z</time></trkpt><trkpt lat="32.9240204" lon="10.4390133"><ele>242.0</ele><time>2026-04-26T15:11:58.57Z</time></trkpt><trkpt lat="32.9241064" lon="10.4390714"><ele>242.0</ele><time>2026-04-26T15:11:59.58Z</time></trkpt><trkpt lat="32.9241913" lon="10.4391281"><ele>242.00000000000003</ele><time>2026-04-26T15:12:00.579Z</time></trkpt><trkpt lat="32.9242768" lon="10.4391852"><ele>242.0</ele><time>2026-04-26T15:12:01.568Z</time></trkpt><trkpt lat="32.9243543" lon="10.4392335"><ele>242.0</ele><time>2026-04-26T15:12:02.566Z</time></trkpt><trkpt lat="32.9244197" lon="10.4392822"><ele>242.0</ele><time>2026-04-26T15:12:03.582Z</time></trkpt><trkpt lat="32.9244742" lon="10.4393209"><ele>242.00000000000003</ele><time>2026-04-26T15:12:04.576Z</time></trkpt><trkpt lat="32.9245409" lon="10.4393758"><ele>242.0</ele><time>2026-04-26T15:12:06.574Z</time></trkpt><trkpt lat="32.9245901" lon="10.4394326"><ele>242.00000000000003</ele><time>2026-04-26T15:12:10.58Z</time></trkpt><trkpt lat="32.9246424" lon="10.4394764"><ele>242.0</ele><time>2026-04-26T15:21:39.611Z</time></trkpt><trkpt lat="32.9247257" lon="10.4394985"><ele>242.0</ele><time>2026-04-26T15:21:44.591Z</time></trkpt><trkpt lat="32.9248093" lon="10.4395271"><ele>242.0</ele><time>2026-04-26T15:21:47.625Z</time></trkpt><trkpt lat="32.9249083" lon="10.4395819"><ele>242.00000000000003</ele><time>2026-04-26T15:21:49.622Z</time></trkpt><trkpt lat="32.9249645" lon="10.4396258"><ele>242.0</ele><time>2026-04-26T15:21:50.631Z</time></trkpt><trkpt lat="32.9250194" lon="10.4396643"><ele>241.8</ele><time>2026-04-26T15:21:51.591Z</time></trkpt><trkpt lat="32.9250709" lon="10.4397114"><ele>241.6</ele><time>2026-04-26T15:21:52.611Z</time></trkpt><trkpt lat="32.9251131" lon="10.439772"><ele>241.40000000000003</ele><time>2026-04-26T15:21:53.602Z</time></trkpt><trkpt lat="32.9251813" lon="10.4398954"><ele>241.20000000000002</ele><time>2026-04-26T15:21:55.635Z</time></trkpt><trkpt lat="32.9252462" lon="10.4400062"><ele>241.0</ele><time>2026-04-26T15:21:57.621Z</time></trkpt><trkpt lat="32.9253324" lon="10.440074"><ele>241.0</ele><time>2026-04-26T15:21:59.586Z</time></trkpt><trkpt lat="32.9254026" lon="10.4400428"><ele>241.00000000000003</ele><time>2026-04-26T15:22:01.598Z</time></trkpt><trkpt lat="32.925412" lon="10.4399426"><ele>241.00000000000003</ele><time>2026-04-26T15:22:03.633Z</time></trkpt><trkpt lat="32.9253306" lon="10.439839"><ele>241.0</ele><time>2026-04-26T15:22:05.604Z</time></trkpt><trkpt lat="32.92524" lon="10.4397454"><ele>241.0</ele><time>2026-04-26T15:22:07.625Z</time></trkpt><trkpt lat="32.925164" lon="10.4396544"><ele>241.25</ele><time>2026-04-26T15:22:09.578Z</time></trkpt><trkpt lat="32.925088" lon="10.4395356"><ele>241.5</ele><time>2026-04-26T15:22:11.57Z</time></trkpt><trkpt lat="32.9250459" lon="10.439476"><ele>241.75</ele><time>2026-04-26T15:22:12.581Z</time></trkpt><trkpt lat="32.9249287" lon="10.439297"><ele>242.0</ele><time>2026-04-26T15:22:18.574Z</time></trkpt><trkpt lat="32.9248556" lon="10.4392163"><ele>242.00000000000003</ele><time>2026-04-26T15:22:25.56Z</time></trkpt><trkpt lat="32.9247715" lon="10.4391087"><ele>242.0</ele><time>2026-04-26T15:22:27.587Z</time></trkpt><trkpt lat="32.9247254" lon="10.4390494"><ele>242.0</ele><time>2026-04-26T15:22:28.57Z</time></trkpt><trkpt lat="32.9246708" lon="10.4389831"><ele>242.0</ele><time>2026-04-26T15:22:29.589Z</time></trkpt><trkpt lat="32.9246104" lon="10.4389085"><ele>242.00000000000003</ele><time>2026-04-26T15:22:30.606Z</time></trkpt><trkpt lat="32.9245482" lon="10.4388376"><ele>242.0</ele><time>2026-04-26T15:22:31.615Z</time></trkpt><trkpt lat="32.9244913" lon="10.4387646"><ele>241.6</ele><time>2026-04-26T15:22:32.601Z</time></trkpt><trkpt lat="32.9244237" lon="10.4386942"><ele>241.2</ele><time>2026-04-26T15:22:33.579Z</time></trkpt><trkpt lat="32.9243534" lon="10.4386165"><ele>240.8</ele><time>2026-04-26T15:22:34.586Z</time></trkpt><trkpt lat="32.9242821" lon="10.4385341"><ele>240.4</ele><time>2026-04-26T15:22:35.623Z</time></trkpt><trkpt lat="32.9242083" lon="10.4384599"><ele>240.0</ele><time>2026-04-26T15:22:36.569Z</time></trkpt><trkpt lat="32.924055" lon="10.4383003"><ele>240.0</ele><time>2026-04-26T15:22:38.582Z</time></trkpt><trkpt lat="32.9239753" lon="10.4382227"><ele>240.0</ele><time>2026-04-26T15:22:39.625Z</time></trkpt><trkpt lat="32.9238998" lon="10.4381471"><ele>240.0</ele><time>2026-04-26T15:22:40.606Z</time></trkpt><trkpt lat="32.9238223" lon="10.4380719"><ele>240.0</ele><time>2026-04-26T15:22:41.612Z</time></trkpt><trkpt lat="32.9237479" lon="10.4379998"><ele>240.0</ele><time>2026-04-26T15:22:42.611Z</time></trkpt><trkpt lat="32.9235892" lon="10.4378591"><ele>240.0</ele><time>2026-04-26T15:22:44.57Z</time></trkpt><trkpt lat="32.9235118" lon="10.437791"><ele>240.0</ele><time>2026-04-26T15:22:45.562Z</time></trkpt><trkpt lat="32.9234316" lon="10.4377219"><ele>240.0</ele><time>2026-04-26T15:22:46.582Z</time></trkpt><trkpt lat="32.9233564" lon="10.4376572"><ele>240.0</ele><time>2026-04-26T15:22:47.577Z</time></trkpt><trkpt lat="32.9232775" lon="10.4375933"><ele>240.0</ele><time>2026-04-26T15:22:48.576Z</time></trkpt><trkpt lat="32.9231941" lon="10.4375322"><ele>240.4</ele><time>2026-04-26T15:22:49.584Z</time></trkpt><trkpt lat="32.9231082" lon="10.4374747"><ele>240.8</ele><time>2026-04-26T15:22:50.603Z</time></trkpt><trkpt lat="32.9230258" lon="10.4374204"><ele>241.2</ele><time>2026-04-26T15:22:51.582Z</time></trkpt><trkpt lat="32.9229423" lon="10.437366"><ele>241.6</ele><time>2026-04-26T15:22:52.581Z</time></trkpt><trkpt lat="32.9228536" lon="10.4373112"><ele>242.0</ele><time>2026-04-26T15:22:53.59Z</time></trkpt><trkpt lat="32.9227699" lon="10.4372445"><ele>242.0</ele><time>2026-04-26T15:22:54.601Z</time></trkpt><trkpt lat="32.922678" lon="10.4371802"><ele>242.0</ele><time>2026-04-26T15:22:55.599Z</time></trkpt><trkpt lat="32.9225923" lon="10.4371189"><ele>242.0</ele><time>2026-04-26T15:22:56.606Z</time></trkpt><trkpt lat="32.9225078" lon="10.4370518"><ele>242.0</ele><time>2026-04-26T15:22:57.588Z</time></trkpt><trkpt lat="32.9224236" lon="10.4369886"><ele>242.0</ele><time>2026-04-26T15:22:58.608Z</time></trkpt><trkpt lat="32.9223304" lon="10.4369326"><ele>242.6</ele><time>2026-04-26T15:22:59.596Z</time></trkpt><trkpt lat="32.9222441" lon="10.4368808"><ele>243.2</ele><time>2026-04-26T15:23:00.579Z</time></trkpt><trkpt lat="32.9221672" lon="10.4368272"><ele>243.8</ele><time>2026-04-26T15:23:01.593Z</time></trkpt><trkpt lat="32.9220908" lon="10.4367679"><ele>244.4</ele><time>2026-04-26T15:23:02.599Z</time></trkpt><trkpt lat="32.9220186" lon="10.436704"><ele>245.0</ele><time>2026-04-26T15:23:03.613Z</time></trkpt><trkpt lat="32.921943" lon="10.4366361"><ele>245.0</ele><time>2026-04-26T15:23:04.599Z</time></trkpt><trkpt lat="32.9218713" lon="10.4365686"><ele>245.0</ele><time>2026-04-26T15:23:05.604Z</time></trkpt><trkpt lat="32.9218004" lon="10.4365009"><ele>245.0</ele><time>2026-04-26T15:23:06.608Z</time></trkpt><trkpt lat="32.9217305" lon="10.4364298"><ele>245.0</ele><time>2026-04-26T15:23:07.599Z</time></trkpt><trkpt lat="32.9216591" lon="10.4363663"><ele>245.0</ele><time>2026-04-26T15:23:08.607Z</time></trkpt><trkpt lat="32.9215837" lon="10.4363034"><ele>245.4</ele><time>2026-04-26T15:23:09.59Z</time></trkpt><trkpt lat="32.9215075" lon="10.4362342"><ele>245.8</ele><time>2026-04-26T15:23:10.586Z</time></trkpt><trkpt lat="32.9214306" lon="10.4361643"><ele>246.2</ele><time>2026-04-26T15:23:11.59Z</time></trkpt><trkpt lat="32.9213534" lon="10.4360901"><ele>246.6</ele><time>2026-04-26T15:23:12.589Z</time></trkpt><trkpt lat="32.9212784" lon="10.4360182"><ele>247.0</ele><time>2026-04-26T15:23:13.577Z</time></trkpt><trkpt lat="32.9212031" lon="10.4359491"><ele>247.0</ele><time>2026-04-26T15:23:14.614Z</time></trkpt><trkpt lat="32.921121" lon="10.4358758"><ele>247.0</ele><time>2026-04-26T15:23:15.585Z</time></trkpt><trkpt lat="32.9210424" lon="10.4358036"><ele>247.0</ele><time>2026-04-26T15:23:16.596Z</time></trkpt><trkpt lat="32.9209685" lon="10.4357309"><ele>247.0</ele><time>2026-04-26T15:23:17.601Z</time></trkpt><trkpt lat="32.9208927" lon="10.4356593"><ele>247.0</ele><time>2026-04-26T15:23:18.589Z</time></trkpt><trkpt lat="32.9208148" lon="10.435586"><ele>247.0</ele><time>2026-04-26T15:23:19.585Z</time></trkpt><trkpt lat="32.9207331" lon="10.4355062"><ele>247.0</ele><time>2026-04-26T15:23:20.601Z</time></trkpt><trkpt lat="32.9206528" lon="10.4354305"><ele>247.0</ele><time>2026-04-26T15:23:21.57Z</time></trkpt><trkpt lat="32.920577" lon="10.4353584"><ele>247.0</ele><time>2026-04-26T15:23:22.607Z</time></trkpt><trkpt lat="32.9205005" lon="10.4352844"><ele>247.0</ele><time>2026-04-26T15:23:23.607Z</time></trkpt><trkpt lat="32.9204307" lon="10.4352097"><ele>246.99999999999997</ele><time>2026-04-26T15:23:24.604Z</time></trkpt><trkpt lat="32.9203634" lon="10.4351377"><ele>247.0</ele><time>2026-04-26T15:23:25.596Z</time></trkpt><trkpt lat="32.9203025" lon="10.4350717"><ele>247.0</ele><time>2026-04-26T15:23:26.601Z</time></trkpt><trkpt lat="32.9202448" lon="10.4350126"><ele>247.0</ele><time>2026-04-26T15:23:27.606Z</time></trkpt><trkpt lat="32.9201825" lon="10.4349561"><ele>246.99999999999997</ele><time>2026-04-26T15:23:28.6Z</time></trkpt><trkpt lat="32.9201214" lon="10.4348936"><ele>247.0</ele><time>2026-04-26T15:23:29.613Z</time></trkpt><trkpt lat="32.920056" lon="10.4348165"><ele>247.2</ele><time>2026-04-26T15:23:30.601Z</time></trkpt><trkpt lat="32.9199841" lon="10.4347372"><ele>247.39999999999998</ele><time>2026-04-26T15:23:31.586Z</time></trkpt><trkpt lat="32.919916" lon="10.4346589"><ele>247.60000000000002</ele><time>2026-04-26T15:23:32.615Z</time></trkpt><trkpt lat="32.9198499" lon="10.4345733"><ele>247.8</ele><time>2026-04-26T15:23:33.598Z</time></trkpt><trkpt lat="32.9197847" lon="10.4344775"><ele>248.0</ele><time>2026-04-26T15:23:34.596Z</time></trkpt><trkpt lat="32.9197214" lon="10.4343844"><ele>248.0</ele><time>2026-04-26T15:23:35.618Z</time></trkpt><trkpt lat="32.9196562" lon="10.4342915"><ele>248.0</ele><time>2026-04-26T15:23:36.606Z</time></trkpt><trkpt lat="32.9195932" lon="10.4341982"><ele>248.0</ele><time>2026-04-26T15:23:37.587Z</time></trkpt><trkpt lat="32.9195349" lon="10.4341012"><ele>248.0</ele><time>2026-04-26T15:23:38.578Z</time></trkpt><trkpt lat="32.9194821" lon="10.4340069"><ele>248.0</ele><time>2026-04-26T15:23:39.578Z</time></trkpt><trkpt lat="32.9193861" lon="10.433832"><ele>247.83333333333334</ele><time>2026-04-26T15:23:41.601Z</time></trkpt><trkpt lat="32.9193429" lon="10.4337464"><ele>247.66666666666669</ele><time>2026-04-26T15:23:42.6Z</time></trkpt><trkpt lat="32.9192992" lon="10.4336641"><ele>247.5</ele><time>2026-04-26T15:23:43.598Z</time></trkpt><trkpt lat="32.9192511" lon="10.4335796"><ele>247.33333333333331</ele><time>2026-04-26T15:23:44.582Z</time></trkpt><trkpt lat="32.9192025" lon="10.4334876"><ele>247.16666666666666</ele><time>2026-04-26T15:23:45.606Z</time></trkpt><trkpt lat="32.9191569" lon="10.4334007"><ele>247.0</ele><time>2026-04-26T15:23:46.61Z</time></trkpt><trkpt lat="32.919112" lon="10.4333181"><ele>246.99999999999997</ele><time>2026-04-26T15:23:47.596Z</time></trkpt><trkpt lat="32.9190765" lon="10.4332307"><ele>247.0</ele><time>2026-04-26T15:23:48.583Z</time></trkpt><trkpt lat="32.9190496" lon="10.4331544"><ele>247.0</ele><time>2026-04-26T15:23:49.611Z</time></trkpt><trkpt lat="32.9190176" lon="10.4330717"><ele>247.0</ele><time>2026-04-26T15:23:51.567Z</time></trkpt><trkpt lat="32.9189961" lon="10.4330011"><ele>246.99999999999997</ele><time>2026-04-26T15:23:53.589Z</time></trkpt><trkpt lat="32.918948" lon="10.4328901"><ele>247.0</ele><time>2026-04-26T15:23:55.598Z</time></trkpt><trkpt lat="32.9189186" lon="10.432814"><ele>246.99999999999997</ele><time>2026-04-26T15:23:56.605Z</time></trkpt><trkpt lat="32.9188959" lon="10.4327317"><ele>247.0</ele><time>2026-04-26T15:23:57.597Z</time></trkpt><trkpt lat="32.9188718" lon="10.4326525"><ele>247.0</ele><time>2026-04-26T15:23:58.599Z</time></trkpt><trkpt lat="32.9188471" lon="10.4325684"><ele>247.0</ele><time>2026-04-26T15:23:59.588Z</time></trkpt><trkpt lat="32.9188184" lon="10.4324799"><ele>246.99999999999997</ele><time>2026-04-26T15:24:00.59Z</time></trkpt><trkpt lat="32.9187898" lon="10.4323819"><ele>247.0</ele><time>2026-04-26T15:24:01.595Z</time></trkpt><trkpt lat="32.9187603" lon="10.4322849"><ele>246.99999999999997</ele><time>2026-04-26T15:24:02.595Z</time></trkpt><trkpt lat="32.9187305" lon="10.432187"><ele>247.0</ele><time>2026-04-26T15:24:03.595Z</time></trkpt><trkpt lat="32.9186994" lon="10.4320983"><ele>247.0</ele><time>2026-04-26T15:24:04.594Z</time></trkpt><trkpt lat="32.9186658" lon="10.4320034"><ele>247.0</ele><time>2026-04-26T15:24:05.616Z</time></trkpt><trkpt lat="32.918637" lon="10.4319211"><ele>246.99999999999997</ele><time>2026-04-26T15:24:06.601Z</time></trkpt><trkpt lat="32.9186107" lon="10.4318501"><ele>247.0</ele><time>2026-04-26T15:24:07.602Z</time></trkpt><trkpt lat="32.9185575" lon="10.4317141"><ele>247.2</ele><time>2026-04-26T15:24:09.595Z</time></trkpt><trkpt lat="32.9185271" lon="10.4316325"><ele>247.39999999999998</ele><time>2026-04-26T15:24:10.589Z</time></trkpt><trkpt lat="32.9184854" lon="10.4315388"><ele>247.60000000000002</ele><time>2026-04-26T15:24:11.595Z</time></trkpt><trkpt lat="32.9184407" lon="10.4314378"><ele>247.8</ele><time>2026-04-26T15:24:12.573Z</time></trkpt><trkpt lat="32.9183912" lon="10.4313216"><ele>248.0</ele><time>2026-04-26T15:24:13.593Z</time></trkpt><trkpt lat="32.9183409" lon="10.4312088"><ele>248.75</ele><time>2026-04-26T15:24:14.593Z</time></trkpt><trkpt lat="32.9182845" lon="10.4311011"><ele>249.5</ele><time>2026-04-26T15:24:15.599Z</time></trkpt><trkpt lat="32.9182293" lon="10.4309873"><ele>250.25</ele><time>2026-04-26T15:24:16.584Z</time></trkpt><trkpt lat="32.9181645" lon="10.4308649"><ele>251.0</ele><time>2026-04-26T15:24:17.604Z</time></trkpt><trkpt lat="32.9180888" lon="10.4307379"><ele>251.0</ele><time>2026-04-26T15:24:18.615Z</time></trkpt><trkpt lat="32.9180126" lon="10.4305955"><ele>251.0</ele><time>2026-04-26T15:24:19.586Z</time></trkpt><trkpt lat="32.9179419" lon="10.4304635"><ele>251.0</ele><time>2026-04-26T15:24:20.615Z</time></trkpt><trkpt lat="32.9178806" lon="10.430341"><ele>251.0</ele><time>2026-04-26T15:24:21.587Z</time></trkpt><trkpt lat="32.9178192" lon="10.4302174"><ele>251.25</ele><time>2026-04-26T15:24:22.597Z</time></trkpt><trkpt lat="32.9177579" lon="10.4300927"><ele>251.5</ele><time>2026-04-26T15:24:23.604Z</time></trkpt><trkpt lat="32.9176925" lon="10.4299648"><ele>251.75</ele><time>2026-04-26T15:24:24.591Z</time></trkpt><trkpt lat="32.9176395" lon="10.4298334"><ele>252.0</ele><time>2026-04-26T15:24:25.602Z</time></trkpt><trkpt lat="32.9175832" lon="10.4297085"><ele>252.75</ele><time>2026-04-26T15:24:26.592Z</time></trkpt><trkpt lat="32.9175231" lon="10.4295928"><ele>253.5</ele><time>2026-04-26T15:24:27.605Z</time></trkpt><trkpt lat="32.9174646" lon="10.429479"><ele>254.25</ele><time>2026-04-26T15:24:28.603Z</time></trkpt><trkpt lat="32.9174096" lon="10.4293616"><ele>255.0</ele><time>2026-04-26T15:24:29.602Z</time></trkpt><trkpt lat="32.9173619" lon="10.4292352"><ele>255.0</ele><time>2026-04-26T15:24:30.605Z</time></trkpt><trkpt lat="32.9173159" lon="10.429113"><ele>255.0</ele><time>2026-04-26T15:24:31.598Z</time></trkpt><trkpt lat="32.9172676" lon="10.4289957"><ele>255.0</ele><time>2026-04-26T15:24:32.595Z</time></trkpt><trkpt lat="32.9172255" lon="10.4288817"><ele>255.0</ele><time>2026-04-26T15:24:33.611Z</time></trkpt><trkpt lat="32.9171853" lon="10.4287679"><ele>255.0</ele><time>2026-04-26T15:24:34.59Z</time></trkpt><trkpt lat="32.9171429" lon="10.428659"><ele>254.8</ele><time>2026-04-26T15:24:35.605Z</time></trkpt><trkpt lat="32.9170956" lon="10.4285573"><ele>254.6</ele><time>2026-04-26T15:24:36.588Z</time></trkpt><trkpt lat="32.9170493" lon="10.428457"><ele>254.39999999999998</ele><time>2026-04-26T15:24:37.602Z</time></trkpt><trkpt lat="32.9170058" lon="10.4283516"><ele>254.2</ele><time>2026-04-26T15:24:38.596Z</time></trkpt><trkpt lat="32.9169578" lon="10.428247"><ele>254.0</ele><time>2026-04-26T15:24:39.601Z</time></trkpt><trkpt lat="32.9169159" lon="10.4281349"><ele>254.0</ele><time>2026-04-26T15:24:40.599Z</time></trkpt><trkpt lat="32.9168673" lon="10.4280248"><ele>253.99999999999997</ele><time>2026-04-26T15:24:41.592Z</time></trkpt><trkpt lat="32.9168108" lon="10.4279212"><ele>253.99999999999997</ele><time>2026-04-26T15:24:42.588Z</time></trkpt><trkpt lat="32.9167489" lon="10.4278119"><ele>254.0</ele><time>2026-04-26T15:24:43.596Z</time></trkpt><trkpt lat="32.9166797" lon="10.4277098"><ele>254.0</ele><time>2026-04-26T15:24:44.59Z</time></trkpt><trkpt lat="32.9166013" lon="10.427604"><ele>254.0</ele><time>2026-04-26T15:24:45.595Z</time></trkpt><trkpt lat="32.916526" lon="10.4274986"><ele>254.0</ele><time>2026-04-26T15:24:46.581Z</time></trkpt><trkpt lat="32.91645" lon="10.4273926"><ele>254.0</ele><time>2026-04-26T15:24:47.619Z</time></trkpt><trkpt lat="32.9163689" lon="10.4272889"><ele>254.0</ele><time>2026-04-26T15:24:48.593Z</time></trkpt><trkpt lat="32.9162843" lon="10.427187"><ele>253.25</ele><time>2026-04-26T15:24:49.596Z</time></trkpt><trkpt lat="32.916205" lon="10.4270891"><ele>252.5</ele><time>2026-04-26T15:24:50.57Z</time></trkpt><trkpt lat="32.9161223" lon="10.4269858"><ele>251.75</ele><time>2026-04-26T15:24:51.592Z</time></trkpt><trkpt lat="32.9160377" lon="10.4268881"><ele>251.0</ele><time>2026-04-26T15:24:52.599Z</time></trkpt><trkpt lat="32.9159503" lon="10.4267865"><ele>251.25</ele><time>2026-04-26T15:24:53.593Z</time></trkpt><trkpt lat="32.915859" lon="10.4266967"><ele>251.5</ele><time>2026-04-26T15:24:54.598Z</time></trkpt><trkpt lat="32.9157631" lon="10.4266057"><ele>251.75</ele><time>2026-04-26T15:24:55.585Z</time></trkpt><trkpt lat="32.9156626" lon="10.4265187"><ele>252.0</ele><time>2026-04-26T15:24:56.597Z</time></trkpt><trkpt lat="32.91556" lon="10.4264302"><ele>252.0</ele><time>2026-04-26T15:24:57.623Z</time></trkpt><trkpt lat="32.9154574" lon="10.4263453"><ele>252.0</ele><time>2026-04-26T15:24:58.586Z</time></trkpt><trkpt lat="32.9153547" lon="10.4262597"><ele>252.0</ele><time>2026-04-26T15:24:59.624Z</time></trkpt><trkpt lat="32.9152484" lon="10.4261837"><ele>252.0</ele><time>2026-04-26T15:25:00.606Z</time></trkpt><trkpt lat="32.9151438" lon="10.4261072"><ele>251.75</ele><time>2026-04-26T15:25:01.6Z</time></trkpt><trkpt lat="32.9150335" lon="10.4260302"><ele>251.5</ele><time>2026-04-26T15:25:02.597Z</time></trkpt><trkpt lat="32.9149267" lon="10.4259593"><ele>251.25</ele><time>2026-04-26T15:25:03.603Z</time></trkpt><trkpt lat="32.9148202" lon="10.425893"><ele>251.0</ele><time>2026-04-26T15:25:04.606Z</time></trkpt><trkpt lat="32.9147103" lon="10.4258288"><ele>251.0</ele><time>2026-04-26T15:25:05.591Z</time></trkpt><trkpt lat="32.9146016" lon="10.4257697"><ele>251.0</ele><time>2026-04-26T15:25:06.586Z</time></trkpt><trkpt lat="32.9144881" lon="10.4257127"><ele>251.0</ele><time>2026-04-26T15:25:07.589Z</time></trkpt><trkpt lat="32.9143756" lon="10.4256573"><ele>251.0</ele><time>2026-04-26T15:25:08.594Z</time></trkpt><trkpt lat="32.9142511" lon="10.4255968"><ele>251.0</ele><time>2026-04-26T15:25:09.595Z</time></trkpt><trkpt lat="32.9141257" lon="10.425546"><ele>251.0</ele><time>2026-04-26T15:25:10.603Z</time></trkpt><trkpt lat="32.9139984" lon="10.4255018"><ele>251.0</ele><time>2026-04-26T15:25:11.596Z</time></trkpt><trkpt lat="32.9138674" lon="10.4254657"><ele>251.0</ele><time>2026-04-26T15:25:12.593Z</time></trkpt><trkpt lat="32.9137271" lon="10.4254408"><ele>251.25</ele><time>2026-04-26T15:25:13.593Z</time></trkpt><trkpt lat="32.9135853" lon="10.4254161"><ele>251.5</ele><time>2026-04-26T15:25:14.61Z</time></trkpt><trkpt lat="32.913443" lon="10.4253934"><ele>251.75</ele><time>2026-04-26T15:25:15.581Z</time></trkpt><trkpt lat="32.9133012" lon="10.4253719"><ele>252.0</ele><time>2026-04-26T15:25:16.602Z</time></trkpt><trkpt lat="32.9131552" lon="10.4253504"><ele>252.66666666666669</ele><time>2026-04-26T15:25:17.598Z</time></trkpt><trkpt lat="32.9130041" lon="10.425331"><ele>253.33333333333334</ele><time>2026-04-26T15:25:18.593Z</time></trkpt><trkpt lat="32.9128551" lon="10.4253167"><ele>254.0</ele><time>2026-04-26T15:25:19.598Z</time></trkpt><trkpt lat="32.912704" lon="10.425304"><ele>254.0</ele><time>2026-04-26T15:25:20.592Z</time></trkpt><trkpt lat="32.912555" lon="10.42529"><ele>254.0</ele><time>2026-04-26T15:25:21.615Z</time></trkpt><trkpt lat="32.912405" lon="10.4252766"><ele>254.0</ele><time>2026-04-26T15:25:22.6Z</time></trkpt><trkpt lat="32.9122556" lon="10.4252602"><ele>254.0</ele><time>2026-04-26T15:25:23.607Z</time></trkpt><trkpt lat="32.9121103" lon="10.4252436"><ele>254.0</ele><time>2026-04-26T15:25:24.594Z</time></trkpt><trkpt lat="32.9119625" lon="10.4252252"><ele>254.0</ele><time>2026-04-26T15:25:25.603Z</time></trkpt><trkpt lat="32.9118128" lon="10.4252079"><ele>254.0</ele><time>2026-04-26T15:25:26.588Z</time></trkpt><trkpt lat="32.9116671" lon="10.425186"><ele>254.0</ele><time>2026-04-26T15:25:27.603Z</time></trkpt><trkpt lat="32.9115228" lon="10.4251673"><ele>254.0</ele><time>2026-04-26T15:25:28.607Z</time></trkpt><trkpt lat="32.9113795" lon="10.4251421"><ele>254.0</ele><time>2026-04-26T15:25:29.601Z</time></trkpt><trkpt lat="32.9112435" lon="10.4251188"><ele>254.0</ele><time>2026-04-26T15:25:30.612Z</time></trkpt><trkpt lat="32.9111138" lon="10.4250929"><ele>254.0</ele><time>2026-04-26T15:25:31.613Z</time></trkpt><trkpt lat="32.9109912" lon="10.4250665"><ele>254.0</ele><time>2026-04-26T15:25:32.59Z</time></trkpt><trkpt lat="32.9108797" lon="10.4250393"><ele>254.0</ele><time>2026-04-26T15:25:33.591Z</time></trkpt><trkpt lat="32.9107753" lon="10.4250144"><ele>254.0</ele><time>2026-04-26T15:25:34.617Z</time></trkpt><trkpt lat="32.910669" lon="10.4249896"><ele>254.39999999999998</ele><time>2026-04-26T15:25:35.61Z</time></trkpt><trkpt lat="32.9105623" lon="10.4249639"><ele>254.79999999999998</ele><time>2026-04-26T15:25:36.578Z</time></trkpt><trkpt lat="32.9104539" lon="10.4249434"><ele>255.20000000000002</ele><time>2026-04-26T15:25:37.599Z</time></trkpt><trkpt lat="32.9103462" lon="10.4249203"><ele>255.60000000000002</ele><time>2026-04-26T15:25:38.586Z</time></trkpt><trkpt lat="32.9102389" lon="10.4248954"><ele>256.0</ele><time>2026-04-26T15:25:39.641Z</time></trkpt><trkpt lat="32.9101323" lon="10.4248748"><ele>256.40000000000003</ele><time>2026-04-26T15:25:40.592Z</time></trkpt><trkpt lat="32.9100281" lon="10.4248533"><ele>256.8</ele><time>2026-04-26T15:25:41.604Z</time></trkpt><trkpt lat="32.9099255" lon="10.4248337"><ele>257.20000000000005</ele><time>2026-04-26T15:25:42.589Z</time></trkpt><trkpt lat="32.9098271" lon="10.4248147"><ele>257.6</ele><time>2026-04-26T15:25:43.583Z</time></trkpt><trkpt lat="32.9097318" lon="10.4247945"><ele>258.0</ele><time>2026-04-26T15:25:44.587Z</time></trkpt><trkpt lat="32.9096407" lon="10.4247791"><ele>258.0</ele><time>2026-04-26T15:25:45.578Z</time></trkpt><trkpt lat="32.9095536" lon="10.4247691"><ele>258.0</ele><time>2026-04-26T15:25:46.6Z</time></trkpt><trkpt lat="32.9094773" lon="10.4247577"><ele>258.0</ele><time>2026-04-26T15:25:47.605Z</time></trkpt><trkpt lat="32.9094091" lon="10.424743"><ele>258.0</ele><time>2026-04-26T15:25:48.585Z</time></trkpt><trkpt lat="32.9092969" lon="10.4247208"><ele>258.0</ele><time>2026-04-26T15:25:50.6Z</time></trkpt><trkpt lat="32.9092275" lon="10.4247064"><ele>258.0</ele><time>2026-04-26T15:25:51.604Z</time></trkpt><trkpt lat="32.909155" lon="10.4246914"><ele>258.0</ele><time>2026-04-26T15:25:52.59Z</time></trkpt><trkpt lat="32.9090797" lon="10.4246793"><ele>258.0</ele><time>2026-04-26T15:25:53.587Z</time></trkpt><trkpt lat="32.9089962" lon="10.4246643"><ele>258.0</ele><time>2026-04-26T15:25:54.604Z</time></trkpt><trkpt lat="32.9089018" lon="10.4246492"><ele>258.0</ele><time>2026-04-26T15:25:55.603Z</time></trkpt><trkpt lat="32.9088063" lon="10.4246299"><ele>258.0</ele><time>2026-04-26T15:25:56.582Z</time></trkpt><trkpt lat="32.9087066" lon="10.4246117"><ele>258.0</ele><time>2026-04-26T15:25:57.596Z</time></trkpt><trkpt lat="32.908598" lon="10.4245989"><ele>258.0</ele><time>2026-04-26T15:25:58.617Z</time></trkpt><trkpt lat="32.9084887" lon="10.4245736"><ele>258.0</ele><time>2026-04-26T15:25:59.615Z</time></trkpt><trkpt lat="32.9083779" lon="10.4245405"><ele>258.0</ele><time>2026-04-26T15:26:00.608Z</time></trkpt><trkpt lat="32.9082628" lon="10.4245221"><ele>258.0</ele><time>2026-04-26T15:26:01.596Z</time></trkpt><trkpt lat="32.9081443" lon="10.4245042"><ele>258.0</ele><time>2026-04-26T15:26:02.597Z</time></trkpt><trkpt lat="32.9080242" lon="10.4244742"><ele>258.0</ele><time>2026-04-26T15:26:03.598Z</time></trkpt><trkpt lat="32.9079049" lon="10.424434"><ele>258.0</ele><time>2026-04-26T15:26:04.588Z</time></trkpt><trkpt lat="32.9077869" lon="10.4243721"><ele>258.0</ele><time>2026-04-26T15:26:05.586Z</time></trkpt><trkpt lat="32.9076716" lon="10.4243058"><ele>258.0</ele><time>2026-04-26T15:26:06.587Z</time></trkpt><trkpt lat="32.9075645" lon="10.4242352"><ele>258.0</ele><time>2026-04-26T15:26:07.597Z</time></trkpt><trkpt lat="32.9074612" lon="10.4241536"><ele>258.0</ele><time>2026-04-26T15:26:08.582Z</time></trkpt><trkpt lat="32.9073633" lon="10.4240616"><ele>258.0</ele><time>2026-04-26T15:26:09.591Z</time></trkpt><trkpt lat="32.9072623" lon="10.4239657"><ele>258.0</ele><time>2026-04-26T15:26:10.621Z</time></trkpt><trkpt lat="32.9071641" lon="10.4238621"><ele>258.0</ele><time>2026-04-26T15:26:11.604Z</time></trkpt><trkpt lat="32.9070566" lon="10.4237541"><ele>258.0</ele><time>2026-04-26T15:26:12.598Z</time></trkpt><trkpt lat="32.9069472" lon="10.4236468"><ele>258.75</ele><time>2026-04-26T15:26:13.608Z</time></trkpt><trkpt lat="32.9068372" lon="10.4235405"><ele>259.5</ele><time>2026-04-26T15:26:14.597Z</time></trkpt><trkpt lat="32.9067249" lon="10.4234281"><ele>260.25</ele><time>2026-04-26T15:26:15.596Z</time></trkpt><trkpt lat="32.9066181" lon="10.4233119"><ele>261.0</ele><time>2026-04-26T15:26:16.583Z</time></trkpt><trkpt lat="32.9065121" lon="10.4231854"><ele>261.0</ele><time>2026-04-26T15:26:17.598Z</time></trkpt><trkpt lat="32.9064094" lon="10.4230501"><ele>261.0</ele><time>2026-04-26T15:26:18.596Z</time></trkpt><trkpt lat="32.906311" lon="10.4229127"><ele>261.0</ele><time>2026-04-26T15:26:19.578Z</time></trkpt><trkpt lat="32.906229" lon="10.4227753"><ele>261.0</ele><time>2026-04-26T15:26:20.591Z</time></trkpt><trkpt lat="32.9061626" lon="10.4226579"><ele>261.3333333333333</ele><time>2026-04-26T15:26:21.593Z</time></trkpt><trkpt lat="32.9061028" lon="10.42256"><ele>261.6666666666667</ele><time>2026-04-26T15:26:22.6Z</time></trkpt><trkpt lat="32.9060579" lon="10.4224762"><ele>262.0</ele><time>2026-04-26T15:26:23.594Z</time></trkpt><trkpt lat="32.906019" lon="10.4223972"><ele>262.33333333333337</ele><time>2026-04-26T15:26:24.597Z</time></trkpt><trkpt lat="32.9059839" lon="10.4223187"><ele>262.6666666666667</ele><time>2026-04-26T15:26:25.598Z</time></trkpt><trkpt lat="32.9059416" lon="10.4222172"><ele>263.0</ele><time>2026-04-26T15:26:26.591Z</time></trkpt><trkpt lat="32.9058909" lon="10.4220961"><ele>263.0</ele><time>2026-04-26T15:26:27.602Z</time></trkpt><trkpt lat="32.905844" lon="10.4219538"><ele>263.0</ele><time>2026-04-26T15:26:28.589Z</time></trkpt><trkpt lat="32.9058061" lon="10.4217951"><ele>263.0</ele><time>2026-04-26T15:26:29.588Z</time></trkpt><trkpt lat="32.9057835" lon="10.42161"><ele>263.0</ele><time>2026-04-26T15:26:30.593Z</time></trkpt><trkpt lat="32.905754" lon="10.4214203"><ele>262.6666666666667</ele><time>2026-04-26T15:26:31.596Z</time></trkpt><trkpt lat="32.9057216" lon="10.4212281"><ele>262.3333333333333</ele><time>2026-04-26T15:26:32.61Z</time></trkpt><trkpt lat="32.9056873" lon="10.4210217"><ele>262.0</ele><time>2026-04-26T15:26:33.596Z</time></trkpt><trkpt lat="32.9056504" lon="10.42081"><ele>262.0</ele><time>2026-04-26T15:26:34.602Z</time></trkpt><trkpt lat="32.9056159" lon="10.4205909"><ele>262.0</ele><time>2026-04-26T15:26:35.607Z</time></trkpt><trkpt lat="32.9055789" lon="10.4203726"><ele>262.0</ele><time>2026-04-26T15:26:36.6Z</time></trkpt><trkpt lat="32.9055492" lon="10.4201493"><ele>262.3333333333333</ele><time>2026-04-26T15:26:37.598Z</time></trkpt><trkpt lat="32.9055191" lon="10.4199281"><ele>262.6666666666667</ele><time>2026-04-26T15:26:38.599Z</time></trkpt><trkpt lat="32.9054807" lon="10.4197071"><ele>263.0</ele><time>2026-04-26T15:26:39.6Z</time></trkpt><trkpt lat="32.9054219" lon="10.419495"><ele>263.0</ele><time>2026-04-26T15:26:40.608Z</time></trkpt><trkpt lat="32.9053463" lon="10.419291"><ele>263.0</ele><time>2026-04-26T15:26:41.591Z</time></trkpt><trkpt lat="32.9052612" lon="10.4190906"><ele>263.0</ele><time>2026-04-26T15:26:42.595Z</time></trkpt><trkpt lat="32.9051684" lon="10.4188921"><ele>264.33333333333337</ele><time>2026-04-26T15:26:43.603Z</time></trkpt><trkpt lat="32.9050779" lon="10.4187054"><ele>265.6666666666667</ele><time>2026-04-26T15:26:44.598Z</time></trkpt><trkpt lat="32.9049885" lon="10.4185383"><ele>267.0</ele><time>2026-04-26T15:26:45.604Z</time></trkpt><trkpt lat="32.9049071" lon="10.4183826"><ele>267.0</ele><time>2026-04-26T15:26:46.608Z</time></trkpt><trkpt lat="32.9048349" lon="10.4182368"><ele>267.0</ele><time>2026-04-26T15:26:47.608Z</time></trkpt><trkpt lat="32.9047682" lon="10.4181026"><ele>267.0</ele><time>2026-04-26T15:26:48.605Z</time></trkpt><trkpt lat="32.904704" lon="10.4179804"><ele>267.0</ele><time>2026-04-26T15:26:49.597Z</time></trkpt><trkpt lat="32.9046462" lon="10.4178699"><ele>267.5</ele><time>2026-04-26T15:26:50.602Z</time></trkpt><trkpt lat="32.9045847" lon="10.4177583"><ele>268.0</ele><time>2026-04-26T15:26:51.594Z</time></trkpt><trkpt lat="32.9045262" lon="10.4176442"><ele>268.5</ele><time>2026-04-26T15:26:52.604Z</time></trkpt><trkpt lat="32.9044715" lon="10.4175306"><ele>269.0</ele><time>2026-04-26T15:26:53.608Z</time></trkpt><trkpt lat="32.90441" lon="10.4174026"><ele>269.0</ele><time>2026-04-26T15:26:54.599Z</time></trkpt><trkpt lat="32.9043435" lon="10.4172681"><ele>269.0</ele><time>2026-04-26T15:26:55.601Z</time></trkpt><trkpt lat="32.9042767" lon="10.4171381"><ele>269.0</ele><time>2026-04-26T15:26:56.605Z</time></trkpt><trkpt lat="32.9042078" lon="10.416995"><ele>269.0</ele><time>2026-04-26T15:26:57.611Z</time></trkpt><trkpt lat="32.9041364" lon="10.416847"><ele>269.0</ele><time>2026-04-26T15:26:58.61Z</time></trkpt><trkpt lat="32.9040698" lon="10.4167025"><ele>269.0</ele><time>2026-04-26T15:26:59.602Z</time></trkpt><trkpt lat="32.9040028" lon="10.4165585"><ele>269.0</ele><time>2026-04-26T15:27:00.607Z</time></trkpt><trkpt lat="32.9039385" lon="10.4164238"><ele>269.0</ele><time>2026-04-26T15:27:01.592Z</time></trkpt><trkpt lat="32.9038807" lon="10.4163062"><ele>269.0</ele><time>2026-04-26T15:27:02.585Z</time></trkpt><trkpt lat="32.9038293" lon="10.4161915"><ele>269.0</ele><time>2026-04-26T15:27:03.589Z</time></trkpt><trkpt lat="32.9037833" lon="10.4160927"><ele>269.0</ele><time>2026-04-26T15:27:04.596Z</time></trkpt><trkpt lat="32.9037449" lon="10.4160091"><ele>269.0</ele><time>2026-04-26T15:27:05.597Z</time></trkpt><trkpt lat="32.9037088" lon="10.4159403"><ele>269.0</ele><time>2026-04-26T15:27:06.6Z</time></trkpt><trkpt lat="32.9036655" lon="10.4158617"><ele>269.0</ele><time>2026-04-26T15:27:07.605Z</time></trkpt><trkpt lat="32.9036155" lon="10.4157626"><ele>269.0</ele><time>2026-04-26T15:27:08.596Z</time></trkpt><trkpt lat="32.9035593" lon="10.4156359"><ele>269.0</ele><time>2026-04-26T15:27:09.603Z</time></trkpt><trkpt lat="32.9034932" lon="10.4154951"><ele>269.0</ele><time>2026-04-26T15:27:10.611Z</time></trkpt><trkpt lat="32.9034207" lon="10.415351"><ele>269.0</ele><time>2026-04-26T15:27:11.598Z</time></trkpt><trkpt lat="32.9033438" lon="10.4151922"><ele>269.6666666666667</ele><time>2026-04-26T15:27:12.596Z</time></trkpt><trkpt lat="32.9032635" lon="10.4150323"><ele>270.3333333333333</ele><time>2026-04-26T15:27:13.603Z</time></trkpt><trkpt lat="32.9031837" lon="10.4148668"><ele>271.0</ele><time>2026-04-26T15:27:14.608Z</time></trkpt><trkpt lat="32.9031052" lon="10.4146988"><ele>271.0</ele><time>2026-04-26T15:27:15.596Z</time></trkpt><trkpt lat="32.903028" lon="10.4145268"><ele>271.0</ele><time>2026-04-26T15:27:16.602Z</time></trkpt><trkpt lat="32.9029452" lon="10.4143554"><ele>271.0</ele><time>2026-04-26T15:27:17.598Z</time></trkpt><trkpt lat="32.9028665" lon="10.4141821"><ele>271.0</ele><time>2026-04-26T15:27:18.599Z</time></trkpt><trkpt lat="32.9027977" lon="10.4140125"><ele>271.0</ele><time>2026-04-26T15:27:19.598Z</time></trkpt><trkpt lat="32.9027193" lon="10.413842"><ele>271.0</ele><time>2026-04-26T15:27:20.594Z</time></trkpt><trkpt lat="32.9026442" lon="10.4136717"><ele>271.3333333333333</ele><time>2026-04-26T15:27:21.594Z</time></trkpt><trkpt lat="32.9025667" lon="10.4135005"><ele>271.6666666666667</ele><time>2026-04-26T15:27:22.602Z</time></trkpt><trkpt lat="32.9024906" lon="10.4133304"><ele>272.0</ele><time>2026-04-26T15:27:23.609Z</time></trkpt><trkpt lat="32.902414" lon="10.4131635"><ele>272.0</ele><time>2026-04-26T15:27:24.599Z</time></trkpt><trkpt lat="32.9023349" lon="10.4129966"><ele>272.0</ele><time>2026-04-26T15:27:25.582Z</time></trkpt><trkpt lat="32.9022582" lon="10.4128208"><ele>272.0</ele><time>2026-04-26T15:27:26.6Z</time></trkpt><trkpt lat="32.9021786" lon="10.4126487"><ele>271.6666666666667</ele><time>2026-04-26T15:27:27.599Z</time></trkpt><trkpt lat="32.9020976" lon="10.4124781"><ele>271.3333333333333</ele><time>2026-04-26T15:27:28.602Z</time></trkpt><trkpt lat="32.9020205" lon="10.4123115"><ele>271.0</ele><time>2026-04-26T15:27:29.588Z</time></trkpt><trkpt lat="32.9019491" lon="10.4121527"><ele>271.0</ele><time>2026-04-26T15:27:30.592Z</time></trkpt><trkpt lat="32.9018758" lon="10.4119962"><ele>271.0</ele><time>2026-04-26T15:27:31.605Z</time></trkpt><trkpt lat="32.9018032" lon="10.4118383"><ele>271.0</ele><time>2026-04-26T15:27:32.614Z</time></trkpt><trkpt lat="32.9017309" lon="10.4116875"><ele>271.0</ele><time>2026-04-26T15:27:33.602Z</time></trkpt><trkpt lat="32.9016566" lon="10.4115304"><ele>271.0</ele><time>2026-04-26T15:27:34.604Z</time></trkpt><trkpt lat="32.901577" lon="10.4113654"><ele>271.0</ele><time>2026-04-26T15:27:35.588Z</time></trkpt><trkpt lat="32.9014968" lon="10.4112063"><ele>271.0</ele><time>2026-04-26T15:27:36.596Z</time></trkpt><trkpt lat="32.9014162" lon="10.4110484"><ele>271.0</ele><time>2026-04-26T15:27:37.593Z</time></trkpt><trkpt lat="32.9013372" lon="10.4108925"><ele>271.0</ele><time>2026-04-26T15:27:38.592Z</time></trkpt><trkpt lat="32.9012532" lon="10.4107356"><ele>271.0</ele><time>2026-04-26T15:27:39.587Z</time></trkpt><trkpt lat="32.9011591" lon="10.4105858"><ele>271.3333333333333</ele><time>2026-04-26T15:27:40.599Z</time></trkpt><trkpt lat="32.9010514" lon="10.410448"><ele>271.6666666666667</ele><time>2026-04-26T15:27:41.605Z</time></trkpt><trkpt lat="32.9009262" lon="10.4103246"><ele>272.0</ele><time>2026-04-26T15:27:42.602Z</time></trkpt><trkpt lat="32.9007915" lon="10.4102051"><ele>272.0</ele><time>2026-04-26T15:27:43.582Z</time></trkpt><trkpt lat="32.9006517" lon="10.4100981"><ele>272.0</ele><time>2026-04-26T15:27:44.603Z</time></trkpt><trkpt lat="32.9005056" lon="10.4100015"><ele>272.0</ele><time>2026-04-26T15:27:45.604Z</time></trkpt><trkpt lat="32.9003386" lon="10.4099063"><ele>272.0</ele><time>2026-04-26T15:27:46.594Z</time></trkpt><trkpt lat="32.900163" lon="10.4098114"><ele>272.0</ele><time>2026-04-26T15:27:47.601Z</time></trkpt><trkpt lat="32.8999874" lon="10.4097093"><ele>272.0</ele><time>2026-04-26T15:27:48.601Z</time></trkpt><trkpt lat="32.8998075" lon="10.4096099"><ele>271.33333333333337</ele><time>2026-04-26T15:27:49.608Z</time></trkpt><trkpt lat="32.8996273" lon="10.4094997"><ele>270.6666666666667</ele><time>2026-04-26T15:27:50.61Z</time></trkpt><trkpt lat="32.8994519" lon="10.4093693"><ele>270.0</ele><time>2026-04-26T15:27:51.6Z</time></trkpt><trkpt lat="32.899282" lon="10.4092199"><ele>270.6666666666667</ele><time>2026-04-26T15:27:52.586Z</time></trkpt><trkpt lat="32.8991232" lon="10.4090621"><ele>271.33333333333337</ele><time>2026-04-26T15:27:53.599Z</time></trkpt><trkpt lat="32.8989731" lon="10.4089017"><ele>272.0</ele><time>2026-04-26T15:27:54.593Z</time></trkpt><trkpt lat="32.8988254" lon="10.4087309"><ele>272.0</ele><time>2026-04-26T15:27:55.598Z</time></trkpt><trkpt lat="32.8986798" lon="10.408559"><ele>272.0</ele><time>2026-04-26T15:27:56.599Z</time></trkpt><trkpt lat="32.8985426" lon="10.4083829"><ele>272.0</ele><time>2026-04-26T15:27:57.607Z</time></trkpt><trkpt lat="32.8984126" lon="10.4081926"><ele>272.0</ele><time>2026-04-26T15:27:58.588Z</time></trkpt><trkpt lat="32.8982854" lon="10.4080005"><ele>272.0</ele><time>2026-04-26T15:27:59.605Z</time></trkpt><trkpt lat="32.8981615" lon="10.4078014"><ele>272.0</ele><time>2026-04-26T15:28:00.607Z</time></trkpt><trkpt lat="32.898048" lon="10.4076011"><ele>272.0</ele><time>2026-04-26T15:28:01.623Z</time></trkpt><trkpt lat="32.897936" lon="10.4073997"><ele>272.0</ele><time>2026-04-26T15:28:02.598Z</time></trkpt><trkpt lat="32.8978306" lon="10.4071933"><ele>272.0</ele><time>2026-04-26T15:28:03.609Z</time></trkpt><trkpt lat="32.8977351" lon="10.4069827"><ele>272.33333333333337</ele><time>2026-04-26T15:28:04.599Z</time></trkpt><trkpt lat="32.8976444" lon="10.4067634"><ele>272.6666666666667</ele><time>2026-04-26T15:28:05.589Z</time></trkpt><trkpt lat="32.8975512" lon="10.4065417"><ele>273.0</ele><time>2026-04-26T15:28:06.601Z</time></trkpt><trkpt lat="32.8974501" lon="10.4063255"><ele>274.0</ele><time>2026-04-26T15:28:07.638Z</time></trkpt><trkpt lat="32.8973468" lon="10.4061092"><ele>275.0</ele><time>2026-04-26T15:28:08.592Z</time></trkpt><trkpt lat="32.8972465" lon="10.4058872"><ele>276.0</ele><time>2026-04-26T15:28:09.586Z</time></trkpt><trkpt lat="32.8971481" lon="10.4056714"><ele>276.3333333333333</ele><time>2026-04-26T15:28:10.591Z</time></trkpt><trkpt lat="32.8970513" lon="10.4054577"><ele>276.66666666666663</ele><time>2026-04-26T15:28:11.607Z</time></trkpt><trkpt lat="32.896956" lon="10.4052535"><ele>277.0</ele><time>2026-04-26T15:28:12.589Z</time></trkpt><trkpt lat="32.8968609" lon="10.4050498"><ele>277.0</ele><time>2026-04-26T15:28:13.594Z</time></trkpt><trkpt lat="32.8967632" lon="10.4048429"><ele>277.0</ele><time>2026-04-26T15:28:14.604Z</time></trkpt><trkpt lat="32.8966663" lon="10.4046365"><ele>277.0</ele><time>2026-04-26T15:28:15.6Z</time></trkpt><trkpt lat="32.8965653" lon="10.4044293"><ele>276.3333333333333</ele><time>2026-04-26T15:28:16.611Z</time></trkpt><trkpt lat="32.896461" lon="10.4042288"><ele>275.6666666666667</ele><time>2026-04-26T15:28:17.593Z</time></trkpt><trkpt lat="32.8963519" lon="10.4040276"><ele>275.0</ele><time>2026-04-26T15:28:18.595Z</time></trkpt><trkpt lat="32.8962366" lon="10.4038318"><ele>275.0</ele><time>2026-04-26T15:28:19.599Z</time></trkpt><trkpt lat="32.8961197" lon="10.403637"><ele>275.0</ele><time>2026-04-26T15:28:20.596Z</time></trkpt><trkpt lat="32.8960058" lon="10.4034368"><ele>275.0</ele><time>2026-04-26T15:28:21.601Z</time></trkpt><trkpt lat="32.8958911" lon="10.4032453"><ele>275.0</ele><time>2026-04-26T15:28:22.598Z</time></trkpt><trkpt lat="32.8957754" lon="10.4030464"><ele>275.0</ele><time>2026-04-26T15:28:23.588Z</time></trkpt><trkpt lat="32.8956653" lon="10.4028507"><ele>275.0</ele><time>2026-04-26T15:28:24.615Z</time></trkpt><trkpt lat="32.8955514" lon="10.4026562"><ele>275.0</ele><time>2026-04-26T15:28:25.595Z</time></trkpt><trkpt lat="32.8954387" lon="10.4024574"><ele>275.0</ele><time>2026-04-26T15:28:26.592Z</time></trkpt><trkpt lat="32.8953243" lon="10.4022652"><ele>275.0</ele><time>2026-04-26T15:28:27.582Z</time></trkpt><trkpt lat="32.895211" lon="10.4020691"><ele>276.0</ele><time>2026-04-26T15:28:28.593Z</time></trkpt><trkpt lat="32.8950965" lon="10.4018772"><ele>277.0</ele><time>2026-04-26T15:28:29.596Z</time></trkpt><trkpt lat="32.894983" lon="10.4016815"><ele>278.0</ele><time>2026-04-26T15:28:30.624Z</time></trkpt><trkpt lat="32.8948701" lon="10.401484"><ele>278.0</ele><time>2026-04-26T15:28:31.604Z</time></trkpt><trkpt lat="32.8947564" lon="10.4012821"><ele>278.0</ele><time>2026-04-26T15:28:32.587Z</time></trkpt><trkpt lat="32.8946445" lon="10.4010872"><ele>278.0</ele><time>2026-04-26T15:28:33.599Z</time></trkpt><trkpt lat="32.8945309" lon="10.4008954"><ele>278.0</ele><time>2026-04-26T15:28:34.609Z</time></trkpt><trkpt lat="32.8944164" lon="10.4007024"><ele>278.0</ele><time>2026-04-26T15:28:35.589Z</time></trkpt><trkpt lat="32.8942937" lon="10.4005158"><ele>278.0</ele><time>2026-04-26T15:28:36.602Z</time></trkpt><trkpt lat="32.8941659" lon="10.4003274"><ele>277.6666666666667</ele><time>2026-04-26T15:28:37.595Z</time></trkpt><trkpt lat="32.8940262" lon="10.4001567"><ele>277.3333333333333</ele><time>2026-04-26T15:28:38.603Z</time></trkpt><trkpt lat="32.8938736" lon="10.3999923"><ele>277.0</ele><time>2026-04-26T15:28:39.584Z</time></trkpt><trkpt lat="32.8937232" lon="10.399837"><ele>277.0</ele><time>2026-04-26T15:28:40.602Z</time></trkpt><trkpt lat="32.8935635" lon="10.3996933"><ele>277.0</ele><time>2026-04-26T15:28:41.596Z</time></trkpt><trkpt lat="32.8934096" lon="10.3995506"><ele>277.0</ele><time>2026-04-26T15:28:42.615Z</time></trkpt><trkpt lat="32.8932514" lon="10.3994127"><ele>277.66666666666663</ele><time>2026-04-26T15:28:43.615Z</time></trkpt><trkpt lat="32.8930916" lon="10.3992692"><ele>278.3333333333333</ele><time>2026-04-26T15:28:44.613Z</time></trkpt><trkpt lat="32.8929362" lon="10.3991283"><ele>279.0</ele><time>2026-04-26T15:28:45.591Z</time></trkpt><trkpt lat="32.892779" lon="10.3989836"><ele>279.0</ele><time>2026-04-26T15:28:46.596Z</time></trkpt><trkpt lat="32.8926256" lon="10.3988404"><ele>279.0</ele><time>2026-04-26T15:28:47.613Z</time></trkpt><trkpt lat="32.8924666" lon="10.3986908"><ele>279.0</ele><time>2026-04-26T15:28:48.606Z</time></trkpt><trkpt lat="32.8923046" lon="10.3985445"><ele>279.0</ele><time>2026-04-26T15:28:49.592Z</time></trkpt><trkpt lat="32.8921433" lon="10.3984043"><ele>279.0</ele><time>2026-04-26T15:28:50.603Z</time></trkpt><trkpt lat="32.8919874" lon="10.3982602"><ele>279.0</ele><time>2026-04-26T15:28:51.601Z</time></trkpt><trkpt lat="32.8918316" lon="10.3981183"><ele>280.0</ele><time>2026-04-26T15:28:52.594Z</time></trkpt><trkpt lat="32.8916736" lon="10.3979785"><ele>281.0</ele><time>2026-04-26T15:28:53.599Z</time></trkpt><trkpt lat="32.8915115" lon="10.3978381"><ele>282.0</ele><time>2026-04-26T15:28:54.598Z</time></trkpt><trkpt lat="32.8913461" lon="10.397693"><ele>282.0</ele><time>2026-04-26T15:28:55.617Z</time></trkpt><trkpt lat="32.8911827" lon="10.3975447"><ele>282.0</ele><time>2026-04-26T15:28:56.6Z</time></trkpt><trkpt lat="32.891022" lon="10.3974"><ele>282.0</ele><time>2026-04-26T15:28:57.6Z</time></trkpt><trkpt lat="32.8908613" lon="10.3972569"><ele>281.3333333333333</ele><time>2026-04-26T15:28:58.599Z</time></trkpt><trkpt lat="32.8907013" lon="10.3971178"><ele>280.66666666666663</ele><time>2026-04-26T15:28:59.586Z</time></trkpt><trkpt lat="32.890544" lon="10.396973"><ele>280.0</ele><time>2026-04-26T15:29:00.603Z</time></trkpt><trkpt lat="32.8903861" lon="10.3968253"><ele>280.0</ele><time>2026-04-26T15:29:01.607Z</time></trkpt><trkpt lat="32.8902146" lon="10.3966729"><ele>280.0</ele><time>2026-04-26T15:29:02.61Z</time></trkpt><trkpt lat="32.890035" lon="10.3965102"><ele>280.0</ele><time>2026-04-26T15:29:03.588Z</time></trkpt><trkpt lat="32.8898557" lon="10.3963346"><ele>280.5</ele><time>2026-04-26T15:29:04.588Z</time></trkpt><trkpt lat="32.8896815" lon="10.3961575"><ele>281.0</ele><time>2026-04-26T15:29:05.61Z</time></trkpt><trkpt lat="32.889509" lon="10.3959784"><ele>281.0</ele><time>2026-04-26T15:29:06.612Z</time></trkpt><trkpt lat="32.8893457" lon="10.3958046"><ele>281.0</ele><time>2026-04-26T15:29:07.588Z</time></trkpt><trkpt lat="32.889184" lon="10.3956251"><ele>281.0</ele><time>2026-04-26T15:29:08.589Z</time></trkpt><trkpt lat="32.8890164" lon="10.3954561"><ele>281.0</ele><time>2026-04-26T15:29:09.599Z</time></trkpt><trkpt lat="32.8888511" lon="10.3952864"><ele>281.0</ele><time>2026-04-26T15:29:10.615Z</time></trkpt><trkpt lat="32.8886885" lon="10.3951118"><ele>281.0</ele><time>2026-04-26T15:29:11.587Z</time></trkpt><trkpt lat="32.888526" lon="10.3949369"><ele>281.0</ele><time>2026-04-26T15:29:12.603Z</time></trkpt><trkpt lat="32.8883595" lon="10.3947602"><ele>281.0</ele><time>2026-04-26T15:29:13.596Z</time></trkpt><trkpt lat="32.8881964" lon="10.3945848"><ele>281.0</ele><time>2026-04-26T15:29:14.594Z</time></trkpt><trkpt lat="32.8880309" lon="10.3944104"><ele>281.0</ele><time>2026-04-26T15:29:15.6Z</time></trkpt><trkpt lat="32.8878675" lon="10.3942398"><ele>281.0</ele><time>2026-04-26T15:29:16.591Z</time></trkpt><trkpt lat="32.8877026" lon="10.3940697"><ele>281.0</ele><time>2026-04-26T15:29:17.592Z</time></trkpt><trkpt lat="32.8875395" lon="10.3938985"><ele>281.33333333333337</ele><time>2026-04-26T15:29:18.606Z</time></trkpt><trkpt lat="32.8873756" lon="10.3937291"><ele>281.6666666666667</ele><time>2026-04-26T15:29:19.597Z</time></trkpt><trkpt lat="32.8872079" lon="10.393567"><ele>282.0</ele><time>2026-04-26T15:29:20.609Z</time></trkpt><trkpt lat="32.8870439" lon="10.3934084"><ele>282.0</ele><time>2026-04-26T15:29:21.598Z</time></trkpt><trkpt lat="32.8868809" lon="10.3932558"><ele>282.0</ele><time>2026-04-26T15:29:22.607Z</time></trkpt><trkpt lat="32.8867132" lon="10.3931086"><ele>282.0</ele><time>2026-04-26T15:29:23.607Z</time></trkpt><trkpt lat="32.8865463" lon="10.3929646"><ele>282.3333333333333</ele><time>2026-04-26T15:29:24.599Z</time></trkpt><trkpt lat="32.8863764" lon="10.3928187"><ele>282.66666666666663</ele><time>2026-04-26T15:29:25.599Z</time></trkpt><trkpt lat="32.8862078" lon="10.3926719"><ele>283.0</ele><time>2026-04-26T15:29:26.607Z</time></trkpt><trkpt lat="32.8860389" lon="10.3925254"><ele>283.0</ele><time>2026-04-26T15:29:27.606Z</time></trkpt><trkpt lat="32.8858685" lon="10.3923762"><ele>283.0</ele><time>2026-04-26T15:29:28.614Z</time></trkpt><trkpt lat="32.8856983" lon="10.3922302"><ele>283.0</ele><time>2026-04-26T15:29:29.6Z</time></trkpt><trkpt lat="32.885527" lon="10.3920828"><ele>283.0</ele><time>2026-04-26T15:29:30.595Z</time></trkpt><trkpt lat="32.8853571" lon="10.391929"><ele>283.0</ele><time>2026-04-26T15:29:31.608Z</time></trkpt><trkpt lat="32.8851867" lon="10.3917797"><ele>283.0</ele><time>2026-04-26T15:29:32.603Z</time></trkpt><trkpt lat="32.8850166" lon="10.3916271"><ele>283.3333333333333</ele><time>2026-04-26T15:29:33.587Z</time></trkpt><trkpt lat="32.8848405" lon="10.391479"><ele>283.6666666666667</ele><time>2026-04-26T15:29:34.583Z</time></trkpt><trkpt lat="32.884662" lon="10.3913201"><ele>284.0</ele><time>2026-04-26T15:29:35.615Z</time></trkpt><trkpt lat="32.8844791" lon="10.3911617"><ele>284.33333333333337</ele><time>2026-04-26T15:29:36.6Z</time></trkpt><trkpt lat="32.8843028" lon="10.3910026"><ele>284.6666666666667</ele><time>2026-04-26T15:29:37.582Z</time></trkpt><trkpt lat="32.8841273" lon="10.3908413"><ele>285.0</ele><time>2026-04-26T15:29:38.587Z</time></trkpt><trkpt lat="32.8839543" lon="10.3906875"><ele>285.3333333333333</ele><time>2026-04-26T15:29:39.607Z</time></trkpt><trkpt lat="32.8837824" lon="10.3905288"><ele>285.66666666666663</ele><time>2026-04-26T15:29:40.613Z</time></trkpt><trkpt lat="32.8836068" lon="10.3903741"><ele>286.0</ele><time>2026-04-26T15:29:41.603Z</time></trkpt><trkpt lat="32.8834322" lon="10.3902165"><ele>286.3333333333333</ele><time>2026-04-26T15:29:42.594Z</time></trkpt><trkpt lat="32.8832573" lon="10.3900576"><ele>286.6666666666667</ele><time>2026-04-26T15:29:43.6Z</time></trkpt><trkpt lat="32.8830815" lon="10.3898981"><ele>287.0</ele><time>2026-04-26T15:29:44.595Z</time></trkpt><trkpt lat="32.8829074" lon="10.3897381"><ele>287.33333333333337</ele><time>2026-04-26T15:29:45.603Z</time></trkpt><trkpt lat="32.8827318" lon="10.3895731"><ele>287.6666666666667</ele><time>2026-04-26T15:29:46.61Z</time></trkpt><trkpt lat="32.8825547" lon="10.3894118"><ele>288.0</ele><time>2026-04-26T15:29:47.603Z</time></trkpt><trkpt lat="32.882382" lon="10.389247"><ele>288.0</ele><time>2026-04-26T15:29:48.589Z</time></trkpt><trkpt lat="32.882212" lon="10.3890884"><ele>288.0</ele><time>2026-04-26T15:29:49.607Z</time></trkpt><trkpt lat="32.8820407" lon="10.3889311"><ele>288.0</ele><time>2026-04-26T15:29:50.603Z</time></trkpt><trkpt lat="32.8818744" lon="10.3887771"><ele>288.6666666666667</ele><time>2026-04-26T15:29:51.58Z</time></trkpt><trkpt lat="32.8817139" lon="10.3886279"><ele>289.33333333333337</ele><time>2026-04-26T15:29:52.606Z</time></trkpt><trkpt lat="32.8815561" lon="10.3884833"><ele>290.0</ele><time>2026-04-26T15:29:53.604Z</time></trkpt><trkpt lat="32.8814058" lon="10.3883445"><ele>290.0</ele><time>2026-04-26T15:29:54.599Z</time></trkpt><trkpt lat="32.8812563" lon="10.3882063"><ele>290.0</ele><time>2026-04-26T15:29:55.586Z</time></trkpt><trkpt lat="32.8810981" lon="10.3880632"><ele>290.0</ele><time>2026-04-26T15:29:56.61Z</time></trkpt><trkpt lat="32.8809421" lon="10.3879157"><ele>289.6666666666667</ele><time>2026-04-26T15:29:57.595Z</time></trkpt><trkpt lat="32.8807879" lon="10.3877744"><ele>289.3333333333333</ele><time>2026-04-26T15:29:58.605Z</time></trkpt><trkpt lat="32.8806298" lon="10.3876255"><ele>289.0</ele><time>2026-04-26T15:29:59.59Z</time></trkpt><trkpt lat="32.8804729" lon="10.3874772"><ele>289.0</ele><time>2026-04-26T15:30:00.603Z</time></trkpt><trkpt lat="32.8803154" lon="10.3873303"><ele>289.0</ele><time>2026-04-26T15:30:01.592Z</time></trkpt><trkpt lat="32.8801605" lon="10.3871857"><ele>289.0</ele><time>2026-04-26T15:30:02.591Z</time></trkpt><trkpt lat="32.8800036" lon="10.3870413"><ele>289.3333333333333</ele><time>2026-04-26T15:30:03.604Z</time></trkpt><trkpt lat="32.879845" lon="10.3869003"><ele>289.6666666666667</ele><time>2026-04-26T15:30:04.596Z</time></trkpt><trkpt lat="32.8796893" lon="10.3867602"><ele>290.0</ele><time>2026-04-26T15:30:05.592Z</time></trkpt><trkpt lat="32.8795362" lon="10.3866175"><ele>290.0</ele><time>2026-04-26T15:30:06.603Z</time></trkpt><trkpt lat="32.8793746" lon="10.386478"><ele>290.0</ele><time>2026-04-26T15:30:07.622Z</time></trkpt><trkpt lat="32.8792135" lon="10.3863376"><ele>290.0</ele><time>2026-04-26T15:30:08.59Z</time></trkpt><trkpt lat="32.8790506" lon="10.3862057"><ele>289.33333333333337</ele><time>2026-04-26T15:30:09.595Z</time></trkpt><trkpt lat="32.8788849" lon="10.3860715"><ele>288.6666666666667</ele><time>2026-04-26T15:30:10.603Z</time></trkpt><trkpt lat="32.8787194" lon="10.3859402"><ele>288.0</ele><time>2026-04-26T15:30:11.595Z</time></trkpt><trkpt lat="32.8785577" lon="10.3858122"><ele>288.6666666666667</ele><time>2026-04-26T15:30:12.596Z</time></trkpt><trkpt lat="32.8783919" lon="10.3856846"><ele>289.33333333333337</ele><time>2026-04-26T15:30:13.604Z</time></trkpt><trkpt lat="32.8782289" lon="10.3855545"><ele>290.0</ele><time>2026-04-26T15:30:14.594Z</time></trkpt><trkpt lat="32.878061" lon="10.3854227"><ele>290.0</ele><time>2026-04-26T15:30:15.588Z</time></trkpt><trkpt lat="32.8778936" lon="10.3852952"><ele>290.0</ele><time>2026-04-26T15:30:16.597Z</time></trkpt><trkpt lat="32.8777279" lon="10.3851665"><ele>290.0</ele><time>2026-04-26T15:30:17.596Z</time></trkpt><trkpt lat="32.8775622" lon="10.3850365"><ele>290.0</ele><time>2026-04-26T15:30:18.6Z</time></trkpt><trkpt lat="32.8773943" lon="10.3849024"><ele>290.0</ele><time>2026-04-26T15:30:19.595Z</time></trkpt><trkpt lat="32.8772301" lon="10.3847682"><ele>290.0</ele><time>2026-04-26T15:30:20.605Z</time></trkpt><trkpt lat="32.8770691" lon="10.3846345"><ele>290.33333333333337</ele><time>2026-04-26T15:30:21.597Z</time></trkpt><trkpt lat="32.8769049" lon="10.3845078"><ele>290.6666666666667</ele><time>2026-04-26T15:30:22.608Z</time></trkpt><trkpt lat="32.8767395" lon="10.3843802"><ele>291.0</ele><time>2026-04-26T15:30:23.589Z</time></trkpt><trkpt lat="32.8765768" lon="10.3842558"><ele>291.0</ele><time>2026-04-26T15:30:24.611Z</time></trkpt><trkpt lat="32.8764112" lon="10.3841242"><ele>291.0</ele><time>2026-04-26T15:30:25.584Z</time></trkpt><trkpt lat="32.8762428" lon="10.3839963"><ele>291.0</ele><time>2026-04-26T15:30:26.59Z</time></trkpt><trkpt lat="32.876081" lon="10.3838662"><ele>291.3333333333333</ele><time>2026-04-26T15:30:27.601Z</time></trkpt><trkpt lat="32.8759173" lon="10.3837373"><ele>291.66666666666663</ele><time>2026-04-26T15:30:28.599Z</time></trkpt><trkpt lat="32.875752" lon="10.3836089"><ele>292.0</ele><time>2026-04-26T15:30:29.602Z</time></trkpt><trkpt lat="32.8755825" lon="10.3834791"><ele>292.0</ele><time>2026-04-26T15:30:30.619Z</time></trkpt><trkpt lat="32.8754183" lon="10.3833543"><ele>292.0</ele><time>2026-04-26T15:30:31.6Z</time></trkpt><trkpt lat="32.8752563" lon="10.3832309"><ele>292.0</ele><time>2026-04-26T15:30:32.601Z</time></trkpt><trkpt lat="32.875104" lon="10.383114"><ele>292.66666666666663</ele><time>2026-04-26T15:30:33.601Z</time></trkpt><trkpt lat="32.874955" lon="10.3829987"><ele>293.3333333333333</ele><time>2026-04-26T15:30:34.598Z</time></trkpt><trkpt lat="32.8748132" lon="10.3828881"><ele>294.0</ele><time>2026-04-26T15:30:35.608Z</time></trkpt><trkpt lat="32.8746845" lon="10.3827821"><ele>294.0</ele><time>2026-04-26T15:30:36.609Z</time></trkpt><trkpt lat="32.8745642" lon="10.3826874"><ele>294.0</ele><time>2026-04-26T15:30:37.6Z</time></trkpt><trkpt lat="32.8744468" lon="10.3825931"><ele>294.0</ele><time>2026-04-26T15:30:38.596Z</time></trkpt><trkpt lat="32.8743393" lon="10.3825081"><ele>294.0</ele><time>2026-04-26T15:30:39.598Z</time></trkpt><trkpt lat="32.8742399" lon="10.3824307"><ele>294.2</ele><time>2026-04-26T15:30:40.602Z</time></trkpt><trkpt lat="32.8741483" lon="10.3823594"><ele>294.4</ele><time>2026-04-26T15:30:41.607Z</time></trkpt><trkpt lat="32.8740623" lon="10.3822922"><ele>294.6</ele><time>2026-04-26T15:30:42.592Z</time></trkpt><trkpt lat="32.8739828" lon="10.3822274"><ele>294.8</ele><time>2026-04-26T15:30:43.592Z</time></trkpt><trkpt lat="32.8739091" lon="10.382172"><ele>295.0</ele><time>2026-04-26T15:30:44.601Z</time></trkpt><trkpt lat="32.8738427" lon="10.3821258"><ele>295.0</ele><time>2026-04-26T15:30:45.596Z</time></trkpt><trkpt lat="32.8737868" lon="10.3820799"><ele>295.0</ele><time>2026-04-26T15:30:46.594Z</time></trkpt><trkpt lat="32.873732" lon="10.3820366"><ele>295.0</ele><time>2026-04-26T15:30:47.611Z</time></trkpt><trkpt lat="32.8736592" lon="10.3819823"><ele>295.0</ele><time>2026-04-26T15:30:48.601Z</time></trkpt><trkpt lat="32.8735719" lon="10.3819098"><ele>295.0</ele><time>2026-04-26T15:30:49.592Z</time></trkpt><trkpt lat="32.8734837" lon="10.3818397"><ele>295.0</ele><time>2026-04-26T15:30:50.606Z</time></trkpt><trkpt lat="32.8733919" lon="10.3817673"><ele>295.6</ele><time>2026-04-26T15:30:51.592Z</time></trkpt><trkpt lat="32.8733031" lon="10.3816958"><ele>296.2</ele><time>2026-04-26T15:30:52.614Z</time></trkpt><trkpt lat="32.8732154" lon="10.381621"><ele>296.8</ele><time>2026-04-26T15:30:53.598Z</time></trkpt><trkpt lat="32.8731345" lon="10.3815428"><ele>297.4</ele><time>2026-04-26T15:30:54.599Z</time></trkpt><trkpt lat="32.8730507" lon="10.3814617"><ele>298.0</ele><time>2026-04-26T15:30:55.602Z</time></trkpt><trkpt lat="32.8729736" lon="10.3813743"><ele>297.4</ele><time>2026-04-26T15:30:56.608Z</time></trkpt><trkpt lat="32.8728941" lon="10.3812831"><ele>296.8</ele><time>2026-04-26T15:30:57.595Z</time></trkpt><trkpt lat="32.8728253" lon="10.3811872"><ele>296.2</ele><time>2026-04-26T15:30:58.614Z</time></trkpt><trkpt lat="32.8727586" lon="10.3810889"><ele>295.6</ele><time>2026-04-26T15:30:59.599Z</time></trkpt><trkpt lat="32.8726926" lon="10.3809946"><ele>295.0</ele><time>2026-04-26T15:31:00.604Z</time></trkpt><trkpt lat="32.8726184" lon="10.3809059"><ele>295.25</ele><time>2026-04-26T15:31:01.586Z</time></trkpt><trkpt lat="32.8725464" lon="10.3808115"><ele>295.5</ele><time>2026-04-26T15:31:02.592Z</time></trkpt><trkpt lat="32.8724635" lon="10.3807147"><ele>295.75</ele><time>2026-04-26T15:31:03.592Z</time></trkpt><trkpt lat="32.8723716" lon="10.3806174"><ele>296.0</ele><time>2026-04-26T15:31:04.609Z</time></trkpt><trkpt lat="32.8722756" lon="10.3805172"><ele>295.75</ele><time>2026-04-26T15:31:05.583Z</time></trkpt><trkpt lat="32.8721878" lon="10.3804048"><ele>295.5</ele><time>2026-04-26T15:31:06.604Z</time></trkpt><trkpt lat="32.8721026" lon="10.3802903"><ele>295.25</ele><time>2026-04-26T15:31:07.601Z</time></trkpt><trkpt lat="32.8720106" lon="10.3801804"><ele>295.0</ele><time>2026-04-26T15:31:08.59Z</time></trkpt><trkpt lat="32.8719175" lon="10.3800776"><ele>295.0</ele><time>2026-04-26T15:31:09.582Z</time></trkpt><trkpt lat="32.8718293" lon="10.3799759"><ele>295.0</ele><time>2026-04-26T15:31:10.588Z</time></trkpt><trkpt lat="32.871748" lon="10.3798681"><ele>295.0</ele><time>2026-04-26T15:31:11.602Z</time></trkpt><trkpt lat="32.871668" lon="10.3797606"><ele>295.0</ele><time>2026-04-26T15:31:12.594Z</time></trkpt><trkpt lat="32.871582" lon="10.3796482"><ele>295.5</ele><time>2026-04-26T15:31:13.588Z</time></trkpt><trkpt lat="32.8714896" lon="10.3795309"><ele>296.0</ele><time>2026-04-26T15:31:14.614Z</time></trkpt><trkpt lat="32.8713936" lon="10.3794149"><ele>296.5</ele><time>2026-04-26T15:31:15.612Z</time></trkpt><trkpt lat="32.8712985" lon="10.3792958"><ele>297.0</ele><time>2026-04-26T15:31:16.612Z</time></trkpt><trkpt lat="32.8711998" lon="10.3791729"><ele>297.0</ele><time>2026-04-26T15:31:17.604Z</time></trkpt><trkpt lat="32.8710948" lon="10.3790497"><ele>297.0</ele><time>2026-04-26T15:31:18.595Z</time></trkpt><trkpt lat="32.8709904" lon="10.3789199"><ele>297.0</ele><time>2026-04-26T15:31:19.601Z</time></trkpt><trkpt lat="32.8708866" lon="10.3787974"><ele>297.0</ele><time>2026-04-26T15:31:20.591Z</time></trkpt><trkpt lat="32.8707819" lon="10.3786745"><ele>297.3333333333333</ele><time>2026-04-26T15:31:21.595Z</time></trkpt><trkpt lat="32.8706721" lon="10.3785453"><ele>297.66666666666663</ele><time>2026-04-26T15:31:22.603Z</time></trkpt><trkpt lat="32.8705594" lon="10.3784155"><ele>298.0</ele><time>2026-04-26T15:31:23.605Z</time></trkpt><trkpt lat="32.8704367" lon="10.3782631"><ele>298.0</ele><time>2026-04-26T15:31:24.596Z</time></trkpt><trkpt lat="32.8703014" lon="10.3780955"><ele>298.0</ele><time>2026-04-26T15:31:25.597Z</time></trkpt><trkpt lat="32.8701619" lon="10.3779164"><ele>298.0</ele><time>2026-04-26T15:31:26.594Z</time></trkpt><trkpt lat="32.870024" lon="10.3777359"><ele>298.3333333333333</ele><time>2026-04-26T15:31:27.594Z</time></trkpt><trkpt lat="32.8698855" lon="10.3775605"><ele>298.6666666666667</ele><time>2026-04-26T15:31:28.607Z</time></trkpt><trkpt lat="32.8697441" lon="10.3773829"><ele>299.0</ele><time>2026-04-26T15:31:29.603Z</time></trkpt><trkpt lat="32.8696033" lon="10.3772032"><ele>298.0</ele><time>2026-04-26T15:31:30.595Z</time></trkpt><trkpt lat="32.8694669" lon="10.3770296"><ele>297.0</ele><time>2026-04-26T15:31:31.597Z</time></trkpt><trkpt lat="32.8693323" lon="10.3768605"><ele>296.0</ele><time>2026-04-26T15:31:32.601Z</time></trkpt><trkpt lat="32.8692004" lon="10.3766839"><ele>296.0</ele><time>2026-04-26T15:31:33.607Z</time></trkpt><trkpt lat="32.8690736" lon="10.3765216"><ele>296.0</ele><time>2026-04-26T15:31:34.596Z</time></trkpt><trkpt lat="32.8689478" lon="10.3763718"><ele>296.0</ele><time>2026-04-26T15:31:35.594Z</time></trkpt><trkpt lat="32.8688246" lon="10.3762199"><ele>296.33333333333337</ele><time>2026-04-26T15:31:36.599Z</time></trkpt><trkpt lat="32.8686999" lon="10.3760666"><ele>296.6666666666667</ele><time>2026-04-26T15:31:37.607Z</time></trkpt><trkpt lat="32.8685762" lon="10.3759149"><ele>297.0</ele><time>2026-04-26T15:31:38.598Z</time></trkpt><trkpt lat="32.8684532" lon="10.3757607"><ele>297.3333333333333</ele><time>2026-04-26T15:31:39.593Z</time></trkpt><trkpt lat="32.86833" lon="10.3756038"><ele>297.66666666666663</ele><time>2026-04-26T15:31:40.604Z</time></trkpt><trkpt lat="32.8682098" lon="10.3754447"><ele>298.0</ele><time>2026-04-26T15:31:41.606Z</time></trkpt><trkpt lat="32.8680924" lon="10.3752877"><ele>299.66666666666663</ele><time>2026-04-26T15:31:42.601Z</time></trkpt><trkpt lat="32.8679805" lon="10.3751385"><ele>301.3333333333333</ele><time>2026-04-26T15:31:43.602Z</time></trkpt><trkpt lat="32.8678741" lon="10.3750013"><ele>303.0</ele><time>2026-04-26T15:31:44.595Z</time></trkpt><trkpt lat="32.8677721" lon="10.3748755"><ele>303.0</ele><time>2026-04-26T15:31:45.61Z</time></trkpt><trkpt lat="32.8676669" lon="10.3747478"><ele>303.0</ele><time>2026-04-26T15:31:46.609Z</time></trkpt><trkpt lat="32.8675557" lon="10.3746294"><ele>303.0</ele><time>2026-04-26T15:31:47.601Z</time></trkpt><trkpt lat="32.8674353" lon="10.3745183"><ele>304.0</ele><time>2026-04-26T15:31:48.613Z</time></trkpt><trkpt lat="32.867312" lon="10.3744114"><ele>305.0</ele><time>2026-04-26T15:31:49.598Z</time></trkpt><trkpt lat="32.8671772" lon="10.3743083"><ele>306.0</ele><time>2026-04-26T15:31:50.606Z</time></trkpt><trkpt lat="32.8670409" lon="10.3742044"><ele>306.0</ele><time>2026-04-26T15:31:51.592Z</time></trkpt><trkpt lat="32.8669104" lon="10.3740998"><ele>306.0</ele><time>2026-04-26T15:31:52.607Z</time></trkpt><trkpt lat="32.8667892" lon="10.3740029"><ele>306.0</ele><time>2026-04-26T15:31:53.597Z</time></trkpt><trkpt lat="32.8666692" lon="10.3739054"><ele>306.0</ele><time>2026-04-26T15:31:54.6Z</time></trkpt><trkpt lat="32.866559" lon="10.3738112"><ele>306.25</ele><time>2026-04-26T15:31:55.604Z</time></trkpt><trkpt lat="32.8664549" lon="10.3737165"><ele>306.5</ele><time>2026-04-26T15:31:56.592Z</time></trkpt><trkpt lat="32.8663545" lon="10.3736266"><ele>306.75</ele><time>2026-04-26T15:31:57.593Z</time></trkpt><trkpt lat="32.8662554" lon="10.3735349"><ele>307.0</ele><time>2026-04-26T15:31:58.61Z</time></trkpt><trkpt lat="32.8661529" lon="10.3734465"><ele>307.0</ele><time>2026-04-26T15:31:59.61Z</time></trkpt><trkpt lat="32.8660465" lon="10.3733565"><ele>307.0</ele><time>2026-04-26T15:32:00.6Z</time></trkpt><trkpt lat="32.8659383" lon="10.3732687"><ele>307.0</ele><time>2026-04-26T15:32:01.607Z</time></trkpt><trkpt lat="32.8658207" lon="10.3731742"><ele>307.0</ele><time>2026-04-26T15:32:02.61Z</time></trkpt><trkpt lat="32.8656918" lon="10.3730788"><ele>308.0</ele><time>2026-04-26T15:32:03.591Z</time></trkpt><trkpt lat="32.8655501" lon="10.372994"><ele>309.0</ele><time>2026-04-26T15:32:04.6Z</time></trkpt><trkpt lat="32.8654044" lon="10.3729248"><ele>310.0</ele><time>2026-04-26T15:32:05.606Z</time></trkpt><trkpt lat="32.8652598" lon="10.3728564"><ele>309.66666666666663</ele><time>2026-04-26T15:32:06.606Z</time></trkpt><trkpt lat="32.8651114" lon="10.3727852"><ele>309.3333333333333</ele><time>2026-04-26T15:32:07.606Z</time></trkpt><trkpt lat="32.8649611" lon="10.3727161"><ele>309.0</ele><time>2026-04-26T15:32:08.606Z</time></trkpt><trkpt lat="32.8648079" lon="10.3726469"><ele>309.0</ele><time>2026-04-26T15:32:09.607Z</time></trkpt><trkpt lat="32.8646523" lon="10.372577"><ele>309.0</ele><time>2026-04-26T15:32:10.599Z</time></trkpt><trkpt lat="32.8644999" lon="10.3725066"><ele>309.0</ele><time>2026-04-26T15:32:11.605Z</time></trkpt><trkpt lat="32.8643465" lon="10.372437"><ele>308.6666666666667</ele><time>2026-04-26T15:32:12.6Z</time></trkpt><trkpt lat="32.8641897" lon="10.3723656"><ele>308.33333333333337</ele><time>2026-04-26T15:32:13.586Z</time></trkpt><trkpt lat="32.8640304" lon="10.3722877"><ele>308.0</ele><time>2026-04-26T15:32:14.596Z</time></trkpt><trkpt lat="32.8638691" lon="10.3722046"><ele>308.6666666666667</ele><time>2026-04-26T15:32:15.612Z</time></trkpt><trkpt lat="32.8637076" lon="10.3721171"><ele>309.3333333333333</ele><time>2026-04-26T15:32:16.605Z</time></trkpt><trkpt lat="32.8635476" lon="10.372016"><ele>310.0</ele><time>2026-04-26T15:32:17.589Z</time></trkpt><trkpt lat="32.8633934" lon="10.3719067"><ele>310.0</ele><time>2026-04-26T15:32:18.595Z</time></trkpt><trkpt lat="32.863241" lon="10.3717962"><ele>310.0</ele><time>2026-04-26T15:32:19.588Z</time></trkpt><trkpt lat="32.8630926" lon="10.3716798"><ele>310.0</ele><time>2026-04-26T15:32:20.604Z</time></trkpt><trkpt lat="32.8629458" lon="10.371562"><ele>310.0</ele><time>2026-04-26T15:32:21.594Z</time></trkpt><trkpt lat="32.8627956" lon="10.3714438"><ele>310.0</ele><time>2026-04-26T15:32:22.594Z</time></trkpt><trkpt lat="32.862646" lon="10.3713227"><ele>310.0</ele><time>2026-04-26T15:32:23.586Z</time></trkpt><trkpt lat="32.862492" lon="10.3712029"><ele>310.3333333333333</ele><time>2026-04-26T15:32:24.6Z</time></trkpt><trkpt lat="32.862342" lon="10.3710895"><ele>310.6666666666667</ele><time>2026-04-26T15:32:25.593Z</time></trkpt><trkpt lat="32.8621861" lon="10.3709736"><ele>311.0</ele><time>2026-04-26T15:32:26.596Z</time></trkpt><trkpt lat="32.8620354" lon="10.3708594"><ele>311.0</ele><time>2026-04-26T15:32:27.601Z</time></trkpt><trkpt lat="32.8618809" lon="10.3707533"><ele>311.0</ele><time>2026-04-26T15:32:28.603Z</time></trkpt><trkpt lat="32.8617251" lon="10.3706472"><ele>311.0</ele><time>2026-04-26T15:32:29.612Z</time></trkpt><trkpt lat="32.8615683" lon="10.3705434"><ele>311.6666666666667</ele><time>2026-04-26T15:32:30.608Z</time></trkpt><trkpt lat="32.8614129" lon="10.370444"><ele>312.3333333333333</ele><time>2026-04-26T15:32:31.602Z</time></trkpt><trkpt lat="32.861259" lon="10.3703447"><ele>313.0</ele><time>2026-04-26T15:32:32.594Z</time></trkpt><trkpt lat="32.8611054" lon="10.3702456"><ele>313.0</ele><time>2026-04-26T15:32:33.608Z</time></trkpt><trkpt lat="32.8609545" lon="10.370147"><ele>313.0</ele><time>2026-04-26T15:32:34.598Z</time></trkpt><trkpt lat="32.8608159" lon="10.3700553"><ele>313.0</ele><time>2026-04-26T15:32:35.586Z</time></trkpt><trkpt lat="32.8606763" lon="10.3699602"><ele>312.66666666666663</ele><time>2026-04-26T15:32:36.596Z</time></trkpt><trkpt lat="32.8605393" lon="10.3698645"><ele>312.3333333333333</ele><time>2026-04-26T15:32:37.602Z</time></trkpt><trkpt lat="32.8604052" lon="10.3697662"><ele>312.0</ele><time>2026-04-26T15:32:38.603Z</time></trkpt><trkpt lat="32.8602691" lon="10.3696684"><ele>312.0</ele><time>2026-04-26T15:32:39.61Z</time></trkpt><trkpt lat="32.8601305" lon="10.3695721"><ele>312.0</ele><time>2026-04-26T15:32:40.609Z</time></trkpt><trkpt lat="32.8599907" lon="10.3694734"><ele>312.0</ele><time>2026-04-26T15:32:41.598Z</time></trkpt><trkpt lat="32.8598497" lon="10.3693673"><ele>312.3333333333333</ele><time>2026-04-26T15:32:42.604Z</time></trkpt><trkpt lat="32.8597092" lon="10.3692618"><ele>312.66666666666663</ele><time>2026-04-26T15:32:43.603Z</time></trkpt><trkpt lat="32.8595648" lon="10.3691609"><ele>313.0</ele><time>2026-04-26T15:32:44.608Z</time></trkpt><trkpt lat="32.8594234" lon="10.3690646"><ele>313.3333333333333</ele><time>2026-04-26T15:32:45.589Z</time></trkpt><trkpt lat="32.8592792" lon="10.3689554"><ele>313.6666666666667</ele><time>2026-04-26T15:32:46.597Z</time></trkpt><trkpt lat="32.859137" lon="10.3688509"><ele>314.0</ele><time>2026-04-26T15:32:47.594Z</time></trkpt><trkpt lat="32.8589915" lon="10.3687482"><ele>314.0</ele><time>2026-04-26T15:32:48.61Z</time></trkpt><trkpt lat="32.8588458" lon="10.3686503"><ele>314.0</ele><time>2026-04-26T15:32:49.599Z</time></trkpt><trkpt lat="32.8586992" lon="10.3685527"><ele>314.0</ele><time>2026-04-26T15:32:50.598Z</time></trkpt><trkpt lat="32.8585588" lon="10.3684497"><ele>314.33333333333337</ele><time>2026-04-26T15:32:51.588Z</time></trkpt><trkpt lat="32.8584172" lon="10.3683463"><ele>314.6666666666667</ele><time>2026-04-26T15:32:52.6Z</time></trkpt><trkpt lat="32.8582807" lon="10.3682473"><ele>315.0</ele><time>2026-04-26T15:32:53.593Z</time></trkpt><trkpt lat="32.8581456" lon="10.3681502"><ele>315.0</ele><time>2026-04-26T15:32:54.605Z</time></trkpt><trkpt lat="32.8580097" lon="10.3680534"><ele>315.0</ele><time>2026-04-26T15:32:55.598Z</time></trkpt><trkpt lat="32.857874" lon="10.3679564"><ele>315.0</ele><time>2026-04-26T15:32:56.6Z</time></trkpt><trkpt lat="32.8577362" lon="10.3678577"><ele>315.3333333333333</ele><time>2026-04-26T15:32:57.588Z</time></trkpt><trkpt lat="32.8576013" lon="10.3677601"><ele>315.66666666666663</ele><time>2026-04-26T15:32:58.604Z</time></trkpt><trkpt lat="32.8574718" lon="10.3676622"><ele>316.0</ele><time>2026-04-26T15:32:59.602Z</time></trkpt><trkpt lat="32.8573447" lon="10.3675522"><ele>316.0</ele><time>2026-04-26T15:33:00.603Z</time></trkpt><trkpt lat="32.8572191" lon="10.3674342"><ele>316.0</ele><time>2026-04-26T15:33:01.6Z</time></trkpt><trkpt lat="32.8570971" lon="10.3673084"><ele>316.0</ele><time>2026-04-26T15:33:02.595Z</time></trkpt><trkpt lat="32.8569733" lon="10.3671698"><ele>316.3333333333333</ele><time>2026-04-26T15:33:03.604Z</time></trkpt><trkpt lat="32.8568578" lon="10.3670292"><ele>316.6666666666667</ele><time>2026-04-26T15:33:04.605Z</time></trkpt><trkpt lat="32.8567452" lon="10.3668875"><ele>317.0</ele><time>2026-04-26T15:33:05.593Z</time></trkpt><trkpt lat="32.8566347" lon="10.3667491"><ele>317.33333333333337</ele><time>2026-04-26T15:33:06.593Z</time></trkpt><trkpt lat="32.8565224" lon="10.3666128"><ele>317.6666666666667</ele><time>2026-04-26T15:33:07.594Z</time></trkpt><trkpt lat="32.8564119" lon="10.3664729"><ele>318.0</ele><time>2026-04-26T15:33:08.597Z</time></trkpt><trkpt lat="32.8562993" lon="10.3663354"><ele>318.0</ele><time>2026-04-26T15:33:09.604Z</time></trkpt><trkpt lat="32.8561859" lon="10.3661986"><ele>318.0</ele><time>2026-04-26T15:33:10.595Z</time></trkpt><trkpt lat="32.8560698" lon="10.3660643"><ele>318.0</ele><time>2026-04-26T15:33:11.598Z</time></trkpt><trkpt lat="32.8559516" lon="10.3659274"><ele>317.6666666666667</ele><time>2026-04-26T15:33:12.599Z</time></trkpt><trkpt lat="32.8558337" lon="10.3657884"><ele>317.33333333333337</ele><time>2026-04-26T15:33:13.593Z</time></trkpt><trkpt lat="32.855713" lon="10.3656496"><ele>317.0</ele><time>2026-04-26T15:33:14.593Z</time></trkpt><trkpt lat="32.8555941" lon="10.3655107"><ele>318.0</ele><time>2026-04-26T15:33:15.617Z</time></trkpt><trkpt lat="32.855475" lon="10.3653718"><ele>319.0</ele><time>2026-04-26T15:33:16.598Z</time></trkpt><trkpt lat="32.8553586" lon="10.3652379"><ele>320.0</ele><time>2026-04-26T15:33:17.602Z</time></trkpt><trkpt lat="32.8552368" lon="10.3651043"><ele>319.6666666666667</ele><time>2026-04-26T15:33:18.6Z</time></trkpt><trkpt lat="32.8551161" lon="10.3649734"><ele>319.3333333333333</ele><time>2026-04-26T15:33:19.608Z</time></trkpt><trkpt lat="32.8549909" lon="10.3648377"><ele>319.0</ele><time>2026-04-26T15:33:20.605Z</time></trkpt><trkpt lat="32.8548673" lon="10.3647114"><ele>319.0</ele><time>2026-04-26T15:33:21.601Z</time></trkpt><trkpt lat="32.8547425" lon="10.3645886"><ele>319.0</ele><time>2026-04-26T15:33:22.595Z</time></trkpt><trkpt lat="32.8546181" lon="10.3644625"><ele>319.0</ele><time>2026-04-26T15:33:23.603Z</time></trkpt><trkpt lat="32.8544986" lon="10.3643274"><ele>319.0</ele><time>2026-04-26T15:33:24.589Z</time></trkpt><trkpt lat="32.8543768" lon="10.3641931"><ele>319.0</ele><time>2026-04-26T15:33:25.589Z</time></trkpt><trkpt lat="32.8542522" lon="10.364057"><ele>319.0</ele><time>2026-04-26T15:33:26.605Z</time></trkpt><trkpt lat="32.854124" lon="10.3639198"><ele>320.3333333333333</ele><time>2026-04-26T15:33:27.597Z</time></trkpt><trkpt lat="32.8539927" lon="10.3637819"><ele>321.6666666666667</ele><time>2026-04-26T15:33:28.604Z</time></trkpt><trkpt lat="32.8538592" lon="10.3636476"><ele>323.0</ele><time>2026-04-26T15:33:29.589Z</time></trkpt><trkpt lat="32.8537317" lon="10.3635085"><ele>323.0</ele><time>2026-04-26T15:33:30.598Z</time></trkpt><trkpt lat="32.8536033" lon="10.3633703"><ele>323.0</ele><time>2026-04-26T15:33:31.59Z</time></trkpt><trkpt lat="32.8534734" lon="10.3632262"><ele>323.0</ele><time>2026-04-26T15:33:32.606Z</time></trkpt><trkpt lat="32.8533426" lon="10.3630826"><ele>323.33333333333337</ele><time>2026-04-26T15:33:33.599Z</time></trkpt><trkpt lat="32.8532082" lon="10.3629449"><ele>323.6666666666667</ele><time>2026-04-26T15:33:34.601Z</time></trkpt><trkpt lat="32.853073" lon="10.3628009"><ele>324.0</ele><time>2026-04-26T15:33:35.592Z</time></trkpt><trkpt lat="32.8529376" lon="10.3626562"><ele>324.0</ele><time>2026-04-26T15:33:36.583Z</time></trkpt><trkpt lat="32.8527992" lon="10.3625118"><ele>324.0</ele><time>2026-04-26T15:33:37.581Z</time></trkpt><trkpt lat="32.8526659" lon="10.3623649"><ele>324.0</ele><time>2026-04-26T15:33:38.589Z</time></trkpt><trkpt lat="32.8525296" lon="10.3622186"><ele>324.6666666666667</ele><time>2026-04-26T15:33:39.594Z</time></trkpt><trkpt lat="32.8523942" lon="10.362071"><ele>325.33333333333337</ele><time>2026-04-26T15:33:40.587Z</time></trkpt><trkpt lat="32.8522617" lon="10.3619294"><ele>326.0</ele><time>2026-04-26T15:33:41.607Z</time></trkpt><trkpt lat="32.8521332" lon="10.361786"><ele>326.0</ele><time>2026-04-26T15:33:42.577Z</time></trkpt><trkpt lat="32.8520028" lon="10.3616382"><ele>326.0</ele><time>2026-04-26T15:33:43.617Z</time></trkpt><trkpt lat="32.8518764" lon="10.3614951"><ele>326.0</ele><time>2026-04-26T15:33:44.581Z</time></trkpt><trkpt lat="32.8517479" lon="10.3613579"><ele>326.33333333333337</ele><time>2026-04-26T15:33:45.605Z</time></trkpt><trkpt lat="32.8516206" lon="10.3612174"><ele>326.6666666666667</ele><time>2026-04-26T15:33:46.606Z</time></trkpt><trkpt lat="32.8514919" lon="10.3610775"><ele>327.0</ele><time>2026-04-26T15:33:47.594Z</time></trkpt><trkpt lat="32.851357" lon="10.3609339"><ele>327.0</ele><time>2026-04-26T15:33:48.578Z</time></trkpt><trkpt lat="32.8512241" lon="10.3607978"><ele>327.0</ele><time>2026-04-26T15:33:49.582Z</time></trkpt><trkpt lat="32.8510935" lon="10.3606531"><ele>327.0</ele><time>2026-04-26T15:33:50.603Z</time></trkpt><trkpt lat="32.850958" lon="10.3605091"><ele>327.3333333333333</ele><time>2026-04-26T15:33:51.599Z</time></trkpt><trkpt lat="32.8508225" lon="10.3603632"><ele>327.66666666666663</ele><time>2026-04-26T15:33:52.589Z</time></trkpt><trkpt lat="32.8506924" lon="10.3602223"><ele>328.0</ele><time>2026-04-26T15:33:53.594Z</time></trkpt><trkpt lat="32.850562" lon="10.3600788"><ele>328.0</ele><time>2026-04-26T15:33:54.584Z</time></trkpt><trkpt lat="32.8504365" lon="10.3599328"><ele>328.0</ele><time>2026-04-26T15:33:55.586Z</time></trkpt><trkpt lat="32.8503124" lon="10.3597892"><ele>328.0</ele><time>2026-04-26T15:33:56.591Z</time></trkpt><trkpt lat="32.8501895" lon="10.3596421"><ele>328.3333333333333</ele><time>2026-04-26T15:33:57.598Z</time></trkpt><trkpt lat="32.8500642" lon="10.3594948"><ele>328.6666666666667</ele><time>2026-04-26T15:33:58.606Z</time></trkpt><trkpt lat="32.8499371" lon="10.3593496"><ele>329.0</ele><time>2026-04-26T15:33:59.605Z</time></trkpt><trkpt lat="32.8498111" lon="10.3592054"><ele>329.0</ele><time>2026-04-26T15:34:00.61Z</time></trkpt><trkpt lat="32.8496863" lon="10.3590566"><ele>329.0</ele><time>2026-04-26T15:34:01.604Z</time></trkpt><trkpt lat="32.8495653" lon="10.3589082"><ele>329.0</ele><time>2026-04-26T15:34:02.593Z</time></trkpt><trkpt lat="32.8494402" lon="10.3587566"><ele>329.33333333333337</ele><time>2026-04-26T15:34:03.598Z</time></trkpt><trkpt lat="32.8493211" lon="10.3586019"><ele>329.6666666666667</ele><time>2026-04-26T15:34:04.594Z</time></trkpt><trkpt lat="32.8491972" lon="10.3584455"><ele>330.0</ele><time>2026-04-26T15:34:05.587Z</time></trkpt><trkpt lat="32.8490784" lon="10.3582885"><ele>330.0</ele><time>2026-04-26T15:34:06.6Z</time></trkpt><trkpt lat="32.8489624" lon="10.3581306"><ele>330.0</ele><time>2026-04-26T15:34:07.602Z</time></trkpt><trkpt lat="32.8488431" lon="10.3579777"><ele>330.0</ele><time>2026-04-26T15:34:08.6Z</time></trkpt><trkpt lat="32.8487233" lon="10.3578188"><ele>331.0</ele><time>2026-04-26T15:34:09.591Z</time></trkpt><trkpt lat="32.848602" lon="10.3576631"><ele>332.0</ele><time>2026-04-26T15:34:10.597Z</time></trkpt><trkpt lat="32.8484776" lon="10.357504"><ele>333.0</ele><time>2026-04-26T15:34:11.604Z</time></trkpt><trkpt lat="32.8483573" lon="10.3573498"><ele>333.6666666666667</ele><time>2026-04-26T15:34:12.577Z</time></trkpt><trkpt lat="32.8482347" lon="10.3571981"><ele>334.33333333333337</ele><time>2026-04-26T15:34:13.581Z</time></trkpt><trkpt lat="32.8481083" lon="10.357043"><ele>335.0</ele><time>2026-04-26T15:34:14.586Z</time></trkpt><trkpt lat="32.8479806" lon="10.3568911"><ele>335.0</ele><time>2026-04-26T15:34:15.598Z</time></trkpt><trkpt lat="32.8478491" lon="10.3567392"><ele>335.0</ele><time>2026-04-26T15:34:16.601Z</time></trkpt><trkpt lat="32.8477209" lon="10.3565879"><ele>335.0</ele><time>2026-04-26T15:34:17.587Z</time></trkpt><trkpt lat="32.847596" lon="10.3564387"><ele>336.0</ele><time>2026-04-26T15:34:18.586Z</time></trkpt><trkpt lat="32.8474702" lon="10.3562952"><ele>337.0</ele><time>2026-04-26T15:34:19.596Z</time></trkpt><trkpt lat="32.8473463" lon="10.3561496"><ele>338.0</ele><time>2026-04-26T15:34:20.594Z</time></trkpt><trkpt lat="32.8472208" lon="10.3560051"><ele>338.0</ele><time>2026-04-26T15:34:21.605Z</time></trkpt><trkpt lat="32.8471002" lon="10.3558646"><ele>338.0</ele><time>2026-04-26T15:34:22.578Z</time></trkpt><trkpt lat="32.8469791" lon="10.3557252"><ele>338.0</ele><time>2026-04-26T15:34:23.603Z</time></trkpt><trkpt lat="32.846856" lon="10.3555827"><ele>338.0</ele><time>2026-04-26T15:34:24.603Z</time></trkpt><trkpt lat="32.8467341" lon="10.3554447"><ele>338.0</ele><time>2026-04-26T15:34:25.601Z</time></trkpt><trkpt lat="32.8466178" lon="10.3553019"><ele>338.0</ele><time>2026-04-26T15:34:26.59Z</time></trkpt><trkpt lat="32.8464957" lon="10.3551624"><ele>338.0</ele><time>2026-04-26T15:34:27.593Z</time></trkpt><trkpt lat="32.846372" lon="10.3550269"><ele>338.0</ele><time>2026-04-26T15:34:28.594Z</time></trkpt><trkpt lat="32.8462416" lon="10.3548883"><ele>338.0</ele><time>2026-04-26T15:34:29.611Z</time></trkpt><trkpt lat="32.8461145" lon="10.354751"><ele>339.0</ele><time>2026-04-26T15:34:30.605Z</time></trkpt><trkpt lat="32.8459814" lon="10.3546138"><ele>340.0</ele><time>2026-04-26T15:34:31.599Z</time></trkpt><trkpt lat="32.8458459" lon="10.3544737"><ele>341.0</ele><time>2026-04-26T15:34:32.601Z</time></trkpt><trkpt lat="32.8457164" lon="10.3543333"><ele>341.0</ele><time>2026-04-26T15:34:33.588Z</time></trkpt><trkpt lat="32.8455873" lon="10.3541889"><ele>341.0</ele><time>2026-04-26T15:34:34.586Z</time></trkpt><trkpt lat="32.8454601" lon="10.3540476"><ele>341.0</ele><time>2026-04-26T15:34:35.582Z</time></trkpt><trkpt lat="32.8453351" lon="10.3539049"><ele>341.6666666666667</ele><time>2026-04-26T15:34:36.586Z</time></trkpt><trkpt lat="32.845207" lon="10.3537595"><ele>342.3333333333333</ele><time>2026-04-26T15:34:37.607Z</time></trkpt><trkpt lat="32.8450797" lon="10.3536142"><ele>343.0</ele><time>2026-04-26T15:34:38.589Z</time></trkpt><trkpt lat="32.844953" lon="10.3534628"><ele>343.0</ele><time>2026-04-26T15:34:39.598Z</time></trkpt><trkpt lat="32.8448289" lon="10.3533094"><ele>343.0</ele><time>2026-04-26T15:34:40.605Z</time></trkpt><trkpt lat="32.8447039" lon="10.3531626"><ele>343.0</ele><time>2026-04-26T15:34:41.603Z</time></trkpt><trkpt lat="32.8445815" lon="10.3530157"><ele>343.3333333333333</ele><time>2026-04-26T15:34:42.602Z</time></trkpt><trkpt lat="32.8444624" lon="10.35288"><ele>343.6666666666667</ele><time>2026-04-26T15:34:43.598Z</time></trkpt><trkpt lat="32.8443478" lon="10.352756"><ele>344.0</ele><time>2026-04-26T15:34:44.598Z</time></trkpt><trkpt lat="32.8442303" lon="10.3526348"><ele>344.0</ele><time>2026-04-26T15:34:45.613Z</time></trkpt><trkpt lat="32.8441088" lon="10.352518"><ele>344.0</ele><time>2026-04-26T15:34:46.581Z</time></trkpt><trkpt lat="32.8439784" lon="10.3524195"><ele>344.0</ele><time>2026-04-26T15:34:47.594Z</time></trkpt><trkpt lat="32.8438494" lon="10.3523193"><ele>344.0</ele><time>2026-04-26T15:34:48.602Z</time></trkpt><trkpt lat="32.8437188" lon="10.3522197"><ele>344.0</ele><time>2026-04-26T15:34:49.6Z</time></trkpt><trkpt lat="32.8435885" lon="10.3521184"><ele>344.0</ele><time>2026-04-26T15:34:50.608Z</time></trkpt><trkpt lat="32.8434626" lon="10.3520025"><ele>344.0</ele><time>2026-04-26T15:34:51.596Z</time></trkpt><trkpt lat="32.8433442" lon="10.351863"><ele>344.0</ele><time>2026-04-26T15:34:52.596Z</time></trkpt><trkpt lat="32.8432391" lon="10.3517112"><ele>344.0</ele><time>2026-04-26T15:34:53.605Z</time></trkpt><trkpt lat="32.843145" lon="10.3515494"><ele>344.0</ele><time>2026-04-26T15:34:54.602Z</time></trkpt><trkpt lat="32.8430537" lon="10.3513826"><ele>344.0</ele><time>2026-04-26T15:34:55.585Z</time></trkpt><trkpt lat="32.8429697" lon="10.351211"><ele>344.0</ele><time>2026-04-26T15:34:56.589Z</time></trkpt><trkpt lat="32.8428851" lon="10.3510414"><ele>345.33333333333337</ele><time>2026-04-26T15:34:57.61Z</time></trkpt><trkpt lat="32.842796" lon="10.3508704"><ele>346.6666666666667</ele><time>2026-04-26T15:34:58.605Z</time></trkpt><trkpt lat="32.8427036" lon="10.3506956"><ele>348.0</ele><time>2026-04-26T15:34:59.58Z</time></trkpt><trkpt lat="32.8426148" lon="10.3505195"><ele>348.0</ele><time>2026-04-26T15:35:00.607Z</time></trkpt><trkpt lat="32.8425271" lon="10.3503428"><ele>348.0</ele><time>2026-04-26T15:35:01.606Z</time></trkpt><trkpt lat="32.842439" lon="10.3501695"><ele>348.0</ele><time>2026-04-26T15:35:02.595Z</time></trkpt><trkpt lat="32.8423553" lon="10.3500053"><ele>348.0</ele><time>2026-04-26T15:35:03.608Z</time></trkpt><trkpt lat="32.8422788" lon="10.3498457"><ele>348.0</ele><time>2026-04-26T15:35:04.603Z</time></trkpt><trkpt lat="32.8422025" lon="10.3496823"><ele>348.0</ele><time>2026-04-26T15:35:05.61Z</time></trkpt><trkpt lat="32.8421233" lon="10.3495156"><ele>349.0</ele><time>2026-04-26T15:35:06.604Z</time></trkpt><trkpt lat="32.8420446" lon="10.3493478"><ele>350.0</ele><time>2026-04-26T15:35:07.606Z</time></trkpt><trkpt lat="32.8419678" lon="10.3491776"><ele>351.0</ele><time>2026-04-26T15:35:08.602Z</time></trkpt><trkpt lat="32.8418853" lon="10.3490019"><ele>351.6666666666667</ele><time>2026-04-26T15:35:09.605Z</time></trkpt><trkpt lat="32.841803" lon="10.3488271"><ele>352.33333333333337</ele><time>2026-04-26T15:35:10.61Z</time></trkpt><trkpt lat="32.8417216" lon="10.3486606"><ele>353.0</ele><time>2026-04-26T15:35:11.597Z</time></trkpt><trkpt lat="32.8416383" lon="10.3484941"><ele>353.0</ele><time>2026-04-26T15:35:12.603Z</time></trkpt><trkpt lat="32.8415503" lon="10.3483255"><ele>353.0</ele><time>2026-04-26T15:35:13.618Z</time></trkpt><trkpt lat="32.8414647" lon="10.3481627"><ele>353.0</ele><time>2026-04-26T15:35:14.6Z</time></trkpt><trkpt lat="32.8413815" lon="10.3479936"><ele>353.33333333333337</ele><time>2026-04-26T15:35:15.601Z</time></trkpt><trkpt lat="32.8412934" lon="10.3478273"><ele>353.6666666666667</ele><time>2026-04-26T15:35:16.603Z</time></trkpt><trkpt lat="32.8412077" lon="10.3476623"><ele>354.0</ele><time>2026-04-26T15:35:17.592Z</time></trkpt><trkpt lat="32.8411276" lon="10.3475027"><ele>354.0</ele><time>2026-04-26T15:35:18.592Z</time></trkpt><trkpt lat="32.8410431" lon="10.3473344"><ele>354.0</ele><time>2026-04-26T15:35:19.617Z</time></trkpt><trkpt lat="32.8409527" lon="10.3471635"><ele>354.0</ele><time>2026-04-26T15:35:20.605Z</time></trkpt><trkpt lat="32.840858" lon="10.3469841"><ele>353.6666666666667</ele><time>2026-04-26T15:35:21.602Z</time></trkpt><trkpt lat="32.8407724" lon="10.3467983"><ele>353.33333333333337</ele><time>2026-04-26T15:35:22.602Z</time></trkpt><trkpt lat="32.8407018" lon="10.3466123"><ele>353.0</ele><time>2026-04-26T15:35:23.58Z</time></trkpt><trkpt lat="32.8406352" lon="10.3464239"><ele>354.0</ele><time>2026-04-26T15:35:24.62Z</time></trkpt><trkpt lat="32.8405783" lon="10.3462323"><ele>355.0</ele><time>2026-04-26T15:35:25.61Z</time></trkpt><trkpt lat="32.8405329" lon="10.3460495"><ele>356.0</ele><time>2026-04-26T15:35:26.602Z</time></trkpt><trkpt lat="32.8404942" lon="10.345862"><ele>356.0</ele><time>2026-04-26T15:35:27.611Z</time></trkpt><trkpt lat="32.8404613" lon="10.3456745"><ele>356.0</ele><time>2026-04-26T15:35:28.601Z</time></trkpt><trkpt lat="32.8404356" lon="10.3454919"><ele>356.0</ele><time>2026-04-26T15:35:29.608Z</time></trkpt><trkpt lat="32.8404098" lon="10.3453129"><ele>356.6666666666667</ele><time>2026-04-26T15:35:30.602Z</time></trkpt><trkpt lat="32.8403865" lon="10.345128"><ele>357.3333333333333</ele><time>2026-04-26T15:35:31.608Z</time></trkpt><trkpt lat="32.8403573" lon="10.3449415"><ele>358.0</ele><time>2026-04-26T15:35:32.602Z</time></trkpt><trkpt lat="32.8403261" lon="10.3447552"><ele>358.0</ele><time>2026-04-26T15:35:33.608Z</time></trkpt><trkpt lat="32.8402922" lon="10.3445623"><ele>358.0</ele><time>2026-04-26T15:35:34.598Z</time></trkpt><trkpt lat="32.8402633" lon="10.3443733"><ele>358.0</ele><time>2026-04-26T15:35:35.593Z</time></trkpt><trkpt lat="32.840239" lon="10.3441865"><ele>358.0</ele><time>2026-04-26T15:35:36.586Z</time></trkpt><trkpt lat="32.8402127" lon="10.3439952"><ele>358.0</ele><time>2026-04-26T15:35:37.597Z</time></trkpt><trkpt lat="32.8401888" lon="10.3438107"><ele>358.0</ele><time>2026-04-26T15:35:38.593Z</time></trkpt><trkpt lat="32.840164" lon="10.3436301"><ele>359.3333333333333</ele><time>2026-04-26T15:35:39.6Z</time></trkpt><trkpt lat="32.8401369" lon="10.3434449"><ele>360.6666666666667</ele><time>2026-04-26T15:35:40.582Z</time></trkpt><trkpt lat="32.8401073" lon="10.3432509"><ele>362.0</ele><time>2026-04-26T15:35:41.6Z</time></trkpt><trkpt lat="32.8400729" lon="10.3430529"><ele>362.6666666666667</ele><time>2026-04-26T15:35:42.592Z</time></trkpt><trkpt lat="32.8400329" lon="10.3428588"><ele>363.3333333333333</ele><time>2026-04-26T15:35:43.61Z</time></trkpt><trkpt lat="32.8399914" lon="10.3426617"><ele>364.0</ele><time>2026-04-26T15:35:44.601Z</time></trkpt><trkpt lat="32.8399515" lon="10.3424554"><ele>364.0</ele><time>2026-04-26T15:35:45.603Z</time></trkpt><trkpt lat="32.839914" lon="10.342252"><ele>364.0</ele><time>2026-04-26T15:35:46.598Z</time></trkpt><trkpt lat="32.8398751" lon="10.3420492"><ele>364.0</ele><time>2026-04-26T15:35:47.6Z</time></trkpt><trkpt lat="32.8398356" lon="10.3418476"><ele>364.0</ele><time>2026-04-26T15:35:48.597Z</time></trkpt><trkpt lat="32.8397901" lon="10.3416442"><ele>364.0</ele><time>2026-04-26T15:35:49.591Z</time></trkpt><trkpt lat="32.8397394" lon="10.3414452"><ele>364.0</ele><time>2026-04-26T15:35:50.61Z</time></trkpt><trkpt lat="32.8396852" lon="10.3412471"><ele>364.0</ele><time>2026-04-26T15:35:51.609Z</time></trkpt><trkpt lat="32.839635" lon="10.3410519"><ele>364.0</ele><time>2026-04-26T15:35:52.604Z</time></trkpt><trkpt lat="32.8395785" lon="10.3408529"><ele>364.0</ele><time>2026-04-26T15:35:53.607Z</time></trkpt><trkpt lat="32.8395247" lon="10.3406638"><ele>366.0</ele><time>2026-04-26T15:35:54.605Z</time></trkpt><trkpt lat="32.8394711" lon="10.3404737"><ele>368.0</ele><time>2026-04-26T15:35:55.592Z</time></trkpt><trkpt lat="32.8394215" lon="10.3402868"><ele>370.0</ele><time>2026-04-26T15:35:56.59Z</time></trkpt><trkpt lat="32.8393743" lon="10.3401003"><ele>370.0</ele><time>2026-04-26T15:35:57.597Z</time></trkpt><trkpt lat="32.8393229" lon="10.3399149"><ele>370.0</ele><time>2026-04-26T15:35:58.592Z</time></trkpt><trkpt lat="32.839273" lon="10.3397309"><ele>370.0</ele><time>2026-04-26T15:35:59.6Z</time></trkpt><trkpt lat="32.8392222" lon="10.3395443"><ele>370.0</ele><time>2026-04-26T15:36:00.59Z</time></trkpt><trkpt lat="32.8391724" lon="10.3393593"><ele>370.0</ele><time>2026-04-26T15:36:01.594Z</time></trkpt><trkpt lat="32.8391289" lon="10.3391732"><ele>370.0</ele><time>2026-04-26T15:36:02.599Z</time></trkpt><trkpt lat="32.839084" lon="10.3389863"><ele>370.0</ele><time>2026-04-26T15:36:03.598Z</time></trkpt><trkpt lat="32.8390366" lon="10.3387997"><ele>370.0</ele><time>2026-04-26T15:36:04.587Z</time></trkpt><trkpt lat="32.8389919" lon="10.3386143"><ele>370.0</ele><time>2026-04-26T15:36:05.593Z</time></trkpt><trkpt lat="32.8389497" lon="10.338423"><ele>370.0</ele><time>2026-04-26T15:36:06.597Z</time></trkpt><trkpt lat="32.8389045" lon="10.3382356"><ele>370.0</ele><time>2026-04-26T15:36:07.596Z</time></trkpt><trkpt lat="32.8388591" lon="10.3380457"><ele>370.0</ele><time>2026-04-26T15:36:08.614Z</time></trkpt><trkpt lat="32.8388141" lon="10.3378498"><ele>371.0</ele><time>2026-04-26T15:36:09.594Z</time></trkpt><trkpt lat="32.8387719" lon="10.3376462"><ele>372.0</ele><time>2026-04-26T15:36:10.592Z</time></trkpt><trkpt lat="32.8387354" lon="10.3374452"><ele>373.0</ele><time>2026-04-26T15:36:11.613Z</time></trkpt><trkpt lat="32.8387019" lon="10.3372453"><ele>373.3333333333333</ele><time>2026-04-26T15:36:12.593Z</time></trkpt><trkpt lat="32.8386676" lon="10.3370444"><ele>373.6666666666667</ele><time>2026-04-26T15:36:13.597Z</time></trkpt><trkpt lat="32.8386377" lon="10.3368418"><ele>374.0</ele><time>2026-04-26T15:36:14.611Z</time></trkpt><trkpt lat="32.8386145" lon="10.3366388"><ele>374.0</ele><time>2026-04-26T15:36:15.588Z</time></trkpt><trkpt lat="32.8386038" lon="10.3364383"><ele>374.0</ele><time>2026-04-26T15:36:16.595Z</time></trkpt><trkpt lat="32.8386004" lon="10.3362335"><ele>374.0</ele><time>2026-04-26T15:36:17.594Z</time></trkpt><trkpt lat="32.8385943" lon="10.3360305"><ele>374.33333333333337</ele><time>2026-04-26T15:36:18.581Z</time></trkpt><trkpt lat="32.8385841" lon="10.3358306"><ele>374.6666666666667</ele><time>2026-04-26T15:36:19.608Z</time></trkpt><trkpt lat="32.8385685" lon="10.335651"><ele>375.0</ele><time>2026-04-26T15:36:20.584Z</time></trkpt><trkpt lat="32.8385518" lon="10.3354712"><ele>376.0</ele><time>2026-04-26T15:36:21.596Z</time></trkpt><trkpt lat="32.8385366" lon="10.3353088"><ele>377.0</ele><time>2026-04-26T15:36:22.602Z</time></trkpt><trkpt lat="32.8385204" lon="10.3351497"><ele>378.0</ele><time>2026-04-26T15:36:23.598Z</time></trkpt><trkpt lat="32.8385065" lon="10.3349951"><ele>379.0</ele><time>2026-04-26T15:36:24.591Z</time></trkpt><trkpt lat="32.8384959" lon="10.334832"><ele>378.5</ele><time>2026-04-26T15:36:25.597Z</time></trkpt><trkpt lat="32.8384801" lon="10.334663"><ele>378.0</ele><time>2026-04-26T15:36:26.598Z</time></trkpt><trkpt lat="32.8384663" lon="10.3344896"><ele>377.5</ele><time>2026-04-26T15:36:27.6Z</time></trkpt><trkpt lat="32.8384403" lon="10.3343076"><ele>377.0</ele><time>2026-04-26T15:36:28.59Z</time></trkpt><trkpt lat="32.8384139" lon="10.3341202"><ele>377.0</ele><time>2026-04-26T15:36:29.602Z</time></trkpt><trkpt lat="32.8383889" lon="10.333926"><ele>377.0</ele><time>2026-04-26T15:36:30.601Z</time></trkpt><trkpt lat="32.8383651" lon="10.3337381"><ele>377.0</ele><time>2026-04-26T15:36:31.59Z</time></trkpt><trkpt lat="32.8383414" lon="10.3335442"><ele>377.0</ele><time>2026-04-26T15:36:32.606Z</time></trkpt><trkpt lat="32.8383193" lon="10.3333523"><ele>377.0</ele><time>2026-04-26T15:36:33.624Z</time></trkpt><trkpt lat="32.8382878" lon="10.3331517"><ele>377.0</ele><time>2026-04-26T15:36:34.597Z</time></trkpt><trkpt lat="32.8382551" lon="10.3329466"><ele>377.0</ele><time>2026-04-26T15:36:35.593Z</time></trkpt><trkpt lat="32.8382234" lon="10.3327367"><ele>377.0</ele><time>2026-04-26T15:36:36.594Z</time></trkpt><trkpt lat="32.8381859" lon="10.3325267"><ele>377.0</ele><time>2026-04-26T15:36:37.605Z</time></trkpt><trkpt lat="32.8381416" lon="10.3323182"><ele>377.33333333333337</ele><time>2026-04-26T15:36:38.6Z</time></trkpt><trkpt lat="32.8380987" lon="10.3321095"><ele>377.6666666666667</ele><time>2026-04-26T15:36:39.615Z</time></trkpt><trkpt lat="32.8380563" lon="10.3319039"><ele>378.0</ele><time>2026-04-26T15:36:40.606Z</time></trkpt><trkpt lat="32.8380251" lon="10.3316967"><ele>378.0</ele><time>2026-04-26T15:36:41.599Z</time></trkpt><trkpt lat="32.8380015" lon="10.3314891"><ele>378.0</ele><time>2026-04-26T15:36:42.586Z</time></trkpt><trkpt lat="32.8379874" lon="10.3312834"><ele>378.0</ele><time>2026-04-26T15:36:43.582Z</time></trkpt><trkpt lat="32.8379772" lon="10.331078"><ele>379.0</ele><time>2026-04-26T15:36:44.599Z</time></trkpt><trkpt lat="32.8379774" lon="10.3308774"><ele>380.0</ele><time>2026-04-26T15:36:45.595Z</time></trkpt><trkpt lat="32.8379914" lon="10.3306714"><ele>381.0</ele><time>2026-04-26T15:36:46.607Z</time></trkpt><trkpt lat="32.8380305" lon="10.3304615"><ele>382.0</ele><time>2026-04-26T15:36:47.583Z</time></trkpt><trkpt lat="32.8380728" lon="10.3302575"><ele>383.0</ele><time>2026-04-26T15:36:48.615Z</time></trkpt><trkpt lat="32.8381176" lon="10.3300587"><ele>384.0</ele><time>2026-04-26T15:36:49.581Z</time></trkpt><trkpt lat="32.8381626" lon="10.3298651"><ele>384.66666666666663</ele><time>2026-04-26T15:36:50.592Z</time></trkpt><trkpt lat="32.8382082" lon="10.3296752"><ele>385.3333333333333</ele><time>2026-04-26T15:36:51.591Z</time></trkpt><trkpt lat="32.8382528" lon="10.3294845"><ele>386.0</ele><time>2026-04-26T15:36:52.6Z</time></trkpt><trkpt lat="32.8382974" lon="10.3292888"><ele>386.0</ele><time>2026-04-26T15:36:53.592Z</time></trkpt><trkpt lat="32.8383459" lon="10.329095"><ele>386.0</ele><time>2026-04-26T15:36:54.604Z</time></trkpt><trkpt lat="32.838391" lon="10.3289053"><ele>386.0</ele><time>2026-04-26T15:36:55.608Z</time></trkpt><trkpt lat="32.8384369" lon="10.3287108"><ele>387.3333333333333</ele><time>2026-04-26T15:36:56.607Z</time></trkpt><trkpt lat="32.838485" lon="10.3285162"><ele>388.66666666666663</ele><time>2026-04-26T15:36:57.594Z</time></trkpt><trkpt lat="32.838536" lon="10.3283232"><ele>390.0</ele><time>2026-04-26T15:36:58.589Z</time></trkpt><trkpt lat="32.8385858" lon="10.3281331"><ele>390.5</ele><time>2026-04-26T15:36:59.594Z</time></trkpt><trkpt lat="32.8386298" lon="10.3279559"><ele>391.0</ele><time>2026-04-26T15:37:00.597Z</time></trkpt><trkpt lat="32.8386699" lon="10.3277897"><ele>391.5</ele><time>2026-04-26T15:37:01.606Z</time></trkpt><trkpt lat="32.8387094" lon="10.3276312"><ele>392.0</ele><time>2026-04-26T15:37:02.58Z</time></trkpt><trkpt lat="32.8387471" lon="10.3274818"><ele>392.0</ele><time>2026-04-26T15:37:03.59Z</time></trkpt><trkpt lat="32.8387857" lon="10.327341"><ele>392.0</ele><time>2026-04-26T15:37:04.594Z</time></trkpt><trkpt lat="32.8388205" lon="10.3272125"><ele>392.0</ele><time>2026-04-26T15:37:05.6Z</time></trkpt><trkpt lat="32.8388513" lon="10.327095"><ele>392.0</ele><time>2026-04-26T15:37:06.604Z</time></trkpt><trkpt lat="32.8388842" lon="10.326993"><ele>392.0</ele><time>2026-04-26T15:37:07.599Z</time></trkpt><trkpt lat="32.8389103" lon="10.3269107"><ele>392.2857142857143</ele><time>2026-04-26T15:37:08.617Z</time></trkpt><trkpt lat="32.8389246" lon="10.3268341"><ele>392.57142857142856</ele><time>2026-04-26T15:37:09.592Z</time></trkpt><trkpt lat="32.8389555" lon="10.3267148"><ele>392.8571428571429</ele><time>2026-04-26T15:37:11.607Z</time></trkpt><trkpt lat="32.8389752" lon="10.3266423"><ele>393.1428571428571</ele><time>2026-04-26T15:37:13.602Z</time></trkpt><trkpt lat="32.8389903" lon="10.3265633"><ele>393.42857142857144</ele><time>2026-04-26T15:37:16.584Z</time></trkpt><trkpt lat="32.8390158" lon="10.3264889"><ele>393.7142857142857</ele><time>2026-04-26T15:37:30.601Z</time></trkpt><trkpt lat="32.8390194" lon="10.3263979"><ele>394.0</ele><time>2026-04-26T15:37:32.589Z</time></trkpt><trkpt lat="32.8390299" lon="10.3263181"><ele>394.0</ele><time>2026-04-26T15:37:33.595Z</time></trkpt><trkpt lat="32.8390438" lon="10.3262337"><ele>394.0</ele><time>2026-04-26T15:37:34.588Z</time></trkpt><trkpt lat="32.839058" lon="10.3261206"><ele>394.0</ele><time>2026-04-26T15:37:35.603Z</time></trkpt><trkpt lat="32.8390661" lon="10.3260082"><ele>394.0</ele><time>2026-04-26T15:37:36.595Z</time></trkpt><trkpt lat="32.8390673" lon="10.3258893"><ele>394.0</ele><time>2026-04-26T15:37:37.597Z</time></trkpt><trkpt lat="32.8390769" lon="10.3257591"><ele>394.0</ele><time>2026-04-26T15:37:38.588Z</time></trkpt><trkpt lat="32.8390806" lon="10.3256262"><ele>394.0</ele><time>2026-04-26T15:37:39.585Z</time></trkpt><trkpt lat="32.839085" lon="10.3254831"><ele>394.0</ele><time>2026-04-26T15:37:40.599Z</time></trkpt><trkpt lat="32.8390929" lon="10.3253273"><ele>394.0</ele><time>2026-04-26T15:37:41.599Z</time></trkpt><trkpt lat="32.8391068" lon="10.3251597"><ele>394.33333333333337</ele><time>2026-04-26T15:37:42.588Z</time></trkpt><trkpt lat="32.8391205" lon="10.3249884"><ele>394.66666666666663</ele><time>2026-04-26T15:37:43.592Z</time></trkpt><trkpt lat="32.8391323" lon="10.3248078"><ele>395.0</ele><time>2026-04-26T15:37:44.588Z</time></trkpt><trkpt lat="32.8391467" lon="10.3246134"><ele>395.66666666666663</ele><time>2026-04-26T15:37:45.591Z</time></trkpt><trkpt lat="32.8391571" lon="10.32442"><ele>396.33333333333337</ele><time>2026-04-26T15:37:46.587Z</time></trkpt><trkpt lat="32.8391734" lon="10.3242179"><ele>397.0</ele><time>2026-04-26T15:37:47.597Z</time></trkpt><trkpt lat="32.8391934" lon="10.3240093"><ele>397.6666666666667</ele><time>2026-04-26T15:37:48.594Z</time></trkpt><trkpt lat="32.8392103" lon="10.3238093"><ele>398.33333333333337</ele><time>2026-04-26T15:37:49.6Z</time></trkpt><trkpt lat="32.8392246" lon="10.3236155"><ele>399.0</ele><time>2026-04-26T15:37:50.593Z</time></trkpt><trkpt lat="32.8392416" lon="10.3234201"><ele>399.0</ele><time>2026-04-26T15:37:51.603Z</time></trkpt><trkpt lat="32.8392609" lon="10.3232257"><ele>399.0</ele><time>2026-04-26T15:37:52.582Z</time></trkpt><trkpt lat="32.8392848" lon="10.3230299"><ele>399.0</ele><time>2026-04-26T15:37:53.581Z</time></trkpt><trkpt lat="32.8393176" lon="10.3228365"><ele>401.66666666666663</ele><time>2026-04-26T15:37:54.597Z</time></trkpt><trkpt lat="32.839356" lon="10.3226434"><ele>404.3333333333333</ele><time>2026-04-26T15:37:55.594Z</time></trkpt><trkpt lat="32.839398" lon="10.3224528"><ele>407.0</ele><time>2026-04-26T15:37:56.585Z</time></trkpt><trkpt lat="32.8394418" lon="10.3222573"><ele>407.3333333333333</ele><time>2026-04-26T15:37:57.601Z</time></trkpt><trkpt lat="32.8394869" lon="10.3220649"><ele>407.66666666666663</ele><time>2026-04-26T15:37:58.608Z</time></trkpt><trkpt lat="32.8395337" lon="10.3218755"><ele>408.0</ele><time>2026-04-26T15:37:59.599Z</time></trkpt><trkpt lat="32.839577" lon="10.3216897"><ele>408.0</ele><time>2026-04-26T15:38:00.602Z</time></trkpt><trkpt lat="32.8396225" lon="10.321501"><ele>408.0</ele><time>2026-04-26T15:38:01.603Z</time></trkpt><trkpt lat="32.8396678" lon="10.3213138"><ele>408.0</ele><time>2026-04-26T15:38:02.58Z</time></trkpt><trkpt lat="32.8397144" lon="10.3211275"><ele>409.0</ele><time>2026-04-26T15:38:03.603Z</time></trkpt><trkpt lat="32.8397591" lon="10.3209483"><ele>410.0</ele><time>2026-04-26T15:38:04.599Z</time></trkpt><trkpt lat="32.8398042" lon="10.3207712"><ele>411.0</ele><time>2026-04-26T15:38:05.587Z</time></trkpt><trkpt lat="32.8398461" lon="10.3205999"><ele>411.66666666666663</ele><time>2026-04-26T15:38:06.591Z</time></trkpt><trkpt lat="32.8398873" lon="10.320425"><ele>412.3333333333333</ele><time>2026-04-26T15:38:07.61Z</time></trkpt><trkpt lat="32.8399206" lon="10.3202511"><ele>413.0</ele><time>2026-04-26T15:38:08.604Z</time></trkpt><trkpt lat="32.839939" lon="10.3200757"><ele>413.0</ele><time>2026-04-26T15:38:09.609Z</time></trkpt><trkpt lat="32.839944" lon="10.3199048"><ele>413.0</ele><time>2026-04-26T15:38:10.59Z</time></trkpt><trkpt lat="32.8399363" lon="10.319738"><ele>413.0</ele><time>2026-04-26T15:38:11.61Z</time></trkpt><trkpt lat="32.8399234" lon="10.3195653"><ele>413.0</ele><time>2026-04-26T15:38:12.587Z</time></trkpt><trkpt lat="32.8399103" lon="10.3194033"><ele>412.75</ele><time>2026-04-26T15:38:13.6Z</time></trkpt><trkpt lat="32.8399004" lon="10.3192329"><ele>412.5</ele><time>2026-04-26T15:38:14.6Z</time></trkpt><trkpt lat="32.8398923" lon="10.3190607"><ele>412.25</ele><time>2026-04-26T15:38:15.608Z</time></trkpt><trkpt lat="32.839886" lon="10.3188961"><ele>412.0</ele><time>2026-04-26T15:38:16.601Z</time></trkpt><trkpt lat="32.839879" lon="10.3187304"><ele>411.5</ele><time>2026-04-26T15:38:17.595Z</time></trkpt><trkpt lat="32.8398785" lon="10.3185649"><ele>411.0</ele><time>2026-04-26T15:38:18.603Z</time></trkpt><trkpt lat="32.8398984" lon="10.3183971"><ele>410.5</ele><time>2026-04-26T15:38:19.597Z</time></trkpt><trkpt lat="32.8399306" lon="10.3182308"><ele>410.0</ele><time>2026-04-26T15:38:20.581Z</time></trkpt><trkpt lat="32.8399701" lon="10.3180614"><ele>410.0</ele><time>2026-04-26T15:38:21.609Z</time></trkpt><trkpt lat="32.8400166" lon="10.3178992"><ele>410.0</ele><time>2026-04-26T15:38:22.583Z</time></trkpt><trkpt lat="32.8400611" lon="10.3177554"><ele>410.0</ele><time>2026-04-26T15:38:23.591Z</time></trkpt><trkpt lat="32.8400984" lon="10.3176168"><ele>410.0</ele><time>2026-04-26T15:38:24.585Z</time></trkpt><trkpt lat="32.840132" lon="10.3174885"><ele>411.25</ele><time>2026-04-26T15:38:25.589Z</time></trkpt><trkpt lat="32.8401647" lon="10.317364"><ele>412.5</ele><time>2026-04-26T15:38:26.584Z</time></trkpt><trkpt lat="32.8401979" lon="10.3172315"><ele>413.75</ele><time>2026-04-26T15:38:27.588Z</time></trkpt><trkpt lat="32.8402309" lon="10.3170871"><ele>415.0</ele><time>2026-04-26T15:38:28.59Z</time></trkpt><trkpt lat="32.8402682" lon="10.3169374"><ele>415.0</ele><time>2026-04-26T15:38:29.597Z</time></trkpt><trkpt lat="32.8403088" lon="10.3167857"><ele>415.0</ele><time>2026-04-26T15:38:30.595Z</time></trkpt><trkpt lat="32.8403498" lon="10.3166297"><ele>415.0</ele><time>2026-04-26T15:38:31.598Z</time></trkpt><trkpt lat="32.8403926" lon="10.3164675"><ele>415.0</ele><time>2026-04-26T15:38:32.572Z</time></trkpt><trkpt lat="32.8404384" lon="10.3163059"><ele>415.5</ele><time>2026-04-26T15:38:33.59Z</time></trkpt><trkpt lat="32.84048" lon="10.3161476"><ele>416.0</ele><time>2026-04-26T15:38:34.593Z</time></trkpt><trkpt lat="32.8405146" lon="10.315988"><ele>416.5</ele><time>2026-04-26T15:38:35.599Z</time></trkpt><trkpt lat="32.8405527" lon="10.3158293"><ele>417.0</ele><time>2026-04-26T15:38:36.618Z</time></trkpt><trkpt lat="32.8405945" lon="10.3156657"><ele>417.5</ele><time>2026-04-26T15:38:37.606Z</time></trkpt><trkpt lat="32.8406309" lon="10.3155096"><ele>418.0</ele><time>2026-04-26T15:38:38.62Z</time></trkpt><trkpt lat="32.8406704" lon="10.3153525"><ele>418.5</ele><time>2026-04-26T15:38:39.607Z</time></trkpt><trkpt lat="32.8407073" lon="10.3151952"><ele>419.0</ele><time>2026-04-26T15:38:40.602Z</time></trkpt><trkpt lat="32.8407439" lon="10.315039"><ele>419.0</ele><time>2026-04-26T15:38:41.604Z</time></trkpt><trkpt lat="32.8407862" lon="10.3148793"><ele>419.0</ele><time>2026-04-26T15:38:42.617Z</time></trkpt><trkpt lat="32.8408331" lon="10.3147191"><ele>419.0</ele><time>2026-04-26T15:38:43.602Z</time></trkpt><trkpt lat="32.840892" lon="10.3145566"><ele>419.0</ele><time>2026-04-26T15:38:44.627Z</time></trkpt><trkpt lat="32.840958" lon="10.3143995"><ele>420.66666666666663</ele><time>2026-04-26T15:38:45.622Z</time></trkpt><trkpt lat="32.8410321" lon="10.3142339"><ele>422.33333333333337</ele><time>2026-04-26T15:38:46.628Z</time></trkpt><trkpt lat="32.8411128" lon="10.3140699"><ele>424.0</ele><time>2026-04-26T15:38:47.592Z</time></trkpt><trkpt lat="32.8411986" lon="10.313909"><ele>423.25</ele><time>2026-04-26T15:38:48.618Z</time></trkpt><trkpt lat="32.841283" lon="10.3137563"><ele>422.5</ele><time>2026-04-26T15:38:49.618Z</time></trkpt><trkpt lat="32.841369" lon="10.3136161"><ele>421.75</ele><time>2026-04-26T15:38:50.616Z</time></trkpt><trkpt lat="32.8414482" lon="10.3134648"><ele>421.0</ele><time>2026-04-26T15:38:51.598Z</time></trkpt><trkpt lat="32.841527" lon="10.3133096"><ele>421.0</ele><time>2026-04-26T15:38:52.616Z</time></trkpt><trkpt lat="32.841609" lon="10.3131409"><ele>421.0</ele><time>2026-04-26T15:38:53.631Z</time></trkpt><trkpt lat="32.8416807" lon="10.3129601"><ele>421.0</ele><time>2026-04-26T15:38:54.625Z</time></trkpt><trkpt lat="32.8417439" lon="10.3127935"><ele>421.75</ele><time>2026-04-26T15:38:55.623Z</time></trkpt><trkpt lat="32.8417998" lon="10.3126279"><ele>422.5</ele><time>2026-04-26T15:38:56.598Z</time></trkpt><trkpt lat="32.841851" lon="10.3124647"><ele>423.25</ele><time>2026-04-26T15:38:57.591Z</time></trkpt><trkpt lat="32.841899" lon="10.3123027"><ele>424.0</ele><time>2026-04-26T15:38:58.61Z</time></trkpt><trkpt lat="32.8419535" lon="10.312152"><ele>424.33333333333337</ele><time>2026-04-26T15:38:59.624Z</time></trkpt><trkpt lat="32.8420074" lon="10.3119965"><ele>424.66666666666663</ele><time>2026-04-26T15:39:00.607Z</time></trkpt><trkpt lat="32.8420711" lon="10.3118241"><ele>425.0</ele><time>2026-04-26T15:39:01.626Z</time></trkpt><trkpt lat="32.8421353" lon="10.3116484"><ele>425.0</ele><time>2026-04-26T15:39:02.609Z</time></trkpt><trkpt lat="32.8421957" lon="10.3114682"><ele>425.0</ele><time>2026-04-26T15:39:03.604Z</time></trkpt><trkpt lat="32.8422559" lon="10.3112795"><ele>425.0</ele><time>2026-04-26T15:39:04.615Z</time></trkpt><trkpt lat="32.8423108" lon="10.3110859"><ele>426.66666666666663</ele><time>2026-04-26T15:39:05.643Z</time></trkpt><trkpt lat="32.8423662" lon="10.3108922"><ele>428.33333333333337</ele><time>2026-04-26T15:39:06.65Z</time></trkpt><trkpt lat="32.8424279" lon="10.3106942"><ele>430.0</ele><time>2026-04-26T15:39:07.626Z</time></trkpt><trkpt lat="32.8424899" lon="10.3104878"><ele>431.33333333333337</ele><time>2026-04-26T15:39:08.63Z</time></trkpt><trkpt lat="32.8425506" lon="10.3102913"><ele>432.66666666666663</ele><time>2026-04-26T15:39:09.629Z</time></trkpt><trkpt lat="32.8426138" lon="10.3101"><ele>434.0</ele><time>2026-04-26T15:39:10.617Z</time></trkpt><trkpt lat="32.8426749" lon="10.3099206"><ele>443.0</ele><time>2026-04-26T15:39:11.629Z</time></trkpt><trkpt lat="32.8427258" lon="10.3097313"><ele>452.0</ele><time>2026-04-26T15:39:12.616Z</time></trkpt><trkpt lat="32.842764" lon="10.3095424"><ele>461.0</ele><time>2026-04-26T15:39:13.618Z</time></trkpt><trkpt lat="32.8427839" lon="10.3093439"><ele>461.0</ele><time>2026-04-26T15:39:14.614Z</time></trkpt><trkpt lat="32.8427883" lon="10.3091608"><ele>461.0</ele><time>2026-04-26T15:39:15.614Z</time></trkpt><trkpt lat="32.842789" lon="10.3089946"><ele>461.0</ele><time>2026-04-26T15:39:16.617Z</time></trkpt><trkpt lat="32.8427921" lon="10.3088344"><ele>461.0</ele><time>2026-04-26T15:39:17.635Z</time></trkpt><trkpt lat="32.8427955" lon="10.3086807"><ele>462.75</ele><time>2026-04-26T15:39:18.625Z</time></trkpt><trkpt lat="32.8428111" lon="10.3085456"><ele>464.5</ele><time>2026-04-26T15:39:19.623Z</time></trkpt><trkpt lat="32.8428446" lon="10.3084125"><ele>466.25</ele><time>2026-04-26T15:39:20.619Z</time></trkpt><trkpt lat="32.8428834" lon="10.3082688"><ele>468.0</ele><time>2026-04-26T15:39:21.6Z</time></trkpt><trkpt lat="32.8429303" lon="10.3081265"><ele>466.5</ele><time>2026-04-26T15:39:22.612Z</time></trkpt><trkpt lat="32.8429819" lon="10.3079968"><ele>465.0</ele><time>2026-04-26T15:39:23.61Z</time></trkpt><trkpt lat="32.8430396" lon="10.3078682"><ele>463.5</ele><time>2026-04-26T15:39:24.605Z</time></trkpt><trkpt lat="32.8430856" lon="10.3077442"><ele>462.0</ele><time>2026-04-26T15:39:25.62Z</time></trkpt><trkpt lat="32.8431204" lon="10.3076092"><ele>462.0</ele><time>2026-04-26T15:39:26.617Z</time></trkpt><trkpt lat="32.8431416" lon="10.307474"><ele>462.00000000000006</ele><time>2026-04-26T15:39:27.621Z</time></trkpt><trkpt lat="32.8431463" lon="10.3073445"><ele>462.00000000000006</ele><time>2026-04-26T15:39:28.617Z</time></trkpt><trkpt lat="32.8431511" lon="10.3072134"><ele>462.0</ele><time>2026-04-26T15:39:29.607Z</time></trkpt><trkpt lat="32.8431589" lon="10.3070951"><ele>462.0</ele><time>2026-04-26T15:39:30.604Z</time></trkpt><trkpt lat="32.8431686" lon="10.3069876"><ele>461.0</ele><time>2026-04-26T15:39:31.596Z</time></trkpt><trkpt lat="32.8431823" lon="10.3068895"><ele>460.0</ele><time>2026-04-26T15:39:32.602Z</time></trkpt><trkpt lat="32.8432062" lon="10.3067905"><ele>459.0</ele><time>2026-04-26T15:39:33.619Z</time></trkpt><trkpt lat="32.8432502" lon="10.3067123"><ele>458.0</ele><time>2026-04-26T15:39:34.601Z</time></trkpt><trkpt lat="32.8432981" lon="10.306627"><ele>457.0</ele><time>2026-04-26T15:39:35.62Z</time></trkpt><trkpt lat="32.8433517" lon="10.30655"><ele>456.0</ele><time>2026-04-26T15:39:36.612Z</time></trkpt><trkpt lat="32.8434064" lon="10.3064745"><ele>455.6666666666667</ele><time>2026-04-26T15:39:37.609Z</time></trkpt><trkpt lat="32.8434679" lon="10.3063948"><ele>455.33333333333337</ele><time>2026-04-26T15:39:38.614Z</time></trkpt><trkpt lat="32.8435299" lon="10.3063156"><ele>455.0</ele><time>2026-04-26T15:39:39.617Z</time></trkpt><trkpt lat="32.8435956" lon="10.3062332"><ele>454.6666666666667</ele><time>2026-04-26T15:39:40.598Z</time></trkpt><trkpt lat="32.8436528" lon="10.3061586"><ele>454.33333333333337</ele><time>2026-04-26T15:39:41.611Z</time></trkpt><trkpt lat="32.8437088" lon="10.3060868"><ele>454.0</ele><time>2026-04-26T15:39:42.626Z</time></trkpt><trkpt lat="32.843765" lon="10.3060106"><ele>454.0</ele><time>2026-04-26T15:39:43.616Z</time></trkpt><trkpt lat="32.8438199" lon="10.3059301"><ele>454.0</ele><time>2026-04-26T15:39:44.624Z</time></trkpt><trkpt lat="32.8438865" lon="10.3058548"><ele>454.0</ele><time>2026-04-26T15:39:45.579Z</time></trkpt><trkpt lat="32.8439655" lon="10.3057655"><ele>454.0</ele><time>2026-04-26T15:39:46.557Z</time></trkpt><trkpt lat="32.8440482" lon="10.3056618"><ele>454.0</ele><time>2026-04-26T15:39:47.603Z</time></trkpt><trkpt lat="32.8441335" lon="10.305559"><ele>455.75</ele><time>2026-04-26T15:39:48.622Z</time></trkpt><trkpt lat="32.844221" lon="10.3054484"><ele>457.5</ele><time>2026-04-26T15:39:49.585Z</time></trkpt><trkpt lat="32.8443092" lon="10.3053305"><ele>459.25</ele><time>2026-04-26T15:39:50.595Z</time></trkpt><trkpt lat="32.8443916" lon="10.3052172"><ele>461.0</ele><time>2026-04-26T15:39:51.595Z</time></trkpt><trkpt lat="32.8444611" lon="10.3051045"><ele>461.0</ele><time>2026-04-26T15:39:52.592Z</time></trkpt><trkpt lat="32.8445229" lon="10.3050025"><ele>461.0</ele><time>2026-04-26T15:39:53.64Z</time></trkpt><trkpt lat="32.8445705" lon="10.3048887"><ele>461.0</ele><time>2026-04-26T15:39:54.603Z</time></trkpt><trkpt lat="32.8445896" lon="10.3047653"><ele>461.0</ele><time>2026-04-26T15:39:55.607Z</time></trkpt><trkpt lat="32.8445882" lon="10.304634"><ele>461.0</ele><time>2026-04-26T15:39:56.598Z</time></trkpt><trkpt lat="32.844567" lon="10.3045165"><ele>460.20000000000005</ele><time>2026-04-26T15:39:57.591Z</time></trkpt><trkpt lat="32.8445411" lon="10.3044006"><ele>459.40000000000003</ele><time>2026-04-26T15:39:58.606Z</time></trkpt><trkpt lat="32.8445157" lon="10.3042877"><ele>458.6</ele><time>2026-04-26T15:39:59.607Z</time></trkpt><trkpt lat="32.8444963" lon="10.3041741"><ele>457.8</ele><time>2026-04-26T15:40:00.579Z</time></trkpt><trkpt lat="32.8444815" lon="10.3040569"><ele>457.0</ele><time>2026-04-26T15:40:01.599Z</time></trkpt><trkpt lat="32.8444678" lon="10.3039365"><ele>456.20000000000005</ele><time>2026-04-26T15:40:02.598Z</time></trkpt><trkpt lat="32.8444543" lon="10.3038165"><ele>455.40000000000003</ele><time>2026-04-26T15:40:03.598Z</time></trkpt><trkpt lat="32.8444408" lon="10.3036973"><ele>454.59999999999997</ele><time>2026-04-26T15:40:04.584Z</time></trkpt><trkpt lat="32.8444255" lon="10.3035832"><ele>453.79999999999995</ele><time>2026-04-26T15:40:05.597Z</time></trkpt><trkpt lat="32.844406" lon="10.3034784"><ele>453.0</ele><time>2026-04-26T15:40:06.607Z</time></trkpt><trkpt lat="32.8443883" lon="10.3033724"><ele>453.0</ele><time>2026-04-26T15:40:07.611Z</time></trkpt><trkpt lat="32.8443862" lon="10.3032539"><ele>452.99999999999994</ele><time>2026-04-26T15:40:08.612Z</time></trkpt><trkpt lat="32.8443994" lon="10.3031411"><ele>452.99999999999994</ele><time>2026-04-26T15:40:09.612Z</time></trkpt><trkpt lat="32.8444135" lon="10.3030248"><ele>453.0</ele><time>2026-04-26T15:40:10.613Z</time></trkpt><trkpt lat="32.8444342" lon="10.3029128"><ele>453.0</ele><time>2026-04-26T15:40:11.616Z</time></trkpt><trkpt lat="32.844466" lon="10.3028003"><ele>452.4</ele><time>2026-04-26T15:40:12.616Z</time></trkpt><trkpt lat="32.8445056" lon="10.3026928"><ele>451.79999999999995</ele><time>2026-04-26T15:40:13.592Z</time></trkpt><trkpt lat="32.8445502" lon="10.3025872"><ele>451.2</ele><time>2026-04-26T15:40:14.619Z</time></trkpt><trkpt lat="32.8445974" lon="10.3024973"><ele>450.6</ele><time>2026-04-26T15:40:15.623Z</time></trkpt><trkpt lat="32.84464" lon="10.3024114"><ele>450.0</ele><time>2026-04-26T15:40:16.571Z</time></trkpt><trkpt lat="32.8446817" lon="10.3023238"><ele>450.0</ele><time>2026-04-26T15:40:17.616Z</time></trkpt><trkpt lat="32.8447269" lon="10.302243"><ele>450.0</ele><time>2026-04-26T15:40:18.591Z</time></trkpt><trkpt lat="32.8447742" lon="10.3021653"><ele>450.0</ele><time>2026-04-26T15:40:19.615Z</time></trkpt><trkpt lat="32.8448154" lon="10.302086"><ele>450.0</ele><time>2026-04-26T15:40:20.612Z</time></trkpt><trkpt lat="32.8448608" lon="10.3020082"><ele>450.0</ele><time>2026-04-26T15:40:21.616Z</time></trkpt><trkpt lat="32.8449053" lon="10.3019246"><ele>450.0</ele><time>2026-04-26T15:40:22.622Z</time></trkpt><trkpt lat="32.8449515" lon="10.3018431"><ele>450.0</ele><time>2026-04-26T15:40:23.604Z</time></trkpt><trkpt lat="32.8449963" lon="10.3017538"><ele>450.0</ele><time>2026-04-26T15:40:24.611Z</time></trkpt><trkpt lat="32.8450587" lon="10.3016678"><ele>450.0</ele><time>2026-04-26T15:40:25.628Z</time></trkpt><trkpt lat="32.8451201" lon="10.3015602"><ele>450.0</ele><time>2026-04-26T15:40:26.614Z</time></trkpt><trkpt lat="32.8451809" lon="10.3014535"><ele>450.0</ele><time>2026-04-26T15:40:27.598Z</time></trkpt><trkpt lat="32.845248" lon="10.3013386"><ele>449.75</ele><time>2026-04-26T15:40:28.618Z</time></trkpt><trkpt lat="32.8453118" lon="10.3012294"><ele>449.5</ele><time>2026-04-26T15:40:29.626Z</time></trkpt><trkpt lat="32.8453781" lon="10.3011189"><ele>449.25</ele><time>2026-04-26T15:40:30.61Z</time></trkpt><trkpt lat="32.8454542" lon="10.3010054"><ele>449.0</ele><time>2026-04-26T15:40:31.623Z</time></trkpt><trkpt lat="32.845531" lon="10.3008877"><ele>449.0</ele><time>2026-04-26T15:40:32.589Z</time></trkpt><trkpt lat="32.8456047" lon="10.3007659"><ele>449.0</ele><time>2026-04-26T15:40:33.62Z</time></trkpt><trkpt lat="32.8456747" lon="10.3006415"><ele>449.0</ele><time>2026-04-26T15:40:34.557Z</time></trkpt><trkpt lat="32.8457462" lon="10.3005175"><ele>449.0</ele><time>2026-04-26T15:40:35.597Z</time></trkpt><trkpt lat="32.8458167" lon="10.3003853"><ele>449.25</ele><time>2026-04-26T15:40:36.608Z</time></trkpt><trkpt lat="32.8458913" lon="10.3002499"><ele>449.5</ele><time>2026-04-26T15:40:37.626Z</time></trkpt><trkpt lat="32.8459588" lon="10.3001209"><ele>449.75</ele><time>2026-04-26T15:40:38.624Z</time></trkpt><trkpt lat="32.8460181" lon="10.2999881"><ele>450.0</ele><time>2026-04-26T15:40:39.615Z</time></trkpt><trkpt lat="32.8460736" lon="10.2998593"><ele>449.75</ele><time>2026-04-26T15:40:40.627Z</time></trkpt><trkpt lat="32.8461225" lon="10.2997301"><ele>449.5</ele><time>2026-04-26T15:40:41.623Z</time></trkpt><trkpt lat="32.8461695" lon="10.2995965"><ele>449.25</ele><time>2026-04-26T15:40:42.626Z</time></trkpt><trkpt lat="32.8462056" lon="10.2994468"><ele>449.0</ele><time>2026-04-26T15:40:43.637Z</time></trkpt><trkpt lat="32.8462347" lon="10.2992812"><ele>449.0</ele><time>2026-04-26T15:40:44.62Z</time></trkpt><trkpt lat="32.8462557" lon="10.2991009"><ele>449.0</ele><time>2026-04-26T15:40:45.586Z</time></trkpt><trkpt lat="32.8462643" lon="10.2989173"><ele>449.0</ele><time>2026-04-26T15:40:46.609Z</time></trkpt><trkpt lat="32.8462715" lon="10.2987291"><ele>448.0</ele><time>2026-04-26T15:40:47.559Z</time></trkpt><trkpt lat="32.8462804" lon="10.2985294"><ele>447.0</ele><time>2026-04-26T15:40:48.584Z</time></trkpt><trkpt lat="32.8462816" lon="10.2983338"><ele>446.0</ele><time>2026-04-26T15:40:49.601Z</time></trkpt><trkpt lat="32.8462681" lon="10.2981321"><ele>446.3333333333333</ele><time>2026-04-26T15:40:50.558Z</time></trkpt><trkpt lat="32.846247" lon="10.2979367"><ele>446.66666666666663</ele><time>2026-04-26T15:40:51.556Z</time></trkpt><trkpt lat="32.8462231" lon="10.2977409"><ele>447.0</ele><time>2026-04-26T15:40:52.56Z</time></trkpt><trkpt lat="32.8462059" lon="10.2975599"><ele>447.0</ele><time>2026-04-26T15:40:53.557Z</time></trkpt><trkpt lat="32.8462024" lon="10.2973786"><ele>447.0</ele><time>2026-04-26T15:40:54.562Z</time></trkpt><trkpt lat="32.8462145" lon="10.2972074"><ele>447.0</ele><time>2026-04-26T15:40:55.558Z</time></trkpt><trkpt lat="32.8462481" lon="10.2970328"><ele>447.0</ele><time>2026-04-26T15:40:56.562Z</time></trkpt><trkpt lat="32.8463079" lon="10.2968826"><ele>446.75</ele><time>2026-04-26T15:40:57.595Z</time></trkpt><trkpt lat="32.8463926" lon="10.2967373"><ele>446.5</ele><time>2026-04-26T15:40:58.598Z</time></trkpt><trkpt lat="32.8464831" lon="10.2966079"><ele>446.25</ele><time>2026-04-26T15:40:59.603Z</time></trkpt><trkpt lat="32.8465952" lon="10.2964815"><ele>446.0</ele><time>2026-04-26T15:41:00.61Z</time></trkpt><trkpt lat="32.8467047" lon="10.2963629"><ele>445.75</ele><time>2026-04-26T15:41:01.594Z</time></trkpt><trkpt lat="32.8468069" lon="10.2962463"><ele>445.5</ele><time>2026-04-26T15:41:02.601Z</time></trkpt><trkpt lat="32.8469157" lon="10.2961283"><ele>445.25</ele><time>2026-04-26T15:41:03.621Z</time></trkpt><trkpt lat="32.8470159" lon="10.2960227"><ele>445.0</ele><time>2026-04-26T15:41:04.599Z</time></trkpt><trkpt lat="32.8471179" lon="10.295916"><ele>445.0</ele><time>2026-04-26T15:41:05.602Z</time></trkpt><trkpt lat="32.8472158" lon="10.2958255"><ele>445.0</ele><time>2026-04-26T15:41:06.612Z</time></trkpt><trkpt lat="32.8473087" lon="10.2957341"><ele>445.0</ele><time>2026-04-26T15:41:07.587Z</time></trkpt><trkpt lat="32.8473964" lon="10.2956492"><ele>445.0</ele><time>2026-04-26T15:41:08.594Z</time></trkpt><trkpt lat="32.8474725" lon="10.2955606"><ele>444.6</ele><time>2026-04-26T15:41:09.605Z</time></trkpt><trkpt lat="32.8475517" lon="10.2954737"><ele>444.2</ele><time>2026-04-26T15:41:10.604Z</time></trkpt><trkpt lat="32.847635" lon="10.2953824"><ele>443.79999999999995</ele><time>2026-04-26T15:41:11.6Z</time></trkpt><trkpt lat="32.8477232" lon="10.2953002"><ele>443.4</ele><time>2026-04-26T15:41:12.608Z</time></trkpt><trkpt lat="32.8478042" lon="10.2952109"><ele>443.0</ele><time>2026-04-26T15:41:13.576Z</time></trkpt><trkpt lat="32.8478906" lon="10.295119"><ele>443.0</ele><time>2026-04-26T15:41:14.612Z</time></trkpt><trkpt lat="32.8479856" lon="10.2950267"><ele>443.0</ele><time>2026-04-26T15:41:15.619Z</time></trkpt><trkpt lat="32.8480716" lon="10.2949392"><ele>443.0</ele><time>2026-04-26T15:41:16.593Z</time></trkpt><trkpt lat="32.8481668" lon="10.294846"><ele>443.0</ele><time>2026-04-26T15:41:17.618Z</time></trkpt><trkpt lat="32.8482592" lon="10.2947463"><ele>442.75</ele><time>2026-04-26T15:41:18.587Z</time></trkpt><trkpt lat="32.8483501" lon="10.2946471"><ele>442.5</ele><time>2026-04-26T15:41:19.611Z</time></trkpt><trkpt lat="32.8484544" lon="10.2945483"><ele>442.25</ele><time>2026-04-26T15:41:20.586Z</time></trkpt><trkpt lat="32.8485572" lon="10.2944502"><ele>442.0</ele><time>2026-04-26T15:41:21.61Z</time></trkpt><trkpt lat="32.8486565" lon="10.2943423"><ele>442.0</ele><time>2026-04-26T15:41:22.565Z</time></trkpt><trkpt lat="32.8487587" lon="10.2942403"><ele>442.0</ele><time>2026-04-26T15:41:23.598Z</time></trkpt><trkpt lat="32.8488638" lon="10.2941324"><ele>442.0</ele><time>2026-04-26T15:41:24.596Z</time></trkpt><trkpt lat="32.8489716" lon="10.2940251"><ele>442.0</ele><time>2026-04-26T15:41:25.617Z</time></trkpt><trkpt lat="32.8490833" lon="10.2939161"><ele>442.0</ele><time>2026-04-26T15:41:26.603Z</time></trkpt><trkpt lat="32.8492008" lon="10.293805"><ele>442.0</ele><time>2026-04-26T15:41:27.605Z</time></trkpt><trkpt lat="32.8493168" lon="10.2936908"><ele>442.0</ele><time>2026-04-26T15:41:28.584Z</time></trkpt><trkpt lat="32.8494456" lon="10.2935797"><ele>442.0</ele><time>2026-04-26T15:41:29.602Z</time></trkpt><trkpt lat="32.8495806" lon="10.293473"><ele>442.0</ele><time>2026-04-26T15:41:30.585Z</time></trkpt><trkpt lat="32.8497189" lon="10.2933671"><ele>442.0</ele><time>2026-04-26T15:41:31.613Z</time></trkpt><trkpt lat="32.8498517" lon="10.29326"><ele>442.0</ele><time>2026-04-26T15:41:32.599Z</time></trkpt><trkpt lat="32.8499898" lon="10.2931519"><ele>442.0</ele><time>2026-04-26T15:41:33.597Z</time></trkpt><trkpt lat="32.8501283" lon="10.2930379"><ele>442.0</ele><time>2026-04-26T15:41:34.627Z</time></trkpt><trkpt lat="32.8502585" lon="10.2929277"><ele>441.33333333333337</ele><time>2026-04-26T15:41:35.596Z</time></trkpt><trkpt lat="32.8503904" lon="10.2928147"><ele>440.66666666666663</ele><time>2026-04-26T15:41:36.603Z</time></trkpt><trkpt lat="32.8505179" lon="10.2927033"><ele>440.0</ele><time>2026-04-26T15:41:37.619Z</time></trkpt><trkpt lat="32.8506476" lon="10.2925958"><ele>440.0</ele><time>2026-04-26T15:41:38.623Z</time></trkpt><trkpt lat="32.8507715" lon="10.2924922"><ele>440.0</ele><time>2026-04-26T15:41:39.605Z</time></trkpt><trkpt lat="32.8508998" lon="10.2923884"><ele>440.0</ele><time>2026-04-26T15:41:40.621Z</time></trkpt><trkpt lat="32.8510266" lon="10.2922876"><ele>439.3333333333333</ele><time>2026-04-26T15:41:41.619Z</time></trkpt><trkpt lat="32.8511581" lon="10.2921905"><ele>438.66666666666663</ele><time>2026-04-26T15:41:42.611Z</time></trkpt><trkpt lat="32.8512971" lon="10.292101"><ele>438.0</ele><time>2026-04-26T15:41:43.602Z</time></trkpt><trkpt lat="32.8514428" lon="10.2920397"><ele>438.0</ele><time>2026-04-26T15:41:44.618Z</time></trkpt><trkpt lat="32.851597" lon="10.2920065"><ele>438.0</ele><time>2026-04-26T15:41:45.59Z</time></trkpt><trkpt lat="32.8517461" lon="10.291989"><ele>438.0</ele><time>2026-04-26T15:41:46.573Z</time></trkpt><trkpt lat="32.8518952" lon="10.2919756"><ele>438.5</ele><time>2026-04-26T15:41:47.572Z</time></trkpt><trkpt lat="32.8520504" lon="10.2919567"><ele>439.0</ele><time>2026-04-26T15:41:48.582Z</time></trkpt><trkpt lat="32.8521972" lon="10.2919367"><ele>439.5</ele><time>2026-04-26T15:41:49.602Z</time></trkpt><trkpt lat="32.8523414" lon="10.2919164"><ele>440.0</ele><time>2026-04-26T15:41:50.598Z</time></trkpt><trkpt lat="32.8524854" lon="10.2918921"><ele>440.5</ele><time>2026-04-26T15:41:51.607Z</time></trkpt><trkpt lat="32.8526251" lon="10.291865"><ele>441.0</ele><time>2026-04-26T15:41:52.61Z</time></trkpt><trkpt lat="32.8527675" lon="10.2918432"><ele>441.5</ele><time>2026-04-26T15:41:53.622Z</time></trkpt><trkpt lat="32.8529034" lon="10.2918203"><ele>442.0</ele><time>2026-04-26T15:41:54.619Z</time></trkpt><trkpt lat="32.8530465" lon="10.2917955"><ele>442.0</ele><time>2026-04-26T15:41:55.627Z</time></trkpt><trkpt lat="32.8531741" lon="10.2917652"><ele>442.0</ele><time>2026-04-26T15:41:56.603Z</time></trkpt><trkpt lat="32.8532977" lon="10.2917313"><ele>442.0</ele><time>2026-04-26T15:41:57.632Z</time></trkpt><trkpt lat="32.8534246" lon="10.2916856"><ele>442.0</ele><time>2026-04-26T15:41:58.58Z</time></trkpt><trkpt lat="32.853557" lon="10.2916378"><ele>441.5</ele><time>2026-04-26T15:41:59.611Z</time></trkpt><trkpt lat="32.8536906" lon="10.2915911"><ele>441.0</ele><time>2026-04-26T15:42:00.612Z</time></trkpt><trkpt lat="32.8538203" lon="10.2915394"><ele>440.5</ele><time>2026-04-26T15:42:01.625Z</time></trkpt><trkpt lat="32.853948" lon="10.2914898"><ele>440.0</ele><time>2026-04-26T15:42:02.619Z</time></trkpt><trkpt lat="32.8540702" lon="10.2914364"><ele>439.75</ele><time>2026-04-26T15:42:03.62Z</time></trkpt><trkpt lat="32.8541804" lon="10.2913835"><ele>439.5</ele><time>2026-04-26T15:42:04.621Z</time></trkpt><trkpt lat="32.8542913" lon="10.2913365"><ele>439.25</ele><time>2026-04-26T15:42:05.626Z</time></trkpt><trkpt lat="32.8544081" lon="10.2912912"><ele>439.0</ele><time>2026-04-26T15:42:06.612Z</time></trkpt><trkpt lat="32.854523" lon="10.2912534"><ele>438.4</ele><time>2026-04-26T15:42:07.621Z</time></trkpt><trkpt lat="32.8546346" lon="10.2912256"><ele>437.79999999999995</ele><time>2026-04-26T15:42:08.594Z</time></trkpt><trkpt lat="32.8547432" lon="10.2912079"><ele>437.20000000000005</ele><time>2026-04-26T15:42:09.609Z</time></trkpt><trkpt lat="32.8548445" lon="10.2912003"><ele>436.6</ele><time>2026-04-26T15:42:10.606Z</time></trkpt><trkpt lat="32.8549412" lon="10.2911971"><ele>436.0</ele><time>2026-04-26T15:42:11.599Z</time></trkpt><trkpt lat="32.8550367" lon="10.2911947"><ele>437.0</ele><time>2026-04-26T15:42:12.613Z</time></trkpt><trkpt lat="32.8551286" lon="10.29119"><ele>438.0</ele><time>2026-04-26T15:42:13.621Z</time></trkpt><trkpt lat="32.8552224" lon="10.2911834"><ele>439.0</ele><time>2026-04-26T15:42:14.594Z</time></trkpt><trkpt lat="32.8553194" lon="10.2911807"><ele>440.0</ele><time>2026-04-26T15:42:15.629Z</time></trkpt><trkpt lat="32.855408" lon="10.2911715"><ele>441.0</ele><time>2026-04-26T15:42:16.596Z</time></trkpt><trkpt lat="32.8555003" lon="10.2911591"><ele>441.0</ele><time>2026-04-26T15:42:17.609Z</time></trkpt><trkpt lat="32.855585" lon="10.2911499"><ele>441.0</ele><time>2026-04-26T15:42:18.62Z</time></trkpt><trkpt lat="32.8556609" lon="10.2911458"><ele>441.0</ele><time>2026-04-26T15:42:19.614Z</time></trkpt><trkpt lat="32.8557336" lon="10.2911393"><ele>441.0</ele><time>2026-04-26T15:42:20.565Z</time></trkpt><trkpt lat="32.8558154" lon="10.2911364"><ele>441.0</ele><time>2026-04-26T15:42:21.608Z</time></trkpt><trkpt lat="32.8558983" lon="10.2911353"><ele>441.0</ele><time>2026-04-26T15:42:22.612Z</time></trkpt><trkpt lat="32.8559787" lon="10.291124"><ele>441.6666666666667</ele><time>2026-04-26T15:42:23.586Z</time></trkpt><trkpt lat="32.8560672" lon="10.2911119"><ele>442.33333333333337</ele><time>2026-04-26T15:42:24.628Z</time></trkpt><trkpt lat="32.8561569" lon="10.2911096"><ele>443.0</ele><time>2026-04-26T15:42:25.621Z</time></trkpt><trkpt lat="32.8562412" lon="10.2911055"><ele>443.6666666666667</ele><time>2026-04-26T15:42:26.61Z</time></trkpt><trkpt lat="32.8563272" lon="10.2911068"><ele>444.33333333333337</ele><time>2026-04-26T15:42:27.613Z</time></trkpt><trkpt lat="32.8564116" lon="10.2911042"><ele>445.0</ele><time>2026-04-26T15:42:28.617Z</time></trkpt><trkpt lat="32.8565025" lon="10.2910995"><ele>445.00000000000006</ele><time>2026-04-26T15:42:29.618Z</time></trkpt><trkpt lat="32.8565927" lon="10.2910986"><ele>445.0</ele><time>2026-04-26T15:42:30.616Z</time></trkpt><trkpt lat="32.8566809" lon="10.2910994"><ele>445.0</ele><time>2026-04-26T15:42:31.582Z</time></trkpt><trkpt lat="32.8567647" lon="10.2911033"><ele>445.0</ele><time>2026-04-26T15:42:32.585Z</time></trkpt><trkpt lat="32.8568436" lon="10.2910959"><ele>445.00000000000006</ele><time>2026-04-26T15:42:33.616Z</time></trkpt><trkpt lat="32.856921" lon="10.2910736"><ele>445.0</ele><time>2026-04-26T15:42:34.615Z</time></trkpt><trkpt lat="32.8569938" lon="10.2910329"><ele>445.50000000000006</ele><time>2026-04-26T15:42:35.599Z</time></trkpt><trkpt lat="32.8570506" lon="10.2909631"><ele>446.0</ele><time>2026-04-26T15:42:36.613Z</time></trkpt><trkpt lat="32.8570916" lon="10.2908674"><ele>446.5</ele><time>2026-04-26T15:42:37.611Z</time></trkpt><trkpt lat="32.8571187" lon="10.2907677"><ele>447.0</ele><time>2026-04-26T15:42:38.627Z</time></trkpt><trkpt lat="32.8571354" lon="10.2906714"><ele>447.50000000000006</ele><time>2026-04-26T15:42:39.59Z</time></trkpt><trkpt lat="32.8571482" lon="10.2905651"><ele>448.0</ele><time>2026-04-26T15:42:40.624Z</time></trkpt><trkpt lat="32.8571575" lon="10.2904504"><ele>448.0</ele><time>2026-04-26T15:42:41.599Z</time></trkpt><trkpt lat="32.8571585" lon="10.290333"><ele>447.99999999999994</ele><time>2026-04-26T15:42:42.591Z</time></trkpt><trkpt lat="32.8571582" lon="10.2902143"><ele>447.99999999999994</ele><time>2026-04-26T15:42:43.599Z</time></trkpt><trkpt lat="32.857154" lon="10.2901055"><ele>448.0</ele><time>2026-04-26T15:42:44.604Z</time></trkpt><trkpt lat="32.857153" lon="10.2900044"><ele>448.0</ele><time>2026-04-26T15:42:45.602Z</time></trkpt><trkpt lat="32.8571476" lon="10.2898991"><ele>448.0</ele><time>2026-04-26T15:42:46.598Z</time></trkpt><trkpt lat="32.8571425" lon="10.2897984"><ele>447.99999999999994</ele><time>2026-04-26T15:42:47.616Z</time></trkpt><trkpt lat="32.857135" lon="10.2896954"><ele>447.99999999999994</ele><time>2026-04-26T15:42:48.612Z</time></trkpt><trkpt lat="32.8571287" lon="10.2895822"><ele>448.0</ele><time>2026-04-26T15:42:49.608Z</time></trkpt><trkpt lat="32.8571165" lon="10.2894716"><ele>448.0</ele><time>2026-04-26T15:42:50.595Z</time></trkpt><trkpt lat="32.8570984" lon="10.2893569"><ele>447.79999999999995</ele><time>2026-04-26T15:42:51.617Z</time></trkpt><trkpt lat="32.8570754" lon="10.2892504"><ele>447.59999999999997</ele><time>2026-04-26T15:42:52.588Z</time></trkpt><trkpt lat="32.8570444" lon="10.289137"><ele>447.40000000000003</ele><time>2026-04-26T15:42:53.621Z</time></trkpt><trkpt lat="32.8570132" lon="10.2890299"><ele>447.20000000000005</ele><time>2026-04-26T15:42:54.614Z</time></trkpt><trkpt lat="32.8569783" lon="10.2889305"><ele>447.0</ele><time>2026-04-26T15:42:55.57Z</time></trkpt><trkpt lat="32.8569475" lon="10.2888345"><ele>447.0</ele><time>2026-04-26T15:42:56.603Z</time></trkpt><trkpt lat="32.8569195" lon="10.288736"><ele>447.0</ele><time>2026-04-26T15:42:57.598Z</time></trkpt><trkpt lat="32.8568908" lon="10.2886399"><ele>447.0</ele><time>2026-04-26T15:42:58.622Z</time></trkpt><trkpt lat="32.8568674" lon="10.2885398"><ele>447.0</ele><time>2026-04-26T15:42:59.609Z</time></trkpt><trkpt lat="32.8568436" lon="10.2884409"><ele>447.0</ele><time>2026-04-26T15:43:00.619Z</time></trkpt><trkpt lat="32.8568155" lon="10.2883451"><ele>447.0</ele><time>2026-04-26T15:43:01.612Z</time></trkpt><trkpt lat="32.8567785" lon="10.2882529"><ele>446.1666666666667</ele><time>2026-04-26T15:43:02.614Z</time></trkpt><trkpt lat="32.8567397" lon="10.2881727"><ele>445.33333333333337</ele><time>2026-04-26T15:43:03.628Z</time></trkpt><trkpt lat="32.8566902" lon="10.2880988"><ele>444.5</ele><time>2026-04-26T15:43:04.621Z</time></trkpt><trkpt lat="32.8566203" lon="10.2880424"><ele>443.6666666666667</ele><time>2026-04-26T15:43:05.608Z</time></trkpt><trkpt lat="32.8565386" lon="10.2879913"><ele>442.83333333333337</ele><time>2026-04-26T15:43:06.622Z</time></trkpt><trkpt lat="32.8564528" lon="10.2879454"><ele>442.0</ele><time>2026-04-26T15:43:07.593Z</time></trkpt><trkpt lat="32.8563699" lon="10.287909"><ele>442.00000000000006</ele><time>2026-04-26T15:43:08.615Z</time></trkpt><trkpt lat="32.8562828" lon="10.2878753"><ele>442.0</ele><time>2026-04-26T15:43:09.615Z</time></trkpt><trkpt lat="32.856202" lon="10.2878443"><ele>442.0</ele><time>2026-04-26T15:43:10.612Z</time></trkpt><trkpt lat="32.8561226" lon="10.2878019"><ele>442.0</ele><time>2026-04-26T15:43:11.606Z</time></trkpt><trkpt lat="32.8560486" lon="10.2877618"><ele>442.00000000000006</ele><time>2026-04-26T15:43:12.615Z</time></trkpt><trkpt lat="32.855981" lon="10.2877107"><ele>442.0</ele><time>2026-04-26T15:43:13.621Z</time></trkpt><trkpt lat="32.8559306" lon="10.2876389"><ele>441.6666666666667</ele><time>2026-04-26T15:43:14.618Z</time></trkpt><trkpt lat="32.8558904" lon="10.2875588"><ele>441.33333333333337</ele><time>2026-04-26T15:43:15.612Z</time></trkpt><trkpt lat="32.8558578" lon="10.2874673"><ele>441.0</ele><time>2026-04-26T15:43:16.609Z</time></trkpt><trkpt lat="32.8558369" lon="10.2873729"><ele>440.66666666666663</ele><time>2026-04-26T15:43:17.594Z</time></trkpt><trkpt lat="32.8558167" lon="10.287277"><ele>440.3333333333333</ele><time>2026-04-26T15:43:18.614Z</time></trkpt><trkpt lat="32.8558084" lon="10.2871695"><ele>440.0</ele><time>2026-04-26T15:43:19.614Z</time></trkpt><trkpt lat="32.8558036" lon="10.2870547"><ele>439.6</ele><time>2026-04-26T15:43:20.604Z</time></trkpt><trkpt lat="32.8557935" lon="10.2869428"><ele>439.2</ele><time>2026-04-26T15:43:21.611Z</time></trkpt><trkpt lat="32.8557767" lon="10.2868254"><ele>438.79999999999995</ele><time>2026-04-26T15:43:22.605Z</time></trkpt><trkpt lat="32.8557619" lon="10.2867125"><ele>438.4</ele><time>2026-04-26T15:43:23.611Z</time></trkpt><trkpt lat="32.8557472" lon="10.2866014"><ele>438.0</ele><time>2026-04-26T15:43:24.615Z</time></trkpt><trkpt lat="32.8557293" lon="10.2864871"><ele>437.59999999999997</ele><time>2026-04-26T15:43:25.611Z</time></trkpt><trkpt lat="32.8557146" lon="10.2863737"><ele>437.19999999999993</ele><time>2026-04-26T15:43:26.595Z</time></trkpt><trkpt lat="32.8557025" lon="10.2862576"><ele>436.8</ele><time>2026-04-26T15:43:27.613Z</time></trkpt><trkpt lat="32.8556952" lon="10.2861522"><ele>436.4</ele><time>2026-04-26T15:43:28.618Z</time></trkpt><trkpt lat="32.8556802" lon="10.2860412"><ele>436.0</ele><time>2026-04-26T15:43:29.613Z</time></trkpt><trkpt lat="32.8556538" lon="10.2859272"><ele>436.0</ele><time>2026-04-26T15:43:30.619Z</time></trkpt><trkpt lat="32.8556046" lon="10.2858158"><ele>436.0</ele><time>2026-04-26T15:43:31.616Z</time></trkpt><trkpt lat="32.8555367" lon="10.2856862"><ele>436.0</ele><time>2026-04-26T15:43:32.621Z</time></trkpt><trkpt lat="32.855454" lon="10.2855617"><ele>436.0</ele><time>2026-04-26T15:43:33.634Z</time></trkpt><trkpt lat="32.8553613" lon="10.2854385"><ele>436.0</ele><time>2026-04-26T15:43:34.616Z</time></trkpt><trkpt lat="32.8552605" lon="10.2853145"><ele>436.0</ele><time>2026-04-26T15:43:35.609Z</time></trkpt><trkpt lat="32.8551614" lon="10.2851967"><ele>436.0</ele><time>2026-04-26T15:43:36.615Z</time></trkpt><trkpt lat="32.855066" lon="10.285079"><ele>436.0</ele><time>2026-04-26T15:43:37.629Z</time></trkpt><trkpt lat="32.8549672" lon="10.2849554"><ele>435.25</ele><time>2026-04-26T15:43:38.599Z</time></trkpt><trkpt lat="32.8548675" lon="10.284824"><ele>434.5</ele><time>2026-04-26T15:43:39.624Z</time></trkpt><trkpt lat="32.8547691" lon="10.2847016"><ele>433.75</ele><time>2026-04-26T15:43:40.615Z</time></trkpt><trkpt lat="32.8546722" lon="10.2845848"><ele>433.0</ele><time>2026-04-26T15:43:41.579Z</time></trkpt><trkpt lat="32.8545737" lon="10.2844618"><ele>433.0</ele><time>2026-04-26T15:43:42.594Z</time></trkpt><trkpt lat="32.8544706" lon="10.2843423"><ele>433.0</ele><time>2026-04-26T15:43:43.576Z</time></trkpt><trkpt lat="32.8543737" lon="10.2842208"><ele>433.0</ele><time>2026-04-26T15:43:44.59Z</time></trkpt><trkpt lat="32.8542741" lon="10.2840933"><ele>433.0</ele><time>2026-04-26T15:43:45.619Z</time></trkpt><trkpt lat="32.8541744" lon="10.283959"><ele>431.6666666666667</ele><time>2026-04-26T15:43:46.617Z</time></trkpt><trkpt lat="32.8540686" lon="10.2838246"><ele>430.33333333333337</ele><time>2026-04-26T15:43:47.619Z</time></trkpt><trkpt lat="32.8539595" lon="10.2836845"><ele>429.0</ele><time>2026-04-26T15:43:48.629Z</time></trkpt><trkpt lat="32.85385" lon="10.283544"><ele>429.0</ele><time>2026-04-26T15:43:49.62Z</time></trkpt><trkpt lat="32.8537409" lon="10.2833978"><ele>429.0</ele><time>2026-04-26T15:43:50.614Z</time></trkpt><trkpt lat="32.8536303" lon="10.2832405"><ele>429.0</ele><time>2026-04-26T15:43:51.611Z</time></trkpt><trkpt lat="32.8535316" lon="10.2830854"><ele>428.66666666666663</ele><time>2026-04-26T15:43:52.607Z</time></trkpt><trkpt lat="32.853433" lon="10.2829189"><ele>428.3333333333333</ele><time>2026-04-26T15:43:53.615Z</time></trkpt><trkpt lat="32.8533331" lon="10.2827471"><ele>428.0</ele><time>2026-04-26T15:43:54.621Z</time></trkpt><trkpt lat="32.8532297" lon="10.2825801"><ele>428.0</ele><time>2026-04-26T15:43:55.627Z</time></trkpt><trkpt lat="32.853128" lon="10.2824208"><ele>428.0</ele><time>2026-04-26T15:43:56.621Z</time></trkpt><trkpt lat="32.8530246" lon="10.2822588"><ele>428.0</ele><time>2026-04-26T15:43:57.617Z</time></trkpt><trkpt lat="32.8529268" lon="10.2821037"><ele>428.3333333333333</ele><time>2026-04-26T15:43:58.622Z</time></trkpt><trkpt lat="32.8528186" lon="10.2819649"><ele>428.66666666666663</ele><time>2026-04-26T15:43:59.578Z</time></trkpt><trkpt lat="32.8526908" lon="10.2818534"><ele>429.0</ele><time>2026-04-26T15:44:00.62Z</time></trkpt><trkpt lat="32.8525395" lon="10.2817573"><ele>428.33333333333337</ele><time>2026-04-26T15:44:01.606Z</time></trkpt><trkpt lat="32.8523807" lon="10.2816798"><ele>427.6666666666667</ele><time>2026-04-26T15:44:02.624Z</time></trkpt><trkpt lat="32.8522175" lon="10.2816107"><ele>427.0</ele><time>2026-04-26T15:44:03.611Z</time></trkpt><trkpt lat="32.8520556" lon="10.2815453"><ele>427.0</ele><time>2026-04-26T15:44:04.592Z</time></trkpt><trkpt lat="32.8518943" lon="10.2814697"><ele>427.0</ele><time>2026-04-26T15:44:05.624Z</time></trkpt><trkpt lat="32.8517323" lon="10.281391"><ele>427.0</ele><time>2026-04-26T15:44:06.612Z</time></trkpt><trkpt lat="32.8515662" lon="10.2813169"><ele>425.6666666666667</ele><time>2026-04-26T15:44:07.609Z</time></trkpt><trkpt lat="32.8513973" lon="10.2812407"><ele>424.33333333333337</ele><time>2026-04-26T15:44:08.601Z</time></trkpt><trkpt lat="32.8512331" lon="10.281156"><ele>423.0</ele><time>2026-04-26T15:44:09.594Z</time></trkpt><trkpt lat="32.8510709" lon="10.2810626"><ele>423.0</ele><time>2026-04-26T15:44:10.619Z</time></trkpt><trkpt lat="32.8509147" lon="10.2809688"><ele>423.0</ele><time>2026-04-26T15:44:11.621Z</time></trkpt><trkpt lat="32.8507628" lon="10.2808784"><ele>423.0</ele><time>2026-04-26T15:44:12.613Z</time></trkpt><trkpt lat="32.8506088" lon="10.2807859"><ele>423.0</ele><time>2026-04-26T15:44:13.622Z</time></trkpt><trkpt lat="32.8504512" lon="10.2806964"><ele>423.0</ele><time>2026-04-26T15:44:14.595Z</time></trkpt><trkpt lat="32.8502944" lon="10.2806039"><ele>423.0</ele><time>2026-04-26T15:44:15.612Z</time></trkpt><trkpt lat="32.8501343" lon="10.280501"><ele>422.33333333333337</ele><time>2026-04-26T15:44:16.619Z</time></trkpt><trkpt lat="32.8499732" lon="10.2803989"><ele>421.6666666666667</ele><time>2026-04-26T15:44:17.625Z</time></trkpt><trkpt lat="32.8498092" lon="10.2802995"><ele>421.0</ele><time>2026-04-26T15:44:18.641Z</time></trkpt><trkpt lat="32.8496479" lon="10.2802001"><ele>421.0</ele><time>2026-04-26T15:44:19.618Z</time></trkpt><trkpt lat="32.8494897" lon="10.2801048"><ele>421.0</ele><time>2026-04-26T15:44:20.612Z</time></trkpt><trkpt lat="32.8493278" lon="10.2800087"><ele>421.0</ele><time>2026-04-26T15:44:21.609Z</time></trkpt><trkpt lat="32.8491609" lon="10.2799261"><ele>420.33333333333337</ele><time>2026-04-26T15:44:22.617Z</time></trkpt><trkpt lat="32.8489853" lon="10.2798828"><ele>419.66666666666663</ele><time>2026-04-26T15:44:23.617Z</time></trkpt><trkpt lat="32.8488016" lon="10.2798546"><ele>419.0</ele><time>2026-04-26T15:44:24.585Z</time></trkpt><trkpt lat="32.8486176" lon="10.2798422"><ele>419.0</ele><time>2026-04-26T15:44:25.625Z</time></trkpt><trkpt lat="32.8484332" lon="10.2798284"><ele>419.0</ele><time>2026-04-26T15:44:26.603Z</time></trkpt><trkpt lat="32.8482591" lon="10.2797971"><ele>419.0</ele><time>2026-04-26T15:44:27.623Z</time></trkpt><trkpt lat="32.8480852" lon="10.2797568"><ele>419.0</ele><time>2026-04-26T15:44:28.616Z</time></trkpt><trkpt lat="32.8479126" lon="10.2796827"><ele>419.0</ele><time>2026-04-26T15:44:29.564Z</time></trkpt><trkpt lat="32.847743" lon="10.2795924"><ele>419.0</ele><time>2026-04-26T15:44:30.616Z</time></trkpt><trkpt lat="32.8475762" lon="10.2795039"><ele>418.66666666666663</ele><time>2026-04-26T15:44:31.627Z</time></trkpt><trkpt lat="32.84742" lon="10.2794175"><ele>418.33333333333337</ele><time>2026-04-26T15:44:32.615Z</time></trkpt><trkpt lat="32.8472681" lon="10.2793428"><ele>418.0</ele><time>2026-04-26T15:44:33.624Z</time></trkpt><trkpt lat="32.8471154" lon="10.2792806"><ele>418.0</ele><time>2026-04-26T15:44:34.613Z</time></trkpt><trkpt lat="32.8469536" lon="10.2792508"><ele>418.0</ele><time>2026-04-26T15:44:35.621Z</time></trkpt><trkpt lat="32.8468015" lon="10.2792451"><ele>418.0</ele><time>2026-04-26T15:44:36.609Z</time></trkpt><trkpt lat="32.8466457" lon="10.2792514"><ele>416.75</ele><time>2026-04-26T15:44:37.627Z</time></trkpt><trkpt lat="32.8465007" lon="10.2792559"><ele>415.5</ele><time>2026-04-26T15:44:38.635Z</time></trkpt><trkpt lat="32.8463619" lon="10.2792535"><ele>414.25</ele><time>2026-04-26T15:44:39.625Z</time></trkpt><trkpt lat="32.8462329" lon="10.2792565"><ele>413.0</ele><time>2026-04-26T15:44:40.591Z</time></trkpt><trkpt lat="32.8461169" lon="10.2792567"><ele>412.99999999999994</ele><time>2026-04-26T15:44:41.619Z</time></trkpt><trkpt lat="32.8460201" lon="10.2792511"><ele>413.0</ele><time>2026-04-26T15:44:42.603Z</time></trkpt><trkpt lat="32.8459455" lon="10.2792333"><ele>413.0</ele><time>2026-04-26T15:44:43.618Z</time></trkpt><trkpt lat="32.8458801" lon="10.2791878"><ele>413.0</ele><time>2026-04-26T15:44:44.595Z</time></trkpt><trkpt lat="32.8458274" lon="10.2791112"><ele>412.99999999999994</ele><time>2026-04-26T15:44:45.62Z</time></trkpt><trkpt lat="32.8458009" lon="10.2790057"><ele>413.0</ele><time>2026-04-26T15:44:46.609Z</time></trkpt><trkpt lat="32.84579" lon="10.2788843"><ele>412.75</ele><time>2026-04-26T15:44:47.621Z</time></trkpt><trkpt lat="32.8457803" lon="10.2787506"><ele>412.5</ele><time>2026-04-26T15:44:48.572Z</time></trkpt><trkpt lat="32.8457677" lon="10.2786077"><ele>412.25</ele><time>2026-04-26T15:44:49.639Z</time></trkpt><trkpt lat="32.8457617" lon="10.2784512"><ele>412.0</ele><time>2026-04-26T15:44:50.579Z</time></trkpt><trkpt lat="32.8457509" lon="10.2782819"><ele>412.0</ele><time>2026-04-26T15:44:51.619Z</time></trkpt><trkpt lat="32.8457409" lon="10.2781061"><ele>412.0</ele><time>2026-04-26T15:44:52.606Z</time></trkpt><trkpt lat="32.8457273" lon="10.2779334"><ele>412.0</ele><time>2026-04-26T15:44:53.591Z</time></trkpt><trkpt lat="32.8457113" lon="10.2777655"><ele>412.0</ele><time>2026-04-26T15:44:54.574Z</time></trkpt><trkpt lat="32.8456935" lon="10.2775924"><ele>412.25</ele><time>2026-04-26T15:44:55.619Z</time></trkpt><trkpt lat="32.8456632" lon="10.2774284"><ele>412.5</ele><time>2026-04-26T15:44:56.621Z</time></trkpt><trkpt lat="32.8456118" lon="10.2772655"><ele>412.75</ele><time>2026-04-26T15:44:57.62Z</time></trkpt><trkpt lat="32.8455564" lon="10.2771049"><ele>413.0</ele><time>2026-04-26T15:44:58.623Z</time></trkpt><trkpt lat="32.8455212" lon="10.276934"><ele>414.25</ele><time>2026-04-26T15:44:59.589Z</time></trkpt><trkpt lat="32.8454978" lon="10.2767571"><ele>415.5</ele><time>2026-04-26T15:45:01.066Z</time></trkpt><trkpt lat="32.845476" lon="10.2765803"><ele>416.75</ele><time>2026-04-26T15:45:02.093Z</time></trkpt><trkpt lat="32.8454522" lon="10.2764154"><ele>418.0</ele><time>2026-04-26T15:45:03.081Z</time></trkpt><trkpt lat="32.8454269" lon="10.2762509"><ele>418.0</ele><time>2026-04-26T15:45:04.079Z</time></trkpt><trkpt lat="32.8454015" lon="10.2760825"><ele>418.0</ele><time>2026-04-26T15:45:05.07Z</time></trkpt><trkpt lat="32.8453757" lon="10.2759102"><ele>418.0</ele><time>2026-04-26T15:45:06.086Z</time></trkpt><trkpt lat="32.8453482" lon="10.2757364"><ele>418.0</ele><time>2026-04-26T15:45:07.105Z</time></trkpt><trkpt lat="32.8453218" lon="10.2755672"><ele>418.0</ele><time>2026-04-26T15:45:08.109Z</time></trkpt><trkpt lat="32.8452939" lon="10.2753985"><ele>418.0</ele><time>2026-04-26T15:45:09.1Z</time></trkpt><trkpt lat="32.8452671" lon="10.2752311"><ele>418.0</ele><time>2026-04-26T15:45:10.083Z</time></trkpt><trkpt lat="32.8452431" lon="10.2750663"><ele>418.0</ele><time>2026-04-26T15:45:11.087Z</time></trkpt><trkpt lat="32.8452143" lon="10.274906"><ele>418.5</ele><time>2026-04-26T15:45:12.099Z</time></trkpt><trkpt lat="32.8451847" lon="10.2747487"><ele>419.0</ele><time>2026-04-26T15:45:13.098Z</time></trkpt><trkpt lat="32.845154" lon="10.2745879"><ele>419.5</ele><time>2026-04-26T15:45:14.104Z</time></trkpt><trkpt lat="32.8451274" lon="10.2744227"><ele>420.0</ele><time>2026-04-26T15:45:15.093Z</time></trkpt><trkpt lat="32.8451039" lon="10.2742538"><ele>420.25</ele><time>2026-04-26T15:45:16.102Z</time></trkpt><trkpt lat="32.8450819" lon="10.2740884"><ele>420.5</ele><time>2026-04-26T15:45:17.101Z</time></trkpt><trkpt lat="32.8450587" lon="10.2739237"><ele>420.75</ele><time>2026-04-26T15:45:18.122Z</time></trkpt><trkpt lat="32.8450309" lon="10.2737544"><ele>421.0</ele><time>2026-04-26T15:45:19.111Z</time></trkpt><trkpt lat="32.8450001" lon="10.2735728"><ele>421.75</ele><time>2026-04-26T15:45:20.107Z</time></trkpt><trkpt lat="32.8449697" lon="10.2733899"><ele>422.5</ele><time>2026-04-26T15:45:21.116Z</time></trkpt><trkpt lat="32.844941" lon="10.2732204"><ele>423.25</ele><time>2026-04-26T15:45:22.096Z</time></trkpt><trkpt lat="32.8449148" lon="10.2730551"><ele>424.0</ele><time>2026-04-26T15:45:23.107Z</time></trkpt><trkpt lat="32.8448895" lon="10.2729073"><ele>424.75</ele><time>2026-04-26T15:45:24.107Z</time></trkpt><trkpt lat="32.8448711" lon="10.2727653"><ele>425.5</ele><time>2026-04-26T15:45:25.106Z</time></trkpt><trkpt lat="32.8448532" lon="10.2726254"><ele>426.25</ele><time>2026-04-26T15:45:26.104Z</time></trkpt><trkpt lat="32.8448317" lon="10.2724863"><ele>427.0</ele><time>2026-04-26T15:45:27.111Z</time></trkpt><trkpt lat="32.844812" lon="10.272344"><ele>427.6</ele><time>2026-04-26T15:45:28.086Z</time></trkpt><trkpt lat="32.8447908" lon="10.2722034"><ele>428.20000000000005</ele><time>2026-04-26T15:45:29.105Z</time></trkpt><trkpt lat="32.8447684" lon="10.2720789"><ele>428.8</ele><time>2026-04-26T15:45:30.102Z</time></trkpt><trkpt lat="32.8447488" lon="10.2719618"><ele>429.4</ele><time>2026-04-26T15:45:31.11Z</time></trkpt><trkpt lat="32.8447363" lon="10.2718608"><ele>430.0</ele><time>2026-04-26T15:45:32.108Z</time></trkpt><trkpt lat="32.8447231" lon="10.271766"><ele>430.00000000000006</ele><time>2026-04-26T15:45:33.115Z</time></trkpt><trkpt lat="32.844709" lon="10.2716719"><ele>430.0</ele><time>2026-04-26T15:45:34.076Z</time></trkpt><trkpt lat="32.8446914" lon="10.2715711"><ele>430.0</ele><time>2026-04-26T15:45:35.111Z</time></trkpt><trkpt lat="32.8446789" lon="10.2714666"><ele>430.0</ele><time>2026-04-26T15:45:36.106Z</time></trkpt><trkpt lat="32.8446616" lon="10.2713655"><ele>430.00000000000006</ele><time>2026-04-26T15:45:37.095Z</time></trkpt><trkpt lat="32.8446385" lon="10.2712628"><ele>430.0</ele><time>2026-04-26T15:45:38.08Z</time></trkpt><trkpt lat="32.8446055" lon="10.2711403"><ele>429.6666666666667</ele><time>2026-04-26T15:45:39.089Z</time></trkpt><trkpt lat="32.8445579" lon="10.2709924"><ele>429.33333333333337</ele><time>2026-04-26T15:45:40.093Z</time></trkpt><trkpt lat="32.8444972" lon="10.2708092"><ele>429.0</ele><time>2026-04-26T15:45:41.111Z</time></trkpt><trkpt lat="32.8444253" lon="10.2705864"><ele>431.5</ele><time>2026-04-26T15:45:42.113Z</time></trkpt><trkpt lat="32.8443452" lon="10.2703189"><ele>434.0</ele><time>2026-04-26T15:45:43.111Z</time></trkpt><trkpt lat="32.8442491" lon="10.2700396"><ele>435.5</ele><time>2026-04-26T15:45:44.106Z</time></trkpt><trkpt lat="32.8441637" lon="10.2697669"><ele>437.0</ele><time>2026-04-26T15:45:45.099Z</time></trkpt><trkpt lat="32.8440846" lon="10.2695174"><ele>437.0</ele><time>2026-04-26T15:45:46.072Z</time></trkpt><trkpt lat="32.8440126" lon="10.2692876"><ele>437.0</ele><time>2026-04-26T15:45:47.091Z</time></trkpt><trkpt lat="32.8439457" lon="10.2690479"><ele>437.0</ele><time>2026-04-26T15:45:48.088Z</time></trkpt><trkpt lat="32.8438697" lon="10.2688146"><ele>440.0</ele><time>2026-04-26T15:45:49.088Z</time></trkpt><trkpt lat="32.8437905" lon="10.2685888"><ele>443.0</ele><time>2026-04-26T15:45:50.108Z</time></trkpt><trkpt lat="32.8437129" lon="10.2683669"><ele>446.0</ele><time>2026-04-26T15:45:51.066Z</time></trkpt><trkpt lat="32.8436349" lon="10.2681468"><ele>446.3333333333333</ele><time>2026-04-26T15:45:52.086Z</time></trkpt><trkpt lat="32.8435592" lon="10.2679373"><ele>446.66666666666663</ele><time>2026-04-26T15:45:53.102Z</time></trkpt><trkpt lat="32.8434807" lon="10.2677378"><ele>447.0</ele><time>2026-04-26T15:45:54.082Z</time></trkpt><trkpt lat="32.8434187" lon="10.2675275"><ele>447.0</ele><time>2026-04-26T15:45:55.088Z</time></trkpt><trkpt lat="32.8433854" lon="10.2673002"><ele>447.0</ele><time>2026-04-26T15:45:56.111Z</time></trkpt><trkpt lat="32.8433568" lon="10.267068"><ele>447.0</ele><time>2026-04-26T15:45:57.122Z</time></trkpt><trkpt lat="32.8433367" lon="10.2668557"><ele>449.0</ele><time>2026-04-26T15:45:58.113Z</time></trkpt><trkpt lat="32.8433167" lon="10.2666654"><ele>451.0</ele><time>2026-04-26T15:45:59.114Z</time></trkpt><trkpt lat="32.8432975" lon="10.2664831"><ele>453.0</ele><time>2026-04-26T15:46:00.078Z</time></trkpt><trkpt lat="32.8432791" lon="10.266278"><ele>453.0</ele><time>2026-04-26T15:46:01.098Z</time></trkpt><trkpt lat="32.8432383" lon="10.2660489"><ele>453.0</ele><time>2026-04-26T15:46:02.109Z</time></trkpt><trkpt lat="32.843178" lon="10.2658159"><ele>453.0</ele><time>2026-04-26T15:46:03.082Z</time></trkpt><trkpt lat="32.8431067" lon="10.265571"><ele>450.5</ele><time>2026-04-26T15:46:04.122Z</time></trkpt><trkpt lat="32.8430289" lon="10.2653167"><ele>448.0</ele><time>2026-04-26T15:46:05.095Z</time></trkpt><trkpt lat="32.8429513" lon="10.2650571"><ele>448.0</ele><time>2026-04-26T15:46:06.097Z</time></trkpt><trkpt lat="32.8428919" lon="10.2648003"><ele>448.0</ele><time>2026-04-26T15:46:07.111Z</time></trkpt><trkpt lat="32.8428412" lon="10.2645542"><ele>448.0</ele><time>2026-04-26T15:46:08.095Z</time></trkpt><trkpt lat="32.8427795" lon="10.2642993"><ele>447.33333333333337</ele><time>2026-04-26T15:46:09.104Z</time></trkpt><trkpt lat="32.8427215" lon="10.2640501"><ele>446.66666666666663</ele><time>2026-04-26T15:46:10.115Z</time></trkpt><trkpt lat="32.8426675" lon="10.2638021"><ele>446.0</ele><time>2026-04-26T15:46:11.116Z</time></trkpt><trkpt lat="32.8426076" lon="10.2635567"><ele>447.3333333333333</ele><time>2026-04-26T15:46:12.099Z</time></trkpt><trkpt lat="32.8425423" lon="10.2633095"><ele>448.66666666666663</ele><time>2026-04-26T15:46:13.109Z</time></trkpt><trkpt lat="32.8424489" lon="10.2630754"><ele>450.0</ele><time>2026-04-26T15:46:14.112Z</time></trkpt><trkpt lat="32.8423356" lon="10.2628315"><ele>450.0</ele><time>2026-04-26T15:46:15.109Z</time></trkpt><trkpt lat="32.8422346" lon="10.2625789"><ele>450.0</ele><time>2026-04-26T15:46:16.091Z</time></trkpt><trkpt lat="32.8421552" lon="10.2623447"><ele>450.0</ele><time>2026-04-26T15:46:17.117Z</time></trkpt><trkpt lat="32.8420818" lon="10.2621221"><ele>450.0</ele><time>2026-04-26T15:46:18.106Z</time></trkpt><trkpt lat="32.8420098" lon="10.2619114"><ele>450.0</ele><time>2026-04-26T15:46:19.095Z</time></trkpt><trkpt lat="32.8419472" lon="10.2617099"><ele>450.0</ele><time>2026-04-26T15:46:20.112Z</time></trkpt><trkpt lat="32.8418866" lon="10.2615184"><ele>449.66666666666663</ele><time>2026-04-26T15:46:21.109Z</time></trkpt><trkpt lat="32.8418104" lon="10.2613323"><ele>449.3333333333333</ele><time>2026-04-26T15:46:22.121Z</time></trkpt><trkpt lat="32.841706" lon="10.2611568"><ele>449.0</ele><time>2026-04-26T15:46:23.112Z</time></trkpt><trkpt lat="32.8415866" lon="10.2609845"><ele>449.66666666666663</ele><time>2026-04-26T15:46:24.107Z</time></trkpt><trkpt lat="32.8414583" lon="10.2608134"><ele>450.33333333333337</ele><time>2026-04-26T15:46:25.118Z</time></trkpt><trkpt lat="32.8413354" lon="10.2606457"><ele>451.0</ele><time>2026-04-26T15:46:26.087Z</time></trkpt><trkpt lat="32.8412121" lon="10.2604885"><ele>451.0</ele><time>2026-04-26T15:46:27.09Z</time></trkpt><trkpt lat="32.8411022" lon="10.2603363"><ele>451.0</ele><time>2026-04-26T15:46:28.104Z</time></trkpt><trkpt lat="32.8409988" lon="10.2601893"><ele>451.0</ele><time>2026-04-26T15:46:29.105Z</time></trkpt><trkpt lat="32.8408866" lon="10.2600552"><ele>451.0</ele><time>2026-04-26T15:46:30.113Z</time></trkpt><trkpt lat="32.8407726" lon="10.2599252"><ele>451.0</ele><time>2026-04-26T15:46:31.099Z</time></trkpt><trkpt lat="32.8406683" lon="10.2598075"><ele>451.0</ele><time>2026-04-26T15:46:32.108Z</time></trkpt><trkpt lat="32.8405691" lon="10.2597068"><ele>451.0</ele><time>2026-04-26T15:46:33.094Z</time></trkpt><trkpt lat="32.8404739" lon="10.259609"><ele>452.25</ele><time>2026-04-26T15:46:34.111Z</time></trkpt><trkpt lat="32.8403776" lon="10.2595089"><ele>453.5</ele><time>2026-04-26T15:46:35.083Z</time></trkpt><trkpt lat="32.8402773" lon="10.2594025"><ele>454.75</ele><time>2026-04-26T15:46:36.114Z</time></trkpt><trkpt lat="32.8401728" lon="10.2592964"><ele>456.0</ele><time>2026-04-26T15:46:37.106Z</time></trkpt><trkpt lat="32.8400666" lon="10.259182"><ele>456.33333333333337</ele><time>2026-04-26T15:46:38.119Z</time></trkpt><trkpt lat="32.83995" lon="10.2590467"><ele>456.6666666666667</ele><time>2026-04-26T15:46:39.079Z</time></trkpt><trkpt lat="32.8398331" lon="10.2589083"><ele>457.0</ele><time>2026-04-26T15:46:40.107Z</time></trkpt><trkpt lat="32.8397316" lon="10.2587469"><ele>458.0</ele><time>2026-04-26T15:46:41.104Z</time></trkpt><trkpt lat="32.8396547" lon="10.2585748"><ele>459.0</ele><time>2026-04-26T15:46:42.101Z</time></trkpt><trkpt lat="32.8395809" lon="10.2584003"><ele>460.0</ele><time>2026-04-26T15:46:43.089Z</time></trkpt><trkpt lat="32.8395091" lon="10.2582236"><ele>460.25</ele><time>2026-04-26T15:46:44.098Z</time></trkpt><trkpt lat="32.8394461" lon="10.2580643"><ele>460.5</ele><time>2026-04-26T15:46:45.099Z</time></trkpt><trkpt lat="32.8393736" lon="10.2579049"><ele>460.75</ele><time>2026-04-26T15:46:46.112Z</time></trkpt><trkpt lat="32.8393066" lon="10.2577564"><ele>461.0</ele><time>2026-04-26T15:46:47.111Z</time></trkpt><trkpt lat="32.8392515" lon="10.2576137"><ele>460.8</ele><time>2026-04-26T15:46:48.105Z</time></trkpt><trkpt lat="32.8391943" lon="10.2574781"><ele>460.6</ele><time>2026-04-26T15:46:49.096Z</time></trkpt><trkpt lat="32.839145" lon="10.2573572"><ele>460.4</ele><time>2026-04-26T15:46:50.105Z</time></trkpt><trkpt lat="32.8391017" lon="10.2572448"><ele>460.2</ele><time>2026-04-26T15:46:51.092Z</time></trkpt><trkpt lat="32.839052" lon="10.2571379"><ele>460.0</ele><time>2026-04-26T15:46:52.1Z</time></trkpt><trkpt lat="32.8389963" lon="10.2570192"><ele>460.0</ele><time>2026-04-26T15:46:53.119Z</time></trkpt><trkpt lat="32.8389347" lon="10.2568823"><ele>460.0</ele><time>2026-04-26T15:46:54.111Z</time></trkpt><trkpt lat="32.8388738" lon="10.2567511"><ele>460.0</ele><time>2026-04-26T15:46:55.112Z</time></trkpt><trkpt lat="32.8388179" lon="10.2566227"><ele>460.0</ele><time>2026-04-26T15:46:56.112Z</time></trkpt><trkpt lat="32.8387549" lon="10.2564925"><ele>461.33333333333337</ele><time>2026-04-26T15:46:57.104Z</time></trkpt><trkpt lat="32.8386823" lon="10.2563251"><ele>462.66666666666663</ele><time>2026-04-26T15:46:58.112Z</time></trkpt><trkpt lat="32.8385947" lon="10.256122"><ele>464.0</ele><time>2026-04-26T15:46:59.106Z</time></trkpt><trkpt lat="32.8385165" lon="10.2559128"><ele>464.3333333333333</ele><time>2026-04-26T15:47:00.094Z</time></trkpt><trkpt lat="32.8384381" lon="10.2557303"><ele>464.66666666666663</ele><time>2026-04-26T15:47:01.096Z</time></trkpt><trkpt lat="32.8383576" lon="10.2555467"><ele>465.0</ele><time>2026-04-26T15:47:02.103Z</time></trkpt><trkpt lat="32.8382405" lon="10.2553639"><ele>465.0</ele><time>2026-04-26T15:47:03.112Z</time></trkpt><trkpt lat="32.8381059" lon="10.2551749"><ele>465.0</ele><time>2026-04-26T15:47:04.117Z</time></trkpt><trkpt lat="32.8379755" lon="10.2549895"><ele>465.0</ele><time>2026-04-26T15:47:05.112Z</time></trkpt><trkpt lat="32.8378541" lon="10.254803"><ele>467.0</ele><time>2026-04-26T15:47:06.107Z</time></trkpt><trkpt lat="32.8377417" lon="10.2546515"><ele>469.0</ele><time>2026-04-26T15:47:07.104Z</time></trkpt><trkpt lat="32.8376223" lon="10.2545332"><ele>471.0</ele><time>2026-04-26T15:47:08.109Z</time></trkpt><trkpt lat="32.8375003" lon="10.2544253"><ele>471.0</ele><time>2026-04-26T15:47:09.101Z</time></trkpt><trkpt lat="32.8373708" lon="10.2542943"><ele>471.0</ele><time>2026-04-26T15:47:10.105Z</time></trkpt><trkpt lat="32.8372395" lon="10.2541178"><ele>471.0</ele><time>2026-04-26T15:47:11.098Z</time></trkpt><trkpt lat="32.8371183" lon="10.2539146"><ele>470.33333333333337</ele><time>2026-04-26T15:47:12.103Z</time></trkpt><trkpt lat="32.836983" lon="10.2537092"><ele>469.6666666666667</ele><time>2026-04-26T15:47:13.108Z</time></trkpt><trkpt lat="32.83686" lon="10.2534914"><ele>469.0</ele><time>2026-04-26T15:47:14.086Z</time></trkpt><trkpt lat="32.8367396" lon="10.2532829"><ele>469.33333333333337</ele><time>2026-04-26T15:47:15.111Z</time></trkpt><trkpt lat="32.8366453" lon="10.2530905"><ele>469.66666666666663</ele><time>2026-04-26T15:47:16.094Z</time></trkpt><trkpt lat="32.836576" lon="10.2528721"><ele>470.0</ele><time>2026-04-26T15:47:17.083Z</time></trkpt><trkpt lat="32.8365389" lon="10.2526306"><ele>470.0</ele><time>2026-04-26T15:47:18.1Z</time></trkpt><trkpt lat="32.8364946" lon="10.2523984"><ele>470.0</ele><time>2026-04-26T15:47:19.094Z</time></trkpt><trkpt lat="32.8364521" lon="10.2521846"><ele>470.0</ele><time>2026-04-26T15:47:20.113Z</time></trkpt><trkpt lat="32.836414" lon="10.2519805"><ele>470.3333333333333</ele><time>2026-04-26T15:47:21.106Z</time></trkpt><trkpt lat="32.8364054" lon="10.2517806"><ele>470.66666666666663</ele><time>2026-04-26T15:47:22.102Z</time></trkpt><trkpt lat="32.8364146" lon="10.2515832"><ele>471.0</ele><time>2026-04-26T15:47:23.108Z</time></trkpt><trkpt lat="32.8364176" lon="10.2513949"><ele>471.0</ele><time>2026-04-26T15:47:24.113Z</time></trkpt><trkpt lat="32.8364096" lon="10.2512168"><ele>471.0</ele><time>2026-04-26T15:47:25.103Z</time></trkpt><trkpt lat="32.8363599" lon="10.2510186"><ele>471.0</ele><time>2026-04-26T15:47:26.096Z</time></trkpt><trkpt lat="32.8362785" lon="10.2508093"><ele>471.66666666666663</ele><time>2026-04-26T15:47:27.102Z</time></trkpt><trkpt lat="32.8361703" lon="10.2506019"><ele>472.3333333333333</ele><time>2026-04-26T15:47:28.109Z</time></trkpt><trkpt lat="32.8360548" lon="10.2503718"><ele>473.0</ele><time>2026-04-26T15:47:29.121Z</time></trkpt><trkpt lat="32.8359468" lon="10.2501471"><ele>473.0</ele><time>2026-04-26T15:47:30.107Z</time></trkpt><trkpt lat="32.8358428" lon="10.2499461"><ele>473.0</ele><time>2026-04-26T15:47:31.103Z</time></trkpt><trkpt lat="32.83573" lon="10.2497583"><ele>473.0</ele><time>2026-04-26T15:47:32.106Z</time></trkpt><trkpt lat="32.8356046" lon="10.2495941"><ele>476.0</ele><time>2026-04-26T15:47:33.116Z</time></trkpt><trkpt lat="32.8354672" lon="10.2494267"><ele>479.0</ele><time>2026-04-26T15:47:34.083Z</time></trkpt><trkpt lat="32.835327" lon="10.2492635"><ele>482.0</ele><time>2026-04-26T15:47:35.112Z</time></trkpt><trkpt lat="32.8352086" lon="10.2491064"><ele>480.0</ele><time>2026-04-26T15:47:36.117Z</time></trkpt><trkpt lat="32.8351017" lon="10.2489558"><ele>478.0</ele><time>2026-04-26T15:47:37.094Z</time></trkpt><trkpt lat="32.8350149" lon="10.2487825"><ele>476.0</ele><time>2026-04-26T15:47:38.11Z</time></trkpt><trkpt lat="32.8349496" lon="10.2485961"><ele>476.0</ele><time>2026-04-26T15:47:39.119Z</time></trkpt><trkpt lat="32.8349029" lon="10.2484036"><ele>476.0</ele><time>2026-04-26T15:47:40.114Z</time></trkpt><trkpt lat="32.834894" lon="10.2482055"><ele>476.0</ele><time>2026-04-26T15:47:41.116Z</time></trkpt><trkpt lat="32.8349027" lon="10.2480026"><ele>476.25</ele><time>2026-04-26T15:47:42.114Z</time></trkpt><trkpt lat="32.8349307" lon="10.2478106"><ele>476.5</ele><time>2026-04-26T15:47:43.121Z</time></trkpt><trkpt lat="32.8349738" lon="10.2476443"><ele>476.75</ele><time>2026-04-26T15:47:44.106Z</time></trkpt><trkpt lat="32.835018" lon="10.2474925"><ele>477.0</ele><time>2026-04-26T15:47:45.088Z</time></trkpt><trkpt lat="32.8350547" lon="10.247354"><ele>478.5</ele><time>2026-04-26T15:47:46.115Z</time></trkpt><trkpt lat="32.8350646" lon="10.2472101"><ele>480.0</ele><time>2026-04-26T15:47:47.1Z</time></trkpt><trkpt lat="32.835041" lon="10.2470723"><ele>481.5</ele><time>2026-04-26T15:47:48.099Z</time></trkpt><trkpt lat="32.8349717" lon="10.246949"><ele>483.0</ele><time>2026-04-26T15:47:49.074Z</time></trkpt><trkpt lat="32.834872" lon="10.2468236"><ele>483.0</ele><time>2026-04-26T15:47:50.111Z</time></trkpt><trkpt lat="32.8347603" lon="10.2467091"><ele>483.0</ele><time>2026-04-26T15:47:51.101Z</time></trkpt><trkpt lat="32.8346635" lon="10.246595"><ele>483.0</ele><time>2026-04-26T15:47:52.102Z</time></trkpt><trkpt lat="32.8345841" lon="10.246466"><ele>483.0</ele><time>2026-04-26T15:47:53.068Z</time></trkpt><trkpt lat="32.8345279" lon="10.2463279"><ele>484.0</ele><time>2026-04-26T15:47:54.096Z</time></trkpt><trkpt lat="32.8344996" lon="10.246166"><ele>485.0</ele><time>2026-04-26T15:47:55.105Z</time></trkpt><trkpt lat="32.8345091" lon="10.2460049"><ele>486.0</ele><time>2026-04-26T15:47:56.103Z</time></trkpt><trkpt lat="32.8345128" lon="10.2458244"><ele>487.0</ele><time>2026-04-26T15:47:57.064Z</time></trkpt><trkpt lat="32.8344764" lon="10.2456507"><ele>487.6666666666667</ele><time>2026-04-26T15:47:58.103Z</time></trkpt><trkpt lat="32.8344083" lon="10.2454583"><ele>488.33333333333337</ele><time>2026-04-26T15:47:59.078Z</time></trkpt><trkpt lat="32.8342987" lon="10.2452606"><ele>489.0</ele><time>2026-04-26T15:48:00.079Z</time></trkpt><trkpt lat="32.8341784" lon="10.2450991"><ele>488.66666666666663</ele><time>2026-04-26T15:48:01.104Z</time></trkpt><trkpt lat="32.8340519" lon="10.2449174"><ele>488.3333333333333</ele><time>2026-04-26T15:48:02.107Z</time></trkpt><trkpt lat="32.8339464" lon="10.2447354"><ele>488.0</ele><time>2026-04-26T15:48:03.113Z</time></trkpt><trkpt lat="32.8338678" lon="10.2445388"><ele>488.0</ele><time>2026-04-26T15:48:04.103Z</time></trkpt><trkpt lat="32.8338017" lon="10.2443369"><ele>488.0</ele><time>2026-04-26T15:48:05.096Z</time></trkpt><trkpt lat="32.8337413" lon="10.2441331"><ele>488.0</ele><time>2026-04-26T15:48:06.109Z</time></trkpt><trkpt lat="32.8336743" lon="10.2439522"><ele>488.3333333333333</ele><time>2026-04-26T15:48:07.112Z</time></trkpt><trkpt lat="32.8336132" lon="10.2437731"><ele>488.66666666666663</ele><time>2026-04-26T15:48:08.096Z</time></trkpt><trkpt lat="32.8335508" lon="10.2436019"><ele>489.0</ele><time>2026-04-26T15:48:09.106Z</time></trkpt><trkpt lat="32.8334909" lon="10.243439"><ele>488.75</ele><time>2026-04-26T15:48:10.105Z</time></trkpt><trkpt lat="32.833432" lon="10.2432763"><ele>488.5</ele><time>2026-04-26T15:48:11.119Z</time></trkpt><trkpt lat="32.8333767" lon="10.2431185"><ele>488.25</ele><time>2026-04-26T15:48:12.068Z</time></trkpt><trkpt lat="32.833324" lon="10.2429637"><ele>488.0</ele><time>2026-04-26T15:48:13.114Z</time></trkpt><trkpt lat="32.8332703" lon="10.2428143"><ele>488.0</ele><time>2026-04-26T15:48:14.101Z</time></trkpt><trkpt lat="32.8332231" lon="10.2426711"><ele>488.0</ele><time>2026-04-26T15:48:15.058Z</time></trkpt><trkpt lat="32.8331865" lon="10.242522"><ele>488.0</ele><time>2026-04-26T15:48:16.094Z</time></trkpt><trkpt lat="32.8331737" lon="10.2423875"><ele>488.0</ele><time>2026-04-26T15:48:17.089Z</time></trkpt><trkpt lat="32.8331717" lon="10.2422644"><ele>488.16666666666663</ele><time>2026-04-26T15:48:18.1Z</time></trkpt><trkpt lat="32.833174" lon="10.242147"><ele>488.3333333333333</ele><time>2026-04-26T15:48:19.098Z</time></trkpt><trkpt lat="32.8331755" lon="10.2420552"><ele>488.5</ele><time>2026-04-26T15:48:20.103Z</time></trkpt><trkpt lat="32.8331835" lon="10.241974"><ele>488.66666666666663</ele><time>2026-04-26T15:48:21.064Z</time></trkpt><trkpt lat="32.8332007" lon="10.2418499"><ele>488.8333333333333</ele><time>2026-04-26T15:48:23.088Z</time></trkpt><trkpt lat="32.8332059" lon="10.2417453"><ele>489.0</ele><time>2026-04-26T15:48:25.101Z</time></trkpt><trkpt lat="32.8331712" lon="10.2416616"><ele>489.0</ele><time>2026-04-26T15:48:27.077Z</time></trkpt><trkpt lat="32.8331202" lon="10.2416093"><ele>489.0</ele><time>2026-04-26T15:48:29.105Z</time></trkpt><trkpt lat="32.8330529" lon="10.2415814"><ele>489.0</ele><time>2026-04-26T15:48:32.11Z</time></trkpt><trkpt lat="32.8329775" lon="10.2415601"><ele>489.0</ele><time>2026-04-26T15:48:35.104Z</time></trkpt><trkpt lat="32.8329097" lon="10.2415265"><ele>489.0</ele><time>2026-04-26T15:48:38.102Z</time></trkpt><trkpt lat="32.8328516" lon="10.241453"><ele>489.0</ele><time>2026-04-26T15:48:41.073Z</time></trkpt><trkpt lat="32.8328274" lon="10.2413666"><ele>488.75</ele><time>2026-04-26T15:48:44.08Z</time></trkpt><trkpt lat="32.8327945" lon="10.2412489"><ele>488.5</ele><time>2026-04-26T15:49:06.103Z</time></trkpt><trkpt lat="32.83275" lon="10.2411494"><ele>488.25</ele><time>2026-04-26T15:49:07.105Z</time></trkpt><trkpt lat="32.8326869" lon="10.2410173"><ele>488.0</ele><time>2026-04-26T15:49:08.109Z</time></trkpt><trkpt lat="32.8326201" lon="10.2408717"><ele>487.75</ele><time>2026-04-26T15:49:09.101Z</time></trkpt><trkpt lat="32.832557" lon="10.2407278"><ele>487.5</ele><time>2026-04-26T15:49:10.1Z</time></trkpt><trkpt lat="32.8324978" lon="10.2405785"><ele>487.25</ele><time>2026-04-26T15:49:11.086Z</time></trkpt><trkpt lat="32.8324474" lon="10.240421"><ele>487.0</ele><time>2026-04-26T15:49:12.104Z</time></trkpt><trkpt lat="32.8324011" lon="10.2402643"><ele>487.25</ele><time>2026-04-26T15:49:13.103Z</time></trkpt><trkpt lat="32.8323579" lon="10.2401186"><ele>487.5</ele><time>2026-04-26T15:49:14.108Z</time></trkpt><trkpt lat="32.8323211" lon="10.2399799"><ele>487.75</ele><time>2026-04-26T15:49:15.074Z</time></trkpt><trkpt lat="32.8322854" lon="10.2398411"><ele>488.0</ele><time>2026-04-26T15:49:16.096Z</time></trkpt><trkpt lat="32.8322235" lon="10.2396834"><ele>488.0</ele><time>2026-04-26T15:49:17.095Z</time></trkpt><trkpt lat="32.8321552" lon="10.2395202"><ele>488.0</ele><time>2026-04-26T15:49:18.107Z</time></trkpt><trkpt lat="32.8321093" lon="10.2393665"><ele>488.0</ele><time>2026-04-26T15:49:19.097Z</time></trkpt><trkpt lat="32.8320622" lon="10.2392045"><ele>488.0</ele><time>2026-04-26T15:49:20.062Z</time></trkpt><trkpt lat="32.8320223" lon="10.2390294"><ele>488.3333333333333</ele><time>2026-04-26T15:49:21.049Z</time></trkpt><trkpt lat="32.8319887" lon="10.2388646"><ele>488.66666666666663</ele><time>2026-04-26T15:49:22.07Z</time></trkpt><trkpt lat="32.8319658" lon="10.2386786"><ele>489.0</ele><time>2026-04-26T15:49:23.043Z</time></trkpt><trkpt lat="32.8318928" lon="10.2379593"><ele>489.0</ele><time>2026-04-26T15:49:26.074Z</time></trkpt><trkpt lat="32.8318511" lon="10.2376743"><ele>489.0</ele><time>2026-04-26T15:49:27.064Z</time></trkpt><trkpt lat="32.8317845" lon="10.2371576"><ele>489.66666666666663</ele><time>2026-04-26T15:49:29.069Z</time></trkpt><trkpt lat="32.831754" lon="10.2369248"><ele>490.3333333333333</ele><time>2026-04-26T15:49:30.06Z</time></trkpt><trkpt lat="32.8317349" lon="10.2367086"><ele>491.0</ele><time>2026-04-26T15:49:31.064Z</time></trkpt><trkpt lat="32.831712" lon="10.2365189"><ele>491.5</ele><time>2026-04-26T15:49:32.071Z</time></trkpt><trkpt lat="32.8316669" lon="10.2361471"><ele>492.0</ele><time>2026-04-26T15:49:34.073Z</time></trkpt><trkpt lat="32.831634" lon="10.2359602"><ele>492.0</ele><time>2026-04-26T15:49:35.058Z</time></trkpt><trkpt lat="32.8315957" lon="10.2357773"><ele>492.0</ele><time>2026-04-26T15:49:36.098Z</time></trkpt><trkpt lat="32.8315576" lon="10.2356008"><ele>492.0</ele><time>2026-04-26T15:49:37.068Z</time></trkpt><trkpt lat="32.831525" lon="10.2354368"><ele>492.0</ele><time>2026-04-26T15:49:38.05Z</time></trkpt><trkpt lat="32.8314999" lon="10.2352792"><ele>492.0</ele><time>2026-04-26T15:49:39.071Z</time></trkpt><trkpt lat="32.8314766" lon="10.2351301"><ele>492.0</ele><time>2026-04-26T15:49:40.049Z</time></trkpt><trkpt lat="32.831453" lon="10.2349931"><ele>492.0</ele><time>2026-04-26T15:49:41.051Z</time></trkpt><trkpt lat="32.8314285" lon="10.2348562"><ele>491.0</ele><time>2026-04-26T15:49:42.059Z</time></trkpt><trkpt lat="32.8314087" lon="10.2347132"><ele>490.0</ele><time>2026-04-26T15:49:43.06Z</time></trkpt><trkpt lat="32.8313963" lon="10.2345736"><ele>489.0</ele><time>2026-04-26T15:49:44.055Z</time></trkpt><trkpt lat="32.8313838" lon="10.2344308"><ele>488.0</ele><time>2026-04-26T15:49:45.069Z</time></trkpt><trkpt lat="32.8313696" lon="10.2342953"><ele>488.0</ele><time>2026-04-26T15:49:46.051Z</time></trkpt><trkpt lat="32.8313543" lon="10.234151"><ele>488.0</ele><time>2026-04-26T15:49:47.047Z</time></trkpt><trkpt lat="32.8313423" lon="10.2340089"><ele>488.0</ele><time>2026-04-26T15:49:48.066Z</time></trkpt><trkpt lat="32.8313328" lon="10.2338655"><ele>488.0</ele><time>2026-04-26T15:49:49.061Z</time></trkpt><trkpt lat="32.8313245" lon="10.2337211"><ele>488.5</ele><time>2026-04-26T15:49:50.069Z</time></trkpt><trkpt lat="32.8313012" lon="10.2335642"><ele>489.0</ele><time>2026-04-26T15:49:51.054Z</time></trkpt><trkpt lat="32.8312595" lon="10.2334038"><ele>489.5</ele><time>2026-04-26T15:49:52.076Z</time></trkpt><trkpt lat="32.8312063" lon="10.2332358"><ele>490.0</ele><time>2026-04-26T15:49:53.056Z</time></trkpt><trkpt lat="32.8311533" lon="10.2330705"><ele>488.33333333333337</ele><time>2026-04-26T15:49:54.058Z</time></trkpt><trkpt lat="32.8310902" lon="10.232902"><ele>486.66666666666663</ele><time>2026-04-26T15:49:55.069Z</time></trkpt><trkpt lat="32.8310117" lon="10.232717"><ele>485.0</ele><time>2026-04-26T15:49:56.053Z</time></trkpt><trkpt lat="32.8309281" lon="10.2325304"><ele>485.0</ele><time>2026-04-26T15:49:57.066Z</time></trkpt><trkpt lat="32.8308537" lon="10.2323626"><ele>485.0</ele><time>2026-04-26T15:49:58.066Z</time></trkpt><trkpt lat="32.8307819" lon="10.2321946"><ele>485.0</ele><time>2026-04-26T15:49:59.054Z</time></trkpt><trkpt lat="32.8307154" lon="10.2320002"><ele>485.0</ele><time>2026-04-26T15:50:00.052Z</time></trkpt><trkpt lat="32.8306485" lon="10.23178"><ele>485.0</ele><time>2026-04-26T15:50:01.06Z</time></trkpt><trkpt lat="32.8305886" lon="10.231503"><ele>485.0</ele><time>2026-04-26T15:50:02.067Z</time></trkpt><trkpt lat="32.830532" lon="10.2312171"><ele>484.66666666666663</ele><time>2026-04-26T15:50:03.059Z</time></trkpt><trkpt lat="32.8304676" lon="10.2309453"><ele>484.33333333333337</ele><time>2026-04-26T15:50:04.068Z</time></trkpt><trkpt lat="32.8304121" lon="10.2307377"><ele>484.0</ele><time>2026-04-26T15:50:05.059Z</time></trkpt><trkpt lat="32.8303699" lon="10.2305489"><ele>484.0</ele><time>2026-04-26T15:50:06.066Z</time></trkpt><trkpt lat="32.8303215" lon="10.2303206"><ele>484.0</ele><time>2026-04-26T15:50:07.059Z</time></trkpt><trkpt lat="32.8302753" lon="10.2300591"><ele>484.0</ele><time>2026-04-26T15:50:08.057Z</time></trkpt><trkpt lat="32.8302241" lon="10.2298124"><ele>484.0</ele><time>2026-04-26T15:50:09.072Z</time></trkpt><trkpt lat="32.8301853" lon="10.2295921"><ele>484.0</ele><time>2026-04-26T15:50:10.054Z</time></trkpt><trkpt lat="32.8301493" lon="10.229389"><ele>484.0</ele><time>2026-04-26T15:50:11.05Z</time></trkpt><trkpt lat="32.8301231" lon="10.2291894"><ele>484.0</ele><time>2026-04-26T15:50:12.063Z</time></trkpt><trkpt lat="32.8300987" lon="10.2290009"><ele>484.0</ele><time>2026-04-26T15:50:13.059Z</time></trkpt><trkpt lat="32.8300757" lon="10.2288202"><ele>484.0</ele><time>2026-04-26T15:50:14.068Z</time></trkpt><trkpt lat="32.830053" lon="10.2286519"><ele>483.75</ele><time>2026-04-26T15:50:15.073Z</time></trkpt><trkpt lat="32.8300311" lon="10.2284864"><ele>483.5</ele><time>2026-04-26T15:50:16.06Z</time></trkpt><trkpt lat="32.8300057" lon="10.2283198"><ele>483.25</ele><time>2026-04-26T15:50:17.056Z</time></trkpt><trkpt lat="32.8299873" lon="10.2281567"><ele>483.0</ele><time>2026-04-26T15:50:18.062Z</time></trkpt><trkpt lat="32.8299703" lon="10.2279766"><ele>483.66666666666663</ele><time>2026-04-26T15:50:19.061Z</time></trkpt><trkpt lat="32.8299444" lon="10.227794"><ele>484.3333333333333</ele><time>2026-04-26T15:50:20.054Z</time></trkpt><trkpt lat="32.8299133" lon="10.2275962"><ele>485.0</ele><time>2026-04-26T15:50:21.064Z</time></trkpt><trkpt lat="32.829888" lon="10.2273684"><ele>486.66666666666663</ele><time>2026-04-26T15:50:22.071Z</time></trkpt><trkpt lat="32.8298648" lon="10.2271526"><ele>488.33333333333337</ele><time>2026-04-26T15:50:23.06Z</time></trkpt><trkpt lat="32.829846" lon="10.2269725"><ele>490.0</ele><time>2026-04-26T15:50:24.069Z</time></trkpt><trkpt lat="32.8298218" lon="10.2268023"><ele>490.0</ele><time>2026-04-26T15:50:25.063Z</time></trkpt><trkpt lat="32.8298026" lon="10.2266402"><ele>490.0</ele><time>2026-04-26T15:50:26.069Z</time></trkpt><trkpt lat="32.8297883" lon="10.226494"><ele>490.0</ele><time>2026-04-26T15:50:27.066Z</time></trkpt><trkpt lat="32.8297794" lon="10.2263659"><ele>490.0</ele><time>2026-04-26T15:50:28.057Z</time></trkpt><trkpt lat="32.8297758" lon="10.2262376"><ele>490.00000000000006</ele><time>2026-04-26T15:50:29.069Z</time></trkpt><trkpt lat="32.8297676" lon="10.2261121"><ele>490.0</ele><time>2026-04-26T15:50:30.052Z</time></trkpt><trkpt lat="32.8297592" lon="10.225994"><ele>490.0</ele><time>2026-04-26T15:50:31.065Z</time></trkpt><trkpt lat="32.8297528" lon="10.2258863"><ele>490.0</ele><time>2026-04-26T15:50:32.072Z</time></trkpt><trkpt lat="32.8297459" lon="10.2257932"><ele>490.00000000000006</ele><time>2026-04-26T15:50:33.066Z</time></trkpt><trkpt lat="32.8297461" lon="10.2257042"><ele>490.0</ele><time>2026-04-26T15:50:34.058Z</time></trkpt><trkpt lat="32.8297496" lon="10.2256171"><ele>490.00000000000006</ele><time>2026-04-26T15:50:35.063Z</time></trkpt><trkpt lat="32.8297525" lon="10.225541"><ele>490.0</ele><time>2026-04-26T15:50:36.052Z</time></trkpt><trkpt lat="32.8297569" lon="10.2254198"><ele>490.0</ele><time>2026-04-26T15:50:38.068Z</time></trkpt><trkpt lat="32.8297529" lon="10.225322"><ele>490.0</ele><time>2026-04-26T15:50:40.059Z</time></trkpt><trkpt lat="32.8297564" lon="10.2252413"><ele>490.00000000000006</ele><time>2026-04-26T15:50:42.063Z</time></trkpt><trkpt lat="32.8297523" lon="10.2251241"><ele>490.0</ele><time>2026-04-26T15:55:13.108Z</time></trkpt><trkpt lat="32.8297593" lon="10.2250478"><ele>490.0</ele><time>2026-04-26T15:55:14.092Z</time></trkpt><trkpt lat="32.82976" lon="10.2249629"><ele>490.0</ele><time>2026-04-26T15:55:15.085Z</time></trkpt><trkpt lat="32.829769" lon="10.2248538"><ele>490.0</ele><time>2026-04-26T15:55:16.09Z</time></trkpt><trkpt lat="32.8297797" lon="10.224711"><ele>490.0</ele><time>2026-04-26T15:55:17.06Z</time></trkpt><trkpt lat="32.8297898" lon="10.2245747"><ele>490.0</ele><time>2026-04-26T15:55:18.073Z</time></trkpt><trkpt lat="32.8298012" lon="10.2244427"><ele>490.0</ele><time>2026-04-26T15:55:19.083Z</time></trkpt><trkpt lat="32.8298081" lon="10.2243218"><ele>490.0</ele><time>2026-04-26T15:55:20.079Z</time></trkpt><trkpt lat="32.8298153" lon="10.2241989"><ele>490.0</ele><time>2026-04-26T15:55:21.077Z</time></trkpt><trkpt lat="32.8298239" lon="10.2240642"><ele>490.0</ele><time>2026-04-26T15:55:22.094Z</time></trkpt><trkpt lat="32.8299104" lon="10.2234364"><ele>489.33333333333337</ele><time>2026-04-26T15:55:26.073Z</time></trkpt><trkpt lat="32.8299456" lon="10.2232634"><ele>488.66666666666663</ele><time>2026-04-26T15:55:27.059Z</time></trkpt><trkpt lat="32.8299871" lon="10.223088"><ele>488.0</ele><time>2026-04-26T15:55:28.06Z</time></trkpt><trkpt lat="32.8300381" lon="10.2229093"><ele>487.0</ele><time>2026-04-26T15:55:29.062Z</time></trkpt><trkpt lat="32.8300991" lon="10.2227263"><ele>486.0</ele><time>2026-04-26T15:55:30.073Z</time></trkpt><trkpt lat="32.8301527" lon="10.222543"><ele>485.0</ele><time>2026-04-26T15:55:31.055Z</time></trkpt><trkpt lat="32.8302024" lon="10.2223586"><ele>486.3333333333333</ele><time>2026-04-26T15:55:32.044Z</time></trkpt><trkpt lat="32.8302463" lon="10.2221778"><ele>487.66666666666663</ele><time>2026-04-26T15:55:33.14Z</time></trkpt><trkpt lat="32.8302875" lon="10.2220011"><ele>489.0</ele><time>2026-04-26T15:55:34.107Z</time></trkpt><trkpt lat="32.8303391" lon="10.2218224"><ele>489.0</ele><time>2026-04-26T15:55:35.131Z</time></trkpt><trkpt lat="32.8303916" lon="10.2216441"><ele>489.0</ele><time>2026-04-26T15:55:36.065Z</time></trkpt><trkpt lat="32.8304423" lon="10.2214665"><ele>489.0</ele><time>2026-04-26T15:55:37.053Z</time></trkpt><trkpt lat="32.830502" lon="10.2212924"><ele>487.33333333333337</ele><time>2026-04-26T15:55:38.063Z</time></trkpt><trkpt lat="32.8305637" lon="10.2211164"><ele>485.6666666666667</ele><time>2026-04-26T15:55:39.1Z</time></trkpt><trkpt lat="32.8306139" lon="10.220932"><ele>484.0</ele><time>2026-04-26T15:55:40.049Z</time></trkpt><trkpt lat="32.8306643" lon="10.2207604"><ele>484.0</ele><time>2026-04-26T15:55:41.058Z</time></trkpt><trkpt lat="32.8307111" lon="10.2205852"><ele>484.0</ele><time>2026-04-26T15:55:42.051Z</time></trkpt><trkpt lat="32.8307585" lon="10.2204198"><ele>484.0</ele><time>2026-04-26T15:55:43.054Z</time></trkpt><trkpt lat="32.8308087" lon="10.2202548"><ele>484.0</ele><time>2026-04-26T15:55:44.09Z</time></trkpt><trkpt lat="32.830865" lon="10.2200917"><ele>484.0</ele><time>2026-04-26T15:55:45.067Z</time></trkpt><trkpt lat="32.8309176" lon="10.2199213"><ele>484.0</ele><time>2026-04-26T15:55:46.057Z</time></trkpt><trkpt lat="32.8309722" lon="10.2197445"><ele>484.0</ele><time>2026-04-26T15:55:47.062Z</time></trkpt><trkpt lat="32.831027" lon="10.2195728"><ele>483.33333333333337</ele><time>2026-04-26T15:55:48.075Z</time></trkpt><trkpt lat="32.8310878" lon="10.2194019"><ele>482.66666666666663</ele><time>2026-04-26T15:55:49.081Z</time></trkpt><trkpt lat="32.8311579" lon="10.2192329"><ele>482.0</ele><time>2026-04-26T15:55:50.083Z</time></trkpt><trkpt lat="32.8312222" lon="10.2190668"><ele>482.0</ele><time>2026-04-26T15:55:51.061Z</time></trkpt><trkpt lat="32.8312895" lon="10.2188812"><ele>482.0</ele><time>2026-04-26T15:55:52.069Z</time></trkpt><trkpt lat="32.83135" lon="10.2186925"><ele>482.0</ele><time>2026-04-26T15:55:53.071Z</time></trkpt><trkpt lat="32.8313997" lon="10.2185152"><ele>482.0</ele><time>2026-04-26T15:55:54.08Z</time></trkpt><trkpt lat="32.8314473" lon="10.2183379"><ele>482.0</ele><time>2026-04-26T15:55:55.073Z</time></trkpt><trkpt lat="32.8315011" lon="10.2181674"><ele>482.0</ele><time>2026-04-26T15:55:56.074Z</time></trkpt><trkpt lat="32.831553" lon="10.2180053"><ele>482.3333333333333</ele><time>2026-04-26T15:55:57.072Z</time></trkpt><trkpt lat="32.8316119" lon="10.2178355"><ele>482.66666666666663</ele><time>2026-04-26T15:55:58.078Z</time></trkpt><trkpt lat="32.8316724" lon="10.2176618"><ele>483.0</ele><time>2026-04-26T15:55:59.077Z</time></trkpt><trkpt lat="32.8317391" lon="10.2174887"><ele>483.0</ele><time>2026-04-26T15:56:00.076Z</time></trkpt><trkpt lat="32.8317989" lon="10.2173237"><ele>483.0</ele><time>2026-04-26T15:56:01.062Z</time></trkpt><trkpt lat="32.8318552" lon="10.2171794"><ele>483.0</ele><time>2026-04-26T15:56:02.06Z</time></trkpt><trkpt lat="32.8319107" lon="10.2170252"><ele>483.0</ele><time>2026-04-26T15:56:03.071Z</time></trkpt><trkpt lat="32.8319817" lon="10.2168541"><ele>483.0</ele><time>2026-04-26T15:56:04.093Z</time></trkpt><trkpt lat="32.8320578" lon="10.2166476"><ele>483.0</ele><time>2026-04-26T15:56:05.162Z</time></trkpt><trkpt lat="32.8321363" lon="10.216439"><ele>483.0</ele><time>2026-04-26T15:56:06.143Z</time></trkpt><trkpt lat="32.8322158" lon="10.2162506"><ele>483.0</ele><time>2026-04-26T15:56:07.114Z</time></trkpt><trkpt lat="32.8322933" lon="10.2160659"><ele>483.0</ele><time>2026-04-26T15:56:08.117Z</time></trkpt><trkpt lat="32.8323612" lon="10.2158907"><ele>483.0</ele><time>2026-04-26T15:56:09.138Z</time></trkpt><trkpt lat="32.832425" lon="10.2157234"><ele>483.4</ele><time>2026-04-26T15:56:10.137Z</time></trkpt><trkpt lat="32.83248" lon="10.2155825"><ele>483.79999999999995</ele><time>2026-04-26T15:56:11.124Z</time></trkpt><trkpt lat="32.8325287" lon="10.2154715"><ele>484.2</ele><time>2026-04-26T15:56:12.124Z</time></trkpt><trkpt lat="32.8325685" lon="10.2153777"><ele>484.6</ele><time>2026-04-26T15:56:13.144Z</time></trkpt><trkpt lat="32.832602" lon="10.2152948"><ele>485.0</ele><time>2026-04-26T15:56:14.128Z</time></trkpt><trkpt lat="32.8326409" lon="10.2152101"><ele>484.99999999999994</ele><time>2026-04-26T15:56:15.125Z</time></trkpt><trkpt lat="32.8326686" lon="10.2151401"><ele>485.0</ele><time>2026-04-26T15:56:16.129Z</time></trkpt><trkpt lat="32.8327142" lon="10.2150436"><ele>485.0</ele><time>2026-04-26T15:56:18.131Z</time></trkpt><trkpt lat="32.8327499" lon="10.2149751"><ele>485.0</ele><time>2026-04-26T15:56:20.131Z</time></trkpt><trkpt lat="32.8327826" lon="10.2149038"><ele>484.99999999999994</ele><time>2026-04-26T15:56:22.145Z</time></trkpt><trkpt lat="32.8328241" lon="10.214821"><ele>485.0</ele><time>2026-04-26T15:56:24.134Z</time></trkpt><trkpt lat="32.8328698" lon="10.2147385"><ele>484.8333333333333</ele><time>2026-04-26T15:56:26.154Z</time></trkpt><trkpt lat="32.8329144" lon="10.2146561"><ele>484.66666666666663</ele><time>2026-04-26T15:56:28.12Z</time></trkpt><trkpt lat="32.8329666" lon="10.2145626"><ele>484.5</ele><time>2026-04-26T15:56:30.142Z</time></trkpt><trkpt lat="32.833028" lon="10.214449"><ele>484.33333333333337</ele><time>2026-04-26T15:56:32.123Z</time></trkpt><trkpt lat="32.8330675" lon="10.2143716"><ele>484.1666666666667</ele><time>2026-04-26T15:56:33.132Z</time></trkpt><trkpt lat="32.8331024" lon="10.2143047"><ele>484.0</ele><time>2026-04-26T15:56:34.155Z</time></trkpt><trkpt lat="32.8331621" lon="10.2141959"><ele>484.0</ele><time>2026-04-26T15:56:36.139Z</time></trkpt><trkpt lat="32.8332156" lon="10.2141013"><ele>484.0</ele><time>2026-04-26T15:56:38.142Z</time></trkpt><trkpt lat="32.8332676" lon="10.2140072"><ele>484.0</ele><time>2026-04-26T15:56:40.139Z</time></trkpt><trkpt lat="32.8333217" lon="10.2139188"><ele>484.0</ele><time>2026-04-26T15:56:42.132Z</time></trkpt><trkpt lat="32.8333909" lon="10.2138228"><ele>484.0</ele><time>2026-04-26T15:56:44.132Z</time></trkpt><trkpt lat="32.8334534" lon="10.2137159"><ele>483.33333333333337</ele><time>2026-04-26T15:56:46.145Z</time></trkpt><trkpt lat="32.8335059" lon="10.2136315"><ele>482.6666666666667</ele><time>2026-04-26T15:56:48.14Z</time></trkpt><trkpt lat="32.8335694" lon="10.2135142"><ele>482.0</ele><time>2026-04-26T15:56:50.139Z</time></trkpt><trkpt lat="32.8336105" lon="10.213439"><ele>481.33333333333337</ele><time>2026-04-26T15:56:51.148Z</time></trkpt><trkpt lat="32.8336592" lon="10.2133598"><ele>480.6666666666667</ele><time>2026-04-26T15:56:52.129Z</time></trkpt><trkpt lat="32.8337021" lon="10.2132902"><ele>480.0</ele><time>2026-04-26T15:56:53.135Z</time></trkpt><trkpt lat="32.8337412" lon="10.2132237"><ele>480.0</ele><time>2026-04-26T15:56:54.095Z</time></trkpt><trkpt lat="32.8337892" lon="10.2131428"><ele>480.0</ele><time>2026-04-26T15:56:55.077Z</time></trkpt><trkpt lat="32.8338597" lon="10.2130296"><ele>480.0</ele><time>2026-04-26T15:56:56.078Z</time></trkpt><trkpt lat="32.8339449" lon="10.2128826"><ele>480.0</ele><time>2026-04-26T15:56:57.081Z</time></trkpt><trkpt lat="32.8340514" lon="10.2127091"><ele>480.0</ele><time>2026-04-26T15:56:58.075Z</time></trkpt><trkpt lat="32.8341635" lon="10.212513"><ele>480.0</ele><time>2026-04-26T15:56:59.086Z</time></trkpt><trkpt lat="32.8342837" lon="10.2123249"><ele>480.0</ele><time>2026-04-26T15:57:00.083Z</time></trkpt><trkpt lat="32.8343946" lon="10.2121614"><ele>478.66666666666663</ele><time>2026-04-26T15:57:01.07Z</time></trkpt><trkpt lat="32.8344977" lon="10.2120063"><ele>477.3333333333333</ele><time>2026-04-26T15:57:02.092Z</time></trkpt><trkpt lat="32.8345867" lon="10.2118646"><ele>476.0</ele><time>2026-04-26T15:57:03.066Z</time></trkpt><trkpt lat="32.8346665" lon="10.2117299"><ele>476.0</ele><time>2026-04-26T15:57:04.083Z</time></trkpt><trkpt lat="32.8347481" lon="10.2116086"><ele>476.0</ele><time>2026-04-26T15:57:05.072Z</time></trkpt><trkpt lat="32.8348244" lon="10.2114938"><ele>476.0</ele><time>2026-04-26T15:57:06.08Z</time></trkpt><trkpt lat="32.8348926" lon="10.2113875"><ele>476.0</ele><time>2026-04-26T15:57:07.088Z</time></trkpt><trkpt lat="32.8349537" lon="10.2112923"><ele>476.20000000000005</ele><time>2026-04-26T15:57:08.08Z</time></trkpt><trkpt lat="32.8350123" lon="10.2112094"><ele>476.40000000000003</ele><time>2026-04-26T15:57:09.068Z</time></trkpt><trkpt lat="32.8350706" lon="10.2111234"><ele>476.6</ele><time>2026-04-26T15:57:10.138Z</time></trkpt><trkpt lat="32.835128" lon="10.2110405"><ele>476.8</ele><time>2026-04-26T15:57:11.098Z</time></trkpt><trkpt lat="32.8351951" lon="10.210954"><ele>477.0</ele><time>2026-04-26T15:57:12.068Z</time></trkpt><trkpt lat="32.8352485" lon="10.2108749"><ele>476.6666666666667</ele><time>2026-04-26T15:57:13.08Z</time></trkpt><trkpt lat="32.8352966" lon="10.2107982"><ele>476.33333333333337</ele><time>2026-04-26T15:57:14.07Z</time></trkpt><trkpt lat="32.8353472" lon="10.2107168"><ele>476.0</ele><time>2026-04-26T15:57:15.074Z</time></trkpt><trkpt lat="32.8353963" lon="10.2106418"><ele>475.6666666666667</ele><time>2026-04-26T15:57:16.081Z</time></trkpt><trkpt lat="32.8354441" lon="10.2105663"><ele>475.33333333333337</ele><time>2026-04-26T15:57:17.087Z</time></trkpt><trkpt lat="32.8354927" lon="10.2104925"><ele>475.0</ele><time>2026-04-26T15:57:18.081Z</time></trkpt><trkpt lat="32.8355338" lon="10.2104178"><ele>474.83333333333337</ele><time>2026-04-26T15:57:19.077Z</time></trkpt><trkpt lat="32.8355811" lon="10.2103423"><ele>474.6666666666667</ele><time>2026-04-26T15:57:20.079Z</time></trkpt><trkpt lat="32.8356332" lon="10.210254"><ele>474.5</ele><time>2026-04-26T15:57:21.075Z</time></trkpt><trkpt lat="32.8356834" lon="10.2101696"><ele>474.33333333333337</ele><time>2026-04-26T15:57:22.087Z</time></trkpt><trkpt lat="32.8357308" lon="10.2100801"><ele>474.1666666666667</ele><time>2026-04-26T15:57:23.088Z</time></trkpt><trkpt lat="32.8357785" lon="10.2099927"><ele>474.0</ele><time>2026-04-26T15:57:24.08Z</time></trkpt><trkpt lat="32.8358263" lon="10.209901"><ele>473.8333333333333</ele><time>2026-04-26T15:57:25.088Z</time></trkpt><trkpt lat="32.835868" lon="10.2098098"><ele>473.66666666666663</ele><time>2026-04-26T15:57:26.072Z</time></trkpt><trkpt lat="32.8359003" lon="10.2097184"><ele>473.5</ele><time>2026-04-26T15:57:27.07Z</time></trkpt><trkpt lat="32.8359274" lon="10.2096316"><ele>473.3333333333333</ele><time>2026-04-26T15:57:28.086Z</time></trkpt><trkpt lat="32.8359529" lon="10.2095483"><ele>473.16666666666663</ele><time>2026-04-26T15:57:29.061Z</time></trkpt><trkpt lat="32.8359745" lon="10.2094691"><ele>473.0</ele><time>2026-04-26T15:57:30.09Z</time></trkpt><trkpt lat="32.8359949" lon="10.2093949"><ele>472.8333333333333</ele><time>2026-04-26T15:57:31.068Z</time></trkpt><trkpt lat="32.8360235" lon="10.2092571"><ele>472.66666666666663</ele><time>2026-04-26T15:57:33.077Z</time></trkpt><trkpt lat="32.8360571" lon="10.2091188"><ele>472.5</ele><time>2026-04-26T15:57:35.083Z</time></trkpt><trkpt lat="32.8360808" lon="10.2090477"><ele>472.33333333333337</ele><time>2026-04-26T15:57:36.075Z</time></trkpt><trkpt lat="32.8361078" lon="10.2089721"><ele>472.1666666666667</ele><time>2026-04-26T15:57:37.08Z</time></trkpt><trkpt lat="32.8361297" lon="10.2088991"><ele>472.0</ele><time>2026-04-26T15:57:38.09Z</time></trkpt><trkpt lat="32.836168" lon="10.2087611"><ele>472.00000000000006</ele><time>2026-04-26T15:57:40.084Z</time></trkpt><trkpt lat="32.8361917" lon="10.208684"><ele>472.0</ele><time>2026-04-26T15:57:41.104Z</time></trkpt><trkpt lat="32.8362163" lon="10.2086128"><ele>472.0</ele><time>2026-04-26T15:57:42.063Z</time></trkpt><trkpt lat="32.8362408" lon="10.2085379"><ele>472.0</ele><time>2026-04-26T15:57:43.093Z</time></trkpt><trkpt lat="32.8362658" lon="10.2084642"><ele>472.00000000000006</ele><time>2026-04-26T15:57:44.091Z</time></trkpt><trkpt lat="32.8363015" lon="10.2083206"><ele>472.0</ele><time>2026-04-26T15:57:46.078Z</time></trkpt><trkpt lat="32.836323" lon="10.2082366"><ele>472.1666666666667</ele><time>2026-04-26T15:57:47.069Z</time></trkpt><trkpt lat="32.8363432" lon="10.2081582"><ele>472.33333333333337</ele><time>2026-04-26T15:57:48.086Z</time></trkpt><trkpt lat="32.8363653" lon="10.2080723"><ele>472.5</ele><time>2026-04-26T15:57:49.082Z</time></trkpt><trkpt lat="32.8363914" lon="10.2079856"><ele>472.66666666666663</ele><time>2026-04-26T15:57:50.091Z</time></trkpt><trkpt lat="32.8364192" lon="10.2078958"><ele>472.8333333333333</ele><time>2026-04-26T15:57:51.074Z</time></trkpt><trkpt lat="32.8364507" lon="10.2078061"><ele>473.0</ele><time>2026-04-26T15:57:52.095Z</time></trkpt><trkpt lat="32.8364863" lon="10.2077212"><ele>472.99999999999994</ele><time>2026-04-26T15:57:53.065Z</time></trkpt><trkpt lat="32.8365239" lon="10.2076324"><ele>473.0</ele><time>2026-04-26T15:57:54.069Z</time></trkpt><trkpt lat="32.8365612" lon="10.2075432"><ele>473.0</ele><time>2026-04-26T15:57:55.082Z</time></trkpt><trkpt lat="32.8366022" lon="10.2074601"><ele>473.0</ele><time>2026-04-26T15:57:56.09Z</time></trkpt><trkpt lat="32.8366466" lon="10.2073837"><ele>472.99999999999994</ele><time>2026-04-26T15:57:57.08Z</time></trkpt><trkpt lat="32.8366834" lon="10.2073207"><ele>473.0</ele><time>2026-04-26T15:57:58.083Z</time></trkpt><trkpt lat="32.8367456" lon="10.2072202"><ele>473.16666666666663</ele><time>2026-04-26T15:58:00.087Z</time></trkpt><trkpt lat="32.8367907" lon="10.2071534"><ele>473.3333333333333</ele><time>2026-04-26T15:58:02.083Z</time></trkpt><trkpt lat="32.8368416" lon="10.2071066"><ele>473.5</ele><time>2026-04-26T15:58:04.082Z</time></trkpt><trkpt lat="32.836888" lon="10.2070547"><ele>473.66666666666663</ele><time>2026-04-26T15:58:08.092Z</time></trkpt><trkpt lat="32.8369508" lon="10.2069933"><ele>473.8333333333333</ele><time>2026-04-26T15:58:10.076Z</time></trkpt><trkpt lat="32.8370317" lon="10.2069236"><ele>474.0</ele><time>2026-04-26T15:58:12.079Z</time></trkpt><trkpt lat="32.8371133" lon="10.2068496"><ele>473.8333333333333</ele><time>2026-04-26T15:58:14.076Z</time></trkpt><trkpt lat="32.8371846" lon="10.2067982"><ele>473.66666666666663</ele><time>2026-04-26T15:58:16.088Z</time></trkpt><trkpt lat="32.8372405" lon="10.2067545"><ele>473.5</ele><time>2026-04-26T15:58:18.066Z</time></trkpt><trkpt lat="32.8372998" lon="10.2066811"><ele>473.3333333333333</ele><time>2026-04-26T15:58:47.094Z</time></trkpt><trkpt lat="32.8373702" lon="10.2065961"><ele>473.16666666666663</ele><time>2026-04-26T15:58:49.107Z</time></trkpt><trkpt lat="32.8374402" lon="10.2065037"><ele>473.0</ele><time>2026-04-26T15:58:51.117Z</time></trkpt><trkpt lat="32.8374946" lon="10.2063886"><ele>473.0</ele><time>2026-04-26T15:58:53.098Z</time></trkpt><trkpt lat="32.8375545" lon="10.2062661"><ele>472.99999999999994</ele><time>2026-04-26T15:58:55.112Z</time></trkpt><trkpt lat="32.8376188" lon="10.2061336"><ele>472.99999999999994</ele><time>2026-04-26T15:58:57.115Z</time></trkpt><trkpt lat="32.8376565" lon="10.2060671"><ele>473.0</ele><time>2026-04-26T15:58:58.105Z</time></trkpt><trkpt lat="32.8376929" lon="10.2059988"><ele>473.0</ele><time>2026-04-26T15:58:59.106Z</time></trkpt><trkpt lat="32.8377303" lon="10.2059289"><ele>472.8571428571429</ele><time>2026-04-26T15:59:00.079Z</time></trkpt><trkpt lat="32.8377766" lon="10.2058636"><ele>472.71428571428567</ele><time>2026-04-26T15:59:01.101Z</time></trkpt><trkpt lat="32.8378171" lon="10.2057967"><ele>472.57142857142856</ele><time>2026-04-26T15:59:02.101Z</time></trkpt><trkpt lat="32.8378624" lon="10.2057242"><ele>472.42857142857144</ele><time>2026-04-26T15:59:03.106Z</time></trkpt><trkpt lat="32.8379021" lon="10.2056531"><ele>472.28571428571433</ele><time>2026-04-26T15:59:04.118Z</time></trkpt><trkpt lat="32.8379486" lon="10.2055829"><ele>472.1428571428571</ele><time>2026-04-26T15:59:05.124Z</time></trkpt><trkpt lat="32.8379967" lon="10.2055034"><ele>472.0</ele><time>2026-04-26T15:59:06.123Z</time></trkpt><trkpt lat="32.8380387" lon="10.2054225"><ele>471.1666666666667</ele><time>2026-04-26T15:59:07.119Z</time></trkpt><trkpt lat="32.8380768" lon="10.2053409"><ele>470.33333333333337</ele><time>2026-04-26T15:59:08.108Z</time></trkpt><trkpt lat="32.8381167" lon="10.2052602"><ele>469.5</ele><time>2026-04-26T15:59:09.097Z</time></trkpt><trkpt lat="32.8381623" lon="10.2051757"><ele>468.66666666666663</ele><time>2026-04-26T15:59:10.111Z</time></trkpt><trkpt lat="32.8382054" lon="10.2050958"><ele>467.8333333333333</ele><time>2026-04-26T15:59:11.095Z</time></trkpt><trkpt lat="32.8382513" lon="10.2050101"><ele>467.0</ele><time>2026-04-26T15:59:12.097Z</time></trkpt><trkpt lat="32.8382976" lon="10.2049308"><ele>466.99999999999994</ele><time>2026-04-26T15:59:13.117Z</time></trkpt><trkpt lat="32.8383361" lon="10.2048491"><ele>467.0</ele><time>2026-04-26T15:59:14.088Z</time></trkpt><trkpt lat="32.8383711" lon="10.2047674"><ele>467.0</ele><time>2026-04-26T15:59:15.086Z</time></trkpt><trkpt lat="32.8384052" lon="10.2046888"><ele>467.0</ele><time>2026-04-26T15:59:16.12Z</time></trkpt><trkpt lat="32.8384449" lon="10.2046007"><ele>466.99999999999994</ele><time>2026-04-26T15:59:17.108Z</time></trkpt><trkpt lat="32.8384897" lon="10.2045161"><ele>467.0</ele><time>2026-04-26T15:59:18.103Z</time></trkpt><trkpt lat="32.8385321" lon="10.2044287"><ele>467.5</ele><time>2026-04-26T15:59:19.105Z</time></trkpt><trkpt lat="32.8385706" lon="10.2043397"><ele>468.0</ele><time>2026-04-26T15:59:20.094Z</time></trkpt><trkpt lat="32.8386193" lon="10.2042458"><ele>468.5</ele><time>2026-04-26T15:59:21.108Z</time></trkpt><trkpt lat="32.8386776" lon="10.204122"><ele>469.0</ele><time>2026-04-26T15:59:22.114Z</time></trkpt><trkpt lat="32.8387538" lon="10.2039604"><ele>469.0</ele><time>2026-04-26T15:59:23.104Z</time></trkpt><trkpt lat="32.8388481" lon="10.2037751"><ele>469.0</ele><time>2026-04-26T15:59:24.123Z</time></trkpt><trkpt lat="32.8389373" lon="10.2036023"><ele>469.0</ele><time>2026-04-26T15:59:25.107Z</time></trkpt><trkpt lat="32.8390142" lon="10.203444"><ele>469.0</ele><time>2026-04-26T15:59:26.118Z</time></trkpt><trkpt lat="32.8390764" lon="10.2033107"><ele>469.0</ele><time>2026-04-26T15:59:27.104Z</time></trkpt><trkpt lat="32.8391416" lon="10.2031794"><ele>469.0</ele><time>2026-04-26T15:59:28.13Z</time></trkpt><trkpt lat="32.8391996" lon="10.2030632"><ele>469.0</ele><time>2026-04-26T15:59:29.091Z</time></trkpt><trkpt lat="32.8392589" lon="10.2029516"><ele>468.0</ele><time>2026-04-26T15:59:30.113Z</time></trkpt><trkpt lat="32.8393237" lon="10.2028524"><ele>467.0</ele><time>2026-04-26T15:59:31.117Z</time></trkpt><trkpt lat="32.8393788" lon="10.2027705"><ele>466.0</ele><time>2026-04-26T15:59:32.176Z</time></trkpt><trkpt lat="32.8394336" lon="10.202699"><ele>465.0</ele><time>2026-04-26T15:59:33.081Z</time></trkpt><trkpt lat="32.8394856" lon="10.2026287"><ele>464.0</ele><time>2026-04-26T15:59:34.124Z</time></trkpt><trkpt lat="32.8395845" lon="10.2025431"><ele>464.00000000000006</ele><time>2026-04-26T15:59:36.117Z</time></trkpt><trkpt lat="32.839647" lon="10.2025075"><ele>464.0</ele><time>2026-04-26T15:59:37.113Z</time></trkpt><trkpt lat="32.8397075" lon="10.2024732"><ele>464.00000000000006</ele><time>2026-04-26T15:59:38.128Z</time></trkpt><trkpt lat="32.8397683" lon="10.2024328"><ele>464.00000000000006</ele><time>2026-04-26T15:59:39.079Z</time></trkpt><trkpt lat="32.8398298" lon="10.2023908"><ele>464.0</ele><time>2026-04-26T15:59:40.109Z</time></trkpt><trkpt lat="32.8398951" lon="10.2023396"><ele>464.00000000000006</ele><time>2026-04-26T15:59:41.118Z</time></trkpt><trkpt lat="32.8399555" lon="10.20228"><ele>464.00000000000006</ele><time>2026-04-26T15:59:42.119Z</time></trkpt><trkpt lat="32.8400139" lon="10.202222"><ele>464.16666666666663</ele><time>2026-04-26T15:59:43.127Z</time></trkpt><trkpt lat="32.8400679" lon="10.2021518"><ele>464.3333333333333</ele><time>2026-04-26T15:59:44.111Z</time></trkpt><trkpt lat="32.8401122" lon="10.2020759"><ele>464.5</ele><time>2026-04-26T15:59:45.107Z</time></trkpt><trkpt lat="32.8401512" lon="10.2019956"><ele>464.66666666666663</ele><time>2026-04-26T15:59:46.065Z</time></trkpt><trkpt lat="32.8401869" lon="10.2019036"><ele>464.8333333333333</ele><time>2026-04-26T15:59:47.117Z</time></trkpt><trkpt lat="32.8402215" lon="10.2018102"><ele>465.0</ele><time>2026-04-26T15:59:48.119Z</time></trkpt><trkpt lat="32.8402511" lon="10.2017107"><ele>465.0</ele><time>2026-04-26T15:59:49.097Z</time></trkpt><trkpt lat="32.8402772" lon="10.2016175"><ele>465.0</ele><time>2026-04-26T15:59:50.082Z</time></trkpt><trkpt lat="32.8403064" lon="10.2015234"><ele>465.0</ele><time>2026-04-26T15:59:51.085Z</time></trkpt><trkpt lat="32.8403381" lon="10.2014269"><ele>465.0</ele><time>2026-04-26T15:59:52.106Z</time></trkpt><trkpt lat="32.8403631" lon="10.201339"><ele>465.0</ele><time>2026-04-26T15:59:53.079Z</time></trkpt><trkpt lat="32.8403832" lon="10.2012576"><ele>465.0</ele><time>2026-04-26T15:59:54.129Z</time></trkpt><trkpt lat="32.8403983" lon="10.201184"><ele>465.0</ele><time>2026-04-26T15:59:55.077Z</time></trkpt><trkpt lat="32.8404191" lon="10.2010495"><ele>465.0</ele><time>2026-04-26T15:59:57.112Z</time></trkpt><trkpt lat="32.84045" lon="10.2009285"><ele>465.0</ele><time>2026-04-26T15:59:59.118Z</time></trkpt><trkpt lat="32.8404744" lon="10.2008187"><ele>465.0</ele><time>2026-04-26T16:00:01.119Z</time></trkpt><trkpt lat="32.8405102" lon="10.2006822"><ele>465.0</ele><time>2026-04-26T16:00:03.115Z</time></trkpt><trkpt lat="32.8405344" lon="10.2006062"><ele>465.3333333333333</ele><time>2026-04-26T16:00:04.139Z</time></trkpt><trkpt lat="32.8405587" lon="10.2005277"><ele>465.66666666666663</ele><time>2026-04-26T16:00:05.121Z</time></trkpt><trkpt lat="32.8405856" lon="10.2004404"><ele>466.0</ele><time>2026-04-26T16:00:06.112Z</time></trkpt><trkpt lat="32.8406107" lon="10.2003478"><ele>466.3333333333333</ele><time>2026-04-26T16:00:07.112Z</time></trkpt><trkpt lat="32.8406375" lon="10.2002538"><ele>466.66666666666663</ele><time>2026-04-26T16:00:08.112Z</time></trkpt><trkpt lat="32.8406626" lon="10.2001593"><ele>467.0</ele><time>2026-04-26T16:00:09.104Z</time></trkpt><trkpt lat="32.8406854" lon="10.2000752"><ele>466.99999999999994</ele><time>2026-04-26T16:00:10.146Z</time></trkpt><trkpt lat="32.8407135" lon="10.1999841"><ele>467.0</ele><time>2026-04-26T16:00:11.117Z</time></trkpt><trkpt lat="32.840745" lon="10.1998927"><ele>467.0</ele><time>2026-04-26T16:00:12.114Z</time></trkpt><trkpt lat="32.8407756" lon="10.1998019"><ele>467.0</ele><time>2026-04-26T16:00:13.1Z</time></trkpt><trkpt lat="32.8408117" lon="10.1996986"><ele>466.99999999999994</ele><time>2026-04-26T16:00:14.109Z</time></trkpt><trkpt lat="32.8408516" lon="10.1995936"><ele>467.0</ele><time>2026-04-26T16:00:15.091Z</time></trkpt><trkpt lat="32.8408933" lon="10.1994895"><ele>466.8</ele><time>2026-04-26T16:00:16.087Z</time></trkpt><trkpt lat="32.8409484" lon="10.1993848"><ele>466.6</ele><time>2026-04-26T16:00:17.084Z</time></trkpt><trkpt lat="32.8410141" lon="10.1992876"><ele>466.40000000000003</ele><time>2026-04-26T16:00:18.104Z</time></trkpt><trkpt lat="32.8410753" lon="10.1991781"><ele>466.20000000000005</ele><time>2026-04-26T16:00:19.087Z</time></trkpt><trkpt lat="32.8411442" lon="10.1990763"><ele>466.0</ele><time>2026-04-26T16:00:20.101Z</time></trkpt><trkpt lat="32.8412152" lon="10.1989741"><ele>465.8</ele><time>2026-04-26T16:00:21.102Z</time></trkpt><trkpt lat="32.8412873" lon="10.1988777"><ele>465.6</ele><time>2026-04-26T16:00:22.119Z</time></trkpt><trkpt lat="32.8413599" lon="10.198775"><ele>465.4</ele><time>2026-04-26T16:00:23.093Z</time></trkpt><trkpt lat="32.8414249" lon="10.1986784"><ele>465.2</ele><time>2026-04-26T16:00:24.09Z</time></trkpt><trkpt lat="32.841483" lon="10.1985749"><ele>465.0</ele><time>2026-04-26T16:00:25.106Z</time></trkpt><trkpt lat="32.841537" lon="10.1984611"><ele>465.0</ele><time>2026-04-26T16:00:26.111Z</time></trkpt><trkpt lat="32.8415872" lon="10.1983508"><ele>465.0</ele><time>2026-04-26T16:00:27.098Z</time></trkpt><trkpt lat="32.8416308" lon="10.1982358"><ele>465.0</ele><time>2026-04-26T16:00:28.111Z</time></trkpt><trkpt lat="32.8416797" lon="10.1981124"><ele>465.0</ele><time>2026-04-26T16:00:29.108Z</time></trkpt><trkpt lat="32.8417202" lon="10.1980078"><ele>465.0</ele><time>2026-04-26T16:00:30.114Z</time></trkpt><trkpt lat="32.8417592" lon="10.1979073"><ele>465.2</ele><time>2026-04-26T16:00:31.105Z</time></trkpt><trkpt lat="32.8418093" lon="10.1978088"><ele>465.4</ele><time>2026-04-26T16:00:32.112Z</time></trkpt><trkpt lat="32.8418661" lon="10.1977158"><ele>465.6</ele><time>2026-04-26T16:00:33.11Z</time></trkpt><trkpt lat="32.8419311" lon="10.1976246"><ele>465.8</ele><time>2026-04-26T16:00:34.108Z</time></trkpt><trkpt lat="32.842" lon="10.1975382"><ele>466.0</ele><time>2026-04-26T16:00:35.075Z</time></trkpt><trkpt lat="32.8420627" lon="10.1974561"><ele>466.0</ele><time>2026-04-26T16:00:36.092Z</time></trkpt><trkpt lat="32.8421289" lon="10.1973783"><ele>466.0</ele><time>2026-04-26T16:00:37.121Z</time></trkpt><trkpt lat="32.8421909" lon="10.1973009"><ele>466.0</ele><time>2026-04-26T16:00:38.118Z</time></trkpt><trkpt lat="32.8422419" lon="10.1972225"><ele>466.0</ele><time>2026-04-26T16:00:39.092Z</time></trkpt><trkpt lat="32.8422953" lon="10.197131"><ele>466.0</ele><time>2026-04-26T16:00:40.116Z</time></trkpt><trkpt lat="32.8423538" lon="10.1970347"><ele>465.4</ele><time>2026-04-26T16:00:41.126Z</time></trkpt><trkpt lat="32.842411" lon="10.1969378"><ele>464.8</ele><time>2026-04-26T16:00:42.102Z</time></trkpt><trkpt lat="32.8424609" lon="10.1968384"><ele>464.19999999999993</ele><time>2026-04-26T16:00:43.104Z</time></trkpt><trkpt lat="32.8425085" lon="10.19673"><ele>463.59999999999997</ele><time>2026-04-26T16:00:44.112Z</time></trkpt><trkpt lat="32.8425535" lon="10.1966158"><ele>463.0</ele><time>2026-04-26T16:00:45.101Z</time></trkpt><trkpt lat="32.8425884" lon="10.1965054"><ele>462.79999999999995</ele><time>2026-04-26T16:00:46.084Z</time></trkpt><trkpt lat="32.8426157" lon="10.1963909"><ele>462.59999999999997</ele><time>2026-04-26T16:00:47.068Z</time></trkpt><trkpt lat="32.8426411" lon="10.1962787"><ele>462.40000000000003</ele><time>2026-04-26T16:00:48.116Z</time></trkpt><trkpt lat="32.8426578" lon="10.1961664"><ele>462.20000000000005</ele><time>2026-04-26T16:00:49.091Z</time></trkpt><trkpt lat="32.8426668" lon="10.1960507"><ele>462.0</ele><time>2026-04-26T16:00:50.099Z</time></trkpt><trkpt lat="32.8426692" lon="10.1959417"><ele>462.3333333333333</ele><time>2026-04-26T16:00:51.098Z</time></trkpt><trkpt lat="32.8426689" lon="10.1958314"><ele>462.66666666666663</ele><time>2026-04-26T16:00:52.11Z</time></trkpt><trkpt lat="32.8426713" lon="10.1957322"><ele>463.0</ele><time>2026-04-26T16:00:53.102Z</time></trkpt><trkpt lat="32.8426772" lon="10.1956363"><ele>463.3333333333333</ele><time>2026-04-26T16:00:54.116Z</time></trkpt><trkpt lat="32.8426853" lon="10.1955416"><ele>463.66666666666663</ele><time>2026-04-26T16:00:55.107Z</time></trkpt><trkpt lat="32.8427065" lon="10.1954479"><ele>464.0</ele><time>2026-04-26T16:00:56.105Z</time></trkpt><trkpt lat="32.8427386" lon="10.1953599"><ele>463.99999999999994</ele><time>2026-04-26T16:00:57.114Z</time></trkpt><trkpt lat="32.8427841" lon="10.195265"><ele>464.0</ele><time>2026-04-26T16:00:58.104Z</time></trkpt><trkpt lat="32.8428234" lon="10.1951712"><ele>464.0</ele><time>2026-04-26T16:00:59.11Z</time></trkpt><trkpt lat="32.8428617" lon="10.195079"><ele>464.0</ele><time>2026-04-26T16:01:00.087Z</time></trkpt><trkpt lat="32.8429032" lon="10.1949888"><ele>463.99999999999994</ele><time>2026-04-26T16:01:01.113Z</time></trkpt><trkpt lat="32.8429487" lon="10.1948986"><ele>464.0</ele><time>2026-04-26T16:01:02.111Z</time></trkpt><trkpt lat="32.8429944" lon="10.1948113"><ele>463.8333333333333</ele><time>2026-04-26T16:01:03.096Z</time></trkpt><trkpt lat="32.8430408" lon="10.194721"><ele>463.66666666666663</ele><time>2026-04-26T16:01:04.124Z</time></trkpt><trkpt lat="32.8430832" lon="10.1946342"><ele>463.5</ele><time>2026-04-26T16:01:05.114Z</time></trkpt><trkpt lat="32.8431241" lon="10.1945471"><ele>463.33333333333337</ele><time>2026-04-26T16:01:06.109Z</time></trkpt><trkpt lat="32.8431671" lon="10.194459"><ele>463.1666666666667</ele><time>2026-04-26T16:01:07.107Z</time></trkpt><trkpt lat="32.8432029" lon="10.1943657"><ele>463.0</ele><time>2026-04-26T16:01:08.11Z</time></trkpt><trkpt lat="32.8432405" lon="10.1942679"><ele>463.0</ele><time>2026-04-26T16:01:09.108Z</time></trkpt><trkpt lat="32.8432813" lon="10.1941672"><ele>462.99999999999994</ele><time>2026-04-26T16:01:10.104Z</time></trkpt><trkpt lat="32.8433317" lon="10.1940593"><ele>462.99999999999994</ele><time>2026-04-26T16:01:11.082Z</time></trkpt><trkpt lat="32.8433832" lon="10.1939343"><ele>463.0</ele><time>2026-04-26T16:01:12.102Z</time></trkpt><trkpt lat="32.8434289" lon="10.1938173"><ele>463.0</ele><time>2026-04-26T16:01:13.105Z</time></trkpt><trkpt lat="32.8434767" lon="10.1937041"><ele>462.79999999999995</ele><time>2026-04-26T16:01:14.089Z</time></trkpt><trkpt lat="32.8435274" lon="10.1935981"><ele>462.59999999999997</ele><time>2026-04-26T16:01:15.1Z</time></trkpt><trkpt lat="32.8435785" lon="10.1934856"><ele>462.40000000000003</ele><time>2026-04-26T16:01:16.081Z</time></trkpt><trkpt lat="32.8436272" lon="10.1933813"><ele>462.20000000000005</ele><time>2026-04-26T16:01:17.084Z</time></trkpt><trkpt lat="32.8436767" lon="10.1932702"><ele>462.0</ele><time>2026-04-26T16:01:18.109Z</time></trkpt><trkpt lat="32.843726" lon="10.193154"><ele>462.0</ele><time>2026-04-26T16:01:19.133Z</time></trkpt><trkpt lat="32.8437747" lon="10.1930352"><ele>462.00000000000006</ele><time>2026-04-26T16:01:20.11Z</time></trkpt><trkpt lat="32.8438221" lon="10.1929188"><ele>462.00000000000006</ele><time>2026-04-26T16:01:21.109Z</time></trkpt><trkpt lat="32.8438733" lon="10.1928026"><ele>462.0</ele><time>2026-04-26T16:01:22.089Z</time></trkpt><trkpt lat="32.8439241" lon="10.1926832"><ele>462.0</ele><time>2026-04-26T16:01:23.114Z</time></trkpt><trkpt lat="32.8439785" lon="10.1925674"><ele>462.0</ele><time>2026-04-26T16:01:24.102Z</time></trkpt><trkpt lat="32.8440355" lon="10.192447"><ele>462.0</ele><time>2026-04-26T16:01:25.117Z</time></trkpt><trkpt lat="32.8440946" lon="10.1923239"><ele>462.0</ele><time>2026-04-26T16:01:26.113Z</time></trkpt><trkpt lat="32.8441457" lon="10.1922059"><ele>462.0</ele><time>2026-04-26T16:01:27.115Z</time></trkpt><trkpt lat="32.8441919" lon="10.1920876"><ele>462.0</ele><time>2026-04-26T16:01:28.128Z</time></trkpt><trkpt lat="32.844237" lon="10.1919666"><ele>462.0</ele><time>2026-04-26T16:01:29.112Z</time></trkpt><trkpt lat="32.8442908" lon="10.1918462"><ele>462.0</ele><time>2026-04-26T16:01:30.109Z</time></trkpt><trkpt lat="32.8443453" lon="10.1917307"><ele>462.0</ele><time>2026-04-26T16:01:31.051Z</time></trkpt><trkpt lat="32.8443986" lon="10.1916057"><ele>462.0</ele><time>2026-04-26T16:01:32.117Z</time></trkpt><trkpt lat="32.844444" lon="10.1914821"><ele>462.00000000000006</ele><time>2026-04-26T16:01:33.082Z</time></trkpt><trkpt lat="32.8444858" lon="10.1913575"><ele>462.00000000000006</ele><time>2026-04-26T16:01:34.128Z</time></trkpt><trkpt lat="32.8445253" lon="10.1912348"><ele>462.0</ele><time>2026-04-26T16:01:35.115Z</time></trkpt><trkpt lat="32.8445649" lon="10.1911242"><ele>462.0</ele><time>2026-04-26T16:01:36.08Z</time></trkpt><trkpt lat="32.84461" lon="10.1910123"><ele>462.0</ele><time>2026-04-26T16:01:37.122Z</time></trkpt><trkpt lat="32.84466" lon="10.1909034"><ele>462.00000000000006</ele><time>2026-04-26T16:01:38.102Z</time></trkpt><trkpt lat="32.8447097" lon="10.1907924"><ele>462.00000000000006</ele><time>2026-04-26T16:01:39.11Z</time></trkpt><trkpt lat="32.8447543" lon="10.1906848"><ele>462.0</ele><time>2026-04-26T16:01:40.112Z</time></trkpt><trkpt lat="32.8448052" lon="10.1905779"><ele>462.0</ele><time>2026-04-26T16:01:41.081Z</time></trkpt><trkpt lat="32.8448488" lon="10.1904745"><ele>462.20000000000005</ele><time>2026-04-26T16:01:42.108Z</time></trkpt><trkpt lat="32.8448961" lon="10.1903779"><ele>462.40000000000003</ele><time>2026-04-26T16:01:43.118Z</time></trkpt><trkpt lat="32.844939" lon="10.1902861"><ele>462.59999999999997</ele><time>2026-04-26T16:01:44.12Z</time></trkpt><trkpt lat="32.8449826" lon="10.1901902"><ele>462.79999999999995</ele><time>2026-04-26T16:01:45.089Z</time></trkpt><trkpt lat="32.8450314" lon="10.1900987"><ele>463.0</ele><time>2026-04-26T16:01:46.101Z</time></trkpt><trkpt lat="32.8450783" lon="10.1900057"><ele>463.0</ele><time>2026-04-26T16:01:47.095Z</time></trkpt><trkpt lat="32.8451252" lon="10.1899125"><ele>462.99999999999994</ele><time>2026-04-26T16:01:48.122Z</time></trkpt><trkpt lat="32.8451753" lon="10.1898042"><ele>462.99999999999994</ele><time>2026-04-26T16:01:49.116Z</time></trkpt><trkpt lat="32.8452257" lon="10.189687"><ele>463.0</ele><time>2026-04-26T16:01:50.114Z</time></trkpt><trkpt lat="32.8452751" lon="10.1895686"><ele>463.0</ele><time>2026-04-26T16:01:51.115Z</time></trkpt><trkpt lat="32.8453214" lon="10.189466"><ele>463.2</ele><time>2026-04-26T16:01:52.132Z</time></trkpt><trkpt lat="32.8453639" lon="10.1893608"><ele>463.4</ele><time>2026-04-26T16:01:53.118Z</time></trkpt><trkpt lat="32.8454077" lon="10.1892557"><ele>463.59999999999997</ele><time>2026-04-26T16:01:54.121Z</time></trkpt><trkpt lat="32.84545" lon="10.1891517"><ele>463.79999999999995</ele><time>2026-04-26T16:01:55.121Z</time></trkpt><trkpt lat="32.8455006" lon="10.1890568"><ele>464.0</ele><time>2026-04-26T16:01:56.06Z</time></trkpt><trkpt lat="32.8455451" lon="10.1889588"><ele>463.99999999999994</ele><time>2026-04-26T16:01:57.096Z</time></trkpt><trkpt lat="32.8455843" lon="10.1888639"><ele>464.0</ele><time>2026-04-26T16:01:58.108Z</time></trkpt><trkpt lat="32.845622" lon="10.1887781"><ele>464.0</ele><time>2026-04-26T16:01:59.122Z</time></trkpt><trkpt lat="32.8456654" lon="10.1886874"><ele>464.0</ele><time>2026-04-26T16:02:00.103Z</time></trkpt><trkpt lat="32.8457077" lon="10.1886"><ele>463.99999999999994</ele><time>2026-04-26T16:02:01.107Z</time></trkpt><trkpt lat="32.8457522" lon="10.1885119"><ele>464.0</ele><time>2026-04-26T16:02:02.092Z</time></trkpt><trkpt lat="32.8457924" lon="10.1884331"><ele>463.99999999999994</ele><time>2026-04-26T16:02:03.074Z</time></trkpt><trkpt lat="32.8458251" lon="10.1883467"><ele>464.0</ele><time>2026-04-26T16:02:04.109Z</time></trkpt><trkpt lat="32.8458638" lon="10.1882578"><ele>464.0</ele><time>2026-04-26T16:02:05.094Z</time></trkpt><trkpt lat="32.8459047" lon="10.1881679"><ele>464.0</ele><time>2026-04-26T16:02:06.056Z</time></trkpt><trkpt lat="32.8459417" lon="10.1880816"><ele>463.99999999999994</ele><time>2026-04-26T16:02:07.117Z</time></trkpt><trkpt lat="32.8459752" lon="10.1880052"><ele>464.0</ele><time>2026-04-26T16:02:08.119Z</time></trkpt><trkpt lat="32.8460135" lon="10.1879308"><ele>464.00000000000006</ele><time>2026-04-26T16:02:09.091Z</time></trkpt><trkpt lat="32.8460485" lon="10.1878573"><ele>464.0</ele><time>2026-04-26T16:02:10.111Z</time></trkpt><trkpt lat="32.8460816" lon="10.1877838"><ele>464.00000000000006</ele><time>2026-04-26T16:02:11.111Z</time></trkpt><trkpt lat="32.8461169" lon="10.1877091"><ele>464.00000000000006</ele><time>2026-04-26T16:02:12.106Z</time></trkpt><trkpt lat="32.8461507" lon="10.1876371"><ele>464.0</ele><time>2026-04-26T16:02:13.096Z</time></trkpt><trkpt lat="32.8461811" lon="10.1875656"><ele>464.00000000000006</ele><time>2026-04-26T16:02:14.087Z</time></trkpt><trkpt lat="32.846213" lon="10.1874946"><ele>464.00000000000006</ele><time>2026-04-26T16:02:15.101Z</time></trkpt><trkpt lat="32.8462454" lon="10.1874234"><ele>463.99999999999994</ele><time>2026-04-26T16:02:16.11Z</time></trkpt><trkpt lat="32.8462802" lon="10.187351"><ele>464.0</ele><time>2026-04-26T16:02:17.113Z</time></trkpt><trkpt lat="32.8463125" lon="10.1872846"><ele>464.0</ele><time>2026-04-26T16:02:18.103Z</time></trkpt><trkpt lat="32.8463717" lon="10.1871684"><ele>464.0</ele><time>2026-04-26T16:02:20.103Z</time></trkpt><trkpt lat="32.8464161" lon="10.1870691"><ele>463.99999999999994</ele><time>2026-04-26T16:02:38.146Z</time></trkpt><trkpt lat="32.8464566" lon="10.1869924"><ele>464.0</ele><time>2026-04-26T16:02:39.107Z</time></trkpt><trkpt lat="32.8465025" lon="10.1868892"><ele>464.0</ele><time>2026-04-26T16:02:40.087Z</time></trkpt><trkpt lat="32.8465546" lon="10.1867558"><ele>464.0</ele><time>2026-04-26T16:02:41.105Z</time></trkpt><trkpt lat="32.8466127" lon="10.1866246"><ele>464.0</ele><time>2026-04-26T16:02:42.11Z</time></trkpt><trkpt lat="32.8466643" lon="10.1865038"><ele>464.0</ele><time>2026-04-26T16:02:43.1Z</time></trkpt><trkpt lat="32.8467125" lon="10.1863983"><ele>464.0</ele><time>2026-04-26T16:02:44.084Z</time></trkpt><trkpt lat="32.8467587" lon="10.1862928"><ele>464.0</ele><time>2026-04-26T16:02:45.088Z</time></trkpt><trkpt lat="32.8468072" lon="10.1861823"><ele>464.0</ele><time>2026-04-26T16:02:46.094Z</time></trkpt><trkpt lat="32.8468589" lon="10.1860772"><ele>464.0</ele><time>2026-04-26T16:02:47.103Z</time></trkpt><trkpt lat="32.8469156" lon="10.1859641"><ele>464.0</ele><time>2026-04-26T16:02:48.107Z</time></trkpt><trkpt lat="32.8469702" lon="10.1858596"><ele>464.0</ele><time>2026-04-26T16:02:49.113Z</time></trkpt><trkpt lat="32.847027" lon="10.1857437"><ele>464.0</ele><time>2026-04-26T16:02:50.095Z</time></trkpt><trkpt lat="32.8470852" lon="10.1856278"><ele>464.0</ele><time>2026-04-26T16:02:51.115Z</time></trkpt><trkpt lat="32.8471409" lon="10.1855142"><ele>464.0</ele><time>2026-04-26T16:02:52.109Z</time></trkpt><trkpt lat="32.8472003" lon="10.1853946"><ele>464.0</ele><time>2026-04-26T16:02:53.111Z</time></trkpt><trkpt lat="32.8472553" lon="10.185266"><ele>464.0</ele><time>2026-04-26T16:02:54.073Z</time></trkpt><trkpt lat="32.8473257" lon="10.18513"><ele>464.0</ele><time>2026-04-26T16:02:55.087Z</time></trkpt><trkpt lat="32.847395" lon="10.1850016"><ele>464.0</ele><time>2026-04-26T16:02:56.093Z</time></trkpt><trkpt lat="32.8474525" lon="10.1848928"><ele>464.4</ele><time>2026-04-26T16:02:57.101Z</time></trkpt><trkpt lat="32.8475038" lon="10.1847811"><ele>464.79999999999995</ele><time>2026-04-26T16:02:58.116Z</time></trkpt><trkpt lat="32.8475335" lon="10.1846763"><ele>465.20000000000005</ele><time>2026-04-26T16:02:59.19Z</time></trkpt><trkpt lat="32.8475388" lon="10.1845597"><ele>465.6</ele><time>2026-04-26T16:03:00.161Z</time></trkpt><trkpt lat="32.847537" lon="10.1844386"><ele>466.0</ele><time>2026-04-26T16:03:01.156Z</time></trkpt><trkpt lat="32.8475355" lon="10.1843312"><ele>466.00000000000006</ele><time>2026-04-26T16:03:02.161Z</time></trkpt><trkpt lat="32.8475494" lon="10.1842419"><ele>466.0</ele><time>2026-04-26T16:03:03.167Z</time></trkpt><trkpt lat="32.8475759" lon="10.1841526"><ele>466.0</ele><time>2026-04-26T16:03:04.149Z</time></trkpt><trkpt lat="32.8476164" lon="10.1840668"><ele>466.0</ele><time>2026-04-26T16:03:05.166Z</time></trkpt><trkpt lat="32.8476667" lon="10.184003"><ele>466.00000000000006</ele><time>2026-04-26T16:03:06.169Z</time></trkpt><trkpt lat="32.8477274" lon="10.1839451"><ele>466.0</ele><time>2026-04-26T16:03:07.173Z</time></trkpt><trkpt lat="32.8477952" lon="10.1838842"><ele>467.0</ele><time>2026-04-26T16:03:08.17Z</time></trkpt><trkpt lat="32.8478537" lon="10.183813"><ele>468.0</ele><time>2026-04-26T16:03:09.178Z</time></trkpt><trkpt lat="32.8479179" lon="10.1837431"><ele>469.0</ele><time>2026-04-26T16:03:10.168Z</time></trkpt><trkpt lat="32.8479769" lon="10.1836468"><ele>470.0</ele><time>2026-04-26T16:03:11.169Z</time></trkpt><trkpt lat="32.8480264" lon="10.1835423"><ele>471.0</ele><time>2026-04-26T16:03:12.174Z</time></trkpt><trkpt lat="32.8480731" lon="10.1834317"><ele>471.0</ele><time>2026-04-26T16:03:13.126Z</time></trkpt><trkpt lat="32.8481155" lon="10.1833114"><ele>471.0</ele><time>2026-04-26T16:03:14.166Z</time></trkpt><trkpt lat="32.8481512" lon="10.1831795"><ele>471.0</ele><time>2026-04-26T16:03:15.16Z</time></trkpt><trkpt lat="32.848186" lon="10.183037"><ele>471.0</ele><time>2026-04-26T16:03:16.185Z</time></trkpt><trkpt lat="32.8482226" lon="10.1828834"><ele>471.75</ele><time>2026-04-26T16:03:17.168Z</time></trkpt><trkpt lat="32.8482704" lon="10.1827219"><ele>472.5</ele><time>2026-04-26T16:03:18.185Z</time></trkpt><trkpt lat="32.8483204" lon="10.1825662"><ele>473.25</ele><time>2026-04-26T16:03:19.14Z</time></trkpt><trkpt lat="32.8483682" lon="10.1824195"><ele>474.0</ele><time>2026-04-26T16:03:20.188Z</time></trkpt><trkpt lat="32.8484081" lon="10.1822782"><ele>474.25</ele><time>2026-04-26T16:03:21.109Z</time></trkpt><trkpt lat="32.8484429" lon="10.1821428"><ele>474.5</ele><time>2026-04-26T16:03:22.177Z</time></trkpt><trkpt lat="32.8484869" lon="10.1820121"><ele>474.75</ele><time>2026-04-26T16:03:23.168Z</time></trkpt><trkpt lat="32.8485352" lon="10.1818895"><ele>475.0</ele><time>2026-04-26T16:03:24.171Z</time></trkpt><trkpt lat="32.8485791" lon="10.1817725"><ele>475.8</ele><time>2026-04-26T16:03:25.143Z</time></trkpt><trkpt lat="32.8486218" lon="10.1816593"><ele>476.6</ele><time>2026-04-26T16:03:26.168Z</time></trkpt><trkpt lat="32.848666" lon="10.1815554"><ele>477.4</ele><time>2026-04-26T16:03:27.162Z</time></trkpt><trkpt lat="32.8486995" lon="10.1814564"><ele>478.2</ele><time>2026-04-26T16:03:28.141Z</time></trkpt><trkpt lat="32.8487293" lon="10.1813687"><ele>479.0</ele><time>2026-04-26T16:03:29.167Z</time></trkpt><trkpt lat="32.8487608" lon="10.1812707"><ele>479.0</ele><time>2026-04-26T16:03:30.153Z</time></trkpt><trkpt lat="32.8487869" lon="10.1811675"><ele>479.0</ele><time>2026-04-26T16:03:31.108Z</time></trkpt><trkpt lat="32.848819" lon="10.1810611"><ele>479.0</ele><time>2026-04-26T16:03:32.104Z</time></trkpt><trkpt lat="32.8488494" lon="10.1809552"><ele>479.0</ele><time>2026-04-26T16:03:33.114Z</time></trkpt><trkpt lat="32.8488831" lon="10.18086"><ele>479.0</ele><time>2026-04-26T16:03:34.108Z</time></trkpt><trkpt lat="32.8489067" lon="10.1807634"><ele>479.16666666666663</ele><time>2026-04-26T16:03:35.097Z</time></trkpt><trkpt lat="32.8489263" lon="10.1806759"><ele>479.3333333333333</ele><time>2026-04-26T16:03:36.11Z</time></trkpt><trkpt lat="32.8489357" lon="10.1805857"><ele>479.5</ele><time>2026-04-26T16:03:37.102Z</time></trkpt><trkpt lat="32.8489307" lon="10.1804909"><ele>479.66666666666663</ele><time>2026-04-26T16:03:38.1Z</time></trkpt><trkpt lat="32.8489307" lon="10.1803905"><ele>479.8333333333333</ele><time>2026-04-26T16:03:39.101Z</time></trkpt><trkpt lat="32.8489245" lon="10.1802667"><ele>480.0</ele><time>2026-04-26T16:03:40.084Z</time></trkpt><trkpt lat="32.8489227" lon="10.1801316"><ele>480.0</ele><time>2026-04-26T16:03:41.095Z</time></trkpt><trkpt lat="32.848926" lon="10.1799886"><ele>480.0</ele><time>2026-04-26T16:03:42.103Z</time></trkpt><trkpt lat="32.8489256" lon="10.179859"><ele>480.0</ele><time>2026-04-26T16:03:43.099Z</time></trkpt><trkpt lat="32.8489211" lon="10.1797341"><ele>480.0</ele><time>2026-04-26T16:03:44.096Z</time></trkpt><trkpt lat="32.8489167" lon="10.17962"><ele>480.0</ele><time>2026-04-26T16:03:45.101Z</time></trkpt><trkpt lat="32.8489149" lon="10.1795095"><ele>480.4</ele><time>2026-04-26T16:03:46.092Z</time></trkpt><trkpt lat="32.8489166" lon="10.1794041"><ele>480.8</ele><time>2026-04-26T16:03:47.102Z</time></trkpt><trkpt lat="32.8489172" lon="10.1792893"><ele>481.20000000000005</ele><time>2026-04-26T16:03:48.116Z</time></trkpt><trkpt lat="32.8489051" lon="10.1791758"><ele>481.6</ele><time>2026-04-26T16:03:49.118Z</time></trkpt><trkpt lat="32.8488845" lon="10.1790609"><ele>482.0</ele><time>2026-04-26T16:03:50.089Z</time></trkpt><trkpt lat="32.8488623" lon="10.178955"><ele>482.28571428571433</ele><time>2026-04-26T16:03:51.117Z</time></trkpt><trkpt lat="32.8488446" lon="10.178862"><ele>482.5714285714286</ele><time>2026-04-26T16:03:52.1Z</time></trkpt><trkpt lat="32.8488336" lon="10.1787794"><ele>482.8571428571429</ele><time>2026-04-26T16:03:53.114Z</time></trkpt><trkpt lat="32.8488225" lon="10.1786936"><ele>483.1428571428571</ele><time>2026-04-26T16:03:54.136Z</time></trkpt><trkpt lat="32.8488203" lon="10.1786114"><ele>483.4285714285714</ele><time>2026-04-26T16:03:55.116Z</time></trkpt><trkpt lat="32.848818" lon="10.1785207"><ele>483.71428571428567</ele><time>2026-04-26T16:03:56.113Z</time></trkpt><trkpt lat="32.8488194" lon="10.1784344"><ele>484.0</ele><time>2026-04-26T16:03:57.103Z</time></trkpt><trkpt lat="32.8488186" lon="10.1783514"><ele>484.00000000000006</ele><time>2026-04-26T16:03:58.111Z</time></trkpt><trkpt lat="32.848818" lon="10.1782757"><ele>484.0</ele><time>2026-04-26T16:03:59.106Z</time></trkpt><trkpt lat="32.8488214" lon="10.1781972"><ele>484.0</ele><time>2026-04-26T16:04:00.081Z</time></trkpt><trkpt lat="32.8488205" lon="10.1781212"><ele>484.0</ele><time>2026-04-26T16:04:01.1Z</time></trkpt><trkpt lat="32.8488146" lon="10.1779864"><ele>484.00000000000006</ele><time>2026-04-26T16:04:03.104Z</time></trkpt><trkpt lat="32.8488141" lon="10.1778836"><ele>484.0</ele><time>2026-04-26T16:04:05.105Z</time></trkpt><trkpt lat="32.8488106" lon="10.1778032"><ele>484.1666666666667</ele><time>2026-04-26T16:04:08.107Z</time></trkpt><trkpt lat="32.8487791" lon="10.1777248"><ele>484.33333333333337</ele><time>2026-04-26T16:14:48.059Z</time></trkpt><trkpt lat="32.848716" lon="10.1777129"><ele>484.5</ele><time>2026-04-26T16:14:55.08Z</time></trkpt><trkpt lat="32.8486608" lon="10.1777766"><ele>484.66666666666663</ele><time>2026-04-26T16:14:58.108Z</time></trkpt><trkpt lat="32.8486753" lon="10.1778584"><ele>484.8333333333333</ele><time>2026-04-26T16:15:00.088Z</time></trkpt><trkpt lat="32.8487008" lon="10.1779392"><ele>485.0</ele><time>2026-04-26T16:15:02.095Z</time></trkpt><trkpt lat="32.848739" lon="10.178042"><ele>485.0</ele><time>2026-04-26T16:15:05.049Z</time></trkpt><trkpt lat="32.8487753" lon="10.1781232"><ele>485.0</ele><time>2026-04-26T16:15:07.104Z</time></trkpt><trkpt lat="32.8488151" lon="10.1781915"><ele>485.0</ele><time>2026-04-26T16:15:09.122Z</time></trkpt><trkpt lat="32.8488396" lon="10.1783293"><ele>485.0</ele><time>2026-04-26T16:15:12.068Z</time></trkpt><trkpt lat="32.8488258" lon="10.1785527"><ele>484.8</ele><time>2026-04-26T16:15:15.049Z</time></trkpt><trkpt lat="32.848818" lon="10.1786879"><ele>484.6</ele><time>2026-04-26T16:15:17.044Z</time></trkpt><trkpt lat="32.8488285" lon="10.17881"><ele>484.4</ele><time>2026-04-26T16:15:19.052Z</time></trkpt><trkpt lat="32.8488439" lon="10.1789081"><ele>484.2</ele><time>2026-04-26T16:15:21.089Z</time></trkpt><trkpt lat="32.8488629" lon="10.178991"><ele>484.0</ele><time>2026-04-26T16:15:23.048Z</time></trkpt><trkpt lat="32.8488859" lon="10.1790931"><ele>483.6</ele><time>2026-04-26T16:16:12.069Z</time></trkpt><trkpt lat="32.8488935" lon="10.1791979"><ele>483.2</ele><time>2026-04-26T16:16:14.058Z</time></trkpt><trkpt lat="32.8489092" lon="10.1793173"><ele>482.80000000000007</ele><time>2026-04-26T16:16:16.087Z</time></trkpt><trkpt lat="32.8489131" lon="10.179458"><ele>482.40000000000003</ele><time>2026-04-26T16:16:18.079Z</time></trkpt><trkpt lat="32.8489109" lon="10.1795951"><ele>482.0</ele><time>2026-04-26T16:16:20.103Z</time></trkpt><trkpt lat="32.8489196" lon="10.1797526"><ele>481.99999999999994</ele><time>2026-04-26T16:16:22.067Z</time></trkpt><trkpt lat="32.8489233" lon="10.1798364"><ele>482.0</ele><time>2026-04-26T16:16:23.109Z</time></trkpt><trkpt lat="32.8489246" lon="10.1799255"><ele>482.0</ele><time>2026-04-26T16:16:24.103Z</time></trkpt><trkpt lat="32.8489278" lon="10.1800177"><ele>482.0</ele><time>2026-04-26T16:16:25.061Z</time></trkpt><trkpt lat="32.8489302" lon="10.1801138"><ele>481.99999999999994</ele><time>2026-04-26T16:16:26.1Z</time></trkpt><trkpt lat="32.848932" lon="10.1802045"><ele>482.0</ele><time>2026-04-26T16:16:27.044Z</time></trkpt><trkpt lat="32.8489352" lon="10.1804826"><ele>481.6</ele><time>2026-04-26T16:16:30.092Z</time></trkpt><trkpt lat="32.8489319" lon="10.1806361"><ele>481.20000000000005</ele><time>2026-04-26T16:16:32.075Z</time></trkpt><trkpt lat="32.8489075" lon="10.1807802"><ele>480.8</ele><time>2026-04-26T16:16:34.049Z</time></trkpt><trkpt lat="32.8488853" lon="10.1808617"><ele>480.4</ele><time>2026-04-26T16:16:35.056Z</time></trkpt><trkpt lat="32.8488533" lon="10.1809436"><ele>480.0</ele><time>2026-04-26T16:16:36.052Z</time></trkpt><trkpt lat="32.8488276" lon="10.1810319"><ele>479.8571428571429</ele><time>2026-04-26T16:16:37.046Z</time></trkpt><trkpt lat="32.8487981" lon="10.1811267"><ele>479.71428571428567</ele><time>2026-04-26T16:16:38.069Z</time></trkpt><trkpt lat="32.8487744" lon="10.1812199"><ele>479.57142857142856</ele><time>2026-04-26T16:16:39.055Z</time></trkpt><trkpt lat="32.8487498" lon="10.1813034"><ele>479.42857142857144</ele><time>2026-04-26T16:16:40.052Z</time></trkpt><trkpt lat="32.8487265" lon="10.1813837"><ele>479.28571428571433</ele><time>2026-04-26T16:16:41.07Z</time></trkpt><trkpt lat="32.8487063" lon="10.1814591"><ele>479.1428571428571</ele><time>2026-04-26T16:16:42.089Z</time></trkpt><trkpt lat="32.8486803" lon="10.1815303"><ele>479.0</ele><time>2026-04-26T16:16:43.081Z</time></trkpt><trkpt lat="32.8486498" lon="10.1815988"><ele>478.99999999999994</ele><time>2026-04-26T16:16:44.081Z</time></trkpt><trkpt lat="32.8486181" lon="10.181675"><ele>479.0</ele><time>2026-04-26T16:16:45.064Z</time></trkpt><trkpt lat="32.8485857" lon="10.181754"><ele>479.0</ele><time>2026-04-26T16:16:46.063Z</time></trkpt><trkpt lat="32.8485535" lon="10.1818432"><ele>479.0</ele><time>2026-04-26T16:16:47.062Z</time></trkpt><trkpt lat="32.8485225" lon="10.1819391"><ele>478.99999999999994</ele><time>2026-04-26T16:16:48.084Z</time></trkpt><trkpt lat="32.8484939" lon="10.1820357"><ele>479.0</ele><time>2026-04-26T16:16:49.071Z</time></trkpt><trkpt lat="32.8484673" lon="10.1821336"><ele>478.3333333333333</ele><time>2026-04-26T16:16:50.062Z</time></trkpt><trkpt lat="32.8484333" lon="10.1822315"><ele>477.66666666666663</ele><time>2026-04-26T16:16:51.055Z</time></trkpt><trkpt lat="32.8484011" lon="10.1823286"><ele>477.0</ele><time>2026-04-26T16:16:52.072Z</time></trkpt><trkpt lat="32.8483721" lon="10.1824197"><ele>476.33333333333337</ele><time>2026-04-26T16:16:53.069Z</time></trkpt><trkpt lat="32.8483455" lon="10.1825081"><ele>475.6666666666667</ele><time>2026-04-26T16:16:54.089Z</time></trkpt><trkpt lat="32.8483179" lon="10.1825992"><ele>475.0</ele><time>2026-04-26T16:16:55.063Z</time></trkpt><trkpt lat="32.8482882" lon="10.1826963"><ele>474.8</ele><time>2026-04-26T16:16:56.064Z</time></trkpt><trkpt lat="32.8482609" lon="10.1827925"><ele>474.6</ele><time>2026-04-26T16:16:57.076Z</time></trkpt><trkpt lat="32.8482283" lon="10.1828965"><ele>474.4</ele><time>2026-04-26T16:16:58.067Z</time></trkpt><trkpt lat="32.8481976" lon="10.1830055"><ele>474.2</ele><time>2026-04-26T16:16:59.069Z</time></trkpt><trkpt lat="32.8481651" lon="10.1831176"><ele>474.0</ele><time>2026-04-26T16:17:00.058Z</time></trkpt><trkpt lat="32.8481334" lon="10.1832321"><ele>473.5</ele><time>2026-04-26T16:17:01.053Z</time></trkpt><trkpt lat="32.848098" lon="10.1833397"><ele>473.0</ele><time>2026-04-26T16:17:02.071Z</time></trkpt><trkpt lat="32.8480578" lon="10.1834444"><ele>472.5</ele><time>2026-04-26T16:17:03.112Z</time></trkpt><trkpt lat="32.8480176" lon="10.183535"><ele>472.0</ele><time>2026-04-26T16:17:04.081Z</time></trkpt><trkpt lat="32.8479825" lon="10.1836203"><ele>471.5</ele><time>2026-04-26T16:17:05.082Z</time></trkpt><trkpt lat="32.8479377" lon="10.1836964"><ele>471.0</ele><time>2026-04-26T16:17:06.068Z</time></trkpt><trkpt lat="32.8478807" lon="10.1837731"><ele>471.00000000000006</ele><time>2026-04-26T16:17:07.08Z</time></trkpt><trkpt lat="32.8478225" lon="10.1838378"><ele>471.0</ele><time>2026-04-26T16:17:08.061Z</time></trkpt><trkpt lat="32.8477696" lon="10.1838937"><ele>471.00000000000006</ele><time>2026-04-26T16:17:09.075Z</time></trkpt><trkpt lat="32.8477205" lon="10.1839477"><ele>471.00000000000006</ele><time>2026-04-26T16:17:10.056Z</time></trkpt><trkpt lat="32.8476686" lon="10.1840035"><ele>471.0</ele><time>2026-04-26T16:17:11.088Z</time></trkpt><trkpt lat="32.8476261" lon="10.1840631"><ele>471.00000000000006</ele><time>2026-04-26T16:17:12.083Z</time></trkpt><trkpt lat="32.8475885" lon="10.1841405"><ele>471.00000000000006</ele><time>2026-04-26T16:17:13.064Z</time></trkpt><trkpt lat="32.8475591" lon="10.1842241"><ele>470.0</ele><time>2026-04-26T16:17:14.088Z</time></trkpt><trkpt lat="32.8475418" lon="10.184317"><ele>469.0</ele><time>2026-04-26T16:17:15.07Z</time></trkpt><trkpt lat="32.8475281" lon="10.1844297"><ele>468.0</ele><time>2026-04-26T16:17:16.057Z</time></trkpt><trkpt lat="32.8475243" lon="10.1845549"><ele>467.0</ele><time>2026-04-26T16:17:17.071Z</time></trkpt><trkpt lat="32.8474997" lon="10.1846776"><ele>466.0</ele><time>2026-04-26T16:17:18.08Z</time></trkpt><trkpt lat="32.8474636" lon="10.1847826"><ele>465.6</ele><time>2026-04-26T16:17:19.073Z</time></trkpt><trkpt lat="32.8474164" lon="10.1848903"><ele>465.20000000000005</ele><time>2026-04-26T16:17:20.098Z</time></trkpt><trkpt lat="32.847361" lon="10.1849991"><ele>464.79999999999995</ele><time>2026-04-26T16:17:21.073Z</time></trkpt><trkpt lat="32.8473049" lon="10.1851144"><ele>464.4</ele><time>2026-04-26T16:17:22.091Z</time></trkpt><trkpt lat="32.8472451" lon="10.185237"><ele>464.0</ele><time>2026-04-26T16:17:23.067Z</time></trkpt><trkpt lat="32.8471881" lon="10.1853608"><ele>464.0</ele><time>2026-04-26T16:17:24.073Z</time></trkpt><trkpt lat="32.8471311" lon="10.1854866"><ele>464.0</ele><time>2026-04-26T16:17:25.079Z</time></trkpt><trkpt lat="32.8470757" lon="10.1856158"><ele>464.0</ele><time>2026-04-26T16:17:26.089Z</time></trkpt><trkpt lat="32.8470227" lon="10.1857422"><ele>464.0</ele><time>2026-04-26T16:17:27.069Z</time></trkpt><trkpt lat="32.8469597" lon="10.185869"><ele>464.0</ele><time>2026-04-26T16:17:28.068Z</time></trkpt><trkpt lat="32.8468997" lon="10.185989"><ele>464.0</ele><time>2026-04-26T16:17:29.065Z</time></trkpt><trkpt lat="32.846844" lon="10.1861144"><ele>464.0</ele><time>2026-04-26T16:17:30.068Z</time></trkpt><trkpt lat="32.846793" lon="10.1862342"><ele>464.0</ele><time>2026-04-26T16:17:31.068Z</time></trkpt><trkpt lat="32.8467416" lon="10.1863496"><ele>464.0</ele><time>2026-04-26T16:17:32.069Z</time></trkpt><trkpt lat="32.8466808" lon="10.1864653"><ele>464.0</ele><time>2026-04-26T16:17:33.078Z</time></trkpt><trkpt lat="32.8466228" lon="10.1865805"><ele>464.0</ele><time>2026-04-26T16:17:34.069Z</time></trkpt><trkpt lat="32.846559" lon="10.1867007"><ele>464.0</ele><time>2026-04-26T16:17:35.079Z</time></trkpt><trkpt lat="32.8465018" lon="10.1868311"><ele>464.0</ele><time>2026-04-26T16:17:36.063Z</time></trkpt><trkpt lat="32.8464476" lon="10.1869569"><ele>464.0</ele><time>2026-04-26T16:17:37.07Z</time></trkpt><trkpt lat="32.8463938" lon="10.1870793"><ele>464.0</ele><time>2026-04-26T16:17:38.058Z</time></trkpt><trkpt lat="32.846337" lon="10.1871955"><ele>464.0</ele><time>2026-04-26T16:17:39.062Z</time></trkpt><trkpt lat="32.8462792" lon="10.1873077"><ele>464.0</ele><time>2026-04-26T16:17:40.057Z</time></trkpt><trkpt lat="32.8462238" lon="10.1874229"><ele>464.0</ele><time>2026-04-26T16:17:41.086Z</time></trkpt><trkpt lat="32.8461666" lon="10.187543"><ele>464.0</ele><time>2026-04-26T16:17:42.09Z</time></trkpt><trkpt lat="32.8461152" lon="10.1876734"><ele>464.0</ele><time>2026-04-26T16:17:43.071Z</time></trkpt><trkpt lat="32.8460603" lon="10.1877987"><ele>464.0</ele><time>2026-04-26T16:17:44.075Z</time></trkpt><trkpt lat="32.8460008" lon="10.1879139"><ele>464.0</ele><time>2026-04-26T16:17:45.072Z</time></trkpt><trkpt lat="32.8459449" lon="10.1880262"><ele>464.0</ele><time>2026-04-26T16:17:46.083Z</time></trkpt><trkpt lat="32.8458879" lon="10.1881443"><ele>464.0</ele><time>2026-04-26T16:17:47.087Z</time></trkpt><trkpt lat="32.8458332" lon="10.188268"><ele>464.0</ele><time>2026-04-26T16:17:48.076Z</time></trkpt><trkpt lat="32.8457786" lon="10.1883959"><ele>464.0</ele><time>2026-04-26T16:17:49.071Z</time></trkpt><trkpt lat="32.8457314" lon="10.1885188"><ele>464.0</ele><time>2026-04-26T16:17:50.08Z</time></trkpt><trkpt lat="32.8456834" lon="10.1886383"><ele>464.0</ele><time>2026-04-26T16:17:51.071Z</time></trkpt><trkpt lat="32.8456287" lon="10.1887604"><ele>464.0</ele><time>2026-04-26T16:17:52.053Z</time></trkpt><trkpt lat="32.8455742" lon="10.1888841"><ele>464.0</ele><time>2026-04-26T16:17:53.073Z</time></trkpt><trkpt lat="32.8455121" lon="10.1890112"><ele>464.0</ele><time>2026-04-26T16:17:54.07Z</time></trkpt><trkpt lat="32.8454534" lon="10.1891386"><ele>464.0</ele><time>2026-04-26T16:17:55.079Z</time></trkpt><trkpt lat="32.8453903" lon="10.1892716"><ele>464.25</ele><time>2026-04-26T16:17:56.077Z</time></trkpt><trkpt lat="32.8453319" lon="10.1894043"><ele>464.5</ele><time>2026-04-26T16:17:57.064Z</time></trkpt><trkpt lat="32.8452757" lon="10.1895314"><ele>464.75</ele><time>2026-04-26T16:17:58.091Z</time></trkpt><trkpt lat="32.8452241" lon="10.1896559"><ele>465.0</ele><time>2026-04-26T16:17:59.069Z</time></trkpt><trkpt lat="32.8451711" lon="10.1897757"><ele>464.5</ele><time>2026-04-26T16:18:00.06Z</time></trkpt><trkpt lat="32.8451182" lon="10.1898875"><ele>464.0</ele><time>2026-04-26T16:18:01.079Z</time></trkpt><trkpt lat="32.8450664" lon="10.1900046"><ele>463.5</ele><time>2026-04-26T16:18:02.079Z</time></trkpt><trkpt lat="32.8450137" lon="10.1901256"><ele>463.0</ele><time>2026-04-26T16:18:03.072Z</time></trkpt><trkpt lat="32.8449524" lon="10.1902454"><ele>463.0</ele><time>2026-04-26T16:18:04.079Z</time></trkpt><trkpt lat="32.8448911" lon="10.1903685"><ele>463.0</ele><time>2026-04-26T16:18:05.07Z</time></trkpt><trkpt lat="32.8448358" lon="10.1904906"><ele>463.0</ele><time>2026-04-26T16:18:06.069Z</time></trkpt><trkpt lat="32.8447774" lon="10.1906172"><ele>463.0</ele><time>2026-04-26T16:18:07.07Z</time></trkpt><trkpt lat="32.8447145" lon="10.1907395"><ele>462.75</ele><time>2026-04-26T16:18:08.08Z</time></trkpt><trkpt lat="32.8446562" lon="10.1908609"><ele>462.5</ele><time>2026-04-26T16:18:09.067Z</time></trkpt><trkpt lat="32.8446027" lon="10.1909892"><ele>462.25</ele><time>2026-04-26T16:18:10.07Z</time></trkpt><trkpt lat="32.8445473" lon="10.1911178"><ele>462.0</ele><time>2026-04-26T16:18:11.07Z</time></trkpt><trkpt lat="32.8444994" lon="10.1912488"><ele>462.0</ele><time>2026-04-26T16:18:12.08Z</time></trkpt><trkpt lat="32.8444518" lon="10.1913837"><ele>462.0</ele><time>2026-04-26T16:18:13.084Z</time></trkpt><trkpt lat="32.8444095" lon="10.1915101"><ele>462.0</ele><time>2026-04-26T16:18:14.085Z</time></trkpt><trkpt lat="32.8443693" lon="10.1916376"><ele>462.0</ele><time>2026-04-26T16:18:15.081Z</time></trkpt><trkpt lat="32.8443174" lon="10.1917597"><ele>462.0</ele><time>2026-04-26T16:18:16.071Z</time></trkpt><trkpt lat="32.8442582" lon="10.1918861"><ele>462.0</ele><time>2026-04-26T16:18:17.075Z</time></trkpt><trkpt lat="32.844205" lon="10.1920128"><ele>462.0</ele><time>2026-04-26T16:18:18.072Z</time></trkpt><trkpt lat="32.8441524" lon="10.1921437"><ele>462.0</ele><time>2026-04-26T16:18:19.081Z</time></trkpt><trkpt lat="32.8440999" lon="10.1922699"><ele>462.0</ele><time>2026-04-26T16:18:20.068Z</time></trkpt><trkpt lat="32.8440492" lon="10.1923972"><ele>462.0</ele><time>2026-04-26T16:18:21.09Z</time></trkpt><trkpt lat="32.8439901" lon="10.1925224"><ele>462.0</ele><time>2026-04-26T16:18:22.066Z</time></trkpt><trkpt lat="32.8439285" lon="10.1926526"><ele>462.0</ele><time>2026-04-26T16:18:23.07Z</time></trkpt><trkpt lat="32.8438707" lon="10.192787"><ele>462.0</ele><time>2026-04-26T16:18:24.065Z</time></trkpt><trkpt lat="32.843817" lon="10.1929241"><ele>462.0</ele><time>2026-04-26T16:18:25.08Z</time></trkpt><trkpt lat="32.8437608" lon="10.1930584"><ele>462.0</ele><time>2026-04-26T16:18:26.069Z</time></trkpt><trkpt lat="32.8437045" lon="10.1931909"><ele>462.0</ele><time>2026-04-26T16:18:27.067Z</time></trkpt><trkpt lat="32.8436488" lon="10.1933244"><ele>462.0</ele><time>2026-04-26T16:18:28.076Z</time></trkpt><trkpt lat="32.843593" lon="10.1934587"><ele>462.0</ele><time>2026-04-26T16:18:29.059Z</time></trkpt><trkpt lat="32.8435329" lon="10.1935859"><ele>462.0</ele><time>2026-04-26T16:18:30.077Z</time></trkpt><trkpt lat="32.8434737" lon="10.1937176"><ele>462.0</ele><time>2026-04-26T16:18:31.083Z</time></trkpt><trkpt lat="32.8434154" lon="10.1938431"><ele>462.0</ele><time>2026-04-26T16:18:32.074Z</time></trkpt><trkpt lat="32.8433645" lon="10.1939578"><ele>462.00000000000006</ele><time>2026-04-26T16:18:33.069Z</time></trkpt><trkpt lat="32.8433134" lon="10.1940746"><ele>462.00000000000006</ele><time>2026-04-26T16:18:34.069Z</time></trkpt><trkpt lat="32.8432625" lon="10.1941997"><ele>462.0</ele><time>2026-04-26T16:18:35.068Z</time></trkpt><trkpt lat="32.8432119" lon="10.1943107"><ele>462.0</ele><time>2026-04-26T16:18:36.077Z</time></trkpt><trkpt lat="32.8431655" lon="10.1944269"><ele>462.25</ele><time>2026-04-26T16:18:37.079Z</time></trkpt><trkpt lat="32.843115" lon="10.1945417"><ele>462.5</ele><time>2026-04-26T16:18:38.073Z</time></trkpt><trkpt lat="32.8430497" lon="10.1946672"><ele>462.75</ele><time>2026-04-26T16:18:39.112Z</time></trkpt><trkpt lat="32.8429888" lon="10.1947957"><ele>463.0</ele><time>2026-04-26T16:18:40.061Z</time></trkpt><trkpt lat="32.8429241" lon="10.1949286"><ele>463.25</ele><time>2026-04-26T16:18:41.075Z</time></trkpt><trkpt lat="32.8428618" lon="10.1950644"><ele>463.5</ele><time>2026-04-26T16:18:42.085Z</time></trkpt><trkpt lat="32.8427964" lon="10.1951898"><ele>463.75</ele><time>2026-04-26T16:18:43.074Z</time></trkpt><trkpt lat="32.8427446" lon="10.1953121"><ele>464.0</ele><time>2026-04-26T16:18:44.079Z</time></trkpt><trkpt lat="32.8427061" lon="10.1954385"><ele>464.0</ele><time>2026-04-26T16:18:45.068Z</time></trkpt><trkpt lat="32.842684" lon="10.1955648"><ele>464.0</ele><time>2026-04-26T16:18:46.076Z</time></trkpt><trkpt lat="32.8426726" lon="10.1957055"><ele>464.0</ele><time>2026-04-26T16:18:47.091Z</time></trkpt><trkpt lat="32.8426695" lon="10.1958562"><ele>464.0</ele><time>2026-04-26T16:18:48.082Z</time></trkpt><trkpt lat="32.8426647" lon="10.1960168"><ele>464.25</ele><time>2026-04-26T16:18:49.072Z</time></trkpt><trkpt lat="32.8426487" lon="10.1961683"><ele>464.5</ele><time>2026-04-26T16:18:50.083Z</time></trkpt><trkpt lat="32.842627" lon="10.196306"><ele>464.75</ele><time>2026-04-26T16:18:51.069Z</time></trkpt><trkpt lat="32.8425883" lon="10.1964431"><ele>465.0</ele><time>2026-04-26T16:18:52.075Z</time></trkpt><trkpt lat="32.8425418" lon="10.1965825"><ele>464.5</ele><time>2026-04-26T16:18:53.059Z</time></trkpt><trkpt lat="32.8424905" lon="10.1967238"><ele>464.0</ele><time>2026-04-26T16:18:54.07Z</time></trkpt><trkpt lat="32.8424343" lon="10.1968532"><ele>463.5</ele><time>2026-04-26T16:18:55.067Z</time></trkpt><trkpt lat="32.8423726" lon="10.1969728"><ele>463.0</ele><time>2026-04-26T16:18:56.071Z</time></trkpt><trkpt lat="32.8423016" lon="10.1970923"><ele>463.0</ele><time>2026-04-26T16:18:57.06Z</time></trkpt><trkpt lat="32.8422365" lon="10.1972104"><ele>463.0</ele><time>2026-04-26T16:18:58.081Z</time></trkpt><trkpt lat="32.8421621" lon="10.1973167"><ele>463.0</ele><time>2026-04-26T16:18:59.054Z</time></trkpt><trkpt lat="32.8420817" lon="10.1974205"><ele>463.0</ele><time>2026-04-26T16:19:00.06Z</time></trkpt><trkpt lat="32.8419966" lon="10.1975324"><ele>463.5</ele><time>2026-04-26T16:19:01.076Z</time></trkpt><trkpt lat="32.8419107" lon="10.1976374"><ele>464.0</ele><time>2026-04-26T16:19:02.074Z</time></trkpt><trkpt lat="32.8418366" lon="10.1977461"><ele>464.5</ele><time>2026-04-26T16:19:03.085Z</time></trkpt><trkpt lat="32.84177" lon="10.1978601"><ele>465.0</ele><time>2026-04-26T16:19:04.101Z</time></trkpt><trkpt lat="32.8417148" lon="10.1979884"><ele>465.0</ele><time>2026-04-26T16:19:05.078Z</time></trkpt><trkpt lat="32.8416653" lon="10.1981214"><ele>465.0</ele><time>2026-04-26T16:19:06.081Z</time></trkpt><trkpt lat="32.8416153" lon="10.1982509"><ele>465.0</ele><time>2026-04-26T16:19:07.066Z</time></trkpt><trkpt lat="32.841562" lon="10.1983788"><ele>465.0</ele><time>2026-04-26T16:19:08.072Z</time></trkpt><trkpt lat="32.8415002" lon="10.1985135"><ele>465.0</ele><time>2026-04-26T16:19:09.068Z</time></trkpt><trkpt lat="32.8414322" lon="10.1986341"><ele>465.0</ele><time>2026-04-26T16:19:10.074Z</time></trkpt><trkpt lat="32.8413598" lon="10.198745"><ele>465.0</ele><time>2026-04-26T16:19:11.062Z</time></trkpt><trkpt lat="32.8412772" lon="10.198859"><ele>465.0</ele><time>2026-04-26T16:19:12.077Z</time></trkpt><trkpt lat="32.8411998" lon="10.1989724"><ele>465.2</ele><time>2026-04-26T16:19:13.081Z</time></trkpt><trkpt lat="32.8411226" lon="10.1990867"><ele>465.4</ele><time>2026-04-26T16:19:14.069Z</time></trkpt><trkpt lat="32.841052" lon="10.1991928"><ele>465.6</ele><time>2026-04-26T16:19:15.077Z</time></trkpt><trkpt lat="32.840988" lon="10.1992906"><ele>465.8</ele><time>2026-04-26T16:19:16.067Z</time></trkpt><trkpt lat="32.840926" lon="10.1993886"><ele>466.0</ele><time>2026-04-26T16:19:17.061Z</time></trkpt><trkpt lat="32.8408737" lon="10.1994926"><ele>466.20000000000005</ele><time>2026-04-26T16:19:18.095Z</time></trkpt><trkpt lat="32.8408264" lon="10.1995994"><ele>466.40000000000003</ele><time>2026-04-26T16:19:19.075Z</time></trkpt><trkpt lat="32.8407877" lon="10.1997142"><ele>466.6</ele><time>2026-04-26T16:19:20.078Z</time></trkpt><trkpt lat="32.8407568" lon="10.1998283"><ele>466.8</ele><time>2026-04-26T16:19:21.069Z</time></trkpt><trkpt lat="32.8407236" lon="10.1999421"><ele>467.0</ele><time>2026-04-26T16:19:22.082Z</time></trkpt><trkpt lat="32.8406933" lon="10.2000518"><ele>467.0</ele><time>2026-04-26T16:19:23.078Z</time></trkpt><trkpt lat="32.8406591" lon="10.2001693"><ele>467.00000000000006</ele><time>2026-04-26T16:19:24.067Z</time></trkpt><trkpt lat="32.8406248" lon="10.2002899"><ele>467.00000000000006</ele><time>2026-04-26T16:19:25.065Z</time></trkpt><trkpt lat="32.8405881" lon="10.2004111"><ele>467.0</ele><time>2026-04-26T16:19:26.078Z</time></trkpt><trkpt lat="32.840552" lon="10.2005349"><ele>467.0</ele><time>2026-04-26T16:19:27.085Z</time></trkpt><trkpt lat="32.8405126" lon="10.2006605"><ele>466.5</ele><time>2026-04-26T16:19:28.071Z</time></trkpt><trkpt lat="32.8404781" lon="10.2007906"><ele>466.0</ele><time>2026-04-26T16:19:29.08Z</time></trkpt><trkpt lat="32.8404477" lon="10.2009161"><ele>465.5</ele><time>2026-04-26T16:19:30.07Z</time></trkpt><trkpt lat="32.8404195" lon="10.2010533"><ele>465.0</ele><time>2026-04-26T16:19:31.078Z</time></trkpt><trkpt lat="32.8403953" lon="10.2011856"><ele>465.0</ele><time>2026-04-26T16:19:32.069Z</time></trkpt><trkpt lat="32.8403628" lon="10.2013145"><ele>465.0</ele><time>2026-04-26T16:19:33.087Z</time></trkpt><trkpt lat="32.8403251" lon="10.2014498"><ele>465.0</ele><time>2026-04-26T16:19:34.078Z</time></trkpt><trkpt lat="32.840282" lon="10.2015774"><ele>465.0</ele><time>2026-04-26T16:19:35.06Z</time></trkpt><trkpt lat="32.8402389" lon="10.2016967"><ele>465.0</ele><time>2026-04-26T16:19:36.071Z</time></trkpt><trkpt lat="32.8402027" lon="10.2018164"><ele>465.0</ele><time>2026-04-26T16:19:37.069Z</time></trkpt><trkpt lat="32.8401619" lon="10.2019303"><ele>465.0</ele><time>2026-04-26T16:19:38.087Z</time></trkpt><trkpt lat="32.8401132" lon="10.2020347"><ele>465.0</ele><time>2026-04-26T16:19:39.073Z</time></trkpt><trkpt lat="32.8400565" lon="10.202131"><ele>465.0</ele><time>2026-04-26T16:19:40.165Z</time></trkpt><trkpt lat="32.8399887" lon="10.2022137"><ele>465.0</ele><time>2026-04-26T16:19:41.144Z</time></trkpt><trkpt lat="32.8399169" lon="10.2022804"><ele>465.0</ele><time>2026-04-26T16:19:42.13Z</time></trkpt><trkpt lat="32.8398528" lon="10.2023422"><ele>465.0</ele><time>2026-04-26T16:19:43.076Z</time></trkpt><trkpt lat="32.8397912" lon="10.2023967"><ele>465.0</ele><time>2026-04-26T16:19:44.064Z</time></trkpt><trkpt lat="32.8397269" lon="10.2024408"><ele>465.0</ele><time>2026-04-26T16:19:45.076Z</time></trkpt><trkpt lat="32.8396499" lon="10.2024933"><ele>465.0</ele><time>2026-04-26T16:19:46.073Z</time></trkpt><trkpt lat="32.8395592" lon="10.2025514"><ele>464.8</ele><time>2026-04-26T16:19:47.074Z</time></trkpt><trkpt lat="32.8394802" lon="10.2026187"><ele>464.6</ele><time>2026-04-26T16:19:48.069Z</time></trkpt><trkpt lat="32.8394058" lon="10.2026995"><ele>464.4</ele><time>2026-04-26T16:19:49.081Z</time></trkpt><trkpt lat="32.8393444" lon="10.2027852"><ele>464.2</ele><time>2026-04-26T16:19:50.075Z</time></trkpt><trkpt lat="32.8392877" lon="10.2028766"><ele>464.0</ele><time>2026-04-26T16:19:51.077Z</time></trkpt><trkpt lat="32.8392342" lon="10.2029755"><ele>464.0</ele><time>2026-04-26T16:19:52.127Z</time></trkpt><trkpt lat="32.8391808" lon="10.2030767"><ele>464.0</ele><time>2026-04-26T16:19:53.138Z</time></trkpt><trkpt lat="32.8391263" lon="10.2031825"><ele>464.0</ele><time>2026-04-26T16:19:54.133Z</time></trkpt><trkpt lat="32.8390762" lon="10.2032898"><ele>464.0</ele><time>2026-04-26T16:19:55.128Z</time></trkpt><trkpt lat="32.8390316" lon="10.203392"><ele>464.0</ele><time>2026-04-26T16:19:56.131Z</time></trkpt><trkpt lat="32.8389819" lon="10.203495"><ele>465.0</ele><time>2026-04-26T16:19:57.11Z</time></trkpt><trkpt lat="32.8389339" lon="10.2035911"><ele>466.0</ele><time>2026-04-26T16:19:58.129Z</time></trkpt><trkpt lat="32.8388875" lon="10.2036867"><ele>467.0</ele><time>2026-04-26T16:19:59.129Z</time></trkpt><trkpt lat="32.8388424" lon="10.203779"><ele>468.0</ele><time>2026-04-26T16:20:00.137Z</time></trkpt><trkpt lat="32.838796" lon="10.2038724"><ele>469.0</ele><time>2026-04-26T16:20:01.128Z</time></trkpt><trkpt lat="32.8387494" lon="10.2039677"><ele>467.50000000000006</ele><time>2026-04-26T16:20:02.14Z</time></trkpt><trkpt lat="32.8387004" lon="10.2040623"><ele>466.0</ele><time>2026-04-26T16:20:03.132Z</time></trkpt><trkpt lat="32.8386543" lon="10.2041516"><ele>464.5</ele><time>2026-04-26T16:20:04.131Z</time></trkpt><trkpt lat="32.8386119" lon="10.2042412"><ele>463.0</ele><time>2026-04-26T16:20:05.133Z</time></trkpt><trkpt lat="32.8385663" lon="10.2043308"><ele>461.50000000000006</ele><time>2026-04-26T16:20:06.144Z</time></trkpt><trkpt lat="32.8385252" lon="10.2044149"><ele>460.0</ele><time>2026-04-26T16:20:07.133Z</time></trkpt><trkpt lat="32.8384867" lon="10.2044945"><ele>461.1666666666667</ele><time>2026-04-26T16:20:08.133Z</time></trkpt><trkpt lat="32.8384527" lon="10.204562"><ele>462.33333333333337</ele><time>2026-04-26T16:20:09.141Z</time></trkpt><trkpt lat="32.8384223" lon="10.2046307"><ele>463.5</ele><time>2026-04-26T16:20:10.13Z</time></trkpt><trkpt lat="32.8383604" lon="10.2047594"><ele>464.66666666666663</ele><time>2026-04-26T16:20:12.13Z</time></trkpt><trkpt lat="32.8383041" lon="10.2048975"><ele>465.8333333333333</ele><time>2026-04-26T16:20:14.126Z</time></trkpt><trkpt lat="32.838272" lon="10.2049621"><ele>467.0</ele><time>2026-04-26T16:20:15.131Z</time></trkpt><trkpt lat="32.8382372" lon="10.205026"><ele>466.99999999999994</ele><time>2026-04-26T16:20:16.121Z</time></trkpt><trkpt lat="32.8381851" lon="10.2051352"><ele>467.0</ele><time>2026-04-26T16:20:18.141Z</time></trkpt><trkpt lat="32.8381484" lon="10.2052111"><ele>467.0</ele><time>2026-04-26T16:20:19.127Z</time></trkpt><trkpt lat="32.8381096" lon="10.205288"><ele>467.0</ele><time>2026-04-26T16:20:20.127Z</time></trkpt><trkpt lat="32.8380766" lon="10.205357"><ele>466.99999999999994</ele><time>2026-04-26T16:20:21.129Z</time></trkpt><trkpt lat="32.8380402" lon="10.2054261"><ele>467.0</ele><time>2026-04-26T16:20:22.136Z</time></trkpt><trkpt lat="32.8379716" lon="10.205552"><ele>466.99999999999994</ele><time>2026-04-26T16:20:24.137Z</time></trkpt><trkpt lat="32.8379337" lon="10.2056196"><ele>467.0</ele><time>2026-04-26T16:20:25.145Z</time></trkpt><trkpt lat="32.8378814" lon="10.2056928"><ele>467.0</ele><time>2026-04-26T16:20:26.128Z</time></trkpt><trkpt lat="32.8378292" lon="10.2057738"><ele>467.0</ele><time>2026-04-26T16:20:27.126Z</time></trkpt><trkpt lat="32.8377786" lon="10.2058537"><ele>466.99999999999994</ele><time>2026-04-26T16:20:28.121Z</time></trkpt><trkpt lat="32.8377342" lon="10.205946"><ele>467.0</ele><time>2026-04-26T16:20:29.129Z</time></trkpt><trkpt lat="32.8376788" lon="10.2060487"><ele>467.8</ele><time>2026-04-26T16:20:30.133Z</time></trkpt><trkpt lat="32.8376241" lon="10.2061486"><ele>468.6</ele><time>2026-04-26T16:20:31.149Z</time></trkpt><trkpt lat="32.8375736" lon="10.2062433"><ele>469.40000000000003</ele><time>2026-04-26T16:20:32.138Z</time></trkpt><trkpt lat="32.8375238" lon="10.2063457"><ele>470.20000000000005</ele><time>2026-04-26T16:20:33.131Z</time></trkpt><trkpt lat="32.8374752" lon="10.2064351"><ele>471.0</ele><time>2026-04-26T16:20:34.127Z</time></trkpt><trkpt lat="32.8374175" lon="10.2065209"><ele>471.0</ele><time>2026-04-26T16:20:35.125Z</time></trkpt><trkpt lat="32.8373649" lon="10.2065969"><ele>471.0</ele><time>2026-04-26T16:20:36.133Z</time></trkpt><trkpt lat="32.8373073" lon="10.206662"><ele>471.0</ele><time>2026-04-26T16:20:37.127Z</time></trkpt><trkpt lat="32.8372336" lon="10.2067648"><ele>471.0</ele><time>2026-04-26T16:20:39.087Z</time></trkpt><trkpt lat="32.8371557" lon="10.2068379"><ele>471.0</ele><time>2026-04-26T16:20:41.067Z</time></trkpt><trkpt lat="32.8371018" lon="10.206886"><ele>471.0</ele><time>2026-04-26T16:20:42.068Z</time></trkpt><trkpt lat="32.8370508" lon="10.2069437"><ele>471.0</ele><time>2026-04-26T16:20:43.071Z</time></trkpt><trkpt lat="32.8369834" lon="10.2070013"><ele>471.0</ele><time>2026-04-26T16:20:44.082Z</time></trkpt><trkpt lat="32.8369136" lon="10.2070614"><ele>471.0</ele><time>2026-04-26T16:20:45.079Z</time></trkpt><trkpt lat="32.8368473" lon="10.2071152"><ele>471.0</ele><time>2026-04-26T16:20:46.06Z</time></trkpt><trkpt lat="32.8367812" lon="10.2071795"><ele>471.0</ele><time>2026-04-26T16:20:47.058Z</time></trkpt><trkpt lat="32.8367245" lon="10.2072487"><ele>471.0</ele><time>2026-04-26T16:20:48.084Z</time></trkpt><trkpt lat="32.8366701" lon="10.2073227"><ele>471.3333333333333</ele><time>2026-04-26T16:20:49.07Z</time></trkpt><trkpt lat="32.8366177" lon="10.2074076"><ele>471.66666666666663</ele><time>2026-04-26T16:20:50.066Z</time></trkpt><trkpt lat="32.8365698" lon="10.2074958"><ele>472.0</ele><time>2026-04-26T16:20:51.058Z</time></trkpt><trkpt lat="32.8365256" lon="10.2075915"><ele>472.3333333333333</ele><time>2026-04-26T16:20:52.061Z</time></trkpt><trkpt lat="32.8364889" lon="10.207688"><ele>472.66666666666663</ele><time>2026-04-26T16:20:53.071Z</time></trkpt><trkpt lat="32.8364553" lon="10.2077804"><ele>473.0</ele><time>2026-04-26T16:20:54.069Z</time></trkpt><trkpt lat="32.8364166" lon="10.2078786"><ele>472.99999999999994</ele><time>2026-04-26T16:20:55.081Z</time></trkpt><trkpt lat="32.8363842" lon="10.2079742"><ele>473.0</ele><time>2026-04-26T16:20:56.082Z</time></trkpt><trkpt lat="32.8363583" lon="10.2080694"><ele>473.0</ele><time>2026-04-26T16:20:57.059Z</time></trkpt><trkpt lat="32.8363349" lon="10.2081653"><ele>473.0</ele><time>2026-04-26T16:20:58.091Z</time></trkpt><trkpt lat="32.8363089" lon="10.2082572"><ele>472.99999999999994</ele><time>2026-04-26T16:20:59.069Z</time></trkpt><trkpt lat="32.8362864" lon="10.2083495"><ele>473.0</ele><time>2026-04-26T16:21:00.064Z</time></trkpt><trkpt lat="32.8362589" lon="10.2084421"><ele>472.8333333333333</ele><time>2026-04-26T16:21:01.061Z</time></trkpt><trkpt lat="32.8362357" lon="10.2085346"><ele>472.66666666666663</ele><time>2026-04-26T16:21:02.08Z</time></trkpt><trkpt lat="32.8362071" lon="10.2086317"><ele>472.5</ele><time>2026-04-26T16:21:03.068Z</time></trkpt><trkpt lat="32.8361755" lon="10.2087359"><ele>472.33333333333337</ele><time>2026-04-26T16:21:04.064Z</time></trkpt><trkpt lat="32.8361474" lon="10.2088354"><ele>472.1666666666667</ele><time>2026-04-26T16:21:05.075Z</time></trkpt><trkpt lat="32.8361192" lon="10.20893"><ele>472.0</ele><time>2026-04-26T16:21:06.073Z</time></trkpt><trkpt lat="32.8360939" lon="10.2090259"><ele>472.00000000000006</ele><time>2026-04-26T16:21:07.066Z</time></trkpt><trkpt lat="32.8360689" lon="10.209121"><ele>472.0</ele><time>2026-04-26T16:21:08.057Z</time></trkpt><trkpt lat="32.836046" lon="10.2092141"><ele>472.0</ele><time>2026-04-26T16:21:09.073Z</time></trkpt><trkpt lat="32.8360262" lon="10.2093047"><ele>472.0</ele><time>2026-04-26T16:21:10.094Z</time></trkpt><trkpt lat="32.8360023" lon="10.2093937"><ele>472.00000000000006</ele><time>2026-04-26T16:21:11.071Z</time></trkpt><trkpt lat="32.8359766" lon="10.2094741"><ele>472.0</ele><time>2026-04-26T16:21:12.064Z</time></trkpt><trkpt lat="32.8359582" lon="10.2095468"><ele>472.20000000000005</ele><time>2026-04-26T16:21:13.068Z</time></trkpt><trkpt lat="32.8359178" lon="10.2096694"><ele>472.40000000000003</ele><time>2026-04-26T16:21:15.078Z</time></trkpt><trkpt lat="32.8358736" lon="10.2097661"><ele>472.59999999999997</ele><time>2026-04-26T16:21:17.077Z</time></trkpt><trkpt lat="32.8358235" lon="10.2098589"><ele>472.79999999999995</ele><time>2026-04-26T16:21:20.082Z</time></trkpt><trkpt lat="32.8357813" lon="10.2099266"><ele>473.0</ele><time>2026-04-26T16:21:22.073Z</time></trkpt><trkpt lat="32.835731" lon="10.2100139"><ele>473.16666666666663</ele><time>2026-04-26T16:21:24.072Z</time></trkpt><trkpt lat="32.8356947" lon="10.2100944"><ele>473.3333333333333</ele><time>2026-04-26T16:21:26.082Z</time></trkpt><trkpt lat="32.8356422" lon="10.2101715"><ele>473.5</ele><time>2026-04-26T16:21:29.075Z</time></trkpt><trkpt lat="32.8356046" lon="10.210233"><ele>473.66666666666663</ele><time>2026-04-26T16:21:32.07Z</time></trkpt><trkpt lat="32.8355744" lon="10.2103006"><ele>473.8333333333333</ele><time>2026-04-26T16:21:52.055Z</time></trkpt><trkpt lat="32.8356476" lon="10.2102276"><ele>474.0</ele><time>2026-04-26T16:22:08.096Z</time></trkpt><trkpt lat="32.8357164" lon="10.2101152"><ele>474.0</ele><time>2026-04-26T16:22:10.071Z</time></trkpt><trkpt lat="32.8357714" lon="10.2100144"><ele>474.0</ele><time>2026-04-26T16:22:12.074Z</time></trkpt><trkpt lat="32.8358209" lon="10.2099201"><ele>474.0</ele><time>2026-04-26T16:22:14.078Z</time></trkpt><trkpt lat="32.8358504" lon="10.2098424"><ele>474.0</ele><time>2026-04-26T16:22:16.069Z</time></trkpt><trkpt lat="32.8358705" lon="10.2099445"><ele>474.0</ele><time>2026-04-26T16:22:27.076Z</time></trkpt><trkpt lat="32.8358634" lon="10.2100194"><ele>474.0</ele><time>2026-04-26T16:22:28.078Z</time></trkpt><trkpt lat="32.8358623" lon="10.2101626"><ele>474.0</ele><time>2026-04-26T16:22:30.078Z</time></trkpt><trkpt lat="32.8358765" lon="10.2102998"><ele>474.0</ele><time>2026-04-26T16:22:32.083Z</time></trkpt><trkpt lat="32.8359266" lon="10.2104311"><ele>474.0</ele><time>2026-04-26T16:22:34.085Z</time></trkpt><trkpt lat="32.8360035" lon="10.2105464"><ele>474.0</ele><time>2026-04-26T16:22:36.088Z</time></trkpt><trkpt lat="32.83607" lon="10.2106544"><ele>474.1666666666667</ele><time>2026-04-26T16:22:38.074Z</time></trkpt><trkpt lat="32.8361211" lon="10.2107945"><ele>474.33333333333337</ele><time>2026-04-26T16:22:40.076Z</time></trkpt><trkpt lat="32.836141" lon="10.2108797"><ele>474.5</ele><time>2026-04-26T16:22:41.076Z</time></trkpt><trkpt lat="32.836161" lon="10.2109662"><ele>474.6666666666667</ele><time>2026-04-26T16:22:42.078Z</time></trkpt><trkpt lat="32.8361791" lon="10.2110528"><ele>474.83333333333337</ele><time>2026-04-26T16:22:43.079Z</time></trkpt><trkpt lat="32.8361911" lon="10.21115"><ele>475.0</ele><time>2026-04-26T16:22:44.08Z</time></trkpt><trkpt lat="32.8362067" lon="10.211264"><ele>475.0</ele><time>2026-04-26T16:22:45.076Z</time></trkpt><trkpt lat="32.8362159" lon="10.2113825"><ele>475.0</ele><time>2026-04-26T16:22:46.073Z</time></trkpt><trkpt lat="32.8362263" lon="10.21149"><ele>475.0</ele><time>2026-04-26T16:22:47.077Z</time></trkpt><trkpt lat="32.8362375" lon="10.2115943"><ele>475.0</ele><time>2026-04-26T16:22:48.081Z</time></trkpt><trkpt lat="32.8362442" lon="10.2116949"><ele>475.0</ele><time>2026-04-26T16:22:49.069Z</time></trkpt><trkpt lat="32.8362545" lon="10.2118941"><ele>475.0</ele><time>2026-04-26T16:22:51.049Z</time></trkpt><trkpt lat="32.8362606" lon="10.2119935"><ele>475.0</ele><time>2026-04-26T16:22:52.047Z</time></trkpt><trkpt lat="32.8362731" lon="10.2120937"><ele>475.0</ele><time>2026-04-26T16:22:53.044Z</time></trkpt><trkpt lat="32.8362848" lon="10.2121886"><ele>475.0</ele><time>2026-04-26T16:22:54.076Z</time></trkpt><trkpt lat="32.8363186" lon="10.2123903"><ele>475.0</ele><time>2026-04-26T16:22:56.067Z</time></trkpt><trkpt lat="32.8363775" lon="10.2126788"><ele>474.8</ele><time>2026-04-26T16:22:59.057Z</time></trkpt><trkpt lat="32.8363971" lon="10.2127634"><ele>474.6</ele><time>2026-04-26T16:23:00.045Z</time></trkpt><trkpt lat="32.8364195" lon="10.212839"><ele>474.4</ele><time>2026-04-26T16:23:01.071Z</time></trkpt><trkpt lat="32.8364787" lon="10.2129491"><ele>474.2</ele><time>2026-04-26T16:23:03.044Z</time></trkpt><trkpt lat="32.8365605" lon="10.2129979"><ele>474.0</ele><time>2026-04-26T16:23:05.043Z</time></trkpt><trkpt lat="32.8366641" lon="10.2130351"><ele>474.0</ele><time>2026-04-26T16:23:07.049Z</time></trkpt><trkpt lat="32.8367441" lon="10.2130898"><ele>474.0</ele><time>2026-04-26T16:23:09.09Z</time></trkpt><trkpt lat="32.8367849" lon="10.213178"><ele>474.0</ele><time>2026-04-26T16:23:11.069Z</time></trkpt><trkpt lat="32.8367647" lon="10.2132867"><ele>474.0</ele><time>2026-04-26T16:23:13.055Z</time></trkpt><trkpt lat="32.836752" lon="10.213425"><ele>474.0</ele><time>2026-04-26T16:23:15.079Z</time></trkpt><trkpt lat="32.8367699" lon="10.2135705"><ele>474.0</ele><time>2026-04-26T16:23:17.071Z</time></trkpt><trkpt lat="32.8368132" lon="10.2137159"><ele>474.0</ele><time>2026-04-26T16:23:19.079Z</time></trkpt><trkpt lat="32.8368385" lon="10.2137864"><ele>474.0</ele><time>2026-04-26T16:23:20.041Z</time></trkpt><trkpt lat="32.8369127" lon="10.2139013"><ele>474.0</ele><time>2026-04-26T16:23:22.065Z</time></trkpt><trkpt lat="32.8370121" lon="10.2140035"><ele>474.0</ele><time>2026-04-26T16:23:24.125Z</time></trkpt><trkpt lat="32.8370745" lon="10.2140528"><ele>474.0</ele><time>2026-04-26T16:23:25.102Z</time></trkpt><trkpt lat="32.8371361" lon="10.2141027"><ele>474.0</ele><time>2026-04-26T16:23:26.109Z</time></trkpt><trkpt lat="32.8372317" lon="10.2141665"><ele>474.0</ele><time>2026-04-26T16:23:28.076Z</time></trkpt><trkpt lat="32.8373071" lon="10.2142152"><ele>474.0</ele><time>2026-04-26T16:23:30.109Z</time></trkpt><trkpt lat="32.8373628" lon="10.2142958"><ele>474.0</ele><time>2026-04-26T16:23:32.05Z</time></trkpt><trkpt lat="32.8373519" lon="10.2143981"><ele>474.0</ele><time>2026-04-26T16:23:34.108Z</time></trkpt><trkpt lat="32.8373064" lon="10.2145083"><ele>474.0</ele><time>2026-04-26T16:23:36.089Z</time></trkpt><trkpt lat="32.8372369" lon="10.2146193"><ele>474.0</ele><time>2026-04-26T16:23:38.054Z</time></trkpt><trkpt lat="32.8371775" lon="10.2147547"><ele>474.0</ele><time>2026-04-26T16:23:40.082Z</time></trkpt><trkpt lat="32.837147" lon="10.2148359"><ele>474.0</ele><time>2026-04-26T16:23:41.1Z</time></trkpt><trkpt lat="32.8371245" lon="10.21491"><ele>474.0</ele><time>2026-04-26T16:23:42.096Z</time></trkpt><trkpt lat="32.8371055" lon="10.2150365"><ele>474.2</ele><time>2026-04-26T16:23:44.082Z</time></trkpt><trkpt lat="32.8371205" lon="10.2151167"><ele>474.4</ele><time>2026-04-26T16:23:45.071Z</time></trkpt><trkpt lat="32.837156" lon="10.2152141"><ele>474.6</ele><time>2026-04-26T16:23:46.086Z</time></trkpt><trkpt lat="32.8371879" lon="10.2153487"><ele>474.8</ele><time>2026-04-26T16:23:47.08Z</time></trkpt><trkpt lat="32.837226" lon="10.2155045"><ele>475.0</ele><time>2026-04-26T16:23:48.099Z</time></trkpt><trkpt lat="32.8372586" lon="10.215635"><ele>475.25</ele><time>2026-04-26T16:23:49.044Z</time></trkpt><trkpt lat="32.8372879" lon="10.2157469"><ele>475.5</ele><time>2026-04-26T16:23:50.055Z</time></trkpt><trkpt lat="32.8373055" lon="10.2158503"><ele>475.75</ele><time>2026-04-26T16:23:51.058Z</time></trkpt><trkpt lat="32.8373231" lon="10.2159501"><ele>476.0</ele><time>2026-04-26T16:23:52.046Z</time></trkpt><trkpt lat="32.8373689" lon="10.216359"><ele>475.99999999999994</ele><time>2026-04-26T16:23:56.055Z</time></trkpt><trkpt lat="32.8373816" lon="10.2164539"><ele>476.0</ele><time>2026-04-26T16:23:57.066Z</time></trkpt><trkpt lat="32.8374006" lon="10.2165421"><ele>476.0</ele><time>2026-04-26T16:23:58.048Z</time></trkpt><trkpt lat="32.8374183" lon="10.2166162"><ele>476.0</ele><time>2026-04-26T16:23:59.05Z</time></trkpt><trkpt lat="32.8374452" lon="10.2167014"><ele>475.99999999999994</ele><time>2026-04-26T16:24:00.044Z</time></trkpt><trkpt lat="32.8374864" lon="10.2168059"><ele>476.0</ele><time>2026-04-26T16:24:01.072Z</time></trkpt><trkpt lat="32.8375343" lon="10.2169174"><ele>475.8333333333333</ele><time>2026-04-26T16:24:02.05Z</time></trkpt><trkpt lat="32.8375686" lon="10.2170183"><ele>475.66666666666663</ele><time>2026-04-26T16:24:03.068Z</time></trkpt><trkpt lat="32.8375982" lon="10.2171069"><ele>475.5</ele><time>2026-04-26T16:24:04.106Z</time></trkpt><trkpt lat="32.8376257" lon="10.2171912"><ele>475.33333333333337</ele><time>2026-04-26T16:24:05.039Z</time></trkpt><trkpt lat="32.8376633" lon="10.217274"><ele>475.1666666666667</ele><time>2026-04-26T16:24:06.036Z</time></trkpt><trkpt lat="32.8377091" lon="10.2173571"><ele>475.0</ele><time>2026-04-26T16:24:07.058Z</time></trkpt><trkpt lat="32.8377546" lon="10.2174379"><ele>475.83333333333337</ele><time>2026-04-26T16:24:08.044Z</time></trkpt><trkpt lat="32.8377996" lon="10.2175232"><ele>476.6666666666667</ele><time>2026-04-26T16:24:09.051Z</time></trkpt><trkpt lat="32.8378369" lon="10.2176081"><ele>477.5</ele><time>2026-04-26T16:24:10.051Z</time></trkpt><trkpt lat="32.8378558" lon="10.2176884"><ele>478.33333333333337</ele><time>2026-04-26T16:24:11.047Z</time></trkpt><trkpt lat="32.837868" lon="10.2177639"><ele>479.1666666666667</ele><time>2026-04-26T16:24:12.054Z</time></trkpt><trkpt lat="32.8378796" lon="10.217916"><ele>480.0</ele><time>2026-04-26T16:24:14.043Z</time></trkpt><trkpt lat="32.8378887" lon="10.2179943"><ele>480.0</ele><time>2026-04-26T16:24:15.045Z</time></trkpt><trkpt lat="32.837901" lon="10.2181418"><ele>480.0</ele><time>2026-04-26T16:24:17.061Z</time></trkpt><trkpt lat="32.837906" lon="10.2182215"><ele>480.0</ele><time>2026-04-26T16:24:18.063Z</time></trkpt><trkpt lat="32.8379084" lon="10.2183018"><ele>480.0</ele><time>2026-04-26T16:24:19.046Z</time></trkpt><trkpt lat="32.8379141" lon="10.2183824"><ele>480.0</ele><time>2026-04-26T16:24:20.046Z</time></trkpt><trkpt lat="32.8379201" lon="10.218459"><ele>480.0</ele><time>2026-04-26T16:24:21.041Z</time></trkpt><trkpt lat="32.8379279" lon="10.2185353"><ele>480.0</ele><time>2026-04-26T16:24:22.058Z</time></trkpt><trkpt lat="32.8379453" lon="10.2186193"><ele>480.0</ele><time>2026-04-26T16:24:23.052Z</time></trkpt><trkpt lat="32.8379973" lon="10.2189323"><ele>480.0</ele><time>2026-04-26T16:24:27.076Z</time></trkpt><trkpt lat="32.8380069" lon="10.2190584"><ele>480.0</ele><time>2026-04-26T16:24:29.063Z</time></trkpt><trkpt lat="32.8379819" lon="10.2191704"><ele>480.0</ele><time>2026-04-26T16:24:31.057Z</time></trkpt><trkpt lat="32.8379253" lon="10.2192517"><ele>480.0</ele><time>2026-04-26T16:24:33.065Z</time></trkpt><trkpt lat="32.8378533" lon="10.2193149"><ele>480.0</ele><time>2026-04-26T16:24:35.06Z</time></trkpt><trkpt lat="32.8377614" lon="10.2193868"><ele>480.0</ele><time>2026-04-26T16:24:37.072Z</time></trkpt><trkpt lat="32.8376648" lon="10.2194459"><ele>480.0</ele><time>2026-04-26T16:24:39.055Z</time></trkpt><trkpt lat="32.8375854" lon="10.2195144"><ele>479.8</ele><time>2026-04-26T16:24:41.059Z</time></trkpt><trkpt lat="32.8375132" lon="10.219598"><ele>479.6</ele><time>2026-04-26T16:24:43.041Z</time></trkpt><trkpt lat="32.837446" lon="10.2196864"><ele>479.4</ele><time>2026-04-26T16:24:45.05Z</time></trkpt><trkpt lat="32.8373757" lon="10.2197797"><ele>479.2</ele><time>2026-04-26T16:24:47.05Z</time></trkpt><trkpt lat="32.8373015" lon="10.2198604"><ele>479.0</ele><time>2026-04-26T16:24:49.057Z</time></trkpt><trkpt lat="32.8372388" lon="10.2199346"><ele>479.49999999999994</ele><time>2026-04-26T16:24:51.05Z</time></trkpt><trkpt lat="32.8371754" lon="10.2200134"><ele>480.0</ele><time>2026-04-26T16:24:53.052Z</time></trkpt><trkpt lat="32.837119" lon="10.2200834"><ele>480.5</ele><time>2026-04-26T16:24:56.045Z</time></trkpt><trkpt lat="32.8370788" lon="10.2201611"><ele>481.0</ele><time>2026-04-26T16:24:58.039Z</time></trkpt><trkpt lat="32.8370417" lon="10.2202487"><ele>481.49999999999994</ele><time>2026-04-26T16:25:01.042Z</time></trkpt><trkpt lat="32.8369848" lon="10.2203324"><ele>482.0</ele><time>2026-04-26T16:25:17.048Z</time></trkpt><trkpt lat="32.8369582" lon="10.2204046"><ele>481.99999999999994</ele><time>2026-04-26T16:25:19.049Z</time></trkpt><trkpt lat="32.8369321" lon="10.2204977"><ele>482.0</ele><time>2026-04-26T16:25:21.055Z</time></trkpt><trkpt lat="32.8369111" lon="10.2205993"><ele>482.0</ele><time>2026-04-26T16:25:23.051Z</time></trkpt><trkpt lat="32.8369067" lon="10.2206944"><ele>482.0</ele><time>2026-04-26T16:25:25.062Z</time></trkpt><trkpt lat="32.8369058" lon="10.2207974"><ele>481.99999999999994</ele><time>2026-04-26T16:25:27.052Z</time></trkpt><trkpt lat="32.8368935" lon="10.2208774"><ele>482.0</ele><time>2026-04-26T16:25:29.056Z</time></trkpt><trkpt lat="32.8368543" lon="10.2209615"><ele>481.49999999999994</ele><time>2026-04-26T16:25:31.064Z</time></trkpt><trkpt lat="32.8368051" lon="10.2210399"><ele>481.0</ele><time>2026-04-26T16:25:33.059Z</time></trkpt><trkpt lat="32.8367583" lon="10.2211257"><ele>480.5</ele><time>2026-04-26T16:25:35.057Z</time></trkpt><trkpt lat="32.8367114" lon="10.2212147"><ele>480.0</ele><time>2026-04-26T16:25:37.055Z</time></trkpt><trkpt lat="32.8366686" lon="10.2213"><ele>479.49999999999994</ele><time>2026-04-26T16:25:39.04Z</time></trkpt><trkpt lat="32.8366204" lon="10.2213884"><ele>479.0</ele><time>2026-04-26T16:25:42.051Z</time></trkpt><trkpt lat="32.8365852" lon="10.2214557"><ele>479.6</ele><time>2026-04-26T16:25:44.051Z</time></trkpt><trkpt lat="32.836537" lon="10.2215482"><ele>480.2</ele><time>2026-04-26T16:25:47.051Z</time></trkpt><trkpt lat="32.8364967" lon="10.2216458"><ele>480.80000000000007</ele><time>2026-04-26T16:25:50.053Z</time></trkpt><trkpt lat="32.8364671" lon="10.2217574"><ele>481.40000000000003</ele><time>2026-04-26T16:25:52.048Z</time></trkpt><trkpt lat="32.8364579" lon="10.2219376"><ele>482.0</ele><time>2026-04-26T16:25:55.074Z</time></trkpt><trkpt lat="32.8364539" lon="10.222037"><ele>481.99999999999994</ele><time>2026-04-26T16:25:57.069Z</time></trkpt><trkpt lat="32.8364531" lon="10.2221307"><ele>482.0</ele><time>2026-04-26T16:25:59.048Z</time></trkpt><trkpt lat="32.8364506" lon="10.2222456"><ele>482.0</ele><time>2026-04-26T16:26:01.099Z</time></trkpt><trkpt lat="32.8364446" lon="10.2223228"><ele>482.0</ele><time>2026-04-26T16:26:03.07Z</time></trkpt><trkpt lat="32.8364254" lon="10.2224393"><ele>481.99999999999994</ele><time>2026-04-26T16:26:09.053Z</time></trkpt><trkpt lat="32.83644" lon="10.2225559"><ele>482.0</ele><time>2026-04-26T16:26:11.053Z</time></trkpt><trkpt lat="32.8364482" lon="10.2226908"><ele>481.99999999999994</ele><time>2026-04-26T16:26:13.049Z</time></trkpt><trkpt lat="32.8364594" lon="10.2228173"><ele>482.0</ele><time>2026-04-26T16:26:15.06Z</time></trkpt><trkpt lat="32.8364675" lon="10.2228926"><ele>482.0</ele><time>2026-04-26T16:26:16.055Z</time></trkpt><trkpt lat="32.8364769" lon="10.2230469"><ele>482.0</ele><time>2026-04-26T16:26:18.059Z</time></trkpt><trkpt lat="32.8364849" lon="10.223131"><ele>481.99999999999994</ele><time>2026-04-26T16:26:19.046Z</time></trkpt><trkpt lat="32.8364942" lon="10.2232123"><ele>482.0</ele><time>2026-04-26T16:26:20.053Z</time></trkpt><trkpt lat="32.8365016" lon="10.2232874"><ele>481.99999999999994</ele><time>2026-04-26T16:26:21.047Z</time></trkpt><trkpt lat="32.8365136" lon="10.2233693"><ele>482.0</ele><time>2026-04-26T16:26:22.045Z</time></trkpt><trkpt lat="32.8365325" lon="10.2234517"><ele>482.0</ele><time>2026-04-26T16:26:23.059Z</time></trkpt><trkpt lat="32.836563" lon="10.2235368"><ele>482.0</ele><time>2026-04-26T16:26:24.053Z</time></trkpt><trkpt lat="32.8365973" lon="10.2236191"><ele>481.99999999999994</ele><time>2026-04-26T16:26:25.046Z</time></trkpt><trkpt lat="32.8366297" lon="10.2237049"><ele>482.0</ele><time>2026-04-26T16:26:26.049Z</time></trkpt><trkpt lat="32.8366595" lon="10.2237894"><ele>481.99999999999994</ele><time>2026-04-26T16:26:27.052Z</time></trkpt><trkpt lat="32.8366913" lon="10.2238773"><ele>482.0</ele><time>2026-04-26T16:26:28.057Z</time></trkpt><trkpt lat="32.8367321" lon="10.2239652"><ele>482.0</ele><time>2026-04-26T16:26:29.046Z</time></trkpt><trkpt lat="32.8367701" lon="10.2240506"><ele>482.0</ele><time>2026-04-26T16:26:30.057Z</time></trkpt><trkpt lat="32.8368044" lon="10.2241353"><ele>481.99999999999994</ele><time>2026-04-26T16:26:31.064Z</time></trkpt><trkpt lat="32.8368378" lon="10.224226"><ele>482.0</ele><time>2026-04-26T16:26:32.064Z</time></trkpt><trkpt lat="32.8368709" lon="10.2243153"><ele>482.16666666666663</ele><time>2026-04-26T16:26:33.059Z</time></trkpt><trkpt lat="32.836911" lon="10.2244098"><ele>482.3333333333333</ele><time>2026-04-26T16:26:34.054Z</time></trkpt><trkpt lat="32.8369495" lon="10.2244974"><ele>482.5</ele><time>2026-04-26T16:26:35.068Z</time></trkpt><trkpt lat="32.8369864" lon="10.2245847"><ele>482.66666666666663</ele><time>2026-04-26T16:26:36.051Z</time></trkpt><trkpt lat="32.8370222" lon="10.2246702"><ele>482.8333333333333</ele><time>2026-04-26T16:26:37.062Z</time></trkpt><trkpt lat="32.8370548" lon="10.224757"><ele>483.0</ele><time>2026-04-26T16:26:38.055Z</time></trkpt><trkpt lat="32.837089" lon="10.2248385"><ele>483.0</ele><time>2026-04-26T16:26:39.049Z</time></trkpt><trkpt lat="32.8371579" lon="10.224999"><ele>483.0</ele><time>2026-04-26T16:26:41.059Z</time></trkpt><trkpt lat="32.8371927" lon="10.225074"><ele>483.0</ele><time>2026-04-26T16:26:42.038Z</time></trkpt><trkpt lat="32.8372243" lon="10.2251477"><ele>483.0</ele><time>2026-04-26T16:26:43.058Z</time></trkpt><trkpt lat="32.8372616" lon="10.2252226"><ele>483.0</ele><time>2026-04-26T16:26:44.043Z</time></trkpt><trkpt lat="32.8372986" lon="10.2253003"><ele>483.0</ele><time>2026-04-26T16:26:45.059Z</time></trkpt><trkpt lat="32.8373454" lon="10.2253811"><ele>483.0</ele><time>2026-04-26T16:26:46.041Z</time></trkpt><trkpt lat="32.83739" lon="10.2254516"><ele>483.0</ele><time>2026-04-26T16:26:47.043Z</time></trkpt><trkpt lat="32.8374341" lon="10.2255168"><ele>483.0</ele><time>2026-04-26T16:26:48.063Z</time></trkpt><trkpt lat="32.8374726" lon="10.2255808"><ele>483.0</ele><time>2026-04-26T16:26:49.057Z</time></trkpt><trkpt lat="32.8375407" lon="10.2256904"><ele>483.0</ele><time>2026-04-26T16:26:51.044Z</time></trkpt><trkpt lat="32.8375927" lon="10.2257763"><ele>483.0</ele><time>2026-04-26T16:26:53.059Z</time></trkpt><trkpt lat="32.837602" lon="10.2258725"><ele>483.5</ele><time>2026-04-26T16:26:56.049Z</time></trkpt><trkpt lat="32.8375361" lon="10.2260302"><ele>484.0</ele><time>2026-04-26T16:26:58.061Z</time></trkpt><trkpt lat="32.8374795" lon="10.2261299"><ele>484.5</ele><time>2026-04-26T16:26:59.05Z</time></trkpt><trkpt lat="32.8374371" lon="10.2262399"><ele>485.0</ele><time>2026-04-26T16:27:00.051Z</time></trkpt><trkpt lat="32.8373917" lon="10.226364"><ele>484.99999999999994</ele><time>2026-04-26T16:27:01.051Z</time></trkpt><trkpt lat="32.8373463" lon="10.2264819"><ele>485.0</ele><time>2026-04-26T16:27:02.05Z</time></trkpt><trkpt lat="32.8373067" lon="10.2265848"><ele>485.0</ele><time>2026-04-26T16:27:03.038Z</time></trkpt><trkpt lat="32.8372684" lon="10.226673"><ele>485.0</ele><time>2026-04-26T16:27:04.038Z</time></trkpt><trkpt lat="32.8372277" lon="10.2267557"><ele>484.99999999999994</ele><time>2026-04-26T16:27:05.052Z</time></trkpt><trkpt lat="32.8371954" lon="10.2268217"><ele>485.0</ele><time>2026-04-26T16:27:06.147Z</time></trkpt><trkpt lat="32.8371578" lon="10.2269373"><ele>484.99999999999994</ele><time>2026-04-26T16:27:08.047Z</time></trkpt><trkpt lat="32.8371414" lon="10.2270215"><ele>485.0</ele><time>2026-04-26T16:27:10.054Z</time></trkpt><trkpt lat="32.8371425" lon="10.22713"><ele>485.0</ele><time>2026-04-26T16:27:12.063Z</time></trkpt><trkpt lat="32.8371439" lon="10.2272073"><ele>485.0</ele><time>2026-04-26T16:27:14.109Z</time></trkpt><trkpt lat="32.8372125" lon="10.2272284"><ele>484.99999999999994</ele><time>2026-04-26T16:27:19.06Z</time></trkpt><trkpt lat="32.837264" lon="10.2271408"><ele>485.0</ele><time>2026-04-26T16:27:21.045Z</time></trkpt><trkpt lat="32.837322" lon="10.2270341"><ele>484.99999999999994</ele><time>2026-04-26T16:27:23.055Z</time></trkpt><trkpt lat="32.8373989" lon="10.2269243"><ele>485.0</ele><time>2026-04-26T16:27:25.059Z</time></trkpt><trkpt lat="32.8374524" lon="10.2268694"><ele>485.0</ele><time>2026-04-26T16:27:26.057Z</time></trkpt><trkpt lat="32.8375081" lon="10.2268274"><ele>485.0</ele><time>2026-04-26T16:27:27.041Z</time></trkpt><trkpt lat="32.8375751" lon="10.2267884"><ele>484.99999999999994</ele><time>2026-04-26T16:27:28.09Z</time></trkpt><trkpt lat="32.8376502" lon="10.2267626"><ele>485.0</ele><time>2026-04-26T16:27:29.059Z</time></trkpt><trkpt lat="32.8377236" lon="10.2267518"><ele>484.99999999999994</ele><time>2026-04-26T16:27:30.08Z</time></trkpt><trkpt lat="32.8378018" lon="10.2267551"><ele>485.0</ele><time>2026-04-26T16:27:31.087Z</time></trkpt><trkpt lat="32.8378797" lon="10.2267821"><ele>485.0</ele><time>2026-04-26T16:27:32.096Z</time></trkpt><trkpt lat="32.8379592" lon="10.226823"><ele>485.0</ele><time>2026-04-26T16:27:33.107Z</time></trkpt><trkpt lat="32.8380372" lon="10.2268733"><ele>484.99999999999994</ele><time>2026-04-26T16:27:34.099Z</time></trkpt><trkpt lat="32.8381196" lon="10.2269221"><ele>485.0</ele><time>2026-04-26T16:27:35.095Z</time></trkpt><trkpt lat="32.8382027" lon="10.226977"><ele>485.0</ele><time>2026-04-26T16:27:36.092Z</time></trkpt><trkpt lat="32.8382817" lon="10.2270382"><ele>485.0</ele><time>2026-04-26T16:27:37.053Z</time></trkpt><trkpt lat="32.8383626" lon="10.2271045"><ele>485.0</ele><time>2026-04-26T16:27:38.083Z</time></trkpt><trkpt lat="32.8384436" lon="10.2271807"><ele>485.0</ele><time>2026-04-26T16:27:39.122Z</time></trkpt><trkpt lat="32.8385282" lon="10.2272524"><ele>485.0</ele><time>2026-04-26T16:27:40.096Z</time></trkpt><trkpt lat="32.8386231" lon="10.227338"><ele>484.5</ele><time>2026-04-26T16:27:41.105Z</time></trkpt><trkpt lat="32.8387201" lon="10.2274366"><ele>484.0</ele><time>2026-04-26T16:27:42.083Z</time></trkpt><trkpt lat="32.8388226" lon="10.2275333"><ele>483.5</ele><time>2026-04-26T16:27:43.081Z</time></trkpt><trkpt lat="32.8389297" lon="10.2276344"><ele>483.0</ele><time>2026-04-26T16:27:44.07Z</time></trkpt><trkpt lat="32.8390321" lon="10.2277293"><ele>483.0</ele><time>2026-04-26T16:27:45.087Z</time></trkpt><trkpt lat="32.8391325" lon="10.227824"><ele>483.0</ele><time>2026-04-26T16:27:46.085Z</time></trkpt><trkpt lat="32.8392394" lon="10.2279177"><ele>483.0</ele><time>2026-04-26T16:27:47.054Z</time></trkpt><trkpt lat="32.8393459" lon="10.2280039"><ele>483.0</ele><time>2026-04-26T16:27:48.099Z</time></trkpt><trkpt lat="32.8394449" lon="10.2280734"><ele>484.0</ele><time>2026-04-26T16:27:49.089Z</time></trkpt><trkpt lat="32.8395547" lon="10.2281323"><ele>485.0</ele><time>2026-04-26T16:27:50.096Z</time></trkpt><trkpt lat="32.8396827" lon="10.2281844"><ele>486.0</ele><time>2026-04-26T16:27:51.062Z</time></trkpt><trkpt lat="32.8398227" lon="10.2282224"><ele>487.0</ele><time>2026-04-26T16:27:52.102Z</time></trkpt><trkpt lat="32.8399731" lon="10.228267"><ele>487.0</ele><time>2026-04-26T16:27:53.117Z</time></trkpt><trkpt lat="32.8401274" lon="10.2283136"><ele>487.0</ele><time>2026-04-26T16:27:54.048Z</time></trkpt><trkpt lat="32.8402808" lon="10.2283607"><ele>487.0</ele><time>2026-04-26T16:27:55.072Z</time></trkpt><trkpt lat="32.8404331" lon="10.2284101"><ele>487.0</ele><time>2026-04-26T16:27:56.103Z</time></trkpt><trkpt lat="32.8405878" lon="10.2284584"><ele>487.0</ele><time>2026-04-26T16:27:57.085Z</time></trkpt><trkpt lat="32.8407454" lon="10.2285058"><ele>487.0</ele><time>2026-04-26T16:27:58.054Z</time></trkpt><trkpt lat="32.8409014" lon="10.2285551"><ele>487.6666666666667</ele><time>2026-04-26T16:27:59.103Z</time></trkpt><trkpt lat="32.8410556" lon="10.2286032"><ele>488.33333333333337</ele><time>2026-04-26T16:28:00.075Z</time></trkpt><trkpt lat="32.8412096" lon="10.2286501"><ele>489.0</ele><time>2026-04-26T16:28:01.091Z</time></trkpt><trkpt lat="32.8413623" lon="10.2286954"><ele>489.0</ele><time>2026-04-26T16:28:02.099Z</time></trkpt><trkpt lat="32.8415113" lon="10.2287439"><ele>489.0</ele><time>2026-04-26T16:28:03.102Z</time></trkpt><trkpt lat="32.841662" lon="10.2287897"><ele>489.0</ele><time>2026-04-26T16:28:04.071Z</time></trkpt><trkpt lat="32.8418112" lon="10.2288354"><ele>489.66666666666663</ele><time>2026-04-26T16:28:05.091Z</time></trkpt><trkpt lat="32.8419627" lon="10.2288809"><ele>490.3333333333333</ele><time>2026-04-26T16:28:06.106Z</time></trkpt><trkpt lat="32.8421126" lon="10.228928"><ele>491.0</ele><time>2026-04-26T16:28:07.041Z</time></trkpt><trkpt lat="32.8422532" lon="10.2289684"><ele>491.0</ele><time>2026-04-26T16:28:08.089Z</time></trkpt><trkpt lat="32.8423965" lon="10.2290093"><ele>491.0</ele><time>2026-04-26T16:28:09.105Z</time></trkpt><trkpt lat="32.8425403" lon="10.2290527"><ele>491.0</ele><time>2026-04-26T16:28:10.057Z</time></trkpt><trkpt lat="32.8426845" lon="10.2290952"><ele>491.0</ele><time>2026-04-26T16:28:11.094Z</time></trkpt><trkpt lat="32.8428273" lon="10.2291328"><ele>491.25</ele><time>2026-04-26T16:28:12.053Z</time></trkpt><trkpt lat="32.8429713" lon="10.2291735"><ele>491.5</ele><time>2026-04-26T16:28:13.047Z</time></trkpt><trkpt lat="32.8431143" lon="10.2292205"><ele>491.75</ele><time>2026-04-26T16:28:14.052Z</time></trkpt><trkpt lat="32.8432586" lon="10.229263"><ele>492.0</ele><time>2026-04-26T16:28:15.042Z</time></trkpt><trkpt lat="32.8433977" lon="10.2293116"><ele>492.0</ele><time>2026-04-26T16:28:16.055Z</time></trkpt><trkpt lat="32.8435413" lon="10.2293584"><ele>492.0</ele><time>2026-04-26T16:28:17.039Z</time></trkpt><trkpt lat="32.8436874" lon="10.2294004"><ele>492.0</ele><time>2026-04-26T16:28:18.066Z</time></trkpt><trkpt lat="32.8438296" lon="10.2294483"><ele>492.0</ele><time>2026-04-26T16:28:19.057Z</time></trkpt><trkpt lat="32.843968" lon="10.2295097"><ele>492.0</ele><time>2026-04-26T16:28:20.097Z</time></trkpt><trkpt lat="32.8441106" lon="10.2295802"><ele>492.0</ele><time>2026-04-26T16:28:21.056Z</time></trkpt><trkpt lat="32.844252" lon="10.2296598"><ele>492.0</ele><time>2026-04-26T16:28:22.055Z</time></trkpt><trkpt lat="32.8443968" lon="10.2297449"><ele>491.66666666666663</ele><time>2026-04-26T16:28:23.066Z</time></trkpt><trkpt lat="32.8445392" lon="10.2298379"><ele>491.3333333333333</ele><time>2026-04-26T16:28:24.11Z</time></trkpt><trkpt lat="32.8446851" lon="10.2299257"><ele>491.0</ele><time>2026-04-26T16:28:25.061Z</time></trkpt><trkpt lat="32.8448271" lon="10.2300106"><ele>491.0</ele><time>2026-04-26T16:28:26.106Z</time></trkpt><trkpt lat="32.8449721" lon="10.2300865"><ele>491.0</ele><time>2026-04-26T16:28:27.105Z</time></trkpt><trkpt lat="32.84511" lon="10.2301661"><ele>491.0</ele><time>2026-04-26T16:28:28.069Z</time></trkpt><trkpt lat="32.8452477" lon="10.2302557"><ele>492.3333333333333</ele><time>2026-04-26T16:28:29.101Z</time></trkpt><trkpt lat="32.8453835" lon="10.2303624"><ele>493.66666666666663</ele><time>2026-04-26T16:28:30.111Z</time></trkpt><trkpt lat="32.8455087" lon="10.2304875"><ele>495.0</ele><time>2026-04-26T16:28:31.089Z</time></trkpt><trkpt lat="32.8456277" lon="10.2306251"><ele>494.66666666666663</ele><time>2026-04-26T16:28:32.104Z</time></trkpt><trkpt lat="32.845746" lon="10.2307688"><ele>494.3333333333333</ele><time>2026-04-26T16:28:33.085Z</time></trkpt><trkpt lat="32.8458655" lon="10.2309047"><ele>494.0</ele><time>2026-04-26T16:28:34.1Z</time></trkpt><trkpt lat="32.8459883" lon="10.2310415"><ele>495.0</ele><time>2026-04-26T16:28:35.073Z</time></trkpt><trkpt lat="32.8461088" lon="10.231179"><ele>496.0</ele><time>2026-04-26T16:28:36.108Z</time></trkpt><trkpt lat="32.8462302" lon="10.2313139"><ele>497.0</ele><time>2026-04-26T16:28:37.095Z</time></trkpt><trkpt lat="32.8463496" lon="10.2314455"><ele>496.66666666666663</ele><time>2026-04-26T16:28:38.061Z</time></trkpt><trkpt lat="32.846469" lon="10.2315814"><ele>496.33333333333337</ele><time>2026-04-26T16:28:39.096Z</time></trkpt><trkpt lat="32.8465838" lon="10.2317142"><ele>496.0</ele><time>2026-04-26T16:28:40.094Z</time></trkpt><trkpt lat="32.8467012" lon="10.2318457"><ele>496.33333333333337</ele><time>2026-04-26T16:28:41.096Z</time></trkpt><trkpt lat="32.8468184" lon="10.2319772"><ele>496.66666666666663</ele><time>2026-04-26T16:28:42.103Z</time></trkpt><trkpt lat="32.8469366" lon="10.2321155"><ele>497.0</ele><time>2026-04-26T16:28:43.101Z</time></trkpt><trkpt lat="32.8470565" lon="10.232253"><ele>497.0</ele><time>2026-04-26T16:28:44.065Z</time></trkpt><trkpt lat="32.8471739" lon="10.2323853"><ele>497.0</ele><time>2026-04-26T16:28:45.088Z</time></trkpt><trkpt lat="32.8472968" lon="10.2325244"><ele>497.0</ele><time>2026-04-26T16:28:46.111Z</time></trkpt><trkpt lat="32.8474193" lon="10.2326637"><ele>497.0</ele><time>2026-04-26T16:28:47.077Z</time></trkpt><trkpt lat="32.8475462" lon="10.2328102"><ele>497.0</ele><time>2026-04-26T16:28:48.099Z</time></trkpt><trkpt lat="32.8476705" lon="10.232952"><ele>497.0</ele><time>2026-04-26T16:28:49.086Z</time></trkpt><trkpt lat="32.847792" lon="10.2330965"><ele>497.66666666666663</ele><time>2026-04-26T16:28:50.107Z</time></trkpt><trkpt lat="32.8479148" lon="10.233241"><ele>498.33333333333337</ele><time>2026-04-26T16:28:51.073Z</time></trkpt><trkpt lat="32.8480378" lon="10.2333813"><ele>499.0</ele><time>2026-04-26T16:28:52.076Z</time></trkpt><trkpt lat="32.8481711" lon="10.2335271"><ele>499.0</ele><time>2026-04-26T16:28:53.084Z</time></trkpt><trkpt lat="32.8483062" lon="10.2336728"><ele>499.0</ele><time>2026-04-26T16:28:54.084Z</time></trkpt><trkpt lat="32.8484384" lon="10.2338249"><ele>499.0</ele><time>2026-04-26T16:28:55.091Z</time></trkpt><trkpt lat="32.8485696" lon="10.2339714"><ele>499.6666666666667</ele><time>2026-04-26T16:28:56.091Z</time></trkpt><trkpt lat="32.8487027" lon="10.2341217"><ele>500.33333333333337</ele><time>2026-04-26T16:28:57.086Z</time></trkpt><trkpt lat="32.848835" lon="10.2342739"><ele>501.0</ele><time>2026-04-26T16:28:58.085Z</time></trkpt><trkpt lat="32.8489663" lon="10.2344238"><ele>501.0</ele><time>2026-04-26T16:28:59.113Z</time></trkpt><trkpt lat="32.8490954" lon="10.2345691"><ele>501.0</ele><time>2026-04-26T16:29:00.096Z</time></trkpt><trkpt lat="32.8492241" lon="10.234717"><ele>501.0</ele><time>2026-04-26T16:29:01.043Z</time></trkpt><trkpt lat="32.8493533" lon="10.2348658"><ele>501.0</ele><time>2026-04-26T16:29:02.077Z</time></trkpt><trkpt lat="32.8494834" lon="10.2350127"><ele>501.0</ele><time>2026-04-26T16:29:03.107Z</time></trkpt><trkpt lat="32.8496099" lon="10.2351629"><ele>501.0</ele><time>2026-04-26T16:29:04.117Z</time></trkpt><trkpt lat="32.849739" lon="10.2353086"><ele>501.0</ele><time>2026-04-26T16:29:05.1Z</time></trkpt><trkpt lat="32.849859" lon="10.2354476"><ele>501.0</ele><time>2026-04-26T16:29:06.1Z</time></trkpt><trkpt lat="32.8499886" lon="10.2355904"><ele>501.0</ele><time>2026-04-26T16:29:07.095Z</time></trkpt><trkpt lat="32.8501145" lon="10.2357381"><ele>501.33333333333337</ele><time>2026-04-26T16:29:08.077Z</time></trkpt><trkpt lat="32.8502488" lon="10.2358877"><ele>501.6666666666667</ele><time>2026-04-26T16:29:09.079Z</time></trkpt><trkpt lat="32.8503824" lon="10.2360416"><ele>502.0</ele><time>2026-04-26T16:29:10.092Z</time></trkpt><trkpt lat="32.8505101" lon="10.2361946"><ele>502.0</ele><time>2026-04-26T16:29:11.094Z</time></trkpt><trkpt lat="32.8506388" lon="10.2363495"><ele>502.0</ele><time>2026-04-26T16:29:12.096Z</time></trkpt><trkpt lat="32.8507682" lon="10.2365018"><ele>502.0</ele><time>2026-04-26T16:29:13.1Z</time></trkpt><trkpt lat="32.8509006" lon="10.2366545"><ele>502.6666666666667</ele><time>2026-04-26T16:29:14.096Z</time></trkpt><trkpt lat="32.8510364" lon="10.2368145"><ele>503.33333333333337</ele><time>2026-04-26T16:29:15.113Z</time></trkpt><trkpt lat="32.8511693" lon="10.2369747"><ele>504.0</ele><time>2026-04-26T16:29:16.108Z</time></trkpt><trkpt lat="32.8513061" lon="10.2371379"><ele>504.0</ele><time>2026-04-26T16:29:17.111Z</time></trkpt><trkpt lat="32.8514513" lon="10.2372984"><ele>504.0</ele><time>2026-04-26T16:29:18.08Z</time></trkpt><trkpt lat="32.8515908" lon="10.2374496"><ele>504.0</ele><time>2026-04-26T16:29:19.103Z</time></trkpt><trkpt lat="32.8517396" lon="10.237598"><ele>504.33333333333337</ele><time>2026-04-26T16:29:20.082Z</time></trkpt><trkpt lat="32.851888" lon="10.2377415"><ele>504.6666666666667</ele><time>2026-04-26T16:29:21.104Z</time></trkpt><trkpt lat="32.8520384" lon="10.2378872"><ele>505.0</ele><time>2026-04-26T16:29:22.046Z</time></trkpt><trkpt lat="32.8521881" lon="10.2380316"><ele>505.33333333333337</ele><time>2026-04-26T16:29:23.079Z</time></trkpt><trkpt lat="32.8523277" lon="10.2381734"><ele>505.66666666666663</ele><time>2026-04-26T16:29:24.06Z</time></trkpt><trkpt lat="32.8524614" lon="10.2383112"><ele>506.0</ele><time>2026-04-26T16:29:25.054Z</time></trkpt><trkpt lat="32.8525964" lon="10.2384431"><ele>509.66666666666663</ele><time>2026-04-26T16:29:26.051Z</time></trkpt><trkpt lat="32.8527241" lon="10.2385661"><ele>513.3333333333334</ele><time>2026-04-26T16:29:27.04Z</time></trkpt><trkpt lat="32.8528546" lon="10.2386887"><ele>517.0</ele><time>2026-04-26T16:29:28.056Z</time></trkpt><trkpt lat="32.8529831" lon="10.2388052"><ele>517.0</ele><time>2026-04-26T16:29:29.046Z</time></trkpt><trkpt lat="32.8531067" lon="10.2389204"><ele>517.0</ele><time>2026-04-26T16:29:30.043Z</time></trkpt><trkpt lat="32.8532276" lon="10.239034"><ele>517.0</ele><time>2026-04-26T16:29:31.047Z</time></trkpt><trkpt lat="32.853347" lon="10.2391464"><ele>515.75</ele><time>2026-04-26T16:29:32.037Z</time></trkpt><trkpt lat="32.8534657" lon="10.2392559"><ele>514.5</ele><time>2026-04-26T16:29:33.053Z</time></trkpt><trkpt lat="32.853586" lon="10.2393566"><ele>513.25</ele><time>2026-04-26T16:29:34.054Z</time></trkpt><trkpt lat="32.8536991" lon="10.2394589"><ele>512.0</ele><time>2026-04-26T16:29:35.052Z</time></trkpt><trkpt lat="32.8538166" lon="10.2395526"><ele>512.0</ele><time>2026-04-26T16:29:36.047Z</time></trkpt><trkpt lat="32.8539256" lon="10.2396327"><ele>512.0</ele><time>2026-04-26T16:29:37.056Z</time></trkpt><trkpt lat="32.8540306" lon="10.2397054"><ele>512.0</ele><time>2026-04-26T16:29:38.046Z</time></trkpt><trkpt lat="32.8541244" lon="10.2397668"><ele>512.0</ele><time>2026-04-26T16:29:39.061Z</time></trkpt><trkpt lat="32.8542156" lon="10.2398282"><ele>512.6</ele><time>2026-04-26T16:29:40.097Z</time></trkpt><trkpt lat="32.8543043" lon="10.2398931"><ele>513.2</ele><time>2026-04-26T16:29:41.088Z</time></trkpt><trkpt lat="32.8543839" lon="10.2399557"><ele>513.8</ele><time>2026-04-26T16:29:42.075Z</time></trkpt><trkpt lat="32.8544594" lon="10.24002"><ele>514.4</ele><time>2026-04-26T16:29:43.092Z</time></trkpt><trkpt lat="32.8545276" lon="10.240087"><ele>515.0</ele><time>2026-04-26T16:29:44.085Z</time></trkpt><trkpt lat="32.8545775" lon="10.2401486"><ele>515.0</ele><time>2026-04-26T16:29:45.083Z</time></trkpt><trkpt lat="32.8546252" lon="10.2402098"><ele>515.0</ele><time>2026-04-26T16:29:46.094Z</time></trkpt><trkpt lat="32.8547239" lon="10.2403063"><ele>515.0</ele><time>2026-04-26T16:29:48.096Z</time></trkpt><trkpt lat="32.854788" lon="10.2403493"><ele>515.0</ele><time>2026-04-26T16:29:49.097Z</time></trkpt><trkpt lat="32.8548445" lon="10.2403924"><ele>515.0</ele><time>2026-04-26T16:29:50.1Z</time></trkpt><trkpt lat="32.8549062" lon="10.2404425"><ele>515.0</ele><time>2026-04-26T16:29:51.089Z</time></trkpt><trkpt lat="32.8549696" lon="10.2405075"><ele>515.0</ele><time>2026-04-26T16:29:52.037Z</time></trkpt><trkpt lat="32.8550086" lon="10.2405833"><ele>515.0</ele><time>2026-04-26T16:29:53.045Z</time></trkpt><trkpt lat="32.8550441" lon="10.2406682"><ele>515.0</ele><time>2026-04-26T16:29:54.034Z</time></trkpt><trkpt lat="32.855059" lon="10.2407633"><ele>515.0</ele><time>2026-04-26T16:29:55.056Z</time></trkpt><trkpt lat="32.8550682" lon="10.2408649"><ele>515.0</ele><time>2026-04-26T16:29:56.073Z</time></trkpt><trkpt lat="32.8550641" lon="10.2410655"><ele>514.4</ele><time>2026-04-26T16:29:58.084Z</time></trkpt><trkpt lat="32.8550442" lon="10.2412392"><ele>513.8</ele><time>2026-04-26T16:30:00.081Z</time></trkpt><trkpt lat="32.8550423" lon="10.241327"><ele>513.2</ele><time>2026-04-26T16:30:01.057Z</time></trkpt><trkpt lat="32.8550483" lon="10.2414224"><ele>512.6</ele><time>2026-04-26T16:30:02.109Z</time></trkpt><trkpt lat="32.8550565" lon="10.2415249"><ele>512.0</ele><time>2026-04-26T16:30:03.079Z</time></trkpt><trkpt lat="32.8550812" lon="10.2417244"><ele>511.6</ele><time>2026-04-26T16:30:05.039Z</time></trkpt><trkpt lat="32.8550984" lon="10.2418277"><ele>511.20000000000005</ele><time>2026-04-26T16:30:06.049Z</time></trkpt><trkpt lat="32.8551111" lon="10.2419352"><ele>510.8</ele><time>2026-04-26T16:30:07.077Z</time></trkpt><trkpt lat="32.855136" lon="10.2420392"><ele>510.4</ele><time>2026-04-26T16:30:08.057Z</time></trkpt><trkpt lat="32.8551655" lon="10.2422449"><ele>510.0</ele><time>2026-04-26T16:30:10.05Z</time></trkpt><trkpt lat="32.8551814" lon="10.2423529"><ele>512.0</ele><time>2026-04-26T16:30:11.065Z</time></trkpt><trkpt lat="32.8551897" lon="10.242457"><ele>514.0</ele><time>2026-04-26T16:30:12.057Z</time></trkpt><trkpt lat="32.8551973" lon="10.2425599"><ele>516.0</ele><time>2026-04-26T16:30:13.049Z</time></trkpt><trkpt lat="32.8552038" lon="10.2426605"><ele>518.0</ele><time>2026-04-26T16:30:14.038Z</time></trkpt><trkpt lat="32.8552129" lon="10.2427626"><ele>520.0</ele><time>2026-04-26T16:30:15.057Z</time></trkpt><trkpt lat="32.8552287" lon="10.2428598"><ele>522.0</ele><time>2026-04-26T16:30:16.049Z</time></trkpt><trkpt lat="32.8552455" lon="10.2429547"><ele>522.0</ele><time>2026-04-26T16:30:17.067Z</time></trkpt><trkpt lat="32.8552581" lon="10.2430546"><ele>522.0</ele><time>2026-04-26T16:30:18.053Z</time></trkpt><trkpt lat="32.855265" lon="10.2431553"><ele>522.0</ele><time>2026-04-26T16:30:19.063Z</time></trkpt><trkpt lat="32.855267" lon="10.2432504"><ele>522.0</ele><time>2026-04-26T16:30:20.068Z</time></trkpt><trkpt lat="32.855265" lon="10.243339"><ele>522.0</ele><time>2026-04-26T16:30:21.053Z</time></trkpt><trkpt lat="32.8552518" lon="10.2434308"><ele>522.0</ele><time>2026-04-26T16:30:22.061Z</time></trkpt><trkpt lat="32.8552316" lon="10.2435205"><ele>521.6</ele><time>2026-04-26T16:30:23.085Z</time></trkpt><trkpt lat="32.8552137" lon="10.2436037"><ele>521.2</ele><time>2026-04-26T16:30:24.067Z</time></trkpt><trkpt lat="32.8552105" lon="10.2436911"><ele>520.8</ele><time>2026-04-26T16:30:25.068Z</time></trkpt><trkpt lat="32.8552408" lon="10.2438769"><ele>520.4</ele><time>2026-04-26T16:30:27.039Z</time></trkpt><trkpt lat="32.855265" lon="10.2439669"><ele>520.0</ele><time>2026-04-26T16:30:28.102Z</time></trkpt><trkpt lat="32.8552938" lon="10.2440495"><ele>520.0</ele><time>2026-04-26T16:30:29.057Z</time></trkpt><trkpt lat="32.8553304" lon="10.2441203"><ele>520.0</ele><time>2026-04-26T16:30:30.067Z</time></trkpt><trkpt lat="32.8553869" lon="10.2441808"><ele>520.0</ele><time>2026-04-26T16:30:31.052Z</time></trkpt><trkpt lat="32.8554418" lon="10.2442305"><ele>520.0</ele><time>2026-04-26T16:30:32.042Z</time></trkpt><trkpt lat="32.855498" lon="10.2442841"><ele>520.0</ele><time>2026-04-26T16:30:33.076Z</time></trkpt><trkpt lat="32.8555669" lon="10.2444083"><ele>520.0</ele><time>2026-04-26T16:30:35.066Z</time></trkpt><trkpt lat="32.8555855" lon="10.2446581"><ele>519.25</ele><time>2026-04-26T16:30:38.063Z</time></trkpt><trkpt lat="32.855556" lon="10.244839"><ele>518.5</ele><time>2026-04-26T16:30:40.052Z</time></trkpt><trkpt lat="32.8555479" lon="10.2449425"><ele>517.75</ele><time>2026-04-26T16:30:41.099Z</time></trkpt><trkpt lat="32.8555768" lon="10.2451689"><ele>517.0</ele><time>2026-04-26T16:30:43.054Z</time></trkpt><trkpt lat="32.8556013" lon="10.2452851"><ele>517.0</ele><time>2026-04-26T16:30:44.046Z</time></trkpt><trkpt lat="32.8556186" lon="10.2454093"><ele>517.0</ele><time>2026-04-26T16:30:45.062Z</time></trkpt><trkpt lat="32.8556257" lon="10.2455276"><ele>517.0</ele><time>2026-04-26T16:30:46.04Z</time></trkpt><trkpt lat="32.8556134" lon="10.2456428"><ele>517.0</ele><time>2026-04-26T16:30:47.05Z</time></trkpt><trkpt lat="32.8555887" lon="10.2457697"><ele>517.0</ele><time>2026-04-26T16:30:48.069Z</time></trkpt><trkpt lat="32.8555656" lon="10.2458798"><ele>518.2</ele><time>2026-04-26T16:30:49.054Z</time></trkpt><trkpt lat="32.8555401" lon="10.2459792"><ele>519.4000000000001</ele><time>2026-04-26T16:30:50.052Z</time></trkpt><trkpt lat="32.8555221" lon="10.2460871"><ele>520.5999999999999</ele><time>2026-04-26T16:30:51.057Z</time></trkpt><trkpt lat="32.8555176" lon="10.2462035"><ele>521.8</ele><time>2026-04-26T16:30:52.069Z</time></trkpt><trkpt lat="32.855513" lon="10.246314"><ele>523.0</ele><time>2026-04-26T16:30:53.077Z</time></trkpt><trkpt lat="32.8555053" lon="10.2464261"><ele>523.0</ele><time>2026-04-26T16:30:54.058Z</time></trkpt><trkpt lat="32.8554925" lon="10.2465372"><ele>523.0</ele><time>2026-04-26T16:30:55.083Z</time></trkpt><trkpt lat="32.8554703" lon="10.2466438"><ele>523.0</ele><time>2026-04-26T16:30:56.079Z</time></trkpt><trkpt lat="32.8554474" lon="10.2467566"><ele>523.0</ele><time>2026-04-26T16:30:57.076Z</time></trkpt><trkpt lat="32.8554356" lon="10.2468674"><ele>523.0</ele><time>2026-04-26T16:30:58.06Z</time></trkpt><trkpt lat="32.8554387" lon="10.2469762"><ele>523.0</ele><time>2026-04-26T16:30:59.077Z</time></trkpt><trkpt lat="32.8554491" lon="10.2470812"><ele>523.0</ele><time>2026-04-26T16:31:00.076Z</time></trkpt><trkpt lat="32.8554586" lon="10.2471813"><ele>523.0</ele><time>2026-04-26T16:31:01.071Z</time></trkpt><trkpt lat="32.8554717" lon="10.2472723"><ele>523.0</ele><time>2026-04-26T16:31:02.101Z</time></trkpt><trkpt lat="32.8554852" lon="10.2473655"><ele>523.0</ele><time>2026-04-26T16:31:03.067Z</time></trkpt><trkpt lat="32.8554925" lon="10.2474493"><ele>523.0</ele><time>2026-04-26T16:31:04.06Z</time></trkpt><trkpt lat="32.8554869" lon="10.2475951"><ele>523.1999999999999</ele><time>2026-04-26T16:31:06.073Z</time></trkpt><trkpt lat="32.8554114" lon="10.2477143"><ele>523.4</ele><time>2026-04-26T16:31:08.077Z</time></trkpt><trkpt lat="32.8553597" lon="10.2477659"><ele>523.5999999999999</ele><time>2026-04-26T16:31:09.061Z</time></trkpt><trkpt lat="32.8553103" lon="10.2478152"><ele>523.8</ele><time>2026-04-26T16:31:10.07Z</time></trkpt><trkpt lat="32.8552232" lon="10.2479144"><ele>524.0</ele><time>2026-04-26T16:31:12.077Z</time></trkpt><trkpt lat="32.8551605" lon="10.248036"><ele>524.0</ele><time>2026-04-26T16:31:14.054Z</time></trkpt><trkpt lat="32.8551413" lon="10.2481731"><ele>524.0</ele><time>2026-04-26T16:31:16.061Z</time></trkpt><trkpt lat="32.855146" lon="10.248249"><ele>524.0</ele><time>2026-04-26T16:31:17.071Z</time></trkpt><trkpt lat="32.8551635" lon="10.2483332"><ele>524.0</ele><time>2026-04-26T16:31:18.072Z</time></trkpt><trkpt lat="32.8551792" lon="10.2484087"><ele>524.0</ele><time>2026-04-26T16:31:19.064Z</time></trkpt><trkpt lat="32.8552017" lon="10.2484836"><ele>524.0</ele><time>2026-04-26T16:31:20.073Z</time></trkpt><trkpt lat="32.8552584" lon="10.2486174"><ele>524.0</ele><time>2026-04-26T16:31:22.059Z</time></trkpt><trkpt lat="32.8553043" lon="10.248682"><ele>524.0</ele><time>2026-04-26T16:31:23.081Z</time></trkpt><trkpt lat="32.8553571" lon="10.2487481"><ele>524.0</ele><time>2026-04-26T16:31:24.039Z</time></trkpt><trkpt lat="32.8554115" lon="10.2488096"><ele>524.0</ele><time>2026-04-26T16:31:25.048Z</time></trkpt><trkpt lat="32.8554525" lon="10.2488724"><ele>524.0</ele><time>2026-04-26T16:31:26.079Z</time></trkpt><trkpt lat="32.8554874" lon="10.2489573"><ele>524.0</ele><time>2026-04-26T16:31:27.078Z</time></trkpt><trkpt lat="32.8555173" lon="10.2490417"><ele>524.0</ele><time>2026-04-26T16:31:28.101Z</time></trkpt><trkpt lat="32.8555423" lon="10.249132"><ele>524.0</ele><time>2026-04-26T16:31:29.063Z</time></trkpt><trkpt lat="32.8555573" lon="10.2492329"><ele>524.0</ele><time>2026-04-26T16:31:30.074Z</time></trkpt><trkpt lat="32.8555697" lon="10.249332"><ele>524.0</ele><time>2026-04-26T16:31:31.076Z</time></trkpt><trkpt lat="32.8555785" lon="10.2494307"><ele>524.0</ele><time>2026-04-26T16:31:32.043Z</time></trkpt><trkpt lat="32.8555819" lon="10.2495304"><ele>524.0</ele><time>2026-04-26T16:31:33.061Z</time></trkpt><trkpt lat="32.8555716" lon="10.2496398"><ele>524.0</ele><time>2026-04-26T16:31:34.043Z</time></trkpt><trkpt lat="32.8555547" lon="10.2497562"><ele>524.2</ele><time>2026-04-26T16:31:35.069Z</time></trkpt><trkpt lat="32.8555441" lon="10.2498723"><ele>524.4</ele><time>2026-04-26T16:31:36.045Z</time></trkpt><trkpt lat="32.8555298" lon="10.2499845"><ele>524.6</ele><time>2026-04-26T16:31:37.043Z</time></trkpt><trkpt lat="32.8555173" lon="10.2500948"><ele>524.8</ele><time>2026-04-26T16:31:38.057Z</time></trkpt><trkpt lat="32.8554956" lon="10.2501944"><ele>525.0</ele><time>2026-04-26T16:31:39.047Z</time></trkpt><trkpt lat="32.8554736" lon="10.2502932"><ele>525.0</ele><time>2026-04-26T16:31:40.047Z</time></trkpt><trkpt lat="32.8554523" lon="10.250395"><ele>525.0</ele><time>2026-04-26T16:31:41.073Z</time></trkpt><trkpt lat="32.8554307" lon="10.2504962"><ele>525.0</ele><time>2026-04-26T16:31:42.067Z</time></trkpt><trkpt lat="32.8554172" lon="10.2505964"><ele>525.0</ele><time>2026-04-26T16:31:43.052Z</time></trkpt><trkpt lat="32.8554082" lon="10.2507025"><ele>525.0</ele><time>2026-04-26T16:31:44.039Z</time></trkpt><trkpt lat="32.855395" lon="10.2509893"><ele>524.8333333333334</ele><time>2026-04-26T16:31:47.076Z</time></trkpt><trkpt lat="32.8554035" lon="10.2510754"><ele>524.6666666666666</ele><time>2026-04-26T16:31:48.072Z</time></trkpt><trkpt lat="32.8554316" lon="10.2511483"><ele>524.5</ele><time>2026-04-26T16:31:49.061Z</time></trkpt><trkpt lat="32.8554663" lon="10.2512195"><ele>524.3333333333333</ele><time>2026-04-26T16:31:50.056Z</time></trkpt><trkpt lat="32.8555408" lon="10.2513392"><ele>524.1666666666666</ele><time>2026-04-26T16:31:52.055Z</time></trkpt><trkpt lat="32.8555666" lon="10.2514138"><ele>524.0</ele><time>2026-04-26T16:31:53.077Z</time></trkpt><trkpt lat="32.8556226" lon="10.2517619"><ele>524.3333333333333</ele><time>2026-04-26T16:31:57.067Z</time></trkpt><trkpt lat="32.8556376" lon="10.2518675"><ele>524.6666666666666</ele><time>2026-04-26T16:31:58.087Z</time></trkpt><trkpt lat="32.8556596" lon="10.2519679"><ele>525.0</ele><time>2026-04-26T16:31:59.044Z</time></trkpt><trkpt lat="32.8556829" lon="10.2520687"><ele>525.3333333333334</ele><time>2026-04-26T16:32:00.038Z</time></trkpt><trkpt lat="32.8557064" lon="10.2521724"><ele>525.6666666666667</ele><time>2026-04-26T16:32:01.055Z</time></trkpt><trkpt lat="32.8557292" lon="10.2522771"><ele>526.0</ele><time>2026-04-26T16:32:02.056Z</time></trkpt><trkpt lat="32.8557752" lon="10.252476"><ele>526.0</ele><time>2026-04-26T16:32:04.077Z</time></trkpt><trkpt lat="32.8557999" lon="10.252585"><ele>526.0</ele><time>2026-04-26T16:32:05.058Z</time></trkpt><trkpt lat="32.8558279" lon="10.252687"><ele>526.0</ele><time>2026-04-26T16:32:06.056Z</time></trkpt><trkpt lat="32.8558506" lon="10.2527897"><ele>526.0</ele><time>2026-04-26T16:32:07.044Z</time></trkpt><trkpt lat="32.8558724" lon="10.2528916"><ele>526.0</ele><time>2026-04-26T16:32:08.077Z</time></trkpt><trkpt lat="32.8558851" lon="10.2529935"><ele>526.0</ele><time>2026-04-26T16:32:09.041Z</time></trkpt><trkpt lat="32.8558897" lon="10.2530897"><ele>526.1666666666667</ele><time>2026-04-26T16:32:10.063Z</time></trkpt><trkpt lat="32.8558952" lon="10.2531885"><ele>526.3333333333334</ele><time>2026-04-26T16:32:11.052Z</time></trkpt><trkpt lat="32.8558957" lon="10.2532874"><ele>526.5</ele><time>2026-04-26T16:32:12.057Z</time></trkpt><trkpt lat="32.8559065" lon="10.2533827"><ele>526.6666666666666</ele><time>2026-04-26T16:32:13.063Z</time></trkpt><trkpt lat="32.8559308" lon="10.2534685"><ele>526.8333333333333</ele><time>2026-04-26T16:32:14.081Z</time></trkpt><trkpt lat="32.8559718" lon="10.2535477"><ele>527.0</ele><time>2026-04-26T16:32:15.063Z</time></trkpt><trkpt lat="32.8560234" lon="10.2536137"><ele>527.5</ele><time>2026-04-26T16:32:16.034Z</time></trkpt><trkpt lat="32.8560844" lon="10.2536754"><ele>528.0</ele><time>2026-04-26T16:32:17.047Z</time></trkpt><trkpt lat="32.8561545" lon="10.2537418"><ele>528.5</ele><time>2026-04-26T16:32:18.06Z</time></trkpt><trkpt lat="32.8563174" lon="10.2539541"><ele>529.0</ele><time>2026-04-26T16:32:21.051Z</time></trkpt><trkpt lat="32.8563717" lon="10.2540124"><ele>529.0</ele><time>2026-04-26T16:32:22.046Z</time></trkpt><trkpt lat="32.8565568" lon="10.2541483"><ele>529.0</ele><time>2026-04-26T16:32:25.048Z</time></trkpt><trkpt lat="32.8566288" lon="10.254183"><ele>529.0</ele><time>2026-04-26T16:32:26.056Z</time></trkpt><trkpt lat="32.8566977" lon="10.2542079"><ele>529.0</ele><time>2026-04-26T16:32:27.063Z</time></trkpt><trkpt lat="32.8567581" lon="10.254239"><ele>529.0</ele><time>2026-04-26T16:32:28.052Z</time></trkpt><trkpt lat="32.8568562" lon="10.2543005"><ele>529.0</ele><time>2026-04-26T16:32:30.045Z</time></trkpt><trkpt lat="32.8569148" lon="10.254383"><ele>529.0</ele><time>2026-04-26T16:32:32.107Z</time></trkpt><trkpt lat="32.8569243" lon="10.2544732"><ele>529.0</ele><time>2026-04-26T16:32:34.096Z</time></trkpt><trkpt lat="32.8568916" lon="10.254545"><ele>529.0</ele><time>2026-04-26T16:32:36.084Z</time></trkpt><trkpt lat="32.8568271" lon="10.2546158"><ele>529.0</ele><time>2026-04-26T16:32:38.107Z</time></trkpt><trkpt lat="32.8567589" lon="10.2546769"><ele>529.0</ele><time>2026-04-26T16:32:40.048Z</time></trkpt><trkpt lat="32.8567076" lon="10.2547633"><ele>529.1666666666667</ele><time>2026-04-26T16:32:42.045Z</time></trkpt><trkpt lat="32.8566785" lon="10.2548445"><ele>529.3333333333334</ele><time>2026-04-26T16:32:44.067Z</time></trkpt><trkpt lat="32.8566422" lon="10.2549468"><ele>529.5</ele><time>2026-04-26T16:32:47.061Z</time></trkpt><trkpt lat="32.8565965" lon="10.2550458"><ele>529.6666666666666</ele><time>2026-04-26T16:32:50.049Z</time></trkpt><trkpt lat="32.856541" lon="10.2551069"><ele>529.8333333333333</ele><time>2026-04-26T16:32:53.039Z</time></trkpt><trkpt lat="32.8564734" lon="10.2551203"><ele>530.0</ele><time>2026-04-26T16:32:56.06Z</time></trkpt><trkpt lat="32.8563994" lon="10.255092"><ele>529.9999999999999</ele><time>2026-04-26T16:33:00.061Z</time></trkpt><trkpt lat="32.8563297" lon="10.2550522"><ele>530.0</ele><time>2026-04-26T16:33:03.079Z</time></trkpt><trkpt lat="32.8562786" lon="10.2549888"><ele>530.0</ele><time>2026-04-26T16:44:15.033Z</time></trkpt><trkpt lat="32.8562602" lon="10.2548881"><ele>530.0</ele><time>2026-04-26T16:44:18.028Z</time></trkpt><trkpt lat="32.8562775" lon="10.2548109"><ele>530.0</ele><time>2026-04-26T16:44:20.068Z</time></trkpt><trkpt lat="32.8563214" lon="10.2547312"><ele>529.9999999999999</ele><time>2026-04-26T16:44:23.07Z</time></trkpt><trkpt lat="32.8563813" lon="10.2547026"><ele>530.0</ele><time>2026-04-26T16:44:25.053Z</time></trkpt><trkpt lat="32.8564545" lon="10.2546878"><ele>529.8</ele><time>2026-04-26T16:44:27.043Z</time></trkpt><trkpt lat="32.8565362" lon="10.2546746"><ele>529.6</ele><time>2026-04-26T16:44:29.033Z</time></trkpt><trkpt lat="32.8566512" lon="10.2546714"><ele>529.4</ele><time>2026-04-26T16:44:32.051Z</time></trkpt><trkpt lat="32.8567669" lon="10.254628"><ele>529.2</ele><time>2026-04-26T16:44:35.04Z</time></trkpt><trkpt lat="32.8568364" lon="10.2545933"><ele>529.0</ele><time>2026-04-26T16:44:37.09Z</time></trkpt><trkpt lat="32.8568996" lon="10.2545405"><ele>529.0</ele><time>2026-04-26T16:44:39.051Z</time></trkpt><trkpt lat="32.8569277" lon="10.2544378"><ele>529.0</ele><time>2026-04-26T16:44:42.095Z</time></trkpt><trkpt lat="32.8569006" lon="10.2543505"><ele>529.0</ele><time>2026-04-26T16:44:44.04Z</time></trkpt><trkpt lat="32.8568143" lon="10.2542758"><ele>529.0</ele><time>2026-04-26T16:44:46.059Z</time></trkpt><trkpt lat="32.8567102" lon="10.2542122"><ele>529.0</ele><time>2026-04-26T16:44:48.036Z</time></trkpt><trkpt lat="32.8566497" lon="10.2541768"><ele>529.0</ele><time>2026-04-26T16:44:49.035Z</time></trkpt><trkpt lat="32.856593" lon="10.2541439"><ele>529.0</ele><time>2026-04-26T16:44:50.045Z</time></trkpt><trkpt lat="32.8565329" lon="10.2541125"><ele>529.0</ele><time>2026-04-26T16:44:51.053Z</time></trkpt><trkpt lat="32.8564776" lon="10.254076"><ele>529.0</ele><time>2026-04-26T16:44:52.048Z</time></trkpt><trkpt lat="32.856422" lon="10.2540329"><ele>529.0</ele><time>2026-04-26T16:44:53.04Z</time></trkpt><trkpt lat="32.8563681" lon="10.253989"><ele>529.0</ele><time>2026-04-26T16:44:54.038Z</time></trkpt><trkpt lat="32.8563215" lon="10.2539359"><ele>529.0</ele><time>2026-04-26T16:44:55.058Z</time></trkpt><trkpt lat="32.8562746" lon="10.2538759"><ele>529.4</ele><time>2026-04-26T16:44:56.036Z</time></trkpt><trkpt lat="32.8562252" lon="10.2538164"><ele>529.8</ele><time>2026-04-26T16:44:57.062Z</time></trkpt><trkpt lat="32.8561778" lon="10.2537546"><ele>530.2</ele><time>2026-04-26T16:44:58.053Z</time></trkpt><trkpt lat="32.8560802" lon="10.2536588"><ele>530.6</ele><time>2026-04-26T16:45:00.052Z</time></trkpt><trkpt lat="32.8559857" lon="10.2535623"><ele>531.0</ele><time>2026-04-26T16:45:02.042Z</time></trkpt><trkpt lat="32.8559286" lon="10.2534378"><ele>530.3333333333334</ele><time>2026-04-26T16:45:04.052Z</time></trkpt><trkpt lat="32.8559082" lon="10.2532912"><ele>529.6666666666666</ele><time>2026-04-26T16:45:06.076Z</time></trkpt><trkpt lat="32.8559051" lon="10.2532107"><ele>529.0</ele><time>2026-04-26T16:45:07.059Z</time></trkpt><trkpt lat="32.8559014" lon="10.2531269"><ele>528.3333333333333</ele><time>2026-04-26T16:45:08.054Z</time></trkpt><trkpt lat="32.8558977" lon="10.2530372"><ele>527.6666666666666</ele><time>2026-04-26T16:45:09.05Z</time></trkpt><trkpt lat="32.8558923" lon="10.2529465"><ele>527.0</ele><time>2026-04-26T16:45:10.077Z</time></trkpt><trkpt lat="32.8558808" lon="10.2528575"><ele>526.8333333333333</ele><time>2026-04-26T16:45:11.053Z</time></trkpt><trkpt lat="32.8558581" lon="10.2527637"><ele>526.6666666666666</ele><time>2026-04-26T16:45:12.125Z</time></trkpt><trkpt lat="32.8558369" lon="10.2526715"><ele>526.5</ele><time>2026-04-26T16:45:13.095Z</time></trkpt><trkpt lat="32.8558112" lon="10.252583"><ele>526.3333333333334</ele><time>2026-04-26T16:45:14.049Z</time></trkpt><trkpt lat="32.8557847" lon="10.2524905"><ele>526.1666666666667</ele><time>2026-04-26T16:45:15.068Z</time></trkpt><trkpt lat="32.8557634" lon="10.2523968"><ele>526.0</ele><time>2026-04-26T16:45:16.052Z</time></trkpt><trkpt lat="32.8557399" lon="10.2523047"><ele>526.0</ele><time>2026-04-26T16:45:17.06Z</time></trkpt><trkpt lat="32.85572" lon="10.2522141"><ele>526.0</ele><time>2026-04-26T16:45:18.087Z</time></trkpt><trkpt lat="32.8557019" lon="10.2521232"><ele>526.0</ele><time>2026-04-26T16:45:19.065Z</time></trkpt><trkpt lat="32.8556798" lon="10.2520246"><ele>526.0</ele><time>2026-04-26T16:45:20.063Z</time></trkpt><trkpt lat="32.8556593" lon="10.251928"><ele>526.0</ele><time>2026-04-26T16:45:21.063Z</time></trkpt><trkpt lat="32.8556426" lon="10.2518328"><ele>526.0</ele><time>2026-04-26T16:45:22.063Z</time></trkpt><trkpt lat="32.8556257" lon="10.2517381"><ele>526.0</ele><time>2026-04-26T16:45:23.053Z</time></trkpt><trkpt lat="32.8556127" lon="10.2516439"><ele>526.0</ele><time>2026-04-26T16:45:24.052Z</time></trkpt><trkpt lat="32.8555952" lon="10.2515547"><ele>526.0</ele><time>2026-04-26T16:45:25.06Z</time></trkpt><trkpt lat="32.855577" lon="10.2514745"><ele>526.0</ele><time>2026-04-26T16:45:26.042Z</time></trkpt><trkpt lat="32.8555449" lon="10.2513497"><ele>526.0</ele><time>2026-04-26T16:45:28.068Z</time></trkpt><trkpt lat="32.8554901" lon="10.2512479"><ele>526.0</ele><time>2026-04-26T16:45:30.053Z</time></trkpt><trkpt lat="32.8554298" lon="10.2511444"><ele>525.8</ele><time>2026-04-26T16:45:32.049Z</time></trkpt><trkpt lat="32.8554033" lon="10.2510229"><ele>525.6</ele><time>2026-04-26T16:45:34.055Z</time></trkpt><trkpt lat="32.85541" lon="10.2508694"><ele>525.4</ele><time>2026-04-26T16:45:36.043Z</time></trkpt><trkpt lat="32.855414" lon="10.2507873"><ele>525.2</ele><time>2026-04-26T16:45:37.053Z</time></trkpt><trkpt lat="32.8554203" lon="10.2507038"><ele>525.0</ele><time>2026-04-26T16:45:38.062Z</time></trkpt><trkpt lat="32.8554296" lon="10.2506108"><ele>525.0</ele><time>2026-04-26T16:45:39.037Z</time></trkpt><trkpt lat="32.8554413" lon="10.2505213"><ele>525.0</ele><time>2026-04-26T16:45:40.048Z</time></trkpt><trkpt lat="32.8554568" lon="10.2504362"><ele>525.0</ele><time>2026-04-26T16:45:41.064Z</time></trkpt><trkpt lat="32.8554743" lon="10.2503519"><ele>525.0</ele><time>2026-04-26T16:45:42.058Z</time></trkpt><trkpt lat="32.8554913" lon="10.2502579"><ele>525.0</ele><time>2026-04-26T16:45:43.059Z</time></trkpt><trkpt lat="32.8555081" lon="10.2501622"><ele>525.0</ele><time>2026-04-26T16:45:44.043Z</time></trkpt><trkpt lat="32.8555201" lon="10.2500664"><ele>525.0</ele><time>2026-04-26T16:45:45.04Z</time></trkpt><trkpt lat="32.8555301" lon="10.2499697"><ele>525.0</ele><time>2026-04-26T16:45:46.037Z</time></trkpt><trkpt lat="32.8555366" lon="10.2498736"><ele>525.0</ele><time>2026-04-26T16:45:47.059Z</time></trkpt><trkpt lat="32.8555441" lon="10.2497765"><ele>525.0</ele><time>2026-04-26T16:45:48.06Z</time></trkpt><trkpt lat="32.8555518" lon="10.2496841"><ele>525.0</ele><time>2026-04-26T16:45:49.05Z</time></trkpt><trkpt lat="32.8555576" lon="10.249595"><ele>525.0</ele><time>2026-04-26T16:45:50.058Z</time></trkpt><trkpt lat="32.8555625" lon="10.2495135"><ele>524.8571428571429</ele><time>2026-04-26T16:45:51.05Z</time></trkpt><trkpt lat="32.8555629" lon="10.2494287"><ele>524.7142857142858</ele><time>2026-04-26T16:45:52.066Z</time></trkpt><trkpt lat="32.855557" lon="10.2493422"><ele>524.5714285714286</ele><time>2026-04-26T16:45:53.05Z</time></trkpt><trkpt lat="32.8555442" lon="10.2492527"><ele>524.4285714285714</ele><time>2026-04-26T16:45:54.07Z</time></trkpt><trkpt lat="32.8555288" lon="10.249158"><ele>524.2857142857143</ele><time>2026-04-26T16:45:55.06Z</time></trkpt><trkpt lat="32.8555092" lon="10.2490733"><ele>524.1428571428571</ele><time>2026-04-26T16:45:56.042Z</time></trkpt><trkpt lat="32.8554914" lon="10.2489954"><ele>524.0</ele><time>2026-04-26T16:45:57.061Z</time></trkpt><trkpt lat="32.8554353" lon="10.248856"><ele>524.0</ele><time>2026-04-26T16:45:59.048Z</time></trkpt><trkpt lat="32.8553942" lon="10.2487934"><ele>524.0</ele><time>2026-04-26T16:46:00.05Z</time></trkpt><trkpt lat="32.85535" lon="10.2487351"><ele>524.0</ele><time>2026-04-26T16:46:01.071Z</time></trkpt><trkpt lat="32.8553013" lon="10.2486756"><ele>524.0</ele><time>2026-04-26T16:46:02.042Z</time></trkpt><trkpt lat="32.8552588" lon="10.2486139"><ele>524.0</ele><time>2026-04-26T16:46:03.043Z</time></trkpt><trkpt lat="32.8552224" lon="10.248545"><ele>524.0</ele><time>2026-04-26T16:46:04.072Z</time></trkpt><trkpt lat="32.8551751" lon="10.2484099"><ele>524.0</ele><time>2026-04-26T16:46:06.047Z</time></trkpt><trkpt lat="32.8551526" lon="10.2482871"><ele>524.0</ele><time>2026-04-26T16:46:08.066Z</time></trkpt><trkpt lat="32.855139" lon="10.2481574"><ele>524.0</ele><time>2026-04-26T16:46:10.065Z</time></trkpt><trkpt lat="32.8551673" lon="10.2480328"><ele>524.0</ele><time>2026-04-26T16:46:12.063Z</time></trkpt><trkpt lat="32.855233" lon="10.2479249"><ele>524.0</ele><time>2026-04-26T16:46:14.074Z</time></trkpt><trkpt lat="32.855277" lon="10.2478709"><ele>524.0</ele><time>2026-04-26T16:46:15.056Z</time></trkpt><trkpt lat="32.8553706" lon="10.2477721"><ele>524.0</ele><time>2026-04-26T16:46:17.06Z</time></trkpt><trkpt lat="32.8554195" lon="10.2477238"><ele>524.0</ele><time>2026-04-26T16:46:18.06Z</time></trkpt><trkpt lat="32.8554853" lon="10.2476099"><ele>524.0</ele><time>2026-04-26T16:46:20.063Z</time></trkpt><trkpt lat="32.8555001" lon="10.2475337"><ele>524.0</ele><time>2026-04-26T16:46:21.045Z</time></trkpt><trkpt lat="32.8554967" lon="10.2474292"><ele>524.0</ele><time>2026-04-26T16:46:22.043Z</time></trkpt><trkpt lat="32.8554818" lon="10.2473161"><ele>524.0</ele><time>2026-04-26T16:46:23.076Z</time></trkpt><trkpt lat="32.8554639" lon="10.2472066"><ele>524.0</ele><time>2026-04-26T16:46:24.059Z</time></trkpt><trkpt lat="32.8554507" lon="10.2470994"><ele>524.0</ele><time>2026-04-26T16:46:25.056Z</time></trkpt><trkpt lat="32.8554486" lon="10.2469906"><ele>524.0</ele><time>2026-04-26T16:46:26.067Z</time></trkpt><trkpt lat="32.8554545" lon="10.2468727"><ele>523.8333333333333</ele><time>2026-04-26T16:46:27.063Z</time></trkpt><trkpt lat="32.8554625" lon="10.2467651"><ele>523.6666666666666</ele><time>2026-04-26T16:46:28.053Z</time></trkpt><trkpt lat="32.8554809" lon="10.2466529"><ele>523.5</ele><time>2026-04-26T16:46:29.064Z</time></trkpt><trkpt lat="32.8554991" lon="10.246551"><ele>523.3333333333334</ele><time>2026-04-26T16:46:30.087Z</time></trkpt><trkpt lat="32.8555187" lon="10.2464523"><ele>523.1666666666667</ele><time>2026-04-26T16:46:31.061Z</time></trkpt><trkpt lat="32.8555295" lon="10.2463535"><ele>523.0</ele><time>2026-04-26T16:46:32.061Z</time></trkpt><trkpt lat="32.8555257" lon="10.2462513"><ele>523.0</ele><time>2026-04-26T16:46:33.049Z</time></trkpt><trkpt lat="32.8555307" lon="10.2461552"><ele>523.0</ele><time>2026-04-26T16:46:34.067Z</time></trkpt><trkpt lat="32.8555366" lon="10.2460609"><ele>523.0</ele><time>2026-04-26T16:46:35.069Z</time></trkpt><trkpt lat="32.8555456" lon="10.2459672"><ele>523.0</ele><time>2026-04-26T16:46:36.069Z</time></trkpt><trkpt lat="32.8555673" lon="10.2458647"><ele>523.0</ele><time>2026-04-26T16:46:37.049Z</time></trkpt><trkpt lat="32.8555927" lon="10.2457658"><ele>523.0</ele><time>2026-04-26T16:46:38.063Z</time></trkpt><trkpt lat="32.8556149" lon="10.2456717"><ele>521.8</ele><time>2026-04-26T16:46:39.042Z</time></trkpt><trkpt lat="32.8556208" lon="10.2455628"><ele>520.5999999999999</ele><time>2026-04-26T16:46:40.073Z</time></trkpt><trkpt lat="32.8556212" lon="10.2454614"><ele>519.4000000000001</ele><time>2026-04-26T16:46:41.063Z</time></trkpt><trkpt lat="32.8556054" lon="10.2453545"><ele>518.2</ele><time>2026-04-26T16:46:42.061Z</time></trkpt><trkpt lat="32.8555933" lon="10.2452469"><ele>517.0</ele><time>2026-04-26T16:46:43.062Z</time></trkpt><trkpt lat="32.8555769" lon="10.2451389"><ele>517.0</ele><time>2026-04-26T16:46:44.06Z</time></trkpt><trkpt lat="32.8555618" lon="10.2450465"><ele>517.0</ele><time>2026-04-26T16:46:45.062Z</time></trkpt><trkpt lat="32.8555529" lon="10.2449613"><ele>517.0</ele><time>2026-04-26T16:46:46.08Z</time></trkpt><trkpt lat="32.855557" lon="10.2448746"><ele>517.0</ele><time>2026-04-26T16:46:47.065Z</time></trkpt><trkpt lat="32.8555705" lon="10.2447921"><ele>517.0</ele><time>2026-04-26T16:46:48.06Z</time></trkpt><trkpt lat="32.855586" lon="10.2447182"><ele>517.0</ele><time>2026-04-26T16:46:49.062Z</time></trkpt><trkpt lat="32.8555972" lon="10.2446294"><ele>517.0</ele><time>2026-04-26T16:46:50.072Z</time></trkpt><trkpt lat="32.8555969" lon="10.2445403"><ele>517.4285714285714</ele><time>2026-04-26T16:46:51.071Z</time></trkpt><trkpt lat="32.8555822" lon="10.2444585"><ele>517.8571428571429</ele><time>2026-04-26T16:46:52.069Z</time></trkpt><trkpt lat="32.8555571" lon="10.2443838"><ele>518.2857142857143</ele><time>2026-04-26T16:46:53.074Z</time></trkpt><trkpt lat="32.8555236" lon="10.2443196"><ele>518.7142857142858</ele><time>2026-04-26T16:46:54.051Z</time></trkpt><trkpt lat="32.8554787" lon="10.244259"><ele>519.1428571428571</ele><time>2026-04-26T16:46:55.052Z</time></trkpt><trkpt lat="32.8554244" lon="10.2442094"><ele>519.5714285714287</ele><time>2026-04-26T16:46:56.042Z</time></trkpt><trkpt lat="32.8553716" lon="10.2441548"><ele>520.0</ele><time>2026-04-26T16:46:57.058Z</time></trkpt><trkpt lat="32.8553278" lon="10.2440986"><ele>520.0000000000001</ele><time>2026-04-26T16:46:58.072Z</time></trkpt><trkpt lat="32.8552935" lon="10.2440327"><ele>520.0</ele><time>2026-04-26T16:46:59.058Z</time></trkpt><trkpt lat="32.855267" lon="10.2439577"><ele>520.0</ele><time>2026-04-26T16:47:00.063Z</time></trkpt><trkpt lat="32.8552445" lon="10.2438778"><ele>520.0</ele><time>2026-04-26T16:47:01.057Z</time></trkpt><trkpt lat="32.8552262" lon="10.2437952"><ele>520.0</ele><time>2026-04-26T16:47:02.067Z</time></trkpt><trkpt lat="32.8552167" lon="10.2437124"><ele>520.0000000000001</ele><time>2026-04-26T16:47:03.056Z</time></trkpt><trkpt lat="32.8552148" lon="10.2436291"><ele>520.0</ele><time>2026-04-26T16:47:04.064Z</time></trkpt><trkpt lat="32.8552289" lon="10.2435425"><ele>520.3333333333334</ele><time>2026-04-26T16:47:05.053Z</time></trkpt><trkpt lat="32.8552447" lon="10.2434521"><ele>520.6666666666667</ele><time>2026-04-26T16:47:06.06Z</time></trkpt><trkpt lat="32.8552588" lon="10.2433552"><ele>521.0</ele><time>2026-04-26T16:47:07.049Z</time></trkpt><trkpt lat="32.8552669" lon="10.2432567"><ele>521.3333333333334</ele><time>2026-04-26T16:47:08.091Z</time></trkpt><trkpt lat="32.8552561" lon="10.2431447"><ele>521.6666666666666</ele><time>2026-04-26T16:47:09.082Z</time></trkpt><trkpt lat="32.8552394" lon="10.2430318"><ele>522.0</ele><time>2026-04-26T16:47:10.092Z</time></trkpt><trkpt lat="32.8552225" lon="10.2429059"><ele>522.0</ele><time>2026-04-26T16:47:11.093Z</time></trkpt><trkpt lat="32.8552068" lon="10.2427834"><ele>522.0</ele><time>2026-04-26T16:47:12.094Z</time></trkpt><trkpt lat="32.8552024" lon="10.2426582"><ele>522.0</ele><time>2026-04-26T16:47:13.093Z</time></trkpt><trkpt lat="32.8551977" lon="10.242531"><ele>522.0</ele><time>2026-04-26T16:47:14.068Z</time></trkpt><trkpt lat="32.8551888" lon="10.2424076"><ele>522.0</ele><time>2026-04-26T16:47:15.035Z</time></trkpt><trkpt lat="32.8551769" lon="10.2422842"><ele>520.25</ele><time>2026-04-26T16:47:16.028Z</time></trkpt><trkpt lat="32.8551616" lon="10.2421678"><ele>518.5</ele><time>2026-04-26T16:47:17.053Z</time></trkpt><trkpt lat="32.8551484" lon="10.2420576"><ele>516.75</ele><time>2026-04-26T16:47:18.04Z</time></trkpt><trkpt lat="32.8551293" lon="10.2419482"><ele>515.0</ele><time>2026-04-26T16:47:19.048Z</time></trkpt><trkpt lat="32.855091" lon="10.2417278"><ele>514.25</ele><time>2026-04-26T16:47:21.069Z</time></trkpt><trkpt lat="32.855058" lon="10.2414323"><ele>513.5</ele><time>2026-04-26T16:47:24.051Z</time></trkpt><trkpt lat="32.8550527" lon="10.2413395"><ele>512.75</ele><time>2026-04-26T16:47:25.035Z</time></trkpt><trkpt lat="32.8550508" lon="10.2412544"><ele>512.0</ele><time>2026-04-26T16:47:26.042Z</time></trkpt><trkpt lat="32.8550636" lon="10.2411654"><ele>512.0</ele><time>2026-04-26T16:47:27.046Z</time></trkpt><trkpt lat="32.8550787" lon="10.2410809"><ele>511.99999999999994</ele><time>2026-04-26T16:47:28.056Z</time></trkpt><trkpt lat="32.8550907" lon="10.2409974"><ele>512.0</ele><time>2026-04-26T16:47:29.037Z</time></trkpt><trkpt lat="32.8550962" lon="10.2409101"><ele>512.0</ele><time>2026-04-26T16:47:30.039Z</time></trkpt><trkpt lat="32.8550886" lon="10.2408214"><ele>511.99999999999994</ele><time>2026-04-26T16:47:31.042Z</time></trkpt><trkpt lat="32.8550758" lon="10.2407311"><ele>512.0</ele><time>2026-04-26T16:47:32.046Z</time></trkpt><trkpt lat="32.8550596" lon="10.2406454"><ele>512.0</ele><time>2026-04-26T16:47:33.057Z</time></trkpt><trkpt lat="32.8550367" lon="10.2405722"><ele>512.4285714285714</ele><time>2026-04-26T16:47:34.061Z</time></trkpt><trkpt lat="32.854992" lon="10.2405021"><ele>512.8571428571428</ele><time>2026-04-26T16:47:35.074Z</time></trkpt><trkpt lat="32.8549412" lon="10.2404501"><ele>513.2857142857142</ele><time>2026-04-26T16:47:36.076Z</time></trkpt><trkpt lat="32.8548834" lon="10.240406"><ele>513.7142857142857</ele><time>2026-04-26T16:47:37.059Z</time></trkpt><trkpt lat="32.8548193" lon="10.2403613"><ele>514.1428571428571</ele><time>2026-04-26T16:47:38.072Z</time></trkpt><trkpt lat="32.854755" lon="10.2403151"><ele>514.5714285714286</ele><time>2026-04-26T16:47:39.05Z</time></trkpt><trkpt lat="32.8547017" lon="10.2402719"><ele>515.0</ele><time>2026-04-26T16:47:40.077Z</time></trkpt><trkpt lat="32.8546311" lon="10.2401932"><ele>515.0</ele><time>2026-04-26T16:47:42.08Z</time></trkpt><trkpt lat="32.8545658" lon="10.2400854"><ele>515.0</ele><time>2026-04-26T16:47:44.066Z</time></trkpt><trkpt lat="32.8545069" lon="10.2400207"><ele>515.0</ele><time>2026-04-26T16:47:45.033Z</time></trkpt><trkpt lat="32.8544405" lon="10.2399605"><ele>515.0</ele><time>2026-04-26T16:47:46.034Z</time></trkpt><trkpt lat="32.8543534" lon="10.2398986"><ele>515.0</ele><time>2026-04-26T16:47:47.08Z</time></trkpt><trkpt lat="32.8542527" lon="10.2398281"><ele>514.25</ele><time>2026-04-26T16:47:48.072Z</time></trkpt><trkpt lat="32.8541507" lon="10.2397559"><ele>513.5</ele><time>2026-04-26T16:47:49.089Z</time></trkpt><trkpt lat="32.8540414" lon="10.2396786"><ele>512.75</ele><time>2026-04-26T16:47:50.076Z</time></trkpt><trkpt lat="32.8539259" lon="10.2395995"><ele>512.0</ele><time>2026-04-26T16:47:51.084Z</time></trkpt><trkpt lat="32.8538101" lon="10.239514"><ele>512.0</ele><time>2026-04-26T16:47:52.085Z</time></trkpt><trkpt lat="32.8536879" lon="10.2394192"><ele>512.0</ele><time>2026-04-26T16:47:53.056Z</time></trkpt><trkpt lat="32.8535754" lon="10.2393109"><ele>512.0</ele><time>2026-04-26T16:47:54.062Z</time></trkpt><trkpt lat="32.8534646" lon="10.2392057"><ele>512.0</ele><time>2026-04-26T16:47:55.037Z</time></trkpt><trkpt lat="32.8533457" lon="10.2390949"><ele>511.66666666666663</ele><time>2026-04-26T16:47:56.042Z</time></trkpt><trkpt lat="32.8532237" lon="10.2389712"><ele>511.33333333333337</ele><time>2026-04-26T16:47:57.048Z</time></trkpt><trkpt lat="32.8530927" lon="10.2388458"><ele>511.0</ele><time>2026-04-26T16:47:58.067Z</time></trkpt><trkpt lat="32.8529561" lon="10.2387161"><ele>509.33333333333337</ele><time>2026-04-26T16:47:59.083Z</time></trkpt><trkpt lat="32.8528124" lon="10.2385827"><ele>507.66666666666663</ele><time>2026-04-26T16:48:00.042Z</time></trkpt><trkpt lat="32.8526693" lon="10.2384479"><ele>506.0</ele><time>2026-04-26T16:48:01.085Z</time></trkpt><trkpt lat="32.8525215" lon="10.2383072"><ele>506.0</ele><time>2026-04-26T16:48:02.069Z</time></trkpt><trkpt lat="32.8523632" lon="10.2381558"><ele>506.0</ele><time>2026-04-26T16:48:03.089Z</time></trkpt><trkpt lat="32.8522081" lon="10.2380117"><ele>506.0</ele><time>2026-04-26T16:48:04.07Z</time></trkpt><trkpt lat="32.852057" lon="10.2378657"><ele>505.66666666666663</ele><time>2026-04-26T16:48:05.056Z</time></trkpt><trkpt lat="32.851908" lon="10.2377214"><ele>505.33333333333337</ele><time>2026-04-26T16:48:06.068Z</time></trkpt><trkpt lat="32.8517593" lon="10.2375773"><ele>505.0</ele><time>2026-04-26T16:48:07.049Z</time></trkpt><trkpt lat="32.8516096" lon="10.2374283"><ele>504.6666666666667</ele><time>2026-04-26T16:48:08.089Z</time></trkpt><trkpt lat="32.8514628" lon="10.2372803"><ele>504.33333333333337</ele><time>2026-04-26T16:48:09.076Z</time></trkpt><trkpt lat="32.8513231" lon="10.237122"><ele>504.0</ele><time>2026-04-26T16:48:10.088Z</time></trkpt><trkpt lat="32.851184" lon="10.2369582"><ele>504.0</ele><time>2026-04-26T16:48:11.096Z</time></trkpt><trkpt lat="32.8510421" lon="10.2367948"><ele>504.0</ele><time>2026-04-26T16:48:12.065Z</time></trkpt><trkpt lat="32.8508989" lon="10.2366276"><ele>504.0</ele><time>2026-04-26T16:48:13.063Z</time></trkpt><trkpt lat="32.8507547" lon="10.2364609"><ele>503.33333333333337</ele><time>2026-04-26T16:48:14.043Z</time></trkpt><trkpt lat="32.8506149" lon="10.2362987"><ele>502.6666666666667</ele><time>2026-04-26T16:48:15.095Z</time></trkpt><trkpt lat="32.8504705" lon="10.2361354"><ele>502.0</ele><time>2026-04-26T16:48:16.048Z</time></trkpt><trkpt lat="32.8503324" lon="10.2359707"><ele>502.0</ele><time>2026-04-26T16:48:17.099Z</time></trkpt><trkpt lat="32.8501917" lon="10.2358045"><ele>502.0</ele><time>2026-04-26T16:48:18.097Z</time></trkpt><trkpt lat="32.8500488" lon="10.2356388"><ele>502.0</ele><time>2026-04-26T16:48:19.051Z</time></trkpt><trkpt lat="32.8499055" lon="10.2354726"><ele>501.6666666666667</ele><time>2026-04-26T16:48:20.067Z</time></trkpt><trkpt lat="32.8497653" lon="10.2353128"><ele>501.33333333333337</ele><time>2026-04-26T16:48:21.04Z</time></trkpt><trkpt lat="32.8496264" lon="10.2351572"><ele>501.0</ele><time>2026-04-26T16:48:22.092Z</time></trkpt><trkpt lat="32.8494876" lon="10.2350025"><ele>501.0</ele><time>2026-04-26T16:48:23.09Z</time></trkpt><trkpt lat="32.8493551" lon="10.2348509"><ele>501.0</ele><time>2026-04-26T16:48:24.052Z</time></trkpt><trkpt lat="32.849225" lon="10.2346929"><ele>501.0</ele><time>2026-04-26T16:48:25.09Z</time></trkpt><trkpt lat="32.8490974" lon="10.2345345"><ele>501.0</ele><time>2026-04-26T16:48:26.086Z</time></trkpt><trkpt lat="32.8489607" lon="10.2343803"><ele>501.0</ele><time>2026-04-26T16:48:27.081Z</time></trkpt><trkpt lat="32.848823" lon="10.2342254"><ele>501.0</ele><time>2026-04-26T16:48:28.089Z</time></trkpt><trkpt lat="32.848681" lon="10.2340658"><ele>501.66666666666663</ele><time>2026-04-26T16:48:29.065Z</time></trkpt><trkpt lat="32.8485396" lon="10.2339092"><ele>502.3333333333333</ele><time>2026-04-26T16:48:30.087Z</time></trkpt><trkpt lat="32.8483985" lon="10.2337484"><ele>503.0</ele><time>2026-04-26T16:48:31.07Z</time></trkpt><trkpt lat="32.8482603" lon="10.233588"><ele>502.3333333333333</ele><time>2026-04-26T16:48:32.093Z</time></trkpt><trkpt lat="32.8481212" lon="10.2334303"><ele>501.66666666666663</ele><time>2026-04-26T16:48:33.1Z</time></trkpt><trkpt lat="32.8479849" lon="10.2332739"><ele>501.0</ele><time>2026-04-26T16:48:34.069Z</time></trkpt><trkpt lat="32.8478504" lon="10.2331139"><ele>501.0</ele><time>2026-04-26T16:48:35.048Z</time></trkpt><trkpt lat="32.8477106" lon="10.2329589"><ele>501.0</ele><time>2026-04-26T16:48:36.064Z</time></trkpt><trkpt lat="32.8475721" lon="10.2328036"><ele>501.0</ele><time>2026-04-26T16:48:37.079Z</time></trkpt><trkpt lat="32.8474379" lon="10.2326504"><ele>499.66666666666663</ele><time>2026-04-26T16:48:38.077Z</time></trkpt><trkpt lat="32.8473068" lon="10.2325027"><ele>498.3333333333333</ele><time>2026-04-26T16:48:39.083Z</time></trkpt><trkpt lat="32.8471769" lon="10.2323549"><ele>497.0</ele><time>2026-04-26T16:48:40.073Z</time></trkpt><trkpt lat="32.8470519" lon="10.2322107"><ele>497.0</ele><time>2026-04-26T16:48:41.079Z</time></trkpt><trkpt lat="32.8469236" lon="10.2320642"><ele>497.0</ele><time>2026-04-26T16:48:42.078Z</time></trkpt><trkpt lat="32.8467977" lon="10.2319219"><ele>497.0</ele><time>2026-04-26T16:48:43.086Z</time></trkpt><trkpt lat="32.8466675" lon="10.2317802"><ele>497.0</ele><time>2026-04-26T16:48:44.08Z</time></trkpt><trkpt lat="32.8465421" lon="10.2316346"><ele>497.0</ele><time>2026-04-26T16:48:45.049Z</time></trkpt><trkpt lat="32.8464118" lon="10.2314859"><ele>497.0</ele><time>2026-04-26T16:48:46.094Z</time></trkpt><trkpt lat="32.8462844" lon="10.2313437"><ele>497.0</ele><time>2026-04-26T16:48:47.077Z</time></trkpt><trkpt lat="32.8461564" lon="10.2311926"><ele>497.0</ele><time>2026-04-26T16:48:48.07Z</time></trkpt><trkpt lat="32.8460272" lon="10.2310472"><ele>497.0</ele><time>2026-04-26T16:48:49.091Z</time></trkpt><trkpt lat="32.8459" lon="10.2309014"><ele>496.3333333333333</ele><time>2026-04-26T16:48:50.083Z</time></trkpt><trkpt lat="32.8457738" lon="10.2307643"><ele>495.66666666666663</ele><time>2026-04-26T16:48:51.057Z</time></trkpt><trkpt lat="32.8456532" lon="10.2306245"><ele>495.0</ele><time>2026-04-26T16:48:52.081Z</time></trkpt><trkpt lat="32.845529" lon="10.2304925"><ele>495.0</ele><time>2026-04-26T16:48:53.08Z</time></trkpt><trkpt lat="32.8454042" lon="10.2303706"><ele>495.0</ele><time>2026-04-26T16:48:54.09Z</time></trkpt><trkpt lat="32.8452566" lon="10.2302532"><ele>495.0</ele><time>2026-04-26T16:48:55.063Z</time></trkpt><trkpt lat="32.8451044" lon="10.2301473"><ele>493.66666666666663</ele><time>2026-04-26T16:48:56.039Z</time></trkpt><trkpt lat="32.8449403" lon="10.2300473"><ele>492.3333333333333</ele><time>2026-04-26T16:48:57.061Z</time></trkpt><trkpt lat="32.8447812" lon="10.2299528"><ele>491.0</ele><time>2026-04-26T16:48:58.068Z</time></trkpt><trkpt lat="32.8446226" lon="10.2298625"><ele>491.3333333333333</ele><time>2026-04-26T16:48:59.083Z</time></trkpt><trkpt lat="32.8444657" lon="10.2297697"><ele>491.66666666666663</ele><time>2026-04-26T16:49:00.075Z</time></trkpt><trkpt lat="32.844305" lon="10.2296755"><ele>492.0</ele><time>2026-04-26T16:49:01.09Z</time></trkpt><trkpt lat="32.8441433" lon="10.2295821"><ele>492.0</ele><time>2026-04-26T16:49:02.083Z</time></trkpt><trkpt lat="32.8439818" lon="10.2294982"><ele>492.0</ele><time>2026-04-26T16:49:03.085Z</time></trkpt><trkpt lat="32.8438122" lon="10.2294278"><ele>492.0</ele><time>2026-04-26T16:49:04.095Z</time></trkpt><trkpt lat="32.8436345" lon="10.2293678"><ele>492.0</ele><time>2026-04-26T16:49:05.082Z</time></trkpt><trkpt lat="32.8434539" lon="10.2293107"><ele>492.0</ele><time>2026-04-26T16:49:06.091Z</time></trkpt><trkpt lat="32.8432745" lon="10.2292576"><ele>492.0</ele><time>2026-04-26T16:49:07.087Z</time></trkpt><trkpt lat="32.8430961" lon="10.2292015"><ele>492.0</ele><time>2026-04-26T16:49:08.099Z</time></trkpt><trkpt lat="32.8429167" lon="10.2291464"><ele>492.0</ele><time>2026-04-26T16:49:09.09Z</time></trkpt><trkpt lat="32.8427406" lon="10.2290931"><ele>492.0</ele><time>2026-04-26T16:49:10.088Z</time></trkpt><trkpt lat="32.8425669" lon="10.2290402"><ele>491.66666666666663</ele><time>2026-04-26T16:49:11.093Z</time></trkpt><trkpt lat="32.8423935" lon="10.2289868"><ele>491.3333333333333</ele><time>2026-04-26T16:49:12.093Z</time></trkpt><trkpt lat="32.8422232" lon="10.2289386"><ele>491.0</ele><time>2026-04-26T16:49:13.05Z</time></trkpt><trkpt lat="32.8420523" lon="10.2288863"><ele>491.0</ele><time>2026-04-26T16:49:14.09Z</time></trkpt><trkpt lat="32.841882" lon="10.2288315"><ele>491.0</ele><time>2026-04-26T16:49:15.084Z</time></trkpt><trkpt lat="32.841714" lon="10.2287783"><ele>491.0</ele><time>2026-04-26T16:49:16.078Z</time></trkpt><trkpt lat="32.8415464" lon="10.2287237"><ele>490.3333333333333</ele><time>2026-04-26T16:49:17.094Z</time></trkpt><trkpt lat="32.8413808" lon="10.2286679"><ele>489.66666666666663</ele><time>2026-04-26T16:49:18.096Z</time></trkpt><trkpt lat="32.8412141" lon="10.2286174"><ele>489.0</ele><time>2026-04-26T16:49:19.086Z</time></trkpt><trkpt lat="32.8410506" lon="10.2285702"><ele>488.33333333333337</ele><time>2026-04-26T16:49:20.089Z</time></trkpt><trkpt lat="32.8408864" lon="10.2285225"><ele>487.6666666666667</ele><time>2026-04-26T16:49:21.088Z</time></trkpt><trkpt lat="32.8407194" lon="10.2284698"><ele>487.0</ele><time>2026-04-26T16:49:22.102Z</time></trkpt><trkpt lat="32.8405535" lon="10.2284216"><ele>487.0</ele><time>2026-04-26T16:49:23.092Z</time></trkpt><trkpt lat="32.8403865" lon="10.2283727"><ele>487.0</ele><time>2026-04-26T16:49:24.09Z</time></trkpt><trkpt lat="32.8402225" lon="10.2283188"><ele>487.0</ele><time>2026-04-26T16:49:25.091Z</time></trkpt><trkpt lat="32.8400588" lon="10.228271"><ele>487.0</ele><time>2026-04-26T16:49:26.069Z</time></trkpt><trkpt lat="32.839895" lon="10.2282224"><ele>487.0</ele><time>2026-04-26T16:49:27.076Z</time></trkpt><trkpt lat="32.8397363" lon="10.2281752"><ele>487.0</ele><time>2026-04-26T16:49:28.1Z</time></trkpt><trkpt lat="32.8395817" lon="10.2281213"><ele>487.0</ele><time>2026-04-26T16:49:29.074Z</time></trkpt><trkpt lat="32.8394335" lon="10.2280435"><ele>487.0</ele><time>2026-04-26T16:49:30.091Z</time></trkpt><trkpt lat="32.839295" lon="10.2279459"><ele>487.0</ele><time>2026-04-26T16:49:31.068Z</time></trkpt><trkpt lat="32.8391591" lon="10.2278163"><ele>485.6666666666667</ele><time>2026-04-26T16:49:32.084Z</time></trkpt><trkpt lat="32.8390268" lon="10.2276835"><ele>484.33333333333337</ele><time>2026-04-26T16:49:33.092Z</time></trkpt><trkpt lat="32.8388914" lon="10.2275501"><ele>483.0</ele><time>2026-04-26T16:49:34.096Z</time></trkpt><trkpt lat="32.838753" lon="10.2274144"><ele>483.33333333333337</ele><time>2026-04-26T16:49:35.088Z</time></trkpt><trkpt lat="32.8386169" lon="10.2272885"><ele>483.6666666666667</ele><time>2026-04-26T16:49:36.086Z</time></trkpt><trkpt lat="32.8384818" lon="10.2271652"><ele>484.0</ele><time>2026-04-26T16:49:37.074Z</time></trkpt><trkpt lat="32.8383471" lon="10.2270549"><ele>484.25</ele><time>2026-04-26T16:49:38.082Z</time></trkpt><trkpt lat="32.8382148" lon="10.2269573"><ele>484.5</ele><time>2026-04-26T16:49:39.088Z</time></trkpt><trkpt lat="32.8380838" lon="10.2268664"><ele>484.75</ele><time>2026-04-26T16:49:40.086Z</time></trkpt><trkpt lat="32.8379629" lon="10.226801"><ele>485.0</ele><time>2026-04-26T16:49:41.074Z</time></trkpt><trkpt lat="32.8378549" lon="10.226754"><ele>485.0</ele><time>2026-04-26T16:49:42.099Z</time></trkpt><trkpt lat="32.8377501" lon="10.2267294"><ele>485.0</ele><time>2026-04-26T16:49:43.094Z</time></trkpt><trkpt lat="32.8376535" lon="10.2267385"><ele>485.0</ele><time>2026-04-26T16:49:44.087Z</time></trkpt><trkpt lat="32.8375546" lon="10.2267782"><ele>485.0</ele><time>2026-04-26T16:49:45.076Z</time></trkpt><trkpt lat="32.837469" lon="10.2268329"><ele>485.0</ele><time>2026-04-26T16:49:46.081Z</time></trkpt><trkpt lat="32.8373858" lon="10.2269093"><ele>485.0</ele><time>2026-04-26T16:49:47.068Z</time></trkpt><trkpt lat="32.8373143" lon="10.2270118"><ele>485.0</ele><time>2026-04-26T16:49:48.083Z</time></trkpt><trkpt lat="32.8372488" lon="10.2271331"><ele>485.0</ele><time>2026-04-26T16:49:49.051Z</time></trkpt><trkpt lat="32.8371868" lon="10.2272684"><ele>485.0</ele><time>2026-04-26T16:49:50.077Z</time></trkpt><trkpt lat="32.8371186" lon="10.2274082"><ele>486.25</ele><time>2026-04-26T16:49:51.076Z</time></trkpt><trkpt lat="32.8370431" lon="10.2275563"><ele>487.5</ele><time>2026-04-26T16:49:52.085Z</time></trkpt><trkpt lat="32.8369663" lon="10.2277034"><ele>488.75</ele><time>2026-04-26T16:49:53.091Z</time></trkpt><trkpt lat="32.836894" lon="10.2278526"><ele>490.0</ele><time>2026-04-26T16:49:54.073Z</time></trkpt><trkpt lat="32.8368175" lon="10.2279997"><ele>490.25</ele><time>2026-04-26T16:49:55.097Z</time></trkpt><trkpt lat="32.8367438" lon="10.2281523"><ele>490.5</ele><time>2026-04-26T16:49:56.086Z</time></trkpt><trkpt lat="32.8366688" lon="10.2283038"><ele>490.75</ele><time>2026-04-26T16:49:57.076Z</time></trkpt><trkpt lat="32.8365896" lon="10.2284556"><ele>491.0</ele><time>2026-04-26T16:49:58.083Z</time></trkpt><trkpt lat="32.8365105" lon="10.2286037"><ele>491.0</ele><time>2026-04-26T16:49:59.074Z</time></trkpt><trkpt lat="32.8364323" lon="10.2287527"><ele>491.0</ele><time>2026-04-26T16:50:00.039Z</time></trkpt><trkpt lat="32.8363597" lon="10.2288961"><ele>491.0</ele><time>2026-04-26T16:50:01.084Z</time></trkpt><trkpt lat="32.8362866" lon="10.229047"><ele>491.0</ele><time>2026-04-26T16:50:02.086Z</time></trkpt><trkpt lat="32.836213" lon="10.2291938"><ele>491.0</ele><time>2026-04-26T16:50:03.095Z</time></trkpt><trkpt lat="32.8361421" lon="10.2293372"><ele>491.0</ele><time>2026-04-26T16:50:04.081Z</time></trkpt><trkpt lat="32.8360697" lon="10.2294808"><ele>491.0</ele><time>2026-04-26T16:50:05.095Z</time></trkpt><trkpt lat="32.835995" lon="10.2296232"><ele>491.0</ele><time>2026-04-26T16:50:06.062Z</time></trkpt><trkpt lat="32.835923" lon="10.2297666"><ele>492.5</ele><time>2026-04-26T16:50:07.094Z</time></trkpt><trkpt lat="32.8358489" lon="10.2299194"><ele>494.0</ele><time>2026-04-26T16:50:08.04Z</time></trkpt><trkpt lat="32.8357852" lon="10.2300823"><ele>495.5</ele><time>2026-04-26T16:50:09.053Z</time></trkpt><trkpt lat="32.8357269" lon="10.2302461"><ele>497.0</ele><time>2026-04-26T16:50:10.089Z</time></trkpt><trkpt lat="32.8356755" lon="10.2304165"><ele>497.0</ele><time>2026-04-26T16:50:11.071Z</time></trkpt><trkpt lat="32.8356277" lon="10.2305892"><ele>497.0</ele><time>2026-04-26T16:50:12.071Z</time></trkpt><trkpt lat="32.8356038" lon="10.2307624"><ele>497.0</ele><time>2026-04-26T16:50:13.093Z</time></trkpt><trkpt lat="32.8355929" lon="10.2309435"><ele>499.0</ele><time>2026-04-26T16:50:14.039Z</time></trkpt><trkpt lat="32.8355829" lon="10.2311287"><ele>501.0</ele><time>2026-04-26T16:50:15.094Z</time></trkpt><trkpt lat="32.8355784" lon="10.231314"><ele>503.0</ele><time>2026-04-26T16:50:16.071Z</time></trkpt><trkpt lat="32.8355752" lon="10.2314984"><ele>503.66666666666663</ele><time>2026-04-26T16:50:17.078Z</time></trkpt><trkpt lat="32.8355898" lon="10.2316803"><ele>504.33333333333337</ele><time>2026-04-26T16:50:18.085Z</time></trkpt><trkpt lat="32.8356215" lon="10.2318556"><ele>505.0</ele><time>2026-04-26T16:50:19.077Z</time></trkpt><trkpt lat="32.8356447" lon="10.2320302"><ele>505.0</ele><time>2026-04-26T16:50:20.088Z</time></trkpt><trkpt lat="32.8356624" lon="10.2322044"><ele>505.0</ele><time>2026-04-26T16:50:21.08Z</time></trkpt><trkpt lat="32.8356642" lon="10.232384"><ele>505.0</ele><time>2026-04-26T16:50:22.079Z</time></trkpt><trkpt lat="32.8356569" lon="10.2325551"><ele>505.0</ele><time>2026-04-26T16:50:23.054Z</time></trkpt><trkpt lat="32.8356461" lon="10.2327173"><ele>505.75</ele><time>2026-04-26T16:50:24.093Z</time></trkpt><trkpt lat="32.8356317" lon="10.2328773"><ele>506.5</ele><time>2026-04-26T16:50:25.07Z</time></trkpt><trkpt lat="32.8356155" lon="10.2330411"><ele>507.25</ele><time>2026-04-26T16:50:26.057Z</time></trkpt><trkpt lat="32.8355956" lon="10.2332052"><ele>508.0</ele><time>2026-04-26T16:50:27.09Z</time></trkpt><trkpt lat="32.8355621" lon="10.2333629"><ele>508.75</ele><time>2026-04-26T16:50:28.09Z</time></trkpt><trkpt lat="32.8355124" lon="10.2335105"><ele>509.5</ele><time>2026-04-26T16:50:29.051Z</time></trkpt><trkpt lat="32.8354549" lon="10.2336468"><ele>510.25</ele><time>2026-04-26T16:50:30.079Z</time></trkpt><trkpt lat="32.835401" lon="10.2337758"><ele>511.0</ele><time>2026-04-26T16:50:31.089Z</time></trkpt><trkpt lat="32.83535" lon="10.2339051"><ele>512.6</ele><time>2026-04-26T16:50:32.086Z</time></trkpt><trkpt lat="32.8353112" lon="10.2340262"><ele>514.2</ele><time>2026-04-26T16:50:33.093Z</time></trkpt><trkpt lat="32.8352823" lon="10.2341411"><ele>515.8</ele><time>2026-04-26T16:50:34.085Z</time></trkpt><trkpt lat="32.8352715" lon="10.2342602"><ele>517.4</ele><time>2026-04-26T16:50:35.093Z</time></trkpt><trkpt lat="32.8352772" lon="10.2343777"><ele>519.0</ele><time>2026-04-26T16:50:36.083Z</time></trkpt><trkpt lat="32.8352928" lon="10.2344834"><ele>519.0</ele><time>2026-04-26T16:50:37.096Z</time></trkpt><trkpt lat="32.8352941" lon="10.234608"><ele>519.0</ele><time>2026-04-26T16:50:38.066Z</time></trkpt><trkpt lat="32.8352881" lon="10.2347521"><ele>519.0</ele><time>2026-04-26T16:50:39.08Z</time></trkpt><trkpt lat="32.8352679" lon="10.2349144"><ele>519.0</ele><time>2026-04-26T16:50:40.086Z</time></trkpt><trkpt lat="32.835226" lon="10.2350865"><ele>517.6666666666666</ele><time>2026-04-26T16:50:41.091Z</time></trkpt><trkpt lat="32.8351553" lon="10.2352592"><ele>516.3333333333333</ele><time>2026-04-26T16:50:42.093Z</time></trkpt><trkpt lat="32.8350692" lon="10.2354307"><ele>515.0</ele><time>2026-04-26T16:50:43.071Z</time></trkpt><trkpt lat="32.8349747" lon="10.2356005"><ele>511.0</ele><time>2026-04-26T16:50:44.082Z</time></trkpt><trkpt lat="32.8348817" lon="10.2357695"><ele>507.0</ele><time>2026-04-26T16:50:45.087Z</time></trkpt><trkpt lat="32.834787" lon="10.2359396"><ele>503.0</ele><time>2026-04-26T16:50:46.091Z</time></trkpt><trkpt lat="32.8346913" lon="10.2361084"><ele>503.0</ele><time>2026-04-26T16:50:47.068Z</time></trkpt><trkpt lat="32.8345995" lon="10.2362758"><ele>503.0</ele><time>2026-04-26T16:50:48.084Z</time></trkpt><trkpt lat="32.834508" lon="10.236443"><ele>503.0</ele><time>2026-04-26T16:50:49.058Z</time></trkpt><trkpt lat="32.8344177" lon="10.23661"><ele>501.3333333333333</ele><time>2026-04-26T16:50:50.085Z</time></trkpt><trkpt lat="32.8343272" lon="10.2367735"><ele>499.66666666666663</ele><time>2026-04-26T16:50:51.089Z</time></trkpt><trkpt lat="32.8342408" lon="10.2369372"><ele>498.0</ele><time>2026-04-26T16:50:52.05Z</time></trkpt><trkpt lat="32.8341589" lon="10.2371134"><ele>497.66666666666663</ele><time>2026-04-26T16:50:53.061Z</time></trkpt><trkpt lat="32.8340908" lon="10.2372841"><ele>497.3333333333333</ele><time>2026-04-26T16:50:54.088Z</time></trkpt><trkpt lat="32.8340255" lon="10.2374594"><ele>497.0</ele><time>2026-04-26T16:50:55.094Z</time></trkpt><trkpt lat="32.8339732" lon="10.2376388"><ele>497.0</ele><time>2026-04-26T16:50:56.1Z</time></trkpt><trkpt lat="32.833925" lon="10.2378189"><ele>497.0</ele><time>2026-04-26T16:50:57.045Z</time></trkpt><trkpt lat="32.8338775" lon="10.2380006"><ele>497.0</ele><time>2026-04-26T16:50:58.086Z</time></trkpt><trkpt lat="32.8338317" lon="10.2381812"><ele>497.0</ele><time>2026-04-26T16:50:59.083Z</time></trkpt><trkpt lat="32.8337874" lon="10.2383677"><ele>497.0</ele><time>2026-04-26T16:51:00.087Z</time></trkpt><trkpt lat="32.833743" lon="10.2385569"><ele>497.0</ele><time>2026-04-26T16:51:01.095Z</time></trkpt><trkpt lat="32.8337002" lon="10.2387474"><ele>497.0</ele><time>2026-04-26T16:51:02.09Z</time></trkpt><trkpt lat="32.8336591" lon="10.2389375"><ele>497.0</ele><time>2026-04-26T16:51:03.084Z</time></trkpt><trkpt lat="32.8336173" lon="10.239123"><ele>497.0</ele><time>2026-04-26T16:51:04.085Z</time></trkpt><trkpt lat="32.8335743" lon="10.2393181"><ele>496.3333333333333</ele><time>2026-04-26T16:51:05.042Z</time></trkpt><trkpt lat="32.8335312" lon="10.2395133"><ele>495.66666666666663</ele><time>2026-04-26T16:51:06.091Z</time></trkpt><trkpt lat="32.8334842" lon="10.2397067"><ele>495.0</ele><time>2026-04-26T16:51:07.091Z</time></trkpt><trkpt lat="32.8334434" lon="10.2398988"><ele>494.0</ele><time>2026-04-26T16:51:08.05Z</time></trkpt><trkpt lat="32.8334091" lon="10.2400978"><ele>493.0</ele><time>2026-04-26T16:51:09.062Z</time></trkpt><trkpt lat="32.8333765" lon="10.2402928"><ele>492.0</ele><time>2026-04-26T16:51:10.08Z</time></trkpt><trkpt lat="32.8333484" lon="10.2404878"><ele>490.66666666666663</ele><time>2026-04-26T16:51:11.09Z</time></trkpt><trkpt lat="32.8333225" lon="10.2406806"><ele>489.3333333333333</ele><time>2026-04-26T16:51:12.071Z</time></trkpt><trkpt lat="32.8333002" lon="10.2408778"><ele>488.0</ele><time>2026-04-26T16:51:13.094Z</time></trkpt><trkpt lat="32.8332817" lon="10.2410691"><ele>488.0</ele><time>2026-04-26T16:51:14.085Z</time></trkpt><trkpt lat="32.8332617" lon="10.2412545"><ele>488.0</ele><time>2026-04-26T16:51:15.101Z</time></trkpt><trkpt lat="32.8332402" lon="10.241433"><ele>488.0</ele><time>2026-04-26T16:51:16.099Z</time></trkpt><trkpt lat="32.8332229" lon="10.2416058"><ele>488.25</ele><time>2026-04-26T16:51:17.102Z</time></trkpt><trkpt lat="32.8332075" lon="10.2417715"><ele>488.5</ele><time>2026-04-26T16:51:18.097Z</time></trkpt><trkpt lat="32.8331879" lon="10.2419373"><ele>488.75</ele><time>2026-04-26T16:51:19.045Z</time></trkpt><trkpt lat="32.8331691" lon="10.2421058"><ele>489.0</ele><time>2026-04-26T16:51:20.067Z</time></trkpt><trkpt lat="32.8331593" lon="10.242275"><ele>488.66666666666663</ele><time>2026-04-26T16:51:21.067Z</time></trkpt><trkpt lat="32.8331702" lon="10.2424545"><ele>488.3333333333333</ele><time>2026-04-26T16:51:22.033Z</time></trkpt><trkpt lat="32.8332032" lon="10.2426323"><ele>488.0</ele><time>2026-04-26T16:51:23.055Z</time></trkpt><trkpt lat="32.8332536" lon="10.2428118"><ele>488.0</ele><time>2026-04-26T16:51:24.04Z</time></trkpt><trkpt lat="32.8333134" lon="10.2429864"><ele>488.0</ele><time>2026-04-26T16:51:25.037Z</time></trkpt><trkpt lat="32.8333788" lon="10.2431642"><ele>488.0</ele><time>2026-04-26T16:51:26.032Z</time></trkpt><trkpt lat="32.8334436" lon="10.2433426"><ele>488.3333333333333</ele><time>2026-04-26T16:51:27.056Z</time></trkpt><trkpt lat="32.8335082" lon="10.2435242"><ele>488.66666666666663</ele><time>2026-04-26T16:51:28.035Z</time></trkpt><trkpt lat="32.8335727" lon="10.243703"><ele>489.0</ele><time>2026-04-26T16:51:29.057Z</time></trkpt><trkpt lat="32.8336379" lon="10.2438774"><ele>488.66666666666663</ele><time>2026-04-26T16:51:30.041Z</time></trkpt><trkpt lat="32.8337028" lon="10.2440559"><ele>488.3333333333333</ele><time>2026-04-26T16:51:31.055Z</time></trkpt><trkpt lat="32.833766" lon="10.2442305"><ele>488.0</ele><time>2026-04-26T16:51:32.062Z</time></trkpt><trkpt lat="32.8338253" lon="10.2444033"><ele>488.0</ele><time>2026-04-26T16:51:33.063Z</time></trkpt><trkpt lat="32.833883" lon="10.2445697"><ele>488.0</ele><time>2026-04-26T16:51:34.048Z</time></trkpt><trkpt lat="32.833945" lon="10.2447278"><ele>488.0</ele><time>2026-04-26T16:51:35.061Z</time></trkpt><trkpt lat="32.8340065" lon="10.2448721"><ele>488.0</ele><time>2026-04-26T16:51:36.056Z</time></trkpt><trkpt lat="32.8340859" lon="10.245005"><ele>488.25</ele><time>2026-04-26T16:51:37.056Z</time></trkpt><trkpt lat="32.8341771" lon="10.2451345"><ele>488.5</ele><time>2026-04-26T16:51:38.039Z</time></trkpt><trkpt lat="32.834264" lon="10.2452551"><ele>488.75</ele><time>2026-04-26T16:51:39.029Z</time></trkpt><trkpt lat="32.8343431" lon="10.2453709"><ele>489.0</ele><time>2026-04-26T16:51:40.087Z</time></trkpt><trkpt lat="32.8344139" lon="10.2454926"><ele>488.5</ele><time>2026-04-26T16:51:41.079Z</time></trkpt><trkpt lat="32.8344586" lon="10.2456324"><ele>488.0</ele><time>2026-04-26T16:51:42.054Z</time></trkpt><trkpt lat="32.8344826" lon="10.2457821"><ele>487.5</ele><time>2026-04-26T16:51:43.074Z</time></trkpt><trkpt lat="32.83449" lon="10.2459285"><ele>487.0</ele><time>2026-04-26T16:51:44.045Z</time></trkpt><trkpt lat="32.8344822" lon="10.246073"><ele>487.0</ele><time>2026-04-26T16:51:45.038Z</time></trkpt><trkpt lat="32.8344851" lon="10.2462057"><ele>487.0</ele><time>2026-04-26T16:51:46.03Z</time></trkpt><trkpt lat="32.8345096" lon="10.2463362"><ele>487.0</ele><time>2026-04-26T16:51:47.027Z</time></trkpt><trkpt lat="32.8345667" lon="10.2464701"><ele>487.0</ele><time>2026-04-26T16:51:48.054Z</time></trkpt><trkpt lat="32.8346453" lon="10.2465838"><ele>486.0</ele><time>2026-04-26T16:51:49.032Z</time></trkpt><trkpt lat="32.8347364" lon="10.246691"><ele>485.0</ele><time>2026-04-26T16:51:50.035Z</time></trkpt><trkpt lat="32.8348307" lon="10.2467947"><ele>484.0</ele><time>2026-04-26T16:51:51.05Z</time></trkpt><trkpt lat="32.83491" lon="10.2468935"><ele>483.0</ele><time>2026-04-26T16:51:52.055Z</time></trkpt><trkpt lat="32.834977" lon="10.247006"><ele>483.0</ele><time>2026-04-26T16:51:53.037Z</time></trkpt><trkpt lat="32.8350234" lon="10.2471303"><ele>483.0</ele><time>2026-04-26T16:51:54.041Z</time></trkpt><trkpt lat="32.8350285" lon="10.2472681"><ele>483.0</ele><time>2026-04-26T16:51:55.042Z</time></trkpt><trkpt lat="32.8350114" lon="10.2474162"><ele>483.0</ele><time>2026-04-26T16:51:56.048Z</time></trkpt><trkpt lat="32.8349757" lon="10.2475717"><ele>481.5</ele><time>2026-04-26T16:51:57.059Z</time></trkpt><trkpt lat="32.834938" lon="10.247731"><ele>480.0</ele><time>2026-04-26T16:51:58.057Z</time></trkpt><trkpt lat="32.8349044" lon="10.247898"><ele>478.5</ele><time>2026-04-26T16:51:59.064Z</time></trkpt><trkpt lat="32.8348855" lon="10.2480623"><ele>477.0</ele><time>2026-04-26T16:52:00.064Z</time></trkpt><trkpt lat="32.8348857" lon="10.2482312"><ele>476.75</ele><time>2026-04-26T16:52:01.05Z</time></trkpt><trkpt lat="32.8349035" lon="10.2483903"><ele>476.5</ele><time>2026-04-26T16:52:02.054Z</time></trkpt><trkpt lat="32.8349245" lon="10.2485556"><ele>476.25</ele><time>2026-04-26T16:52:03.055Z</time></trkpt><trkpt lat="32.8349738" lon="10.2487232"><ele>476.0</ele><time>2026-04-26T16:52:04.063Z</time></trkpt><trkpt lat="32.835052" lon="10.2488899"><ele>478.0</ele><time>2026-04-26T16:52:05.053Z</time></trkpt><trkpt lat="32.8351455" lon="10.249043"><ele>480.0</ele><time>2026-04-26T16:52:06.062Z</time></trkpt><trkpt lat="32.8352492" lon="10.2491874"><ele>482.0</ele><time>2026-04-26T16:52:07.071Z</time></trkpt><trkpt lat="32.8353564" lon="10.2493298"><ele>482.0</ele><time>2026-04-26T16:52:08.044Z</time></trkpt><trkpt lat="32.8354549" lon="10.2494624"><ele>482.0</ele><time>2026-04-26T16:52:09.084Z</time></trkpt><trkpt lat="32.835558" lon="10.2495872"><ele>482.0</ele><time>2026-04-26T16:52:10.098Z</time></trkpt><trkpt lat="32.8356587" lon="10.2497162"><ele>482.0</ele><time>2026-04-26T16:52:11.083Z</time></trkpt><trkpt lat="32.8357489" lon="10.2498549"><ele>480.0</ele><time>2026-04-26T16:52:12.08Z</time></trkpt><trkpt lat="32.8358359" lon="10.250004"><ele>478.0</ele><time>2026-04-26T16:52:13.086Z</time></trkpt><trkpt lat="32.8359188" lon="10.2501609"><ele>476.0</ele><time>2026-04-26T16:52:14.039Z</time></trkpt><trkpt lat="32.8360031" lon="10.2503267"><ele>476.0</ele><time>2026-04-26T16:52:15.076Z</time></trkpt><trkpt lat="32.8360856" lon="10.2504834"><ele>476.0</ele><time>2026-04-26T16:52:16.085Z</time></trkpt><trkpt lat="32.836166" lon="10.2506373"><ele>476.0</ele><time>2026-04-26T16:52:17.082Z</time></trkpt><trkpt lat="32.8362492" lon="10.2507905"><ele>474.75</ele><time>2026-04-26T16:52:18.037Z</time></trkpt><trkpt lat="32.8363198" lon="10.2509431"><ele>473.5</ele><time>2026-04-26T16:52:19.058Z</time></trkpt><trkpt lat="32.8363629" lon="10.2511087"><ele>472.25</ele><time>2026-04-26T16:52:20.039Z</time></trkpt><trkpt lat="32.836391" lon="10.2512816"><ele>471.0</ele><time>2026-04-26T16:52:21.052Z</time></trkpt><trkpt lat="32.8363954" lon="10.25146"><ele>471.0</ele><time>2026-04-26T16:52:22.038Z</time></trkpt><trkpt lat="32.8363906" lon="10.2516364"><ele>471.0</ele><time>2026-04-26T16:52:23.034Z</time></trkpt><trkpt lat="32.8363952" lon="10.2518059"><ele>471.0</ele><time>2026-04-26T16:52:24.041Z</time></trkpt><trkpt lat="32.8364049" lon="10.2519918"><ele>471.0</ele><time>2026-04-26T16:52:25.046Z</time></trkpt><trkpt lat="32.8364293" lon="10.2521764"><ele>470.66666666666663</ele><time>2026-04-26T16:52:26.056Z</time></trkpt><trkpt lat="32.8364641" lon="10.2523654"><ele>470.3333333333333</ele><time>2026-04-26T16:52:27.094Z</time></trkpt><trkpt lat="32.8364975" lon="10.2525435"><ele>470.0</ele><time>2026-04-26T16:52:28.078Z</time></trkpt><trkpt lat="32.83653" lon="10.2527216"><ele>470.0</ele><time>2026-04-26T16:52:29.064Z</time></trkpt><trkpt lat="32.836567" lon="10.2528932"><ele>470.0</ele><time>2026-04-26T16:52:30.089Z</time></trkpt><trkpt lat="32.8366105" lon="10.2530714"><ele>470.0</ele><time>2026-04-26T16:52:31.084Z</time></trkpt><trkpt lat="32.8366797" lon="10.253236"><ele>469.66666666666663</ele><time>2026-04-26T16:52:32.092Z</time></trkpt><trkpt lat="32.8367651" lon="10.2533926"><ele>469.33333333333337</ele><time>2026-04-26T16:52:33.071Z</time></trkpt><trkpt lat="32.8368567" lon="10.2535487"><ele>469.0</ele><time>2026-04-26T16:52:34.08Z</time></trkpt><trkpt lat="32.8369489" lon="10.2536977"><ele>469.5</ele><time>2026-04-26T16:52:35.034Z</time></trkpt><trkpt lat="32.8370332" lon="10.2538482"><ele>470.0</ele><time>2026-04-26T16:52:36.036Z</time></trkpt><trkpt lat="32.8371147" lon="10.2539878"><ele>470.5</ele><time>2026-04-26T16:52:37.091Z</time></trkpt><trkpt lat="32.8371952" lon="10.2541195"><ele>471.0</ele><time>2026-04-26T16:52:38.078Z</time></trkpt><trkpt lat="32.8372836" lon="10.2542469"><ele>471.0</ele><time>2026-04-26T16:52:39.081Z</time></trkpt><trkpt lat="32.8373845" lon="10.2543698"><ele>471.0</ele><time>2026-04-26T16:52:40.04Z</time></trkpt><trkpt lat="32.837489" lon="10.2544821"><ele>471.0</ele><time>2026-04-26T16:52:41.092Z</time></trkpt><trkpt lat="32.8376072" lon="10.2545845"><ele>471.0</ele><time>2026-04-26T16:52:42.104Z</time></trkpt><trkpt lat="32.8377252" lon="10.2546987"><ele>469.0</ele><time>2026-04-26T16:52:43.091Z</time></trkpt><trkpt lat="32.8378325" lon="10.254831"><ele>467.0</ele><time>2026-04-26T16:52:44.079Z</time></trkpt><trkpt lat="32.8379312" lon="10.254966"><ele>465.0</ele><time>2026-04-26T16:52:45.079Z</time></trkpt><trkpt lat="32.8380291" lon="10.2551084"><ele>465.0</ele><time>2026-04-26T16:52:46.094Z</time></trkpt><trkpt lat="32.8381272" lon="10.2552532"><ele>465.0</ele><time>2026-04-26T16:52:47.062Z</time></trkpt><trkpt lat="32.8382245" lon="10.2553954"><ele>465.0</ele><time>2026-04-26T16:52:48.079Z</time></trkpt><trkpt lat="32.8383115" lon="10.2555403"><ele>464.75</ele><time>2026-04-26T16:52:49.076Z</time></trkpt><trkpt lat="32.8383895" lon="10.2556884"><ele>464.5</ele><time>2026-04-26T16:52:50.051Z</time></trkpt><trkpt lat="32.8384594" lon="10.2558373"><ele>464.25</ele><time>2026-04-26T16:52:51.067Z</time></trkpt><trkpt lat="32.8385217" lon="10.2559913"><ele>464.0</ele><time>2026-04-26T16:52:52.064Z</time></trkpt><trkpt lat="32.8385846" lon="10.2561419"><ele>464.0</ele><time>2026-04-26T16:52:53.045Z</time></trkpt><trkpt lat="32.8386535" lon="10.2562947"><ele>464.0</ele><time>2026-04-26T16:52:54.05Z</time></trkpt><trkpt lat="32.8387147" lon="10.2564473"><ele>464.0</ele><time>2026-04-26T16:52:55.045Z</time></trkpt><trkpt lat="32.8387809" lon="10.2566009"><ele>464.0</ele><time>2026-04-26T16:52:56.081Z</time></trkpt><trkpt lat="32.8388523" lon="10.2567513"><ele>462.66666666666663</ele><time>2026-04-26T16:52:57.072Z</time></trkpt><trkpt lat="32.8389258" lon="10.2569035"><ele>461.33333333333337</ele><time>2026-04-26T16:52:58.101Z</time></trkpt><trkpt lat="32.8389996" lon="10.2570638"><ele>460.0</ele><time>2026-04-26T16:52:59.079Z</time></trkpt><trkpt lat="32.8390722" lon="10.2572354"><ele>459.6666666666667</ele><time>2026-04-26T16:53:00.066Z</time></trkpt><trkpt lat="32.8391463" lon="10.2574108"><ele>459.33333333333337</ele><time>2026-04-26T16:53:01.058Z</time></trkpt><trkpt lat="32.8392167" lon="10.2575843"><ele>459.0</ele><time>2026-04-26T16:53:02.06Z</time></trkpt><trkpt lat="32.8392941" lon="10.2577526"><ele>459.33333333333337</ele><time>2026-04-26T16:53:03.077Z</time></trkpt><trkpt lat="32.8393701" lon="10.2579213"><ele>459.6666666666667</ele><time>2026-04-26T16:53:04.06Z</time></trkpt><trkpt lat="32.8394457" lon="10.2580968"><ele>460.0</ele><time>2026-04-26T16:53:05.078Z</time></trkpt><trkpt lat="32.8395177" lon="10.2582669"><ele>460.0</ele><time>2026-04-26T16:53:06.072Z</time></trkpt><trkpt lat="32.8395903" lon="10.25844"><ele>460.0</ele><time>2026-04-26T16:53:07.077Z</time></trkpt><trkpt lat="32.8396671" lon="10.258605"><ele>460.0</ele><time>2026-04-26T16:53:08.081Z</time></trkpt><trkpt lat="32.8397496" lon="10.2587638"><ele>460.0</ele><time>2026-04-26T16:53:09.049Z</time></trkpt><trkpt lat="32.839846" lon="10.258913"><ele>460.0</ele><time>2026-04-26T16:53:10.089Z</time></trkpt><trkpt lat="32.8399479" lon="10.2590558"><ele>460.0</ele><time>2026-04-26T16:53:11.074Z</time></trkpt><trkpt lat="32.8400604" lon="10.2591943"><ele>458.6666666666667</ele><time>2026-04-26T16:53:12.059Z</time></trkpt><trkpt lat="32.8401804" lon="10.2593305"><ele>457.33333333333337</ele><time>2026-04-26T16:53:13.077Z</time></trkpt><trkpt lat="32.840307" lon="10.2594606"><ele>456.0</ele><time>2026-04-26T16:53:14.095Z</time></trkpt><trkpt lat="32.8404376" lon="10.259596"><ele>456.0</ele><time>2026-04-26T16:53:15.096Z</time></trkpt><trkpt lat="32.8405702" lon="10.2597378"><ele>456.0</ele><time>2026-04-26T16:53:16.085Z</time></trkpt><trkpt lat="32.8406988" lon="10.259883"><ele>456.0</ele><time>2026-04-26T16:53:17.085Z</time></trkpt><trkpt lat="32.8408268" lon="10.2600291"><ele>455.0</ele><time>2026-04-26T16:53:18.094Z</time></trkpt><trkpt lat="32.840956" lon="10.2601876"><ele>454.0</ele><time>2026-04-26T16:53:19.056Z</time></trkpt><trkpt lat="32.8410803" lon="10.2603551"><ele>453.0</ele><time>2026-04-26T16:53:20.088Z</time></trkpt><trkpt lat="32.8412053" lon="10.2605212"><ele>452.33333333333337</ele><time>2026-04-26T16:53:21.074Z</time></trkpt><trkpt lat="32.8413291" lon="10.2606865"><ele>451.6666666666667</ele><time>2026-04-26T16:53:22.082Z</time></trkpt><trkpt lat="32.8414444" lon="10.2608458"><ele>451.0</ele><time>2026-04-26T16:53:23.026Z</time></trkpt><trkpt lat="32.8415594" lon="10.2610027"><ele>451.0</ele><time>2026-04-26T16:53:24.059Z</time></trkpt><trkpt lat="32.8416643" lon="10.2611571"><ele>451.0</ele><time>2026-04-26T16:53:25.093Z</time></trkpt><trkpt lat="32.8417615" lon="10.261317"><ele>451.0</ele><time>2026-04-26T16:53:26.068Z</time></trkpt><trkpt lat="32.8418399" lon="10.2614875"><ele>450.6666666666667</ele><time>2026-04-26T16:53:27.082Z</time></trkpt><trkpt lat="32.8419053" lon="10.2616771"><ele>450.33333333333337</ele><time>2026-04-26T16:53:28.083Z</time></trkpt><trkpt lat="32.8419659" lon="10.261876"><ele>450.0</ele><time>2026-04-26T16:53:29.093Z</time></trkpt><trkpt lat="32.8420295" lon="10.2620684"><ele>450.0</ele><time>2026-04-26T16:53:30.083Z</time></trkpt><trkpt lat="32.8420949" lon="10.2622614"><ele>450.0</ele><time>2026-04-26T16:53:31.09Z</time></trkpt><trkpt lat="32.8421612" lon="10.2624574"><ele>450.0</ele><time>2026-04-26T16:53:32.078Z</time></trkpt><trkpt lat="32.8422309" lon="10.2626479"><ele>450.0</ele><time>2026-04-26T16:53:33.099Z</time></trkpt><trkpt lat="32.8423054" lon="10.2628401"><ele>450.0</ele><time>2026-04-26T16:53:34.07Z</time></trkpt><trkpt lat="32.8423901" lon="10.2630323"><ele>450.0</ele><time>2026-04-26T16:53:35.095Z</time></trkpt><trkpt lat="32.8424735" lon="10.2632208"><ele>450.33333333333337</ele><time>2026-04-26T16:53:36.075Z</time></trkpt><trkpt lat="32.8425388" lon="10.2634106"><ele>450.6666666666667</ele><time>2026-04-26T16:53:37.079Z</time></trkpt><trkpt lat="32.8425966" lon="10.2636076"><ele>451.0</ele><time>2026-04-26T16:53:38.071Z</time></trkpt><trkpt lat="32.8426481" lon="10.2638109"><ele>448.0</ele><time>2026-04-26T16:53:39.085Z</time></trkpt><trkpt lat="32.8426951" lon="10.2640232"><ele>445.0</ele><time>2026-04-26T16:53:40.064Z</time></trkpt><trkpt lat="32.8427418" lon="10.2642329"><ele>442.0</ele><time>2026-04-26T16:53:41.054Z</time></trkpt><trkpt lat="32.8427908" lon="10.2644415"><ele>442.0</ele><time>2026-04-26T16:53:42.063Z</time></trkpt><trkpt lat="32.8428412" lon="10.2646485"><ele>442.0</ele><time>2026-04-26T16:53:43.081Z</time></trkpt><trkpt lat="32.8428839" lon="10.264853"><ele>442.0</ele><time>2026-04-26T16:53:44.082Z</time></trkpt><trkpt lat="32.842932" lon="10.2650483"><ele>444.0</ele><time>2026-04-26T16:53:45.081Z</time></trkpt><trkpt lat="32.842981" lon="10.2652331"><ele>446.0</ele><time>2026-04-26T16:53:46.084Z</time></trkpt><trkpt lat="32.8430341" lon="10.2654179"><ele>448.0</ele><time>2026-04-26T16:53:47.078Z</time></trkpt><trkpt lat="32.8430912" lon="10.2655984"><ele>449.6666666666667</ele><time>2026-04-26T16:53:48.08Z</time></trkpt><trkpt lat="32.8431474" lon="10.2657749"><ele>451.33333333333337</ele><time>2026-04-26T16:53:49.076Z</time></trkpt><trkpt lat="32.8431942" lon="10.2659538"><ele>453.0</ele><time>2026-04-26T16:53:50.078Z</time></trkpt><trkpt lat="32.843237" lon="10.2661229"><ele>453.0</ele><time>2026-04-26T16:53:51.069Z</time></trkpt><trkpt lat="32.843263" lon="10.2662838"><ele>453.0</ele><time>2026-04-26T16:53:52.079Z</time></trkpt><trkpt lat="32.84328" lon="10.2664372"><ele>453.0</ele><time>2026-04-26T16:53:53.056Z</time></trkpt><trkpt lat="32.8432914" lon="10.266584"><ele>453.0</ele><time>2026-04-26T16:53:54.076Z</time></trkpt><trkpt lat="32.8433014" lon="10.2667256"><ele>453.0</ele><time>2026-04-26T16:53:55.029Z</time></trkpt><trkpt lat="32.8433179" lon="10.2668616"><ele>453.0</ele><time>2026-04-26T16:53:56.035Z</time></trkpt><trkpt lat="32.843335" lon="10.2669991"><ele>453.0</ele><time>2026-04-26T16:53:57.05Z</time></trkpt><trkpt lat="32.8433543" lon="10.2671325"><ele>453.0</ele><time>2026-04-26T16:53:58.032Z</time></trkpt><trkpt lat="32.8433719" lon="10.2672668"><ele>452.5</ele><time>2026-04-26T16:53:59.063Z</time></trkpt><trkpt lat="32.8433915" lon="10.2673985"><ele>452.0</ele><time>2026-04-26T16:54:00.051Z</time></trkpt><trkpt lat="32.8434154" lon="10.2675294"><ele>451.5</ele><time>2026-04-26T16:54:01.095Z</time></trkpt><trkpt lat="32.8434447" lon="10.2676611"><ele>451.0</ele><time>2026-04-26T16:54:02.059Z</time></trkpt><trkpt lat="32.8434796" lon="10.2677882"><ele>451.0</ele><time>2026-04-26T16:54:03.067Z</time></trkpt><trkpt lat="32.8435225" lon="10.267918"><ele>451.0</ele><time>2026-04-26T16:54:04.074Z</time></trkpt><trkpt lat="32.8435685" lon="10.2680446"><ele>451.0</ele><time>2026-04-26T16:54:05.087Z</time></trkpt><trkpt lat="32.8436149" lon="10.268167"><ele>451.0</ele><time>2026-04-26T16:54:06.093Z</time></trkpt><trkpt lat="32.8436597" lon="10.2682944"><ele>449.75</ele><time>2026-04-26T16:54:07.057Z</time></trkpt><trkpt lat="32.8437071" lon="10.2684201"><ele>448.5</ele><time>2026-04-26T16:54:08.034Z</time></trkpt><trkpt lat="32.8437516" lon="10.2685469"><ele>447.25</ele><time>2026-04-26T16:54:09.044Z</time></trkpt><trkpt lat="32.8437925" lon="10.2686779"><ele>446.0</ele><time>2026-04-26T16:54:10.034Z</time></trkpt><trkpt lat="32.843959" lon="10.2691551"><ele>441.5</ele><time>2026-04-26T16:54:13.105Z</time></trkpt><trkpt lat="32.8441009" lon="10.2696244"><ele>437.0</ele><time>2026-04-26T16:54:16.044Z</time></trkpt><trkpt lat="32.8441531" lon="10.2698002"><ele>436.25</ele><time>2026-04-26T16:54:17.038Z</time></trkpt><trkpt lat="32.844206" lon="10.2699657"><ele>435.5</ele><time>2026-04-26T16:54:18.042Z</time></trkpt><trkpt lat="32.8442557" lon="10.2701301"><ele>434.75</ele><time>2026-04-26T16:54:19.062Z</time></trkpt><trkpt lat="32.8443072" lon="10.2702895"><ele>434.0</ele><time>2026-04-26T16:54:20.085Z</time></trkpt><trkpt lat="32.844357" lon="10.2704493"><ele>434.0</ele><time>2026-04-26T16:54:21.04Z</time></trkpt><trkpt lat="32.8444073" lon="10.270601"><ele>434.0</ele><time>2026-04-26T16:54:22.046Z</time></trkpt><trkpt lat="32.8444551" lon="10.2707507"><ele>434.0</ele><time>2026-04-26T16:54:23.046Z</time></trkpt><trkpt lat="32.8445109" lon="10.2709118"><ele>434.0</ele><time>2026-04-26T16:54:24.04Z</time></trkpt><trkpt lat="32.8445681" lon="10.27109"><ele>432.66666666666663</ele><time>2026-04-26T16:54:25.028Z</time></trkpt><trkpt lat="32.8446278" lon="10.2713014"><ele>431.33333333333337</ele><time>2026-04-26T16:54:26.025Z</time></trkpt><trkpt lat="32.8446778" lon="10.2715391"><ele>430.0</ele><time>2026-04-26T16:54:27.037Z</time></trkpt><trkpt lat="32.8447282" lon="10.2717966"><ele>430.0</ele><time>2026-04-26T16:54:28.033Z</time></trkpt><trkpt lat="32.8447752" lon="10.2721077"><ele>430.0</ele><time>2026-04-26T16:54:29.037Z</time></trkpt><trkpt lat="32.8448273" lon="10.2724569"><ele>428.5</ele><time>2026-04-26T16:54:30.028Z</time></trkpt><trkpt lat="32.8448723" lon="10.2728131"><ele>427.0</ele><time>2026-04-26T16:54:31.041Z</time></trkpt><trkpt lat="32.8449226" lon="10.2731564"><ele>425.5</ele><time>2026-04-26T16:54:32.033Z</time></trkpt><trkpt lat="32.8449731" lon="10.2734768"><ele>424.0</ele><time>2026-04-26T16:54:33.04Z</time></trkpt><trkpt lat="32.8450121" lon="10.2737742"><ele>423.0</ele><time>2026-04-26T16:54:34.041Z</time></trkpt><trkpt lat="32.8450503" lon="10.2740414"><ele>422.0</ele><time>2026-04-26T16:54:35.034Z</time></trkpt><trkpt lat="32.8450876" lon="10.2742953"><ele>421.0</ele><time>2026-04-26T16:54:36.037Z</time></trkpt><trkpt lat="32.8451244" lon="10.2745181"><ele>420.6666666666667</ele><time>2026-04-26T16:54:37.042Z</time></trkpt><trkpt lat="32.8451551" lon="10.2747195"><ele>420.33333333333337</ele><time>2026-04-26T16:54:38.034Z</time></trkpt><trkpt lat="32.8451846" lon="10.2748986"><ele>420.0</ele><time>2026-04-26T16:54:39.037Z</time></trkpt><trkpt lat="32.845212" lon="10.2750718"><ele>419.75</ele><time>2026-04-26T16:54:40.037Z</time></trkpt><trkpt lat="32.8452355" lon="10.2752407"><ele>419.5</ele><time>2026-04-26T16:54:41.034Z</time></trkpt><trkpt lat="32.8452588" lon="10.2753948"><ele>419.25</ele><time>2026-04-26T16:54:42.036Z</time></trkpt><trkpt lat="32.845282" lon="10.2755323"><ele>419.0</ele><time>2026-04-26T16:54:43.038Z</time></trkpt><trkpt lat="32.8453063" lon="10.2756696"><ele>419.0</ele><time>2026-04-26T16:54:44.043Z</time></trkpt><trkpt lat="32.8453258" lon="10.2757995"><ele>419.0</ele><time>2026-04-26T16:54:45.032Z</time></trkpt><trkpt lat="32.8453421" lon="10.275926"><ele>419.0</ele><time>2026-04-26T16:54:46.035Z</time></trkpt><trkpt lat="32.8453593" lon="10.2760423"><ele>419.0</ele><time>2026-04-26T16:54:47.047Z</time></trkpt><trkpt lat="32.8453759" lon="10.2761486"><ele>419.0</ele><time>2026-04-26T16:54:48.039Z</time></trkpt><trkpt lat="32.8453935" lon="10.2762503"><ele>418.99999999999994</ele><time>2026-04-26T16:54:49.039Z</time></trkpt><trkpt lat="32.8454084" lon="10.2763572"><ele>419.0</ele><time>2026-04-26T16:54:50.048Z</time></trkpt><trkpt lat="32.8454254" lon="10.2764564"><ele>419.0</ele><time>2026-04-26T16:54:51.047Z</time></trkpt><trkpt lat="32.8454378" lon="10.2765595"><ele>419.0</ele><time>2026-04-26T16:54:52.05Z</time></trkpt><trkpt lat="32.8454551" lon="10.2766616"><ele>418.99999999999994</ele><time>2026-04-26T16:54:53.033Z</time></trkpt><trkpt lat="32.8454683" lon="10.2767584"><ele>419.0</ele><time>2026-04-26T16:54:54.042Z</time></trkpt><trkpt lat="32.8454814" lon="10.2768534"><ele>418.8333333333333</ele><time>2026-04-26T16:54:55.044Z</time></trkpt><trkpt lat="32.8454971" lon="10.2769485"><ele>418.66666666666663</ele><time>2026-04-26T16:54:56.035Z</time></trkpt><trkpt lat="32.8455162" lon="10.2770409"><ele>418.5</ele><time>2026-04-26T16:54:57.043Z</time></trkpt><trkpt lat="32.8455385" lon="10.277137"><ele>418.33333333333337</ele><time>2026-04-26T16:54:58.03Z</time></trkpt><trkpt lat="32.8455688" lon="10.277229"><ele>418.1666666666667</ele><time>2026-04-26T16:54:59.027Z</time></trkpt><trkpt lat="32.8455975" lon="10.277327"><ele>418.0</ele><time>2026-04-26T16:55:00.043Z</time></trkpt><trkpt lat="32.8456253" lon="10.2774246"><ele>417.0</ele><time>2026-04-26T16:55:01.044Z</time></trkpt><trkpt lat="32.8456497" lon="10.2775298"><ele>416.0</ele><time>2026-04-26T16:55:02.032Z</time></trkpt><trkpt lat="32.8456699" lon="10.2776318"><ele>415.0</ele><time>2026-04-26T16:55:03.042Z</time></trkpt><trkpt lat="32.8456829" lon="10.2777434"><ele>414.0</ele><time>2026-04-26T16:55:04.038Z</time></trkpt><trkpt lat="32.8456949" lon="10.2778602"><ele>413.0</ele><time>2026-04-26T16:55:05.043Z</time></trkpt><trkpt lat="32.8457006" lon="10.2779786"><ele>413.0</ele><time>2026-04-26T16:55:06.04Z</time></trkpt><trkpt lat="32.8457093" lon="10.2780949"><ele>413.0</ele><time>2026-04-26T16:55:07.03Z</time></trkpt><trkpt lat="32.8457175" lon="10.2782095"><ele>413.0</ele><time>2026-04-26T16:55:08.034Z</time></trkpt><trkpt lat="32.8457224" lon="10.278321"><ele>413.0</ele><time>2026-04-26T16:55:09.041Z</time></trkpt><trkpt lat="32.8457309" lon="10.2784356"><ele>413.0</ele><time>2026-04-26T16:55:10.053Z</time></trkpt><trkpt lat="32.8457421" lon="10.2785588"><ele>412.79999999999995</ele><time>2026-04-26T16:55:11.041Z</time></trkpt><trkpt lat="32.8457491" lon="10.2786808"><ele>412.6</ele><time>2026-04-26T16:55:12.04Z</time></trkpt><trkpt lat="32.8457633" lon="10.278806"><ele>412.4</ele><time>2026-04-26T16:55:13.04Z</time></trkpt><trkpt lat="32.8457749" lon="10.2789221"><ele>412.20000000000005</ele><time>2026-04-26T16:55:14.044Z</time></trkpt><trkpt lat="32.8457903" lon="10.2790361"><ele>412.0</ele><time>2026-04-26T16:55:15.044Z</time></trkpt><trkpt lat="32.8458173" lon="10.279133"><ele>412.1666666666667</ele><time>2026-04-26T16:55:16.037Z</time></trkpt><trkpt lat="32.8458659" lon="10.2792111"><ele>412.33333333333337</ele><time>2026-04-26T16:55:17.044Z</time></trkpt><trkpt lat="32.8459137" lon="10.2792604"><ele>412.5</ele><time>2026-04-26T16:55:18.042Z</time></trkpt><trkpt lat="32.845983" lon="10.2792859"><ele>412.66666666666663</ele><time>2026-04-26T16:55:19.041Z</time></trkpt><trkpt lat="32.8460797" lon="10.2792873"><ele>412.8333333333333</ele><time>2026-04-26T16:55:20.038Z</time></trkpt><trkpt lat="32.8461982" lon="10.2792802"><ele>413.0</ele><time>2026-04-26T16:55:21.028Z</time></trkpt><trkpt lat="32.8463209" lon="10.2792807"><ele>413.0</ele><time>2026-04-26T16:55:22.048Z</time></trkpt><trkpt lat="32.8464523" lon="10.2792791"><ele>413.0</ele><time>2026-04-26T16:55:23.04Z</time></trkpt><trkpt lat="32.8465811" lon="10.2792779"><ele>413.0</ele><time>2026-04-26T16:55:24.035Z</time></trkpt><trkpt lat="32.8467037" lon="10.2792778"><ele>413.0</ele><time>2026-04-26T16:55:25.036Z</time></trkpt><trkpt lat="32.8468273" lon="10.2792817"><ele>414.25</ele><time>2026-04-26T16:55:26.035Z</time></trkpt><trkpt lat="32.8469583" lon="10.2792889"><ele>415.5</ele><time>2026-04-26T16:55:27.033Z</time></trkpt><trkpt lat="32.8470947" lon="10.2793112"><ele>416.75</ele><time>2026-04-26T16:55:28.035Z</time></trkpt><trkpt lat="32.8472295" lon="10.2793517"><ele>418.0</ele><time>2026-04-26T16:55:29.039Z</time></trkpt><trkpt lat="32.8473571" lon="10.2794151"><ele>418.0</ele><time>2026-04-26T16:55:30.032Z</time></trkpt><trkpt lat="32.847479" lon="10.2794842"><ele>418.0</ele><time>2026-04-26T16:55:31.046Z</time></trkpt><trkpt lat="32.8475978" lon="10.2795547"><ele>418.0</ele><time>2026-04-26T16:55:32.047Z</time></trkpt><trkpt lat="32.8477202" lon="10.2796192"><ele>418.0</ele><time>2026-04-26T16:55:33.043Z</time></trkpt><trkpt lat="32.8478425" lon="10.2796817"><ele>418.25</ele><time>2026-04-26T16:55:34.037Z</time></trkpt><trkpt lat="32.8479662" lon="10.2797396"><ele>418.5</ele><time>2026-04-26T16:55:35.043Z</time></trkpt><trkpt lat="32.8481023" lon="10.2797883"><ele>418.75</ele><time>2026-04-26T16:55:36.048Z</time></trkpt><trkpt lat="32.8482506" lon="10.2798248"><ele>419.0</ele><time>2026-04-26T16:55:37.04Z</time></trkpt><trkpt lat="32.8483962" lon="10.2798441"><ele>419.0</ele><time>2026-04-26T16:55:38.044Z</time></trkpt><trkpt lat="32.8485359" lon="10.2798599"><ele>419.0</ele><time>2026-04-26T16:55:39.033Z</time></trkpt><trkpt lat="32.8486802" lon="10.2798763"><ele>419.0</ele><time>2026-04-26T16:55:40.046Z</time></trkpt><trkpt lat="32.8488293" lon="10.2798898"><ele>419.0</ele><time>2026-04-26T16:55:41.039Z</time></trkpt><trkpt lat="32.8489789" lon="10.2799092"><ele>419.0</ele><time>2026-04-26T16:55:42.041Z</time></trkpt><trkpt lat="32.8491226" lon="10.2799488"><ele>419.0</ele><time>2026-04-26T16:55:43.04Z</time></trkpt><trkpt lat="32.8492583" lon="10.2800118"><ele>419.0</ele><time>2026-04-26T16:55:44.035Z</time></trkpt><trkpt lat="32.8493873" lon="10.2800904"><ele>419.0</ele><time>2026-04-26T16:55:45.046Z</time></trkpt><trkpt lat="32.8495144" lon="10.2801753"><ele>419.5</ele><time>2026-04-26T16:55:46.035Z</time></trkpt><trkpt lat="32.8496414" lon="10.2802571"><ele>420.0</ele><time>2026-04-26T16:55:47.039Z</time></trkpt><trkpt lat="32.8497699" lon="10.2803372"><ele>420.5</ele><time>2026-04-26T16:55:48.039Z</time></trkpt><trkpt lat="32.8499036" lon="10.2804169"><ele>421.0</ele><time>2026-04-26T16:55:49.042Z</time></trkpt><trkpt lat="32.850038" lon="10.2804964"><ele>421.6666666666667</ele><time>2026-04-26T16:55:50.043Z</time></trkpt><trkpt lat="32.8501798" lon="10.2805787"><ele>422.33333333333337</ele><time>2026-04-26T16:55:51.042Z</time></trkpt><trkpt lat="32.8503326" lon="10.2806726"><ele>423.0</ele><time>2026-04-26T16:55:52.05Z</time></trkpt><trkpt lat="32.850478" lon="10.2807616"><ele>423.0</ele><time>2026-04-26T16:55:53.038Z</time></trkpt><trkpt lat="32.8506183" lon="10.2808488"><ele>423.0</ele><time>2026-04-26T16:55:54.043Z</time></trkpt><trkpt lat="32.8507629" lon="10.2809385"><ele>423.0</ele><time>2026-04-26T16:55:55.048Z</time></trkpt><trkpt lat="32.850917" lon="10.2810324"><ele>423.0</ele><time>2026-04-26T16:55:56.04Z</time></trkpt><trkpt lat="32.8510727" lon="10.2811265"><ele>423.0</ele><time>2026-04-26T16:55:57.038Z</time></trkpt><trkpt lat="32.8512307" lon="10.2812095"><ele>423.0</ele><time>2026-04-26T16:55:58.044Z</time></trkpt><trkpt lat="32.8513908" lon="10.2812835"><ele>423.0</ele><time>2026-04-26T16:55:59.044Z</time></trkpt><trkpt lat="32.8515521" lon="10.2813589"><ele>423.0</ele><time>2026-04-26T16:56:00.026Z</time></trkpt><trkpt lat="32.8517167" lon="10.2814316"><ele>423.0</ele><time>2026-04-26T16:56:01.036Z</time></trkpt><trkpt lat="32.8518746" lon="10.2815029"><ele>424.33333333333337</ele><time>2026-04-26T16:56:02.038Z</time></trkpt><trkpt lat="32.8520316" lon="10.2815742"><ele>425.6666666666667</ele><time>2026-04-26T16:56:03.041Z</time></trkpt><trkpt lat="32.8521883" lon="10.2816429"><ele>427.0</ele><time>2026-04-26T16:56:04.044Z</time></trkpt><trkpt lat="32.8523403" lon="10.2817091"><ele>427.0</ele><time>2026-04-26T16:56:05.039Z</time></trkpt><trkpt lat="32.8524711" lon="10.2817699"><ele>427.0</ele><time>2026-04-26T16:56:06.037Z</time></trkpt><trkpt lat="32.8525898" lon="10.2818292"><ele>427.0</ele><time>2026-04-26T16:56:07.053Z</time></trkpt><trkpt lat="32.8526951" lon="10.281897"><ele>427.0</ele><time>2026-04-26T16:56:08.034Z</time></trkpt><trkpt lat="32.852778" lon="10.2819704"><ele>427.20000000000005</ele><time>2026-04-26T16:56:09.04Z</time></trkpt><trkpt lat="32.852851" lon="10.2820661"><ele>427.40000000000003</ele><time>2026-04-26T16:56:10.033Z</time></trkpt><trkpt lat="32.8529196" lon="10.2821715"><ele>427.59999999999997</ele><time>2026-04-26T16:56:11.046Z</time></trkpt><trkpt lat="32.8529815" lon="10.2822783"><ele>427.79999999999995</ele><time>2026-04-26T16:56:12.044Z</time></trkpt><trkpt lat="32.8530447" lon="10.2823788"><ele>428.0</ele><time>2026-04-26T16:56:13.049Z</time></trkpt><trkpt lat="32.853104" lon="10.2824773"><ele>427.99999999999994</ele><time>2026-04-26T16:56:14.03Z</time></trkpt><trkpt lat="32.8531601" lon="10.2825695"><ele>428.0</ele><time>2026-04-26T16:56:15.043Z</time></trkpt><trkpt lat="32.8532149" lon="10.2826533"><ele>428.0</ele><time>2026-04-26T16:56:16.07Z</time></trkpt><trkpt lat="32.8532647" lon="10.2827339"><ele>428.0</ele><time>2026-04-26T16:56:17.035Z</time></trkpt><trkpt lat="32.8533189" lon="10.2828132"><ele>427.99999999999994</ele><time>2026-04-26T16:56:18.042Z</time></trkpt><trkpt lat="32.8533711" lon="10.2828917"><ele>428.0</ele><time>2026-04-26T16:56:19.046Z</time></trkpt><trkpt lat="32.8534237" lon="10.2829802"><ele>427.8333333333333</ele><time>2026-04-26T16:56:20.033Z</time></trkpt><trkpt lat="32.8534823" lon="10.2830623"><ele>427.66666666666663</ele><time>2026-04-26T16:56:21.035Z</time></trkpt><trkpt lat="32.8535335" lon="10.2831429"><ele>427.5</ele><time>2026-04-26T16:56:22.048Z</time></trkpt><trkpt lat="32.8535837" lon="10.2832225"><ele>427.33333333333337</ele><time>2026-04-26T16:56:23.041Z</time></trkpt><trkpt lat="32.8536389" lon="10.2833019"><ele>427.1666666666667</ele><time>2026-04-26T16:56:24.049Z</time></trkpt><trkpt lat="32.8537004" lon="10.2833967"><ele>427.0</ele><time>2026-04-26T16:56:25.041Z</time></trkpt><trkpt lat="32.8537676" lon="10.2834976"><ele>427.40000000000003</ele><time>2026-04-26T16:56:26.046Z</time></trkpt><trkpt lat="32.8538378" lon="10.283594"><ele>427.80000000000007</ele><time>2026-04-26T16:56:27.048Z</time></trkpt><trkpt lat="32.8539107" lon="10.2836889"><ele>428.2</ele><time>2026-04-26T16:56:28.048Z</time></trkpt><trkpt lat="32.8539836" lon="10.2837872"><ele>428.6</ele><time>2026-04-26T16:56:29.033Z</time></trkpt><trkpt lat="32.8540647" lon="10.2838811"><ele>429.0</ele><time>2026-04-26T16:56:30.048Z</time></trkpt><trkpt lat="32.8541452" lon="10.2839807"><ele>429.25</ele><time>2026-04-26T16:56:31.024Z</time></trkpt><trkpt lat="32.8542264" lon="10.284086"><ele>429.5</ele><time>2026-04-26T16:56:32.034Z</time></trkpt><trkpt lat="32.854309" lon="10.28419"><ele>429.75</ele><time>2026-04-26T16:56:33.042Z</time></trkpt><trkpt lat="32.8543944" lon="10.2842915"><ele>430.0</ele><time>2026-04-26T16:56:34.061Z</time></trkpt><trkpt lat="32.854476" lon="10.2843934"><ele>430.75</ele><time>2026-04-26T16:56:35.045Z</time></trkpt><trkpt lat="32.8545563" lon="10.2844904"><ele>431.5</ele><time>2026-04-26T16:56:36.052Z</time></trkpt><trkpt lat="32.854643" lon="10.2845932"><ele>432.25</ele><time>2026-04-26T16:56:37.035Z</time></trkpt><trkpt lat="32.8547222" lon="10.2846917"><ele>433.0</ele><time>2026-04-26T16:56:38.054Z</time></trkpt><trkpt lat="32.8547968" lon="10.2847956"><ele>433.0</ele><time>2026-04-26T16:56:39.043Z</time></trkpt><trkpt lat="32.8548749" lon="10.2848993"><ele>433.0</ele><time>2026-04-26T16:56:40.049Z</time></trkpt><trkpt lat="32.8549615" lon="10.2849951"><ele>433.0</ele><time>2026-04-26T16:56:41.045Z</time></trkpt><trkpt lat="32.8550441" lon="10.2850927"><ele>433.0</ele><time>2026-04-26T16:56:42.036Z</time></trkpt><trkpt lat="32.8551211" lon="10.2851962"><ele>433.59999999999997</ele><time>2026-04-26T16:56:43.047Z</time></trkpt><trkpt lat="32.8551968" lon="10.2852916"><ele>434.19999999999993</ele><time>2026-04-26T16:56:44.037Z</time></trkpt><trkpt lat="32.8552777" lon="10.28539"><ele>434.8</ele><time>2026-04-26T16:56:45.038Z</time></trkpt><trkpt lat="32.8553538" lon="10.2854825"><ele>435.4</ele><time>2026-04-26T16:56:46.036Z</time></trkpt><trkpt lat="32.8554268" lon="10.2855684"><ele>436.0</ele><time>2026-04-26T16:56:47.026Z</time></trkpt><trkpt lat="32.855497" lon="10.2856565"><ele>436.0</ele><time>2026-04-26T16:56:48.045Z</time></trkpt><trkpt lat="32.8555597" lon="10.2857529"><ele>436.0</ele><time>2026-04-26T16:56:49.043Z</time></trkpt><trkpt lat="32.8556143" lon="10.2858543"><ele>436.0</ele><time>2026-04-26T16:56:50.044Z</time></trkpt><trkpt lat="32.8556523" lon="10.2859684"><ele>436.0</ele><time>2026-04-26T16:56:51.035Z</time></trkpt><trkpt lat="32.8556743" lon="10.2860906"><ele>436.0</ele><time>2026-04-26T16:56:52.045Z</time></trkpt><trkpt lat="32.8556871" lon="10.2862216"><ele>436.0</ele><time>2026-04-26T16:56:53.047Z</time></trkpt><trkpt lat="32.8556991" lon="10.2863486"><ele>436.0</ele><time>2026-04-26T16:56:54.051Z</time></trkpt><trkpt lat="32.8557125" lon="10.2864754"><ele>436.0</ele><time>2026-04-26T16:56:55.037Z</time></trkpt><trkpt lat="32.8557289" lon="10.2865991"><ele>436.0</ele><time>2026-04-26T16:56:56.052Z</time></trkpt><trkpt lat="32.8557454" lon="10.2867187"><ele>436.0</ele><time>2026-04-26T16:56:57.046Z</time></trkpt><trkpt lat="32.8557634" lon="10.2868382"><ele>436.4</ele><time>2026-04-26T16:56:58.041Z</time></trkpt><trkpt lat="32.8557815" lon="10.2869622"><ele>436.8</ele><time>2026-04-26T16:56:59.043Z</time></trkpt><trkpt lat="32.8557984" lon="10.2870908"><ele>437.19999999999993</ele><time>2026-04-26T16:57:00.04Z</time></trkpt><trkpt lat="32.855813" lon="10.2872183"><ele>437.59999999999997</ele><time>2026-04-26T16:57:01.041Z</time></trkpt><trkpt lat="32.8558295" lon="10.2873399"><ele>438.0</ele><time>2026-04-26T16:57:02.046Z</time></trkpt><trkpt lat="32.8558497" lon="10.2874481"><ele>438.4</ele><time>2026-04-26T16:57:03.048Z</time></trkpt><trkpt lat="32.8558799" lon="10.2875558"><ele>438.79999999999995</ele><time>2026-04-26T16:57:04.051Z</time></trkpt><trkpt lat="32.8559206" lon="10.2876459"><ele>439.2</ele><time>2026-04-26T16:57:05.042Z</time></trkpt><trkpt lat="32.8559838" lon="10.2877298"><ele>439.6</ele><time>2026-04-26T16:57:06.038Z</time></trkpt><trkpt lat="32.8560542" lon="10.287794"><ele>440.0</ele><time>2026-04-26T16:57:07.035Z</time></trkpt><trkpt lat="32.8561367" lon="10.287841"><ele>440.4</ele><time>2026-04-26T16:57:08.036Z</time></trkpt><trkpt lat="32.856229" lon="10.2878807"><ele>440.8</ele><time>2026-04-26T16:57:09.031Z</time></trkpt><trkpt lat="32.8563218" lon="10.2879215"><ele>441.20000000000005</ele><time>2026-04-26T16:57:10.023Z</time></trkpt><trkpt lat="32.8564116" lon="10.2879573"><ele>441.6</ele><time>2026-04-26T16:57:11.047Z</time></trkpt><trkpt lat="32.8564969" lon="10.2879962"><ele>442.0</ele><time>2026-04-26T16:57:12.031Z</time></trkpt><trkpt lat="32.8565794" lon="10.2880458"><ele>441.83333333333337</ele><time>2026-04-26T16:57:13.034Z</time></trkpt><trkpt lat="32.8566548" lon="10.2881009"><ele>441.6666666666667</ele><time>2026-04-26T16:57:14.039Z</time></trkpt><trkpt lat="32.8567182" lon="10.2881626"><ele>441.5</ele><time>2026-04-26T16:57:15.041Z</time></trkpt><trkpt lat="32.856765" lon="10.2882456"><ele>441.33333333333337</ele><time>2026-04-26T16:57:16.068Z</time></trkpt><trkpt lat="32.8568045" lon="10.2883361"><ele>441.1666666666667</ele><time>2026-04-26T16:57:17.035Z</time></trkpt><trkpt lat="32.8568325" lon="10.2884364"><ele>441.0</ele><time>2026-04-26T16:57:18.035Z</time></trkpt><trkpt lat="32.8568485" lon="10.2885364"><ele>441.8333333333333</ele><time>2026-04-26T16:57:19.038Z</time></trkpt><trkpt lat="32.856872" lon="10.2886301"><ele>442.66666666666663</ele><time>2026-04-26T16:57:20.037Z</time></trkpt><trkpt lat="32.8569011" lon="10.2887241"><ele>443.5</ele><time>2026-04-26T16:57:21.038Z</time></trkpt><trkpt lat="32.8569302" lon="10.288818"><ele>444.3333333333333</ele><time>2026-04-26T16:57:22.039Z</time></trkpt><trkpt lat="32.8569602" lon="10.2889166"><ele>445.16666666666663</ele><time>2026-04-26T16:57:23.043Z</time></trkpt><trkpt lat="32.8569933" lon="10.2890137"><ele>446.0</ele><time>2026-04-26T16:57:24.046Z</time></trkpt><trkpt lat="32.8570235" lon="10.2891074"><ele>445.99999999999994</ele><time>2026-04-26T16:57:25.049Z</time></trkpt><trkpt lat="32.8570513" lon="10.289197"><ele>446.0</ele><time>2026-04-26T16:57:26.036Z</time></trkpt><trkpt lat="32.8570758" lon="10.2892883"><ele>446.0</ele><time>2026-04-26T16:57:27.034Z</time></trkpt><trkpt lat="32.8571036" lon="10.2893901"><ele>446.0</ele><time>2026-04-26T16:57:28.032Z</time></trkpt><trkpt lat="32.8571163" lon="10.2894916"><ele>445.99999999999994</ele><time>2026-04-26T16:57:29.042Z</time></trkpt><trkpt lat="32.8571237" lon="10.2895969"><ele>446.0</ele><time>2026-04-26T16:57:30.043Z</time></trkpt><trkpt lat="32.8571231" lon="10.2897011"><ele>446.3333333333333</ele><time>2026-04-26T16:57:31.03Z</time></trkpt><trkpt lat="32.8571259" lon="10.289805"><ele>446.66666666666663</ele><time>2026-04-26T16:57:32.038Z</time></trkpt><trkpt lat="32.8571359" lon="10.2899022"><ele>447.0</ele><time>2026-04-26T16:57:33.032Z</time></trkpt><trkpt lat="32.8571395" lon="10.2900014"><ele>447.33333333333337</ele><time>2026-04-26T16:57:34.04Z</time></trkpt><trkpt lat="32.8571478" lon="10.2901098"><ele>447.6666666666667</ele><time>2026-04-26T16:57:35.039Z</time></trkpt><trkpt lat="32.8571526" lon="10.2902187"><ele>448.0</ele><time>2026-04-26T16:57:36.043Z</time></trkpt><trkpt lat="32.857152" lon="10.2903289"><ele>448.00000000000006</ele><time>2026-04-26T16:57:37.059Z</time></trkpt><trkpt lat="32.8571466" lon="10.2904261"><ele>448.0</ele><time>2026-04-26T16:57:38.038Z</time></trkpt><trkpt lat="32.8571371" lon="10.2905037"><ele>448.0</ele><time>2026-04-26T16:57:39.045Z</time></trkpt><trkpt lat="32.8571292" lon="10.2906134"><ele>448.0</ele><time>2026-04-26T16:57:41.041Z</time></trkpt><trkpt lat="32.8571406" lon="10.2907038"><ele>448.00000000000006</ele><time>2026-04-26T16:57:43.036Z</time></trkpt><trkpt lat="32.857193" lon="10.2907861"><ele>448.0</ele><time>2026-04-26T16:57:45.047Z</time></trkpt><trkpt lat="32.8572565" lon="10.2908723"><ele>448.1666666666667</ele><time>2026-04-26T16:57:47.048Z</time></trkpt><trkpt lat="32.857325" lon="10.2909379"><ele>448.33333333333337</ele><time>2026-04-26T16:57:49.031Z</time></trkpt><trkpt lat="32.857403" lon="10.2909912"><ele>448.5</ele><time>2026-04-26T16:57:51.047Z</time></trkpt><trkpt lat="32.8574672" lon="10.2909947"><ele>448.66666666666663</ele><time>2026-04-26T16:57:52.045Z</time></trkpt><trkpt lat="32.8575474" lon="10.2909882"><ele>448.8333333333333</ele><time>2026-04-26T16:57:53.044Z</time></trkpt><trkpt lat="32.8576303" lon="10.2909723"><ele>449.0</ele><time>2026-04-26T16:57:54.032Z</time></trkpt><trkpt lat="32.8577263" lon="10.2909484"><ele>450.0</ele><time>2026-04-26T16:57:55.037Z</time></trkpt><trkpt lat="32.8578297" lon="10.2909245"><ele>451.0</ele><time>2026-04-26T16:57:56.04Z</time></trkpt><trkpt lat="32.8579355" lon="10.290903"><ele>452.0</ele><time>2026-04-26T16:57:57.038Z</time></trkpt><trkpt lat="32.85804" lon="10.2908803"><ele>453.0</ele><time>2026-04-26T16:57:58.039Z</time></trkpt><trkpt lat="32.8581453" lon="10.2908539"><ele>454.0</ele><time>2026-04-26T16:57:59.036Z</time></trkpt><trkpt lat="32.8582515" lon="10.2908287"><ele>454.0</ele><time>2026-04-26T16:58:00.046Z</time></trkpt><trkpt lat="32.8583596" lon="10.2908029"><ele>454.0</ele><time>2026-04-26T16:58:01.04Z</time></trkpt><trkpt lat="32.8584681" lon="10.2907731"><ele>454.0</ele><time>2026-04-26T16:58:02.043Z</time></trkpt><trkpt lat="32.8585793" lon="10.2907458"><ele>454.0</ele><time>2026-04-26T16:58:03.034Z</time></trkpt><trkpt lat="32.8586925" lon="10.2907276"><ele>454.0</ele><time>2026-04-26T16:58:04.054Z</time></trkpt><trkpt lat="32.8588115" lon="10.2907044"><ele>455.25</ele><time>2026-04-26T16:58:05.035Z</time></trkpt><trkpt lat="32.8589393" lon="10.2906862"><ele>456.5</ele><time>2026-04-26T16:58:06.032Z</time></trkpt><trkpt lat="32.8590702" lon="10.2906799"><ele>457.75</ele><time>2026-04-26T16:58:07.039Z</time></trkpt><trkpt lat="32.8591994" lon="10.2906735"><ele>459.0</ele><time>2026-04-26T16:58:08.032Z</time></trkpt><trkpt lat="32.8593301" lon="10.2906665"><ele>460.5</ele><time>2026-04-26T16:58:09.028Z</time></trkpt><trkpt lat="32.8594577" lon="10.2906556"><ele>462.0</ele><time>2026-04-26T16:58:10.042Z</time></trkpt><trkpt lat="32.8595882" lon="10.2906462"><ele>463.5</ele><time>2026-04-26T16:58:11.034Z</time></trkpt><trkpt lat="32.8597081" lon="10.2906273"><ele>465.0</ele><time>2026-04-26T16:58:12.04Z</time></trkpt><trkpt lat="32.8598306" lon="10.2905987"><ele>464.25</ele><time>2026-04-26T16:58:13.03Z</time></trkpt><trkpt lat="32.8599607" lon="10.2905468"><ele>463.5</ele><time>2026-04-26T16:58:14.039Z</time></trkpt><trkpt lat="32.8600833" lon="10.2904883"><ele>462.75</ele><time>2026-04-26T16:58:15.045Z</time></trkpt><trkpt lat="32.8601971" lon="10.2903971"><ele>462.0</ele><time>2026-04-26T16:58:16.046Z</time></trkpt><trkpt lat="32.8603048" lon="10.2903008"><ele>463.5</ele><time>2026-04-26T16:58:17.048Z</time></trkpt><trkpt lat="32.8604066" lon="10.2902158"><ele>465.0</ele><time>2026-04-26T16:58:18.029Z</time></trkpt><trkpt lat="32.8605106" lon="10.2901442"><ele>466.5</ele><time>2026-04-26T16:58:19.042Z</time></trkpt><trkpt lat="32.8606121" lon="10.2900966"><ele>468.0</ele><time>2026-04-26T16:58:20.031Z</time></trkpt><trkpt lat="32.8607147" lon="10.2900745"><ele>468.0</ele><time>2026-04-26T16:58:21.035Z</time></trkpt><trkpt lat="32.8608257" lon="10.2900801"><ele>468.0</ele><time>2026-04-26T16:58:22.046Z</time></trkpt><trkpt lat="32.8609566" lon="10.2901103"><ele>468.0</ele><time>2026-04-26T16:58:23.038Z</time></trkpt><trkpt lat="32.8610964" lon="10.2901559"><ele>468.0</ele><time>2026-04-26T16:58:24.048Z</time></trkpt><trkpt lat="32.8612511" lon="10.2901973"><ele>466.33333333333337</ele><time>2026-04-26T16:58:25.046Z</time></trkpt><trkpt lat="32.8614121" lon="10.2902424"><ele>464.6666666666667</ele><time>2026-04-26T16:58:26.042Z</time></trkpt><trkpt lat="32.861567" lon="10.2902865"><ele>463.0</ele><time>2026-04-26T16:58:27.045Z</time></trkpt><trkpt lat="32.861714" lon="10.2903285"><ele>463.5</ele><time>2026-04-26T16:58:28.039Z</time></trkpt><trkpt lat="32.8618563" lon="10.290362"><ele>464.0</ele><time>2026-04-26T16:58:29.043Z</time></trkpt><trkpt lat="32.8619933" lon="10.2903721"><ele>464.5</ele><time>2026-04-26T16:58:30.039Z</time></trkpt><trkpt lat="32.8621402" lon="10.2903602"><ele>465.0</ele><time>2026-04-26T16:58:31.039Z</time></trkpt><trkpt lat="32.8622917" lon="10.2903217"><ele>465.0</ele><time>2026-04-26T16:58:32.039Z</time></trkpt><trkpt lat="32.8624318" lon="10.2902606"><ele>465.0</ele><time>2026-04-26T16:58:33.044Z</time></trkpt><trkpt lat="32.862562" lon="10.2901936"><ele>465.0</ele><time>2026-04-26T16:58:34.031Z</time></trkpt><trkpt lat="32.8626844" lon="10.290129"><ele>465.0</ele><time>2026-04-26T16:58:35.043Z</time></trkpt><trkpt lat="32.8627962" lon="10.2900668"><ele>465.0</ele><time>2026-04-26T16:58:36.043Z</time></trkpt><trkpt lat="32.862904" lon="10.2899983"><ele>465.0</ele><time>2026-04-26T16:58:37.045Z</time></trkpt><trkpt lat="32.8630067" lon="10.2899138"><ele>465.0</ele><time>2026-04-26T16:58:38.043Z</time></trkpt><trkpt lat="32.8631079" lon="10.2898221"><ele>465.0</ele><time>2026-04-26T16:58:39.036Z</time></trkpt><trkpt lat="32.8632121" lon="10.2897148"><ele>463.5</ele><time>2026-04-26T16:58:40.039Z</time></trkpt><trkpt lat="32.8633219" lon="10.2896057"><ele>462.0</ele><time>2026-04-26T16:58:41.028Z</time></trkpt><trkpt lat="32.8634311" lon="10.2894866"><ele>460.5</ele><time>2026-04-26T16:58:42.044Z</time></trkpt><trkpt lat="32.8635384" lon="10.2893688"><ele>459.0</ele><time>2026-04-26T16:58:43.041Z</time></trkpt><trkpt lat="32.86364" lon="10.2892507"><ele>459.0</ele><time>2026-04-26T16:58:44.032Z</time></trkpt><trkpt lat="32.8637384" lon="10.2891254"><ele>459.0</ele><time>2026-04-26T16:58:45.034Z</time></trkpt><trkpt lat="32.8638303" lon="10.288998"><ele>459.0</ele><time>2026-04-26T16:58:46.037Z</time></trkpt><trkpt lat="32.8639136" lon="10.2888667"><ele>459.0</ele><time>2026-04-26T16:58:47.044Z</time></trkpt><trkpt lat="32.8639899" lon="10.2887473"><ele>457.75</ele><time>2026-04-26T16:58:48.046Z</time></trkpt><trkpt lat="32.8640667" lon="10.2886431"><ele>456.5</ele><time>2026-04-26T16:58:49.038Z</time></trkpt><trkpt lat="32.8641451" lon="10.288547"><ele>455.25</ele><time>2026-04-26T16:58:50.031Z</time></trkpt><trkpt lat="32.8642367" lon="10.2884567"><ele>454.0</ele><time>2026-04-26T16:58:51.038Z</time></trkpt><trkpt lat="32.8643381" lon="10.2883877"><ele>453.5</ele><time>2026-04-26T16:58:52.045Z</time></trkpt><trkpt lat="32.8644471" lon="10.2883521"><ele>453.0</ele><time>2026-04-26T16:58:53.043Z</time></trkpt><trkpt lat="32.8645743" lon="10.2883445"><ele>452.5</ele><time>2026-04-26T16:58:54.044Z</time></trkpt><trkpt lat="32.8646977" lon="10.2883479"><ele>452.0</ele><time>2026-04-26T16:58:55.032Z</time></trkpt><trkpt lat="32.8648192" lon="10.2883549"><ele>452.0</ele><time>2026-04-26T16:58:56.031Z</time></trkpt><trkpt lat="32.8649405" lon="10.2883585"><ele>452.0</ele><time>2026-04-26T16:58:57.038Z</time></trkpt><trkpt lat="32.8650617" lon="10.2883644"><ele>452.0</ele><time>2026-04-26T16:58:58.038Z</time></trkpt><trkpt lat="32.8651829" lon="10.2883693"><ele>452.0</ele><time>2026-04-26T16:58:59.039Z</time></trkpt><trkpt lat="32.8653017" lon="10.288373"><ele>453.25</ele><time>2026-04-26T16:59:00.034Z</time></trkpt><trkpt lat="32.8654164" lon="10.2883784"><ele>454.5</ele><time>2026-04-26T16:59:01.039Z</time></trkpt><trkpt lat="32.8655348" lon="10.2883891"><ele>455.75</ele><time>2026-04-26T16:59:02.033Z</time></trkpt><trkpt lat="32.8656489" lon="10.2883914"><ele>457.0</ele><time>2026-04-26T16:59:03.042Z</time></trkpt><trkpt lat="32.8657637" lon="10.2883867"><ele>457.0</ele><time>2026-04-26T16:59:04.042Z</time></trkpt><trkpt lat="32.8658775" lon="10.2883828"><ele>457.00000000000006</ele><time>2026-04-26T16:59:05.032Z</time></trkpt><trkpt lat="32.8659877" lon="10.2883789"><ele>457.00000000000006</ele><time>2026-04-26T16:59:06.03Z</time></trkpt><trkpt lat="32.8660962" lon="10.2883746"><ele>457.0</ele><time>2026-04-26T16:59:07.028Z</time></trkpt><trkpt lat="32.8662086" lon="10.2883643"><ele>457.0</ele><time>2026-04-26T16:59:08.038Z</time></trkpt><trkpt lat="32.8663181" lon="10.2883469"><ele>458.8</ele><time>2026-04-26T16:59:09.032Z</time></trkpt><trkpt lat="32.866425" lon="10.2883336"><ele>460.6</ele><time>2026-04-26T16:59:10.047Z</time></trkpt><trkpt lat="32.8665305" lon="10.2883231"><ele>462.40000000000003</ele><time>2026-04-26T16:59:11.038Z</time></trkpt><trkpt lat="32.8666372" lon="10.28831"><ele>464.20000000000005</ele><time>2026-04-26T16:59:12.035Z</time></trkpt><trkpt lat="32.8667409" lon="10.2882981"><ele>466.0</ele><time>2026-04-26T16:59:13.04Z</time></trkpt><trkpt lat="32.866837" lon="10.2882955"><ele>468.4</ele><time>2026-04-26T16:59:14.032Z</time></trkpt><trkpt lat="32.8669341" lon="10.2882928"><ele>470.8</ele><time>2026-04-26T16:59:15.039Z</time></trkpt><trkpt lat="32.8670363" lon="10.2882961"><ele>473.19999999999993</ele><time>2026-04-26T16:59:16.041Z</time></trkpt><trkpt lat="32.8671364" lon="10.2883071"><ele>475.59999999999997</ele><time>2026-04-26T16:59:17.042Z</time></trkpt><trkpt lat="32.8672377" lon="10.2883226"><ele>478.0</ele><time>2026-04-26T16:59:18.043Z</time></trkpt><trkpt lat="32.8673459" lon="10.2883416"><ele>478.0</ele><time>2026-04-26T16:59:19.038Z</time></trkpt><trkpt lat="32.8674488" lon="10.2883582"><ele>477.99999999999994</ele><time>2026-04-26T16:59:20.042Z</time></trkpt><trkpt lat="32.8675568" lon="10.2883721"><ele>477.99999999999994</ele><time>2026-04-26T16:59:21.031Z</time></trkpt><trkpt lat="32.8676633" lon="10.2883758"><ele>478.0</ele><time>2026-04-26T16:59:22.027Z</time></trkpt><trkpt lat="32.8677647" lon="10.2883704"><ele>478.0</ele><time>2026-04-26T16:59:23.038Z</time></trkpt><trkpt lat="32.8678701" lon="10.2883616"><ele>479.59999999999997</ele><time>2026-04-26T16:59:24.042Z</time></trkpt><trkpt lat="32.8679715" lon="10.2883406"><ele>481.19999999999993</ele><time>2026-04-26T16:59:25.032Z</time></trkpt><trkpt lat="32.8680696" lon="10.2882997"><ele>482.8</ele><time>2026-04-26T16:59:26.033Z</time></trkpt><trkpt lat="32.8681615" lon="10.2882458"><ele>484.4</ele><time>2026-04-26T16:59:27.029Z</time></trkpt><trkpt lat="32.8682477" lon="10.2881941"><ele>486.0</ele><time>2026-04-26T16:59:28.027Z</time></trkpt><trkpt lat="32.8683244" lon="10.2881503"><ele>486.0</ele><time>2026-04-26T16:59:29.039Z</time></trkpt><trkpt lat="32.8683858" lon="10.2881127"><ele>486.0</ele><time>2026-04-26T16:59:30.038Z</time></trkpt><trkpt lat="32.8684914" lon="10.2880674"><ele>486.0</ele><time>2026-04-26T16:59:32.038Z</time></trkpt><trkpt lat="32.8685799" lon="10.2880593"><ele>486.0</ele><time>2026-04-26T16:59:35.024Z</time></trkpt><trkpt lat="32.8686669" lon="10.2880612"><ele>486.0</ele><time>2026-04-26T16:59:38.028Z</time></trkpt><trkpt lat="32.8687464" lon="10.2880373"><ele>486.0</ele><time>2026-04-26T16:59:41.034Z</time></trkpt><trkpt lat="32.8687375" lon="10.2879602"><ele>492.0</ele><time>2026-04-26T16:59:44.036Z</time></trkpt><trkpt lat="32.8686397" lon="10.2879361"><ele>498.0</ele><time>2026-04-26T16:59:47.032Z</time></trkpt><trkpt lat="32.8685444" lon="10.2879514"><ele>504.0</ele><time>2026-04-26T16:59:49.038Z</time></trkpt><trkpt lat="32.8684423" lon="10.2879676"><ele>510.0</ele><time>2026-04-26T16:59:51.03Z</time></trkpt><trkpt lat="32.8683386" lon="10.2879863"><ele>516.0</ele><time>2026-04-26T16:59:53.036Z</time></trkpt><trkpt lat="32.8682315" lon="10.2880169"><ele>516.0</ele><time>2026-04-26T16:59:55.028Z</time></trkpt><trkpt lat="32.8681478" lon="10.2880443"><ele>516.0</ele><time>2026-04-26T16:59:57.035Z</time></trkpt><trkpt lat="32.8680668" lon="10.2880697"><ele>516.0</ele><time>2026-04-26T16:59:59.031Z</time></trkpt><trkpt lat="32.867993" lon="10.2880882"><ele>516.0</ele><time>2026-04-26T17:00:01.046Z</time></trkpt><trkpt lat="32.8679215" lon="10.2880712"><ele>516.0</ele><time>2026-04-26T17:00:03.034Z</time></trkpt><trkpt lat="32.8678633" lon="10.2880303"><ele>516.0</ele><time>2026-04-26T17:00:05.038Z</time></trkpt><trkpt lat="32.8678121" lon="10.28797"><ele>516.0</ele><time>2026-04-26T17:00:07.04Z</time></trkpt><trkpt lat="32.8677556" lon="10.2878967"><ele>516.0</ele><time>2026-04-26T17:00:10.039Z</time></trkpt><trkpt lat="32.8677134" lon="10.2878312"><ele>516.0</ele><time>2026-04-26T17:00:14.034Z</time></trkpt><trkpt lat="32.8676561" lon="10.2877848"><ele>516.0</ele><time>2026-04-26T17:00:24.03Z</time></trkpt><trkpt lat="32.8676561" lon="10.2877848"><ele>516.0</ele><time>2026-04-26T17:00:24.03Z</time></trkpt><trkpt lat="32.8676561" lon="10.2877848"><ele>516.0</ele><time>2026-04-26T17:00:24.03Z</time></trkpt><trkpt lat="32.8676561" lon="10.2877848"><ele>516.0</ele><time>2026-04-26T17:00:24.03Z</time></trkpt></trkseg><trkseg><trkpt lat="32.8677318" lon="10.2878844"><ele>516.0</ele><time>2026-04-26T18:03:31.131Z</time></trkpt><trkpt lat="32.8678078" lon="10.2879666"><ele>516.0</ele><time>2026-04-26T18:03:34.122Z</time></trkpt><trkpt lat="32.8678833" lon="10.2880375"><ele>516.0</ele><time>2026-04-26T18:03:36.147Z</time></trkpt><trkpt lat="32.8679692" lon="10.288077"><ele>516.0</ele><time>2026-04-26T18:03:38.129Z</time></trkpt><trkpt lat="32.8680554" lon="10.2880915"><ele>516.0</ele><time>2026-04-26T18:03:40.129Z</time></trkpt><trkpt lat="32.8681422" lon="10.2880714"><ele>516.0</ele><time>2026-04-26T18:03:42.144Z</time></trkpt><trkpt lat="32.8682232" lon="10.2880376"><ele>516.0</ele><time>2026-04-26T18:03:44.141Z</time></trkpt><trkpt lat="32.8682939" lon="10.2880089"><ele>516.0</ele><time>2026-04-26T18:03:46.127Z</time></trkpt><trkpt lat="32.8683695" lon="10.2879999"><ele>516.0</ele><time>2026-04-26T18:03:48.132Z</time></trkpt><trkpt lat="32.8684798" lon="10.2879937"><ele>516.0</ele><time>2026-04-26T18:03:51.121Z</time></trkpt><trkpt lat="32.8685469" lon="10.2879824"><ele>516.0</ele><time>2026-04-26T18:03:53.167Z</time></trkpt><trkpt lat="32.8686063" lon="10.2880199"><ele>518.0</ele><time>2026-04-26T18:03:58.128Z</time></trkpt><trkpt lat="32.8685623" lon="10.2880755"><ele>520.0</ele><time>2026-04-26T18:04:22.12Z</time></trkpt><trkpt lat="32.8684694" lon="10.2880948"><ele>522.0</ele><time>2026-04-26T18:04:24.124Z</time></trkpt><trkpt lat="32.868374" lon="10.2881289"><ele>524.0</ele><time>2026-04-26T18:04:26.131Z</time></trkpt><trkpt lat="32.8682892" lon="10.2881764"><ele>526.0</ele><time>2026-04-26T18:04:28.126Z</time></trkpt><trkpt lat="32.8681966" lon="10.2882386"><ele>516.0</ele><time>2026-04-26T18:04:30.127Z</time></trkpt><trkpt lat="32.8680953" lon="10.2882991"><ele>506.0</ele><time>2026-04-26T18:04:32.126Z</time></trkpt><trkpt lat="32.8679736" lon="10.2883377"><ele>496.0</ele><time>2026-04-26T18:04:34.121Z</time></trkpt><trkpt lat="32.8678353" lon="10.2883639"><ele>486.0</ele><time>2026-04-26T18:04:36.147Z</time></trkpt><trkpt lat="32.8677442" lon="10.2883702"><ele>486.0</ele><time>2026-04-26T18:04:37.126Z</time></trkpt><trkpt lat="32.8676501" lon="10.2883738"><ele>486.0</ele><time>2026-04-26T18:04:38.124Z</time></trkpt><trkpt lat="32.8675548" lon="10.288368"><ele>486.0</ele><time>2026-04-26T18:04:39.133Z</time></trkpt><trkpt lat="32.8674585" lon="10.2883582"><ele>486.0</ele><time>2026-04-26T18:04:40.159Z</time></trkpt><trkpt lat="32.8673611" lon="10.2883404"><ele>486.0</ele><time>2026-04-26T18:04:41.115Z</time></trkpt><trkpt lat="32.8672574" lon="10.2883259"><ele>484.4</ele><time>2026-04-26T18:04:42.136Z</time></trkpt><trkpt lat="32.86715" lon="10.2883116"><ele>482.8</ele><time>2026-04-26T18:04:43.159Z</time></trkpt><trkpt lat="32.867043" lon="10.2883027"><ele>481.19999999999993</ele><time>2026-04-26T18:04:44.123Z</time></trkpt><trkpt lat="32.866933" lon="10.2882955"><ele>479.59999999999997</ele><time>2026-04-26T18:04:45.126Z</time></trkpt><trkpt lat="32.8668268" lon="10.2882899"><ele>478.0</ele><time>2026-04-26T18:04:46.155Z</time></trkpt><trkpt lat="32.8667126" lon="10.2882925"><ele>475.0</ele><time>2026-04-26T18:04:47.127Z</time></trkpt><trkpt lat="32.8665953" lon="10.2883062"><ele>472.0</ele><time>2026-04-26T18:04:48.124Z</time></trkpt><trkpt lat="32.8664753" lon="10.2883212"><ele>469.0</ele><time>2026-04-26T18:04:49.153Z</time></trkpt><trkpt lat="32.8663593" lon="10.2883349"><ele>466.0</ele><time>2026-04-26T18:04:50.128Z</time></trkpt><trkpt lat="32.8662457" lon="10.2883456"><ele>466.0</ele><time>2026-04-26T18:04:51.134Z</time></trkpt><trkpt lat="32.8661407" lon="10.2883595"><ele>466.0</ele><time>2026-04-26T18:04:52.157Z</time></trkpt><trkpt lat="32.8660365" lon="10.2883717"><ele>466.0</ele><time>2026-04-26T18:04:53.142Z</time></trkpt><trkpt lat="32.86593" lon="10.28838"><ele>466.0</ele><time>2026-04-26T18:04:54.132Z</time></trkpt><trkpt lat="32.8658191" lon="10.2883876"><ele>466.0</ele><time>2026-04-26T18:04:55.133Z</time></trkpt><trkpt lat="32.8657047" lon="10.2883852"><ele>463.75</ele><time>2026-04-26T18:04:56.123Z</time></trkpt><trkpt lat="32.8655938" lon="10.288383"><ele>461.5</ele><time>2026-04-26T18:04:57.153Z</time></trkpt><trkpt lat="32.865474" lon="10.2883798"><ele>459.25</ele><time>2026-04-26T18:04:58.139Z</time></trkpt><trkpt lat="32.8653503" lon="10.2883713"><ele>457.0</ele><time>2026-04-26T18:04:59.134Z</time></trkpt><trkpt lat="32.8652259" lon="10.288363"><ele>455.75</ele><time>2026-04-26T18:05:00.152Z</time></trkpt><trkpt lat="32.8651038" lon="10.2883543"><ele>454.5</ele><time>2026-04-26T18:05:01.14Z</time></trkpt><trkpt lat="32.8649833" lon="10.2883477"><ele>453.25</ele><time>2026-04-26T18:05:02.131Z</time></trkpt><trkpt lat="32.8648737" lon="10.2883345"><ele>452.0</ele><time>2026-04-26T18:05:03.132Z</time></trkpt><trkpt lat="32.8647698" lon="10.2883241"><ele>452.0</ele><time>2026-04-26T18:05:04.121Z</time></trkpt><trkpt lat="32.8646683" lon="10.2883206"><ele>452.00000000000006</ele><time>2026-04-26T18:05:05.138Z</time></trkpt><trkpt lat="32.8645678" lon="10.2883187"><ele>452.00000000000006</ele><time>2026-04-26T18:05:06.145Z</time></trkpt><trkpt lat="32.8644711" lon="10.2883394"><ele>452.0</ele><time>2026-04-26T18:05:07.149Z</time></trkpt><trkpt lat="32.864377" lon="10.2883694"><ele>452.0</ele><time>2026-04-26T18:05:08.131Z</time></trkpt><trkpt lat="32.8642902" lon="10.2884133"><ele>452.5</ele><time>2026-04-26T18:05:09.13Z</time></trkpt><trkpt lat="32.8641993" lon="10.2884841"><ele>453.0</ele><time>2026-04-26T18:05:10.131Z</time></trkpt><trkpt lat="32.8641146" lon="10.2885774"><ele>453.5</ele><time>2026-04-26T18:05:11.141Z</time></trkpt><trkpt lat="32.8640289" lon="10.2886949"><ele>454.0</ele><time>2026-04-26T18:05:12.137Z</time></trkpt><trkpt lat="32.8639426" lon="10.288814"><ele>455.25</ele><time>2026-04-26T18:05:13.126Z</time></trkpt><trkpt lat="32.8638651" lon="10.2889312"><ele>456.5</ele><time>2026-04-26T18:05:14.135Z</time></trkpt><trkpt lat="32.8637915" lon="10.2890461"><ele>457.75</ele><time>2026-04-26T18:05:15.135Z</time></trkpt><trkpt lat="32.8637162" lon="10.2891497"><ele>459.0</ele><time>2026-04-26T18:05:16.127Z</time></trkpt><trkpt lat="32.8636409" lon="10.2892479"><ele>459.0</ele><time>2026-04-26T18:05:17.127Z</time></trkpt><trkpt lat="32.8635668" lon="10.2893506"><ele>459.0</ele><time>2026-04-26T18:05:18.128Z</time></trkpt><trkpt lat="32.8634844" lon="10.2894403"><ele>459.0</ele><time>2026-04-26T18:05:19.135Z</time></trkpt><trkpt lat="32.8633993" lon="10.289528"><ele>459.0</ele><time>2026-04-26T18:05:20.119Z</time></trkpt><trkpt lat="32.8633226" lon="10.2896127"><ele>459.0</ele><time>2026-04-26T18:05:21.136Z</time></trkpt><trkpt lat="32.8632412" lon="10.2896919"><ele>460.2</ele><time>2026-04-26T18:05:22.125Z</time></trkpt><trkpt lat="32.8631607" lon="10.2897741"><ele>461.4</ele><time>2026-04-26T18:05:23.134Z</time></trkpt><trkpt lat="32.8630818" lon="10.2898582"><ele>462.6</ele><time>2026-04-26T18:05:24.124Z</time></trkpt><trkpt lat="32.8629996" lon="10.2899408"><ele>463.8</ele><time>2026-04-26T18:05:25.124Z</time></trkpt><trkpt lat="32.862911" lon="10.2900128"><ele>465.0</ele><time>2026-04-26T18:05:26.144Z</time></trkpt><trkpt lat="32.8628181" lon="10.2900832"><ele>465.0</ele><time>2026-04-26T18:05:27.13Z</time></trkpt><trkpt lat="32.8627161" lon="10.2901518"><ele>465.0</ele><time>2026-04-26T18:05:28.12Z</time></trkpt><trkpt lat="32.862602" lon="10.290214"><ele>465.0</ele><time>2026-04-26T18:05:29.129Z</time></trkpt><trkpt lat="32.8624826" lon="10.2902699"><ele>465.0</ele><time>2026-04-26T18:05:30.133Z</time></trkpt><trkpt lat="32.8623695" lon="10.2903206"><ele>465.0</ele><time>2026-04-26T18:05:31.128Z</time></trkpt><trkpt lat="32.8622481" lon="10.2903652"><ele>465.0</ele><time>2026-04-26T18:05:32.13Z</time></trkpt><trkpt lat="32.8621278" lon="10.2903938"><ele>465.0</ele><time>2026-04-26T18:05:33.143Z</time></trkpt><trkpt lat="32.8619994" lon="10.2904033"><ele>465.0</ele><time>2026-04-26T18:05:34.138Z</time></trkpt><trkpt lat="32.8618542" lon="10.290393"><ele>464.33333333333337</ele><time>2026-04-26T18:05:35.134Z</time></trkpt><trkpt lat="32.8617082" lon="10.2903568"><ele>463.6666666666667</ele><time>2026-04-26T18:05:36.135Z</time></trkpt><trkpt lat="32.8615639" lon="10.2903156"><ele>463.0</ele><time>2026-04-26T18:05:37.127Z</time></trkpt><trkpt lat="32.8614064" lon="10.2902662"><ele>463.0</ele><time>2026-04-26T18:05:38.122Z</time></trkpt><trkpt lat="32.8612532" lon="10.2902119"><ele>463.0</ele><time>2026-04-26T18:05:39.133Z</time></trkpt><trkpt lat="32.8610956" lon="10.2901649"><ele>463.0</ele><time>2026-04-26T18:05:40.132Z</time></trkpt><trkpt lat="32.8609567" lon="10.2901189"><ele>464.25</ele><time>2026-04-26T18:05:41.136Z</time></trkpt><trkpt lat="32.8608332" lon="10.2900854"><ele>465.5</ele><time>2026-04-26T18:05:42.14Z</time></trkpt><trkpt lat="32.8607292" lon="10.29007"><ele>466.75</ele><time>2026-04-26T18:05:43.135Z</time></trkpt><trkpt lat="32.8606248" lon="10.2900904"><ele>468.0</ele><time>2026-04-26T18:05:44.15Z</time></trkpt><trkpt lat="32.8605137" lon="10.2901414"><ele>468.0</ele><time>2026-04-26T18:05:45.132Z</time></trkpt><trkpt lat="32.860399" lon="10.2902314"><ele>468.0</ele><time>2026-04-26T18:05:46.128Z</time></trkpt><trkpt lat="32.8602876" lon="10.2903247"><ele>468.0</ele><time>2026-04-26T18:05:47.126Z</time></trkpt><trkpt lat="32.8601727" lon="10.2904039"><ele>468.0</ele><time>2026-04-26T18:05:48.139Z</time></trkpt><trkpt lat="32.8600684" lon="10.2904858"><ele>467.25</ele><time>2026-04-26T18:05:49.131Z</time></trkpt><trkpt lat="32.8599501" lon="10.2905528"><ele>466.5</ele><time>2026-04-26T18:05:50.122Z</time></trkpt><trkpt lat="32.8598224" lon="10.2906153"><ele>465.75</ele><time>2026-04-26T18:05:51.157Z</time></trkpt><trkpt lat="32.8596947" lon="10.2906533"><ele>465.0</ele><time>2026-04-26T18:05:52.134Z</time></trkpt><trkpt lat="32.8595648" lon="10.2906653"><ele>465.0</ele><time>2026-04-26T18:05:53.129Z</time></trkpt><trkpt lat="32.8594369" lon="10.2906761"><ele>465.0</ele><time>2026-04-26T18:05:54.124Z</time></trkpt><trkpt lat="32.8593075" lon="10.2906836"><ele>465.0</ele><time>2026-04-26T18:05:55.129Z</time></trkpt><trkpt lat="32.8591816" lon="10.2906919"><ele>465.0</ele><time>2026-04-26T18:05:56.127Z</time></trkpt><trkpt lat="32.859054" lon="10.2907008"><ele>463.5</ele><time>2026-04-26T18:05:57.131Z</time></trkpt><trkpt lat="32.8589221" lon="10.2907134"><ele>462.0</ele><time>2026-04-26T18:05:58.129Z</time></trkpt><trkpt lat="32.8587918" lon="10.2907279"><ele>460.5</ele><time>2026-04-26T18:05:59.149Z</time></trkpt><trkpt lat="32.8586613" lon="10.2907493"><ele>459.0</ele><time>2026-04-26T18:06:00.114Z</time></trkpt><trkpt lat="32.8585284" lon="10.290771"><ele>457.75</ele><time>2026-04-26T18:06:01.14Z</time></trkpt><trkpt lat="32.858398" lon="10.2907974"><ele>456.5</ele><time>2026-04-26T18:06:02.131Z</time></trkpt><trkpt lat="32.8582787" lon="10.290824"><ele>455.25</ele><time>2026-04-26T18:06:03.131Z</time></trkpt><trkpt lat="32.8581625" lon="10.2908483"><ele>454.0</ele><time>2026-04-26T18:06:04.123Z</time></trkpt><trkpt lat="32.8580611" lon="10.2908737"><ele>454.0</ele><time>2026-04-26T18:06:05.124Z</time></trkpt><trkpt lat="32.8579635" lon="10.2908947"><ele>454.0</ele><time>2026-04-26T18:06:06.129Z</time></trkpt><trkpt lat="32.8578666" lon="10.2909196"><ele>454.0</ele><time>2026-04-26T18:06:07.135Z</time></trkpt><trkpt lat="32.8577591" lon="10.2909411"><ele>454.0</ele><time>2026-04-26T18:06:08.136Z</time></trkpt><trkpt lat="32.8576448" lon="10.2909654"><ele>454.0</ele><time>2026-04-26T18:06:09.134Z</time></trkpt><trkpt lat="32.8575364" lon="10.2909856"><ele>453.0</ele><time>2026-04-26T18:06:10.131Z</time></trkpt><trkpt lat="32.8574367" lon="10.291007"><ele>452.0</ele><time>2026-04-26T18:06:11.129Z</time></trkpt><trkpt lat="32.8573424" lon="10.2910247"><ele>451.0</ele><time>2026-04-26T18:06:12.148Z</time></trkpt><trkpt lat="32.8572542" lon="10.291037"><ele>450.0</ele><time>2026-04-26T18:06:13.13Z</time></trkpt><trkpt lat="32.8571723" lon="10.2910483"><ele>449.0</ele><time>2026-04-26T18:06:14.133Z</time></trkpt><trkpt lat="32.8570855" lon="10.2910602"><ele>449.0</ele><time>2026-04-26T18:06:15.13Z</time></trkpt><trkpt lat="32.8569979" lon="10.2910691"><ele>449.0</ele><time>2026-04-26T18:06:16.124Z</time></trkpt><trkpt lat="32.8569016" lon="10.2910766"><ele>449.0</ele><time>2026-04-26T18:06:17.137Z</time></trkpt><trkpt lat="32.8567904" lon="10.2910849"><ele>449.0</ele><time>2026-04-26T18:06:18.154Z</time></trkpt><trkpt lat="32.8566777" lon="10.2910929"><ele>449.0</ele><time>2026-04-26T18:06:19.129Z</time></trkpt><trkpt lat="32.8565557" lon="10.2911026"><ele>448.0</ele><time>2026-04-26T18:06:20.12Z</time></trkpt><trkpt lat="32.8564302" lon="10.2911124"><ele>447.0</ele><time>2026-04-26T18:06:21.125Z</time></trkpt><trkpt lat="32.8563032" lon="10.2911196"><ele>446.0</ele><time>2026-04-26T18:06:22.117Z</time></trkpt><trkpt lat="32.8561709" lon="10.2911239"><ele>445.0</ele><time>2026-04-26T18:06:23.125Z</time></trkpt><trkpt lat="32.856041" lon="10.291134"><ele>444.0</ele><time>2026-04-26T18:06:24.127Z</time></trkpt><trkpt lat="32.8559122" lon="10.2911392"><ele>443.0</ele><time>2026-04-26T18:06:25.13Z</time></trkpt><trkpt lat="32.8557808" lon="10.2911399"><ele>442.0</ele><time>2026-04-26T18:06:26.134Z</time></trkpt><trkpt lat="32.8556475" lon="10.2911496"><ele>441.0</ele><time>2026-04-26T18:06:27.132Z</time></trkpt><trkpt lat="32.8555111" lon="10.2911575"><ele>441.0</ele><time>2026-04-26T18:06:28.123Z</time></trkpt><trkpt lat="32.8553781" lon="10.2911651"><ele>441.0</ele><time>2026-04-26T18:06:29.126Z</time></trkpt><trkpt lat="32.8552538" lon="10.2911715"><ele>441.0</ele><time>2026-04-26T18:06:30.131Z</time></trkpt><trkpt lat="32.8551256" lon="10.2911814"><ele>441.0</ele><time>2026-04-26T18:06:31.122Z</time></trkpt><trkpt lat="32.8549981" lon="10.2911876"><ele>439.75</ele><time>2026-04-26T18:06:32.127Z</time></trkpt><trkpt lat="32.8548741" lon="10.2911917"><ele>438.5</ele><time>2026-04-26T18:06:33.132Z</time></trkpt><trkpt lat="32.8547492" lon="10.2912033"><ele>437.25</ele><time>2026-04-26T18:06:34.128Z</time></trkpt><trkpt lat="32.8546201" lon="10.2912247"><ele>436.0</ele><time>2026-04-26T18:06:35.126Z</time></trkpt><trkpt lat="32.8544883" lon="10.2912639"><ele>436.0</ele><time>2026-04-26T18:06:36.137Z</time></trkpt><trkpt lat="32.8543472" lon="10.2913109"><ele>436.0</ele><time>2026-04-26T18:06:37.155Z</time></trkpt><trkpt lat="32.8541998" lon="10.2913642"><ele>436.0</ele><time>2026-04-26T18:06:38.142Z</time></trkpt><trkpt lat="32.8540478" lon="10.2914197"><ele>437.33333333333337</ele><time>2026-04-26T18:06:39.139Z</time></trkpt><trkpt lat="32.8539002" lon="10.2914797"><ele>438.66666666666663</ele><time>2026-04-26T18:06:40.127Z</time></trkpt><trkpt lat="32.8537452" lon="10.2915424"><ele>440.0</ele><time>2026-04-26T18:06:41.127Z</time></trkpt><trkpt lat="32.8535945" lon="10.2916045"><ele>440.66666666666663</ele><time>2026-04-26T18:06:42.123Z</time></trkpt><trkpt lat="32.8534449" lon="10.2916599"><ele>441.33333333333337</ele><time>2026-04-26T18:06:43.139Z</time></trkpt><trkpt lat="32.8533" lon="10.2917092"><ele>442.0</ele><time>2026-04-26T18:06:44.121Z</time></trkpt><trkpt lat="32.8531526" lon="10.2917458"><ele>442.0</ele><time>2026-04-26T18:06:45.119Z</time></trkpt><trkpt lat="32.8530067" lon="10.2917782"><ele>442.0</ele><time>2026-04-26T18:06:46.132Z</time></trkpt><trkpt lat="32.8528527" lon="10.2918107"><ele>442.0</ele><time>2026-04-26T18:06:47.122Z</time></trkpt><trkpt lat="32.8526953" lon="10.2918328"><ele>441.33333333333337</ele><time>2026-04-26T18:06:48.137Z</time></trkpt><trkpt lat="32.8525341" lon="10.2918496"><ele>440.66666666666663</ele><time>2026-04-26T18:06:49.129Z</time></trkpt><trkpt lat="32.8523793" lon="10.2918684"><ele>440.0</ele><time>2026-04-26T18:06:50.13Z</time></trkpt><trkpt lat="32.8522238" lon="10.2918869"><ele>440.0</ele><time>2026-04-26T18:06:51.128Z</time></trkpt><trkpt lat="32.8520669" lon="10.2919148"><ele>440.0</ele><time>2026-04-26T18:06:52.134Z</time></trkpt><trkpt lat="32.851916" lon="10.2919366"><ele>440.0</ele><time>2026-04-26T18:06:53.135Z</time></trkpt><trkpt lat="32.8517679" lon="10.2919598"><ele>439.5</ele><time>2026-04-26T18:06:54.125Z</time></trkpt><trkpt lat="32.8516191" lon="10.2919891"><ele>439.0</ele><time>2026-04-26T18:06:55.14Z</time></trkpt><trkpt lat="32.8514727" lon="10.2920248"><ele>438.5</ele><time>2026-04-26T18:06:56.131Z</time></trkpt><trkpt lat="32.851335" lon="10.2920805"><ele>438.0</ele><time>2026-04-26T18:06:57.15Z</time></trkpt><trkpt lat="32.8511958" lon="10.2921577"><ele>438.0</ele><time>2026-04-26T18:06:58.126Z</time></trkpt><trkpt lat="32.851064" lon="10.2922468"><ele>438.0</ele><time>2026-04-26T18:06:59.136Z</time></trkpt><trkpt lat="32.8509393" lon="10.2923522"><ele>438.0</ele><time>2026-04-26T18:07:00.127Z</time></trkpt><trkpt lat="32.8508074" lon="10.2924547"><ele>438.66666666666663</ele><time>2026-04-26T18:07:01.131Z</time></trkpt><trkpt lat="32.8506767" lon="10.2925618"><ele>439.3333333333333</ele><time>2026-04-26T18:07:02.132Z</time></trkpt><trkpt lat="32.8505517" lon="10.292675"><ele>440.0</ele><time>2026-04-26T18:07:03.125Z</time></trkpt><trkpt lat="32.8504329" lon="10.2927842"><ele>440.0</ele><time>2026-04-26T18:07:04.134Z</time></trkpt><trkpt lat="32.8503157" lon="10.292891"><ele>440.0</ele><time>2026-04-26T18:07:05.135Z</time></trkpt><trkpt lat="32.8501923" lon="10.2929967"><ele>440.0</ele><time>2026-04-26T18:07:06.135Z</time></trkpt><trkpt lat="32.8500675" lon="10.2930947"><ele>440.0</ele><time>2026-04-26T18:07:07.128Z</time></trkpt><trkpt lat="32.8499384" lon="10.2931944"><ele>440.66666666666663</ele><time>2026-04-26T18:07:08.129Z</time></trkpt><trkpt lat="32.8498115" lon="10.2932928"><ele>441.33333333333337</ele><time>2026-04-26T18:07:09.14Z</time></trkpt><trkpt lat="32.8496813" lon="10.2933919"><ele>442.0</ele><time>2026-04-26T18:07:10.121Z</time></trkpt><trkpt lat="32.8495511" lon="10.2934931"><ele>442.0</ele><time>2026-04-26T18:07:11.149Z</time></trkpt><trkpt lat="32.8494185" lon="10.2935913"><ele>442.0</ele><time>2026-04-26T18:07:12.138Z</time></trkpt><trkpt lat="32.8492907" lon="10.2936933"><ele>442.0</ele><time>2026-04-26T18:07:13.138Z</time></trkpt><trkpt lat="32.8491709" lon="10.2938106"><ele>442.0</ele><time>2026-04-26T18:07:14.132Z</time></trkpt><trkpt lat="32.8490493" lon="10.2939221"><ele>442.0</ele><time>2026-04-26T18:07:15.13Z</time></trkpt><trkpt lat="32.848928" lon="10.2940342"><ele>442.0</ele><time>2026-04-26T18:07:16.131Z</time></trkpt><trkpt lat="32.8488102" lon="10.2941458"><ele>442.0</ele><time>2026-04-26T18:07:17.118Z</time></trkpt><trkpt lat="32.8486979" lon="10.2942597"><ele>442.0</ele><time>2026-04-26T18:07:18.151Z</time></trkpt><trkpt lat="32.8485905" lon="10.2943746"><ele>442.0</ele><time>2026-04-26T18:07:19.13Z</time></trkpt><trkpt lat="32.8484808" lon="10.2944914"><ele>442.0</ele><time>2026-04-26T18:07:20.124Z</time></trkpt><trkpt lat="32.8483703" lon="10.2946116"><ele>442.25</ele><time>2026-04-26T18:07:21.141Z</time></trkpt><trkpt lat="32.8482601" lon="10.2947322"><ele>442.5</ele><time>2026-04-26T18:07:22.126Z</time></trkpt><trkpt lat="32.8481488" lon="10.2948484"><ele>442.75</ele><time>2026-04-26T18:07:23.147Z</time></trkpt><trkpt lat="32.8480384" lon="10.2949676"><ele>443.0</ele><time>2026-04-26T18:07:24.133Z</time></trkpt><trkpt lat="32.847927" lon="10.295088"><ele>443.0</ele><time>2026-04-26T18:07:25.131Z</time></trkpt><trkpt lat="32.84782" lon="10.2952048"><ele>443.0</ele><time>2026-04-26T18:07:26.123Z</time></trkpt><trkpt lat="32.8477105" lon="10.2953158"><ele>443.0</ele><time>2026-04-26T18:07:27.131Z</time></trkpt><trkpt lat="32.8475996" lon="10.2954289"><ele>443.0</ele><time>2026-04-26T18:07:28.128Z</time></trkpt><trkpt lat="32.8474883" lon="10.2955395"><ele>443.5</ele><time>2026-04-26T18:07:29.14Z</time></trkpt><trkpt lat="32.8473816" lon="10.2956499"><ele>444.0</ele><time>2026-04-26T18:07:30.121Z</time></trkpt><trkpt lat="32.8472785" lon="10.2957568"><ele>444.5</ele><time>2026-04-26T18:07:31.119Z</time></trkpt><trkpt lat="32.8471716" lon="10.2958661"><ele>445.0</ele><time>2026-04-26T18:07:32.132Z</time></trkpt><trkpt lat="32.8470603" lon="10.2959804"><ele>445.0</ele><time>2026-04-26T18:07:33.133Z</time></trkpt><trkpt lat="32.846947" lon="10.2960973"><ele>445.0</ele><time>2026-04-26T18:07:34.129Z</time></trkpt><trkpt lat="32.8468321" lon="10.2962137"><ele>445.0</ele><time>2026-04-26T18:07:35.123Z</time></trkpt><trkpt lat="32.8467181" lon="10.2963289"><ele>445.25</ele><time>2026-04-26T18:07:36.115Z</time></trkpt><trkpt lat="32.8466078" lon="10.2964412"><ele>445.5</ele><time>2026-04-26T18:07:37.132Z</time></trkpt><trkpt lat="32.846504" lon="10.2965502"><ele>445.75</ele><time>2026-04-26T18:07:38.129Z</time></trkpt><trkpt lat="32.8464068" lon="10.2966749"><ele>446.0</ele><time>2026-04-26T18:07:39.131Z</time></trkpt><trkpt lat="32.8463197" lon="10.2968059"><ele>446.0</ele><time>2026-04-26T18:07:40.114Z</time></trkpt><trkpt lat="32.8462567" lon="10.2969601"><ele>446.0</ele><time>2026-04-26T18:07:41.122Z</time></trkpt><trkpt lat="32.84621" lon="10.2971155"><ele>446.0</ele><time>2026-04-26T18:07:42.13Z</time></trkpt><trkpt lat="32.8461898" lon="10.2972793"><ele>446.0</ele><time>2026-04-26T18:07:43.132Z</time></trkpt><trkpt lat="32.8461845" lon="10.2974467"><ele>446.3333333333333</ele><time>2026-04-26T18:07:44.118Z</time></trkpt><trkpt lat="32.8461952" lon="10.2976273"><ele>446.66666666666663</ele><time>2026-04-26T18:07:45.127Z</time></trkpt><trkpt lat="32.8462187" lon="10.2978041"><ele>447.0</ele><time>2026-04-26T18:07:46.12Z</time></trkpt><trkpt lat="32.8462417" lon="10.2979932"><ele>446.66666666666663</ele><time>2026-04-26T18:07:47.157Z</time></trkpt><trkpt lat="32.8462578" lon="10.2981813"><ele>446.3333333333333</ele><time>2026-04-26T18:07:48.124Z</time></trkpt><trkpt lat="32.8462628" lon="10.2983714"><ele>446.0</ele><time>2026-04-26T18:07:49.128Z</time></trkpt><trkpt lat="32.8462707" lon="10.2985635"><ele>446.0</ele><time>2026-04-26T18:07:50.133Z</time></trkpt><trkpt lat="32.8462708" lon="10.2987469"><ele>446.0</ele><time>2026-04-26T18:07:51.114Z</time></trkpt><trkpt lat="32.8462633" lon="10.2989317"><ele>446.0</ele><time>2026-04-26T18:07:52.135Z</time></trkpt><trkpt lat="32.846247" lon="10.2991071"><ele>447.0</ele><time>2026-04-26T18:07:53.131Z</time></trkpt><trkpt lat="32.8462253" lon="10.2992876"><ele>448.0</ele><time>2026-04-26T18:07:54.145Z</time></trkpt><trkpt lat="32.8461929" lon="10.2994622"><ele>449.0</ele><time>2026-04-26T18:07:55.147Z</time></trkpt><trkpt lat="32.8461549" lon="10.2996311"><ele>449.3333333333333</ele><time>2026-04-26T18:07:56.123Z</time></trkpt><trkpt lat="32.8461011" lon="10.2997971"><ele>449.66666666666663</ele><time>2026-04-26T18:07:57.124Z</time></trkpt><trkpt lat="32.8460267" lon="10.299955"><ele>450.0</ele><time>2026-04-26T18:07:58.123Z</time></trkpt><trkpt lat="32.845948" lon="10.3001139"><ele>448.66666666666663</ele><time>2026-04-26T18:07:59.119Z</time></trkpt><trkpt lat="32.8458649" lon="10.30027"><ele>447.3333333333333</ele><time>2026-04-26T18:08:00.13Z</time></trkpt><trkpt lat="32.8457765" lon="10.3004209"><ele>446.0</ele><time>2026-04-26T18:08:01.132Z</time></trkpt><trkpt lat="32.8456954" lon="10.3005704"><ele>447.0</ele><time>2026-04-26T18:08:02.149Z</time></trkpt><trkpt lat="32.8456078" lon="10.3007136"><ele>448.0</ele><time>2026-04-26T18:08:03.13Z</time></trkpt><trkpt lat="32.8455251" lon="10.3008623"><ele>449.0</ele><time>2026-04-26T18:08:04.137Z</time></trkpt><trkpt lat="32.8454382" lon="10.3010128"><ele>449.0</ele><time>2026-04-26T18:08:05.13Z</time></trkpt><trkpt lat="32.8453512" lon="10.3011632"><ele>449.0</ele><time>2026-04-26T18:08:06.122Z</time></trkpt><trkpt lat="32.8452661" lon="10.3013138"><ele>449.0</ele><time>2026-04-26T18:08:07.133Z</time></trkpt><trkpt lat="32.8451793" lon="10.3014627"><ele>449.3333333333333</ele><time>2026-04-26T18:08:08.133Z</time></trkpt><trkpt lat="32.8450915" lon="10.3016101"><ele>449.66666666666663</ele><time>2026-04-26T18:08:09.13Z</time></trkpt><trkpt lat="32.8450021" lon="10.3017579"><ele>450.0</ele><time>2026-04-26T18:08:10.126Z</time></trkpt><trkpt lat="32.8449134" lon="10.3019084"><ele>450.0</ele><time>2026-04-26T18:08:11.134Z</time></trkpt><trkpt lat="32.8448242" lon="10.3020596"><ele>450.0</ele><time>2026-04-26T18:08:12.14Z</time></trkpt><trkpt lat="32.844744" lon="10.3021968"><ele>450.0</ele><time>2026-04-26T18:08:13.137Z</time></trkpt><trkpt lat="32.8446674" lon="10.3023188"><ele>450.0</ele><time>2026-04-26T18:08:14.135Z</time></trkpt><trkpt lat="32.844602" lon="10.3024389"><ele>450.0</ele><time>2026-04-26T18:08:15.137Z</time></trkpt><trkpt lat="32.8445439" lon="10.3025561"><ele>450.0</ele><time>2026-04-26T18:08:16.133Z</time></trkpt><trkpt lat="32.844493" lon="10.3026776"><ele>450.0</ele><time>2026-04-26T18:08:17.143Z</time></trkpt><trkpt lat="32.8444511" lon="10.3028007"><ele>450.0</ele><time>2026-04-26T18:08:18.14Z</time></trkpt><trkpt lat="32.844416" lon="10.302947"><ele>450.75</ele><time>2026-04-26T18:08:19.131Z</time></trkpt><trkpt lat="32.8443912" lon="10.3030906"><ele>451.5</ele><time>2026-04-26T18:08:20.134Z</time></trkpt><trkpt lat="32.8443827" lon="10.3032416"><ele>452.25</ele><time>2026-04-26T18:08:21.131Z</time></trkpt><trkpt lat="32.8443883" lon="10.3033957"><ele>453.0</ele><time>2026-04-26T18:08:22.13Z</time></trkpt><trkpt lat="32.8444042" lon="10.3035553"><ele>453.0</ele><time>2026-04-26T18:08:23.123Z</time></trkpt><trkpt lat="32.8444287" lon="10.3037153"><ele>453.0</ele><time>2026-04-26T18:08:24.138Z</time></trkpt><trkpt lat="32.8444531" lon="10.3038835"><ele>453.0</ele><time>2026-04-26T18:08:25.136Z</time></trkpt><trkpt lat="32.8444737" lon="10.3040556"><ele>453.0</ele><time>2026-04-26T18:08:26.136Z</time></trkpt><trkpt lat="32.8444932" lon="10.3042184"><ele>454.0</ele><time>2026-04-26T18:08:27.126Z</time></trkpt><trkpt lat="32.8445178" lon="10.3043756"><ele>455.0</ele><time>2026-04-26T18:08:28.128Z</time></trkpt><trkpt lat="32.8445455" lon="10.3045165"><ele>456.0</ele><time>2026-04-26T18:08:29.125Z</time></trkpt><trkpt lat="32.8445697" lon="10.3046417"><ele>457.0</ele><time>2026-04-26T18:08:30.129Z</time></trkpt><trkpt lat="32.8445784" lon="10.304747"><ele>457.8</ele><time>2026-04-26T18:08:31.132Z</time></trkpt><trkpt lat="32.8445616" lon="10.3048557"><ele>458.6</ele><time>2026-04-26T18:08:32.128Z</time></trkpt><trkpt lat="32.8445359" lon="10.304959"><ele>459.40000000000003</ele><time>2026-04-26T18:08:33.135Z</time></trkpt><trkpt lat="32.8444872" lon="10.3050771"><ele>460.20000000000005</ele><time>2026-04-26T18:08:34.153Z</time></trkpt><trkpt lat="32.8444122" lon="10.3051919"><ele>461.0</ele><time>2026-04-26T18:08:35.146Z</time></trkpt><trkpt lat="32.8443291" lon="10.3053193"><ele>458.66666666666663</ele><time>2026-04-26T18:08:36.117Z</time></trkpt><trkpt lat="32.8442207" lon="10.3054569"><ele>456.33333333333337</ele><time>2026-04-26T18:08:37.117Z</time></trkpt><trkpt lat="32.8441142" lon="10.3055867"><ele>454.0</ele><time>2026-04-26T18:08:38.123Z</time></trkpt><trkpt lat="32.84402" lon="10.3057082"><ele>454.0</ele><time>2026-04-26T18:08:39.137Z</time></trkpt><trkpt lat="32.8439208" lon="10.3058318"><ele>454.0</ele><time>2026-04-26T18:08:40.12Z</time></trkpt><trkpt lat="32.8438243" lon="10.3059436"><ele>454.0</ele><time>2026-04-26T18:08:41.122Z</time></trkpt><trkpt lat="32.8437361" lon="10.3060604"><ele>454.0</ele><time>2026-04-26T18:08:42.124Z</time></trkpt><trkpt lat="32.8436578" lon="10.3061671"><ele>454.0</ele><time>2026-04-26T18:08:43.129Z</time></trkpt><trkpt lat="32.8435776" lon="10.3062633"><ele>454.0</ele><time>2026-04-26T18:08:44.119Z</time></trkpt><trkpt lat="32.8435044" lon="10.3063542"><ele>454.0</ele><time>2026-04-26T18:08:45.128Z</time></trkpt><trkpt lat="32.8434398" lon="10.3064366"><ele>454.0</ele><time>2026-04-26T18:08:46.126Z</time></trkpt><trkpt lat="32.8433781" lon="10.3065262"><ele>454.0</ele><time>2026-04-26T18:08:47.123Z</time></trkpt><trkpt lat="32.8433168" lon="10.3066117"><ele>454.4</ele><time>2026-04-26T18:08:48.127Z</time></trkpt><trkpt lat="32.8432597" lon="10.3067019"><ele>454.79999999999995</ele><time>2026-04-26T18:08:49.128Z</time></trkpt><trkpt lat="32.8432106" lon="10.3068072"><ele>455.20000000000005</ele><time>2026-04-26T18:08:50.132Z</time></trkpt><trkpt lat="32.8431801" lon="10.3069351"><ele>455.6</ele><time>2026-04-26T18:08:51.121Z</time></trkpt><trkpt lat="32.8431685" lon="10.3070822"><ele>456.0</ele><time>2026-04-26T18:08:52.13Z</time></trkpt><trkpt lat="32.8431628" lon="10.307234"><ele>457.5</ele><time>2026-04-26T18:08:53.126Z</time></trkpt><trkpt lat="32.8431524" lon="10.3073877"><ele>459.0</ele><time>2026-04-26T18:08:54.131Z</time></trkpt><trkpt lat="32.8431406" lon="10.3075423"><ele>460.5</ele><time>2026-04-26T18:08:55.118Z</time></trkpt><trkpt lat="32.8431058" lon="10.3076971"><ele>462.0</ele><time>2026-04-26T18:08:56.122Z</time></trkpt><trkpt lat="32.8430486" lon="10.3078469"><ele>462.0</ele><time>2026-04-26T18:08:57.129Z</time></trkpt><trkpt lat="32.842993" lon="10.307992"><ele>462.0</ele><time>2026-04-26T18:08:58.121Z</time></trkpt><trkpt lat="32.8429395" lon="10.3081154"><ele>462.0</ele><time>2026-04-26T18:08:59.122Z</time></trkpt><trkpt lat="32.8428905" lon="10.3082376"><ele>462.0</ele><time>2026-04-26T18:09:00.139Z</time></trkpt><trkpt lat="32.8428531" lon="10.308369"><ele>461.75</ele><time>2026-04-26T18:09:01.125Z</time></trkpt><trkpt lat="32.8428231" lon="10.308501"><ele>461.5</ele><time>2026-04-26T18:09:02.13Z</time></trkpt><trkpt lat="32.8428028" lon="10.3086344"><ele>461.25</ele><time>2026-04-26T18:09:03.133Z</time></trkpt><trkpt lat="32.8427951" lon="10.3087682"><ele>461.0</ele><time>2026-04-26T18:09:04.124Z</time></trkpt><trkpt lat="32.8427928" lon="10.3089209"><ele>461.0</ele><time>2026-04-26T18:09:05.131Z</time></trkpt><trkpt lat="32.8427891" lon="10.309089"><ele>461.0</ele><time>2026-04-26T18:09:06.122Z</time></trkpt><trkpt lat="32.8427844" lon="10.3092612"><ele>461.0</ele><time>2026-04-26T18:09:07.127Z</time></trkpt><trkpt lat="32.8427726" lon="10.3094357"><ele>461.0</ele><time>2026-04-26T18:09:08.124Z</time></trkpt><trkpt lat="32.8427458" lon="10.3096047"><ele>455.3333333333333</ele><time>2026-04-26T18:09:09.132Z</time></trkpt><trkpt lat="32.8427073" lon="10.3097816"><ele>449.66666666666663</ele><time>2026-04-26T18:09:10.129Z</time></trkpt><trkpt lat="32.8426639" lon="10.3099526"><ele>444.0</ele><time>2026-04-26T18:09:11.129Z</time></trkpt><trkpt lat="32.8426155" lon="10.3101229"><ele>440.66666666666663</ele><time>2026-04-26T18:09:12.131Z</time></trkpt><trkpt lat="32.8425525" lon="10.3102965"><ele>437.3333333333333</ele><time>2026-04-26T18:09:13.129Z</time></trkpt><trkpt lat="32.842498" lon="10.3104674"><ele>434.0</ele><time>2026-04-26T18:09:14.137Z</time></trkpt><trkpt lat="32.8424414" lon="10.3106353"><ele>432.66666666666663</ele><time>2026-04-26T18:09:15.128Z</time></trkpt><trkpt lat="32.842383" lon="10.3108091"><ele>431.33333333333337</ele><time>2026-04-26T18:09:16.134Z</time></trkpt><trkpt lat="32.8423289" lon="10.3109766"><ele>430.0</ele><time>2026-04-26T18:09:17.136Z</time></trkpt><trkpt lat="32.8422737" lon="10.311151"><ele>430.0</ele><time>2026-04-26T18:09:18.152Z</time></trkpt><trkpt lat="32.842219" lon="10.3113278"><ele>430.0</ele><time>2026-04-26T18:09:19.133Z</time></trkpt><trkpt lat="32.8421647" lon="10.3115063"><ele>430.0</ele><time>2026-04-26T18:09:20.121Z</time></trkpt><trkpt lat="32.8421" lon="10.3116881"><ele>428.33333333333337</ele><time>2026-04-26T18:09:21.124Z</time></trkpt><trkpt lat="32.8420389" lon="10.3118704"><ele>426.66666666666663</ele><time>2026-04-26T18:09:22.134Z</time></trkpt><trkpt lat="32.8419842" lon="10.3120486"><ele>425.0</ele><time>2026-04-26T18:09:23.127Z</time></trkpt><trkpt lat="32.8419284" lon="10.3122179"><ele>424.66666666666663</ele><time>2026-04-26T18:09:24.132Z</time></trkpt><trkpt lat="32.8418762" lon="10.3123845"><ele>424.33333333333337</ele><time>2026-04-26T18:09:25.135Z</time></trkpt><trkpt lat="32.8418212" lon="10.3125554"><ele>424.0</ele><time>2026-04-26T18:09:26.14Z</time></trkpt><trkpt lat="32.8417671" lon="10.3127249"><ele>423.0</ele><time>2026-04-26T18:09:27.139Z</time></trkpt><trkpt lat="32.8417086" lon="10.312899"><ele>422.0</ele><time>2026-04-26T18:09:28.118Z</time></trkpt><trkpt lat="32.8416386" lon="10.3130612"><ele>421.0</ele><time>2026-04-26T18:09:29.126Z</time></trkpt><trkpt lat="32.8415562" lon="10.3132211"><ele>421.0</ele><time>2026-04-26T18:09:30.129Z</time></trkpt><trkpt lat="32.8414748" lon="10.3133709"><ele>421.0</ele><time>2026-04-26T18:09:31.124Z</time></trkpt><trkpt lat="32.8413911" lon="10.313518"><ele>421.0</ele><time>2026-04-26T18:09:32.133Z</time></trkpt><trkpt lat="32.8413049" lon="10.3136652"><ele>421.0</ele><time>2026-04-26T18:09:33.136Z</time></trkpt><trkpt lat="32.8412187" lon="10.3138117"><ele>421.0</ele><time>2026-04-26T18:09:34.151Z</time></trkpt><trkpt lat="32.8411331" lon="10.3139632"><ele>421.0</ele><time>2026-04-26T18:09:35.137Z</time></trkpt><trkpt lat="32.8410556" lon="10.3141109"><ele>420.5</ele><time>2026-04-26T18:09:36.134Z</time></trkpt><trkpt lat="32.8409848" lon="10.3142602"><ele>420.0</ele><time>2026-04-26T18:09:37.132Z</time></trkpt><trkpt lat="32.8409217" lon="10.3144184"><ele>419.5</ele><time>2026-04-26T18:09:38.125Z</time></trkpt><trkpt lat="32.8408674" lon="10.3145835"><ele>419.0</ele><time>2026-04-26T18:09:39.13Z</time></trkpt><trkpt lat="32.8408101" lon="10.3147555"><ele>419.0</ele><time>2026-04-26T18:09:40.126Z</time></trkpt><trkpt lat="32.840759" lon="10.3149293"><ele>419.0</ele><time>2026-04-26T18:09:41.141Z</time></trkpt><trkpt lat="32.8407165" lon="10.3151062"><ele>419.0</ele><time>2026-04-26T18:09:42.139Z</time></trkpt><trkpt lat="32.8406723" lon="10.3152817"><ele>419.0</ele><time>2026-04-26T18:09:43.137Z</time></trkpt><trkpt lat="32.8406313" lon="10.3154667"><ele>419.0</ele><time>2026-04-26T18:09:44.132Z</time></trkpt><trkpt lat="32.8405878" lon="10.3156543"><ele>419.0</ele><time>2026-04-26T18:09:45.138Z</time></trkpt><trkpt lat="32.8405444" lon="10.3158324"><ele>418.3333333333333</ele><time>2026-04-26T18:09:46.133Z</time></trkpt><trkpt lat="32.8405003" lon="10.3160033"><ele>417.66666666666663</ele><time>2026-04-26T18:09:47.131Z</time></trkpt><trkpt lat="32.8404589" lon="10.3161733"><ele>417.0</ele><time>2026-04-26T18:09:48.129Z</time></trkpt><trkpt lat="32.8404152" lon="10.316355"><ele>416.33333333333337</ele><time>2026-04-26T18:09:49.131Z</time></trkpt><trkpt lat="32.8403657" lon="10.3165406"><ele>415.6666666666667</ele><time>2026-04-26T18:09:50.127Z</time></trkpt><trkpt lat="32.8403145" lon="10.3167305"><ele>415.0</ele><time>2026-04-26T18:09:51.131Z</time></trkpt><trkpt lat="32.8402638" lon="10.3169078"><ele>415.0</ele><time>2026-04-26T18:09:52.139Z</time></trkpt><trkpt lat="32.840216" lon="10.3170818"><ele>415.0</ele><time>2026-04-26T18:09:53.132Z</time></trkpt><trkpt lat="32.8401702" lon="10.317244"><ele>415.0</ele><time>2026-04-26T18:09:54.136Z</time></trkpt><trkpt lat="32.8401313" lon="10.3174024"><ele>415.0</ele><time>2026-04-26T18:09:55.131Z</time></trkpt><trkpt lat="32.8400948" lon="10.3175467"><ele>413.75</ele><time>2026-04-26T18:09:56.119Z</time></trkpt><trkpt lat="32.8400546" lon="10.3176885"><ele>412.5</ele><time>2026-04-26T18:09:57.143Z</time></trkpt><trkpt lat="32.8400152" lon="10.3178354"><ele>411.25</ele><time>2026-04-26T18:09:58.125Z</time></trkpt><trkpt lat="32.8399801" lon="10.3179822"><ele>410.0</ele><time>2026-04-26T18:09:59.144Z</time></trkpt><trkpt lat="32.8399408" lon="10.3181295"><ele>410.0</ele><time>2026-04-26T18:10:00.136Z</time></trkpt><trkpt lat="32.8399067" lon="10.3182754"><ele>410.0</ele><time>2026-04-26T18:10:01.128Z</time></trkpt><trkpt lat="32.8398785" lon="10.3184323"><ele>410.0</ele><time>2026-04-26T18:10:02.126Z</time></trkpt><trkpt lat="32.8398653" lon="10.3186008"><ele>410.0</ele><time>2026-04-26T18:10:03.13Z</time></trkpt><trkpt lat="32.8398632" lon="10.3187767"><ele>410.5</ele><time>2026-04-26T18:10:04.121Z</time></trkpt><trkpt lat="32.8398724" lon="10.3189453"><ele>411.0</ele><time>2026-04-26T18:10:05.118Z</time></trkpt><trkpt lat="32.8398865" lon="10.3191195"><ele>411.5</ele><time>2026-04-26T18:10:06.121Z</time></trkpt><trkpt lat="32.8398937" lon="10.3192927"><ele>412.0</ele><time>2026-04-26T18:10:07.136Z</time></trkpt><trkpt lat="32.8399055" lon="10.3194581"><ele>412.0</ele><time>2026-04-26T18:10:08.134Z</time></trkpt><trkpt lat="32.8399159" lon="10.3196166"><ele>412.0</ele><time>2026-04-26T18:10:09.146Z</time></trkpt><trkpt lat="32.8399251" lon="10.3197804"><ele>412.0</ele><time>2026-04-26T18:10:10.128Z</time></trkpt><trkpt lat="32.8399235" lon="10.3199443"><ele>412.0</ele><time>2026-04-26T18:10:11.142Z</time></trkpt><trkpt lat="32.8399194" lon="10.320098"><ele>412.25</ele><time>2026-04-26T18:10:12.132Z</time></trkpt><trkpt lat="32.8399065" lon="10.3202528"><ele>412.5</ele><time>2026-04-26T18:10:13.144Z</time></trkpt><trkpt lat="32.8398755" lon="10.3204163"><ele>412.75</ele><time>2026-04-26T18:10:14.141Z</time></trkpt><trkpt lat="32.8398393" lon="10.3205774"><ele>413.0</ele><time>2026-04-26T18:10:15.137Z</time></trkpt><trkpt lat="32.8397937" lon="10.3207551"><ele>412.3333333333333</ele><time>2026-04-26T18:10:16.136Z</time></trkpt><trkpt lat="32.8397491" lon="10.3209281"><ele>411.66666666666663</ele><time>2026-04-26T18:10:17.135Z</time></trkpt><trkpt lat="32.8397023" lon="10.3211011"><ele>411.0</ele><time>2026-04-26T18:10:18.14Z</time></trkpt><trkpt lat="32.8396537" lon="10.3212819"><ele>410.0</ele><time>2026-04-26T18:10:19.157Z</time></trkpt><trkpt lat="32.8396099" lon="10.3214622"><ele>409.0</ele><time>2026-04-26T18:10:20.132Z</time></trkpt><trkpt lat="32.8395649" lon="10.321652"><ele>408.0</ele><time>2026-04-26T18:10:21.124Z</time></trkpt><trkpt lat="32.8395186" lon="10.3218455"><ele>408.0</ele><time>2026-04-26T18:10:22.126Z</time></trkpt><trkpt lat="32.8394732" lon="10.3220392"><ele>408.0</ele><time>2026-04-26T18:10:23.136Z</time></trkpt><trkpt lat="32.839427" lon="10.322228"><ele>408.0</ele><time>2026-04-26T18:10:24.137Z</time></trkpt><trkpt lat="32.8393847" lon="10.3224172"><ele>407.66666666666663</ele><time>2026-04-26T18:10:25.123Z</time></trkpt><trkpt lat="32.8393433" lon="10.3226121"><ele>407.3333333333333</ele><time>2026-04-26T18:10:26.144Z</time></trkpt><trkpt lat="32.8393017" lon="10.322812"><ele>407.0</ele><time>2026-04-26T18:10:27.136Z</time></trkpt><trkpt lat="32.8392677" lon="10.3230133"><ele>404.3333333333333</ele><time>2026-04-26T18:10:28.128Z</time></trkpt><trkpt lat="32.8392457" lon="10.3232128"><ele>401.66666666666663</ele><time>2026-04-26T18:10:29.126Z</time></trkpt><trkpt lat="32.8392212" lon="10.3234159"><ele>399.0</ele><time>2026-04-26T18:10:30.126Z</time></trkpt><trkpt lat="32.8392031" lon="10.3236244"><ele>399.0</ele><time>2026-04-26T18:10:31.141Z</time></trkpt><trkpt lat="32.8391867" lon="10.323831"><ele>399.0</ele><time>2026-04-26T18:10:32.134Z</time></trkpt><trkpt lat="32.8391683" lon="10.3240414"><ele>399.0</ele><time>2026-04-26T18:10:33.125Z</time></trkpt><trkpt lat="32.8391543" lon="10.3242481"><ele>398.33333333333337</ele><time>2026-04-26T18:10:34.148Z</time></trkpt><trkpt lat="32.8391394" lon="10.3244557"><ele>397.6666666666667</ele><time>2026-04-26T18:10:35.134Z</time></trkpt><trkpt lat="32.8391235" lon="10.3246623"><ele>397.0</ele><time>2026-04-26T18:10:36.14Z</time></trkpt><trkpt lat="32.8391101" lon="10.3248641"><ele>396.33333333333337</ele><time>2026-04-26T18:10:37.142Z</time></trkpt><trkpt lat="32.8391034" lon="10.3250677"><ele>395.66666666666663</ele><time>2026-04-26T18:10:38.133Z</time></trkpt><trkpt lat="32.8390924" lon="10.325255"><ele>395.0</ele><time>2026-04-26T18:10:39.136Z</time></trkpt><trkpt lat="32.8390792" lon="10.3254488"><ele>394.66666666666663</ele><time>2026-04-26T18:10:40.145Z</time></trkpt><trkpt lat="32.8390721" lon="10.3256447"><ele>394.33333333333337</ele><time>2026-04-26T18:10:41.135Z</time></trkpt><trkpt lat="32.8390634" lon="10.3258353"><ele>394.0</ele><time>2026-04-26T18:10:42.12Z</time></trkpt><trkpt lat="32.8390474" lon="10.3260093"><ele>394.0</ele><time>2026-04-26T18:10:43.129Z</time></trkpt><trkpt lat="32.8390273" lon="10.3261802"><ele>394.0</ele><time>2026-04-26T18:10:44.125Z</time></trkpt><trkpt lat="32.8390001" lon="10.3263563"><ele>394.0</ele><time>2026-04-26T18:10:45.128Z</time></trkpt><trkpt lat="32.8389697" lon="10.3265251"><ele>394.0</ele><time>2026-04-26T18:10:46.124Z</time></trkpt><trkpt lat="32.8389371" lon="10.3266968"><ele>394.0</ele><time>2026-04-26T18:10:47.13Z</time></trkpt><trkpt lat="32.8388943" lon="10.326867"><ele>394.0</ele><time>2026-04-26T18:10:48.134Z</time></trkpt><trkpt lat="32.8388497" lon="10.3270496"><ele>394.0</ele><time>2026-04-26T18:10:49.13Z</time></trkpt><trkpt lat="32.8388055" lon="10.3272267"><ele>393.33333333333337</ele><time>2026-04-26T18:10:50.137Z</time></trkpt><trkpt lat="32.8387589" lon="10.3274063"><ele>392.66666666666663</ele><time>2026-04-26T18:10:51.122Z</time></trkpt><trkpt lat="32.838711" lon="10.327587"><ele>392.0</ele><time>2026-04-26T18:10:52.133Z</time></trkpt><trkpt lat="32.8386637" lon="10.3277691"><ele>392.0</ele><time>2026-04-26T18:10:53.12Z</time></trkpt><trkpt lat="32.8386187" lon="10.3279543"><ele>392.0</ele><time>2026-04-26T18:10:54.129Z</time></trkpt><trkpt lat="32.8385793" lon="10.3281476"><ele>392.0</ele><time>2026-04-26T18:10:55.129Z</time></trkpt><trkpt lat="32.8385312" lon="10.3283402"><ele>391.3333333333333</ele><time>2026-04-26T18:10:56.126Z</time></trkpt><trkpt lat="32.8384796" lon="10.328532"><ele>390.66666666666663</ele><time>2026-04-26T18:10:57.127Z</time></trkpt><trkpt lat="32.8384348" lon="10.3287169"><ele>390.0</ele><time>2026-04-26T18:10:58.136Z</time></trkpt><trkpt lat="32.8383887" lon="10.3288916"><ele>388.66666666666663</ele><time>2026-04-26T18:10:59.131Z</time></trkpt><trkpt lat="32.8383474" lon="10.3290688"><ele>387.3333333333333</ele><time>2026-04-26T18:11:00.124Z</time></trkpt><trkpt lat="32.8383019" lon="10.329245"><ele>386.0</ele><time>2026-04-26T18:11:01.13Z</time></trkpt><trkpt lat="32.8382562" lon="10.3294136"><ele>386.0</ele><time>2026-04-26T18:11:02.127Z</time></trkpt><trkpt lat="32.838217" lon="10.329585"><ele>386.0</ele><time>2026-04-26T18:11:03.13Z</time></trkpt><trkpt lat="32.8381787" lon="10.3297479"><ele>386.0</ele><time>2026-04-26T18:11:04.136Z</time></trkpt><trkpt lat="32.8381425" lon="10.3299233"><ele>386.0</ele><time>2026-04-26T18:11:05.121Z</time></trkpt><trkpt lat="32.8380991" lon="10.3301035"><ele>385.3333333333333</ele><time>2026-04-26T18:11:06.133Z</time></trkpt><trkpt lat="32.8380569" lon="10.3302844"><ele>384.66666666666663</ele><time>2026-04-26T18:11:07.139Z</time></trkpt><trkpt lat="32.8380198" lon="10.3304636"><ele>384.0</ele><time>2026-04-26T18:11:08.115Z</time></trkpt><trkpt lat="32.8379948" lon="10.3306575"><ele>383.0</ele><time>2026-04-26T18:11:09.129Z</time></trkpt><trkpt lat="32.8379791" lon="10.3308515"><ele>382.0</ele><time>2026-04-26T18:11:10.132Z</time></trkpt><trkpt lat="32.837971" lon="10.3310525"><ele>381.0</ele><time>2026-04-26T18:11:11.131Z</time></trkpt><trkpt lat="32.8379793" lon="10.3312578"><ele>380.0</ele><time>2026-04-26T18:11:12.132Z</time></trkpt><trkpt lat="32.8379998" lon="10.3314681"><ele>379.0</ele><time>2026-04-26T18:11:13.13Z</time></trkpt><trkpt lat="32.8380214" lon="10.3316749"><ele>378.0</ele><time>2026-04-26T18:11:14.118Z</time></trkpt><trkpt lat="32.8380544" lon="10.3318833"><ele>378.0</ele><time>2026-04-26T18:11:15.117Z</time></trkpt><trkpt lat="32.8380926" lon="10.332087"><ele>378.0</ele><time>2026-04-26T18:11:16.133Z</time></trkpt><trkpt lat="32.8381294" lon="10.3322797"><ele>378.0</ele><time>2026-04-26T18:11:17.132Z</time></trkpt><trkpt lat="32.8381681" lon="10.332471"><ele>377.6666666666667</ele><time>2026-04-26T18:11:18.134Z</time></trkpt><trkpt lat="32.8382012" lon="10.3326607"><ele>377.33333333333337</ele><time>2026-04-26T18:11:19.127Z</time></trkpt><trkpt lat="32.8382329" lon="10.3328486"><ele>377.0</ele><time>2026-04-26T18:11:20.122Z</time></trkpt><trkpt lat="32.8382596" lon="10.3330393"><ele>377.0</ele><time>2026-04-26T18:11:21.128Z</time></trkpt><trkpt lat="32.8382876" lon="10.333236"><ele>377.0</ele><time>2026-04-26T18:11:22.133Z</time></trkpt><trkpt lat="32.8383082" lon="10.3334375"><ele>377.0</ele><time>2026-04-26T18:11:23.132Z</time></trkpt><trkpt lat="32.8383327" lon="10.3336436"><ele>377.0</ele><time>2026-04-26T18:11:24.135Z</time></trkpt><trkpt lat="32.838359" lon="10.3338511"><ele>377.0</ele><time>2026-04-26T18:11:25.133Z</time></trkpt><trkpt lat="32.838388" lon="10.3340581"><ele>377.0</ele><time>2026-04-26T18:11:26.129Z</time></trkpt><trkpt lat="32.8384156" lon="10.3342642"><ele>376.33333333333337</ele><time>2026-04-26T18:11:27.123Z</time></trkpt><trkpt lat="32.8384389" lon="10.3344746"><ele>375.6666666666667</ele><time>2026-04-26T18:11:28.125Z</time></trkpt><trkpt lat="32.8384594" lon="10.3346823"><ele>375.0</ele><time>2026-04-26T18:11:29.138Z</time></trkpt><trkpt lat="32.8384806" lon="10.3348882"><ele>376.3333333333333</ele><time>2026-04-26T18:11:30.125Z</time></trkpt><trkpt lat="32.8384976" lon="10.3350879"><ele>377.66666666666663</ele><time>2026-04-26T18:11:31.131Z</time></trkpt><trkpt lat="32.8385205" lon="10.3352871"><ele>379.0</ele><time>2026-04-26T18:11:32.124Z</time></trkpt><trkpt lat="32.8385394" lon="10.3354992"><ele>377.66666666666663</ele><time>2026-04-26T18:11:33.128Z</time></trkpt><trkpt lat="32.8385509" lon="10.3356983"><ele>376.3333333333333</ele><time>2026-04-26T18:11:34.124Z</time></trkpt><trkpt lat="32.838566" lon="10.3358998"><ele>375.0</ele><time>2026-04-26T18:11:35.126Z</time></trkpt><trkpt lat="32.8385792" lon="10.3361006"><ele>375.0</ele><time>2026-04-26T18:11:36.127Z</time></trkpt><trkpt lat="32.8385893" lon="10.3363032"><ele>375.0</ele><time>2026-04-26T18:11:37.131Z</time></trkpt><trkpt lat="32.8385999" lon="10.3365021"><ele>375.0</ele><time>2026-04-26T18:11:38.132Z</time></trkpt><trkpt lat="32.8386149" lon="10.336709"><ele>374.6666666666667</ele><time>2026-04-26T18:11:39.126Z</time></trkpt><trkpt lat="32.8386334" lon="10.336914"><ele>374.33333333333337</ele><time>2026-04-26T18:11:40.129Z</time></trkpt><trkpt lat="32.8386597" lon="10.3371195"><ele>374.0</ele><time>2026-04-26T18:11:41.138Z</time></trkpt><trkpt lat="32.838693" lon="10.3373194"><ele>373.6666666666667</ele><time>2026-04-26T18:11:42.133Z</time></trkpt><trkpt lat="32.8387344" lon="10.337521"><ele>373.3333333333333</ele><time>2026-04-26T18:11:43.121Z</time></trkpt><trkpt lat="32.838777" lon="10.3377145"><ele>373.0</ele><time>2026-04-26T18:11:44.126Z</time></trkpt><trkpt lat="32.838823" lon="10.337915"><ele>372.0</ele><time>2026-04-26T18:11:45.124Z</time></trkpt><trkpt lat="32.8388666" lon="10.3381217"><ele>371.0</ele><time>2026-04-26T18:11:46.13Z</time></trkpt><trkpt lat="32.8389168" lon="10.3383265"><ele>370.0</ele><time>2026-04-26T18:11:47.134Z</time></trkpt><trkpt lat="32.8389644" lon="10.3385344"><ele>370.0</ele><time>2026-04-26T18:11:48.13Z</time></trkpt><trkpt lat="32.8390146" lon="10.3387461"><ele>370.0</ele><time>2026-04-26T18:11:49.127Z</time></trkpt><trkpt lat="32.8390655" lon="10.3389561"><ele>370.0</ele><time>2026-04-26T18:11:50.139Z</time></trkpt><trkpt lat="32.8391156" lon="10.33917"><ele>370.0</ele><time>2026-04-26T18:11:51.131Z</time></trkpt><trkpt lat="32.8391672" lon="10.3393752"><ele>370.0</ele><time>2026-04-26T18:11:52.126Z</time></trkpt><trkpt lat="32.8392203" lon="10.3395842"><ele>370.0</ele><time>2026-04-26T18:11:53.139Z</time></trkpt><trkpt lat="32.8392773" lon="10.3397894"><ele>370.0</ele><time>2026-04-26T18:11:54.127Z</time></trkpt><trkpt lat="32.8393289" lon="10.3399978"><ele>370.0</ele><time>2026-04-26T18:11:55.122Z</time></trkpt><trkpt lat="32.8393822" lon="10.3402161"><ele>370.0</ele><time>2026-04-26T18:11:56.139Z</time></trkpt><trkpt lat="32.8394403" lon="10.3404297"><ele>368.0</ele><time>2026-04-26T18:11:57.139Z</time></trkpt><trkpt lat="32.839496" lon="10.3406445"><ele>366.0</ele><time>2026-04-26T18:11:58.156Z</time></trkpt><trkpt lat="32.8395583" lon="10.3408616"><ele>364.0</ele><time>2026-04-26T18:11:59.149Z</time></trkpt><trkpt lat="32.8396189" lon="10.3410835"><ele>364.0</ele><time>2026-04-26T18:12:00.134Z</time></trkpt><trkpt lat="32.8396762" lon="10.3413092"><ele>364.0</ele><time>2026-04-26T18:12:01.133Z</time></trkpt><trkpt lat="32.8397332" lon="10.3415262"><ele>364.0</ele><time>2026-04-26T18:12:02.145Z</time></trkpt><trkpt lat="32.8397819" lon="10.3417384"><ele>364.0</ele><time>2026-04-26T18:12:03.134Z</time></trkpt><trkpt lat="32.8398276" lon="10.341952"><ele>364.0</ele><time>2026-04-26T18:12:04.126Z</time></trkpt><trkpt lat="32.8398702" lon="10.3421623"><ele>364.0</ele><time>2026-04-26T18:12:05.129Z</time></trkpt><trkpt lat="32.8399108" lon="10.3423738"><ele>364.0</ele><time>2026-04-26T18:12:06.138Z</time></trkpt><trkpt lat="32.839959" lon="10.3425904"><ele>364.0</ele><time>2026-04-26T18:12:07.128Z</time></trkpt><trkpt lat="32.8400031" lon="10.3428008"><ele>364.0</ele><time>2026-04-26T18:12:08.13Z</time></trkpt><trkpt lat="32.8400402" lon="10.3430123"><ele>364.0</ele><time>2026-04-26T18:12:09.125Z</time></trkpt><trkpt lat="32.8400834" lon="10.3432263"><ele>364.0</ele><time>2026-04-26T18:12:10.132Z</time></trkpt><trkpt lat="32.8401189" lon="10.3434466"><ele>364.0</ele><time>2026-04-26T18:12:11.137Z</time></trkpt><trkpt lat="32.8401487" lon="10.3436626"><ele>364.0</ele><time>2026-04-26T18:12:12.138Z</time></trkpt><trkpt lat="32.840177" lon="10.3438769"><ele>364.0</ele><time>2026-04-26T18:12:13.138Z</time></trkpt><trkpt lat="32.8402082" lon="10.3441022"><ele>364.0</ele><time>2026-04-26T18:12:14.134Z</time></trkpt><trkpt lat="32.8402387" lon="10.3443232"><ele>362.0</ele><time>2026-04-26T18:12:15.153Z</time></trkpt><trkpt lat="32.8402717" lon="10.3445463"><ele>360.0</ele><time>2026-04-26T18:12:16.138Z</time></trkpt><trkpt lat="32.8403106" lon="10.3447693"><ele>358.0</ele><time>2026-04-26T18:12:17.139Z</time></trkpt><trkpt lat="32.8403421" lon="10.3449917"><ele>358.0</ele><time>2026-04-26T18:12:18.121Z</time></trkpt><trkpt lat="32.840376" lon="10.3452121"><ele>358.0</ele><time>2026-04-26T18:12:19.128Z</time></trkpt><trkpt lat="32.8404069" lon="10.3454304"><ele>358.0</ele><time>2026-04-26T18:12:20.128Z</time></trkpt><trkpt lat="32.8404328" lon="10.3456299"><ele>357.3333333333333</ele><time>2026-04-26T18:12:21.135Z</time></trkpt><trkpt lat="32.8404642" lon="10.345818"><ele>356.6666666666667</ele><time>2026-04-26T18:12:22.14Z</time></trkpt><trkpt lat="32.8404994" lon="10.3460049"><ele>356.0</ele><time>2026-04-26T18:12:23.13Z</time></trkpt><trkpt lat="32.8405412" lon="10.3461939"><ele>355.0</ele><time>2026-04-26T18:12:24.131Z</time></trkpt><trkpt lat="32.8405962" lon="10.3463879"><ele>354.0</ele><time>2026-04-26T18:12:25.147Z</time></trkpt><trkpt lat="32.8406666" lon="10.3465763"><ele>353.0</ele><time>2026-04-26T18:12:26.135Z</time></trkpt><trkpt lat="32.8407412" lon="10.346763"><ele>353.0</ele><time>2026-04-26T18:12:27.144Z</time></trkpt><trkpt lat="32.8408254" lon="10.3469498"><ele>353.0</ele><time>2026-04-26T18:12:28.134Z</time></trkpt><trkpt lat="32.8409161" lon="10.3471342"><ele>353.0</ele><time>2026-04-26T18:12:29.131Z</time></trkpt><trkpt lat="32.8410023" lon="10.3473061"><ele>353.33333333333337</ele><time>2026-04-26T18:12:30.132Z</time></trkpt><trkpt lat="32.8410892" lon="10.3474726"><ele>353.6666666666667</ele><time>2026-04-26T18:12:31.126Z</time></trkpt><trkpt lat="32.8411764" lon="10.3476396"><ele>354.0</ele><time>2026-04-26T18:12:32.132Z</time></trkpt><trkpt lat="32.8412699" lon="10.3478125"><ele>354.0</ele><time>2026-04-26T18:12:33.135Z</time></trkpt><trkpt lat="32.8413714" lon="10.3480026"><ele>354.0</ele><time>2026-04-26T18:12:34.142Z</time></trkpt><trkpt lat="32.8414747" lon="10.3481962"><ele>354.0</ele><time>2026-04-26T18:12:35.134Z</time></trkpt><trkpt lat="32.8415729" lon="10.3483904"><ele>353.6666666666667</ele><time>2026-04-26T18:12:36.15Z</time></trkpt><trkpt lat="32.8416669" lon="10.3485871"><ele>353.33333333333337</ele><time>2026-04-26T18:12:37.134Z</time></trkpt><trkpt lat="32.8417597" lon="10.3487746"><ele>353.0</ele><time>2026-04-26T18:12:38.143Z</time></trkpt><trkpt lat="32.8418542" lon="10.3489649"><ele>352.33333333333337</ele><time>2026-04-26T18:12:39.131Z</time></trkpt><trkpt lat="32.8419469" lon="10.349157"><ele>351.6666666666667</ele><time>2026-04-26T18:12:40.135Z</time></trkpt><trkpt lat="32.842037" lon="10.3493436"><ele>351.0</ele><time>2026-04-26T18:12:41.14Z</time></trkpt><trkpt lat="32.8421242" lon="10.349531"><ele>350.0</ele><time>2026-04-26T18:12:42.13Z</time></trkpt><trkpt lat="32.8422127" lon="10.349719"><ele>349.0</ele><time>2026-04-26T18:12:43.128Z</time></trkpt><trkpt lat="32.8422985" lon="10.3498998"><ele>348.0</ele><time>2026-04-26T18:12:44.132Z</time></trkpt><trkpt lat="32.8423782" lon="10.3500646"><ele>348.0</ele><time>2026-04-26T18:12:45.139Z</time></trkpt><trkpt lat="32.8424618" lon="10.3502361"><ele>348.0</ele><time>2026-04-26T18:12:46.132Z</time></trkpt><trkpt lat="32.842547" lon="10.3504088"><ele>348.0</ele><time>2026-04-26T18:12:47.137Z</time></trkpt><trkpt lat="32.8426298" lon="10.3505874"><ele>348.0</ele><time>2026-04-26T18:12:48.124Z</time></trkpt><trkpt lat="32.8427117" lon="10.3507635"><ele>348.0</ele><time>2026-04-26T18:12:49.137Z</time></trkpt><trkpt lat="32.8427933" lon="10.3509307"><ele>348.0</ele><time>2026-04-26T18:12:50.149Z</time></trkpt><trkpt lat="32.8428761" lon="10.3510999"><ele>348.0</ele><time>2026-04-26T18:12:51.13Z</time></trkpt><trkpt lat="32.84296" lon="10.3512593"><ele>348.0</ele><time>2026-04-26T18:12:52.137Z</time></trkpt><trkpt lat="32.8430406" lon="10.3514202"><ele>348.0</ele><time>2026-04-26T18:12:53.137Z</time></trkpt><trkpt lat="32.8431273" lon="10.3515827"><ele>346.6666666666667</ele><time>2026-04-26T18:12:54.125Z</time></trkpt><trkpt lat="32.8432153" lon="10.3517273"><ele>345.33333333333337</ele><time>2026-04-26T18:12:55.138Z</time></trkpt><trkpt lat="32.8433138" lon="10.3518708"><ele>344.0</ele><time>2026-04-26T18:12:56.154Z</time></trkpt><trkpt lat="32.8434296" lon="10.352"><ele>344.0</ele><time>2026-04-26T18:12:57.144Z</time></trkpt><trkpt lat="32.8435645" lon="10.3521182"><ele>344.0</ele><time>2026-04-26T18:12:58.141Z</time></trkpt><trkpt lat="32.8437097" lon="10.3522243"><ele>344.0</ele><time>2026-04-26T18:12:59.136Z</time></trkpt><trkpt lat="32.8438633" lon="10.3523327"><ele>344.0</ele><time>2026-04-26T18:13:00.127Z</time></trkpt><trkpt lat="32.8440191" lon="10.3524512"><ele>344.0</ele><time>2026-04-26T18:13:01.124Z</time></trkpt><trkpt lat="32.8441628" lon="10.352582"><ele>344.0</ele><time>2026-04-26T18:13:02.142Z</time></trkpt><trkpt lat="32.8442966" lon="10.3527176"><ele>343.6666666666667</ele><time>2026-04-26T18:13:03.138Z</time></trkpt><trkpt lat="32.8444335" lon="10.3528696"><ele>343.3333333333333</ele><time>2026-04-26T18:13:04.141Z</time></trkpt><trkpt lat="32.8445667" lon="10.3530297"><ele>343.0</ele><time>2026-04-26T18:13:05.135Z</time></trkpt><trkpt lat="32.8447001" lon="10.3531917"><ele>343.0</ele><time>2026-04-26T18:13:06.128Z</time></trkpt><trkpt lat="32.8448374" lon="10.3533576"><ele>343.0</ele><time>2026-04-26T18:13:07.14Z</time></trkpt><trkpt lat="32.8449767" lon="10.3535203"><ele>343.0</ele><time>2026-04-26T18:13:08.129Z</time></trkpt><trkpt lat="32.8451192" lon="10.3536819"><ele>343.0</ele><time>2026-04-26T18:13:09.132Z</time></trkpt><trkpt lat="32.8452616" lon="10.3538397"><ele>343.0</ele><time>2026-04-26T18:13:10.122Z</time></trkpt><trkpt lat="32.8454001" lon="10.3539935"><ele>343.0</ele><time>2026-04-26T18:13:11.128Z</time></trkpt><trkpt lat="32.8455336" lon="10.3541457"><ele>342.3333333333333</ele><time>2026-04-26T18:13:12.129Z</time></trkpt><trkpt lat="32.8456645" lon="10.3543007"><ele>341.6666666666667</ele><time>2026-04-26T18:13:13.13Z</time></trkpt><trkpt lat="32.8457967" lon="10.3544513"><ele>341.0</ele><time>2026-04-26T18:13:14.134Z</time></trkpt><trkpt lat="32.8459308" lon="10.3545928"><ele>340.0</ele><time>2026-04-26T18:13:15.123Z</time></trkpt><trkpt lat="32.8460591" lon="10.3547349"><ele>339.0</ele><time>2026-04-26T18:13:16.132Z</time></trkpt><trkpt lat="32.8461888" lon="10.3548737"><ele>338.0</ele><time>2026-04-26T18:13:17.148Z</time></trkpt><trkpt lat="32.8463261" lon="10.3550169"><ele>338.0</ele><time>2026-04-26T18:13:18.14Z</time></trkpt><trkpt lat="32.8464627" lon="10.3551665"><ele>338.0</ele><time>2026-04-26T18:13:19.14Z</time></trkpt><trkpt lat="32.8466001" lon="10.3553143"><ele>338.0</ele><time>2026-04-26T18:13:20.118Z</time></trkpt><trkpt lat="32.8467372" lon="10.355469"><ele>338.0</ele><time>2026-04-26T18:13:21.15Z</time></trkpt><trkpt lat="32.8468716" lon="10.3556295"><ele>338.0</ele><time>2026-04-26T18:13:22.132Z</time></trkpt><trkpt lat="32.8469996" lon="10.3557817"><ele>338.0</ele><time>2026-04-26T18:13:23.132Z</time></trkpt><trkpt lat="32.8471369" lon="10.3559373"><ele>338.0</ele><time>2026-04-26T18:13:24.135Z</time></trkpt><trkpt lat="32.8472747" lon="10.3560915"><ele>338.0</ele><time>2026-04-26T18:13:25.138Z</time></trkpt><trkpt lat="32.8474134" lon="10.3562456"><ele>338.0</ele><time>2026-04-26T18:13:26.132Z</time></trkpt><trkpt lat="32.84755" lon="10.356409"><ele>337.0</ele><time>2026-04-26T18:13:27.132Z</time></trkpt><trkpt lat="32.847687" lon="10.3565682"><ele>336.0</ele><time>2026-04-26T18:13:28.138Z</time></trkpt><trkpt lat="32.8478222" lon="10.3567282"><ele>335.0</ele><time>2026-04-26T18:13:29.135Z</time></trkpt><trkpt lat="32.847956" lon="10.3568848"><ele>335.0</ele><time>2026-04-26T18:13:30.124Z</time></trkpt><trkpt lat="32.8480883" lon="10.3570407"><ele>335.0</ele><time>2026-04-26T18:13:31.124Z</time></trkpt><trkpt lat="32.8482201" lon="10.3572018"><ele>335.0</ele><time>2026-04-26T18:13:32.13Z</time></trkpt><trkpt lat="32.8483482" lon="10.3573588"><ele>334.33333333333337</ele><time>2026-04-26T18:13:33.14Z</time></trkpt><trkpt lat="32.8484769" lon="10.3575158"><ele>333.6666666666667</ele><time>2026-04-26T18:13:34.127Z</time></trkpt><trkpt lat="32.8486042" lon="10.3576791"><ele>333.0</ele><time>2026-04-26T18:13:35.124Z</time></trkpt><trkpt lat="32.8487281" lon="10.3578373"><ele>333.0</ele><time>2026-04-26T18:13:36.13Z</time></trkpt><trkpt lat="32.8488525" lon="10.3579959"><ele>333.0</ele><time>2026-04-26T18:13:37.134Z</time></trkpt><trkpt lat="32.8489662" lon="10.3581476"><ele>333.0</ele><time>2026-04-26T18:13:38.129Z</time></trkpt><trkpt lat="32.8490871" lon="10.3583016"><ele>332.0</ele><time>2026-04-26T18:13:39.148Z</time></trkpt><trkpt lat="32.8491998" lon="10.3584569"><ele>331.0</ele><time>2026-04-26T18:13:40.13Z</time></trkpt><trkpt lat="32.8493233" lon="10.3586124"><ele>330.0</ele><time>2026-04-26T18:13:41.142Z</time></trkpt><trkpt lat="32.8494481" lon="10.3587647"><ele>329.6666666666667</ele><time>2026-04-26T18:13:42.123Z</time></trkpt><trkpt lat="32.8495749" lon="10.35892"><ele>329.33333333333337</ele><time>2026-04-26T18:13:43.129Z</time></trkpt><trkpt lat="32.8497015" lon="10.3590737"><ele>329.0</ele><time>2026-04-26T18:13:44.128Z</time></trkpt><trkpt lat="32.8498263" lon="10.3592282"><ele>329.0</ele><time>2026-04-26T18:13:45.13Z</time></trkpt><trkpt lat="32.8499573" lon="10.3593848"><ele>329.0</ele><time>2026-04-26T18:13:46.13Z</time></trkpt><trkpt lat="32.8500902" lon="10.3595365"><ele>329.0</ele><time>2026-04-26T18:13:47.133Z</time></trkpt><trkpt lat="32.8502177" lon="10.3596863"><ele>328.6666666666667</ele><time>2026-04-26T18:13:48.14Z</time></trkpt><trkpt lat="32.8503431" lon="10.3598365"><ele>328.3333333333333</ele><time>2026-04-26T18:13:49.144Z</time></trkpt><trkpt lat="32.8504641" lon="10.359984"><ele>328.0</ele><time>2026-04-26T18:13:50.132Z</time></trkpt><trkpt lat="32.8505893" lon="10.3601303"><ele>328.0</ele><time>2026-04-26T18:13:51.127Z</time></trkpt><trkpt lat="32.8507169" lon="10.3602726"><ele>328.0</ele><time>2026-04-26T18:13:52.131Z</time></trkpt><trkpt lat="32.8508452" lon="10.3604136"><ele>328.0</ele><time>2026-04-26T18:13:53.139Z</time></trkpt><trkpt lat="32.8509823" lon="10.3605596"><ele>327.66666666666663</ele><time>2026-04-26T18:13:54.135Z</time></trkpt><trkpt lat="32.8511149" lon="10.3606969"><ele>327.3333333333333</ele><time>2026-04-26T18:13:55.145Z</time></trkpt><trkpt lat="32.8512462" lon="10.3608389"><ele>327.0</ele><time>2026-04-26T18:13:56.15Z</time></trkpt><trkpt lat="32.8513759" lon="10.3609811"><ele>327.0</ele><time>2026-04-26T18:13:57.13Z</time></trkpt><trkpt lat="32.8515069" lon="10.3611286"><ele>327.0</ele><time>2026-04-26T18:13:58.133Z</time></trkpt><trkpt lat="32.851636" lon="10.3612741"><ele>327.0</ele><time>2026-04-26T18:13:59.132Z</time></trkpt><trkpt lat="32.8517624" lon="10.3614157"><ele>326.6666666666667</ele><time>2026-04-26T18:14:00.151Z</time></trkpt><trkpt lat="32.8518987" lon="10.3615587"><ele>326.33333333333337</ele><time>2026-04-26T18:14:01.137Z</time></trkpt><trkpt lat="32.8520326" lon="10.3616989"><ele>326.0</ele><time>2026-04-26T18:14:02.135Z</time></trkpt><trkpt lat="32.8521655" lon="10.3618454"><ele>326.0</ele><time>2026-04-26T18:14:03.128Z</time></trkpt><trkpt lat="32.8522948" lon="10.36199"><ele>326.0</ele><time>2026-04-26T18:14:04.131Z</time></trkpt><trkpt lat="32.8524229" lon="10.3621341"><ele>326.0</ele><time>2026-04-26T18:14:05.128Z</time></trkpt><trkpt lat="32.8525526" lon="10.3622715"><ele>325.33333333333337</ele><time>2026-04-26T18:14:06.126Z</time></trkpt><trkpt lat="32.8526813" lon="10.3624082"><ele>324.6666666666667</ele><time>2026-04-26T18:14:07.133Z</time></trkpt><trkpt lat="32.8528063" lon="10.3625491"><ele>324.0</ele><time>2026-04-26T18:14:08.133Z</time></trkpt><trkpt lat="32.8529361" lon="10.3626942"><ele>324.0</ele><time>2026-04-26T18:14:09.135Z</time></trkpt><trkpt lat="32.8530678" lon="10.3628366"><ele>324.0</ele><time>2026-04-26T18:14:10.124Z</time></trkpt><trkpt lat="32.853198" lon="10.3629723"><ele>324.0</ele><time>2026-04-26T18:14:11.131Z</time></trkpt><trkpt lat="32.8533329" lon="10.3631133"><ele>323.6666666666667</ele><time>2026-04-26T18:14:12.136Z</time></trkpt><trkpt lat="32.8534638" lon="10.36325"><ele>323.33333333333337</ele><time>2026-04-26T18:14:13.129Z</time></trkpt><trkpt lat="32.8535979" lon="10.3633872"><ele>323.0</ele><time>2026-04-26T18:14:14.132Z</time></trkpt><trkpt lat="32.8537324" lon="10.3635221"><ele>323.0</ele><time>2026-04-26T18:14:15.133Z</time></trkpt><trkpt lat="32.8538656" lon="10.3636658"><ele>323.0</ele><time>2026-04-26T18:14:16.129Z</time></trkpt><trkpt lat="32.853999" lon="10.3638101"><ele>323.0</ele><time>2026-04-26T18:14:17.146Z</time></trkpt><trkpt lat="32.8541342" lon="10.3639504"><ele>322.0</ele><time>2026-04-26T18:14:18.135Z</time></trkpt><trkpt lat="32.8542677" lon="10.3640919"><ele>321.0</ele><time>2026-04-26T18:14:19.132Z</time></trkpt><trkpt lat="32.8543971" lon="10.3642344"><ele>320.0</ele><time>2026-04-26T18:14:20.127Z</time></trkpt><trkpt lat="32.854524" lon="10.3643745"><ele>319.6666666666667</ele><time>2026-04-26T18:14:21.13Z</time></trkpt><trkpt lat="32.8546547" lon="10.364515"><ele>319.3333333333333</ele><time>2026-04-26T18:14:22.135Z</time></trkpt><trkpt lat="32.8547858" lon="10.3646584"><ele>319.0</ele><time>2026-04-26T18:14:23.135Z</time></trkpt><trkpt lat="32.8549197" lon="10.3647998"><ele>319.0</ele><time>2026-04-26T18:14:24.14Z</time></trkpt><trkpt lat="32.8550559" lon="10.3649404"><ele>319.0</ele><time>2026-04-26T18:14:25.144Z</time></trkpt><trkpt lat="32.8551917" lon="10.365083"><ele>319.0</ele><time>2026-04-26T18:14:26.136Z</time></trkpt><trkpt lat="32.8553264" lon="10.3652267"><ele>319.3333333333333</ele><time>2026-04-26T18:14:27.13Z</time></trkpt><trkpt lat="32.8554574" lon="10.3653754"><ele>319.6666666666667</ele><time>2026-04-26T18:14:28.13Z</time></trkpt><trkpt lat="32.8555833" lon="10.365527"><ele>320.0</ele><time>2026-04-26T18:14:29.136Z</time></trkpt><trkpt lat="32.855709" lon="10.3656777"><ele>319.33333333333337</ele><time>2026-04-26T18:14:30.136Z</time></trkpt><trkpt lat="32.8558317" lon="10.3658247"><ele>318.6666666666667</ele><time>2026-04-26T18:14:31.126Z</time></trkpt><trkpt lat="32.8559507" lon="10.3659746"><ele>318.0</ele><time>2026-04-26T18:14:32.132Z</time></trkpt><trkpt lat="32.8560746" lon="10.3661157"><ele>318.0</ele><time>2026-04-26T18:14:33.132Z</time></trkpt><trkpt lat="32.8561954" lon="10.3662598"><ele>318.0</ele><time>2026-04-26T18:14:34.15Z</time></trkpt><trkpt lat="32.8563203" lon="10.3664045"><ele>318.0</ele><time>2026-04-26T18:14:35.125Z</time></trkpt><trkpt lat="32.8564435" lon="10.3665551"><ele>318.0</ele><time>2026-04-26T18:14:36.126Z</time></trkpt><trkpt lat="32.8565607" lon="10.3667049"><ele>318.0</ele><time>2026-04-26T18:14:37.125Z</time></trkpt><trkpt lat="32.8566761" lon="10.3668513"><ele>318.0</ele><time>2026-04-26T18:14:38.16Z</time></trkpt><trkpt lat="32.8567942" lon="10.3670011"><ele>317.6666666666667</ele><time>2026-04-26T18:14:39.145Z</time></trkpt><trkpt lat="32.8569153" lon="10.3671451"><ele>317.33333333333337</ele><time>2026-04-26T18:14:40.135Z</time></trkpt><trkpt lat="32.8570354" lon="10.3672876"><ele>317.0</ele><time>2026-04-26T18:14:41.149Z</time></trkpt><trkpt lat="32.8571542" lon="10.3674151"><ele>316.6666666666667</ele><time>2026-04-26T18:14:42.141Z</time></trkpt><trkpt lat="32.8572785" lon="10.3675381"><ele>316.3333333333333</ele><time>2026-04-26T18:14:43.142Z</time></trkpt><trkpt lat="32.8574069" lon="10.3676548"><ele>316.0</ele><time>2026-04-26T18:14:44.128Z</time></trkpt><trkpt lat="32.8575366" lon="10.3677675"><ele>316.0</ele><time>2026-04-26T18:14:45.127Z</time></trkpt><trkpt lat="32.8576817" lon="10.3678722"><ele>316.0</ele><time>2026-04-26T18:14:46.137Z</time></trkpt><trkpt lat="32.8578276" lon="10.3679764"><ele>316.0</ele><time>2026-04-26T18:14:47.149Z</time></trkpt><trkpt lat="32.8579791" lon="10.3680773"><ele>315.66666666666663</ele><time>2026-04-26T18:14:48.139Z</time></trkpt><trkpt lat="32.8581295" lon="10.3681817"><ele>315.3333333333333</ele><time>2026-04-26T18:14:49.131Z</time></trkpt><trkpt lat="32.8582797" lon="10.368291"><ele>315.0</ele><time>2026-04-26T18:14:50.121Z</time></trkpt><trkpt lat="32.8584319" lon="10.3683995"><ele>314.6666666666667</ele><time>2026-04-26T18:14:51.129Z</time></trkpt><trkpt lat="32.8585829" lon="10.3685104"><ele>314.33333333333337</ele><time>2026-04-26T18:14:52.127Z</time></trkpt><trkpt lat="32.8587324" lon="10.3686206"><ele>314.0</ele><time>2026-04-26T18:14:53.129Z</time></trkpt><trkpt lat="32.8588755" lon="10.3687228"><ele>314.0</ele><time>2026-04-26T18:14:54.127Z</time></trkpt><trkpt lat="32.859023" lon="10.3688321"><ele>314.0</ele><time>2026-04-26T18:14:55.149Z</time></trkpt><trkpt lat="32.8591752" lon="10.3689409"><ele>314.0</ele><time>2026-04-26T18:14:56.124Z</time></trkpt><trkpt lat="32.8593277" lon="10.3690529"><ele>313.6666666666667</ele><time>2026-04-26T18:14:57.148Z</time></trkpt><trkpt lat="32.8594769" lon="10.3691589"><ele>313.3333333333333</ele><time>2026-04-26T18:14:58.124Z</time></trkpt><trkpt lat="32.859631" lon="10.3692774"><ele>313.0</ele><time>2026-04-26T18:14:59.139Z</time></trkpt><trkpt lat="32.8597855" lon="10.3693864"><ele>313.0</ele><time>2026-04-26T18:15:00.168Z</time></trkpt><trkpt lat="32.8599382" lon="10.3695011"><ele>313.0</ele><time>2026-04-26T18:15:01.136Z</time></trkpt><trkpt lat="32.860094" lon="10.3696169"><ele>313.0</ele><time>2026-04-26T18:15:02.145Z</time></trkpt><trkpt lat="32.860252" lon="10.3697222"><ele>312.3333333333333</ele><time>2026-04-26T18:15:03.133Z</time></trkpt><trkpt lat="32.8604097" lon="10.369829"><ele>311.6666666666667</ele><time>2026-04-26T18:15:04.158Z</time></trkpt><trkpt lat="32.8605685" lon="10.3699354"><ele>311.0</ele><time>2026-04-26T18:15:05.125Z</time></trkpt><trkpt lat="32.8607239" lon="10.3700427"><ele>311.0</ele><time>2026-04-26T18:15:06.155Z</time></trkpt><trkpt lat="32.8608847" lon="10.3701483"><ele>311.0</ele><time>2026-04-26T18:15:07.125Z</time></trkpt><trkpt lat="32.8610411" lon="10.3702527"><ele>311.0</ele><time>2026-04-26T18:15:08.124Z</time></trkpt><trkpt lat="32.8612056" lon="10.3703569"><ele>311.33333333333337</ele><time>2026-04-26T18:15:09.134Z</time></trkpt><trkpt lat="32.8613668" lon="10.3704608"><ele>311.6666666666667</ele><time>2026-04-26T18:15:10.136Z</time></trkpt><trkpt lat="32.8615243" lon="10.3705614"><ele>312.0</ele><time>2026-04-26T18:15:11.127Z</time></trkpt><trkpt lat="32.8616826" lon="10.3706616"><ele>311.6666666666667</ele><time>2026-04-26T18:15:12.133Z</time></trkpt><trkpt lat="32.8618405" lon="10.3707657"><ele>311.33333333333337</ele><time>2026-04-26T18:15:13.136Z</time></trkpt><trkpt lat="32.861998" lon="10.3708741"><ele>311.0</ele><time>2026-04-26T18:15:14.122Z</time></trkpt><trkpt lat="32.8621509" lon="10.3709865"><ele>311.0</ele><time>2026-04-26T18:15:15.134Z</time></trkpt><trkpt lat="32.8623065" lon="10.3710979"><ele>311.0</ele><time>2026-04-26T18:15:16.147Z</time></trkpt><trkpt lat="32.8624624" lon="10.3712186"><ele>311.0</ele><time>2026-04-26T18:15:17.134Z</time></trkpt><trkpt lat="32.862611" lon="10.3713341"><ele>310.6666666666667</ele><time>2026-04-26T18:15:18.128Z</time></trkpt><trkpt lat="32.8627632" lon="10.3714508"><ele>310.3333333333333</ele><time>2026-04-26T18:15:19.145Z</time></trkpt><trkpt lat="32.8629118" lon="10.3715719"><ele>310.0</ele><time>2026-04-26T18:15:20.131Z</time></trkpt><trkpt lat="32.8630625" lon="10.3716857"><ele>310.0</ele><time>2026-04-26T18:15:21.131Z</time></trkpt><trkpt lat="32.863212" lon="10.3718059"><ele>310.0</ele><time>2026-04-26T18:15:22.137Z</time></trkpt><trkpt lat="32.8633661" lon="10.3719191"><ele>310.0</ele><time>2026-04-26T18:15:23.128Z</time></trkpt><trkpt lat="32.8635162" lon="10.3720285"><ele>310.66666666666663</ele><time>2026-04-26T18:15:24.133Z</time></trkpt><trkpt lat="32.8636673" lon="10.3721311"><ele>311.3333333333333</ele><time>2026-04-26T18:15:25.136Z</time></trkpt><trkpt lat="32.8638245" lon="10.3722352"><ele>312.0</ele><time>2026-04-26T18:15:26.124Z</time></trkpt><trkpt lat="32.8639872" lon="10.3723275"><ele>311.0</ele><time>2026-04-26T18:15:27.125Z</time></trkpt><trkpt lat="32.8641553" lon="10.3724145"><ele>310.0</ele><time>2026-04-26T18:15:28.154Z</time></trkpt><trkpt lat="32.8643224" lon="10.3724914"><ele>309.0</ele><time>2026-04-26T18:15:29.129Z</time></trkpt><trkpt lat="32.8644904" lon="10.3725688"><ele>309.0</ele><time>2026-04-26T18:15:30.137Z</time></trkpt><trkpt lat="32.8646632" lon="10.3726412"><ele>309.0</ele><time>2026-04-26T18:15:31.134Z</time></trkpt><trkpt lat="32.8648299" lon="10.3727181"><ele>309.0</ele><time>2026-04-26T18:15:32.135Z</time></trkpt><trkpt lat="32.8650005" lon="10.3727897"><ele>309.3333333333333</ele><time>2026-04-26T18:15:33.138Z</time></trkpt><trkpt lat="32.8651665" lon="10.3728624"><ele>309.66666666666663</ele><time>2026-04-26T18:15:34.133Z</time></trkpt><trkpt lat="32.8653338" lon="10.3729389"><ele>310.0</ele><time>2026-04-26T18:15:35.149Z</time></trkpt><trkpt lat="32.8654983" lon="10.3730226"><ele>309.3333333333333</ele><time>2026-04-26T18:15:36.127Z</time></trkpt><trkpt lat="32.865658" lon="10.3731166"><ele>308.6666666666667</ele><time>2026-04-26T18:15:37.133Z</time></trkpt><trkpt lat="32.865816" lon="10.3732197"><ele>308.0</ele><time>2026-04-26T18:15:38.129Z</time></trkpt><trkpt lat="32.8659659" lon="10.3733362"><ele>307.6666666666667</ele><time>2026-04-26T18:15:39.136Z</time></trkpt><trkpt lat="32.866116" lon="10.3734552"><ele>307.3333333333333</ele><time>2026-04-26T18:15:40.143Z</time></trkpt><trkpt lat="32.8662602" lon="10.3735804"><ele>307.0</ele><time>2026-04-26T18:15:41.133Z</time></trkpt><trkpt lat="32.8663987" lon="10.3737047"><ele>307.0</ele><time>2026-04-26T18:15:42.134Z</time></trkpt><trkpt lat="32.8665433" lon="10.3738335"><ele>307.0</ele><time>2026-04-26T18:15:43.137Z</time></trkpt><trkpt lat="32.866694" lon="10.3739655"><ele>307.0</ele><time>2026-04-26T18:15:44.135Z</time></trkpt><trkpt lat="32.8668498" lon="10.374089"><ele>306.66666666666663</ele><time>2026-04-26T18:15:45.134Z</time></trkpt><trkpt lat="32.8670001" lon="10.3742101"><ele>306.3333333333333</ele><time>2026-04-26T18:15:46.14Z</time></trkpt><trkpt lat="32.8671516" lon="10.3743285"><ele>306.0</ele><time>2026-04-26T18:15:47.15Z</time></trkpt><trkpt lat="32.8672975" lon="10.374448"><ele>306.0</ele><time>2026-04-26T18:15:48.128Z</time></trkpt><trkpt lat="32.8674376" lon="10.3745657"><ele>306.0</ele><time>2026-04-26T18:15:49.129Z</time></trkpt><trkpt lat="32.8675739" lon="10.3746882"><ele>306.0</ele><time>2026-04-26T18:15:50.128Z</time></trkpt><trkpt lat="32.8677065" lon="10.3748299"><ele>305.0</ele><time>2026-04-26T18:15:51.149Z</time></trkpt><trkpt lat="32.867833" lon="10.3749847"><ele>304.0</ele><time>2026-04-26T18:15:52.127Z</time></trkpt><trkpt lat="32.8679467" lon="10.3751443"><ele>303.0</ele><time>2026-04-26T18:15:53.136Z</time></trkpt><trkpt lat="32.8680691" lon="10.3753057"><ele>303.0</ele><time>2026-04-26T18:15:54.141Z</time></trkpt><trkpt lat="32.8681934" lon="10.3754685"><ele>303.0</ele><time>2026-04-26T18:15:55.119Z</time></trkpt><trkpt lat="32.8683192" lon="10.3756415"><ele>303.0</ele><time>2026-04-26T18:15:56.147Z</time></trkpt><trkpt lat="32.8684474" lon="10.3758202"><ele>301.0</ele><time>2026-04-26T18:15:57.122Z</time></trkpt><trkpt lat="32.8685801" lon="10.375989"><ele>299.0</ele><time>2026-04-26T18:15:58.146Z</time></trkpt><trkpt lat="32.8687098" lon="10.3761549"><ele>297.0</ele><time>2026-04-26T18:15:59.124Z</time></trkpt><trkpt lat="32.8688399" lon="10.3763144"><ele>296.6666666666667</ele><time>2026-04-26T18:16:00.141Z</time></trkpt><trkpt lat="32.8689688" lon="10.3764686"><ele>296.33333333333337</ele><time>2026-04-26T18:16:01.162Z</time></trkpt><trkpt lat="32.8690955" lon="10.3766217"><ele>296.0</ele><time>2026-04-26T18:16:02.133Z</time></trkpt><trkpt lat="32.8692167" lon="10.3767719"><ele>295.6666666666667</ele><time>2026-04-26T18:16:03.145Z</time></trkpt><trkpt lat="32.8693378" lon="10.3769255"><ele>295.3333333333333</ele><time>2026-04-26T18:16:04.132Z</time></trkpt><trkpt lat="32.8694526" lon="10.3770735"><ele>295.0</ele><time>2026-04-26T18:16:05.133Z</time></trkpt><trkpt lat="32.8695654" lon="10.3772075"><ele>296.0</ele><time>2026-04-26T18:16:06.128Z</time></trkpt><trkpt lat="32.8696694" lon="10.3773356"><ele>297.0</ele><time>2026-04-26T18:16:07.126Z</time></trkpt><trkpt lat="32.8697661" lon="10.3774617"><ele>298.0</ele><time>2026-04-26T18:16:08.13Z</time></trkpt><trkpt lat="32.8698575" lon="10.3775795"><ele>299.0</ele><time>2026-04-26T18:16:09.124Z</time></trkpt><trkpt lat="32.869947" lon="10.3776959"><ele>299.0</ele><time>2026-04-26T18:16:10.154Z</time></trkpt><trkpt lat="32.8700358" lon="10.3778052"><ele>299.0</ele><time>2026-04-26T18:16:11.131Z</time></trkpt><trkpt lat="32.8701301" lon="10.3779149"><ele>299.0</ele><time>2026-04-26T18:16:12.14Z</time></trkpt><trkpt lat="32.8702227" lon="10.378023"><ele>299.0</ele><time>2026-04-26T18:16:13.155Z</time></trkpt><trkpt lat="32.8703132" lon="10.3781332"><ele>298.75</ele><time>2026-04-26T18:16:14.126Z</time></trkpt><trkpt lat="32.8704045" lon="10.37825"><ele>298.5</ele><time>2026-04-26T18:16:15.134Z</time></trkpt><trkpt lat="32.8704926" lon="10.378358"><ele>298.25</ele><time>2026-04-26T18:16:16.122Z</time></trkpt><trkpt lat="32.870579" lon="10.3784692"><ele>298.0</ele><time>2026-04-26T18:16:17.14Z</time></trkpt><trkpt lat="32.8706701" lon="10.3785759"><ele>298.0</ele><time>2026-04-26T18:16:18.124Z</time></trkpt><trkpt lat="32.8707587" lon="10.3786816"><ele>298.0</ele><time>2026-04-26T18:16:19.135Z</time></trkpt><trkpt lat="32.8708486" lon="10.3787881"><ele>298.0</ele><time>2026-04-26T18:16:20.156Z</time></trkpt><trkpt lat="32.8709296" lon="10.3788937"><ele>298.0</ele><time>2026-04-26T18:16:21.129Z</time></trkpt><trkpt lat="32.8710088" lon="10.378991"><ele>297.8</ele><time>2026-04-26T18:16:22.126Z</time></trkpt><trkpt lat="32.8710839" lon="10.3790819"><ele>297.6</ele><time>2026-04-26T18:16:23.131Z</time></trkpt><trkpt lat="32.8711562" lon="10.3791728"><ele>297.4</ele><time>2026-04-26T18:16:24.133Z</time></trkpt><trkpt lat="32.8712192" lon="10.3792546"><ele>297.2</ele><time>2026-04-26T18:16:25.135Z</time></trkpt><trkpt lat="32.8712753" lon="10.379331"><ele>297.0</ele><time>2026-04-26T18:16:26.139Z</time></trkpt><trkpt lat="32.8713366" lon="10.379411"><ele>297.0</ele><time>2026-04-26T18:16:27.14Z</time></trkpt><trkpt lat="32.8714027" lon="10.3794932"><ele>297.0</ele><time>2026-04-26T18:16:28.15Z</time></trkpt><trkpt lat="32.8714706" lon="10.3795778"><ele>297.0</ele><time>2026-04-26T18:16:29.158Z</time></trkpt><trkpt lat="32.871543" lon="10.379671"><ele>297.0</ele><time>2026-04-26T18:16:30.133Z</time></trkpt><trkpt lat="32.8716216" lon="10.3797607"><ele>297.0</ele><time>2026-04-26T18:16:31.127Z</time></trkpt><trkpt lat="32.8716986" lon="10.3798504"><ele>296.6</ele><time>2026-04-26T18:16:32.124Z</time></trkpt><trkpt lat="32.8717731" lon="10.3799457"><ele>296.2</ele><time>2026-04-26T18:16:33.142Z</time></trkpt><trkpt lat="32.8718463" lon="10.3800309"><ele>295.8</ele><time>2026-04-26T18:16:34.134Z</time></trkpt><trkpt lat="32.8719136" lon="10.3801211"><ele>295.4</ele><time>2026-04-26T18:16:35.172Z</time></trkpt><trkpt lat="32.8719806" lon="10.3802079"><ele>295.0</ele><time>2026-04-26T18:16:36.134Z</time></trkpt><trkpt lat="32.8720487" lon="10.3802883"><ele>295.0</ele><time>2026-04-26T18:16:37.129Z</time></trkpt><trkpt lat="32.8721161" lon="10.3803749"><ele>295.0</ele><time>2026-04-26T18:16:38.138Z</time></trkpt><trkpt lat="32.872176" lon="10.380453"><ele>295.0</ele><time>2026-04-26T18:16:39.126Z</time></trkpt><trkpt lat="32.8722366" lon="10.3805224"><ele>295.0</ele><time>2026-04-26T18:16:40.142Z</time></trkpt><trkpt lat="32.8722952" lon="10.3805976"><ele>295.0</ele><time>2026-04-26T18:16:41.153Z</time></trkpt><trkpt lat="32.8723544" lon="10.3806613"><ele>295.0</ele><time>2026-04-26T18:16:42.123Z</time></trkpt><trkpt lat="32.8724119" lon="10.3807189"><ele>295.0</ele><time>2026-04-26T18:16:43.133Z</time></trkpt><trkpt lat="32.8724643" lon="10.3807807"><ele>295.0</ele><time>2026-04-26T18:16:44.137Z</time></trkpt><trkpt lat="32.8725076" lon="10.380838"><ele>295.0</ele><time>2026-04-26T18:16:45.143Z</time></trkpt><trkpt lat="32.8725284" lon="10.3809413"><ele>295.0</ele><time>2026-04-26T18:16:47.153Z</time></trkpt><trkpt lat="32.8725193" lon="10.3810421"><ele>295.0</ele><time>2026-04-26T18:16:50.131Z</time></trkpt><trkpt lat="32.8726119" lon="10.3811758"><ele>295.0</ele><time>2026-04-26T18:16:53.145Z</time></trkpt><trkpt lat="32.8727274" lon="10.3812791"><ele>295.0</ele><time>2026-04-26T18:16:54.14Z</time></trkpt><trkpt lat="32.8729166" lon="10.3814189"><ele>295.0</ele><time>2026-04-26T18:16:55.14Z</time></trkpt><trkpt lat="32.8730982" lon="10.3815733"><ele>295.0</ele><time>2026-04-26T18:16:56.134Z</time></trkpt><trkpt lat="32.8732792" lon="10.3817326"><ele>295.0</ele><time>2026-04-26T18:16:57.134Z</time></trkpt><trkpt lat="32.8734316" lon="10.3818646"><ele>295.0</ele><time>2026-04-26T18:16:58.136Z</time></trkpt><trkpt lat="32.8735596" lon="10.3819668"><ele>295.0</ele><time>2026-04-26T18:16:59.147Z</time></trkpt><trkpt lat="32.8736558" lon="10.382054"><ele>295.0</ele><time>2026-04-26T18:17:00.151Z</time></trkpt><trkpt lat="32.8737343" lon="10.3821191"><ele>295.0</ele><time>2026-04-26T18:17:01.123Z</time></trkpt><trkpt lat="32.8737996" lon="10.3821665"><ele>295.0</ele><time>2026-04-26T18:17:02.136Z</time></trkpt><trkpt lat="32.8738519" lon="10.3822139"><ele>295.0</ele><time>2026-04-26T18:17:03.137Z</time></trkpt><trkpt lat="32.873912" lon="10.3822574"><ele>295.0</ele><time>2026-04-26T18:17:04.126Z</time></trkpt><trkpt lat="32.8739897" lon="10.3823086"><ele>295.0</ele><time>2026-04-26T18:17:05.131Z</time></trkpt><trkpt lat="32.8740808" lon="10.3823722"><ele>295.0</ele><time>2026-04-26T18:17:06.135Z</time></trkpt><trkpt lat="32.8741836" lon="10.3824548"><ele>295.0</ele><time>2026-04-26T18:17:07.151Z</time></trkpt><trkpt lat="32.8742989" lon="10.3825629"><ele>295.0</ele><time>2026-04-26T18:17:08.154Z</time></trkpt><trkpt lat="32.8744192" lon="10.3826633"><ele>294.66666666666663</ele><time>2026-04-26T18:17:09.148Z</time></trkpt><trkpt lat="32.8745488" lon="10.3827641"><ele>294.3333333333333</ele><time>2026-04-26T18:17:10.13Z</time></trkpt><trkpt lat="32.874676" lon="10.3828609"><ele>294.0</ele><time>2026-04-26T18:17:11.136Z</time></trkpt><trkpt lat="32.8748146" lon="10.3829634"><ele>293.5</ele><time>2026-04-26T18:17:12.15Z</time></trkpt><trkpt lat="32.8751012" lon="10.3831762"><ele>293.0</ele><time>2026-04-26T18:17:14.131Z</time></trkpt><trkpt lat="32.8752464" lon="10.3832863"><ele>292.6666666666667</ele><time>2026-04-26T18:17:15.133Z</time></trkpt><trkpt lat="32.8753959" lon="10.3833997"><ele>292.3333333333333</ele><time>2026-04-26T18:17:16.132Z</time></trkpt><trkpt lat="32.8755439" lon="10.3835098"><ele>292.0</ele><time>2026-04-26T18:17:17.145Z</time></trkpt><trkpt lat="32.8756926" lon="10.3836193"><ele>292.0</ele><time>2026-04-26T18:17:18.144Z</time></trkpt><trkpt lat="32.8758424" lon="10.3837409"><ele>292.0</ele><time>2026-04-26T18:17:19.141Z</time></trkpt><trkpt lat="32.8759909" lon="10.3838559"><ele>292.0</ele><time>2026-04-26T18:17:20.146Z</time></trkpt><trkpt lat="32.8761383" lon="10.3839698"><ele>291.66666666666663</ele><time>2026-04-26T18:17:21.129Z</time></trkpt><trkpt lat="32.87629" lon="10.3840868"><ele>291.3333333333333</ele><time>2026-04-26T18:17:22.129Z</time></trkpt><trkpt lat="32.8764336" lon="10.3842089"><ele>291.0</ele><time>2026-04-26T18:17:23.128Z</time></trkpt><trkpt lat="32.8765639" lon="10.3843202"><ele>291.0</ele><time>2026-04-26T18:17:24.127Z</time></trkpt><trkpt lat="32.8766935" lon="10.3844191"><ele>291.0</ele><time>2026-04-26T18:17:25.123Z</time></trkpt><trkpt lat="32.876817" lon="10.3845163"><ele>291.0</ele><time>2026-04-26T18:17:26.134Z</time></trkpt><trkpt lat="32.8769436" lon="10.3846125"><ele>290.6666666666667</ele><time>2026-04-26T18:17:27.133Z</time></trkpt><trkpt lat="32.8770919" lon="10.3847124"><ele>290.33333333333337</ele><time>2026-04-26T18:17:28.127Z</time></trkpt><trkpt lat="32.8772514" lon="10.3848296"><ele>290.0</ele><time>2026-04-26T18:17:29.131Z</time></trkpt><trkpt lat="32.8774059" lon="10.3849569"><ele>290.0</ele><time>2026-04-26T18:17:30.135Z</time></trkpt><trkpt lat="32.8775635" lon="10.3850842"><ele>290.0</ele><time>2026-04-26T18:17:31.135Z</time></trkpt><trkpt lat="32.8777248" lon="10.3852199"><ele>290.0</ele><time>2026-04-26T18:17:32.123Z</time></trkpt><trkpt lat="32.8779005" lon="10.3853585"><ele>290.0</ele><time>2026-04-26T18:17:33.156Z</time></trkpt><trkpt lat="32.8780754" lon="10.3854924"><ele>290.0</ele><time>2026-04-26T18:17:34.136Z</time></trkpt><trkpt lat="32.878248" lon="10.3856307"><ele>290.0</ele><time>2026-04-26T18:17:35.124Z</time></trkpt><trkpt lat="32.8784301" lon="10.3857679"><ele>289.33333333333337</ele><time>2026-04-26T18:17:36.13Z</time></trkpt><trkpt lat="32.8786097" lon="10.3859088"><ele>288.6666666666667</ele><time>2026-04-26T18:17:37.127Z</time></trkpt><trkpt lat="32.8787879" lon="10.3860553"><ele>288.0</ele><time>2026-04-26T18:17:38.135Z</time></trkpt><trkpt lat="32.8789687" lon="10.3862046"><ele>289.0</ele><time>2026-04-26T18:17:39.126Z</time></trkpt><trkpt lat="32.8791497" lon="10.3863575"><ele>290.0</ele><time>2026-04-26T18:17:40.135Z</time></trkpt><trkpt lat="32.8793368" lon="10.3865125"><ele>290.0</ele><time>2026-04-26T18:17:41.138Z</time></trkpt><trkpt lat="32.8795189" lon="10.3866766"><ele>290.0</ele><time>2026-04-26T18:17:42.132Z</time></trkpt><trkpt lat="32.8797023" lon="10.3868373"><ele>290.0</ele><time>2026-04-26T18:17:43.13Z</time></trkpt><trkpt lat="32.8798837" lon="10.3869957"><ele>290.0</ele><time>2026-04-26T18:17:44.144Z</time></trkpt><trkpt lat="32.8800628" lon="10.3871532"><ele>290.0</ele><time>2026-04-26T18:17:45.14Z</time></trkpt><trkpt lat="32.88024" lon="10.3873143"><ele>289.6666666666667</ele><time>2026-04-26T18:17:46.138Z</time></trkpt><trkpt lat="32.8804149" lon="10.3874786"><ele>289.3333333333333</ele><time>2026-04-26T18:17:47.123Z</time></trkpt><trkpt lat="32.8805905" lon="10.3876395"><ele>289.0</ele><time>2026-04-26T18:17:48.128Z</time></trkpt><trkpt lat="32.8807602" lon="10.3877975"><ele>289.0</ele><time>2026-04-26T18:17:49.144Z</time></trkpt><trkpt lat="32.8809302" lon="10.3879555"><ele>289.0</ele><time>2026-04-26T18:17:50.146Z</time></trkpt><trkpt lat="32.8811038" lon="10.3881161"><ele>289.0</ele><time>2026-04-26T18:17:51.138Z</time></trkpt><trkpt lat="32.881272" lon="10.3882756"><ele>289.3333333333333</ele><time>2026-04-26T18:17:52.138Z</time></trkpt><trkpt lat="32.8814408" lon="10.3884326"><ele>289.6666666666667</ele><time>2026-04-26T18:17:53.134Z</time></trkpt><trkpt lat="32.8816139" lon="10.3885924"><ele>290.0</ele><time>2026-04-26T18:17:54.134Z</time></trkpt><trkpt lat="32.881781" lon="10.3887444"><ele>289.33333333333337</ele><time>2026-04-26T18:17:55.135Z</time></trkpt><trkpt lat="32.8819495" lon="10.3888997"><ele>288.6666666666667</ele><time>2026-04-26T18:17:56.129Z</time></trkpt><trkpt lat="32.8821224" lon="10.3890504"><ele>288.0</ele><time>2026-04-26T18:17:57.138Z</time></trkpt><trkpt lat="32.8822934" lon="10.3892076"><ele>288.0</ele><time>2026-04-26T18:17:58.131Z</time></trkpt><trkpt lat="32.8824645" lon="10.3893636"><ele>288.0</ele><time>2026-04-26T18:17:59.131Z</time></trkpt><trkpt lat="32.8826333" lon="10.389524"><ele>288.0</ele><time>2026-04-26T18:18:00.128Z</time></trkpt><trkpt lat="32.8828043" lon="10.3896836"><ele>287.6666666666667</ele><time>2026-04-26T18:18:01.128Z</time></trkpt><trkpt lat="32.8829737" lon="10.3898423"><ele>287.33333333333337</ele><time>2026-04-26T18:18:02.132Z</time></trkpt><trkpt lat="32.8831472" lon="10.3900046"><ele>287.0</ele><time>2026-04-26T18:18:03.128Z</time></trkpt><trkpt lat="32.8833149" lon="10.3901627"><ele>286.6666666666667</ele><time>2026-04-26T18:18:04.126Z</time></trkpt><trkpt lat="32.8834788" lon="10.3903226"><ele>286.3333333333333</ele><time>2026-04-26T18:18:05.15Z</time></trkpt><trkpt lat="32.8836418" lon="10.3904718"><ele>286.0</ele><time>2026-04-26T18:18:06.131Z</time></trkpt><trkpt lat="32.8838078" lon="10.3906217"><ele>286.0</ele><time>2026-04-26T18:18:07.139Z</time></trkpt><trkpt lat="32.8839727" lon="10.390776"><ele>286.0</ele><time>2026-04-26T18:18:08.14Z</time></trkpt><trkpt lat="32.8841378" lon="10.3909279"><ele>286.0</ele><time>2026-04-26T18:18:09.138Z</time></trkpt><trkpt lat="32.8843059" lon="10.3910791"><ele>285.66666666666663</ele><time>2026-04-26T18:18:10.126Z</time></trkpt><trkpt lat="32.8844747" lon="10.3912272"><ele>285.3333333333333</ele><time>2026-04-26T18:18:11.126Z</time></trkpt><trkpt lat="32.884649" lon="10.391381"><ele>285.0</ele><time>2026-04-26T18:18:12.124Z</time></trkpt><trkpt lat="32.8848276" lon="10.3915356"><ele>284.6666666666667</ele><time>2026-04-26T18:18:13.128Z</time></trkpt><trkpt lat="32.8850063" lon="10.391687"><ele>284.33333333333337</ele><time>2026-04-26T18:18:14.14Z</time></trkpt><trkpt lat="32.8851777" lon="10.3918364"><ele>284.0</ele><time>2026-04-26T18:18:15.135Z</time></trkpt><trkpt lat="32.8853452" lon="10.3919842"><ele>284.0</ele><time>2026-04-26T18:18:16.131Z</time></trkpt><trkpt lat="32.885517" lon="10.3921377"><ele>284.0</ele><time>2026-04-26T18:18:17.137Z</time></trkpt><trkpt lat="32.8856861" lon="10.3922848"><ele>284.0</ele><time>2026-04-26T18:18:18.138Z</time></trkpt><trkpt lat="32.8858487" lon="10.3924256"><ele>283.6666666666667</ele><time>2026-04-26T18:18:19.127Z</time></trkpt><trkpt lat="32.8860145" lon="10.3925679"><ele>283.3333333333333</ele><time>2026-04-26T18:18:20.137Z</time></trkpt><trkpt lat="32.8861876" lon="10.3927176"><ele>283.0</ele><time>2026-04-26T18:18:21.129Z</time></trkpt><trkpt lat="32.8863561" lon="10.3928622"><ele>283.3333333333333</ele><time>2026-04-26T18:18:22.14Z</time></trkpt><trkpt lat="32.8865288" lon="10.3930103"><ele>283.6666666666667</ele><time>2026-04-26T18:18:23.141Z</time></trkpt><trkpt lat="32.8867048" lon="10.3931624"><ele>284.0</ele><time>2026-04-26T18:18:24.135Z</time></trkpt><trkpt lat="32.8868714" lon="10.3933103"><ele>283.33333333333337</ele><time>2026-04-26T18:18:25.13Z</time></trkpt><trkpt lat="32.8870422" lon="10.3934608"><ele>282.6666666666667</ele><time>2026-04-26T18:18:26.136Z</time></trkpt><trkpt lat="32.8872101" lon="10.3936178"><ele>282.0</ele><time>2026-04-26T18:18:27.121Z</time></trkpt><trkpt lat="32.8873753" lon="10.3937819"><ele>282.0</ele><time>2026-04-26T18:18:28.136Z</time></trkpt><trkpt lat="32.8875376" lon="10.3939528"><ele>282.0</ele><time>2026-04-26T18:18:29.134Z</time></trkpt><trkpt lat="32.8876993" lon="10.3941209"><ele>282.0</ele><time>2026-04-26T18:18:30.135Z</time></trkpt><trkpt lat="32.8878595" lon="10.3942902"><ele>281.6666666666667</ele><time>2026-04-26T18:18:31.139Z</time></trkpt><trkpt lat="32.8880148" lon="10.3944565"><ele>281.33333333333337</ele><time>2026-04-26T18:18:32.132Z</time></trkpt><trkpt lat="32.8881676" lon="10.3946207"><ele>281.0</ele><time>2026-04-26T18:18:33.135Z</time></trkpt><trkpt lat="32.8883184" lon="10.3947876"><ele>281.0</ele><time>2026-04-26T18:18:34.12Z</time></trkpt><trkpt lat="32.8884734" lon="10.3949488"><ele>281.0</ele><time>2026-04-26T18:18:35.136Z</time></trkpt><trkpt lat="32.8886272" lon="10.3951123"><ele>281.0</ele><time>2026-04-26T18:18:36.17Z</time></trkpt><trkpt lat="32.8887828" lon="10.3952764"><ele>281.0</ele><time>2026-04-26T18:18:37.162Z</time></trkpt><trkpt lat="32.888937" lon="10.3954445"><ele>281.0</ele><time>2026-04-26T18:18:38.14Z</time></trkpt><trkpt lat="32.8890864" lon="10.395607"><ele>281.0</ele><time>2026-04-26T18:18:39.14Z</time></trkpt><trkpt lat="32.8892362" lon="10.3957638"><ele>281.0</ele><time>2026-04-26T18:18:40.137Z</time></trkpt><trkpt lat="32.8893903" lon="10.3959187"><ele>281.0</ele><time>2026-04-26T18:18:41.13Z</time></trkpt><trkpt lat="32.8895433" lon="10.3960727"><ele>281.0</ele><time>2026-04-26T18:18:42.119Z</time></trkpt><trkpt lat="32.8896955" lon="10.3962288"><ele>280.6666666666667</ele><time>2026-04-26T18:18:43.161Z</time></trkpt><trkpt lat="32.8898496" lon="10.396383"><ele>280.3333333333333</ele><time>2026-04-26T18:18:44.126Z</time></trkpt><trkpt lat="32.8900104" lon="10.3965355"><ele>280.0</ele><time>2026-04-26T18:18:45.141Z</time></trkpt><trkpt lat="32.8901694" lon="10.3966843"><ele>280.0</ele><time>2026-04-26T18:18:46.135Z</time></trkpt><trkpt lat="32.8903276" lon="10.3968244"><ele>280.0</ele><time>2026-04-26T18:18:47.135Z</time></trkpt><trkpt lat="32.8904898" lon="10.3969658"><ele>280.0</ele><time>2026-04-26T18:18:48.131Z</time></trkpt><trkpt lat="32.8906535" lon="10.3971092"><ele>280.66666666666663</ele><time>2026-04-26T18:18:49.139Z</time></trkpt><trkpt lat="32.890814" lon="10.3972511"><ele>281.3333333333333</ele><time>2026-04-26T18:18:50.126Z</time></trkpt><trkpt lat="32.8909749" lon="10.397403"><ele>282.0</ele><time>2026-04-26T18:18:51.123Z</time></trkpt><trkpt lat="32.8911441" lon="10.3975615"><ele>282.0</ele><time>2026-04-26T18:18:52.127Z</time></trkpt><trkpt lat="32.8913071" lon="10.397712"><ele>282.0</ele><time>2026-04-26T18:18:53.134Z</time></trkpt><trkpt lat="32.8914711" lon="10.3978604"><ele>282.0</ele><time>2026-04-26T18:18:54.142Z</time></trkpt><trkpt lat="32.8916372" lon="10.3980063"><ele>281.0</ele><time>2026-04-26T18:18:55.134Z</time></trkpt><trkpt lat="32.8918026" lon="10.3981605"><ele>280.0</ele><time>2026-04-26T18:18:56.126Z</time></trkpt><trkpt lat="32.8919735" lon="10.3983108"><ele>279.0</ele><time>2026-04-26T18:18:57.142Z</time></trkpt><trkpt lat="32.8921446" lon="10.3984664"><ele>279.0</ele><time>2026-04-26T18:18:58.13Z</time></trkpt><trkpt lat="32.8923128" lon="10.3986198"><ele>279.0</ele><time>2026-04-26T18:18:59.149Z</time></trkpt><trkpt lat="32.8924891" lon="10.3987746"><ele>279.0</ele><time>2026-04-26T18:19:00.122Z</time></trkpt><trkpt lat="32.8926657" lon="10.3989326"><ele>279.0</ele><time>2026-04-26T18:19:01.134Z</time></trkpt><trkpt lat="32.8928406" lon="10.3990897"><ele>279.0</ele><time>2026-04-26T18:19:02.138Z</time></trkpt><trkpt lat="32.8930133" lon="10.3992441"><ele>279.0</ele><time>2026-04-26T18:19:03.148Z</time></trkpt><trkpt lat="32.8931875" lon="10.399399"><ele>279.0</ele><time>2026-04-26T18:19:04.131Z</time></trkpt><trkpt lat="32.8933598" lon="10.3995527"><ele>279.0</ele><time>2026-04-26T18:19:05.129Z</time></trkpt><trkpt lat="32.8935301" lon="10.3997069"><ele>279.0</ele><time>2026-04-26T18:19:06.123Z</time></trkpt><trkpt lat="32.8936989" lon="10.3998656"><ele>278.3333333333333</ele><time>2026-04-26T18:19:07.144Z</time></trkpt><trkpt lat="32.8938667" lon="10.400025"><ele>277.66666666666663</ele><time>2026-04-26T18:19:08.13Z</time></trkpt><trkpt lat="32.8940312" lon="10.4001904"><ele>277.0</ele><time>2026-04-26T18:19:09.132Z</time></trkpt><trkpt lat="32.894177" lon="10.4003746"><ele>277.3333333333333</ele><time>2026-04-26T18:19:10.161Z</time></trkpt><trkpt lat="32.8943133" lon="10.4005711"><ele>277.6666666666667</ele><time>2026-04-26T18:19:11.166Z</time></trkpt><trkpt lat="32.8944412" lon="10.4007747"><ele>278.0</ele><time>2026-04-26T18:19:12.129Z</time></trkpt><trkpt lat="32.8945635" lon="10.4009824"><ele>278.0</ele><time>2026-04-26T18:19:13.135Z</time></trkpt><trkpt lat="32.8946816" lon="10.4011908"><ele>278.0</ele><time>2026-04-26T18:19:14.134Z</time></trkpt><trkpt lat="32.8947946" lon="10.4013979"><ele>278.0</ele><time>2026-04-26T18:19:15.143Z</time></trkpt><trkpt lat="32.8949139" lon="10.4015991"><ele>278.0</ele><time>2026-04-26T18:19:16.136Z</time></trkpt><trkpt lat="32.8950306" lon="10.4018033"><ele>278.0</ele><time>2026-04-26T18:19:17.126Z</time></trkpt><trkpt lat="32.8951549" lon="10.4020122"><ele>278.0</ele><time>2026-04-26T18:19:18.138Z</time></trkpt><trkpt lat="32.8952735" lon="10.4022168"><ele>277.0</ele><time>2026-04-26T18:19:19.133Z</time></trkpt><trkpt lat="32.895389" lon="10.4024273"><ele>276.0</ele><time>2026-04-26T18:19:20.127Z</time></trkpt><trkpt lat="32.8955055" lon="10.4026312"><ele>275.0</ele><time>2026-04-26T18:19:21.142Z</time></trkpt><trkpt lat="32.8956218" lon="10.4028415"><ele>275.0</ele><time>2026-04-26T18:19:22.12Z</time></trkpt><trkpt lat="32.8957435" lon="10.4030488"><ele>275.0</ele><time>2026-04-26T18:19:23.126Z</time></trkpt><trkpt lat="32.8958634" lon="10.4032583"><ele>275.0</ele><time>2026-04-26T18:19:24.13Z</time></trkpt><trkpt lat="32.8959821" lon="10.4034639"><ele>275.0</ele><time>2026-04-26T18:19:25.135Z</time></trkpt><trkpt lat="32.8961069" lon="10.4036735"><ele>275.0</ele><time>2026-04-26T18:19:26.118Z</time></trkpt><trkpt lat="32.8962322" lon="10.4038807"><ele>275.0</ele><time>2026-04-26T18:19:27.14Z</time></trkpt><trkpt lat="32.896355" lon="10.4040873"><ele>275.0</ele><time>2026-04-26T18:19:28.132Z</time></trkpt><trkpt lat="32.8964689" lon="10.4042961"><ele>275.0</ele><time>2026-04-26T18:19:29.117Z</time></trkpt><trkpt lat="32.8965785" lon="10.404504"><ele>275.0</ele><time>2026-04-26T18:19:30.133Z</time></trkpt><trkpt lat="32.8966778" lon="10.4047148"><ele>275.6666666666667</ele><time>2026-04-26T18:19:31.13Z</time></trkpt><trkpt lat="32.8967752" lon="10.4049329"><ele>276.3333333333333</ele><time>2026-04-26T18:19:32.117Z</time></trkpt><trkpt lat="32.8968684" lon="10.4051514"><ele>277.0</ele><time>2026-04-26T18:19:33.124Z</time></trkpt><trkpt lat="32.8969663" lon="10.4053653"><ele>276.66666666666663</ele><time>2026-04-26T18:19:34.116Z</time></trkpt><trkpt lat="32.8970659" lon="10.4055849"><ele>276.3333333333333</ele><time>2026-04-26T18:19:35.133Z</time></trkpt><trkpt lat="32.8971625" lon="10.4057958"><ele>276.0</ele><time>2026-04-26T18:19:36.119Z</time></trkpt><trkpt lat="32.8972614" lon="10.4060082"><ele>276.0</ele><time>2026-04-26T18:19:37.116Z</time></trkpt><trkpt lat="32.8973615" lon="10.4062232"><ele>276.0</ele><time>2026-04-26T18:19:38.115Z</time></trkpt><trkpt lat="32.8974667" lon="10.4064423"><ele>276.0</ele><time>2026-04-26T18:19:39.128Z</time></trkpt><trkpt lat="32.8975638" lon="10.4066582"><ele>275.0</ele><time>2026-04-26T18:19:40.115Z</time></trkpt><trkpt lat="32.8976579" lon="10.4068775"><ele>274.0</ele><time>2026-04-26T18:19:41.138Z</time></trkpt><trkpt lat="32.8977541" lon="10.407092"><ele>273.0</ele><time>2026-04-26T18:19:42.13Z</time></trkpt><trkpt lat="32.8978506" lon="10.4073003"><ele>272.6666666666667</ele><time>2026-04-26T18:19:43.129Z</time></trkpt><trkpt lat="32.8979504" lon="10.4075034"><ele>272.33333333333337</ele><time>2026-04-26T18:19:44.123Z</time></trkpt><trkpt lat="32.8980569" lon="10.4076963"><ele>272.0</ele><time>2026-04-26T18:19:45.113Z</time></trkpt><trkpt lat="32.8981679" lon="10.4078804"><ele>272.0</ele><time>2026-04-26T18:19:46.134Z</time></trkpt><trkpt lat="32.8982907" lon="10.4080684"><ele>272.0</ele><time>2026-04-26T18:19:47.137Z</time></trkpt><trkpt lat="32.8984145" lon="10.4082545"><ele>272.0</ele><time>2026-04-26T18:19:48.124Z</time></trkpt><trkpt lat="32.8985403" lon="10.4084409"><ele>272.0</ele><time>2026-04-26T18:19:49.126Z</time></trkpt><trkpt lat="32.8986684" lon="10.4086103"><ele>272.0</ele><time>2026-04-26T18:19:50.123Z</time></trkpt><trkpt lat="32.8988052" lon="10.4087729"><ele>272.0</ele><time>2026-04-26T18:19:51.127Z</time></trkpt><trkpt lat="32.8989452" lon="10.4089334"><ele>272.33333333333337</ele><time>2026-04-26T18:19:52.123Z</time></trkpt><trkpt lat="32.8990929" lon="10.4090882"><ele>272.6666666666667</ele><time>2026-04-26T18:19:53.131Z</time></trkpt><trkpt lat="32.8992403" lon="10.4092324"><ele>273.0</ele><time>2026-04-26T18:19:54.138Z</time></trkpt><trkpt lat="32.8993902" lon="10.4093752"><ele>272.0</ele><time>2026-04-26T18:19:55.121Z</time></trkpt><trkpt lat="32.8995538" lon="10.4095106"><ele>271.0</ele><time>2026-04-26T18:19:56.14Z</time></trkpt><trkpt lat="32.8997228" lon="10.409626"><ele>270.0</ele><time>2026-04-26T18:19:57.13Z</time></trkpt><trkpt lat="32.8998936" lon="10.4097316"><ele>270.6666666666667</ele><time>2026-04-26T18:19:58.124Z</time></trkpt><trkpt lat="32.9000748" lon="10.4098185"><ele>271.33333333333337</ele><time>2026-04-26T18:19:59.132Z</time></trkpt><trkpt lat="32.9002531" lon="10.4099155"><ele>272.0</ele><time>2026-04-26T18:20:00.124Z</time></trkpt><trkpt lat="32.9004324" lon="10.4100171"><ele>272.0</ele><time>2026-04-26T18:20:01.136Z</time></trkpt><trkpt lat="32.900608" lon="10.4101237"><ele>272.0</ele><time>2026-04-26T18:20:02.126Z</time></trkpt><trkpt lat="32.9007729" lon="10.4102377"><ele>272.0</ele><time>2026-04-26T18:20:03.135Z</time></trkpt><trkpt lat="32.9009323" lon="10.4103596"><ele>271.6666666666667</ele><time>2026-04-26T18:20:04.127Z</time></trkpt><trkpt lat="32.9010801" lon="10.4104914"><ele>271.3333333333333</ele><time>2026-04-26T18:20:05.137Z</time></trkpt><trkpt lat="32.9011989" lon="10.4106463"><ele>271.0</ele><time>2026-04-26T18:20:06.131Z</time></trkpt><trkpt lat="32.9012924" lon="10.4108008"><ele>271.0</ele><time>2026-04-26T18:20:07.133Z</time></trkpt><trkpt lat="32.9013757" lon="10.4109631"><ele>271.0</ele><time>2026-04-26T18:20:08.14Z</time></trkpt><trkpt lat="32.901448" lon="10.4111132"><ele>271.0</ele><time>2026-04-26T18:20:09.149Z</time></trkpt><trkpt lat="32.9015151" lon="10.4112616"><ele>271.0</ele><time>2026-04-26T18:20:10.125Z</time></trkpt><trkpt lat="32.9015808" lon="10.4114124"><ele>271.0</ele><time>2026-04-26T18:20:11.129Z</time></trkpt><trkpt lat="32.9016473" lon="10.4115624"><ele>271.0</ele><time>2026-04-26T18:20:12.135Z</time></trkpt><trkpt lat="32.9017171" lon="10.411714"><ele>271.0</ele><time>2026-04-26T18:20:13.137Z</time></trkpt><trkpt lat="32.9017945" lon="10.4118686"><ele>271.0</ele><time>2026-04-26T18:20:14.13Z</time></trkpt><trkpt lat="32.9018681" lon="10.4120284"><ele>271.0</ele><time>2026-04-26T18:20:15.133Z</time></trkpt><trkpt lat="32.9019416" lon="10.4121939"><ele>271.0</ele><time>2026-04-26T18:20:16.138Z</time></trkpt><trkpt lat="32.9020213" lon="10.4123574"><ele>271.0</ele><time>2026-04-26T18:20:17.132Z</time></trkpt><trkpt lat="32.9020911" lon="10.4125185"><ele>271.0</ele><time>2026-04-26T18:20:18.129Z</time></trkpt><trkpt lat="32.9021643" lon="10.4126857"><ele>271.0</ele><time>2026-04-26T18:20:19.134Z</time></trkpt><trkpt lat="32.9022348" lon="10.4128536"><ele>271.0</ele><time>2026-04-26T18:20:20.119Z</time></trkpt><trkpt lat="32.9023042" lon="10.4130124"><ele>271.25</ele><time>2026-04-26T18:20:21.13Z</time></trkpt><trkpt lat="32.9023746" lon="10.4131691"><ele>271.5</ele><time>2026-04-26T18:20:22.136Z</time></trkpt><trkpt lat="32.902446" lon="10.4133269"><ele>271.75</ele><time>2026-04-26T18:20:23.121Z</time></trkpt><trkpt lat="32.902521" lon="10.4134774"><ele>272.0</ele><time>2026-04-26T18:20:24.139Z</time></trkpt><trkpt lat="32.9025875" lon="10.4136275"><ele>272.0</ele><time>2026-04-26T18:20:25.127Z</time></trkpt><trkpt lat="32.9026524" lon="10.4137805"><ele>272.0</ele><time>2026-04-26T18:20:26.137Z</time></trkpt><trkpt lat="32.902724" lon="10.4139337"><ele>272.0</ele><time>2026-04-26T18:20:27.127Z</time></trkpt><trkpt lat="32.9027927" lon="10.4140874"><ele>272.0</ele><time>2026-04-26T18:20:28.131Z</time></trkpt><trkpt lat="32.9028625" lon="10.4142405"><ele>271.75</ele><time>2026-04-26T18:20:29.135Z</time></trkpt><trkpt lat="32.9029358" lon="10.4143935"><ele>271.5</ele><time>2026-04-26T18:20:30.135Z</time></trkpt><trkpt lat="32.9030036" lon="10.4145402"><ele>271.25</ele><time>2026-04-26T18:20:31.128Z</time></trkpt><trkpt lat="32.9030718" lon="10.4146908"><ele>271.0</ele><time>2026-04-26T18:20:32.131Z</time></trkpt><trkpt lat="32.9031411" lon="10.4148416"><ele>271.0</ele><time>2026-04-26T18:20:33.132Z</time></trkpt><trkpt lat="32.9032148" lon="10.4149961"><ele>271.0</ele><time>2026-04-26T18:20:34.132Z</time></trkpt><trkpt lat="32.9032877" lon="10.4151468"><ele>271.0</ele><time>2026-04-26T18:20:35.133Z</time></trkpt><trkpt lat="32.9033582" lon="10.415301"><ele>271.0</ele><time>2026-04-26T18:20:36.161Z</time></trkpt><trkpt lat="32.9034268" lon="10.4154497"><ele>270.5</ele><time>2026-04-26T18:20:37.135Z</time></trkpt><trkpt lat="32.9034902" lon="10.4155916"><ele>270.0</ele><time>2026-04-26T18:20:38.151Z</time></trkpt><trkpt lat="32.9035515" lon="10.4157282"><ele>269.5</ele><time>2026-04-26T18:20:39.125Z</time></trkpt><trkpt lat="32.9036085" lon="10.4158451"><ele>269.0</ele><time>2026-04-26T18:20:40.121Z</time></trkpt><trkpt lat="32.9036564" lon="10.4159445"><ele>269.0</ele><time>2026-04-26T18:20:41.15Z</time></trkpt><trkpt lat="32.903701" lon="10.4160188"><ele>269.0</ele><time>2026-04-26T18:20:42.13Z</time></trkpt><trkpt lat="32.9037343" lon="10.4160847"><ele>269.0</ele><time>2026-04-26T18:20:43.136Z</time></trkpt><trkpt lat="32.9037956" lon="10.4162275"><ele>269.0</ele><time>2026-04-26T18:20:45.125Z</time></trkpt><trkpt lat="32.9038377" lon="10.4163266"><ele>269.0</ele><time>2026-04-26T18:20:46.116Z</time></trkpt><trkpt lat="32.9038915" lon="10.4164372"><ele>268.5</ele><time>2026-04-26T18:20:47.122Z</time></trkpt><trkpt lat="32.9039498" lon="10.416558"><ele>268.0</ele><time>2026-04-26T18:20:48.135Z</time></trkpt><trkpt lat="32.9040232" lon="10.4166978"><ele>267.5</ele><time>2026-04-26T18:20:49.124Z</time></trkpt><trkpt lat="32.9040991" lon="10.4168592"><ele>267.0</ele><time>2026-04-26T18:20:50.128Z</time></trkpt><trkpt lat="32.9041786" lon="10.4170205"><ele>267.6666666666667</ele><time>2026-04-26T18:20:51.124Z</time></trkpt><trkpt lat="32.9042547" lon="10.4171842"><ele>268.33333333333337</ele><time>2026-04-26T18:20:52.128Z</time></trkpt><trkpt lat="32.904337" lon="10.4173503"><ele>269.0</ele><time>2026-04-26T18:20:53.14Z</time></trkpt><trkpt lat="32.9044133" lon="10.4175093"><ele>269.0</ele><time>2026-04-26T18:20:54.133Z</time></trkpt><trkpt lat="32.9044919" lon="10.4176742"><ele>269.0</ele><time>2026-04-26T18:20:55.137Z</time></trkpt><trkpt lat="32.9045727" lon="10.4178378"><ele>269.0</ele><time>2026-04-26T18:20:56.132Z</time></trkpt><trkpt lat="32.904655" lon="10.4179984"><ele>268.33333333333337</ele><time>2026-04-26T18:20:57.143Z</time></trkpt><trkpt lat="32.9047423" lon="10.4181596"><ele>267.6666666666667</ele><time>2026-04-26T18:20:58.126Z</time></trkpt><trkpt lat="32.904831" lon="10.4183187"><ele>267.0</ele><time>2026-04-26T18:20:59.128Z</time></trkpt><trkpt lat="32.9049124" lon="10.4184677"><ele>267.0</ele><time>2026-04-26T18:21:00.14Z</time></trkpt><trkpt lat="32.9049907" lon="10.4186168"><ele>267.0</ele><time>2026-04-26T18:21:01.14Z</time></trkpt><trkpt lat="32.9050598" lon="10.4187597"><ele>267.0</ele><time>2026-04-26T18:21:02.126Z</time></trkpt><trkpt lat="32.9051368" lon="10.4188988"><ele>267.0</ele><time>2026-04-26T18:21:03.143Z</time></trkpt><trkpt lat="32.9052093" lon="10.4190408"><ele>266.0</ele><time>2026-04-26T18:21:04.131Z</time></trkpt><trkpt lat="32.9052716" lon="10.4191902"><ele>265.0</ele><time>2026-04-26T18:21:05.145Z</time></trkpt><trkpt lat="32.9053286" lon="10.41935"><ele>264.0</ele><time>2026-04-26T18:21:06.133Z</time></trkpt><trkpt lat="32.9053828" lon="10.4195184"><ele>263.0</ele><time>2026-04-26T18:21:07.124Z</time></trkpt><trkpt lat="32.9054201" lon="10.4197019"><ele>263.0</ele><time>2026-04-26T18:21:08.128Z</time></trkpt><trkpt lat="32.9054534" lon="10.4198825"><ele>263.0</ele><time>2026-04-26T18:21:09.13Z</time></trkpt><trkpt lat="32.9054761" lon="10.420069"><ele>263.0</ele><time>2026-04-26T18:21:10.133Z</time></trkpt><trkpt lat="32.9055048" lon="10.4202517"><ele>263.0</ele><time>2026-04-26T18:21:11.14Z</time></trkpt><trkpt lat="32.9055305" lon="10.4204296"><ele>263.0</ele><time>2026-04-26T18:21:12.131Z</time></trkpt><trkpt lat="32.9055601" lon="10.4206054"><ele>263.0</ele><time>2026-04-26T18:21:13.126Z</time></trkpt><trkpt lat="32.9055867" lon="10.420781"><ele>263.0</ele><time>2026-04-26T18:21:14.121Z</time></trkpt><trkpt lat="32.9056182" lon="10.42096"><ele>263.0</ele><time>2026-04-26T18:21:15.135Z</time></trkpt><trkpt lat="32.9056485" lon="10.4211438"><ele>263.0</ele><time>2026-04-26T18:21:16.136Z</time></trkpt><trkpt lat="32.9056774" lon="10.4213278"><ele>263.0</ele><time>2026-04-26T18:21:17.128Z</time></trkpt><trkpt lat="32.9057082" lon="10.4215166"><ele>263.0</ele><time>2026-04-26T18:21:18.128Z</time></trkpt><trkpt lat="32.9057345" lon="10.4216935"><ele>263.0</ele><time>2026-04-26T18:21:19.134Z</time></trkpt><trkpt lat="32.9057655" lon="10.4218564"><ele>263.0</ele><time>2026-04-26T18:21:20.123Z</time></trkpt><trkpt lat="32.9058062" lon="10.4220074"><ele>263.0</ele><time>2026-04-26T18:21:21.127Z</time></trkpt><trkpt lat="32.9058463" lon="10.4221461"><ele>263.0</ele><time>2026-04-26T18:21:22.123Z</time></trkpt><trkpt lat="32.9058877" lon="10.4222674"><ele>263.0</ele><time>2026-04-26T18:21:23.122Z</time></trkpt><trkpt lat="32.905931" lon="10.4223683"><ele>263.6666666666667</ele><time>2026-04-26T18:21:24.154Z</time></trkpt><trkpt lat="32.9059675" lon="10.4224524"><ele>264.33333333333337</ele><time>2026-04-26T18:21:25.14Z</time></trkpt><trkpt lat="32.9060018" lon="10.4225183"><ele>265.0</ele><time>2026-04-26T18:21:26.143Z</time></trkpt><trkpt lat="32.9060296" lon="10.4225865"><ele>265.6666666666667</ele><time>2026-04-26T18:21:27.131Z</time></trkpt><trkpt lat="32.9060703" lon="10.4226663"><ele>266.3333333333333</ele><time>2026-04-26T18:21:28.129Z</time></trkpt><trkpt lat="32.9061239" lon="10.4227669"><ele>267.0</ele><time>2026-04-26T18:21:29.138Z</time></trkpt><trkpt lat="32.9061947" lon="10.4228809"><ele>265.0</ele><time>2026-04-26T18:21:30.125Z</time></trkpt><trkpt lat="32.9062901" lon="10.4230008"><ele>263.0</ele><time>2026-04-26T18:21:31.126Z</time></trkpt><trkpt lat="32.9063974" lon="10.4231403"><ele>261.0</ele><time>2026-04-26T18:21:32.128Z</time></trkpt><trkpt lat="32.9065129" lon="10.423286"><ele>261.0</ele><time>2026-04-26T18:21:33.136Z</time></trkpt><trkpt lat="32.9066337" lon="10.4234273"><ele>261.0</ele><time>2026-04-26T18:21:34.131Z</time></trkpt><trkpt lat="32.9067605" lon="10.4235694"><ele>261.0</ele><time>2026-04-26T18:21:35.144Z</time></trkpt><trkpt lat="32.9068877" lon="10.4237039"><ele>260.0</ele><time>2026-04-26T18:21:36.134Z</time></trkpt><trkpt lat="32.9070189" lon="10.4238311"><ele>259.0</ele><time>2026-04-26T18:21:37.129Z</time></trkpt><trkpt lat="32.9071462" lon="10.4239583"><ele>258.0</ele><time>2026-04-26T18:21:38.122Z</time></trkpt><trkpt lat="32.9072757" lon="10.424082"><ele>258.0</ele><time>2026-04-26T18:21:39.122Z</time></trkpt><trkpt lat="32.907404" lon="10.4242015"><ele>258.0</ele><time>2026-04-26T18:21:40.124Z</time></trkpt><trkpt lat="32.9075334" lon="10.4243091"><ele>258.0</ele><time>2026-04-26T18:21:41.139Z</time></trkpt><trkpt lat="32.9076629" lon="10.4244027"><ele>258.0</ele><time>2026-04-26T18:21:42.129Z</time></trkpt><trkpt lat="32.9077955" lon="10.4244749"><ele>258.0</ele><time>2026-04-26T18:21:43.124Z</time></trkpt><trkpt lat="32.907924" lon="10.4245281"><ele>258.0</ele><time>2026-04-26T18:21:44.129Z</time></trkpt><trkpt lat="32.9080461" lon="10.4245726"><ele>258.0</ele><time>2026-04-26T18:21:45.134Z</time></trkpt><trkpt lat="32.9081605" lon="10.4246053"><ele>258.0</ele><time>2026-04-26T18:21:46.127Z</time></trkpt><trkpt lat="32.9082714" lon="10.424634"><ele>258.0</ele><time>2026-04-26T18:21:47.125Z</time></trkpt><trkpt lat="32.9083761" lon="10.424666"><ele>258.0</ele><time>2026-04-26T18:21:48.144Z</time></trkpt><trkpt lat="32.9084852" lon="10.4246855"><ele>258.0</ele><time>2026-04-26T18:21:49.135Z</time></trkpt><trkpt lat="32.9085928" lon="10.4246982"><ele>258.0</ele><time>2026-04-26T18:21:50.122Z</time></trkpt><trkpt lat="32.9087088" lon="10.4247104"><ele>258.0</ele><time>2026-04-26T18:21:51.125Z</time></trkpt><trkpt lat="32.9088233" lon="10.4247171"><ele>258.0</ele><time>2026-04-26T18:21:52.136Z</time></trkpt><trkpt lat="32.9089347" lon="10.4247246"><ele>258.0</ele><time>2026-04-26T18:21:53.146Z</time></trkpt><trkpt lat="32.9090467" lon="10.4247365"><ele>258.0</ele><time>2026-04-26T18:21:54.13Z</time></trkpt><trkpt lat="32.9091541" lon="10.4247482"><ele>258.0</ele><time>2026-04-26T18:21:55.138Z</time></trkpt><trkpt lat="32.9092521" lon="10.4247649"><ele>258.0</ele><time>2026-04-26T18:21:56.129Z</time></trkpt><trkpt lat="32.9093375" lon="10.4247857"><ele>258.0</ele><time>2026-04-26T18:21:57.135Z</time></trkpt><trkpt lat="32.9094049" lon="10.4247993"><ele>258.0</ele><time>2026-04-26T18:21:58.129Z</time></trkpt><trkpt lat="32.909522" lon="10.4248169"><ele>258.0</ele><time>2026-04-26T18:22:00.134Z</time></trkpt><trkpt lat="32.9095989" lon="10.4248303"><ele>258.0</ele><time>2026-04-26T18:22:01.135Z</time></trkpt><trkpt lat="32.9096868" lon="10.4248416"><ele>258.0</ele><time>2026-04-26T18:22:02.136Z</time></trkpt><trkpt lat="32.9097793" lon="10.424858"><ele>258.0</ele><time>2026-04-26T18:22:03.132Z</time></trkpt><trkpt lat="32.9098745" lon="10.4248773"><ele>258.0</ele><time>2026-04-26T18:22:04.126Z</time></trkpt><trkpt lat="32.90998" lon="10.4248944"><ele>258.0</ele><time>2026-04-26T18:22:05.125Z</time></trkpt><trkpt lat="32.9100919" lon="10.4249228"><ele>258.0</ele><time>2026-04-26T18:22:06.153Z</time></trkpt><trkpt lat="32.910217" lon="10.4249504"><ele>258.0</ele><time>2026-04-26T18:22:07.124Z</time></trkpt><trkpt lat="32.9103358" lon="10.4249772"><ele>257.5</ele><time>2026-04-26T18:22:08.121Z</time></trkpt><trkpt lat="32.9104568" lon="10.425007"><ele>257.0</ele><time>2026-04-26T18:22:09.123Z</time></trkpt><trkpt lat="32.9105879" lon="10.4250399"><ele>256.5</ele><time>2026-04-26T18:22:10.125Z</time></trkpt><trkpt lat="32.9107109" lon="10.4250729"><ele>256.0</ele><time>2026-04-26T18:22:11.122Z</time></trkpt><trkpt lat="32.9108379" lon="10.4251037"><ele>255.5</ele><time>2026-04-26T18:22:12.12Z</time></trkpt><trkpt lat="32.9109622" lon="10.4251348"><ele>255.0</ele><time>2026-04-26T18:22:13.127Z</time></trkpt><trkpt lat="32.9110837" lon="10.42516"><ele>254.5</ele><time>2026-04-26T18:22:14.137Z</time></trkpt><trkpt lat="32.911214" lon="10.425186"><ele>254.0</ele><time>2026-04-26T18:22:15.145Z</time></trkpt><trkpt lat="32.9113461" lon="10.425211"><ele>254.0</ele><time>2026-04-26T18:22:16.134Z</time></trkpt><trkpt lat="32.9114743" lon="10.4252257"><ele>254.0</ele><time>2026-04-26T18:22:17.127Z</time></trkpt><trkpt lat="32.9116006" lon="10.4252471"><ele>254.0</ele><time>2026-04-26T18:22:18.126Z</time></trkpt><trkpt lat="32.9117266" lon="10.4252652"><ele>254.0</ele><time>2026-04-26T18:22:19.122Z</time></trkpt><trkpt lat="32.9118537" lon="10.4252823"><ele>254.0</ele><time>2026-04-26T18:22:20.128Z</time></trkpt><trkpt lat="32.91198" lon="10.4252987"><ele>254.0</ele><time>2026-04-26T18:22:21.13Z</time></trkpt><trkpt lat="32.9121055" lon="10.4253133"><ele>254.0</ele><time>2026-04-26T18:22:22.126Z</time></trkpt><trkpt lat="32.9122276" lon="10.4253252"><ele>254.0</ele><time>2026-04-26T18:22:23.141Z</time></trkpt><trkpt lat="32.9123548" lon="10.4253342"><ele>254.0</ele><time>2026-04-26T18:22:24.132Z</time></trkpt><trkpt lat="32.9124748" lon="10.4253451"><ele>254.0</ele><time>2026-04-26T18:22:25.127Z</time></trkpt><trkpt lat="32.9125957" lon="10.4253596"><ele>254.0</ele><time>2026-04-26T18:22:26.126Z</time></trkpt><trkpt lat="32.9127129" lon="10.4253775"><ele>254.0</ele><time>2026-04-26T18:22:27.124Z</time></trkpt><trkpt lat="32.9128354" lon="10.4253874"><ele>254.0</ele><time>2026-04-26T18:22:28.125Z</time></trkpt><trkpt lat="32.912966" lon="10.4253962"><ele>254.0</ele><time>2026-04-26T18:22:29.143Z</time></trkpt><trkpt lat="32.9130962" lon="10.4254105"><ele>254.0</ele><time>2026-04-26T18:22:30.123Z</time></trkpt><trkpt lat="32.9132223" lon="10.42542"><ele>254.0</ele><time>2026-04-26T18:22:31.129Z</time></trkpt><trkpt lat="32.9133568" lon="10.4254372"><ele>253.5</ele><time>2026-04-26T18:22:32.126Z</time></trkpt><trkpt lat="32.9134877" lon="10.4254556"><ele>253.0</ele><time>2026-04-26T18:22:33.139Z</time></trkpt><trkpt lat="32.9136179" lon="10.4254766"><ele>252.5</ele><time>2026-04-26T18:22:34.133Z</time></trkpt><trkpt lat="32.9137431" lon="10.4255008"><ele>252.0</ele><time>2026-04-26T18:22:35.122Z</time></trkpt><trkpt lat="32.9138569" lon="10.4255267"><ele>251.8</ele><time>2026-04-26T18:22:36.123Z</time></trkpt><trkpt lat="32.9139608" lon="10.4255549"><ele>251.6</ele><time>2026-04-26T18:22:37.131Z</time></trkpt><trkpt lat="32.9140694" lon="10.4255841"><ele>251.40000000000003</ele><time>2026-04-26T18:22:38.14Z</time></trkpt><trkpt lat="32.9141734" lon="10.4256188"><ele>251.20000000000002</ele><time>2026-04-26T18:22:39.12Z</time></trkpt><trkpt lat="32.9142721" lon="10.4256597"><ele>251.0</ele><time>2026-04-26T18:22:40.119Z</time></trkpt><trkpt lat="32.9143605" lon="10.4257086"><ele>251.0</ele><time>2026-04-26T18:22:41.136Z</time></trkpt><trkpt lat="32.9144502" lon="10.4257532"><ele>251.00000000000003</ele><time>2026-04-26T18:22:42.124Z</time></trkpt><trkpt lat="32.9145457" lon="10.4257954"><ele>251.00000000000003</ele><time>2026-04-26T18:22:43.142Z</time></trkpt><trkpt lat="32.9146478" lon="10.4258489"><ele>251.0</ele><time>2026-04-26T18:22:44.132Z</time></trkpt><trkpt lat="32.9147591" lon="10.4259107"><ele>251.0</ele><time>2026-04-26T18:22:45.135Z</time></trkpt><trkpt lat="32.9148763" lon="10.4259837"><ele>251.0</ele><time>2026-04-26T18:22:46.122Z</time></trkpt><trkpt lat="32.9149921" lon="10.4260687"><ele>251.0</ele><time>2026-04-26T18:22:47.134Z</time></trkpt><trkpt lat="32.9151068" lon="10.4261597"><ele>251.0</ele><time>2026-04-26T18:22:48.123Z</time></trkpt><trkpt lat="32.9152259" lon="10.4262568"><ele>251.0</ele><time>2026-04-26T18:22:49.144Z</time></trkpt><trkpt lat="32.9153378" lon="10.4263479"><ele>251.25</ele><time>2026-04-26T18:22:50.126Z</time></trkpt><trkpt lat="32.9154507" lon="10.4264373"><ele>251.5</ele><time>2026-04-26T18:22:51.133Z</time></trkpt><trkpt lat="32.915562" lon="10.4265298"><ele>251.75</ele><time>2026-04-26T18:22:52.122Z</time></trkpt><trkpt lat="32.9156658" lon="10.4266169"><ele>252.0</ele><time>2026-04-26T18:22:53.141Z</time></trkpt><trkpt lat="32.9157611" lon="10.4267013"><ele>252.0</ele><time>2026-04-26T18:22:54.125Z</time></trkpt><trkpt lat="32.9158596" lon="10.4267776"><ele>252.0</ele><time>2026-04-26T18:22:55.136Z</time></trkpt><trkpt lat="32.9159479" lon="10.4268618"><ele>252.0</ele><time>2026-04-26T18:22:56.123Z</time></trkpt><trkpt lat="32.9160171" lon="10.4269358"><ele>252.0</ele><time>2026-04-26T18:22:57.132Z</time></trkpt><trkpt lat="32.916085" lon="10.4270194"><ele>252.0</ele><time>2026-04-26T18:22:58.139Z</time></trkpt><trkpt lat="32.9161438" lon="10.427104"><ele>252.39999999999998</ele><time>2026-04-26T18:22:59.124Z</time></trkpt><trkpt lat="32.9162141" lon="10.4271978"><ele>252.79999999999998</ele><time>2026-04-26T18:23:00.13Z</time></trkpt><trkpt lat="32.9162906" lon="10.4272961"><ele>253.2</ele><time>2026-04-26T18:23:01.131Z</time></trkpt><trkpt lat="32.9163642" lon="10.4273924"><ele>253.6</ele><time>2026-04-26T18:23:02.128Z</time></trkpt><trkpt lat="32.9164428" lon="10.4274926"><ele>254.0</ele><time>2026-04-26T18:23:03.137Z</time></trkpt><trkpt lat="32.9165255" lon="10.4275963"><ele>254.0</ele><time>2026-04-26T18:23:04.13Z</time></trkpt><trkpt lat="32.9166115" lon="10.4276967"><ele>254.0</ele><time>2026-04-26T18:23:05.117Z</time></trkpt><trkpt lat="32.9166934" lon="10.4278087"><ele>254.0</ele><time>2026-04-26T18:23:06.134Z</time></trkpt><trkpt lat="32.9167664" lon="10.4279142"><ele>254.0</ele><time>2026-04-26T18:23:07.13Z</time></trkpt><trkpt lat="32.916834" lon="10.4280139"><ele>254.0</ele><time>2026-04-26T18:23:08.132Z</time></trkpt><trkpt lat="32.916886" lon="10.4281276"><ele>254.0</ele><time>2026-04-26T18:23:09.121Z</time></trkpt><trkpt lat="32.9169391" lon="10.4282479"><ele>254.0</ele><time>2026-04-26T18:23:10.123Z</time></trkpt><trkpt lat="32.9169931" lon="10.4283766"><ele>254.0</ele><time>2026-04-26T18:23:11.115Z</time></trkpt><trkpt lat="32.9170403" lon="10.4285155"><ele>254.0</ele><time>2026-04-26T18:23:12.124Z</time></trkpt><trkpt lat="32.9170861" lon="10.4286509"><ele>254.0</ele><time>2026-04-26T18:23:13.137Z</time></trkpt><trkpt lat="32.9171311" lon="10.4287887"><ele>254.0</ele><time>2026-04-26T18:23:14.122Z</time></trkpt><trkpt lat="32.9171844" lon="10.4289259"><ele>254.0</ele><time>2026-04-26T18:23:15.117Z</time></trkpt><trkpt lat="32.9172296" lon="10.4290568"><ele>254.25</ele><time>2026-04-26T18:23:16.127Z</time></trkpt><trkpt lat="32.917278" lon="10.4291939"><ele>254.5</ele><time>2026-04-26T18:23:17.133Z</time></trkpt><trkpt lat="32.9173346" lon="10.4293227"><ele>254.75</ele><time>2026-04-26T18:23:18.126Z</time></trkpt><trkpt lat="32.9173972" lon="10.4294553"><ele>255.0</ele><time>2026-04-26T18:23:19.117Z</time></trkpt><trkpt lat="32.9174569" lon="10.4295872"><ele>255.25</ele><time>2026-04-26T18:23:20.136Z</time></trkpt><trkpt lat="32.9175165" lon="10.4297162"><ele>255.5</ele><time>2026-04-26T18:23:21.128Z</time></trkpt><trkpt lat="32.9175833" lon="10.4298496"><ele>255.75</ele><time>2026-04-26T18:23:22.129Z</time></trkpt><trkpt lat="32.91765" lon="10.4299842"><ele>256.0</ele><time>2026-04-26T18:23:23.127Z</time></trkpt><trkpt lat="32.9177147" lon="10.4301205"><ele>255.0</ele><time>2026-04-26T18:23:24.125Z</time></trkpt><trkpt lat="32.9177822" lon="10.4302479"><ele>254.0</ele><time>2026-04-26T18:23:25.145Z</time></trkpt><trkpt lat="32.9178505" lon="10.4303695"><ele>253.0</ele><time>2026-04-26T18:23:26.123Z</time></trkpt><trkpt lat="32.9179162" lon="10.4305017"><ele>252.0</ele><time>2026-04-26T18:23:27.128Z</time></trkpt><trkpt lat="32.9179872" lon="10.430637"><ele>251.75</ele><time>2026-04-26T18:23:28.122Z</time></trkpt><trkpt lat="32.9180522" lon="10.430763"><ele>251.5</ele><time>2026-04-26T18:23:29.127Z</time></trkpt><trkpt lat="32.918113" lon="10.430872"><ele>251.25</ele><time>2026-04-26T18:23:30.126Z</time></trkpt><trkpt lat="32.9181763" lon="10.4309896"><ele>251.0</ele><time>2026-04-26T18:23:31.135Z</time></trkpt><trkpt lat="32.9182349" lon="10.4311122"><ele>251.0</ele><time>2026-04-26T18:23:32.127Z</time></trkpt><trkpt lat="32.9182957" lon="10.4312349"><ele>251.00000000000003</ele><time>2026-04-26T18:23:33.142Z</time></trkpt><trkpt lat="32.9183507" lon="10.4313535"><ele>251.00000000000003</ele><time>2026-04-26T18:23:34.128Z</time></trkpt><trkpt lat="32.9184087" lon="10.4314715"><ele>251.0</ele><time>2026-04-26T18:23:35.135Z</time></trkpt><trkpt lat="32.9184564" lon="10.4315735"><ele>251.0</ele><time>2026-04-26T18:23:36.132Z</time></trkpt><trkpt lat="32.9184914" lon="10.431663"><ele>250.50000000000003</ele><time>2026-04-26T18:23:37.127Z</time></trkpt><trkpt lat="32.9185245" lon="10.4317389"><ele>250.0</ele><time>2026-04-26T18:23:38.127Z</time></trkpt><trkpt lat="32.9185769" lon="10.4318642"><ele>249.5</ele><time>2026-04-26T18:23:40.127Z</time></trkpt><trkpt lat="32.9186147" lon="10.4319739"><ele>249.0</ele><time>2026-04-26T18:23:42.121Z</time></trkpt><trkpt lat="32.9186428" lon="10.4320478"><ele>248.50000000000003</ele><time>2026-04-26T18:23:43.113Z</time></trkpt><trkpt lat="32.918672" lon="10.4321346"><ele>248.0</ele><time>2026-04-26T18:23:44.128Z</time></trkpt><trkpt lat="32.918709" lon="10.4322286"><ele>247.83333333333334</ele><time>2026-04-26T18:23:45.128Z</time></trkpt><trkpt lat="32.9187443" lon="10.432322"><ele>247.66666666666669</ele><time>2026-04-26T18:23:46.136Z</time></trkpt><trkpt lat="32.9187751" lon="10.4324061"><ele>247.5</ele><time>2026-04-26T18:23:47.143Z</time></trkpt><trkpt lat="32.9188061" lon="10.4324928"><ele>247.33333333333331</ele><time>2026-04-26T18:23:48.12Z</time></trkpt><trkpt lat="32.9188291" lon="10.432583"><ele>247.16666666666666</ele><time>2026-04-26T18:23:49.127Z</time></trkpt><trkpt lat="32.9188538" lon="10.4326662"><ele>247.0</ele><time>2026-04-26T18:23:50.158Z</time></trkpt><trkpt lat="32.918879" lon="10.4327469"><ele>246.99999999999997</ele><time>2026-04-26T18:23:51.145Z</time></trkpt><trkpt lat="32.9189003" lon="10.4328245"><ele>247.0</ele><time>2026-04-26T18:23:52.14Z</time></trkpt><trkpt lat="32.9189206" lon="10.4328983"><ele>247.0</ele><time>2026-04-26T18:23:53.124Z</time></trkpt><trkpt lat="32.9189581" lon="10.4330232"><ele>247.0</ele><time>2026-04-26T18:23:55.121Z</time></trkpt><trkpt lat="32.9189809" lon="10.4331166"><ele>246.99999999999997</ele><time>2026-04-26T18:23:57.129Z</time></trkpt><trkpt lat="32.9190192" lon="10.4332123"><ele>247.0</ele><time>2026-04-26T18:23:59.13Z</time></trkpt><trkpt lat="32.9190491" lon="10.4332841"><ele>246.99999999999997</ele><time>2026-04-26T18:24:00.133Z</time></trkpt><trkpt lat="32.9190892" lon="10.4333716"><ele>247.0</ele><time>2026-04-26T18:24:01.141Z</time></trkpt><trkpt lat="32.9191286" lon="10.4334566"><ele>247.0</ele><time>2026-04-26T18:24:02.137Z</time></trkpt><trkpt lat="32.9191703" lon="10.433548"><ele>247.0</ele><time>2026-04-26T18:24:03.147Z</time></trkpt><trkpt lat="32.9192138" lon="10.4336366"><ele>246.99999999999997</ele><time>2026-04-26T18:24:04.132Z</time></trkpt><trkpt lat="32.9192592" lon="10.4337219"><ele>247.0</ele><time>2026-04-26T18:24:05.14Z</time></trkpt><trkpt lat="32.9193056" lon="10.4338096"><ele>247.16666666666666</ele><time>2026-04-26T18:24:06.138Z</time></trkpt><trkpt lat="32.9193514" lon="10.4338932"><ele>247.33333333333331</ele><time>2026-04-26T18:24:07.128Z</time></trkpt><trkpt lat="32.9193959" lon="10.433976"><ele>247.5</ele><time>2026-04-26T18:24:08.129Z</time></trkpt><trkpt lat="32.9194491" lon="10.4340649"><ele>247.66666666666669</ele><time>2026-04-26T18:24:09.135Z</time></trkpt><trkpt lat="32.9195044" lon="10.4341533"><ele>247.83333333333334</ele><time>2026-04-26T18:24:10.129Z</time></trkpt><trkpt lat="32.9195557" lon="10.4342387"><ele>248.0</ele><time>2026-04-26T18:24:11.13Z</time></trkpt><trkpt lat="32.9196144" lon="10.4343265"><ele>248.0</ele><time>2026-04-26T18:24:12.13Z</time></trkpt><trkpt lat="32.9196747" lon="10.4344177"><ele>248.0</ele><time>2026-04-26T18:24:13.145Z</time></trkpt><trkpt lat="32.9197395" lon="10.4345113"><ele>248.0</ele><time>2026-04-26T18:24:14.149Z</time></trkpt><trkpt lat="32.9198042" lon="10.4345996"><ele>248.0</ele><time>2026-04-26T18:24:15.129Z</time></trkpt><trkpt lat="32.9198716" lon="10.4346883"><ele>248.0</ele><time>2026-04-26T18:24:16.123Z</time></trkpt><trkpt lat="32.919951" lon="10.4347751"><ele>247.8</ele><time>2026-04-26T18:24:17.145Z</time></trkpt><trkpt lat="32.9200244" lon="10.4348483"><ele>247.60000000000002</ele><time>2026-04-26T18:24:18.139Z</time></trkpt><trkpt lat="32.9200946" lon="10.4349252"><ele>247.39999999999998</ele><time>2026-04-26T18:24:19.133Z</time></trkpt><trkpt lat="32.9201557" lon="10.4349963"><ele>247.2</ele><time>2026-04-26T18:24:20.135Z</time></trkpt><trkpt lat="32.9202253" lon="10.4350748"><ele>247.0</ele><time>2026-04-26T18:24:21.128Z</time></trkpt><trkpt lat="32.9202931" lon="10.4351431"><ele>246.99999999999997</ele><time>2026-04-26T18:24:22.168Z</time></trkpt><trkpt lat="32.9203607" lon="10.4352138"><ele>247.0</ele><time>2026-04-26T18:24:23.143Z</time></trkpt><trkpt lat="32.9204299" lon="10.4352848"><ele>247.0</ele><time>2026-04-26T18:24:24.131Z</time></trkpt><trkpt lat="32.9204948" lon="10.4353565"><ele>247.0</ele><time>2026-04-26T18:24:25.122Z</time></trkpt><trkpt lat="32.9205574" lon="10.4354197"><ele>246.99999999999997</ele><time>2026-04-26T18:24:26.134Z</time></trkpt><trkpt lat="32.920615" lon="10.4354824"><ele>247.0</ele><time>2026-04-26T18:24:27.129Z</time></trkpt><trkpt lat="32.9206699" lon="10.435542"><ele>246.99999999999997</ele><time>2026-04-26T18:24:28.126Z</time></trkpt><trkpt lat="32.9207311" lon="10.4356049"><ele>247.0</ele><time>2026-04-26T18:24:29.127Z</time></trkpt><trkpt lat="32.9207984" lon="10.4356651"><ele>247.0</ele><time>2026-04-26T18:24:30.125Z</time></trkpt><trkpt lat="32.9208643" lon="10.4357268"><ele>247.0</ele><time>2026-04-26T18:24:31.131Z</time></trkpt><trkpt lat="32.9209305" lon="10.4357859"><ele>246.99999999999997</ele><time>2026-04-26T18:24:32.136Z</time></trkpt><trkpt lat="32.9209965" lon="10.4358476"><ele>247.0</ele><time>2026-04-26T18:24:33.146Z</time></trkpt><trkpt lat="32.9210659" lon="10.4359041"><ele>246.99999999999997</ele><time>2026-04-26T18:24:34.138Z</time></trkpt><trkpt lat="32.9211333" lon="10.435963"><ele>247.0</ele><time>2026-04-26T18:24:35.146Z</time></trkpt><trkpt lat="32.9211959" lon="10.4360291"><ele>247.0</ele><time>2026-04-26T18:24:36.128Z</time></trkpt><trkpt lat="32.9212573" lon="10.4360937"><ele>247.0</ele><time>2026-04-26T18:24:37.124Z</time></trkpt><trkpt lat="32.9213179" lon="10.4361589"><ele>246.99999999999997</ele><time>2026-04-26T18:24:38.156Z</time></trkpt><trkpt lat="32.9213835" lon="10.436223"><ele>247.0</ele><time>2026-04-26T18:24:39.138Z</time></trkpt><trkpt lat="32.9214496" lon="10.436291"><ele>247.16666666666666</ele><time>2026-04-26T18:24:40.128Z</time></trkpt><trkpt lat="32.9215187" lon="10.4363545"><ele>247.33333333333331</ele><time>2026-04-26T18:24:41.128Z</time></trkpt><trkpt lat="32.9215847" lon="10.4364168"><ele>247.5</ele><time>2026-04-26T18:24:42.13Z</time></trkpt><trkpt lat="32.9216528" lon="10.4364795"><ele>247.66666666666669</ele><time>2026-04-26T18:24:43.123Z</time></trkpt><trkpt lat="32.9217284" lon="10.4365441"><ele>247.83333333333334</ele><time>2026-04-26T18:24:44.136Z</time></trkpt><trkpt lat="32.9218023" lon="10.4366118"><ele>248.0</ele><time>2026-04-26T18:24:45.128Z</time></trkpt><trkpt lat="32.921868" lon="10.4366749"><ele>247.50000000000003</ele><time>2026-04-26T18:24:46.127Z</time></trkpt><trkpt lat="32.9219385" lon="10.4367373"><ele>247.0</ele><time>2026-04-26T18:24:47.153Z</time></trkpt><trkpt lat="32.9220033" lon="10.4367865"><ele>246.5</ele><time>2026-04-26T18:24:48.127Z</time></trkpt><trkpt lat="32.9220758" lon="10.4368414"><ele>246.0</ele><time>2026-04-26T18:24:49.131Z</time></trkpt><trkpt lat="32.9221402" lon="10.4368805"><ele>245.50000000000003</ele><time>2026-04-26T18:24:50.123Z</time></trkpt><trkpt lat="32.9222106" lon="10.4369158"><ele>245.0</ele><time>2026-04-26T18:24:51.135Z</time></trkpt><trkpt lat="32.9222684" lon="10.4369603"><ele>245.00000000000003</ele><time>2026-04-26T18:24:52.142Z</time></trkpt><trkpt lat="32.9223339" lon="10.437009"><ele>245.0</ele><time>2026-04-26T18:24:53.124Z</time></trkpt><trkpt lat="32.9223976" lon="10.4370608"><ele>245.0</ele><time>2026-04-26T18:24:54.132Z</time></trkpt><trkpt lat="32.9224694" lon="10.4371185"><ele>245.0</ele><time>2026-04-26T18:24:55.119Z</time></trkpt><trkpt lat="32.9225381" lon="10.4371735"><ele>245.00000000000003</ele><time>2026-04-26T18:24:56.139Z</time></trkpt><trkpt lat="32.9226057" lon="10.4372241"><ele>245.0</ele><time>2026-04-26T18:24:57.143Z</time></trkpt><trkpt lat="32.9226748" lon="10.4372762"><ele>244.50000000000003</ele><time>2026-04-26T18:24:58.129Z</time></trkpt><trkpt lat="32.9227438" lon="10.437325"><ele>244.0</ele><time>2026-04-26T18:24:59.128Z</time></trkpt><trkpt lat="32.9228152" lon="10.437372"><ele>243.5</ele><time>2026-04-26T18:25:00.146Z</time></trkpt><trkpt lat="32.9228878" lon="10.4374239"><ele>243.0</ele><time>2026-04-26T18:25:01.132Z</time></trkpt><trkpt lat="32.9229535" lon="10.4374755"><ele>242.50000000000003</ele><time>2026-04-26T18:25:02.121Z</time></trkpt><trkpt lat="32.9230235" lon="10.4375279"><ele>242.0</ele><time>2026-04-26T18:25:03.128Z</time></trkpt><trkpt lat="32.9230985" lon="10.4375829"><ele>242.0</ele><time>2026-04-26T18:25:04.133Z</time></trkpt><trkpt lat="32.9231739" lon="10.4376333"><ele>242.0</ele><time>2026-04-26T18:25:05.119Z</time></trkpt><trkpt lat="32.9232534" lon="10.4376907"><ele>242.0</ele><time>2026-04-26T18:25:06.13Z</time></trkpt><trkpt lat="32.9233393" lon="10.437773"><ele>242.0</ele><time>2026-04-26T18:25:07.136Z</time></trkpt><trkpt lat="32.9234267" lon="10.4378593"><ele>242.0</ele><time>2026-04-26T18:25:08.143Z</time></trkpt><trkpt lat="32.9235156" lon="10.4379539"><ele>241.25</ele><time>2026-04-26T18:25:09.124Z</time></trkpt><trkpt lat="32.9236057" lon="10.4380408"><ele>240.5</ele><time>2026-04-26T18:25:10.135Z</time></trkpt><trkpt lat="32.9236973" lon="10.4381286"><ele>239.75</ele><time>2026-04-26T18:25:11.132Z</time></trkpt><trkpt lat="32.9237914" lon="10.4382102"><ele>239.0</ele><time>2026-04-26T18:25:12.136Z</time></trkpt><trkpt lat="32.9238792" lon="10.4382971"><ele>239.0</ele><time>2026-04-26T18:25:13.144Z</time></trkpt><trkpt lat="32.9239684" lon="10.4383819"><ele>238.99999999999997</ele><time>2026-04-26T18:25:14.148Z</time></trkpt><trkpt lat="32.9240521" lon="10.4384596"><ele>238.99999999999997</ele><time>2026-04-26T18:25:15.132Z</time></trkpt><trkpt lat="32.9241352" lon="10.4385403"><ele>239.0</ele><time>2026-04-26T18:25:16.136Z</time></trkpt><trkpt lat="32.924212" lon="10.4386192"><ele>239.0</ele><time>2026-04-26T18:25:17.134Z</time></trkpt><trkpt lat="32.9242886" lon="10.4386969"><ele>239.2</ele><time>2026-04-26T18:25:18.124Z</time></trkpt><trkpt lat="32.9243615" lon="10.4387822"><ele>239.39999999999998</ele><time>2026-04-26T18:25:19.128Z</time></trkpt><trkpt lat="32.9244335" lon="10.4388667"><ele>239.6</ele><time>2026-04-26T18:25:20.134Z</time></trkpt><trkpt lat="32.924502" lon="10.4389443"><ele>239.8</ele><time>2026-04-26T18:25:21.132Z</time></trkpt><trkpt lat="32.9245685" lon="10.4390228"><ele>240.0</ele><time>2026-04-26T18:25:22.151Z</time></trkpt><trkpt lat="32.9246329" lon="10.4391046"><ele>240.4</ele><time>2026-04-26T18:25:23.133Z</time></trkpt><trkpt lat="32.924699" lon="10.4391857"><ele>240.8</ele><time>2026-04-26T18:25:24.124Z</time></trkpt><trkpt lat="32.9247662" lon="10.4392685"><ele>241.2</ele><time>2026-04-26T18:25:25.131Z</time></trkpt><trkpt lat="32.92483" lon="10.4393587"><ele>241.6</ele><time>2026-04-26T18:25:26.13Z</time></trkpt><trkpt lat="32.9248861" lon="10.439443"><ele>242.0</ele><time>2026-04-26T18:25:27.127Z</time></trkpt><trkpt lat="32.9249437" lon="10.439526"><ele>242.00000000000003</ele><time>2026-04-26T18:25:28.122Z</time></trkpt><trkpt lat="32.9250039" lon="10.439614"><ele>242.0</ele><time>2026-04-26T18:25:29.151Z</time></trkpt><trkpt lat="32.9250591" lon="10.4396985"><ele>242.0</ele><time>2026-04-26T18:25:30.134Z</time></trkpt><trkpt lat="32.9251128" lon="10.4397726"><ele>242.0</ele><time>2026-04-26T18:25:31.122Z</time></trkpt><trkpt lat="32.9251619" lon="10.439852"><ele>242.00000000000003</ele><time>2026-04-26T18:25:32.116Z</time></trkpt><trkpt lat="32.9251986" lon="10.4399236"><ele>242.0</ele><time>2026-04-26T18:25:33.144Z</time></trkpt><trkpt lat="32.9252676" lon="10.4400632"><ele>241.83333333333334</ele><time>2026-04-26T18:25:35.141Z</time></trkpt><trkpt lat="32.9253201" lon="10.4401387"><ele>241.66666666666669</ele><time>2026-04-26T18:25:36.127Z</time></trkpt><trkpt lat="32.9253732" lon="10.4402205"><ele>241.5</ele><time>2026-04-26T18:25:37.12Z</time></trkpt><trkpt lat="32.9254246" lon="10.4402994"><ele>241.33333333333331</ele><time>2026-04-26T18:25:38.13Z</time></trkpt><trkpt lat="32.9254699" lon="10.4403786"><ele>241.16666666666666</ele><time>2026-04-26T18:25:39.123Z</time></trkpt><trkpt lat="32.925515" lon="10.4404501"><ele>241.0</ele><time>2026-04-26T18:25:40.133Z</time></trkpt><trkpt lat="32.9255576" lon="10.4405252"><ele>240.99999999999997</ele><time>2026-04-26T18:25:41.126Z</time></trkpt><trkpt lat="32.9256021" lon="10.4405986"><ele>241.0</ele><time>2026-04-26T18:25:42.122Z</time></trkpt><trkpt lat="32.9256448" lon="10.4406731"><ele>241.0</ele><time>2026-04-26T18:25:43.138Z</time></trkpt><trkpt lat="32.9256876" lon="10.4407486"><ele>241.0</ele><time>2026-04-26T18:25:44.136Z</time></trkpt><trkpt lat="32.925731" lon="10.4408197"><ele>240.99999999999997</ele><time>2026-04-26T18:25:45.13Z</time></trkpt><trkpt lat="32.9257684" lon="10.4408969"><ele>241.0</ele><time>2026-04-26T18:25:46.13Z</time></trkpt><trkpt lat="32.925804" lon="10.4409794"><ele>240.99999999999997</ele><time>2026-04-26T18:25:47.124Z</time></trkpt><trkpt lat="32.9258413" lon="10.4410598"><ele>241.0</ele><time>2026-04-26T18:25:48.126Z</time></trkpt><trkpt lat="32.925879" lon="10.4411517"><ele>241.0</ele><time>2026-04-26T18:25:49.129Z</time></trkpt><trkpt lat="32.9259203" lon="10.4412363"><ele>241.0</ele><time>2026-04-26T18:25:50.138Z</time></trkpt><trkpt lat="32.9259596" lon="10.4413224"><ele>240.99999999999997</ele><time>2026-04-26T18:25:51.126Z</time></trkpt><trkpt lat="32.926002" lon="10.4414134"><ele>241.0</ele><time>2026-04-26T18:25:52.131Z</time></trkpt><trkpt lat="32.926041" lon="10.4415058"><ele>240.99999999999997</ele><time>2026-04-26T18:25:53.131Z</time></trkpt><trkpt lat="32.9260751" lon="10.4415931"><ele>241.0</ele><time>2026-04-26T18:25:54.139Z</time></trkpt><trkpt lat="32.9261133" lon="10.441687"><ele>241.0</ele><time>2026-04-26T18:25:55.133Z</time></trkpt><trkpt lat="32.9261562" lon="10.4417736"><ele>241.0</ele><time>2026-04-26T18:25:56.125Z</time></trkpt><trkpt lat="32.9262041" lon="10.4418686"><ele>240.99999999999997</ele><time>2026-04-26T18:25:57.132Z</time></trkpt><trkpt lat="32.926251" lon="10.4419642"><ele>241.0</ele><time>2026-04-26T18:25:58.127Z</time></trkpt><trkpt lat="32.9262959" lon="10.4420681"><ele>241.0</ele><time>2026-04-26T18:25:59.123Z</time></trkpt><trkpt lat="32.9263417" lon="10.4421774"><ele>241.00000000000003</ele><time>2026-04-26T18:26:00.131Z</time></trkpt><trkpt lat="32.9263936" lon="10.4422809"><ele>241.00000000000003</ele><time>2026-04-26T18:26:01.138Z</time></trkpt><trkpt lat="32.9264485" lon="10.4423907"><ele>241.0</ele><time>2026-04-26T18:26:02.151Z</time></trkpt><trkpt lat="32.9264962" lon="10.4424975"><ele>241.0</ele><time>2026-04-26T18:26:03.136Z</time></trkpt><trkpt lat="32.926545" lon="10.4425993"><ele>240.99999999999997</ele><time>2026-04-26T18:26:04.15Z</time></trkpt><trkpt lat="32.9265817" lon="10.442701"><ele>241.0</ele><time>2026-04-26T18:26:05.125Z</time></trkpt><trkpt lat="32.9266223" lon="10.4428003"><ele>241.0</ele><time>2026-04-26T18:26:06.154Z</time></trkpt><trkpt lat="32.9266522" lon="10.4428998"><ele>241.0</ele><time>2026-04-26T18:26:07.126Z</time></trkpt><trkpt lat="32.9266811" lon="10.4429875"><ele>240.99999999999997</ele><time>2026-04-26T18:26:08.132Z</time></trkpt><trkpt lat="32.926705" lon="10.4430785"><ele>241.0</ele><time>2026-04-26T18:26:09.144Z</time></trkpt><trkpt lat="32.9267216" lon="10.4431671"><ele>240.66666666666666</ele><time>2026-04-26T18:26:10.128Z</time></trkpt><trkpt lat="32.9267387" lon="10.4432536"><ele>240.33333333333331</ele><time>2026-04-26T18:26:11.13Z</time></trkpt><trkpt lat="32.9267617" lon="10.4433559"><ele>240.0</ele><time>2026-04-26T18:26:12.141Z</time></trkpt><trkpt lat="32.9267899" lon="10.4434468"><ele>239.66666666666669</ele><time>2026-04-26T18:26:13.131Z</time></trkpt><trkpt lat="32.9268181" lon="10.4435374"><ele>239.33333333333334</ele><time>2026-04-26T18:26:14.128Z</time></trkpt><trkpt lat="32.9268555" lon="10.4436252"><ele>239.0</ele><time>2026-04-26T18:26:15.124Z</time></trkpt><trkpt lat="32.9269003" lon="10.4437204"><ele>238.79999999999998</ele><time>2026-04-26T18:26:16.127Z</time></trkpt><trkpt lat="32.9269477" lon="10.4438187"><ele>238.59999999999997</ele><time>2026-04-26T18:26:17.128Z</time></trkpt><trkpt lat="32.9269929" lon="10.4439094"><ele>238.4</ele><time>2026-04-26T18:26:18.133Z</time></trkpt><trkpt lat="32.9270406" lon="10.4439992"><ele>238.2</ele><time>2026-04-26T18:26:19.127Z</time></trkpt><trkpt lat="32.9270879" lon="10.444099"><ele>238.0</ele><time>2026-04-26T18:26:20.133Z</time></trkpt><trkpt lat="32.9271361" lon="10.4441944"><ele>238.0</ele><time>2026-04-26T18:26:21.126Z</time></trkpt><trkpt lat="32.9271921" lon="10.4442906"><ele>238.0</ele><time>2026-04-26T18:26:22.125Z</time></trkpt><trkpt lat="32.9272491" lon="10.4443819"><ele>238.0</ele><time>2026-04-26T18:26:23.127Z</time></trkpt><trkpt lat="32.9273059" lon="10.4444724"><ele>238.0</ele><time>2026-04-26T18:26:24.134Z</time></trkpt><trkpt lat="32.9273527" lon="10.4445597"><ele>238.0</ele><time>2026-04-26T18:26:25.14Z</time></trkpt><trkpt lat="32.927402" lon="10.4446357"><ele>238.16666666666666</ele><time>2026-04-26T18:26:26.123Z</time></trkpt><trkpt lat="32.9274503" lon="10.4447094"><ele>238.33333333333331</ele><time>2026-04-26T18:26:27.122Z</time></trkpt><trkpt lat="32.9274995" lon="10.4447844"><ele>238.5</ele><time>2026-04-26T18:26:28.128Z</time></trkpt><trkpt lat="32.9275574" lon="10.4448615"><ele>238.66666666666669</ele><time>2026-04-26T18:26:29.135Z</time></trkpt><trkpt lat="32.9276134" lon="10.4449342"><ele>238.83333333333334</ele><time>2026-04-26T18:26:30.122Z</time></trkpt><trkpt lat="32.9276703" lon="10.4450055"><ele>239.0</ele><time>2026-04-26T18:26:31.126Z</time></trkpt><trkpt lat="32.9277292" lon="10.4450726"><ele>239.00000000000003</ele><time>2026-04-26T18:26:32.144Z</time></trkpt><trkpt lat="32.927783" lon="10.4451386"><ele>239.0</ele><time>2026-04-26T18:26:33.13Z</time></trkpt><trkpt lat="32.9278391" lon="10.4451982"><ele>239.0</ele><time>2026-04-26T18:26:34.146Z</time></trkpt><trkpt lat="32.927899" lon="10.4452583"><ele>239.0</ele><time>2026-04-26T18:26:35.127Z</time></trkpt><trkpt lat="32.9279552" lon="10.4453244"><ele>239.00000000000003</ele><time>2026-04-26T18:26:36.146Z</time></trkpt><trkpt lat="32.928016" lon="10.4453812"><ele>239.0</ele><time>2026-04-26T18:26:37.123Z</time></trkpt><trkpt lat="32.9280763" lon="10.445443"><ele>238.83333333333334</ele><time>2026-04-26T18:26:38.122Z</time></trkpt><trkpt lat="32.9281387" lon="10.4455005"><ele>238.66666666666669</ele><time>2026-04-26T18:26:39.143Z</time></trkpt><trkpt lat="32.9281982" lon="10.4455595"><ele>238.5</ele><time>2026-04-26T18:26:40.157Z</time></trkpt><trkpt lat="32.9282626" lon="10.4456162"><ele>238.33333333333331</ele><time>2026-04-26T18:26:41.129Z</time></trkpt><trkpt lat="32.9283278" lon="10.4456733"><ele>238.16666666666666</ele><time>2026-04-26T18:26:42.127Z</time></trkpt><trkpt lat="32.9283903" lon="10.4457322"><ele>238.0</ele><time>2026-04-26T18:26:43.145Z</time></trkpt><trkpt lat="32.9284508" lon="10.4457903"><ele>237.66666666666666</ele><time>2026-04-26T18:26:44.153Z</time></trkpt><trkpt lat="32.928514" lon="10.4458397"><ele>237.33333333333331</ele><time>2026-04-26T18:26:45.139Z</time></trkpt><trkpt lat="32.9285771" lon="10.4458991"><ele>237.0</ele><time>2026-04-26T18:26:46.148Z</time></trkpt><trkpt lat="32.9286403" lon="10.4459613"><ele>236.66666666666669</ele><time>2026-04-26T18:26:47.133Z</time></trkpt><trkpt lat="32.9287" lon="10.4460221"><ele>236.33333333333334</ele><time>2026-04-26T18:26:48.133Z</time></trkpt><trkpt lat="32.9287565" lon="10.4460747"><ele>236.0</ele><time>2026-04-26T18:26:49.135Z</time></trkpt><trkpt lat="32.9288119" lon="10.4461342"><ele>236.00000000000003</ele><time>2026-04-26T18:26:50.13Z</time></trkpt><trkpt lat="32.9288689" lon="10.446194"><ele>236.0</ele><time>2026-04-26T18:26:51.149Z</time></trkpt><trkpt lat="32.9289335" lon="10.4462523"><ele>236.0</ele><time>2026-04-26T18:26:52.128Z</time></trkpt><trkpt lat="32.929001" lon="10.4463212"><ele>236.0</ele><time>2026-04-26T18:26:53.117Z</time></trkpt><trkpt lat="32.9290636" lon="10.446386"><ele>236.00000000000003</ele><time>2026-04-26T18:26:54.127Z</time></trkpt><trkpt lat="32.9291219" lon="10.4464427"><ele>236.0</ele><time>2026-04-26T18:26:55.135Z</time></trkpt><trkpt lat="32.9291838" lon="10.4464916"><ele>236.14285714285714</ele><time>2026-04-26T18:26:56.134Z</time></trkpt><trkpt lat="32.9292366" lon="10.446546"><ele>236.28571428571428</ele><time>2026-04-26T18:26:57.126Z</time></trkpt><trkpt lat="32.9292905" lon="10.4465974"><ele>236.42857142857142</ele><time>2026-04-26T18:26:58.13Z</time></trkpt><trkpt lat="32.9293408" lon="10.4466459"><ele>236.57142857142856</ele><time>2026-04-26T18:26:59.14Z</time></trkpt><trkpt lat="32.9293941" lon="10.4466933"><ele>236.71428571428572</ele><time>2026-04-26T18:27:00.131Z</time></trkpt><trkpt lat="32.9294489" lon="10.4467387"><ele>236.85714285714283</ele><time>2026-04-26T18:27:01.147Z</time></trkpt><trkpt lat="32.9294988" lon="10.4467847"><ele>236.99999999999997</ele><time>2026-04-26T18:27:02.126Z</time></trkpt><trkpt lat="32.9295864" lon="10.4468764"><ele>237.0</ele><time>2026-04-26T18:27:04.124Z</time></trkpt><trkpt lat="32.9296469" lon="10.4469336"><ele>237.0</ele><time>2026-04-26T18:27:06.136Z</time></trkpt><trkpt lat="32.929699" lon="10.4469858"><ele>237.0</ele><time>2026-04-26T18:27:08.13Z</time></trkpt><trkpt lat="32.9297755" lon="10.447065"><ele>237.0</ele><time>2026-04-26T18:27:10.135Z</time></trkpt><trkpt lat="32.9298641" lon="10.4471759"><ele>237.0</ele><time>2026-04-26T18:27:12.131Z</time></trkpt><trkpt lat="32.9299404" lon="10.447293"><ele>236.99999999999997</ele><time>2026-04-26T18:27:14.135Z</time></trkpt><trkpt lat="32.9299875" lon="10.4473606"><ele>237.0</ele><time>2026-04-26T18:27:15.138Z</time></trkpt><trkpt lat="32.9300182" lon="10.4474277"><ele>236.99999999999997</ele><time>2026-04-26T18:27:16.123Z</time></trkpt><trkpt lat="32.9300552" lon="10.4474981"><ele>236.99999999999997</ele><time>2026-04-26T18:27:17.13Z</time></trkpt><trkpt lat="32.9300899" lon="10.4475701"><ele>237.0</ele><time>2026-04-26T18:27:18.148Z</time></trkpt><trkpt lat="32.930126" lon="10.4476329"><ele>236.99999999999997</ele><time>2026-04-26T18:27:19.13Z</time></trkpt><trkpt lat="32.9301642" lon="10.4477034"><ele>236.99999999999997</ele><time>2026-04-26T18:27:20.124Z</time></trkpt><trkpt lat="32.9302036" lon="10.4477713"><ele>237.0</ele><time>2026-04-26T18:27:21.135Z</time></trkpt><trkpt lat="32.9302408" lon="10.44784"><ele>237.0</ele><time>2026-04-26T18:27:22.12Z</time></trkpt><trkpt lat="32.9302815" lon="10.4479133"><ele>237.0</ele><time>2026-04-26T18:27:23.14Z</time></trkpt><trkpt lat="32.9303176" lon="10.4480031"><ele>237.0</ele><time>2026-04-26T18:27:24.123Z</time></trkpt><trkpt lat="32.9303582" lon="10.448085"><ele>237.0</ele><time>2026-04-26T18:27:25.13Z</time></trkpt><trkpt lat="32.9304019" lon="10.4481731"><ele>237.0</ele><time>2026-04-26T18:27:26.124Z</time></trkpt><trkpt lat="32.9304522" lon="10.4482633"><ele>237.0</ele><time>2026-04-26T18:27:27.137Z</time></trkpt><trkpt lat="32.9305018" lon="10.4483477"><ele>237.0</ele><time>2026-04-26T18:27:28.141Z</time></trkpt><trkpt lat="32.9305547" lon="10.4484452"><ele>237.0</ele><time>2026-04-26T18:27:29.128Z</time></trkpt><trkpt lat="32.9305986" lon="10.4485407"><ele>237.0</ele><time>2026-04-26T18:27:30.143Z</time></trkpt><trkpt lat="32.930644" lon="10.4486403"><ele>237.0</ele><time>2026-04-26T18:27:31.128Z</time></trkpt><trkpt lat="32.9306968" lon="10.4487335"><ele>237.16666666666666</ele><time>2026-04-26T18:27:32.157Z</time></trkpt><trkpt lat="32.9307408" lon="10.4488227"><ele>237.33333333333331</ele><time>2026-04-26T18:27:33.149Z</time></trkpt><trkpt lat="32.9307843" lon="10.4489072"><ele>237.5</ele><time>2026-04-26T18:27:34.135Z</time></trkpt><trkpt lat="32.9308262" lon="10.4489882"><ele>237.66666666666666</ele><time>2026-04-26T18:27:35.145Z</time></trkpt><trkpt lat="32.9308671" lon="10.4490776"><ele>237.83333333333331</ele><time>2026-04-26T18:27:36.128Z</time></trkpt><trkpt lat="32.930911" lon="10.4491746"><ele>238.0</ele><time>2026-04-26T18:27:37.136Z</time></trkpt><trkpt lat="32.9309612" lon="10.4492637"><ele>237.99999999999997</ele><time>2026-04-26T18:27:38.133Z</time></trkpt><trkpt lat="32.9310112" lon="10.4493483"><ele>238.0</ele><time>2026-04-26T18:27:39.13Z</time></trkpt><trkpt lat="32.9310536" lon="10.4494394"><ele>238.0</ele><time>2026-04-26T18:27:40.132Z</time></trkpt><trkpt lat="32.9311037" lon="10.4495282"><ele>238.0</ele><time>2026-04-26T18:27:41.127Z</time></trkpt><trkpt lat="32.9311495" lon="10.449609"><ele>237.99999999999997</ele><time>2026-04-26T18:27:42.139Z</time></trkpt><trkpt lat="32.9311934" lon="10.4496823"><ele>238.0</ele><time>2026-04-26T18:27:43.116Z</time></trkpt><trkpt lat="32.9312261" lon="10.4497602"><ele>238.16666666666666</ele><time>2026-04-26T18:27:44.126Z</time></trkpt><trkpt lat="32.931262" lon="10.4498317"><ele>238.33333333333331</ele><time>2026-04-26T18:27:45.14Z</time></trkpt><trkpt lat="32.9312995" lon="10.4499131"><ele>238.5</ele><time>2026-04-26T18:27:47.145Z</time></trkpt><trkpt lat="32.9313365" lon="10.4499896"><ele>238.66666666666669</ele><time>2026-04-26T18:27:51.128Z</time></trkpt><trkpt lat="32.9313745" lon="10.450067"><ele>238.83333333333334</ele><time>2026-04-26T18:27:54.118Z</time></trkpt><trkpt lat="32.931423" lon="10.4501469"><ele>239.0</ele><time>2026-04-26T18:27:57.13Z</time></trkpt><trkpt lat="32.9314524" lon="10.4502248"><ele>239.00000000000003</ele><time>2026-04-26T18:28:00.134Z</time></trkpt><trkpt lat="32.9314505" lon="10.4503016"><ele>239.0</ele><time>2026-04-26T18:28:04.134Z</time></trkpt><trkpt lat="32.9314434" lon="10.4503837"><ele>239.00000000000003</ele><time>2026-04-26T18:28:07.142Z</time></trkpt><trkpt lat="32.9314343" lon="10.450465"><ele>239.00000000000003</ele><time>2026-04-26T18:28:09.114Z</time></trkpt><trkpt lat="32.9314203" lon="10.4505922"><ele>239.0</ele><time>2026-04-26T18:28:11.139Z</time></trkpt><trkpt lat="32.9314023" lon="10.4506654"><ele>239.00000000000003</ele><time>2026-04-26T18:28:12.129Z</time></trkpt><trkpt lat="32.9313828" lon="10.450744"><ele>239.00000000000003</ele><time>2026-04-26T18:28:13.137Z</time></trkpt><trkpt lat="32.931367" lon="10.4508278"><ele>238.83333333333334</ele><time>2026-04-26T18:28:14.14Z</time></trkpt><trkpt lat="32.9313429" lon="10.4509209"><ele>238.66666666666669</ele><time>2026-04-26T18:28:15.138Z</time></trkpt><trkpt lat="32.9313213" lon="10.4510108"><ele>238.5</ele><time>2026-04-26T18:28:16.138Z</time></trkpt><trkpt lat="32.931306" lon="10.4510904"><ele>238.33333333333331</ele><time>2026-04-26T18:28:17.125Z</time></trkpt><trkpt lat="32.9312951" lon="10.4511689"><ele>238.16666666666666</ele><time>2026-04-26T18:28:18.135Z</time></trkpt><trkpt lat="32.9312812" lon="10.4512451"><ele>238.0</ele><time>2026-04-26T18:28:19.142Z</time></trkpt><trkpt lat="32.9312521" lon="10.4513745"><ele>237.8</ele><time>2026-04-26T18:28:21.125Z</time></trkpt><trkpt lat="32.9312303" lon="10.4514635"><ele>237.60000000000002</ele><time>2026-04-26T18:28:23.129Z</time></trkpt><trkpt lat="32.9312101" lon="10.4515498"><ele>237.39999999999998</ele><time>2026-04-26T18:28:31.126Z</time></trkpt><trkpt lat="32.9311963" lon="10.451641"><ele>237.2</ele><time>2026-04-26T18:28:34.137Z</time></trkpt><trkpt lat="32.9312527" lon="10.4517326"><ele>237.0</ele><time>2026-04-26T18:28:36.138Z</time></trkpt><trkpt lat="32.9313405" lon="10.451837"><ele>237.0</ele><time>2026-04-26T18:28:38.141Z</time></trkpt><trkpt lat="32.9314302" lon="10.4519375"><ele>237.0</ele><time>2026-04-26T18:28:40.149Z</time></trkpt><trkpt lat="32.9315163" lon="10.4520324"><ele>237.0</ele><time>2026-04-26T18:28:42.129Z</time></trkpt><trkpt lat="32.9316237" lon="10.4520949"><ele>237.0</ele><time>2026-04-26T18:28:44.151Z</time></trkpt><trkpt lat="32.9317311" lon="10.4521882"><ele>236.71428571428567</ele><time>2026-04-26T18:28:46.146Z</time></trkpt><trkpt lat="32.931787" lon="10.4522341"><ele>236.42857142857142</ele><time>2026-04-26T18:28:47.134Z</time></trkpt><trkpt lat="32.9318427" lon="10.4522868"><ele>236.1428571428571</ele><time>2026-04-26T18:28:48.136Z</time></trkpt><trkpt lat="32.9319026" lon="10.4523322"><ele>235.85714285714283</ele><time>2026-04-26T18:28:49.124Z</time></trkpt><trkpt lat="32.9319648" lon="10.4523825"><ele>235.57142857142856</ele><time>2026-04-26T18:28:50.13Z</time></trkpt><trkpt lat="32.9320299" lon="10.4524441"><ele>235.28571428571428</ele><time>2026-04-26T18:28:51.148Z</time></trkpt><trkpt lat="32.9320911" lon="10.4524952"><ele>235.0</ele><time>2026-04-26T18:28:52.122Z</time></trkpt><trkpt lat="32.9321495" lon="10.4525491"><ele>234.99999999999997</ele><time>2026-04-26T18:28:53.128Z</time></trkpt><trkpt lat="32.932214" lon="10.4526044"><ele>235.0</ele><time>2026-04-26T18:28:54.134Z</time></trkpt><trkpt lat="32.932275" lon="10.4526569"><ele>235.0</ele><time>2026-04-26T18:28:55.162Z</time></trkpt><trkpt lat="32.9323462" lon="10.4527054"><ele>235.0</ele><time>2026-04-26T18:28:56.14Z</time></trkpt><trkpt lat="32.93242" lon="10.4527536"><ele>234.99999999999997</ele><time>2026-04-26T18:28:57.124Z</time></trkpt><trkpt lat="32.9324938" lon="10.4527991"><ele>235.0</ele><time>2026-04-26T18:28:58.118Z</time></trkpt><trkpt lat="32.9325614" lon="10.4528449"><ele>235.16666666666666</ele><time>2026-04-26T18:28:59.125Z</time></trkpt><trkpt lat="32.9326367" lon="10.4529054"><ele>235.33333333333331</ele><time>2026-04-26T18:29:00.14Z</time></trkpt><trkpt lat="32.9327025" lon="10.4529617"><ele>235.5</ele><time>2026-04-26T18:29:01.125Z</time></trkpt><trkpt lat="32.9327581" lon="10.4530212"><ele>235.66666666666669</ele><time>2026-04-26T18:29:02.118Z</time></trkpt><trkpt lat="32.9328264" lon="10.4530806"><ele>235.83333333333334</ele><time>2026-04-26T18:29:03.128Z</time></trkpt><trkpt lat="32.9328965" lon="10.4531339"><ele>236.0</ele><time>2026-04-26T18:29:04.121Z</time></trkpt><trkpt lat="32.9329601" lon="10.4531928"><ele>236.00000000000003</ele><time>2026-04-26T18:29:05.142Z</time></trkpt><trkpt lat="32.9330252" lon="10.4532522"><ele>236.0</ele><time>2026-04-26T18:29:06.144Z</time></trkpt><trkpt lat="32.9330964" lon="10.4533144"><ele>236.0</ele><time>2026-04-26T18:29:07.156Z</time></trkpt><trkpt lat="32.9331674" lon="10.4533681"><ele>236.0</ele><time>2026-04-26T18:29:08.139Z</time></trkpt><trkpt lat="32.9332452" lon="10.4534376"><ele>236.00000000000003</ele><time>2026-04-26T18:29:09.122Z</time></trkpt><trkpt lat="32.9333123" lon="10.4535029"><ele>236.0</ele><time>2026-04-26T18:29:10.144Z</time></trkpt><trkpt lat="32.9333829" lon="10.4535609"><ele>235.83333333333334</ele><time>2026-04-26T18:29:11.129Z</time></trkpt><trkpt lat="32.9334467" lon="10.4536268"><ele>235.66666666666669</ele><time>2026-04-26T18:29:12.115Z</time></trkpt><trkpt lat="32.9335124" lon="10.4536851"><ele>235.5</ele><time>2026-04-26T18:29:13.125Z</time></trkpt><trkpt lat="32.9335722" lon="10.4537448"><ele>235.33333333333331</ele><time>2026-04-26T18:29:14.142Z</time></trkpt><trkpt lat="32.9336379" lon="10.4538011"><ele>235.16666666666666</ele><time>2026-04-26T18:29:15.134Z</time></trkpt><trkpt lat="32.9337018" lon="10.4538536"><ele>235.0</ele><time>2026-04-26T18:29:16.136Z</time></trkpt><trkpt lat="32.9337605" lon="10.4539087"><ele>235.0</ele><time>2026-04-26T18:29:17.139Z</time></trkpt><trkpt lat="32.9338166" lon="10.4539703"><ele>235.0</ele><time>2026-04-26T18:29:18.135Z</time></trkpt><trkpt lat="32.9338997" lon="10.4540714"><ele>235.0</ele><time>2026-04-26T18:29:20.131Z</time></trkpt><trkpt lat="32.9339628" lon="10.454135"><ele>235.0</ele><time>2026-04-26T18:29:22.13Z</time></trkpt><trkpt lat="32.9340268" lon="10.4542059"><ele>235.0</ele><time>2026-04-26T18:29:24.158Z</time></trkpt><trkpt lat="32.9341022" lon="10.4542809"><ele>234.99999999999997</ele><time>2026-04-26T18:29:26.165Z</time></trkpt><trkpt lat="32.9342016" lon="10.4543627"><ele>235.0</ele><time>2026-04-26T18:29:28.128Z</time></trkpt><trkpt lat="32.9342592" lon="10.4544149"><ele>235.0</ele><time>2026-04-26T18:29:29.122Z</time></trkpt><trkpt lat="32.9343117" lon="10.4544638"><ele>235.0</ele><time>2026-04-26T18:29:30.131Z</time></trkpt><trkpt lat="32.9343706" lon="10.454518"><ele>234.99999999999997</ele><time>2026-04-26T18:29:31.131Z</time></trkpt><trkpt lat="32.934436" lon="10.4545764"><ele>235.0</ele><time>2026-04-26T18:29:32.114Z</time></trkpt><trkpt lat="32.9344995" lon="10.4546348"><ele>234.49999999999997</ele><time>2026-04-26T18:29:33.122Z</time></trkpt><trkpt lat="32.9345604" lon="10.4546907"><ele>234.0</ele><time>2026-04-26T18:29:34.122Z</time></trkpt><trkpt lat="32.93463" lon="10.4547474"><ele>233.5</ele><time>2026-04-26T18:29:35.121Z</time></trkpt><trkpt lat="32.9346941" lon="10.4548069"><ele>233.0</ele><time>2026-04-26T18:29:36.136Z</time></trkpt><trkpt lat="32.9347563" lon="10.4548708"><ele>232.49999999999997</ele><time>2026-04-26T18:29:37.137Z</time></trkpt><trkpt lat="32.9348261" lon="10.4549363"><ele>232.0</ele><time>2026-04-26T18:29:38.131Z</time></trkpt><trkpt lat="32.9348969" lon="10.4549949"><ele>231.99999999999997</ele><time>2026-04-26T18:29:39.123Z</time></trkpt><trkpt lat="32.9349632" lon="10.4550618"><ele>232.0</ele><time>2026-04-26T18:29:40.123Z</time></trkpt><trkpt lat="32.9350281" lon="10.4551293"><ele>232.0</ele><time>2026-04-26T18:29:41.132Z</time></trkpt><trkpt lat="32.9350916" lon="10.4552015"><ele>232.0</ele><time>2026-04-26T18:29:42.125Z</time></trkpt><trkpt lat="32.935165" lon="10.4552671"><ele>231.99999999999997</ele><time>2026-04-26T18:29:43.133Z</time></trkpt><trkpt lat="32.93524" lon="10.4553299"><ele>232.0</ele><time>2026-04-26T18:29:44.121Z</time></trkpt><trkpt lat="32.9353093" lon="10.4553935"><ele>231.8</ele><time>2026-04-26T18:29:45.122Z</time></trkpt><trkpt lat="32.9353885" lon="10.4554608"><ele>231.6</ele><time>2026-04-26T18:29:46.137Z</time></trkpt><trkpt lat="32.935471" lon="10.4555217"><ele>231.40000000000003</ele><time>2026-04-26T18:29:47.121Z</time></trkpt><trkpt lat="32.935549" lon="10.4555797"><ele>231.20000000000002</ele><time>2026-04-26T18:29:48.121Z</time></trkpt><trkpt lat="32.9356298" lon="10.4556328"><ele>231.0</ele><time>2026-04-26T18:29:49.141Z</time></trkpt><trkpt lat="32.9357081" lon="10.4556986"><ele>231.0</ele><time>2026-04-26T18:29:50.164Z</time></trkpt><trkpt lat="32.9357878" lon="10.4557611"><ele>231.00000000000003</ele><time>2026-04-26T18:29:51.126Z</time></trkpt><trkpt lat="32.9358696" lon="10.4558242"><ele>231.00000000000003</ele><time>2026-04-26T18:29:52.153Z</time></trkpt><trkpt lat="32.935948" lon="10.4558868"><ele>231.0</ele><time>2026-04-26T18:29:53.119Z</time></trkpt><trkpt lat="32.9360309" lon="10.4559495"><ele>231.0</ele><time>2026-04-26T18:29:54.131Z</time></trkpt><trkpt lat="32.9361129" lon="10.4560078"><ele>230.60000000000002</ele><time>2026-04-26T18:29:55.148Z</time></trkpt><trkpt lat="32.9361996" lon="10.4560645"><ele>230.20000000000002</ele><time>2026-04-26T18:29:56.125Z</time></trkpt><trkpt lat="32.9363023" lon="10.4561251"><ele>229.79999999999998</ele><time>2026-04-26T18:29:57.132Z</time></trkpt><trkpt lat="32.9364014" lon="10.4561875"><ele>229.39999999999998</ele><time>2026-04-26T18:29:58.132Z</time></trkpt><trkpt lat="32.936501" lon="10.4562527"><ele>229.0</ele><time>2026-04-26T18:29:59.142Z</time></trkpt><trkpt lat="32.9365959" lon="10.4563111"><ele>228.99999999999997</ele><time>2026-04-26T18:30:00.134Z</time></trkpt><trkpt lat="32.9366793" lon="10.4563634"><ele>229.0</ele><time>2026-04-26T18:30:01.156Z</time></trkpt><trkpt lat="32.9367589" lon="10.4564271"><ele>229.0</ele><time>2026-04-26T18:30:02.146Z</time></trkpt><trkpt lat="32.9368375" lon="10.4564854"><ele>229.0</ele><time>2026-04-26T18:30:03.135Z</time></trkpt><trkpt lat="32.9369111" lon="10.4565359"><ele>228.99999999999997</ele><time>2026-04-26T18:30:04.134Z</time></trkpt><trkpt lat="32.9369798" lon="10.4565803"><ele>229.0</ele><time>2026-04-26T18:30:05.126Z</time></trkpt><trkpt lat="32.9370543" lon="10.456626"><ele>228.79999999999998</ele><time>2026-04-26T18:30:06.125Z</time></trkpt><trkpt lat="32.9371253" lon="10.4566871"><ele>228.59999999999997</ele><time>2026-04-26T18:30:07.131Z</time></trkpt><trkpt lat="32.937198" lon="10.4567493"><ele>228.4</ele><time>2026-04-26T18:30:08.13Z</time></trkpt><trkpt lat="32.9372757" lon="10.4568163"><ele>228.2</ele><time>2026-04-26T18:30:09.133Z</time></trkpt><trkpt lat="32.937348" lon="10.4568818"><ele>228.0</ele><time>2026-04-26T18:30:10.139Z</time></trkpt><trkpt lat="32.9374194" lon="10.4569418"><ele>228.0</ele><time>2026-04-26T18:30:11.143Z</time></trkpt><trkpt lat="32.9374983" lon="10.4570077"><ele>228.0</ele><time>2026-04-26T18:30:12.135Z</time></trkpt><trkpt lat="32.9375773" lon="10.4570727"><ele>228.0</ele><time>2026-04-26T18:30:13.139Z</time></trkpt><trkpt lat="32.9376537" lon="10.4571404"><ele>228.0</ele><time>2026-04-26T18:30:14.122Z</time></trkpt><trkpt lat="32.9377282" lon="10.4572074"><ele>228.0</ele><time>2026-04-26T18:30:15.123Z</time></trkpt><trkpt lat="32.9378095" lon="10.4572761"><ele>228.0</ele><time>2026-04-26T18:30:16.139Z</time></trkpt><trkpt lat="32.9378839" lon="10.4573469"><ele>228.0</ele><time>2026-04-26T18:30:17.124Z</time></trkpt><trkpt lat="32.9379669" lon="10.4574189"><ele>228.0</ele><time>2026-04-26T18:30:18.137Z</time></trkpt><trkpt lat="32.93805" lon="10.4574915"><ele>228.0</ele><time>2026-04-26T18:30:19.158Z</time></trkpt><trkpt lat="32.9381338" lon="10.4575644"><ele>228.0</ele><time>2026-04-26T18:30:20.138Z</time></trkpt><trkpt lat="32.938216" lon="10.4576379"><ele>228.0</ele><time>2026-04-26T18:30:21.129Z</time></trkpt><trkpt lat="32.9382963" lon="10.4577107"><ele>228.0</ele><time>2026-04-26T18:30:22.132Z</time></trkpt><trkpt lat="32.9383825" lon="10.4577818"><ele>228.0</ele><time>2026-04-26T18:30:23.135Z</time></trkpt><trkpt lat="32.9384669" lon="10.4578529"><ele>228.0</ele><time>2026-04-26T18:30:24.143Z</time></trkpt><trkpt lat="32.9385486" lon="10.4579227"><ele>228.0</ele><time>2026-04-26T18:30:25.15Z</time></trkpt><trkpt lat="32.9386342" lon="10.4579921"><ele>227.60000000000002</ele><time>2026-04-26T18:30:26.146Z</time></trkpt><trkpt lat="32.9387189" lon="10.4580684"><ele>227.20000000000002</ele><time>2026-04-26T18:30:27.142Z</time></trkpt><trkpt lat="32.9388026" lon="10.4581468"><ele>226.8</ele><time>2026-04-26T18:30:28.132Z</time></trkpt><trkpt lat="32.9388846" lon="10.4582212"><ele>226.4</ele><time>2026-04-26T18:30:29.133Z</time></trkpt><trkpt lat="32.9389645" lon="10.4582929"><ele>226.0</ele><time>2026-04-26T18:30:30.131Z</time></trkpt><trkpt lat="32.9390463" lon="10.4583563"><ele>226.0</ele><time>2026-04-26T18:30:31.14Z</time></trkpt><trkpt lat="32.9391268" lon="10.458424"><ele>226.00000000000003</ele><time>2026-04-26T18:30:32.126Z</time></trkpt><trkpt lat="32.9392079" lon="10.4584912"><ele>226.00000000000003</ele><time>2026-04-26T18:30:33.138Z</time></trkpt><trkpt lat="32.939286" lon="10.4585605"><ele>226.0</ele><time>2026-04-26T18:30:34.134Z</time></trkpt><trkpt lat="32.9393644" lon="10.4586311"><ele>226.0</ele><time>2026-04-26T18:30:35.136Z</time></trkpt><trkpt lat="32.9394385" lon="10.4586989"><ele>226.4</ele><time>2026-04-26T18:30:36.151Z</time></trkpt><trkpt lat="32.9395091" lon="10.4587675"><ele>226.8</ele><time>2026-04-26T18:30:37.133Z</time></trkpt><trkpt lat="32.939577" lon="10.4588315"><ele>227.20000000000002</ele><time>2026-04-26T18:30:38.137Z</time></trkpt><trkpt lat="32.939648" lon="10.4589003"><ele>227.60000000000002</ele><time>2026-04-26T18:30:39.142Z</time></trkpt><trkpt lat="32.9397197" lon="10.4589648"><ele>228.0</ele><time>2026-04-26T18:30:40.131Z</time></trkpt><trkpt lat="32.9397952" lon="10.4590274"><ele>228.0</ele><time>2026-04-26T18:30:41.139Z</time></trkpt><trkpt lat="32.939861" lon="10.4590909"><ele>228.0</ele><time>2026-04-26T18:30:42.118Z</time></trkpt><trkpt lat="32.9399319" lon="10.4591566"><ele>228.0</ele><time>2026-04-26T18:30:43.124Z</time></trkpt><trkpt lat="32.940002" lon="10.4592213"><ele>228.0</ele><time>2026-04-26T18:30:44.128Z</time></trkpt><trkpt lat="32.9400696" lon="10.4592912"><ele>228.0</ele><time>2026-04-26T18:30:45.126Z</time></trkpt><trkpt lat="32.9401393" lon="10.4593573"><ele>228.0</ele><time>2026-04-26T18:30:46.111Z</time></trkpt><trkpt lat="32.9402076" lon="10.4594238"><ele>227.83333333333334</ele><time>2026-04-26T18:30:47.124Z</time></trkpt><trkpt lat="32.9402767" lon="10.4594818"><ele>227.66666666666669</ele><time>2026-04-26T18:30:48.134Z</time></trkpt><trkpt lat="32.9403436" lon="10.4595432"><ele>227.5</ele><time>2026-04-26T18:30:49.128Z</time></trkpt><trkpt lat="32.9404098" lon="10.459604"><ele>227.33333333333334</ele><time>2026-04-26T18:30:50.163Z</time></trkpt><trkpt lat="32.9404691" lon="10.4596685"><ele>227.16666666666669</ele><time>2026-04-26T18:30:51.167Z</time></trkpt><trkpt lat="32.9405334" lon="10.459728"><ele>227.0</ele><time>2026-04-26T18:30:52.144Z</time></trkpt><trkpt lat="32.9405952" lon="10.4597884"><ele>227.16666666666669</ele><time>2026-04-26T18:30:53.122Z</time></trkpt><trkpt lat="32.9406548" lon="10.4598563"><ele>227.33333333333334</ele><time>2026-04-26T18:30:54.128Z</time></trkpt><trkpt lat="32.9407105" lon="10.4599256"><ele>227.5</ele><time>2026-04-26T18:30:55.14Z</time></trkpt><trkpt lat="32.940763" lon="10.4599961"><ele>227.66666666666669</ele><time>2026-04-26T18:30:56.128Z</time></trkpt><trkpt lat="32.9408145" lon="10.4600677"><ele>227.83333333333334</ele><time>2026-04-26T18:30:57.133Z</time></trkpt><trkpt lat="32.9408653" lon="10.4601433"><ele>228.0</ele><time>2026-04-26T18:30:58.12Z</time></trkpt><trkpt lat="32.9409164" lon="10.4602193"><ele>228.0</ele><time>2026-04-26T18:30:59.13Z</time></trkpt><trkpt lat="32.9409694" lon="10.4602946"><ele>228.0</ele><time>2026-04-26T18:31:00.131Z</time></trkpt><trkpt lat="32.9410147" lon="10.4603738"><ele>228.0</ele><time>2026-04-26T18:31:01.131Z</time></trkpt><trkpt lat="32.9410601" lon="10.4604536"><ele>228.0</ele><time>2026-04-26T18:31:02.141Z</time></trkpt><trkpt lat="32.9411129" lon="10.460524"><ele>228.0</ele><time>2026-04-26T18:31:03.136Z</time></trkpt><trkpt lat="32.9411646" lon="10.4605971"><ele>228.0</ele><time>2026-04-26T18:31:04.136Z</time></trkpt><trkpt lat="32.9412168" lon="10.4606711"><ele>228.14285714285714</ele><time>2026-04-26T18:31:05.125Z</time></trkpt><trkpt lat="32.9412607" lon="10.4607378"><ele>228.28571428571428</ele><time>2026-04-26T18:31:06.149Z</time></trkpt><trkpt lat="32.941306" lon="10.4608084"><ele>228.42857142857142</ele><time>2026-04-26T18:31:07.126Z</time></trkpt><trkpt lat="32.9413491" lon="10.4608726"><ele>228.57142857142856</ele><time>2026-04-26T18:31:08.154Z</time></trkpt><trkpt lat="32.9413902" lon="10.4609472"><ele>228.71428571428572</ele><time>2026-04-26T18:31:09.127Z</time></trkpt><trkpt lat="32.9414297" lon="10.4610216"><ele>228.85714285714283</ele><time>2026-04-26T18:31:10.135Z</time></trkpt><trkpt lat="32.9414718" lon="10.4610975"><ele>229.0</ele><time>2026-04-26T18:31:11.162Z</time></trkpt><trkpt lat="32.9415123" lon="10.4611698"><ele>228.99999999999997</ele><time>2026-04-26T18:31:12.132Z</time></trkpt><trkpt lat="32.9415555" lon="10.4612389"><ele>229.0</ele><time>2026-04-26T18:31:13.135Z</time></trkpt><trkpt lat="32.9415927" lon="10.4613049"><ele>229.0</ele><time>2026-04-26T18:31:14.135Z</time></trkpt><trkpt lat="32.9416374" lon="10.4613771"><ele>229.0</ele><time>2026-04-26T18:31:15.128Z</time></trkpt><trkpt lat="32.9416795" lon="10.4614461"><ele>228.99999999999997</ele><time>2026-04-26T18:31:16.135Z</time></trkpt><trkpt lat="32.9417231" lon="10.4615224"><ele>229.0</ele><time>2026-04-26T18:31:17.155Z</time></trkpt><trkpt lat="32.9417813" lon="10.4615984"><ele>229.6</ele><time>2026-04-26T18:31:18.145Z</time></trkpt><trkpt lat="32.9418396" lon="10.4616753"><ele>230.2</ele><time>2026-04-26T18:31:19.123Z</time></trkpt><trkpt lat="32.9419055" lon="10.4617665"><ele>230.79999999999998</ele><time>2026-04-26T18:31:20.133Z</time></trkpt><trkpt lat="32.9419723" lon="10.4618547"><ele>231.39999999999998</ele><time>2026-04-26T18:31:21.134Z</time></trkpt><trkpt lat="32.9420408" lon="10.4619378"><ele>232.0</ele><time>2026-04-26T18:31:22.121Z</time></trkpt><trkpt lat="32.9421006" lon="10.4620289"><ele>231.6</ele><time>2026-04-26T18:31:23.128Z</time></trkpt><trkpt lat="32.9421649" lon="10.4621182"><ele>231.2</ele><time>2026-04-26T18:31:24.141Z</time></trkpt><trkpt lat="32.9422309" lon="10.4622078"><ele>230.8</ele><time>2026-04-26T18:31:25.158Z</time></trkpt><trkpt lat="32.9422934" lon="10.4623029"><ele>230.4</ele><time>2026-04-26T18:31:26.117Z</time></trkpt><trkpt lat="32.9423528" lon="10.4623827"><ele>230.0</ele><time>2026-04-26T18:31:27.146Z</time></trkpt><trkpt lat="32.9424084" lon="10.4624679"><ele>230.0</ele><time>2026-04-26T18:31:28.14Z</time></trkpt><trkpt lat="32.9424652" lon="10.462554"><ele>230.0</ele><time>2026-04-26T18:31:29.163Z</time></trkpt><trkpt lat="32.9425227" lon="10.462649"><ele>230.0</ele><time>2026-04-26T18:31:30.133Z</time></trkpt><trkpt lat="32.9425828" lon="10.4627328"><ele>230.0</ele><time>2026-04-26T18:31:31.129Z</time></trkpt><trkpt lat="32.9426478" lon="10.4628137"><ele>230.0</ele><time>2026-04-26T18:31:32.128Z</time></trkpt><trkpt lat="32.9427136" lon="10.462891"><ele>229.4</ele><time>2026-04-26T18:31:33.137Z</time></trkpt><trkpt lat="32.942773" lon="10.4629698"><ele>228.8</ele><time>2026-04-26T18:31:34.136Z</time></trkpt><trkpt lat="32.9428379" lon="10.4630478"><ele>228.2</ele><time>2026-04-26T18:31:35.162Z</time></trkpt><trkpt lat="32.9429047" lon="10.4631182"><ele>227.6</ele><time>2026-04-26T18:31:36.131Z</time></trkpt><trkpt lat="32.9429724" lon="10.463192"><ele>227.0</ele><time>2026-04-26T18:31:37.141Z</time></trkpt><trkpt lat="32.9430378" lon="10.4632696"><ele>227.00000000000003</ele><time>2026-04-26T18:31:38.133Z</time></trkpt><trkpt lat="32.9431009" lon="10.4633454"><ele>227.0</ele><time>2026-04-26T18:31:39.148Z</time></trkpt><trkpt lat="32.9431622" lon="10.4634151"><ele>227.0</ele><time>2026-04-26T18:31:40.149Z</time></trkpt><trkpt lat="32.9432142" lon="10.4634773"><ele>227.0</ele><time>2026-04-26T18:31:41.153Z</time></trkpt><trkpt lat="32.9432743" lon="10.463537"><ele>227.00000000000003</ele><time>2026-04-26T18:31:42.141Z</time></trkpt><trkpt lat="32.9433431" lon="10.4636118"><ele>227.0</ele><time>2026-04-26T18:31:43.125Z</time></trkpt><trkpt lat="32.943414" lon="10.4636968"><ele>227.8</ele><time>2026-04-26T18:31:44.129Z</time></trkpt><trkpt lat="32.9434857" lon="10.4637828"><ele>228.6</ele><time>2026-04-26T18:31:45.125Z</time></trkpt><trkpt lat="32.9435553" lon="10.4638743"><ele>229.40000000000003</ele><time>2026-04-26T18:31:46.126Z</time></trkpt><trkpt lat="32.9436184" lon="10.4639817"><ele>230.20000000000002</ele><time>2026-04-26T18:31:47.123Z</time></trkpt><trkpt lat="32.9436702" lon="10.4641002"><ele>231.0</ele><time>2026-04-26T18:31:48.13Z</time></trkpt><trkpt lat="32.9437087" lon="10.4642365"><ele>231.0</ele><time>2026-04-26T18:31:49.126Z</time></trkpt><trkpt lat="32.9437487" lon="10.4643872"><ele>231.0</ele><time>2026-04-26T18:31:50.122Z</time></trkpt><trkpt lat="32.9437831" lon="10.464543"><ele>231.0</ele><time>2026-04-26T18:31:51.134Z</time></trkpt><trkpt lat="32.9438052" lon="10.4647041"><ele>231.0</ele><time>2026-04-26T18:31:52.139Z</time></trkpt><trkpt lat="32.9438246" lon="10.4648595"><ele>231.5</ele><time>2026-04-26T18:31:53.139Z</time></trkpt><trkpt lat="32.9438426" lon="10.4650219"><ele>232.0</ele><time>2026-04-26T18:31:54.14Z</time></trkpt><trkpt lat="32.9438538" lon="10.4651838"><ele>232.5</ele><time>2026-04-26T18:31:55.129Z</time></trkpt><trkpt lat="32.9438722" lon="10.4653383"><ele>233.0</ele><time>2026-04-26T18:31:56.127Z</time></trkpt><trkpt lat="32.9438915" lon="10.4654832"><ele>234.25</ele><time>2026-04-26T18:31:57.149Z</time></trkpt><trkpt lat="32.9439229" lon="10.4656264"><ele>235.5</ele><time>2026-04-26T18:31:58.139Z</time></trkpt><trkpt lat="32.9439708" lon="10.4657736"><ele>236.75</ele><time>2026-04-26T18:31:59.136Z</time></trkpt><trkpt lat="32.9440381" lon="10.4659051"><ele>238.0</ele><time>2026-04-26T18:32:00.121Z</time></trkpt><trkpt lat="32.9441128" lon="10.4660267"><ele>238.0</ele><time>2026-04-26T18:32:01.143Z</time></trkpt><trkpt lat="32.9441869" lon="10.4661454"><ele>238.0</ele><time>2026-04-26T18:32:02.132Z</time></trkpt><trkpt lat="32.944266" lon="10.4662674"><ele>238.0</ele><time>2026-04-26T18:32:03.131Z</time></trkpt><trkpt lat="32.9443437" lon="10.4663862"><ele>238.0</ele><time>2026-04-26T18:32:04.13Z</time></trkpt><trkpt lat="32.9444194" lon="10.4665112"><ele>237.25</ele><time>2026-04-26T18:32:05.129Z</time></trkpt><trkpt lat="32.9444938" lon="10.4666359"><ele>236.5</ele><time>2026-04-26T18:32:06.136Z</time></trkpt><trkpt lat="32.9445577" lon="10.4667537"><ele>235.75</ele><time>2026-04-26T18:32:07.135Z</time></trkpt><trkpt lat="32.9446176" lon="10.4668721"><ele>235.0</ele><time>2026-04-26T18:32:08.17Z</time></trkpt><trkpt lat="32.944674" lon="10.4669896"><ele>234.99999999999997</ele><time>2026-04-26T18:32:09.143Z</time></trkpt><trkpt lat="32.9447206" lon="10.4671028"><ele>235.0</ele><time>2026-04-26T18:32:10.131Z</time></trkpt><trkpt lat="32.9447548" lon="10.4672097"><ele>235.0</ele><time>2026-04-26T18:32:11.146Z</time></trkpt><trkpt lat="32.9447912" lon="10.4673057"><ele>235.0</ele><time>2026-04-26T18:32:12.145Z</time></trkpt><trkpt lat="32.9448233" lon="10.4673975"><ele>234.99999999999997</ele><time>2026-04-26T18:32:13.122Z</time></trkpt><trkpt lat="32.9448428" lon="10.4674766"><ele>235.0</ele><time>2026-04-26T18:32:14.128Z</time></trkpt><trkpt lat="32.9448698" lon="10.4675526"><ele>234.49999999999997</ele><time>2026-04-26T18:32:15.142Z</time></trkpt><trkpt lat="32.9449106" lon="10.4676829"><ele>234.0</ele><time>2026-04-26T18:32:17.131Z</time></trkpt><trkpt lat="32.9449425" lon="10.4677732"><ele>233.5</ele><time>2026-04-26T18:32:19.132Z</time></trkpt><trkpt lat="32.9449698" lon="10.4678658"><ele>233.0</ele><time>2026-04-26T18:32:22.13Z</time></trkpt><trkpt lat="32.945037" lon="10.4679105"><ele>232.49999999999997</ele><time>2026-04-26T18:32:25.137Z</time></trkpt><trkpt lat="32.9451065" lon="10.4678425"><ele>232.0</ele><time>2026-04-26T18:32:28.114Z</time></trkpt><trkpt lat="32.945143" lon="10.4677744"><ele>232.0</ele><time>2026-04-26T18:32:31.113Z</time></trkpt><trkpt lat="32.9451832" lon="10.4676955"><ele>232.0</ele><time>2026-04-26T18:32:35.121Z</time></trkpt><trkpt lat="32.9451527" lon="10.4676282"><ele>232.0</ele><time>2026-04-26T18:32:40.121Z</time></trkpt><trkpt lat="32.9450816" lon="10.4676062"><ele>232.0</ele><time>2026-04-26T18:32:59.135Z</time></trkpt><trkpt lat="32.9450399" lon="10.4675301"><ele>239.0</ele><time>2026-04-26T18:33:03.119Z</time></trkpt><trkpt lat="32.9450177" lon="10.4674597"><ele>239.0</ele><time>2026-04-26T18:33:06.13Z</time></trkpt><trkpt lat="32.9449527" lon="10.4674539"><ele>239.0</ele><time>2026-04-26T18:33:11.117Z</time></trkpt></trkseg></trk></gpx>